<?xml version="1.0" encoding="UTF-8" standalone="no" ?>
<gpx xmlns="http://www.topografix.com/GPX/1/1" xmlns:xsi="http://www.w3.org/2001/XMLSchema-instance" xsi:schemaLocation="http://www.topografix.com/GPX/1/1 http://www.topografix.com/GPX/1/1/gpx.xsd" version="1.1" creator="VisuGPX - https://www.visugpx.com">
  <metadata>
    <name>2023 11 23 boucle automnale</name>
  </metadata>
  <trk>
    <name><![CDATA[2023 11 23 boucle automnale]]></name>
    <trkseg>
      <trkpt lat="45.83336" lon="4.70868">
        <ele>311.87054</ele>
        <time>2023-11-23T07:48:39.000Z</time>
      </trkpt>
      <trkpt lat="45.83334" lon="4.7087">
        <ele>311.34195</ele>
        <time>2023-11-23T07:48:42.000Z</time>
      </trkpt>
      <trkpt lat="45.83333" lon="4.70866">
        <ele>311.00906</ele>
        <time>2023-11-23T07:48:54.000Z</time>
      </trkpt>
      <trkpt lat="45.83334" lon="4.70863">
        <ele>310.78098</ele>
        <time>2023-11-23T07:48:55.000Z</time>
      </trkpt>
      <trkpt lat="45.83335" lon="4.70859">
        <ele>310.64392</ele>
        <time>2023-11-23T07:48:56.000Z</time>
      </trkpt>
      <trkpt lat="45.83335" lon="4.70854">
        <ele>310.57413</ele>
        <time>2023-11-23T07:48:57.000Z</time>
      </trkpt>
      <trkpt lat="45.83335" lon="4.70849">
        <ele>310.42944</ele>
        <time>2023-11-23T07:48:58.000Z</time>
      </trkpt>
      <trkpt lat="45.83336" lon="4.70845">
        <ele>310.35422</ele>
        <time>2023-11-23T07:48:59.000Z</time>
      </trkpt>
      <trkpt lat="45.83336" lon="4.70843">
        <ele>310.37027</ele>
        <time>2023-11-23T07:49:00.000Z</time>
      </trkpt>
      <trkpt lat="45.83338" lon="4.7084">
        <ele>310.41534</ele>
        <time>2023-11-23T07:49:01.000Z</time>
      </trkpt>
      <trkpt lat="45.83338" lon="4.70835">
        <ele>310.44742</ele>
        <time>2023-11-23T07:49:02.000Z</time>
      </trkpt>
      <trkpt lat="45.83339" lon="4.70831">
        <ele>310.48978</ele>
        <time>2023-11-23T07:49:03.000Z</time>
      </trkpt>
      <trkpt lat="45.8334" lon="4.70826">
        <ele>310.55826</ele>
        <time>2023-11-23T07:49:04.000Z</time>
      </trkpt>
      <trkpt lat="45.83341" lon="4.70822">
        <ele>310.56989</ele>
        <time>2023-11-23T07:49:05.000Z</time>
      </trkpt>
      <trkpt lat="45.83342" lon="4.70817">
        <ele>310.60602</ele>
        <time>2023-11-23T07:49:06.000Z</time>
      </trkpt>
      <trkpt lat="45.83342" lon="4.70812">
        <ele>310.64752</ele>
        <time>2023-11-23T07:49:07.000Z</time>
      </trkpt>
      <trkpt lat="45.83342" lon="4.70806">
        <ele>310.67877</ele>
        <time>2023-11-23T07:49:08.000Z</time>
      </trkpt>
      <trkpt lat="45.83342" lon="4.70801">
        <ele>310.75085</ele>
        <time>2023-11-23T07:49:09.000Z</time>
      </trkpt>
      <trkpt lat="45.83342" lon="4.70796">
        <ele>310.82977</ele>
        <time>2023-11-23T07:49:10.000Z</time>
      </trkpt>
      <trkpt lat="45.83342" lon="4.7079">
        <ele>310.87515</ele>
        <time>2023-11-23T07:49:11.000Z</time>
      </trkpt>
      <trkpt lat="45.83342" lon="4.70785">
        <ele>310.86874</ele>
        <time>2023-11-23T07:49:12.000Z</time>
      </trkpt>
      <trkpt lat="45.83342" lon="4.7078">
        <ele>310.94284</ele>
        <time>2023-11-23T07:49:13.000Z</time>
      </trkpt>
      <trkpt lat="45.83342" lon="4.70775">
        <ele>311.02505</ele>
        <time>2023-11-23T07:49:14.000Z</time>
      </trkpt>
      <trkpt lat="45.83342" lon="4.70769">
        <ele>311.10696</ele>
        <time>2023-11-23T07:49:15.000Z</time>
      </trkpt>
      <trkpt lat="45.83343" lon="4.70764">
        <ele>311.17474</ele>
        <time>2023-11-23T07:49:16.000Z</time>
      </trkpt>
      <trkpt lat="45.83343" lon="4.70758">
        <ele>311.24756</ele>
        <time>2023-11-23T07:49:17.000Z</time>
      </trkpt>
      <trkpt lat="45.83343" lon="4.70752">
        <ele>311.38779</ele>
        <time>2023-11-23T07:49:18.000Z</time>
      </trkpt>
      <trkpt lat="45.83343" lon="4.70747">
        <ele>311.53848</ele>
        <time>2023-11-23T07:49:19.000Z</time>
      </trkpt>
      <trkpt lat="45.83343" lon="4.70742">
        <ele>311.68396</ele>
        <time>2023-11-23T07:49:20.000Z</time>
      </trkpt>
      <trkpt lat="45.83343" lon="4.70737">
        <ele>311.81302</ele>
        <time>2023-11-23T07:49:21.000Z</time>
      </trkpt>
      <trkpt lat="45.83344" lon="4.70732">
        <ele>311.92502</ele>
        <time>2023-11-23T07:49:22.000Z</time>
      </trkpt>
      <trkpt lat="45.83344" lon="4.70727">
        <ele>312.02774</ele>
        <time>2023-11-23T07:49:23.000Z</time>
      </trkpt>
      <trkpt lat="45.83344" lon="4.70721">
        <ele>312.11032</ele>
        <time>2023-11-23T07:49:24.000Z</time>
      </trkpt>
      <trkpt lat="45.83345" lon="4.70715">
        <ele>312.22998</ele>
        <time>2023-11-23T07:49:25.000Z</time>
      </trkpt>
      <trkpt lat="45.83345" lon="4.7071">
        <ele>312.34534</ele>
        <time>2023-11-23T07:49:26.000Z</time>
      </trkpt>
      <trkpt lat="45.83346" lon="4.70704">
        <ele>312.43982</ele>
        <time>2023-11-23T07:49:27.000Z</time>
      </trkpt>
      <trkpt lat="45.83347" lon="4.70698">
        <ele>312.53528</ele>
        <time>2023-11-23T07:49:28.000Z</time>
      </trkpt>
      <trkpt lat="45.83347" lon="4.70692">
        <ele>312.59985</ele>
        <time>2023-11-23T07:49:29.000Z</time>
      </trkpt>
      <trkpt lat="45.83348" lon="4.70686">
        <ele>312.64291</ele>
        <time>2023-11-23T07:49:30.000Z</time>
      </trkpt>
      <trkpt lat="45.83348" lon="4.70679">
        <ele>312.6936</ele>
        <time>2023-11-23T07:49:31.000Z</time>
      </trkpt>
      <trkpt lat="45.83349" lon="4.70673">
        <ele>312.75552</ele>
        <time>2023-11-23T07:49:32.000Z</time>
      </trkpt>
      <trkpt lat="45.83349" lon="4.70665">
        <ele>312.77945</ele>
        <time>2023-11-23T07:49:33.000Z</time>
      </trkpt>
      <trkpt lat="45.83349" lon="4.70659">
        <ele>312.82913</ele>
        <time>2023-11-23T07:49:34.000Z</time>
      </trkpt>
      <trkpt lat="45.8335" lon="4.70651">
        <ele>312.89581</ele>
        <time>2023-11-23T07:49:35.000Z</time>
      </trkpt>
      <trkpt lat="45.8335" lon="4.70644">
        <ele>313.13974</ele>
        <time>2023-11-23T07:49:36.000Z</time>
      </trkpt>
      <trkpt lat="45.83351" lon="4.70638">
        <ele>313.37668</ele>
        <time>2023-11-23T07:49:37.000Z</time>
      </trkpt>
      <trkpt lat="45.83351" lon="4.70631">
        <ele>313.59955</ele>
        <time>2023-11-23T07:49:38.000Z</time>
      </trkpt>
      <trkpt lat="45.83351" lon="4.70623">
        <ele>313.81409</ele>
        <time>2023-11-23T07:49:39.000Z</time>
      </trkpt>
      <trkpt lat="45.83352" lon="4.70618">
        <ele>313.9671</ele>
        <time>2023-11-23T07:49:40.000Z</time>
      </trkpt>
      <trkpt lat="45.83355" lon="4.70611">
        <ele>314.11768</ele>
        <time>2023-11-23T07:49:41.000Z</time>
      </trkpt>
      <trkpt lat="45.83357" lon="4.70607">
        <ele>314.258</ele>
        <time>2023-11-23T07:49:42.000Z</time>
      </trkpt>
      <trkpt lat="45.83361" lon="4.70603">
        <ele>314.28665</ele>
        <time>2023-11-23T07:49:43.000Z</time>
      </trkpt>
      <trkpt lat="45.83366" lon="4.70603">
        <ele>314.69897</ele>
        <time>2023-11-23T07:49:44.000Z</time>
      </trkpt>
      <trkpt lat="45.83372" lon="4.70604">
        <ele>314.69305</ele>
        <time>2023-11-23T07:49:45.000Z</time>
      </trkpt>
      <trkpt lat="45.83377" lon="4.70606">
        <ele>314.65631</ele>
        <time>2023-11-23T07:49:46.000Z</time>
      </trkpt>
      <trkpt lat="45.83383" lon="4.70606">
        <ele>314.61148</ele>
        <time>2023-11-23T07:49:47.000Z</time>
      </trkpt>
      <trkpt lat="45.83388" lon="4.70607">
        <ele>314.32175</ele>
        <time>2023-11-23T07:49:48.000Z</time>
      </trkpt>
      <trkpt lat="45.83394" lon="4.70608">
        <ele>314.01056</ele>
        <time>2023-11-23T07:49:49.000Z</time>
      </trkpt>
      <trkpt lat="45.834" lon="4.70608">
        <ele>313.69843</ele>
        <time>2023-11-23T07:49:50.000Z</time>
      </trkpt>
      <trkpt lat="45.83405" lon="4.70609">
        <ele>313.4024</ele>
        <time>2023-11-23T07:49:51.000Z</time>
      </trkpt>
      <trkpt lat="45.83411" lon="4.70611">
        <ele>313.07037</ele>
        <time>2023-11-23T07:49:52.000Z</time>
      </trkpt>
      <trkpt lat="45.83417" lon="4.70611">
        <ele>312.7789</ele>
        <time>2023-11-23T07:49:53.000Z</time>
      </trkpt>
      <trkpt lat="45.83422" lon="4.70612">
        <ele>312.47931</ele>
        <time>2023-11-23T07:49:54.000Z</time>
      </trkpt>
      <trkpt lat="45.83427" lon="4.70612">
        <ele>312.17221</ele>
        <time>2023-11-23T07:49:55.000Z</time>
      </trkpt>
      <trkpt lat="45.83433" lon="4.70612">
        <ele>311.70197</ele>
        <time>2023-11-23T07:49:56.000Z</time>
      </trkpt>
      <trkpt lat="45.83439" lon="4.70613">
        <ele>311.19901</ele>
        <time>2023-11-23T07:49:57.000Z</time>
      </trkpt>
      <trkpt lat="45.83444" lon="4.70614">
        <ele>310.6702</ele>
        <time>2023-11-23T07:49:58.000Z</time>
      </trkpt>
      <trkpt lat="45.8345" lon="4.70615">
        <ele>310.13156</ele>
        <time>2023-11-23T07:49:59.000Z</time>
      </trkpt>
      <trkpt lat="45.83457" lon="4.70615">
        <ele>309.61609</ele>
        <time>2023-11-23T07:50:00.000Z</time>
      </trkpt>
      <trkpt lat="45.83462" lon="4.70615">
        <ele>309.04419</ele>
        <time>2023-11-23T07:50:01.000Z</time>
      </trkpt>
      <trkpt lat="45.83468" lon="4.70615">
        <ele>308.47238</ele>
        <time>2023-11-23T07:50:02.000Z</time>
      </trkpt>
      <trkpt lat="45.83474" lon="4.70614">
        <ele>308.02219</ele>
        <time>2023-11-23T07:50:03.000Z</time>
      </trkpt>
      <trkpt lat="45.8348" lon="4.70614">
        <ele>307.18173</ele>
        <time>2023-11-23T07:50:04.000Z</time>
      </trkpt>
      <trkpt lat="45.83486" lon="4.70614">
        <ele>306.75711</ele>
        <time>2023-11-23T07:50:05.000Z</time>
      </trkpt>
      <trkpt lat="45.83493" lon="4.70613">
        <ele>306.32495</ele>
        <time>2023-11-23T07:50:06.000Z</time>
      </trkpt>
      <trkpt lat="45.83499" lon="4.70612">
        <ele>305.91901</ele>
        <time>2023-11-23T07:50:07.000Z</time>
      </trkpt>
      <trkpt lat="45.83505" lon="4.70612">
        <ele>305.74249</ele>
        <time>2023-11-23T07:50:08.000Z</time>
      </trkpt>
      <trkpt lat="45.83511" lon="4.70612">
        <ele>305.5975</ele>
        <time>2023-11-23T07:50:09.000Z</time>
      </trkpt>
      <trkpt lat="45.83518" lon="4.70612">
        <ele>305.49023</ele>
        <time>2023-11-23T07:50:10.000Z</time>
      </trkpt>
      <trkpt lat="45.83524" lon="4.70611">
        <ele>305.3653</ele>
        <time>2023-11-23T07:50:11.000Z</time>
      </trkpt>
      <trkpt lat="45.83531" lon="4.70611">
        <ele>305.26114</ele>
        <time>2023-11-23T07:50:12.000Z</time>
      </trkpt>
      <trkpt lat="45.83537" lon="4.70611">
        <ele>305.08511</ele>
        <time>2023-11-23T07:50:13.000Z</time>
      </trkpt>
      <trkpt lat="45.83543" lon="4.70611">
        <ele>304.92422</ele>
        <time>2023-11-23T07:50:14.000Z</time>
      </trkpt>
      <trkpt lat="45.83549" lon="4.7061">
        <ele>304.74884</ele>
        <time>2023-11-23T07:50:15.000Z</time>
      </trkpt>
      <trkpt lat="45.83555" lon="4.7061">
        <ele>304.56293</ele>
        <time>2023-11-23T07:50:16.000Z</time>
      </trkpt>
      <trkpt lat="45.8356" lon="4.7061">
        <ele>304.38678</ele>
        <time>2023-11-23T07:50:17.000Z</time>
      </trkpt>
      <trkpt lat="45.83566" lon="4.7061">
        <ele>304.20917</ele>
        <time>2023-11-23T07:50:18.000Z</time>
      </trkpt>
      <trkpt lat="45.83571" lon="4.7061">
        <ele>304.02191</ele>
        <time>2023-11-23T07:50:19.000Z</time>
      </trkpt>
      <trkpt lat="45.83577" lon="4.70611">
        <ele>303.83612</ele>
        <time>2023-11-23T07:50:20.000Z</time>
      </trkpt>
      <trkpt lat="45.83582" lon="4.70612">
        <ele>303.71497</ele>
        <time>2023-11-23T07:50:21.000Z</time>
      </trkpt>
      <trkpt lat="45.83588" lon="4.70614">
        <ele>303.63376</ele>
        <time>2023-11-23T07:50:22.000Z</time>
      </trkpt>
      <trkpt lat="45.83593" lon="4.70615">
        <ele>303.54242</ele>
        <time>2023-11-23T07:50:23.000Z</time>
      </trkpt>
      <trkpt lat="45.83598" lon="4.70617">
        <ele>303.44269</ele>
        <time>2023-11-23T07:50:24.000Z</time>
      </trkpt>
      <trkpt lat="45.83603" lon="4.7062">
        <ele>303.3338</ele>
        <time>2023-11-23T07:50:25.000Z</time>
      </trkpt>
      <trkpt lat="45.83608" lon="4.70621">
        <ele>303.24118</ele>
        <time>2023-11-23T07:50:26.000Z</time>
      </trkpt>
      <trkpt lat="45.83613" lon="4.70623">
        <ele>303.14709</ele>
        <time>2023-11-23T07:50:27.000Z</time>
      </trkpt>
      <trkpt lat="45.83617" lon="4.70624">
        <ele>303.08002</ele>
        <time>2023-11-23T07:50:28.000Z</time>
      </trkpt>
      <trkpt lat="45.83623" lon="4.70625">
        <ele>302.96262</ele>
        <time>2023-11-23T07:50:29.000Z</time>
      </trkpt>
      <trkpt lat="45.83628" lon="4.70624">
        <ele>302.82077</ele>
        <time>2023-11-23T07:50:30.000Z</time>
      </trkpt>
      <trkpt lat="45.83633" lon="4.70622">
        <ele>302.67294</ele>
        <time>2023-11-23T07:50:31.000Z</time>
      </trkpt>
      <trkpt lat="45.83638" lon="4.70619">
        <ele>302.5047</ele>
        <time>2023-11-23T07:50:32.000Z</time>
      </trkpt>
      <trkpt lat="45.83643" lon="4.70616">
        <ele>302.36371</ele>
        <time>2023-11-23T07:50:33.000Z</time>
      </trkpt>
      <trkpt lat="45.83649" lon="4.70612">
        <ele>302.2074</ele>
        <time>2023-11-23T07:50:34.000Z</time>
      </trkpt>
      <trkpt lat="45.83654" lon="4.70609">
        <ele>302.06689</ele>
        <time>2023-11-23T07:50:35.000Z</time>
      </trkpt>
      <trkpt lat="45.8366" lon="4.70606">
        <ele>301.93909</ele>
        <time>2023-11-23T07:50:36.000Z</time>
      </trkpt>
      <trkpt lat="45.83666" lon="4.70603">
        <ele>301.84128</ele>
        <time>2023-11-23T07:50:37.000Z</time>
      </trkpt>
      <trkpt lat="45.83671" lon="4.70601">
        <ele>301.76239</ele>
        <time>2023-11-23T07:50:38.000Z</time>
      </trkpt>
      <trkpt lat="45.83677" lon="4.70598">
        <ele>301.67548</ele>
        <time>2023-11-23T07:50:39.000Z</time>
      </trkpt>
      <trkpt lat="45.83682" lon="4.70596">
        <ele>301.5932</ele>
        <time>2023-11-23T07:50:40.000Z</time>
      </trkpt>
      <trkpt lat="45.83688" lon="4.70595">
        <ele>301.51865</ele>
        <time>2023-11-23T07:50:41.000Z</time>
      </trkpt>
      <trkpt lat="45.83694" lon="4.70594">
        <ele>301.43088</ele>
        <time>2023-11-23T07:50:42.000Z</time>
      </trkpt>
      <trkpt lat="45.83699" lon="4.70592">
        <ele>301.34982</ele>
        <time>2023-11-23T07:50:43.000Z</time>
      </trkpt>
      <trkpt lat="45.83705" lon="4.70591">
        <ele>301.26715</ele>
        <time>2023-11-23T07:50:44.000Z</time>
      </trkpt>
      <trkpt lat="45.8371" lon="4.7059">
        <ele>301.12564</ele>
        <time>2023-11-23T07:50:45.000Z</time>
      </trkpt>
      <trkpt lat="45.83715" lon="4.70589">
        <ele>301.00763</ele>
        <time>2023-11-23T07:50:46.000Z</time>
      </trkpt>
      <trkpt lat="45.83721" lon="4.70587">
        <ele>300.89636</ele>
        <time>2023-11-23T07:50:47.000Z</time>
      </trkpt>
      <trkpt lat="45.83727" lon="4.70587">
        <ele>300.81168</ele>
        <time>2023-11-23T07:50:48.000Z</time>
      </trkpt>
      <trkpt lat="45.83733" lon="4.70586">
        <ele>300.76566</ele>
        <time>2023-11-23T07:50:49.000Z</time>
      </trkpt>
      <trkpt lat="45.83739" lon="4.70583">
        <ele>300.67365</ele>
        <time>2023-11-23T07:50:50.000Z</time>
      </trkpt>
      <trkpt lat="45.83745" lon="4.70583">
        <ele>300.56555</ele>
        <time>2023-11-23T07:50:51.000Z</time>
      </trkpt>
      <trkpt lat="45.83751" lon="4.70582">
        <ele>300.41254</ele>
        <time>2023-11-23T07:50:52.000Z</time>
      </trkpt>
      <trkpt lat="45.83757" lon="4.7058">
        <ele>300.26248</ele>
        <time>2023-11-23T07:50:53.000Z</time>
      </trkpt>
      <trkpt lat="45.83763" lon="4.70577">
        <ele>300.07968</ele>
        <time>2023-11-23T07:50:54.000Z</time>
      </trkpt>
      <trkpt lat="45.83768" lon="4.70574">
        <ele>299.89548</ele>
        <time>2023-11-23T07:50:55.000Z</time>
      </trkpt>
      <trkpt lat="45.83774" lon="4.70571">
        <ele>299.69769</ele>
        <time>2023-11-23T07:50:56.000Z</time>
      </trkpt>
      <trkpt lat="45.83779" lon="4.70567">
        <ele>299.47626</ele>
        <time>2023-11-23T07:50:57.000Z</time>
      </trkpt>
      <trkpt lat="45.83784" lon="4.70564">
        <ele>299.24094</ele>
        <time>2023-11-23T07:50:58.000Z</time>
      </trkpt>
      <trkpt lat="45.8379" lon="4.70561">
        <ele>298.99194</ele>
        <time>2023-11-23T07:50:59.000Z</time>
      </trkpt>
      <trkpt lat="45.83795" lon="4.70557">
        <ele>298.74176</ele>
        <time>2023-11-23T07:51:00.000Z</time>
      </trkpt>
      <trkpt lat="45.83799" lon="4.70553">
        <ele>298.47455</ele>
        <time>2023-11-23T07:51:01.000Z</time>
      </trkpt>
      <trkpt lat="45.83805" lon="4.70549">
        <ele>298.20416</ele>
        <time>2023-11-23T07:51:02.000Z</time>
      </trkpt>
      <trkpt lat="45.8381" lon="4.70545">
        <ele>297.91824</ele>
        <time>2023-11-23T07:51:03.000Z</time>
      </trkpt>
      <trkpt lat="45.83816" lon="4.70542">
        <ele>297.60968</ele>
        <time>2023-11-23T07:51:04.000Z</time>
      </trkpt>
      <trkpt lat="45.83821" lon="4.70538">
        <ele>297.35349</ele>
        <time>2023-11-23T07:51:05.000Z</time>
      </trkpt>
      <trkpt lat="45.83826" lon="4.70533">
        <ele>297.0679</ele>
        <time>2023-11-23T07:51:06.000Z</time>
      </trkpt>
      <trkpt lat="45.83831" lon="4.7053">
        <ele>296.72888</ele>
        <time>2023-11-23T07:51:07.000Z</time>
      </trkpt>
      <trkpt lat="45.83837" lon="4.70526">
        <ele>296.36774</ele>
        <time>2023-11-23T07:51:08.000Z</time>
      </trkpt>
      <trkpt lat="45.83843" lon="4.70523">
        <ele>296.00049</ele>
        <time>2023-11-23T07:51:09.000Z</time>
      </trkpt>
      <trkpt lat="45.83848" lon="4.70518">
        <ele>295.67612</ele>
        <time>2023-11-23T07:51:10.000Z</time>
      </trkpt>
      <trkpt lat="45.83853" lon="4.70514">
        <ele>295.39056</ele>
        <time>2023-11-23T07:51:11.000Z</time>
      </trkpt>
      <trkpt lat="45.83859" lon="4.70511">
        <ele>295.14532</ele>
        <time>2023-11-23T07:51:12.000Z</time>
      </trkpt>
      <trkpt lat="45.83864" lon="4.70508">
        <ele>295.00476</ele>
        <time>2023-11-23T07:51:13.000Z</time>
      </trkpt>
      <trkpt lat="45.83869" lon="4.70504">
        <ele>294.88638</ele>
        <time>2023-11-23T07:51:14.000Z</time>
      </trkpt>
      <trkpt lat="45.83874" lon="4.70502">
        <ele>294.78824</ele>
        <time>2023-11-23T07:51:15.000Z</time>
      </trkpt>
      <trkpt lat="45.83879" lon="4.70499">
        <ele>294.70752</ele>
        <time>2023-11-23T07:51:16.000Z</time>
      </trkpt>
      <trkpt lat="45.83883" lon="4.70496">
        <ele>294.49323</ele>
        <time>2023-11-23T07:51:17.000Z</time>
      </trkpt>
      <trkpt lat="45.83888" lon="4.70494">
        <ele>294.40173</ele>
        <time>2023-11-23T07:51:18.000Z</time>
      </trkpt>
      <trkpt lat="45.83893" lon="4.70491">
        <ele>294.40561</ele>
        <time>2023-11-23T07:51:19.000Z</time>
      </trkpt>
      <trkpt lat="45.83897" lon="4.70489">
        <ele>294.40796</ele>
        <time>2023-11-23T07:51:20.000Z</time>
      </trkpt>
      <trkpt lat="45.83901" lon="4.70487">
        <ele>294.40228</ele>
        <time>2023-11-23T07:51:21.000Z</time>
      </trkpt>
      <trkpt lat="45.83906" lon="4.70487">
        <ele>294.40854</ele>
        <time>2023-11-23T07:51:22.000Z</time>
      </trkpt>
      <trkpt lat="45.8391" lon="4.70484">
        <ele>294.42075</ele>
        <time>2023-11-23T07:51:23.000Z</time>
      </trkpt>
      <trkpt lat="45.83914" lon="4.70483">
        <ele>294.46466</ele>
        <time>2023-11-23T07:51:24.000Z</time>
      </trkpt>
      <trkpt lat="45.83919" lon="4.70481">
        <ele>294.53693</ele>
        <time>2023-11-23T07:51:25.000Z</time>
      </trkpt>
      <trkpt lat="45.83922" lon="4.7048">
        <ele>294.60342</ele>
        <time>2023-11-23T07:51:26.000Z</time>
      </trkpt>
      <trkpt lat="45.83925" lon="4.70478">
        <ele>294.67157</ele>
        <time>2023-11-23T07:51:27.000Z</time>
      </trkpt>
      <trkpt lat="45.83927" lon="4.70476">
        <ele>294.74466</ele>
        <time>2023-11-23T07:51:28.000Z</time>
      </trkpt>
      <trkpt lat="45.8393" lon="4.70476">
        <ele>294.71658</ele>
        <time>2023-11-23T07:51:29.000Z</time>
      </trkpt>
      <trkpt lat="45.83932" lon="4.70476">
        <ele>294.6889</ele>
        <time>2023-11-23T07:51:30.000Z</time>
      </trkpt>
      <trkpt lat="45.83933" lon="4.70474">
        <ele>294.65558</ele>
        <time>2023-11-23T07:51:31.000Z</time>
      </trkpt>
      <trkpt lat="45.83935" lon="4.70472">
        <ele>294.67172</ele>
        <time>2023-11-23T07:51:32.000Z</time>
      </trkpt>
      <trkpt lat="45.83936" lon="4.70469">
        <ele>294.58978</ele>
        <time>2023-11-23T07:51:33.000Z</time>
      </trkpt>
      <trkpt lat="45.83937" lon="4.70466">
        <ele>294.52203</ele>
        <time>2023-11-23T07:51:34.000Z</time>
      </trkpt>
      <trkpt lat="45.83938" lon="4.70462">
        <ele>294.43915</ele>
        <time>2023-11-23T07:51:35.000Z</time>
      </trkpt>
      <trkpt lat="45.8394" lon="4.70458">
        <ele>294.35715</ele>
        <time>2023-11-23T07:51:36.000Z</time>
      </trkpt>
      <trkpt lat="45.83943" lon="4.70454">
        <ele>294.40024</ele>
        <time>2023-11-23T07:51:37.000Z</time>
      </trkpt>
      <trkpt lat="45.83946" lon="4.70451">
        <ele>294.30933</ele>
        <time>2023-11-23T07:51:38.000Z</time>
      </trkpt>
      <trkpt lat="45.83949" lon="4.70448">
        <ele>294.15109</ele>
        <time>2023-11-23T07:51:39.000Z</time>
      </trkpt>
      <trkpt lat="45.83953" lon="4.70445">
        <ele>293.99384</ele>
        <time>2023-11-23T07:51:40.000Z</time>
      </trkpt>
      <trkpt lat="45.83956" lon="4.70441">
        <ele>293.86212</ele>
        <time>2023-11-23T07:51:41.000Z</time>
      </trkpt>
      <trkpt lat="45.83959" lon="4.70438">
        <ele>293.72562</ele>
        <time>2023-11-23T07:51:42.000Z</time>
      </trkpt>
      <trkpt lat="45.83963" lon="4.70436">
        <ele>293.58978</ele>
        <time>2023-11-23T07:51:43.000Z</time>
      </trkpt>
      <trkpt lat="45.83966" lon="4.70433">
        <ele>293.46313</ele>
        <time>2023-11-23T07:51:44.000Z</time>
      </trkpt>
      <trkpt lat="45.8397" lon="4.7043">
        <ele>293.32639</ele>
        <time>2023-11-23T07:51:45.000Z</time>
      </trkpt>
      <trkpt lat="45.83974" lon="4.70428">
        <ele>293.20099</ele>
        <time>2023-11-23T07:51:46.000Z</time>
      </trkpt>
      <trkpt lat="45.83978" lon="4.70425">
        <ele>293.11328</ele>
        <time>2023-11-23T07:51:47.000Z</time>
      </trkpt>
      <trkpt lat="45.83982" lon="4.70423">
        <ele>293.00998</ele>
        <time>2023-11-23T07:51:48.000Z</time>
      </trkpt>
      <trkpt lat="45.83987" lon="4.70422">
        <ele>292.98163</ele>
        <time>2023-11-23T07:51:49.000Z</time>
      </trkpt>
      <trkpt lat="45.83991" lon="4.70421">
        <ele>292.96283</ele>
        <time>2023-11-23T07:51:50.000Z</time>
      </trkpt>
      <trkpt lat="45.83996" lon="4.70418">
        <ele>292.93887</ele>
        <time>2023-11-23T07:51:51.000Z</time>
      </trkpt>
      <trkpt lat="45.84" lon="4.70416">
        <ele>292.89981</ele>
        <time>2023-11-23T07:51:52.000Z</time>
      </trkpt>
      <trkpt lat="45.84004" lon="4.70415">
        <ele>292.86652</ele>
        <time>2023-11-23T07:51:53.000Z</time>
      </trkpt>
      <trkpt lat="45.84009" lon="4.70412">
        <ele>292.83783</ele>
        <time>2023-11-23T07:51:54.000Z</time>
      </trkpt>
      <trkpt lat="45.84014" lon="4.7041">
        <ele>292.8089</ele>
        <time>2023-11-23T07:51:55.000Z</time>
      </trkpt>
      <trkpt lat="45.84018" lon="4.70408">
        <ele>292.77008</ele>
        <time>2023-11-23T07:51:56.000Z</time>
      </trkpt>
      <trkpt lat="45.84024" lon="4.70405">
        <ele>292.75906</ele>
        <time>2023-11-23T07:51:57.000Z</time>
      </trkpt>
      <trkpt lat="45.84029" lon="4.70403">
        <ele>292.8454</ele>
        <time>2023-11-23T07:51:58.000Z</time>
      </trkpt>
      <trkpt lat="45.84034" lon="4.704">
        <ele>292.9256</ele>
        <time>2023-11-23T07:51:59.000Z</time>
      </trkpt>
      <trkpt lat="45.84039" lon="4.70398">
        <ele>292.99344</ele>
        <time>2023-11-23T07:52:00.000Z</time>
      </trkpt>
      <trkpt lat="45.84044" lon="4.70395">
        <ele>293.09393</ele>
        <time>2023-11-23T07:52:01.000Z</time>
      </trkpt>
      <trkpt lat="45.84049" lon="4.70392">
        <ele>293.03363</ele>
        <time>2023-11-23T07:52:02.000Z</time>
      </trkpt>
      <trkpt lat="45.84054" lon="4.7039">
        <ele>292.98068</ele>
        <time>2023-11-23T07:52:03.000Z</time>
      </trkpt>
      <trkpt lat="45.84059" lon="4.70387">
        <ele>292.90179</ele>
        <time>2023-11-23T07:52:04.000Z</time>
      </trkpt>
      <trkpt lat="45.84065" lon="4.70384">
        <ele>292.83237</ele>
        <time>2023-11-23T07:52:05.000Z</time>
      </trkpt>
      <trkpt lat="45.8407" lon="4.70382">
        <ele>292.75943</ele>
        <time>2023-11-23T07:52:06.000Z</time>
      </trkpt>
      <trkpt lat="45.84076" lon="4.70379">
        <ele>292.69214</ele>
        <time>2023-11-23T07:52:07.000Z</time>
      </trkpt>
      <trkpt lat="45.84081" lon="4.70376">
        <ele>292.63464</ele>
        <time>2023-11-23T07:52:08.000Z</time>
      </trkpt>
      <trkpt lat="45.84086" lon="4.70373">
        <ele>292.61023</ele>
        <time>2023-11-23T07:52:09.000Z</time>
      </trkpt>
      <trkpt lat="45.8409" lon="4.7037">
        <ele>292.56982</ele>
        <time>2023-11-23T07:52:10.000Z</time>
      </trkpt>
      <trkpt lat="45.84095" lon="4.70367">
        <ele>292.5036</ele>
        <time>2023-11-23T07:52:11.000Z</time>
      </trkpt>
      <trkpt lat="45.84101" lon="4.70364">
        <ele>292.44189</ele>
        <time>2023-11-23T07:52:12.000Z</time>
      </trkpt>
      <trkpt lat="45.84106" lon="4.7036">
        <ele>292.40454</ele>
        <time>2023-11-23T07:52:13.000Z</time>
      </trkpt>
      <trkpt lat="45.84111" lon="4.70357">
        <ele>292.36105</ele>
        <time>2023-11-23T07:52:14.000Z</time>
      </trkpt>
      <trkpt lat="45.84116" lon="4.70354">
        <ele>292.57538</ele>
        <time>2023-11-23T07:52:15.000Z</time>
      </trkpt>
      <trkpt lat="45.84121" lon="4.7035">
        <ele>292.6933</ele>
        <time>2023-11-23T07:52:16.000Z</time>
      </trkpt>
      <trkpt lat="45.84126" lon="4.70347">
        <ele>292.80078</ele>
        <time>2023-11-23T07:52:17.000Z</time>
      </trkpt>
      <trkpt lat="45.84131" lon="4.70343">
        <ele>292.81808</ele>
        <time>2023-11-23T07:52:18.000Z</time>
      </trkpt>
      <trkpt lat="45.84136" lon="4.70339">
        <ele>292.83475</ele>
        <time>2023-11-23T07:52:19.000Z</time>
      </trkpt>
      <trkpt lat="45.84141" lon="4.70336">
        <ele>292.88657</ele>
        <time>2023-11-23T07:52:20.000Z</time>
      </trkpt>
      <trkpt lat="45.84146" lon="4.70333">
        <ele>292.90546</ele>
        <time>2023-11-23T07:52:21.000Z</time>
      </trkpt>
      <trkpt lat="45.84151" lon="4.70329">
        <ele>293.04437</ele>
        <time>2023-11-23T07:52:22.000Z</time>
      </trkpt>
      <trkpt lat="45.84156" lon="4.70327">
        <ele>293.18665</ele>
        <time>2023-11-23T07:52:23.000Z</time>
      </trkpt>
      <trkpt lat="45.8416" lon="4.70324">
        <ele>293.3815</ele>
        <time>2023-11-23T07:52:24.000Z</time>
      </trkpt>
      <trkpt lat="45.84166" lon="4.70322">
        <ele>293.52505</ele>
        <time>2023-11-23T07:52:25.000Z</time>
      </trkpt>
      <trkpt lat="45.8417" lon="4.70322">
        <ele>293.70685</ele>
        <time>2023-11-23T07:52:26.000Z</time>
      </trkpt>
      <trkpt lat="45.84176" lon="4.70321">
        <ele>293.88092</ele>
        <time>2023-11-23T07:52:27.000Z</time>
      </trkpt>
      <trkpt lat="45.84181" lon="4.70321">
        <ele>294.1564</ele>
        <time>2023-11-23T07:52:28.000Z</time>
      </trkpt>
      <trkpt lat="45.84186" lon="4.70322">
        <ele>294.41803</ele>
        <time>2023-11-23T07:52:29.000Z</time>
      </trkpt>
      <trkpt lat="45.84192" lon="4.70324">
        <ele>294.66754</ele>
        <time>2023-11-23T07:52:30.000Z</time>
      </trkpt>
      <trkpt lat="45.84197" lon="4.70325">
        <ele>294.95029</ele>
        <time>2023-11-23T07:52:31.000Z</time>
      </trkpt>
      <trkpt lat="45.84202" lon="4.70326">
        <ele>295.01227</ele>
        <time>2023-11-23T07:52:32.000Z</time>
      </trkpt>
      <trkpt lat="45.84207" lon="4.70327">
        <ele>295.05988</ele>
        <time>2023-11-23T07:52:33.000Z</time>
      </trkpt>
      <trkpt lat="45.84212" lon="4.70328">
        <ele>295.09949</ele>
        <time>2023-11-23T07:52:34.000Z</time>
      </trkpt>
      <trkpt lat="45.84217" lon="4.7033">
        <ele>294.86627</ele>
        <time>2023-11-23T07:52:35.000Z</time>
      </trkpt>
      <trkpt lat="45.84222" lon="4.70332">
        <ele>294.70538</ele>
        <time>2023-11-23T07:52:36.000Z</time>
      </trkpt>
      <trkpt lat="45.84227" lon="4.70334">
        <ele>294.54532</ele>
        <time>2023-11-23T07:52:37.000Z</time>
      </trkpt>
      <trkpt lat="45.84232" lon="4.70337">
        <ele>294.41702</ele>
        <time>2023-11-23T07:52:38.000Z</time>
      </trkpt>
      <trkpt lat="45.84236" lon="4.7034">
        <ele>294.29019</ele>
        <time>2023-11-23T07:52:39.000Z</time>
      </trkpt>
      <trkpt lat="45.84241" lon="4.70344">
        <ele>294.35425</ele>
        <time>2023-11-23T07:52:40.000Z</time>
      </trkpt>
      <trkpt lat="45.84246" lon="4.70347">
        <ele>294.45355</ele>
        <time>2023-11-23T07:52:41.000Z</time>
      </trkpt>
      <trkpt lat="45.84252" lon="4.70351">
        <ele>294.31561</ele>
        <time>2023-11-23T07:52:42.000Z</time>
      </trkpt>
      <trkpt lat="45.84257" lon="4.70353">
        <ele>294.24707</ele>
        <time>2023-11-23T07:52:43.000Z</time>
      </trkpt>
      <trkpt lat="45.84262" lon="4.70356">
        <ele>294.15555</ele>
        <time>2023-11-23T07:52:44.000Z</time>
      </trkpt>
      <trkpt lat="45.84267" lon="4.70358">
        <ele>294.04105</ele>
        <time>2023-11-23T07:52:45.000Z</time>
      </trkpt>
      <trkpt lat="45.84271" lon="4.70362">
        <ele>293.89624</ele>
        <time>2023-11-23T07:52:46.000Z</time>
      </trkpt>
      <trkpt lat="45.84276" lon="4.70366">
        <ele>293.7735</ele>
        <time>2023-11-23T07:52:47.000Z</time>
      </trkpt>
      <trkpt lat="45.84281" lon="4.7037">
        <ele>293.51105</ele>
        <time>2023-11-23T07:52:48.000Z</time>
      </trkpt>
      <trkpt lat="45.84286" lon="4.70374">
        <ele>293.23001</ele>
        <time>2023-11-23T07:52:49.000Z</time>
      </trkpt>
      <trkpt lat="45.84291" lon="4.70377">
        <ele>292.96167</ele>
        <time>2023-11-23T07:52:50.000Z</time>
      </trkpt>
      <trkpt lat="45.84295" lon="4.7038">
        <ele>292.68073</ele>
        <time>2023-11-23T07:52:51.000Z</time>
      </trkpt>
      <trkpt lat="45.843" lon="4.70383">
        <ele>292.60272</ele>
        <time>2023-11-23T07:52:52.000Z</time>
      </trkpt>
      <trkpt lat="45.84304" lon="4.70386">
        <ele>292.52158</ele>
        <time>2023-11-23T07:52:53.000Z</time>
      </trkpt>
      <trkpt lat="45.84309" lon="4.7039">
        <ele>292.43219</ele>
        <time>2023-11-23T07:52:54.000Z</time>
      </trkpt>
      <trkpt lat="45.84313" lon="4.70393">
        <ele>292.35629</ele>
        <time>2023-11-23T07:52:55.000Z</time>
      </trkpt>
      <trkpt lat="45.84318" lon="4.70397">
        <ele>292.31271</ele>
        <time>2023-11-23T07:52:56.000Z</time>
      </trkpt>
      <trkpt lat="45.84322" lon="4.704">
        <ele>292.2627</ele>
        <time>2023-11-23T07:52:57.000Z</time>
      </trkpt>
      <trkpt lat="45.84326" lon="4.70403">
        <ele>292.21014</ele>
        <time>2023-11-23T07:52:58.000Z</time>
      </trkpt>
      <trkpt lat="45.8433" lon="4.70406">
        <ele>292.18439</ele>
        <time>2023-11-23T07:52:59.000Z</time>
      </trkpt>
      <trkpt lat="45.84333" lon="4.70408">
        <ele>291.96027</ele>
        <time>2023-11-23T07:53:00.000Z</time>
      </trkpt>
      <trkpt lat="45.84338" lon="4.7041">
        <ele>291.76801</ele>
        <time>2023-11-23T07:53:01.000Z</time>
      </trkpt>
      <trkpt lat="45.84341" lon="4.70412">
        <ele>291.87143</ele>
        <time>2023-11-23T07:53:02.000Z</time>
      </trkpt>
      <trkpt lat="45.84345" lon="4.70414">
        <ele>291.94907</ele>
        <time>2023-11-23T07:53:03.000Z</time>
      </trkpt>
      <trkpt lat="45.84348" lon="4.70419">
        <ele>292.02289</ele>
        <time>2023-11-23T07:53:04.000Z</time>
      </trkpt>
      <trkpt lat="45.84351" lon="4.70421">
        <ele>291.86337</ele>
        <time>2023-11-23T07:53:05.000Z</time>
      </trkpt>
      <trkpt lat="45.84357" lon="4.70426">
        <ele>291.73068</ele>
        <time>2023-11-23T07:53:06.000Z</time>
      </trkpt>
      <trkpt lat="45.84362" lon="4.70427">
        <ele>291.61469</ele>
        <time>2023-11-23T07:53:07.000Z</time>
      </trkpt>
      <trkpt lat="45.84367" lon="4.70427">
        <ele>291.57751</ele>
        <time>2023-11-23T07:53:08.000Z</time>
      </trkpt>
      <trkpt lat="45.84373" lon="4.70429">
        <ele>291.5506</ele>
        <time>2023-11-23T07:53:09.000Z</time>
      </trkpt>
      <trkpt lat="45.84377" lon="4.70429">
        <ele>291.50604</ele>
        <time>2023-11-23T07:53:10.000Z</time>
      </trkpt>
      <trkpt lat="45.84383" lon="4.7043">
        <ele>291.51019</ele>
        <time>2023-11-23T07:53:11.000Z</time>
      </trkpt>
      <trkpt lat="45.84389" lon="4.70432">
        <ele>291.57874</ele>
        <time>2023-11-23T07:53:12.000Z</time>
      </trkpt>
      <trkpt lat="45.84393" lon="4.70432">
        <ele>291.69012</ele>
        <time>2023-11-23T07:53:13.000Z</time>
      </trkpt>
      <trkpt lat="45.84399" lon="4.70432">
        <ele>291.8855</ele>
        <time>2023-11-23T07:53:14.000Z</time>
      </trkpt>
      <trkpt lat="45.84402" lon="4.70433">
        <ele>292.04114</ele>
        <time>2023-11-23T07:53:15.000Z</time>
      </trkpt>
      <trkpt lat="45.84408" lon="4.70433">
        <ele>292.21133</ele>
        <time>2023-11-23T07:53:16.000Z</time>
      </trkpt>
      <trkpt lat="45.84412" lon="4.70433">
        <ele>292.38684</ele>
        <time>2023-11-23T07:53:17.000Z</time>
      </trkpt>
      <trkpt lat="45.84417" lon="4.70436">
        <ele>292.4892</ele>
        <time>2023-11-23T07:53:18.000Z</time>
      </trkpt>
      <trkpt lat="45.84423" lon="4.70437">
        <ele>292.47925</ele>
        <time>2023-11-23T07:53:19.000Z</time>
      </trkpt>
      <trkpt lat="45.84429" lon="4.70437">
        <ele>292.44089</ele>
        <time>2023-11-23T07:53:20.000Z</time>
      </trkpt>
      <trkpt lat="45.84435" lon="4.70437">
        <ele>292.41098</ele>
        <time>2023-11-23T07:53:21.000Z</time>
      </trkpt>
      <trkpt lat="45.84441" lon="4.70438">
        <ele>292.29776</ele>
        <time>2023-11-23T07:53:22.000Z</time>
      </trkpt>
      <trkpt lat="45.84447" lon="4.7044">
        <ele>292.1868</ele>
        <time>2023-11-23T07:53:23.000Z</time>
      </trkpt>
      <trkpt lat="45.84452" lon="4.7044">
        <ele>292.06378</ele>
        <time>2023-11-23T07:53:24.000Z</time>
      </trkpt>
      <trkpt lat="45.84458" lon="4.70442">
        <ele>291.94403</ele>
        <time>2023-11-23T07:53:25.000Z</time>
      </trkpt>
      <trkpt lat="45.84461" lon="4.70442">
        <ele>291.84222</ele>
        <time>2023-11-23T07:53:26.000Z</time>
      </trkpt>
      <trkpt lat="45.84467" lon="4.70445">
        <ele>291.7478</ele>
        <time>2023-11-23T07:53:27.000Z</time>
      </trkpt>
      <trkpt lat="45.84473" lon="4.70446">
        <ele>291.57443</ele>
        <time>2023-11-23T07:53:28.000Z</time>
      </trkpt>
      <trkpt lat="45.84479" lon="4.70448">
        <ele>291.43588</ele>
        <time>2023-11-23T07:53:29.000Z</time>
      </trkpt>
      <trkpt lat="45.84483" lon="4.70449">
        <ele>291.23059</ele>
        <time>2023-11-23T07:53:30.000Z</time>
      </trkpt>
      <trkpt lat="45.84488" lon="4.70449">
        <ele>291.17163</ele>
        <time>2023-11-23T07:53:31.000Z</time>
      </trkpt>
      <trkpt lat="45.84494" lon="4.70451">
        <ele>291.03534</ele>
        <time>2023-11-23T07:53:32.000Z</time>
      </trkpt>
      <trkpt lat="45.84499" lon="4.70454">
        <ele>290.83408</ele>
        <time>2023-11-23T07:53:33.000Z</time>
      </trkpt>
      <trkpt lat="45.84504" lon="4.70455">
        <ele>290.56055</ele>
        <time>2023-11-23T07:53:34.000Z</time>
      </trkpt>
      <trkpt lat="45.8451" lon="4.70456">
        <ele>290.27484</ele>
        <time>2023-11-23T07:53:35.000Z</time>
      </trkpt>
      <trkpt lat="45.84516" lon="4.70458">
        <ele>289.96832</ele>
        <time>2023-11-23T07:53:36.000Z</time>
      </trkpt>
      <trkpt lat="45.84522" lon="4.7046">
        <ele>289.67032</ele>
        <time>2023-11-23T07:53:37.000Z</time>
      </trkpt>
      <trkpt lat="45.84526" lon="4.70461">
        <ele>289.41916</ele>
        <time>2023-11-23T07:53:38.000Z</time>
      </trkpt>
      <trkpt lat="45.84531" lon="4.70461">
        <ele>289.24725</ele>
        <time>2023-11-23T07:53:39.000Z</time>
      </trkpt>
      <trkpt lat="45.84538" lon="4.70461">
        <ele>289.17157</ele>
        <time>2023-11-23T07:53:40.000Z</time>
      </trkpt>
      <trkpt lat="45.84543" lon="4.70462">
        <ele>288.9906</ele>
        <time>2023-11-23T07:53:41.000Z</time>
      </trkpt>
      <trkpt lat="45.84548" lon="4.70463">
        <ele>288.88608</ele>
        <time>2023-11-23T07:53:42.000Z</time>
      </trkpt>
      <trkpt lat="45.84553" lon="4.70463">
        <ele>288.73395</ele>
        <time>2023-11-23T07:53:43.000Z</time>
      </trkpt>
      <trkpt lat="45.84558" lon="4.70463">
        <ele>288.59763</ele>
        <time>2023-11-23T07:53:44.000Z</time>
      </trkpt>
      <trkpt lat="45.84563" lon="4.70465">
        <ele>288.70029</ele>
        <time>2023-11-23T07:53:45.000Z</time>
      </trkpt>
      <trkpt lat="45.84568" lon="4.70466">
        <ele>288.72357</ele>
        <time>2023-11-23T07:53:46.000Z</time>
      </trkpt>
      <trkpt lat="45.84572" lon="4.70468">
        <ele>288.68329</ele>
        <time>2023-11-23T07:53:47.000Z</time>
      </trkpt>
      <trkpt lat="45.84576" lon="4.70469">
        <ele>288.62396</ele>
        <time>2023-11-23T07:53:48.000Z</time>
      </trkpt>
      <trkpt lat="45.84582" lon="4.70471">
        <ele>288.3287</ele>
        <time>2023-11-23T07:53:49.000Z</time>
      </trkpt>
      <trkpt lat="45.84587" lon="4.70472">
        <ele>288.21991</ele>
        <time>2023-11-23T07:53:50.000Z</time>
      </trkpt>
      <trkpt lat="45.84592" lon="4.70472">
        <ele>287.93515</ele>
        <time>2023-11-23T07:53:51.000Z</time>
      </trkpt>
      <trkpt lat="45.84597" lon="4.70473">
        <ele>287.7988</ele>
        <time>2023-11-23T07:53:52.000Z</time>
      </trkpt>
      <trkpt lat="45.84602" lon="4.70474">
        <ele>287.80215</ele>
        <time>2023-11-23T07:53:53.000Z</time>
      </trkpt>
      <trkpt lat="45.84606" lon="4.70475">
        <ele>287.82446</ele>
        <time>2023-11-23T07:53:54.000Z</time>
      </trkpt>
      <trkpt lat="45.84612" lon="4.70475">
        <ele>287.95752</ele>
        <time>2023-11-23T07:53:55.000Z</time>
      </trkpt>
      <trkpt lat="45.84616" lon="4.70475">
        <ele>287.75031</ele>
        <time>2023-11-23T07:53:56.000Z</time>
      </trkpt>
      <trkpt lat="45.84621" lon="4.70475">
        <ele>287.59308</ele>
        <time>2023-11-23T07:53:57.000Z</time>
      </trkpt>
      <trkpt lat="45.84627" lon="4.70474">
        <ele>287.4303</ele>
        <time>2023-11-23T07:53:58.000Z</time>
      </trkpt>
      <trkpt lat="45.84631" lon="4.70474">
        <ele>287.25101</ele>
        <time>2023-11-23T07:53:59.000Z</time>
      </trkpt>
      <trkpt lat="45.84636" lon="4.70473">
        <ele>287.00708</ele>
        <time>2023-11-23T07:54:00.000Z</time>
      </trkpt>
      <trkpt lat="45.84641" lon="4.70472">
        <ele>286.91614</ele>
        <time>2023-11-23T07:54:01.000Z</time>
      </trkpt>
      <trkpt lat="45.84647" lon="4.70472">
        <ele>286.86234</ele>
        <time>2023-11-23T07:54:02.000Z</time>
      </trkpt>
      <trkpt lat="45.84652" lon="4.7047">
        <ele>286.81082</ele>
        <time>2023-11-23T07:54:03.000Z</time>
      </trkpt>
      <trkpt lat="45.84657" lon="4.70471">
        <ele>286.76315</ele>
        <time>2023-11-23T07:54:04.000Z</time>
      </trkpt>
      <trkpt lat="45.84662" lon="4.70472">
        <ele>286.78336</ele>
        <time>2023-11-23T07:54:05.000Z</time>
      </trkpt>
      <trkpt lat="45.84668" lon="4.70473">
        <ele>286.93857</ele>
        <time>2023-11-23T07:54:06.000Z</time>
      </trkpt>
      <trkpt lat="45.84673" lon="4.70475">
        <ele>286.81009</ele>
        <time>2023-11-23T07:54:07.000Z</time>
      </trkpt>
      <trkpt lat="45.84677" lon="4.70475">
        <ele>286.72626</ele>
        <time>2023-11-23T07:54:08.000Z</time>
      </trkpt>
      <trkpt lat="45.84683" lon="4.70477">
        <ele>286.87778</ele>
        <time>2023-11-23T07:54:09.000Z</time>
      </trkpt>
      <trkpt lat="45.84688" lon="4.70478">
        <ele>286.91602</ele>
        <time>2023-11-23T07:54:10.000Z</time>
      </trkpt>
      <trkpt lat="45.84693" lon="4.70481">
        <ele>286.96774</ele>
        <time>2023-11-23T07:54:11.000Z</time>
      </trkpt>
      <trkpt lat="45.84698" lon="4.70484">
        <ele>286.88617</ele>
        <time>2023-11-23T07:54:12.000Z</time>
      </trkpt>
      <trkpt lat="45.84702" lon="4.70488">
        <ele>286.67871</ele>
        <time>2023-11-23T07:54:13.000Z</time>
      </trkpt>
      <trkpt lat="45.84706" lon="4.70493">
        <ele>286.44345</ele>
        <time>2023-11-23T07:54:14.000Z</time>
      </trkpt>
      <trkpt lat="45.8471" lon="4.70497">
        <ele>286.17188</ele>
        <time>2023-11-23T07:54:15.000Z</time>
      </trkpt>
      <trkpt lat="45.84714" lon="4.70502">
        <ele>286.24408</ele>
        <time>2023-11-23T07:54:16.000Z</time>
      </trkpt>
      <trkpt lat="45.84717" lon="4.70507">
        <ele>286.21375</ele>
        <time>2023-11-23T07:54:17.000Z</time>
      </trkpt>
      <trkpt lat="45.8472" lon="4.70513">
        <ele>286.17001</ele>
        <time>2023-11-23T07:54:18.000Z</time>
      </trkpt>
      <trkpt lat="45.84724" lon="4.70518">
        <ele>286.17786</ele>
        <time>2023-11-23T07:54:19.000Z</time>
      </trkpt>
      <trkpt lat="45.84727" lon="4.70523">
        <ele>286.15115</ele>
        <time>2023-11-23T07:54:20.000Z</time>
      </trkpt>
      <trkpt lat="45.84731" lon="4.70528">
        <ele>285.9718</ele>
        <time>2023-11-23T07:54:21.000Z</time>
      </trkpt>
      <trkpt lat="45.84735" lon="4.70533">
        <ele>285.77097</ele>
        <time>2023-11-23T07:54:22.000Z</time>
      </trkpt>
      <trkpt lat="45.84739" lon="4.70538">
        <ele>285.54303</ele>
        <time>2023-11-23T07:54:23.000Z</time>
      </trkpt>
      <trkpt lat="45.84743" lon="4.70542">
        <ele>285.35452</ele>
        <time>2023-11-23T07:54:24.000Z</time>
      </trkpt>
      <trkpt lat="45.84748" lon="4.70547">
        <ele>285.11594</ele>
        <time>2023-11-23T07:54:25.000Z</time>
      </trkpt>
      <trkpt lat="45.84752" lon="4.70551">
        <ele>284.75436</ele>
        <time>2023-11-23T07:54:26.000Z</time>
      </trkpt>
      <trkpt lat="45.84756" lon="4.70556">
        <ele>284.69476</ele>
        <time>2023-11-23T07:54:27.000Z</time>
      </trkpt>
      <trkpt lat="45.84759" lon="4.70562">
        <ele>284.617</ele>
        <time>2023-11-23T07:54:28.000Z</time>
      </trkpt>
      <trkpt lat="45.84764" lon="4.70567">
        <ele>284.5433</ele>
        <time>2023-11-23T07:54:29.000Z</time>
      </trkpt>
      <trkpt lat="45.84768" lon="4.70572">
        <ele>284.66797</ele>
        <time>2023-11-23T07:54:30.000Z</time>
      </trkpt>
      <trkpt lat="45.84773" lon="4.70578">
        <ele>284.81012</ele>
        <time>2023-11-23T07:54:31.000Z</time>
      </trkpt>
      <trkpt lat="45.84777" lon="4.70582">
        <ele>284.96719</ele>
        <time>2023-11-23T07:54:32.000Z</time>
      </trkpt>
      <trkpt lat="45.84781" lon="4.70587">
        <ele>284.73566</ele>
        <time>2023-11-23T07:54:33.000Z</time>
      </trkpt>
      <trkpt lat="45.84784" lon="4.70593">
        <ele>284.40643</ele>
        <time>2023-11-23T07:54:34.000Z</time>
      </trkpt>
      <trkpt lat="45.84788" lon="4.70599">
        <ele>284.09015</ele>
        <time>2023-11-23T07:54:35.000Z</time>
      </trkpt>
      <trkpt lat="45.84792" lon="4.70604">
        <ele>283.76221</ele>
        <time>2023-11-23T07:54:36.000Z</time>
      </trkpt>
      <trkpt lat="45.84795" lon="4.70611">
        <ele>283.46362</ele>
        <time>2023-11-23T07:54:37.000Z</time>
      </trkpt>
      <trkpt lat="45.84799" lon="4.70617">
        <ele>283.18829</ele>
        <time>2023-11-23T07:54:38.000Z</time>
      </trkpt>
      <trkpt lat="45.84803" lon="4.70623">
        <ele>282.89264</ele>
        <time>2023-11-23T07:54:39.000Z</time>
      </trkpt>
      <trkpt lat="45.84807" lon="4.70629">
        <ele>282.61511</ele>
        <time>2023-11-23T07:54:40.000Z</time>
      </trkpt>
      <trkpt lat="45.8481" lon="4.70636">
        <ele>282.409</ele>
        <time>2023-11-23T07:54:41.000Z</time>
      </trkpt>
      <trkpt lat="45.84815" lon="4.70642">
        <ele>282.1983</ele>
        <time>2023-11-23T07:54:42.000Z</time>
      </trkpt>
      <trkpt lat="45.84818" lon="4.70649">
        <ele>281.90402</ele>
        <time>2023-11-23T07:54:43.000Z</time>
      </trkpt>
      <trkpt lat="45.84822" lon="4.70656">
        <ele>281.59912</ele>
        <time>2023-11-23T07:54:44.000Z</time>
      </trkpt>
      <trkpt lat="45.84826" lon="4.70663">
        <ele>281.31635</ele>
        <time>2023-11-23T07:54:45.000Z</time>
      </trkpt>
      <trkpt lat="45.8483" lon="4.70669">
        <ele>281.06213</ele>
        <time>2023-11-23T07:54:46.000Z</time>
      </trkpt>
      <trkpt lat="45.84833" lon="4.70675">
        <ele>280.80975</ele>
        <time>2023-11-23T07:54:47.000Z</time>
      </trkpt>
      <trkpt lat="45.84838" lon="4.70681">
        <ele>280.55576</ele>
        <time>2023-11-23T07:54:48.000Z</time>
      </trkpt>
      <trkpt lat="45.84842" lon="4.70688">
        <ele>280.24881</ele>
        <time>2023-11-23T07:54:49.000Z</time>
      </trkpt>
      <trkpt lat="45.84846" lon="4.70694">
        <ele>279.72122</ele>
        <time>2023-11-23T07:54:50.000Z</time>
      </trkpt>
      <trkpt lat="45.8485" lon="4.707">
        <ele>279.15778</ele>
        <time>2023-11-23T07:54:51.000Z</time>
      </trkpt>
      <trkpt lat="45.84853" lon="4.70706">
        <ele>278.58853</ele>
        <time>2023-11-23T07:54:52.000Z</time>
      </trkpt>
      <trkpt lat="45.84856" lon="4.7071">
        <ele>278.40778</ele>
        <time>2023-11-23T07:54:53.000Z</time>
      </trkpt>
      <trkpt lat="45.8486" lon="4.70716">
        <ele>278.32202</ele>
        <time>2023-11-23T07:54:54.000Z</time>
      </trkpt>
      <trkpt lat="45.84864" lon="4.70722">
        <ele>278.20306</ele>
        <time>2023-11-23T07:54:55.000Z</time>
      </trkpt>
      <trkpt lat="45.84867" lon="4.70728">
        <ele>278.07776</ele>
        <time>2023-11-23T07:54:56.000Z</time>
      </trkpt>
      <trkpt lat="45.84871" lon="4.70733">
        <ele>278.03827</ele>
        <time>2023-11-23T07:54:57.000Z</time>
      </trkpt>
      <trkpt lat="45.84874" lon="4.70738">
        <ele>278.04062</ele>
        <time>2023-11-23T07:54:58.000Z</time>
      </trkpt>
      <trkpt lat="45.84878" lon="4.70743">
        <ele>277.92267</ele>
        <time>2023-11-23T07:54:59.000Z</time>
      </trkpt>
      <trkpt lat="45.84883" lon="4.70747">
        <ele>277.81168</ele>
        <time>2023-11-23T07:55:00.000Z</time>
      </trkpt>
      <trkpt lat="45.84887" lon="4.70749">
        <ele>277.64828</ele>
        <time>2023-11-23T07:55:01.000Z</time>
      </trkpt>
      <trkpt lat="45.84892" lon="4.70752">
        <ele>277.42944</ele>
        <time>2023-11-23T07:55:02.000Z</time>
      </trkpt>
      <trkpt lat="45.84897" lon="4.70754">
        <ele>277.30832</ele>
        <time>2023-11-23T07:55:03.000Z</time>
      </trkpt>
      <trkpt lat="45.84901" lon="4.70755">
        <ele>277.13812</ele>
        <time>2023-11-23T07:55:04.000Z</time>
      </trkpt>
      <trkpt lat="45.84905" lon="4.70756">
        <ele>276.961</ele>
        <time>2023-11-23T07:55:05.000Z</time>
      </trkpt>
      <trkpt lat="45.84909" lon="4.70758">
        <ele>276.77423</ele>
        <time>2023-11-23T07:55:06.000Z</time>
      </trkpt>
      <trkpt lat="45.84913" lon="4.70759">
        <ele>276.58768</ele>
        <time>2023-11-23T07:55:07.000Z</time>
      </trkpt>
      <trkpt lat="45.84918" lon="4.70761">
        <ele>276.44009</ele>
        <time>2023-11-23T07:55:08.000Z</time>
      </trkpt>
      <trkpt lat="45.84923" lon="4.70762">
        <ele>276.39276</ele>
        <time>2023-11-23T07:55:09.000Z</time>
      </trkpt>
      <trkpt lat="45.84926" lon="4.70763">
        <ele>276.37231</ele>
        <time>2023-11-23T07:55:10.000Z</time>
      </trkpt>
      <trkpt lat="45.84931" lon="4.70765">
        <ele>276.34247</ele>
        <time>2023-11-23T07:55:11.000Z</time>
      </trkpt>
      <trkpt lat="45.84935" lon="4.70766">
        <ele>276.37021</ele>
        <time>2023-11-23T07:55:12.000Z</time>
      </trkpt>
      <trkpt lat="45.8494" lon="4.70769">
        <ele>276.27209</ele>
        <time>2023-11-23T07:55:13.000Z</time>
      </trkpt>
      <trkpt lat="45.84945" lon="4.7077">
        <ele>276.20438</ele>
        <time>2023-11-23T07:55:14.000Z</time>
      </trkpt>
      <trkpt lat="45.8495" lon="4.70771">
        <ele>276.11792</ele>
        <time>2023-11-23T07:55:15.000Z</time>
      </trkpt>
      <trkpt lat="45.84955" lon="4.70773">
        <ele>276.03839</ele>
        <time>2023-11-23T07:55:16.000Z</time>
      </trkpt>
      <trkpt lat="45.84961" lon="4.70773">
        <ele>275.8775</ele>
        <time>2023-11-23T07:55:17.000Z</time>
      </trkpt>
      <trkpt lat="45.84967" lon="4.70775">
        <ele>275.68945</ele>
        <time>2023-11-23T07:55:18.000Z</time>
      </trkpt>
      <trkpt lat="45.84974" lon="4.70776">
        <ele>275.59775</ele>
        <time>2023-11-23T07:55:19.000Z</time>
      </trkpt>
      <trkpt lat="45.84981" lon="4.70778">
        <ele>275.48233</ele>
        <time>2023-11-23T07:55:20.000Z</time>
      </trkpt>
      <trkpt lat="45.84988" lon="4.70779">
        <ele>275.31195</ele>
        <time>2023-11-23T07:55:21.000Z</time>
      </trkpt>
      <trkpt lat="45.84996" lon="4.70782">
        <ele>275.13199</ele>
        <time>2023-11-23T07:55:22.000Z</time>
      </trkpt>
      <trkpt lat="45.85004" lon="4.70785">
        <ele>274.93143</ele>
        <time>2023-11-23T07:55:23.000Z</time>
      </trkpt>
      <trkpt lat="45.85012" lon="4.70788">
        <ele>274.66782</ele>
        <time>2023-11-23T07:55:24.000Z</time>
      </trkpt>
      <trkpt lat="45.85022" lon="4.70792">
        <ele>274.36298</ele>
        <time>2023-11-23T07:55:25.000Z</time>
      </trkpt>
      <trkpt lat="45.85031" lon="4.70796">
        <ele>274.05844</ele>
        <time>2023-11-23T07:55:26.000Z</time>
      </trkpt>
      <trkpt lat="45.85042" lon="4.70799">
        <ele>273.70432</ele>
        <time>2023-11-23T07:55:27.000Z</time>
      </trkpt>
      <trkpt lat="45.85053" lon="4.70802">
        <ele>273.24921</ele>
        <time>2023-11-23T07:55:28.000Z</time>
      </trkpt>
      <trkpt lat="45.85065" lon="4.70804">
        <ele>272.70728</ele>
        <time>2023-11-23T07:55:29.000Z</time>
      </trkpt>
      <trkpt lat="45.85076" lon="4.70807">
        <ele>272.15918</ele>
        <time>2023-11-23T07:55:30.000Z</time>
      </trkpt>
      <trkpt lat="45.85088" lon="4.70806">
        <ele>271.5737</ele>
        <time>2023-11-23T07:55:31.000Z</time>
      </trkpt>
      <trkpt lat="45.851" lon="4.70807">
        <ele>270.91501</ele>
        <time>2023-11-23T07:55:32.000Z</time>
      </trkpt>
      <trkpt lat="45.8511" lon="4.70808">
        <ele>270.32675</ele>
        <time>2023-11-23T07:55:33.000Z</time>
      </trkpt>
      <trkpt lat="45.8512" lon="4.70809">
        <ele>269.68854</ele>
        <time>2023-11-23T07:55:34.000Z</time>
      </trkpt>
      <trkpt lat="45.85129" lon="4.70811">
        <ele>269.04663</ele>
        <time>2023-11-23T07:55:35.000Z</time>
      </trkpt>
      <trkpt lat="45.85139" lon="4.70815">
        <ele>268.39081</ele>
        <time>2023-11-23T07:55:36.000Z</time>
      </trkpt>
      <trkpt lat="45.8515" lon="4.70823">
        <ele>267.84311</ele>
        <time>2023-11-23T07:55:37.000Z</time>
      </trkpt>
      <trkpt lat="45.8516" lon="4.70828">
        <ele>267.31982</ele>
        <time>2023-11-23T07:55:38.000Z</time>
      </trkpt>
      <trkpt lat="45.8517" lon="4.70832">
        <ele>266.39111</ele>
        <time>2023-11-23T07:55:39.000Z</time>
      </trkpt>
      <trkpt lat="45.85181" lon="4.70833">
        <ele>265.49646</ele>
        <time>2023-11-23T07:55:40.000Z</time>
      </trkpt>
      <trkpt lat="45.85191" lon="4.70833">
        <ele>264.56827</ele>
        <time>2023-11-23T07:55:41.000Z</time>
      </trkpt>
      <trkpt lat="45.85201" lon="4.70831">
        <ele>263.62762</ele>
        <time>2023-11-23T07:55:42.000Z</time>
      </trkpt>
      <trkpt lat="45.85211" lon="4.70826">
        <ele>262.28632</ele>
        <time>2023-11-23T07:55:43.000Z</time>
      </trkpt>
      <trkpt lat="45.85219" lon="4.7082">
        <ele>260.92499</ele>
        <time>2023-11-23T07:55:44.000Z</time>
      </trkpt>
      <trkpt lat="45.85228" lon="4.70813">
        <ele>259.58591</ele>
        <time>2023-11-23T07:55:45.000Z</time>
      </trkpt>
      <trkpt lat="45.85236" lon="4.70806">
        <ele>258.28632</ele>
        <time>2023-11-23T07:55:46.000Z</time>
      </trkpt>
      <trkpt lat="45.85244" lon="4.70799">
        <ele>257.00272</ele>
        <time>2023-11-23T07:55:47.000Z</time>
      </trkpt>
      <trkpt lat="45.85252" lon="4.70793">
        <ele>255.78488</ele>
        <time>2023-11-23T07:55:48.000Z</time>
      </trkpt>
      <trkpt lat="45.85259" lon="4.70789">
        <ele>255.32129</ele>
        <time>2023-11-23T07:55:49.000Z</time>
      </trkpt>
      <trkpt lat="45.85265" lon="4.70786">
        <ele>254.86172</ele>
        <time>2023-11-23T07:55:50.000Z</time>
      </trkpt>
      <trkpt lat="45.85271" lon="4.70786">
        <ele>254.43523</ele>
        <time>2023-11-23T07:55:51.000Z</time>
      </trkpt>
      <trkpt lat="45.85277" lon="4.70789">
        <ele>254.00786</ele>
        <time>2023-11-23T07:55:52.000Z</time>
      </trkpt>
      <trkpt lat="45.85282" lon="4.70793">
        <ele>253.16495</ele>
        <time>2023-11-23T07:55:53.000Z</time>
      </trkpt>
      <trkpt lat="45.85287" lon="4.708">
        <ele>252.36813</ele>
        <time>2023-11-23T07:55:54.000Z</time>
      </trkpt>
      <trkpt lat="45.85291" lon="4.70805">
        <ele>251.61642</ele>
        <time>2023-11-23T07:55:55.000Z</time>
      </trkpt>
      <trkpt lat="45.85296" lon="4.70811">
        <ele>250.85001</ele>
        <time>2023-11-23T07:55:56.000Z</time>
      </trkpt>
      <trkpt lat="45.85301" lon="4.70817">
        <ele>249.9711</ele>
        <time>2023-11-23T07:55:57.000Z</time>
      </trkpt>
      <trkpt lat="45.85305" lon="4.70823">
        <ele>249.03906</ele>
        <time>2023-11-23T07:55:58.000Z</time>
      </trkpt>
      <trkpt lat="45.85309" lon="4.70829">
        <ele>248.52585</ele>
        <time>2023-11-23T07:55:59.000Z</time>
      </trkpt>
      <trkpt lat="45.85314" lon="4.70835">
        <ele>247.97127</ele>
        <time>2023-11-23T07:56:00.000Z</time>
      </trkpt>
      <trkpt lat="45.85319" lon="4.70841">
        <ele>247.73918</ele>
        <time>2023-11-23T07:56:01.000Z</time>
      </trkpt>
      <trkpt lat="45.85324" lon="4.70849">
        <ele>247.68875</ele>
        <time>2023-11-23T07:56:02.000Z</time>
      </trkpt>
      <trkpt lat="45.85329" lon="4.70854">
        <ele>247.50037</ele>
        <time>2023-11-23T07:56:03.000Z</time>
      </trkpt>
      <trkpt lat="45.85335" lon="4.7086">
        <ele>247.47562</ele>
        <time>2023-11-23T07:56:04.000Z</time>
      </trkpt>
      <trkpt lat="45.85341" lon="4.70865">
        <ele>247.49695</ele>
        <time>2023-11-23T07:56:05.000Z</time>
      </trkpt>
      <trkpt lat="45.85347" lon="4.7087">
        <ele>247.50858</ele>
        <time>2023-11-23T07:56:06.000Z</time>
      </trkpt>
      <trkpt lat="45.85353" lon="4.70874">
        <ele>247.54556</ele>
        <time>2023-11-23T07:56:07.000Z</time>
      </trkpt>
      <trkpt lat="45.85359" lon="4.70876">
        <ele>247.53706</ele>
        <time>2023-11-23T07:56:08.000Z</time>
      </trkpt>
      <trkpt lat="45.85364" lon="4.70877">
        <ele>246.78433</ele>
        <time>2023-11-23T07:56:09.000Z</time>
      </trkpt>
      <trkpt lat="45.8537" lon="4.70879">
        <ele>246.04842</ele>
        <time>2023-11-23T07:56:10.000Z</time>
      </trkpt>
      <trkpt lat="45.85376" lon="4.70881">
        <ele>245.33171</ele>
        <time>2023-11-23T07:56:11.000Z</time>
      </trkpt>
      <trkpt lat="45.85382" lon="4.70884">
        <ele>244.64351</ele>
        <time>2023-11-23T07:56:12.000Z</time>
      </trkpt>
      <trkpt lat="45.85387" lon="4.70885">
        <ele>244.46371</ele>
        <time>2023-11-23T07:56:13.000Z</time>
      </trkpt>
      <trkpt lat="45.85391" lon="4.70887">
        <ele>244.25993</ele>
        <time>2023-11-23T07:56:14.000Z</time>
      </trkpt>
      <trkpt lat="45.85396" lon="4.70889">
        <ele>244.01082</ele>
        <time>2023-11-23T07:56:15.000Z</time>
      </trkpt>
      <trkpt lat="45.85401" lon="4.7089">
        <ele>243.80009</ele>
        <time>2023-11-23T07:56:16.000Z</time>
      </trkpt>
      <trkpt lat="45.85406" lon="4.70892">
        <ele>243.61092</ele>
        <time>2023-11-23T07:56:17.000Z</time>
      </trkpt>
      <trkpt lat="45.85411" lon="4.70895">
        <ele>243.40349</ele>
        <time>2023-11-23T07:56:18.000Z</time>
      </trkpt>
      <trkpt lat="45.85416" lon="4.70898">
        <ele>243.2168</ele>
        <time>2023-11-23T07:56:19.000Z</time>
      </trkpt>
      <trkpt lat="45.8542" lon="4.709">
        <ele>243.05501</ele>
        <time>2023-11-23T07:56:20.000Z</time>
      </trkpt>
      <trkpt lat="45.85425" lon="4.70903">
        <ele>242.93091</ele>
        <time>2023-11-23T07:56:21.000Z</time>
      </trkpt>
      <trkpt lat="45.85429" lon="4.70905">
        <ele>242.80669</ele>
        <time>2023-11-23T07:56:22.000Z</time>
      </trkpt>
      <trkpt lat="45.85433" lon="4.70907">
        <ele>243.31705</ele>
        <time>2023-11-23T07:56:23.000Z</time>
      </trkpt>
      <trkpt lat="45.85438" lon="4.7091">
        <ele>243.22905</ele>
        <time>2023-11-23T07:56:24.000Z</time>
      </trkpt>
      <trkpt lat="45.85442" lon="4.70913">
        <ele>243.2272</ele>
        <time>2023-11-23T07:56:25.000Z</time>
      </trkpt>
      <trkpt lat="45.85446" lon="4.70914">
        <ele>243.21786</ele>
        <time>2023-11-23T07:56:26.000Z</time>
      </trkpt>
      <trkpt lat="45.8545" lon="4.70916">
        <ele>243.21057</ele>
        <time>2023-11-23T07:56:27.000Z</time>
      </trkpt>
      <trkpt lat="45.85454" lon="4.70917">
        <ele>243.28976</ele>
        <time>2023-11-23T07:56:28.000Z</time>
      </trkpt>
      <trkpt lat="45.85457" lon="4.70918">
        <ele>243.61942</ele>
        <time>2023-11-23T07:56:29.000Z</time>
      </trkpt>
      <trkpt lat="45.8546" lon="4.70918">
        <ele>243.92923</ele>
        <time>2023-11-23T07:56:30.000Z</time>
      </trkpt>
      <trkpt lat="45.85465" lon="4.70918">
        <ele>244.25467</ele>
        <time>2023-11-23T07:56:31.000Z</time>
      </trkpt>
      <trkpt lat="45.85468" lon="4.70919">
        <ele>244.75085</ele>
        <time>2023-11-23T07:56:32.000Z</time>
      </trkpt>
      <trkpt lat="45.85473" lon="4.7092">
        <ele>244.68526</ele>
        <time>2023-11-23T07:56:33.000Z</time>
      </trkpt>
      <trkpt lat="45.85475" lon="4.70923">
        <ele>244.72701</ele>
        <time>2023-11-23T07:56:34.000Z</time>
      </trkpt>
      <trkpt lat="45.85478" lon="4.70923">
        <ele>244.85477</ele>
        <time>2023-11-23T07:56:35.000Z</time>
      </trkpt>
      <trkpt lat="45.85482" lon="4.70924">
        <ele>245.01541</ele>
        <time>2023-11-23T07:56:36.000Z</time>
      </trkpt>
      <trkpt lat="45.85485" lon="4.70926">
        <ele>245.16931</ele>
        <time>2023-11-23T07:56:37.000Z</time>
      </trkpt>
      <trkpt lat="45.85489" lon="4.70928">
        <ele>245.35783</ele>
        <time>2023-11-23T07:56:38.000Z</time>
      </trkpt>
      <trkpt lat="45.85492" lon="4.70929">
        <ele>245.54382</ele>
        <time>2023-11-23T07:56:39.000Z</time>
      </trkpt>
      <trkpt lat="45.85496" lon="4.7093">
        <ele>245.7271</ele>
        <time>2023-11-23T07:56:40.000Z</time>
      </trkpt>
      <trkpt lat="45.85499" lon="4.70933">
        <ele>245.62894</ele>
        <time>2023-11-23T07:56:41.000Z</time>
      </trkpt>
      <trkpt lat="45.85501" lon="4.70939">
        <ele>245.44156</ele>
        <time>2023-11-23T07:56:42.000Z</time>
      </trkpt>
      <trkpt lat="45.85501" lon="4.70945">
        <ele>245.1523</ele>
        <time>2023-11-23T07:56:43.000Z</time>
      </trkpt>
      <trkpt lat="45.85501" lon="4.7095">
        <ele>245.35832</ele>
        <time>2023-11-23T07:56:44.000Z</time>
      </trkpt>
      <trkpt lat="45.855" lon="4.70955">
        <ele>245.45859</ele>
        <time>2023-11-23T07:56:45.000Z</time>
      </trkpt>
      <trkpt lat="45.855" lon="4.7096">
        <ele>245.52725</ele>
        <time>2023-11-23T07:56:46.000Z</time>
      </trkpt>
      <trkpt lat="45.85499" lon="4.70966">
        <ele>245.61081</ele>
        <time>2023-11-23T07:56:47.000Z</time>
      </trkpt>
      <trkpt lat="45.85499" lon="4.70971">
        <ele>245.65115</ele>
        <time>2023-11-23T07:56:48.000Z</time>
      </trkpt>
      <trkpt lat="45.85499" lon="4.70977">
        <ele>245.40764</ele>
        <time>2023-11-23T07:56:49.000Z</time>
      </trkpt>
      <trkpt lat="45.85499" lon="4.70983">
        <ele>245.17261</ele>
        <time>2023-11-23T07:56:50.000Z</time>
      </trkpt>
      <trkpt lat="45.85499" lon="4.70988">
        <ele>244.9299</ele>
        <time>2023-11-23T07:56:51.000Z</time>
      </trkpt>
      <trkpt lat="45.85498" lon="4.70994">
        <ele>244.49609</ele>
        <time>2023-11-23T07:56:52.000Z</time>
      </trkpt>
      <trkpt lat="45.85498" lon="4.70998">
        <ele>244.56673</ele>
        <time>2023-11-23T07:56:53.000Z</time>
      </trkpt>
      <trkpt lat="45.85498" lon="4.71003">
        <ele>244.54822</ele>
        <time>2023-11-23T07:56:54.000Z</time>
      </trkpt>
      <trkpt lat="45.85498" lon="4.71008">
        <ele>244.53271</ele>
        <time>2023-11-23T07:56:55.000Z</time>
      </trkpt>
      <trkpt lat="45.85499" lon="4.71012">
        <ele>244.20584</ele>
        <time>2023-11-23T07:56:56.000Z</time>
      </trkpt>
      <trkpt lat="45.85501" lon="4.71016">
        <ele>243.83611</ele>
        <time>2023-11-23T07:56:57.000Z</time>
      </trkpt>
      <trkpt lat="45.85504" lon="4.7102">
        <ele>243.42427</ele>
        <time>2023-11-23T07:56:58.000Z</time>
      </trkpt>
      <trkpt lat="45.85507" lon="4.71023">
        <ele>242.97318</ele>
        <time>2023-11-23T07:56:59.000Z</time>
      </trkpt>
      <trkpt lat="45.8551" lon="4.71025">
        <ele>242.52705</ele>
        <time>2023-11-23T07:57:00.000Z</time>
      </trkpt>
      <trkpt lat="45.85514" lon="4.71028">
        <ele>242.27303</ele>
        <time>2023-11-23T07:57:01.000Z</time>
      </trkpt>
      <trkpt lat="45.85517" lon="4.71031">
        <ele>242.14006</ele>
        <time>2023-11-23T07:57:02.000Z</time>
      </trkpt>
      <trkpt lat="45.8552" lon="4.71034">
        <ele>241.60689</ele>
        <time>2023-11-23T07:57:03.000Z</time>
      </trkpt>
      <trkpt lat="45.85521" lon="4.71039">
        <ele>241.16675</ele>
        <time>2023-11-23T07:57:04.000Z</time>
      </trkpt>
      <trkpt lat="45.8552" lon="4.71047">
        <ele>240.73112</ele>
        <time>2023-11-23T07:57:05.000Z</time>
      </trkpt>
      <trkpt lat="45.8552" lon="4.71054">
        <ele>240.2653</ele>
        <time>2023-11-23T07:57:06.000Z</time>
      </trkpt>
      <trkpt lat="45.8552" lon="4.7106">
        <ele>239.81938</ele>
        <time>2023-11-23T07:57:07.000Z</time>
      </trkpt>
      <trkpt lat="45.85519" lon="4.71066">
        <ele>239.39192</ele>
        <time>2023-11-23T07:57:08.000Z</time>
      </trkpt>
      <trkpt lat="45.85519" lon="4.71072">
        <ele>239.03317</ele>
        <time>2023-11-23T07:57:09.000Z</time>
      </trkpt>
      <trkpt lat="45.85519" lon="4.71078">
        <ele>238.67342</ele>
        <time>2023-11-23T07:57:10.000Z</time>
      </trkpt>
      <trkpt lat="45.85519" lon="4.71084">
        <ele>238.31392</ele>
        <time>2023-11-23T07:57:11.000Z</time>
      </trkpt>
      <trkpt lat="45.85519" lon="4.71092">
        <ele>237.87952</ele>
        <time>2023-11-23T07:57:12.000Z</time>
      </trkpt>
      <trkpt lat="45.85519" lon="4.71096">
        <ele>237.45525</ele>
        <time>2023-11-23T07:57:13.000Z</time>
      </trkpt>
      <trkpt lat="45.85519" lon="4.71103">
        <ele>236.99446</ele>
        <time>2023-11-23T07:57:14.000Z</time>
      </trkpt>
      <trkpt lat="45.8552" lon="4.7111">
        <ele>236.45296</ele>
        <time>2023-11-23T07:57:15.000Z</time>
      </trkpt>
      <trkpt lat="45.8552" lon="4.71116">
        <ele>236.20227</ele>
        <time>2023-11-23T07:57:16.000Z</time>
      </trkpt>
      <trkpt lat="45.85519" lon="4.71122">
        <ele>235.97498</ele>
        <time>2023-11-23T07:57:17.000Z</time>
      </trkpt>
      <trkpt lat="45.85519" lon="4.71129">
        <ele>235.74211</ele>
        <time>2023-11-23T07:57:18.000Z</time>
      </trkpt>
      <trkpt lat="45.85519" lon="4.71134">
        <ele>235.53394</ele>
        <time>2023-11-23T07:57:19.000Z</time>
      </trkpt>
      <trkpt lat="45.85519" lon="4.71139">
        <ele>235.41154</ele>
        <time>2023-11-23T07:57:20.000Z</time>
      </trkpt>
      <trkpt lat="45.85518" lon="4.71145">
        <ele>235.34795</ele>
        <time>2023-11-23T07:57:21.000Z</time>
      </trkpt>
      <trkpt lat="45.85516" lon="4.71149">
        <ele>235.13205</ele>
        <time>2023-11-23T07:57:22.000Z</time>
      </trkpt>
      <trkpt lat="45.85514" lon="4.71153">
        <ele>235.32925</ele>
        <time>2023-11-23T07:57:23.000Z</time>
      </trkpt>
      <trkpt lat="45.85512" lon="4.71156">
        <ele>235.43811</ele>
        <time>2023-11-23T07:57:24.000Z</time>
      </trkpt>
      <trkpt lat="45.8551" lon="4.71159">
        <ele>235.49203</ele>
        <time>2023-11-23T07:57:25.000Z</time>
      </trkpt>
      <trkpt lat="45.85508" lon="4.71163">
        <ele>235.61382</ele>
        <time>2023-11-23T07:57:26.000Z</time>
      </trkpt>
      <trkpt lat="45.85506" lon="4.71166">
        <ele>235.81335</ele>
        <time>2023-11-23T07:57:27.000Z</time>
      </trkpt>
      <trkpt lat="45.85505" lon="4.71168">
        <ele>236.04379</ele>
        <time>2023-11-23T07:57:28.000Z</time>
      </trkpt>
      <trkpt lat="45.85503" lon="4.71169">
        <ele>236.32144</ele>
        <time>2023-11-23T07:57:29.000Z</time>
      </trkpt>
      <trkpt lat="45.855" lon="4.71172">
        <ele>236.50186</ele>
        <time>2023-11-23T07:57:30.000Z</time>
      </trkpt>
      <trkpt lat="45.85498" lon="4.71174">
        <ele>236.71538</ele>
        <time>2023-11-23T07:57:31.000Z</time>
      </trkpt>
      <trkpt lat="45.85496" lon="4.71177">
        <ele>237.06363</ele>
        <time>2023-11-23T07:57:32.000Z</time>
      </trkpt>
      <trkpt lat="45.85494" lon="4.71179">
        <ele>237.63535</ele>
        <time>2023-11-23T07:57:33.000Z</time>
      </trkpt>
      <trkpt lat="45.85492" lon="4.71181">
        <ele>237.69461</ele>
        <time>2023-11-23T07:57:34.000Z</time>
      </trkpt>
      <trkpt lat="45.85491" lon="4.71184">
        <ele>237.89816</ele>
        <time>2023-11-23T07:57:35.000Z</time>
      </trkpt>
      <trkpt lat="45.8549" lon="4.71186">
        <ele>238.026</ele>
        <time>2023-11-23T07:57:36.000Z</time>
      </trkpt>
      <trkpt lat="45.85489" lon="4.71189">
        <ele>238.12134</ele>
        <time>2023-11-23T07:57:37.000Z</time>
      </trkpt>
      <trkpt lat="45.85488" lon="4.71193">
        <ele>238.22009</ele>
        <time>2023-11-23T07:57:38.000Z</time>
      </trkpt>
      <trkpt lat="45.85487" lon="4.71197">
        <ele>238.2897</ele>
        <time>2023-11-23T07:57:39.000Z</time>
      </trkpt>
      <trkpt lat="45.85486" lon="4.71201">
        <ele>238.33838</ele>
        <time>2023-11-23T07:57:40.000Z</time>
      </trkpt>
      <trkpt lat="45.85486" lon="4.71204">
        <ele>238.27937</ele>
        <time>2023-11-23T07:57:41.000Z</time>
      </trkpt>
      <trkpt lat="45.85485" lon="4.71209">
        <ele>238.1545</ele>
        <time>2023-11-23T07:57:42.000Z</time>
      </trkpt>
      <trkpt lat="45.85483" lon="4.71212">
        <ele>238.03755</ele>
        <time>2023-11-23T07:57:43.000Z</time>
      </trkpt>
      <trkpt lat="45.85482" lon="4.71216">
        <ele>238.05034</ele>
        <time>2023-11-23T07:57:44.000Z</time>
      </trkpt>
      <trkpt lat="45.85482" lon="4.71218">
        <ele>238.24397</ele>
        <time>2023-11-23T07:57:45.000Z</time>
      </trkpt>
      <trkpt lat="45.85481" lon="4.71222">
        <ele>238.20625</ele>
        <time>2023-11-23T07:57:47.000Z</time>
      </trkpt>
      <trkpt lat="45.8548" lon="4.71224">
        <ele>238.16142</ele>
        <time>2023-11-23T07:57:48.000Z</time>
      </trkpt>
      <trkpt lat="45.8548" lon="4.71227">
        <ele>237.98528</ele>
        <time>2023-11-23T07:57:49.000Z</time>
      </trkpt>
      <trkpt lat="45.85481" lon="4.71232">
        <ele>237.67546</ele>
        <time>2023-11-23T07:57:51.000Z</time>
      </trkpt>
      <trkpt lat="45.85481" lon="4.71236">
        <ele>237.69119</ele>
        <time>2023-11-23T07:57:52.000Z</time>
      </trkpt>
      <trkpt lat="45.85483" lon="4.7124">
        <ele>237.64502</ele>
        <time>2023-11-23T07:57:53.000Z</time>
      </trkpt>
      <trkpt lat="45.85484" lon="4.71243">
        <ele>237.49881</ele>
        <time>2023-11-23T07:57:54.000Z</time>
      </trkpt>
      <trkpt lat="45.85486" lon="4.71245">
        <ele>237.32771</ele>
        <time>2023-11-23T07:57:55.000Z</time>
      </trkpt>
      <trkpt lat="45.85488" lon="4.71247">
        <ele>237.00667</ele>
        <time>2023-11-23T07:57:56.000Z</time>
      </trkpt>
      <trkpt lat="45.85491" lon="4.71248">
        <ele>236.75317</ele>
        <time>2023-11-23T07:57:57.000Z</time>
      </trkpt>
      <trkpt lat="45.85494" lon="4.7125">
        <ele>236.44751</ele>
        <time>2023-11-23T07:57:58.000Z</time>
      </trkpt>
      <trkpt lat="45.85497" lon="4.7125">
        <ele>236.16367</ele>
        <time>2023-11-23T07:57:59.000Z</time>
      </trkpt>
      <trkpt lat="45.855" lon="4.71252">
        <ele>235.87512</ele>
        <time>2023-11-23T07:58:00.000Z</time>
      </trkpt>
      <trkpt lat="45.85504" lon="4.71254">
        <ele>235.70163</ele>
        <time>2023-11-23T07:58:01.000Z</time>
      </trkpt>
      <trkpt lat="45.85507" lon="4.71256">
        <ele>235.43359</ele>
        <time>2023-11-23T07:58:02.000Z</time>
      </trkpt>
      <trkpt lat="45.8551" lon="4.71258">
        <ele>235.03162</ele>
        <time>2023-11-23T07:58:03.000Z</time>
      </trkpt>
      <trkpt lat="45.85513" lon="4.7126">
        <ele>234.55344</ele>
        <time>2023-11-23T07:58:04.000Z</time>
      </trkpt>
      <trkpt lat="45.85517" lon="4.71261">
        <ele>234.11209</ele>
        <time>2023-11-23T07:58:05.000Z</time>
      </trkpt>
      <trkpt lat="45.8552" lon="4.71263">
        <ele>233.51669</ele>
        <time>2023-11-23T07:58:06.000Z</time>
      </trkpt>
      <trkpt lat="45.85523" lon="4.71264">
        <ele>232.79568</ele>
        <time>2023-11-23T07:58:07.000Z</time>
      </trkpt>
      <trkpt lat="45.85526" lon="4.71265">
        <ele>232.29294</ele>
        <time>2023-11-23T07:58:08.000Z</time>
      </trkpt>
      <trkpt lat="45.85529" lon="4.71265">
        <ele>231.68941</ele>
        <time>2023-11-23T07:58:09.000Z</time>
      </trkpt>
      <trkpt lat="45.85532" lon="4.71266">
        <ele>231.16965</ele>
        <time>2023-11-23T07:58:10.000Z</time>
      </trkpt>
      <trkpt lat="45.85535" lon="4.71266">
        <ele>230.72061</ele>
        <time>2023-11-23T07:58:11.000Z</time>
      </trkpt>
      <trkpt lat="45.85538" lon="4.71268">
        <ele>230.048</ele>
        <time>2023-11-23T07:58:12.000Z</time>
      </trkpt>
      <trkpt lat="45.85542" lon="4.71269">
        <ele>229.65622</ele>
        <time>2023-11-23T07:58:13.000Z</time>
      </trkpt>
      <trkpt lat="45.85546" lon="4.71271">
        <ele>229.32336</ele>
        <time>2023-11-23T07:58:14.000Z</time>
      </trkpt>
      <trkpt lat="45.8555" lon="4.71273">
        <ele>228.8221</ele>
        <time>2023-11-23T07:58:15.000Z</time>
      </trkpt>
      <trkpt lat="45.85553" lon="4.71275">
        <ele>229.11194</ele>
        <time>2023-11-23T07:58:16.000Z</time>
      </trkpt>
      <trkpt lat="45.85557" lon="4.71276">
        <ele>229.13936</ele>
        <time>2023-11-23T07:58:17.000Z</time>
      </trkpt>
      <trkpt lat="45.8556" lon="4.71277">
        <ele>229.44641</ele>
        <time>2023-11-23T07:58:18.000Z</time>
      </trkpt>
      <trkpt lat="45.85563" lon="4.71277">
        <ele>229.30042</ele>
        <time>2023-11-23T07:58:19.000Z</time>
      </trkpt>
      <trkpt lat="45.85566" lon="4.71278">
        <ele>229.31929</ele>
        <time>2023-11-23T07:58:20.000Z</time>
      </trkpt>
      <trkpt lat="45.85569" lon="4.7128">
        <ele>229.19417</ele>
        <time>2023-11-23T07:58:21.000Z</time>
      </trkpt>
      <trkpt lat="45.85571" lon="4.71282">
        <ele>229.25024</ele>
        <time>2023-11-23T07:58:22.000Z</time>
      </trkpt>
      <trkpt lat="45.85574" lon="4.71283">
        <ele>229.35359</ele>
        <time>2023-11-23T07:58:23.000Z</time>
      </trkpt>
      <trkpt lat="45.85577" lon="4.71284">
        <ele>229.63754</ele>
        <time>2023-11-23T07:58:24.000Z</time>
      </trkpt>
      <trkpt lat="45.8558" lon="4.71285">
        <ele>229.87442</ele>
        <time>2023-11-23T07:58:25.000Z</time>
      </trkpt>
      <trkpt lat="45.85583" lon="4.71286">
        <ele>230.18437</ele>
        <time>2023-11-23T07:58:26.000Z</time>
      </trkpt>
      <trkpt lat="45.85586" lon="4.71286">
        <ele>230.64529</ele>
        <time>2023-11-23T07:58:27.000Z</time>
      </trkpt>
      <trkpt lat="45.85588" lon="4.71287">
        <ele>231.15176</ele>
        <time>2023-11-23T07:58:28.000Z</time>
      </trkpt>
      <trkpt lat="45.85591" lon="4.71288">
        <ele>231.65694</ele>
        <time>2023-11-23T07:58:29.000Z</time>
      </trkpt>
      <trkpt lat="45.85594" lon="4.71289">
        <ele>232.17764</ele>
        <time>2023-11-23T07:58:30.000Z</time>
      </trkpt>
      <trkpt lat="45.85597" lon="4.7129">
        <ele>232.70398</ele>
        <time>2023-11-23T07:58:31.000Z</time>
      </trkpt>
      <trkpt lat="45.85599" lon="4.71291">
        <ele>233.29306</ele>
        <time>2023-11-23T07:58:32.000Z</time>
      </trkpt>
      <trkpt lat="45.85602" lon="4.71292">
        <ele>233.55948</ele>
        <time>2023-11-23T07:58:34.000Z</time>
      </trkpt>
      <trkpt lat="45.85604" lon="4.71294">
        <ele>233.7347</ele>
        <time>2023-11-23T07:58:36.000Z</time>
      </trkpt>
      <trkpt lat="45.85607" lon="4.71294">
        <ele>234.04431</ele>
        <time>2023-11-23T07:58:37.000Z</time>
      </trkpt>
      <trkpt lat="45.8561" lon="4.71293">
        <ele>234.158</ele>
        <time>2023-11-23T07:58:38.000Z</time>
      </trkpt>
      <trkpt lat="45.85613" lon="4.71291">
        <ele>234.31723</ele>
        <time>2023-11-23T07:58:39.000Z</time>
      </trkpt>
      <trkpt lat="45.85617" lon="4.71283">
        <ele>234.46455</ele>
        <time>2023-11-23T07:58:40.000Z</time>
      </trkpt>
      <trkpt lat="45.8562" lon="4.71279">
        <ele>235.10368</ele>
        <time>2023-11-23T07:58:41.000Z</time>
      </trkpt>
      <trkpt lat="45.85623" lon="4.71273">
        <ele>235.61075</ele>
        <time>2023-11-23T07:58:42.000Z</time>
      </trkpt>
      <trkpt lat="45.85627" lon="4.71268">
        <ele>235.65813</ele>
        <time>2023-11-23T07:58:43.000Z</time>
      </trkpt>
      <trkpt lat="45.85631" lon="4.71265">
        <ele>235.60196</ele>
        <time>2023-11-23T07:58:44.000Z</time>
      </trkpt>
      <trkpt lat="45.85637" lon="4.71263">
        <ele>235.46387</ele>
        <time>2023-11-23T07:58:45.000Z</time>
      </trkpt>
      <trkpt lat="45.85643" lon="4.71262">
        <ele>235.24712</ele>
        <time>2023-11-23T07:58:46.000Z</time>
      </trkpt>
      <trkpt lat="45.85649" lon="4.71262">
        <ele>235.02791</ele>
        <time>2023-11-23T07:58:47.000Z</time>
      </trkpt>
      <trkpt lat="45.85654" lon="4.71263">
        <ele>234.74655</ele>
        <time>2023-11-23T07:58:48.000Z</time>
      </trkpt>
      <trkpt lat="45.8566" lon="4.71265">
        <ele>234.58968</ele>
        <time>2023-11-23T07:58:49.000Z</time>
      </trkpt>
      <trkpt lat="45.85666" lon="4.7127">
        <ele>234.54178</ele>
        <time>2023-11-23T07:58:50.000Z</time>
      </trkpt>
      <trkpt lat="45.85671" lon="4.71275">
        <ele>233.95076</ele>
        <time>2023-11-23T07:58:51.000Z</time>
      </trkpt>
      <trkpt lat="45.85678" lon="4.7128">
        <ele>233.44202</ele>
        <time>2023-11-23T07:58:52.000Z</time>
      </trkpt>
      <trkpt lat="45.85684" lon="4.71284">
        <ele>232.91853</ele>
        <time>2023-11-23T07:58:53.000Z</time>
      </trkpt>
      <trkpt lat="45.8569" lon="4.71287">
        <ele>232.34888</ele>
        <time>2023-11-23T07:58:54.000Z</time>
      </trkpt>
      <trkpt lat="45.85696" lon="4.71288">
        <ele>231.78178</ele>
        <time>2023-11-23T07:58:55.000Z</time>
      </trkpt>
      <trkpt lat="45.85701" lon="4.7129">
        <ele>231.26773</ele>
        <time>2023-11-23T07:58:56.000Z</time>
      </trkpt>
      <trkpt lat="45.85706" lon="4.7129">
        <ele>230.55844</ele>
        <time>2023-11-23T07:58:57.000Z</time>
      </trkpt>
      <trkpt lat="45.85711" lon="4.71291">
        <ele>229.93796</ele>
        <time>2023-11-23T07:58:58.000Z</time>
      </trkpt>
      <trkpt lat="45.85715" lon="4.71292">
        <ele>229.33188</ele>
        <time>2023-11-23T07:58:59.000Z</time>
      </trkpt>
      <trkpt lat="45.8572" lon="4.71293">
        <ele>228.54277</ele>
        <time>2023-11-23T07:59:00.000Z</time>
      </trkpt>
      <trkpt lat="45.85724" lon="4.71295">
        <ele>227.72139</ele>
        <time>2023-11-23T07:59:01.000Z</time>
      </trkpt>
      <trkpt lat="45.85729" lon="4.71297">
        <ele>226.89937</ele>
        <time>2023-11-23T07:59:02.000Z</time>
      </trkpt>
      <trkpt lat="45.85734" lon="4.71297">
        <ele>226.56905</ele>
        <time>2023-11-23T07:59:03.000Z</time>
      </trkpt>
      <trkpt lat="45.85737" lon="4.71298">
        <ele>226.16516</ele>
        <time>2023-11-23T07:59:04.000Z</time>
      </trkpt>
      <trkpt lat="45.85741" lon="4.713">
        <ele>225.76279</ele>
        <time>2023-11-23T07:59:05.000Z</time>
      </trkpt>
      <trkpt lat="45.85743" lon="4.71299">
        <ele>225.39616</ele>
        <time>2023-11-23T07:59:06.000Z</time>
      </trkpt>
      <trkpt lat="45.85746" lon="4.71298">
        <ele>225.09563</ele>
        <time>2023-11-23T07:59:07.000Z</time>
      </trkpt>
      <trkpt lat="45.8575" lon="4.71297">
        <ele>224.76363</ele>
        <time>2023-11-23T07:59:08.000Z</time>
      </trkpt>
      <trkpt lat="45.85752" lon="4.71295">
        <ele>224.17839</ele>
        <time>2023-11-23T07:59:09.000Z</time>
      </trkpt>
      <trkpt lat="45.85755" lon="4.71292">
        <ele>222.99104</ele>
        <time>2023-11-23T07:59:10.000Z</time>
      </trkpt>
      <trkpt lat="45.85759" lon="4.71288">
        <ele>222.53394</ele>
        <time>2023-11-23T07:59:11.000Z</time>
      </trkpt>
      <trkpt lat="45.85762" lon="4.71284">
        <ele>222.07996</ele>
        <time>2023-11-23T07:59:12.000Z</time>
      </trkpt>
      <trkpt lat="45.85765" lon="4.71281">
        <ele>221.6178</ele>
        <time>2023-11-23T07:59:13.000Z</time>
      </trkpt>
      <trkpt lat="45.85769" lon="4.71276">
        <ele>221.22127</ele>
        <time>2023-11-23T07:59:14.000Z</time>
      </trkpt>
      <trkpt lat="45.85771" lon="4.71271">
        <ele>220.94402</ele>
        <time>2023-11-23T07:59:15.000Z</time>
      </trkpt>
      <trkpt lat="45.85773" lon="4.71266">
        <ele>220.33098</ele>
        <time>2023-11-23T07:59:16.000Z</time>
      </trkpt>
      <trkpt lat="45.85776" lon="4.71261">
        <ele>219.75114</ele>
        <time>2023-11-23T07:59:17.000Z</time>
      </trkpt>
      <trkpt lat="45.85779" lon="4.71255">
        <ele>219.15512</ele>
        <time>2023-11-23T07:59:18.000Z</time>
      </trkpt>
      <trkpt lat="45.85782" lon="4.71251">
        <ele>218.55008</ele>
        <time>2023-11-23T07:59:19.000Z</time>
      </trkpt>
      <trkpt lat="45.85785" lon="4.71246">
        <ele>217.99438</ele>
        <time>2023-11-23T07:59:20.000Z</time>
      </trkpt>
      <trkpt lat="45.85789" lon="4.71243">
        <ele>217.63123</ele>
        <time>2023-11-23T07:59:21.000Z</time>
      </trkpt>
      <trkpt lat="45.85791" lon="4.71239">
        <ele>217.28569</ele>
        <time>2023-11-23T07:59:22.000Z</time>
      </trkpt>
      <trkpt lat="45.85795" lon="4.71236">
        <ele>216.95947</ele>
        <time>2023-11-23T07:59:23.000Z</time>
      </trkpt>
      <trkpt lat="45.85799" lon="4.71236">
        <ele>216.66121</ele>
        <time>2023-11-23T07:59:24.000Z</time>
      </trkpt>
      <trkpt lat="45.85802" lon="4.71236">
        <ele>216.39917</ele>
        <time>2023-11-23T07:59:25.000Z</time>
      </trkpt>
      <trkpt lat="45.85805" lon="4.71237">
        <ele>216.1497</ele>
        <time>2023-11-23T07:59:26.000Z</time>
      </trkpt>
      <trkpt lat="45.85809" lon="4.71239">
        <ele>215.86104</ele>
        <time>2023-11-23T07:59:27.000Z</time>
      </trkpt>
      <trkpt lat="45.85813" lon="4.71241">
        <ele>215.65677</ele>
        <time>2023-11-23T07:59:28.000Z</time>
      </trkpt>
      <trkpt lat="45.85816" lon="4.71241">
        <ele>215.50388</ele>
        <time>2023-11-23T07:59:29.000Z</time>
      </trkpt>
      <trkpt lat="45.8582" lon="4.7124">
        <ele>215.80313</ele>
        <time>2023-11-23T07:59:30.000Z</time>
      </trkpt>
      <trkpt lat="45.85824" lon="4.71239">
        <ele>216.00546</ele>
        <time>2023-11-23T07:59:31.000Z</time>
      </trkpt>
      <trkpt lat="45.85828" lon="4.71237">
        <ele>215.75264</ele>
        <time>2023-11-23T07:59:32.000Z</time>
      </trkpt>
      <trkpt lat="45.85831" lon="4.71235">
        <ele>215.53484</ele>
        <time>2023-11-23T07:59:33.000Z</time>
      </trkpt>
      <trkpt lat="45.85835" lon="4.71233">
        <ele>215.25955</ele>
        <time>2023-11-23T07:59:34.000Z</time>
      </trkpt>
      <trkpt lat="45.85839" lon="4.71231">
        <ele>214.91995</ele>
        <time>2023-11-23T07:59:35.000Z</time>
      </trkpt>
      <trkpt lat="45.85842" lon="4.71229">
        <ele>214.95061</ele>
        <time>2023-11-23T07:59:36.000Z</time>
      </trkpt>
      <trkpt lat="45.85846" lon="4.71227">
        <ele>214.96091</ele>
        <time>2023-11-23T07:59:37.000Z</time>
      </trkpt>
      <trkpt lat="45.8585" lon="4.71225">
        <ele>214.9854</ele>
        <time>2023-11-23T07:59:38.000Z</time>
      </trkpt>
      <trkpt lat="45.85854" lon="4.71224">
        <ele>215.0153</ele>
        <time>2023-11-23T07:59:39.000Z</time>
      </trkpt>
      <trkpt lat="45.85858" lon="4.71221">
        <ele>215.0116</ele>
        <time>2023-11-23T07:59:40.000Z</time>
      </trkpt>
      <trkpt lat="45.85862" lon="4.71218">
        <ele>214.81058</ele>
        <time>2023-11-23T07:59:41.000Z</time>
      </trkpt>
      <trkpt lat="45.85867" lon="4.71216">
        <ele>214.61572</ele>
        <time>2023-11-23T07:59:42.000Z</time>
      </trkpt>
      <trkpt lat="45.85872" lon="4.71214">
        <ele>214.41263</ele>
        <time>2023-11-23T07:59:43.000Z</time>
      </trkpt>
      <trkpt lat="45.85877" lon="4.71213">
        <ele>214.20459</ele>
        <time>2023-11-23T07:59:44.000Z</time>
      </trkpt>
      <trkpt lat="45.85883" lon="4.71213">
        <ele>213.98062</ele>
        <time>2023-11-23T07:59:45.000Z</time>
      </trkpt>
      <trkpt lat="45.85888" lon="4.71213">
        <ele>213.73819</ele>
        <time>2023-11-23T07:59:46.000Z</time>
      </trkpt>
      <trkpt lat="45.85894" lon="4.71214">
        <ele>213.48067</ele>
        <time>2023-11-23T07:59:47.000Z</time>
      </trkpt>
      <trkpt lat="45.85899" lon="4.71215">
        <ele>213.21281</ele>
        <time>2023-11-23T07:59:48.000Z</time>
      </trkpt>
      <trkpt lat="45.85905" lon="4.71215">
        <ele>212.85742</ele>
        <time>2023-11-23T07:59:49.000Z</time>
      </trkpt>
      <trkpt lat="45.85911" lon="4.71217">
        <ele>212.47038</ele>
        <time>2023-11-23T07:59:50.000Z</time>
      </trkpt>
      <trkpt lat="45.85915" lon="4.71217">
        <ele>212.02438</ele>
        <time>2023-11-23T07:59:51.000Z</time>
      </trkpt>
      <trkpt lat="45.85921" lon="4.71219">
        <ele>211.91646</ele>
        <time>2023-11-23T07:59:52.000Z</time>
      </trkpt>
      <trkpt lat="45.85926" lon="4.7122">
        <ele>211.96265</ele>
        <time>2023-11-23T07:59:53.000Z</time>
      </trkpt>
      <trkpt lat="45.85932" lon="4.71221">
        <ele>211.95898</ele>
        <time>2023-11-23T07:59:54.000Z</time>
      </trkpt>
      <trkpt lat="45.85937" lon="4.71222">
        <ele>211.98938</ele>
        <time>2023-11-23T07:59:55.000Z</time>
      </trkpt>
      <trkpt lat="45.85942" lon="4.71223">
        <ele>212.10226</ele>
        <time>2023-11-23T07:59:56.000Z</time>
      </trkpt>
      <trkpt lat="45.85948" lon="4.71224">
        <ele>212.26204</ele>
        <time>2023-11-23T07:59:57.000Z</time>
      </trkpt>
      <trkpt lat="45.85954" lon="4.71226">
        <ele>212.01797</ele>
        <time>2023-11-23T07:59:58.000Z</time>
      </trkpt>
      <trkpt lat="45.85959" lon="4.71228">
        <ele>211.86365</ele>
        <time>2023-11-23T07:59:59.000Z</time>
      </trkpt>
      <trkpt lat="45.85964" lon="4.71229">
        <ele>211.6897</ele>
        <time>2023-11-23T08:00:00.000Z</time>
      </trkpt>
      <trkpt lat="45.85969" lon="4.71231">
        <ele>211.5529</ele>
        <time>2023-11-23T08:00:01.000Z</time>
      </trkpt>
      <trkpt lat="45.85974" lon="4.71232">
        <ele>211.37729</ele>
        <time>2023-11-23T08:00:02.000Z</time>
      </trkpt>
      <trkpt lat="45.85979" lon="4.71233">
        <ele>211.21072</ele>
        <time>2023-11-23T08:00:03.000Z</time>
      </trkpt>
      <trkpt lat="45.85983" lon="4.71234">
        <ele>211.74075</ele>
        <time>2023-11-23T08:00:04.000Z</time>
      </trkpt>
      <trkpt lat="45.85987" lon="4.71236">
        <ele>212.02922</ele>
        <time>2023-11-23T08:00:05.000Z</time>
      </trkpt>
      <trkpt lat="45.85992" lon="4.71237">
        <ele>212.61189</ele>
        <time>2023-11-23T08:00:06.000Z</time>
      </trkpt>
      <trkpt lat="45.85997" lon="4.71239">
        <ele>213.45316</ele>
        <time>2023-11-23T08:00:07.000Z</time>
      </trkpt>
      <trkpt lat="45.86002" lon="4.71241">
        <ele>213.62296</ele>
        <time>2023-11-23T08:00:08.000Z</time>
      </trkpt>
      <trkpt lat="45.86006" lon="4.71244">
        <ele>213.92937</ele>
        <time>2023-11-23T08:00:09.000Z</time>
      </trkpt>
      <trkpt lat="45.8601" lon="4.71246">
        <ele>214.24118</ele>
        <time>2023-11-23T08:00:10.000Z</time>
      </trkpt>
      <trkpt lat="45.86015" lon="4.71249">
        <ele>214.54666</ele>
        <time>2023-11-23T08:00:11.000Z</time>
      </trkpt>
      <trkpt lat="45.86019" lon="4.71251">
        <ele>214.90549</ele>
        <time>2023-11-23T08:00:12.000Z</time>
      </trkpt>
      <trkpt lat="45.86024" lon="4.71254">
        <ele>215.10799</ele>
        <time>2023-11-23T08:00:13.000Z</time>
      </trkpt>
      <trkpt lat="45.86028" lon="4.71256">
        <ele>215.32686</ele>
        <time>2023-11-23T08:00:14.000Z</time>
      </trkpt>
      <trkpt lat="45.86032" lon="4.71259">
        <ele>215.522</ele>
        <time>2023-11-23T08:00:15.000Z</time>
      </trkpt>
      <trkpt lat="45.86035" lon="4.71262">
        <ele>215.58728</ele>
        <time>2023-11-23T08:00:16.000Z</time>
      </trkpt>
      <trkpt lat="45.86039" lon="4.71264">
        <ele>215.60213</ele>
        <time>2023-11-23T08:00:17.000Z</time>
      </trkpt>
      <trkpt lat="45.86045" lon="4.71265">
        <ele>216.05916</ele>
        <time>2023-11-23T08:00:18.000Z</time>
      </trkpt>
      <trkpt lat="45.8605" lon="4.71265">
        <ele>216.35855</ele>
        <time>2023-11-23T08:00:19.000Z</time>
      </trkpt>
      <trkpt lat="45.86054" lon="4.71265">
        <ele>216.69162</ele>
        <time>2023-11-23T08:00:20.000Z</time>
      </trkpt>
      <trkpt lat="45.86057" lon="4.71265">
        <ele>217.34702</ele>
        <time>2023-11-23T08:00:21.000Z</time>
      </trkpt>
      <trkpt lat="45.86061" lon="4.71265">
        <ele>218.00444</ele>
        <time>2023-11-23T08:00:22.000Z</time>
      </trkpt>
      <trkpt lat="45.86065" lon="4.71264">
        <ele>218.89824</ele>
        <time>2023-11-23T08:00:23.000Z</time>
      </trkpt>
      <trkpt lat="45.86069" lon="4.71263">
        <ele>218.44809</ele>
        <time>2023-11-23T08:00:24.000Z</time>
      </trkpt>
      <trkpt lat="45.86073" lon="4.71261">
        <ele>218.37744</ele>
        <time>2023-11-23T08:00:25.000Z</time>
      </trkpt>
      <trkpt lat="45.86076" lon="4.71257">
        <ele>218.03633</ele>
        <time>2023-11-23T08:00:26.000Z</time>
      </trkpt>
      <trkpt lat="45.86078" lon="4.71253">
        <ele>217.44226</ele>
        <time>2023-11-23T08:00:27.000Z</time>
      </trkpt>
      <trkpt lat="45.8608" lon="4.71249">
        <ele>217.56482</ele>
        <time>2023-11-23T08:00:28.000Z</time>
      </trkpt>
      <trkpt lat="45.86081" lon="4.71244">
        <ele>217.62053</ele>
        <time>2023-11-23T08:00:29.000Z</time>
      </trkpt>
      <trkpt lat="45.86082" lon="4.71239">
        <ele>217.67056</ele>
        <time>2023-11-23T08:00:30.000Z</time>
      </trkpt>
      <trkpt lat="45.86083" lon="4.71233">
        <ele>217.71777</ele>
        <time>2023-11-23T08:00:31.000Z</time>
      </trkpt>
      <trkpt lat="45.86084" lon="4.71228">
        <ele>217.74956</ele>
        <time>2023-11-23T08:00:32.000Z</time>
      </trkpt>
      <trkpt lat="45.86085" lon="4.71222">
        <ele>217.74918</ele>
        <time>2023-11-23T08:00:33.000Z</time>
      </trkpt>
      <trkpt lat="45.86086" lon="4.71216">
        <ele>217.76074</ele>
        <time>2023-11-23T08:00:34.000Z</time>
      </trkpt>
      <trkpt lat="45.86086" lon="4.71211">
        <ele>217.76083</ele>
        <time>2023-11-23T08:00:35.000Z</time>
      </trkpt>
      <trkpt lat="45.86087" lon="4.71205">
        <ele>217.75415</ele>
        <time>2023-11-23T08:00:36.000Z</time>
      </trkpt>
      <trkpt lat="45.86088" lon="4.712">
        <ele>217.77866</ele>
        <time>2023-11-23T08:00:37.000Z</time>
      </trkpt>
      <trkpt lat="45.86089" lon="4.71194">
        <ele>217.80228</ele>
        <time>2023-11-23T08:00:38.000Z</time>
      </trkpt>
      <trkpt lat="45.8609" lon="4.71189">
        <ele>217.92282</ele>
        <time>2023-11-23T08:00:39.000Z</time>
      </trkpt>
      <trkpt lat="45.86091" lon="4.71183">
        <ele>217.99997</ele>
        <time>2023-11-23T08:00:40.000Z</time>
      </trkpt>
      <trkpt lat="45.86091" lon="4.71177">
        <ele>217.76172</ele>
        <time>2023-11-23T08:00:41.000Z</time>
      </trkpt>
      <trkpt lat="45.86091" lon="4.71171">
        <ele>217.63078</ele>
        <time>2023-11-23T08:00:42.000Z</time>
      </trkpt>
      <trkpt lat="45.86091" lon="4.71166">
        <ele>217.59102</ele>
        <time>2023-11-23T08:00:43.000Z</time>
      </trkpt>
      <trkpt lat="45.86091" lon="4.71161">
        <ele>218.41512</ele>
        <time>2023-11-23T08:00:44.000Z</time>
      </trkpt>
      <trkpt lat="45.86091" lon="4.71156">
        <ele>219.14563</ele>
        <time>2023-11-23T08:00:45.000Z</time>
      </trkpt>
      <trkpt lat="45.8609" lon="4.71153">
        <ele>219.22165</ele>
        <time>2023-11-23T08:00:46.000Z</time>
      </trkpt>
      <trkpt lat="45.86095" lon="4.71149">
        <ele>219.40552</ele>
        <time>2023-11-23T08:00:47.000Z</time>
      </trkpt>
      <trkpt lat="45.86098" lon="4.71145">
        <ele>219.53281</ele>
        <time>2023-11-23T08:00:48.000Z</time>
      </trkpt>
      <trkpt lat="45.86101" lon="4.71141">
        <ele>219.60544</ele>
        <time>2023-11-23T08:00:49.000Z</time>
      </trkpt>
      <trkpt lat="45.86104" lon="4.71136">
        <ele>219.68001</ele>
        <time>2023-11-23T08:00:50.000Z</time>
      </trkpt>
      <trkpt lat="45.86108" lon="4.71132">
        <ele>219.72205</ele>
        <time>2023-11-23T08:00:51.000Z</time>
      </trkpt>
      <trkpt lat="45.86112" lon="4.71127">
        <ele>219.79964</ele>
        <time>2023-11-23T08:00:52.000Z</time>
      </trkpt>
      <trkpt lat="45.86115" lon="4.71121">
        <ele>219.88579</ele>
        <time>2023-11-23T08:00:53.000Z</time>
      </trkpt>
      <trkpt lat="45.86117" lon="4.71116">
        <ele>219.97327</ele>
        <time>2023-11-23T08:00:54.000Z</time>
      </trkpt>
      <trkpt lat="45.86119" lon="4.7111">
        <ele>220.07906</ele>
        <time>2023-11-23T08:00:55.000Z</time>
      </trkpt>
      <trkpt lat="45.86121" lon="4.71104">
        <ele>220.23474</ele>
        <time>2023-11-23T08:00:56.000Z</time>
      </trkpt>
      <trkpt lat="45.86123" lon="4.71099">
        <ele>220.39124</ele>
        <time>2023-11-23T08:00:57.000Z</time>
      </trkpt>
      <trkpt lat="45.86125" lon="4.71092">
        <ele>220.51387</ele>
        <time>2023-11-23T08:00:58.000Z</time>
      </trkpt>
      <trkpt lat="45.86127" lon="4.71085">
        <ele>220.60001</ele>
        <time>2023-11-23T08:00:59.000Z</time>
      </trkpt>
      <trkpt lat="45.86129" lon="4.7108">
        <ele>220.69803</ele>
        <time>2023-11-23T08:01:00.000Z</time>
      </trkpt>
      <trkpt lat="45.86131" lon="4.71072">
        <ele>220.76811</ele>
        <time>2023-11-23T08:01:01.000Z</time>
      </trkpt>
      <trkpt lat="45.86134" lon="4.71067">
        <ele>220.74821</ele>
        <time>2023-11-23T08:01:02.000Z</time>
      </trkpt>
      <trkpt lat="45.86138" lon="4.71062">
        <ele>220.38962</ele>
        <time>2023-11-23T08:01:03.000Z</time>
      </trkpt>
      <trkpt lat="45.86141" lon="4.71057">
        <ele>219.85567</ele>
        <time>2023-11-23T08:01:04.000Z</time>
      </trkpt>
      <trkpt lat="45.86145" lon="4.71054">
        <ele>219.54141</ele>
        <time>2023-11-23T08:01:05.000Z</time>
      </trkpt>
      <trkpt lat="45.86149" lon="4.71052">
        <ele>220.06836</ele>
        <time>2023-11-23T08:01:06.000Z</time>
      </trkpt>
      <trkpt lat="45.86154" lon="4.7105">
        <ele>220.50998</ele>
        <time>2023-11-23T08:01:07.000Z</time>
      </trkpt>
      <trkpt lat="45.86158" lon="4.71048">
        <ele>220.32195</ele>
        <time>2023-11-23T08:01:08.000Z</time>
      </trkpt>
      <trkpt lat="45.86163" lon="4.71047">
        <ele>220.23335</ele>
        <time>2023-11-23T08:01:09.000Z</time>
      </trkpt>
      <trkpt lat="45.86168" lon="4.71045">
        <ele>220.17085</ele>
        <time>2023-11-23T08:01:10.000Z</time>
      </trkpt>
      <trkpt lat="45.86171" lon="4.71044">
        <ele>220.09111</ele>
        <time>2023-11-23T08:01:11.000Z</time>
      </trkpt>
      <trkpt lat="45.86176" lon="4.71043">
        <ele>220.27779</ele>
        <time>2023-11-23T08:01:12.000Z</time>
      </trkpt>
      <trkpt lat="45.8618" lon="4.71041">
        <ele>220.45715</ele>
        <time>2023-11-23T08:01:13.000Z</time>
      </trkpt>
      <trkpt lat="45.86185" lon="4.71038">
        <ele>220.83435</ele>
        <time>2023-11-23T08:01:14.000Z</time>
      </trkpt>
      <trkpt lat="45.86189" lon="4.71034">
        <ele>220.57841</ele>
        <time>2023-11-23T08:01:15.000Z</time>
      </trkpt>
      <trkpt lat="45.86193" lon="4.7103">
        <ele>219.94144</ele>
        <time>2023-11-23T08:01:16.000Z</time>
      </trkpt>
      <trkpt lat="45.86197" lon="4.71026">
        <ele>219.40137</ele>
        <time>2023-11-23T08:01:17.000Z</time>
      </trkpt>
      <trkpt lat="45.862" lon="4.71021">
        <ele>218.82536</ele>
        <time>2023-11-23T08:01:18.000Z</time>
      </trkpt>
      <trkpt lat="45.86203" lon="4.71018">
        <ele>218.26364</ele>
        <time>2023-11-23T08:01:19.000Z</time>
      </trkpt>
      <trkpt lat="45.86206" lon="4.71014">
        <ele>217.75581</ele>
        <time>2023-11-23T08:01:20.000Z</time>
      </trkpt>
      <trkpt lat="45.8621" lon="4.7101">
        <ele>217.23965</ele>
        <time>2023-11-23T08:01:21.000Z</time>
      </trkpt>
      <trkpt lat="45.86213" lon="4.71007">
        <ele>216.75456</ele>
        <time>2023-11-23T08:01:22.000Z</time>
      </trkpt>
      <trkpt lat="45.86215" lon="4.71003">
        <ele>216.30037</ele>
        <time>2023-11-23T08:01:23.000Z</time>
      </trkpt>
      <trkpt lat="45.86219" lon="4.70999">
        <ele>215.79187</ele>
        <time>2023-11-23T08:01:24.000Z</time>
      </trkpt>
      <trkpt lat="45.86222" lon="4.70997">
        <ele>215.01096</ele>
        <time>2023-11-23T08:01:25.000Z</time>
      </trkpt>
      <trkpt lat="45.86227" lon="4.70996">
        <ele>214.04741</ele>
        <time>2023-11-23T08:01:26.000Z</time>
      </trkpt>
      <trkpt lat="45.86231" lon="4.70995">
        <ele>213.44324</ele>
        <time>2023-11-23T08:01:27.000Z</time>
      </trkpt>
      <trkpt lat="45.86236" lon="4.70997">
        <ele>213.48035</ele>
        <time>2023-11-23T08:01:28.000Z</time>
      </trkpt>
      <trkpt lat="45.8624" lon="4.70999">
        <ele>213.44662</ele>
        <time>2023-11-23T08:01:29.000Z</time>
      </trkpt>
      <trkpt lat="45.86244" lon="4.71003">
        <ele>213.40706</ele>
        <time>2023-11-23T08:01:30.000Z</time>
      </trkpt>
      <trkpt lat="45.86248" lon="4.71008">
        <ele>213.36255</ele>
        <time>2023-11-23T08:01:31.000Z</time>
      </trkpt>
      <trkpt lat="45.86252" lon="4.71014">
        <ele>213.01184</ele>
        <time>2023-11-23T08:01:32.000Z</time>
      </trkpt>
      <trkpt lat="45.86254" lon="4.71018">
        <ele>212.67258</ele>
        <time>2023-11-23T08:01:33.000Z</time>
      </trkpt>
      <trkpt lat="45.86258" lon="4.71022">
        <ele>212.1403</ele>
        <time>2023-11-23T08:01:34.000Z</time>
      </trkpt>
      <trkpt lat="45.86263" lon="4.71025">
        <ele>212.21758</ele>
        <time>2023-11-23T08:01:35.000Z</time>
      </trkpt>
      <trkpt lat="45.86268" lon="4.71026">
        <ele>212.63528</ele>
        <time>2023-11-23T08:01:36.000Z</time>
      </trkpt>
      <trkpt lat="45.86273" lon="4.71027">
        <ele>212.52182</ele>
        <time>2023-11-23T08:01:37.000Z</time>
      </trkpt>
      <trkpt lat="45.86279" lon="4.71027">
        <ele>212.48279</ele>
        <time>2023-11-23T08:01:38.000Z</time>
      </trkpt>
      <trkpt lat="45.86284" lon="4.71027">
        <ele>212.44536</ele>
        <time>2023-11-23T08:01:39.000Z</time>
      </trkpt>
      <trkpt lat="45.8629" lon="4.71026">
        <ele>212.37857</ele>
        <time>2023-11-23T08:01:40.000Z</time>
      </trkpt>
      <trkpt lat="45.86294" lon="4.71024">
        <ele>212.50095</ele>
        <time>2023-11-23T08:01:41.000Z</time>
      </trkpt>
      <trkpt lat="45.86299" lon="4.71023">
        <ele>212.61816</ele>
        <time>2023-11-23T08:01:42.000Z</time>
      </trkpt>
      <trkpt lat="45.86304" lon="4.71022">
        <ele>212.81201</ele>
        <time>2023-11-23T08:01:43.000Z</time>
      </trkpt>
      <trkpt lat="45.8631" lon="4.71022">
        <ele>213.0386</ele>
        <time>2023-11-23T08:01:44.000Z</time>
      </trkpt>
      <trkpt lat="45.86314" lon="4.71021">
        <ele>213.37668</ele>
        <time>2023-11-23T08:01:45.000Z</time>
      </trkpt>
      <trkpt lat="45.8632" lon="4.71022">
        <ele>213.21989</ele>
        <time>2023-11-23T08:01:46.000Z</time>
      </trkpt>
      <trkpt lat="45.86324" lon="4.71022">
        <ele>212.75577</ele>
        <time>2023-11-23T08:01:47.000Z</time>
      </trkpt>
      <trkpt lat="45.86329" lon="4.71022">
        <ele>212.27832</ele>
        <time>2023-11-23T08:01:48.000Z</time>
      </trkpt>
      <trkpt lat="45.86334" lon="4.71023">
        <ele>211.7605</ele>
        <time>2023-11-23T08:01:49.000Z</time>
      </trkpt>
      <trkpt lat="45.86339" lon="4.71024">
        <ele>211.27805</ele>
        <time>2023-11-23T08:01:50.000Z</time>
      </trkpt>
      <trkpt lat="45.86345" lon="4.71024">
        <ele>210.85649</ele>
        <time>2023-11-23T08:01:51.000Z</time>
      </trkpt>
      <trkpt lat="45.86351" lon="4.71025">
        <ele>210.39304</ele>
        <time>2023-11-23T08:01:52.000Z</time>
      </trkpt>
      <trkpt lat="45.86356" lon="4.71024">
        <ele>209.96158</ele>
        <time>2023-11-23T08:01:53.000Z</time>
      </trkpt>
      <trkpt lat="45.86361" lon="4.71023">
        <ele>209.51865</ele>
        <time>2023-11-23T08:01:54.000Z</time>
      </trkpt>
      <trkpt lat="45.86367" lon="4.71022">
        <ele>209.10391</ele>
        <time>2023-11-23T08:01:55.000Z</time>
      </trkpt>
      <trkpt lat="45.86371" lon="4.71019">
        <ele>208.73796</ele>
        <time>2023-11-23T08:01:56.000Z</time>
      </trkpt>
      <trkpt lat="45.86375" lon="4.71017">
        <ele>208.82828</ele>
        <time>2023-11-23T08:01:57.000Z</time>
      </trkpt>
      <trkpt lat="45.86379" lon="4.71015">
        <ele>208.89912</ele>
        <time>2023-11-23T08:01:58.000Z</time>
      </trkpt>
      <trkpt lat="45.86384" lon="4.71013">
        <ele>208.94751</ele>
        <time>2023-11-23T08:01:59.000Z</time>
      </trkpt>
      <trkpt lat="45.86389" lon="4.71011">
        <ele>209.26074</ele>
        <time>2023-11-23T08:02:00.000Z</time>
      </trkpt>
      <trkpt lat="45.86393" lon="4.71007">
        <ele>209.41293</ele>
        <time>2023-11-23T08:02:01.000Z</time>
      </trkpt>
      <trkpt lat="45.86398" lon="4.71005">
        <ele>209.53374</ele>
        <time>2023-11-23T08:02:02.000Z</time>
      </trkpt>
      <trkpt lat="45.86402" lon="4.71002">
        <ele>209.54814</ele>
        <time>2023-11-23T08:02:03.000Z</time>
      </trkpt>
      <trkpt lat="45.86406" lon="4.70999">
        <ele>209.63528</ele>
        <time>2023-11-23T08:02:04.000Z</time>
      </trkpt>
      <trkpt lat="45.86411" lon="4.70997">
        <ele>209.66573</ele>
        <time>2023-11-23T08:02:05.000Z</time>
      </trkpt>
      <trkpt lat="45.86416" lon="4.70994">
        <ele>209.72366</ele>
        <time>2023-11-23T08:02:06.000Z</time>
      </trkpt>
      <trkpt lat="45.8642" lon="4.70991">
        <ele>209.72495</ele>
        <time>2023-11-23T08:02:07.000Z</time>
      </trkpt>
      <trkpt lat="45.86425" lon="4.70989">
        <ele>209.77573</ele>
        <time>2023-11-23T08:02:08.000Z</time>
      </trkpt>
      <trkpt lat="45.86429" lon="4.70986">
        <ele>209.8186</ele>
        <time>2023-11-23T08:02:09.000Z</time>
      </trkpt>
      <trkpt lat="45.86434" lon="4.70985">
        <ele>209.82132</ele>
        <time>2023-11-23T08:02:10.000Z</time>
      </trkpt>
      <trkpt lat="45.86439" lon="4.70983">
        <ele>209.78581</ele>
        <time>2023-11-23T08:02:11.000Z</time>
      </trkpt>
      <trkpt lat="45.86443" lon="4.70983">
        <ele>209.78928</ele>
        <time>2023-11-23T08:02:12.000Z</time>
      </trkpt>
      <trkpt lat="45.86448" lon="4.70981">
        <ele>209.74283</ele>
        <time>2023-11-23T08:02:13.000Z</time>
      </trkpt>
      <trkpt lat="45.86452" lon="4.70982">
        <ele>209.71492</ele>
        <time>2023-11-23T08:02:14.000Z</time>
      </trkpt>
      <trkpt lat="45.86457" lon="4.70982">
        <ele>209.64908</ele>
        <time>2023-11-23T08:02:15.000Z</time>
      </trkpt>
      <trkpt lat="45.86462" lon="4.70983">
        <ele>209.58545</ele>
        <time>2023-11-23T08:02:16.000Z</time>
      </trkpt>
      <trkpt lat="45.86466" lon="4.70983">
        <ele>209.49931</ele>
        <time>2023-11-23T08:02:17.000Z</time>
      </trkpt>
      <trkpt lat="45.86471" lon="4.70985">
        <ele>209.58501</ele>
        <time>2023-11-23T08:02:18.000Z</time>
      </trkpt>
      <trkpt lat="45.86476" lon="4.70985">
        <ele>209.85503</ele>
        <time>2023-11-23T08:02:19.000Z</time>
      </trkpt>
      <trkpt lat="45.86481" lon="4.70984">
        <ele>209.16281</ele>
        <time>2023-11-23T08:02:20.000Z</time>
      </trkpt>
      <trkpt lat="45.86484" lon="4.70983">
        <ele>208.28596</ele>
        <time>2023-11-23T08:02:21.000Z</time>
      </trkpt>
      <trkpt lat="45.86489" lon="4.70982">
        <ele>207.45976</ele>
        <time>2023-11-23T08:02:22.000Z</time>
      </trkpt>
      <trkpt lat="45.86493" lon="4.70983">
        <ele>207.9595</ele>
        <time>2023-11-23T08:02:23.000Z</time>
      </trkpt>
      <trkpt lat="45.86497" lon="4.70984">
        <ele>207.9196</ele>
        <time>2023-11-23T08:02:24.000Z</time>
      </trkpt>
      <trkpt lat="45.86502" lon="4.70986">
        <ele>207.85002</ele>
        <time>2023-11-23T08:02:25.000Z</time>
      </trkpt>
      <trkpt lat="45.86507" lon="4.70988">
        <ele>208.25488</ele>
        <time>2023-11-23T08:02:26.000Z</time>
      </trkpt>
      <trkpt lat="45.86512" lon="4.70988">
        <ele>208.65048</ele>
        <time>2023-11-23T08:02:27.000Z</time>
      </trkpt>
      <trkpt lat="45.86516" lon="4.70988">
        <ele>209.01233</ele>
        <time>2023-11-23T08:02:28.000Z</time>
      </trkpt>
      <trkpt lat="45.86521" lon="4.70988">
        <ele>209.39993</ele>
        <time>2023-11-23T08:02:29.000Z</time>
      </trkpt>
      <trkpt lat="45.86527" lon="4.7099">
        <ele>209.75955</ele>
        <time>2023-11-23T08:02:30.000Z</time>
      </trkpt>
      <trkpt lat="45.86531" lon="4.7099">
        <ele>210.16653</ele>
        <time>2023-11-23T08:02:31.000Z</time>
      </trkpt>
      <trkpt lat="45.86535" lon="4.70991">
        <ele>210.53487</ele>
        <time>2023-11-23T08:02:32.000Z</time>
      </trkpt>
      <trkpt lat="45.86539" lon="4.70991">
        <ele>210.90857</ele>
        <time>2023-11-23T08:02:33.000Z</time>
      </trkpt>
      <trkpt lat="45.86544" lon="4.70992">
        <ele>211.26852</ele>
        <time>2023-11-23T08:02:34.000Z</time>
      </trkpt>
      <trkpt lat="45.86548" lon="4.70992">
        <ele>211.65918</ele>
        <time>2023-11-23T08:02:35.000Z</time>
      </trkpt>
      <trkpt lat="45.86553" lon="4.70995">
        <ele>212.05179</ele>
        <time>2023-11-23T08:02:36.000Z</time>
      </trkpt>
      <trkpt lat="45.86557" lon="4.70996">
        <ele>212.44417</ele>
        <time>2023-11-23T08:02:37.000Z</time>
      </trkpt>
      <trkpt lat="45.86562" lon="4.70997">
        <ele>212.67403</ele>
        <time>2023-11-23T08:02:38.000Z</time>
      </trkpt>
      <trkpt lat="45.86567" lon="4.70999">
        <ele>213.07828</ele>
        <time>2023-11-23T08:02:39.000Z</time>
      </trkpt>
      <trkpt lat="45.86572" lon="4.71001">
        <ele>214.42281</ele>
        <time>2023-11-23T08:02:40.000Z</time>
      </trkpt>
      <trkpt lat="45.86578" lon="4.71003">
        <ele>215.26523</ele>
        <time>2023-11-23T08:02:41.000Z</time>
      </trkpt>
      <trkpt lat="45.86584" lon="4.71004">
        <ele>216.17508</ele>
        <time>2023-11-23T08:02:42.000Z</time>
      </trkpt>
      <trkpt lat="45.8659" lon="4.71006">
        <ele>215.76543</ele>
        <time>2023-11-23T08:02:43.000Z</time>
      </trkpt>
      <trkpt lat="45.86596" lon="4.71007">
        <ele>215.84293</ele>
        <time>2023-11-23T08:02:44.000Z</time>
      </trkpt>
      <trkpt lat="45.86601" lon="4.71008">
        <ele>215.92041</ele>
        <time>2023-11-23T08:02:45.000Z</time>
      </trkpt>
      <trkpt lat="45.86607" lon="4.71011">
        <ele>215.97539</ele>
        <time>2023-11-23T08:02:46.000Z</time>
      </trkpt>
      <trkpt lat="45.86612" lon="4.71013">
        <ele>215.99097</ele>
        <time>2023-11-23T08:02:47.000Z</time>
      </trkpt>
      <trkpt lat="45.86618" lon="4.71015">
        <ele>216.01108</ele>
        <time>2023-11-23T08:02:48.000Z</time>
      </trkpt>
      <trkpt lat="45.86622" lon="4.71017">
        <ele>215.98804</ele>
        <time>2023-11-23T08:02:49.000Z</time>
      </trkpt>
      <trkpt lat="45.86628" lon="4.7102">
        <ele>216.01346</ele>
        <time>2023-11-23T08:02:50.000Z</time>
      </trkpt>
      <trkpt lat="45.86633" lon="4.71022">
        <ele>215.95906</ele>
        <time>2023-11-23T08:02:51.000Z</time>
      </trkpt>
      <trkpt lat="45.86637" lon="4.71024">
        <ele>215.93518</ele>
        <time>2023-11-23T08:02:52.000Z</time>
      </trkpt>
      <trkpt lat="45.86643" lon="4.71027">
        <ele>215.93945</ele>
        <time>2023-11-23T08:02:53.000Z</time>
      </trkpt>
      <trkpt lat="45.86648" lon="4.7103">
        <ele>215.98787</ele>
        <time>2023-11-23T08:02:54.000Z</time>
      </trkpt>
      <trkpt lat="45.86653" lon="4.71032">
        <ele>216.02524</ele>
        <time>2023-11-23T08:02:55.000Z</time>
      </trkpt>
      <trkpt lat="45.86658" lon="4.71034">
        <ele>216.05257</ele>
        <time>2023-11-23T08:02:56.000Z</time>
      </trkpt>
      <trkpt lat="45.86664" lon="4.71036">
        <ele>216.04922</ele>
        <time>2023-11-23T08:02:57.000Z</time>
      </trkpt>
      <trkpt lat="45.86669" lon="4.71038">
        <ele>216.02864</ele>
        <time>2023-11-23T08:02:58.000Z</time>
      </trkpt>
      <trkpt lat="45.86674" lon="4.7104">
        <ele>215.67525</ele>
        <time>2023-11-23T08:02:59.000Z</time>
      </trkpt>
      <trkpt lat="45.86679" lon="4.71042">
        <ele>215.06148</ele>
        <time>2023-11-23T08:03:00.000Z</time>
      </trkpt>
      <trkpt lat="45.86684" lon="4.71045">
        <ele>215.58823</ele>
        <time>2023-11-23T08:03:01.000Z</time>
      </trkpt>
      <trkpt lat="45.86689" lon="4.71047">
        <ele>215.9976</ele>
        <time>2023-11-23T08:03:02.000Z</time>
      </trkpt>
      <trkpt lat="45.86694" lon="4.71049">
        <ele>216.43745</ele>
        <time>2023-11-23T08:03:03.000Z</time>
      </trkpt>
      <trkpt lat="45.867" lon="4.71051">
        <ele>217.01627</ele>
        <time>2023-11-23T08:03:04.000Z</time>
      </trkpt>
      <trkpt lat="45.86705" lon="4.71054">
        <ele>216.84488</ele>
        <time>2023-11-23T08:03:05.000Z</time>
      </trkpt>
      <trkpt lat="45.86711" lon="4.71058">
        <ele>216.68933</ele>
        <time>2023-11-23T08:03:06.000Z</time>
      </trkpt>
      <trkpt lat="45.86716" lon="4.71061">
        <ele>216.61819</ele>
        <time>2023-11-23T08:03:07.000Z</time>
      </trkpt>
      <trkpt lat="45.86721" lon="4.71063">
        <ele>216.49255</ele>
        <time>2023-11-23T08:03:08.000Z</time>
      </trkpt>
      <trkpt lat="45.86727" lon="4.71066">
        <ele>216.42754</ele>
        <time>2023-11-23T08:03:09.000Z</time>
      </trkpt>
      <trkpt lat="45.86732" lon="4.71068">
        <ele>216.35674</ele>
        <time>2023-11-23T08:03:10.000Z</time>
      </trkpt>
      <trkpt lat="45.86738" lon="4.71071">
        <ele>216.30424</ele>
        <time>2023-11-23T08:03:11.000Z</time>
      </trkpt>
      <trkpt lat="45.86744" lon="4.71074">
        <ele>216.32674</ele>
        <time>2023-11-23T08:03:12.000Z</time>
      </trkpt>
      <trkpt lat="45.86749" lon="4.71076">
        <ele>216.30368</ele>
        <time>2023-11-23T08:03:13.000Z</time>
      </trkpt>
      <trkpt lat="45.86756" lon="4.7108">
        <ele>216.32173</ele>
        <time>2023-11-23T08:03:14.000Z</time>
      </trkpt>
      <trkpt lat="45.86761" lon="4.71082">
        <ele>216.97636</ele>
        <time>2023-11-23T08:03:15.000Z</time>
      </trkpt>
      <trkpt lat="45.86766" lon="4.71083">
        <ele>216.38408</ele>
        <time>2023-11-23T08:03:16.000Z</time>
      </trkpt>
      <trkpt lat="45.86771" lon="4.71085">
        <ele>215.49661</ele>
        <time>2023-11-23T08:03:17.000Z</time>
      </trkpt>
      <trkpt lat="45.86774" lon="4.71086">
        <ele>214.5992</ele>
        <time>2023-11-23T08:03:18.000Z</time>
      </trkpt>
      <trkpt lat="45.86778" lon="4.71086">
        <ele>213.73764</ele>
        <time>2023-11-23T08:03:19.000Z</time>
      </trkpt>
      <trkpt lat="45.86782" lon="4.71086">
        <ele>212.90329</ele>
        <time>2023-11-23T08:03:20.000Z</time>
      </trkpt>
      <trkpt lat="45.86786" lon="4.71086">
        <ele>211.60754</ele>
        <time>2023-11-23T08:03:21.000Z</time>
      </trkpt>
      <trkpt lat="45.86789" lon="4.71085">
        <ele>210.32748</ele>
        <time>2023-11-23T08:03:22.000Z</time>
      </trkpt>
      <trkpt lat="45.86793" lon="4.71085">
        <ele>209.04253</ele>
        <time>2023-11-23T08:03:23.000Z</time>
      </trkpt>
      <trkpt lat="45.86796" lon="4.71085">
        <ele>207.5197</ele>
        <time>2023-11-23T08:03:24.000Z</time>
      </trkpt>
      <trkpt lat="45.86799" lon="4.71084">
        <ele>206.76547</ele>
        <time>2023-11-23T08:03:25.000Z</time>
      </trkpt>
      <trkpt lat="45.86802" lon="4.71084">
        <ele>205.99258</ele>
        <time>2023-11-23T08:03:26.000Z</time>
      </trkpt>
      <trkpt lat="45.86805" lon="4.71082">
        <ele>205.17038</ele>
        <time>2023-11-23T08:03:27.000Z</time>
      </trkpt>
      <trkpt lat="45.86808" lon="4.71081">
        <ele>204.38002</ele>
        <time>2023-11-23T08:03:28.000Z</time>
      </trkpt>
      <trkpt lat="45.86811" lon="4.7108">
        <ele>203.5692</ele>
        <time>2023-11-23T08:03:29.000Z</time>
      </trkpt>
      <trkpt lat="45.86814" lon="4.7108">
        <ele>202.71889</ele>
        <time>2023-11-23T08:03:30.000Z</time>
      </trkpt>
      <trkpt lat="45.86816" lon="4.7108">
        <ele>201.91475</ele>
        <time>2023-11-23T08:03:31.000Z</time>
      </trkpt>
      <trkpt lat="45.86818" lon="4.7108">
        <ele>201.08934</ele>
        <time>2023-11-23T08:03:33.000Z</time>
      </trkpt>
      <trkpt lat="45.8682" lon="4.71081">
        <ele>200.27478</ele>
        <time>2023-11-23T08:03:35.000Z</time>
      </trkpt>
      <trkpt lat="45.86824" lon="4.71081">
        <ele>199.33878</ele>
        <time>2023-11-23T08:03:50.000Z</time>
      </trkpt>
      <trkpt lat="45.86827" lon="4.71081">
        <ele>197.77348</ele>
        <time>2023-11-23T08:03:51.000Z</time>
      </trkpt>
      <trkpt lat="45.8683" lon="4.71081">
        <ele>197.45891</ele>
        <time>2023-11-23T08:03:52.000Z</time>
      </trkpt>
      <trkpt lat="45.86833" lon="4.71081">
        <ele>197.44244</ele>
        <time>2023-11-23T08:03:53.000Z</time>
      </trkpt>
      <trkpt lat="45.86836" lon="4.71081">
        <ele>197.42715</ele>
        <time>2023-11-23T08:03:54.000Z</time>
      </trkpt>
      <trkpt lat="45.86839" lon="4.71081">
        <ele>197.36618</ele>
        <time>2023-11-23T08:03:55.000Z</time>
      </trkpt>
      <trkpt lat="45.86842" lon="4.71081">
        <ele>197.29721</ele>
        <time>2023-11-23T08:03:56.000Z</time>
      </trkpt>
      <trkpt lat="45.86844" lon="4.71081">
        <ele>197.25304</ele>
        <time>2023-11-23T08:03:57.000Z</time>
      </trkpt>
      <trkpt lat="45.86847" lon="4.71081">
        <ele>197.2878</ele>
        <time>2023-11-23T08:03:58.000Z</time>
      </trkpt>
      <trkpt lat="45.86849" lon="4.71081">
        <ele>197.30899</ele>
        <time>2023-11-23T08:03:59.000Z</time>
      </trkpt>
      <trkpt lat="45.86851" lon="4.71081">
        <ele>197.4073</ele>
        <time>2023-11-23T08:04:00.000Z</time>
      </trkpt>
      <trkpt lat="45.86854" lon="4.71081">
        <ele>197.4191</ele>
        <time>2023-11-23T08:04:01.000Z</time>
      </trkpt>
      <trkpt lat="45.86857" lon="4.71081">
        <ele>197.44394</ele>
        <time>2023-11-23T08:04:02.000Z</time>
      </trkpt>
      <trkpt lat="45.8686" lon="4.71081">
        <ele>197.46846</ele>
        <time>2023-11-23T08:04:03.000Z</time>
      </trkpt>
      <trkpt lat="45.86862" lon="4.71081">
        <ele>197.49632</ele>
        <time>2023-11-23T08:04:04.000Z</time>
      </trkpt>
      <trkpt lat="45.86865" lon="4.71081">
        <ele>197.52115</ele>
        <time>2023-11-23T08:04:05.000Z</time>
      </trkpt>
      <trkpt lat="45.86867" lon="4.71081">
        <ele>197.57202</ele>
        <time>2023-11-23T08:04:06.000Z</time>
      </trkpt>
      <trkpt lat="45.86869" lon="4.71081">
        <ele>197.62263</ele>
        <time>2023-11-23T08:04:07.000Z</time>
      </trkpt>
      <trkpt lat="45.86871" lon="4.71082">
        <ele>197.63675</ele>
        <time>2023-11-23T08:04:08.000Z</time>
      </trkpt>
      <trkpt lat="45.86873" lon="4.71081">
        <ele>197.63539</ele>
        <time>2023-11-23T08:04:09.000Z</time>
      </trkpt>
      <trkpt lat="45.86876" lon="4.71081">
        <ele>197.64825</ele>
        <time>2023-11-23T08:04:10.000Z</time>
      </trkpt>
      <trkpt lat="45.86878" lon="4.7108">
        <ele>197.66994</ele>
        <time>2023-11-23T08:04:11.000Z</time>
      </trkpt>
      <trkpt lat="45.8688" lon="4.71079">
        <ele>197.66486</ele>
        <time>2023-11-23T08:04:12.000Z</time>
      </trkpt>
      <trkpt lat="45.86882" lon="4.71077">
        <ele>197.68623</ele>
        <time>2023-11-23T08:04:13.000Z</time>
      </trkpt>
      <trkpt lat="45.86884" lon="4.71076">
        <ele>197.71791</ele>
        <time>2023-11-23T08:04:14.000Z</time>
      </trkpt>
      <trkpt lat="45.86886" lon="4.71074">
        <ele>197.73643</ele>
        <time>2023-11-23T08:04:15.000Z</time>
      </trkpt>
      <trkpt lat="45.86888" lon="4.71073">
        <ele>197.76799</ele>
        <time>2023-11-23T08:04:16.000Z</time>
      </trkpt>
      <trkpt lat="45.86891" lon="4.71072">
        <ele>197.75362</ele>
        <time>2023-11-23T08:04:26.000Z</time>
      </trkpt>
      <trkpt lat="45.86892" lon="4.71069">
        <ele>197.65421</ele>
        <time>2023-11-23T08:04:27.000Z</time>
      </trkpt>
      <trkpt lat="45.86891" lon="4.71065">
        <ele>197.58621</ele>
        <time>2023-11-23T08:04:28.000Z</time>
      </trkpt>
      <trkpt lat="45.86889" lon="4.71062">
        <ele>197.48701</ele>
        <time>2023-11-23T08:04:29.000Z</time>
      </trkpt>
      <trkpt lat="45.86886" lon="4.7106">
        <ele>197.44606</ele>
        <time>2023-11-23T08:04:30.000Z</time>
      </trkpt>
      <trkpt lat="45.86884" lon="4.71058">
        <ele>197.39529</ele>
        <time>2023-11-23T08:04:31.000Z</time>
      </trkpt>
      <trkpt lat="45.86881" lon="4.71055">
        <ele>197.34949</ele>
        <time>2023-11-23T08:04:32.000Z</time>
      </trkpt>
      <trkpt lat="45.86879" lon="4.71052">
        <ele>197.3028</ele>
        <time>2023-11-23T08:04:33.000Z</time>
      </trkpt>
      <trkpt lat="45.86877" lon="4.71048">
        <ele>197.22791</ele>
        <time>2023-11-23T08:04:34.000Z</time>
      </trkpt>
      <trkpt lat="45.86874" lon="4.71044">
        <ele>197.13766</ele>
        <time>2023-11-23T08:04:35.000Z</time>
      </trkpt>
      <trkpt lat="45.86872" lon="4.71038">
        <ele>197.02478</ele>
        <time>2023-11-23T08:04:36.000Z</time>
      </trkpt>
      <trkpt lat="45.86871" lon="4.71032">
        <ele>196.88112</ele>
        <time>2023-11-23T08:04:37.000Z</time>
      </trkpt>
      <trkpt lat="45.86872" lon="4.71025">
        <ele>196.72577</ele>
        <time>2023-11-23T08:04:38.000Z</time>
      </trkpt>
      <trkpt lat="45.86871" lon="4.7102">
        <ele>196.61282</ele>
        <time>2023-11-23T08:04:39.000Z</time>
      </trkpt>
      <trkpt lat="45.8687" lon="4.71014">
        <ele>196.47411</ele>
        <time>2023-11-23T08:04:40.000Z</time>
      </trkpt>
      <trkpt lat="45.86869" lon="4.71007">
        <ele>196.3439</ele>
        <time>2023-11-23T08:04:41.000Z</time>
      </trkpt>
      <trkpt lat="45.86869" lon="4.71001">
        <ele>196.25734</ele>
        <time>2023-11-23T08:04:42.000Z</time>
      </trkpt>
      <trkpt lat="45.86868" lon="4.70996">
        <ele>196.18951</ele>
        <time>2023-11-23T08:04:43.000Z</time>
      </trkpt>
      <trkpt lat="45.86868" lon="4.7099">
        <ele>196.03264</ele>
        <time>2023-11-23T08:04:44.000Z</time>
      </trkpt>
      <trkpt lat="45.86868" lon="4.70986">
        <ele>195.91205</ele>
        <time>2023-11-23T08:04:45.000Z</time>
      </trkpt>
      <trkpt lat="45.86868" lon="4.70982">
        <ele>195.86252</ele>
        <time>2023-11-23T08:04:46.000Z</time>
      </trkpt>
      <trkpt lat="45.86866" lon="4.70976">
        <ele>195.82071</ele>
        <time>2023-11-23T08:04:47.000Z</time>
      </trkpt>
      <trkpt lat="45.86865" lon="4.70972">
        <ele>195.72321</ele>
        <time>2023-11-23T08:04:48.000Z</time>
      </trkpt>
      <trkpt lat="45.86863" lon="4.70968">
        <ele>195.65488</ele>
        <time>2023-11-23T08:04:49.000Z</time>
      </trkpt>
      <trkpt lat="45.86862" lon="4.70964">
        <ele>195.59032</ele>
        <time>2023-11-23T08:04:50.000Z</time>
      </trkpt>
      <trkpt lat="45.86861" lon="4.7096">
        <ele>195.54356</ele>
        <time>2023-11-23T08:04:51.000Z</time>
      </trkpt>
      <trkpt lat="45.86859" lon="4.70956">
        <ele>195.53816</ele>
        <time>2023-11-23T08:04:52.000Z</time>
      </trkpt>
      <trkpt lat="45.86858" lon="4.70952">
        <ele>195.56125</ele>
        <time>2023-11-23T08:04:53.000Z</time>
      </trkpt>
      <trkpt lat="45.86856" lon="4.70948">
        <ele>195.61636</ele>
        <time>2023-11-23T08:04:54.000Z</time>
      </trkpt>
      <trkpt lat="45.86854" lon="4.70943">
        <ele>195.71053</ele>
        <time>2023-11-23T08:04:55.000Z</time>
      </trkpt>
      <trkpt lat="45.86852" lon="4.70939">
        <ele>195.83858</ele>
        <time>2023-11-23T08:04:56.000Z</time>
      </trkpt>
      <trkpt lat="45.8685" lon="4.70935">
        <ele>196.04056</ele>
        <time>2023-11-23T08:04:57.000Z</time>
      </trkpt>
      <trkpt lat="45.86848" lon="4.70931">
        <ele>196.30827</ele>
        <time>2023-11-23T08:04:58.000Z</time>
      </trkpt>
      <trkpt lat="45.86845" lon="4.70926">
        <ele>196.58395</ele>
        <time>2023-11-23T08:04:59.000Z</time>
      </trkpt>
      <trkpt lat="45.86843" lon="4.70921">
        <ele>196.87408</ele>
        <time>2023-11-23T08:05:00.000Z</time>
      </trkpt>
      <trkpt lat="45.86842" lon="4.70916">
        <ele>197.1955</ele>
        <time>2023-11-23T08:05:01.000Z</time>
      </trkpt>
      <trkpt lat="45.8684" lon="4.70911">
        <ele>197.44624</ele>
        <time>2023-11-23T08:05:02.000Z</time>
      </trkpt>
      <trkpt lat="45.86838" lon="4.70906">
        <ele>197.68303</ele>
        <time>2023-11-23T08:05:03.000Z</time>
      </trkpt>
      <trkpt lat="45.86836" lon="4.70901">
        <ele>197.9491</ele>
        <time>2023-11-23T08:05:04.000Z</time>
      </trkpt>
      <trkpt lat="45.86833" lon="4.70896">
        <ele>198.18143</ele>
        <time>2023-11-23T08:05:05.000Z</time>
      </trkpt>
      <trkpt lat="45.86831" lon="4.70892">
        <ele>198.38632</ele>
        <time>2023-11-23T08:05:06.000Z</time>
      </trkpt>
      <trkpt lat="45.86829" lon="4.70887">
        <ele>198.56311</ele>
        <time>2023-11-23T08:05:07.000Z</time>
      </trkpt>
      <trkpt lat="45.86826" lon="4.70882">
        <ele>198.76042</ele>
        <time>2023-11-23T08:05:08.000Z</time>
      </trkpt>
      <trkpt lat="45.86824" lon="4.70878">
        <ele>198.9221</ele>
        <time>2023-11-23T08:05:09.000Z</time>
      </trkpt>
      <trkpt lat="45.86822" lon="4.70873">
        <ele>199.05467</ele>
        <time>2023-11-23T08:05:10.000Z</time>
      </trkpt>
      <trkpt lat="45.8682" lon="4.70868">
        <ele>199.16702</ele>
        <time>2023-11-23T08:05:11.000Z</time>
      </trkpt>
      <trkpt lat="45.86817" lon="4.70863">
        <ele>199.24156</ele>
        <time>2023-11-23T08:05:12.000Z</time>
      </trkpt>
      <trkpt lat="45.86815" lon="4.70858">
        <ele>199.29456</ele>
        <time>2023-11-23T08:05:13.000Z</time>
      </trkpt>
      <trkpt lat="45.86813" lon="4.70853">
        <ele>199.32901</ele>
        <time>2023-11-23T08:05:14.000Z</time>
      </trkpt>
      <trkpt lat="45.86811" lon="4.70848">
        <ele>199.35623</ele>
        <time>2023-11-23T08:05:15.000Z</time>
      </trkpt>
      <trkpt lat="45.86808" lon="4.70844">
        <ele>199.32425</ele>
        <time>2023-11-23T08:05:16.000Z</time>
      </trkpt>
      <trkpt lat="45.86805" lon="4.7084">
        <ele>199.25217</ele>
        <time>2023-11-23T08:05:17.000Z</time>
      </trkpt>
      <trkpt lat="45.86802" lon="4.70837">
        <ele>199.15059</ele>
        <time>2023-11-23T08:05:18.000Z</time>
      </trkpt>
      <trkpt lat="45.86798" lon="4.70834">
        <ele>198.93521</ele>
        <time>2023-11-23T08:05:19.000Z</time>
      </trkpt>
      <trkpt lat="45.86795" lon="4.70831">
        <ele>198.73486</ele>
        <time>2023-11-23T08:05:20.000Z</time>
      </trkpt>
      <trkpt lat="45.86791" lon="4.70829">
        <ele>198.53391</ele>
        <time>2023-11-23T08:05:21.000Z</time>
      </trkpt>
      <trkpt lat="45.86788" lon="4.70826">
        <ele>198.35623</ele>
        <time>2023-11-23T08:05:22.000Z</time>
      </trkpt>
      <trkpt lat="45.86784" lon="4.70823">
        <ele>198.19571</ele>
        <time>2023-11-23T08:05:23.000Z</time>
      </trkpt>
      <trkpt lat="45.8678" lon="4.7082">
        <ele>198.11119</ele>
        <time>2023-11-23T08:05:24.000Z</time>
      </trkpt>
      <trkpt lat="45.86777" lon="4.70816">
        <ele>197.97998</ele>
        <time>2023-11-23T08:05:25.000Z</time>
      </trkpt>
      <trkpt lat="45.86776" lon="4.70808">
        <ele>197.88203</ele>
        <time>2023-11-23T08:05:26.000Z</time>
      </trkpt>
      <trkpt lat="45.86774" lon="4.70803">
        <ele>197.83591</ele>
        <time>2023-11-23T08:05:27.000Z</time>
      </trkpt>
      <trkpt lat="45.86771" lon="4.70797">
        <ele>197.75755</ele>
        <time>2023-11-23T08:05:28.000Z</time>
      </trkpt>
      <trkpt lat="45.86769" lon="4.70791">
        <ele>197.69125</ele>
        <time>2023-11-23T08:05:29.000Z</time>
      </trkpt>
      <trkpt lat="45.86768" lon="4.70787">
        <ele>197.694</ele>
        <time>2023-11-23T08:05:30.000Z</time>
      </trkpt>
      <trkpt lat="45.86766" lon="4.7078">
        <ele>197.70645</ele>
        <time>2023-11-23T08:05:31.000Z</time>
      </trkpt>
      <trkpt lat="45.86764" lon="4.70773">
        <ele>197.72734</ele>
        <time>2023-11-23T08:05:32.000Z</time>
      </trkpt>
      <trkpt lat="45.86762" lon="4.70765">
        <ele>197.63943</ele>
        <time>2023-11-23T08:05:33.000Z</time>
      </trkpt>
      <trkpt lat="45.8676" lon="4.70759">
        <ele>197.5386</ele>
        <time>2023-11-23T08:05:34.000Z</time>
      </trkpt>
      <trkpt lat="45.8676" lon="4.70753">
        <ele>197.51041</ele>
        <time>2023-11-23T08:05:35.000Z</time>
      </trkpt>
      <trkpt lat="45.86759" lon="4.70747">
        <ele>197.52197</ele>
        <time>2023-11-23T08:05:36.000Z</time>
      </trkpt>
      <trkpt lat="45.86757" lon="4.70742">
        <ele>197.51469</ele>
        <time>2023-11-23T08:05:37.000Z</time>
      </trkpt>
      <trkpt lat="45.86755" lon="4.70737">
        <ele>197.53085</ele>
        <time>2023-11-23T08:05:38.000Z</time>
      </trkpt>
      <trkpt lat="45.86753" lon="4.70732">
        <ele>197.64076</ele>
        <time>2023-11-23T08:05:39.000Z</time>
      </trkpt>
      <trkpt lat="45.86751" lon="4.70729">
        <ele>197.7159</ele>
        <time>2023-11-23T08:05:40.000Z</time>
      </trkpt>
      <trkpt lat="45.8675" lon="4.70727">
        <ele>197.78537</ele>
        <time>2023-11-23T08:05:41.000Z</time>
      </trkpt>
      <trkpt lat="45.86746" lon="4.70728">
        <ele>197.88731</ele>
        <time>2023-11-23T08:05:42.000Z</time>
      </trkpt>
      <trkpt lat="45.8674" lon="4.70727">
        <ele>197.82278</ele>
        <time>2023-11-23T08:05:43.000Z</time>
      </trkpt>
      <trkpt lat="45.86736" lon="4.70724">
        <ele>197.76166</ele>
        <time>2023-11-23T08:05:44.000Z</time>
      </trkpt>
      <trkpt lat="45.86732" lon="4.7072">
        <ele>197.74716</ele>
        <time>2023-11-23T08:05:45.000Z</time>
      </trkpt>
      <trkpt lat="45.86729" lon="4.70717">
        <ele>197.69241</ele>
        <time>2023-11-23T08:05:46.000Z</time>
      </trkpt>
      <trkpt lat="45.86726" lon="4.70714">
        <ele>197.60358</ele>
        <time>2023-11-23T08:05:47.000Z</time>
      </trkpt>
      <trkpt lat="45.86723" lon="4.70711">
        <ele>197.5307</ele>
        <time>2023-11-23T08:05:48.000Z</time>
      </trkpt>
      <trkpt lat="45.86722" lon="4.70706">
        <ele>197.47563</ele>
        <time>2023-11-23T08:05:49.000Z</time>
      </trkpt>
      <trkpt lat="45.86721" lon="4.70702">
        <ele>197.32599</ele>
        <time>2023-11-23T08:05:50.000Z</time>
      </trkpt>
      <trkpt lat="45.86717" lon="4.70698">
        <ele>197.23514</ele>
        <time>2023-11-23T08:05:51.000Z</time>
      </trkpt>
      <trkpt lat="45.86715" lon="4.70694">
        <ele>197.18541</ele>
        <time>2023-11-23T08:05:52.000Z</time>
      </trkpt>
      <trkpt lat="45.86712" lon="4.70691">
        <ele>197.25819</ele>
        <time>2023-11-23T08:05:53.000Z</time>
      </trkpt>
      <trkpt lat="45.86709" lon="4.70688">
        <ele>197.34987</ele>
        <time>2023-11-23T08:05:54.000Z</time>
      </trkpt>
      <trkpt lat="45.86707" lon="4.70684">
        <ele>197.37383</ele>
        <time>2023-11-23T08:05:55.000Z</time>
      </trkpt>
      <trkpt lat="45.86704" lon="4.70681">
        <ele>197.40915</ele>
        <time>2023-11-23T08:05:56.000Z</time>
      </trkpt>
      <trkpt lat="45.86702" lon="4.70677">
        <ele>197.47998</ele>
        <time>2023-11-23T08:05:57.000Z</time>
      </trkpt>
      <trkpt lat="45.867" lon="4.70672">
        <ele>197.4969</ele>
        <time>2023-11-23T08:05:58.000Z</time>
      </trkpt>
      <trkpt lat="45.86698" lon="4.70666">
        <ele>197.38573</ele>
        <time>2023-11-23T08:05:59.000Z</time>
      </trkpt>
      <trkpt lat="45.86697" lon="4.7066">
        <ele>197.33212</ele>
        <time>2023-11-23T08:06:00.000Z</time>
      </trkpt>
      <trkpt lat="45.86695" lon="4.70655">
        <ele>197.19194</ele>
        <time>2023-11-23T08:06:01.000Z</time>
      </trkpt>
      <trkpt lat="45.86693" lon="4.70649">
        <ele>197.00171</ele>
        <time>2023-11-23T08:06:02.000Z</time>
      </trkpt>
      <trkpt lat="45.86691" lon="4.70644">
        <ele>196.97569</ele>
        <time>2023-11-23T08:06:03.000Z</time>
      </trkpt>
      <trkpt lat="45.86689" lon="4.7064">
        <ele>196.99246</ele>
        <time>2023-11-23T08:06:04.000Z</time>
      </trkpt>
      <trkpt lat="45.86686" lon="4.70635">
        <ele>197.02512</ele>
        <time>2023-11-23T08:06:05.000Z</time>
      </trkpt>
      <trkpt lat="45.86683" lon="4.70631">
        <ele>197.07022</ele>
        <time>2023-11-23T08:06:06.000Z</time>
      </trkpt>
      <trkpt lat="45.86681" lon="4.70626">
        <ele>197.10509</ele>
        <time>2023-11-23T08:06:07.000Z</time>
      </trkpt>
      <trkpt lat="45.86679" lon="4.7062">
        <ele>197.17685</ele>
        <time>2023-11-23T08:06:08.000Z</time>
      </trkpt>
      <trkpt lat="45.86675" lon="4.70616">
        <ele>197.27892</ele>
        <time>2023-11-23T08:06:09.000Z</time>
      </trkpt>
      <trkpt lat="45.86671" lon="4.70613">
        <ele>197.45738</ele>
        <time>2023-11-23T08:06:10.000Z</time>
      </trkpt>
      <trkpt lat="45.86666" lon="4.70616">
        <ele>197.55238</ele>
        <time>2023-11-23T08:06:11.000Z</time>
      </trkpt>
      <trkpt lat="45.86663" lon="4.70617">
        <ele>197.60873</ele>
        <time>2023-11-23T08:06:12.000Z</time>
      </trkpt>
      <trkpt lat="45.86658" lon="4.70618">
        <ele>197.6066</ele>
        <time>2023-11-23T08:06:13.000Z</time>
      </trkpt>
      <trkpt lat="45.86655" lon="4.70624">
        <ele>197.67882</ele>
        <time>2023-11-23T08:06:14.000Z</time>
      </trkpt>
      <trkpt lat="45.86653" lon="4.70628">
        <ele>197.71848</ele>
        <time>2023-11-23T08:06:15.000Z</time>
      </trkpt>
      <trkpt lat="45.86651" lon="4.70633">
        <ele>197.70248</ele>
        <time>2023-11-23T08:06:16.000Z</time>
      </trkpt>
      <trkpt lat="45.86649" lon="4.70638">
        <ele>197.67386</ele>
        <time>2023-11-23T08:06:17.000Z</time>
      </trkpt>
      <trkpt lat="45.86647" lon="4.70642">
        <ele>197.65065</ele>
        <time>2023-11-23T08:06:18.000Z</time>
      </trkpt>
      <trkpt lat="45.86643" lon="4.70645">
        <ele>197.76828</ele>
        <time>2023-11-23T08:06:19.000Z</time>
      </trkpt>
      <trkpt lat="45.86638" lon="4.70647">
        <ele>197.83133</ele>
        <time>2023-11-23T08:06:20.000Z</time>
      </trkpt>
      <trkpt lat="45.86634" lon="4.70647">
        <ele>197.98184</ele>
        <time>2023-11-23T08:06:21.000Z</time>
      </trkpt>
      <trkpt lat="45.8663" lon="4.70647">
        <ele>198.18439</ele>
        <time>2023-11-23T08:06:22.000Z</time>
      </trkpt>
      <trkpt lat="45.86627" lon="4.70644">
        <ele>198.40572</ele>
        <time>2023-11-23T08:06:23.000Z</time>
      </trkpt>
      <trkpt lat="45.86622" lon="4.70641">
        <ele>198.4519</ele>
        <time>2023-11-23T08:06:24.000Z</time>
      </trkpt>
      <trkpt lat="45.86618" lon="4.70637">
        <ele>198.51779</ele>
        <time>2023-11-23T08:06:25.000Z</time>
      </trkpt>
      <trkpt lat="45.86615" lon="4.70636">
        <ele>198.58772</ele>
        <time>2023-11-23T08:06:26.000Z</time>
      </trkpt>
      <trkpt lat="45.86611" lon="4.70635">
        <ele>198.71407</ele>
        <time>2023-11-23T08:06:27.000Z</time>
      </trkpt>
      <trkpt lat="45.86608" lon="4.70636">
        <ele>198.78201</ele>
        <time>2023-11-23T08:06:28.000Z</time>
      </trkpt>
      <trkpt lat="45.86603" lon="4.70636">
        <ele>198.81058</ele>
        <time>2023-11-23T08:06:29.000Z</time>
      </trkpt>
      <trkpt lat="45.86599" lon="4.70636">
        <ele>198.83157</ele>
        <time>2023-11-23T08:06:30.000Z</time>
      </trkpt>
      <trkpt lat="45.86594" lon="4.70638">
        <ele>198.82603</ele>
        <time>2023-11-23T08:06:31.000Z</time>
      </trkpt>
      <trkpt lat="45.86589" lon="4.70638">
        <ele>198.93375</ele>
        <time>2023-11-23T08:06:32.000Z</time>
      </trkpt>
      <trkpt lat="45.86584" lon="4.70638">
        <ele>199.09901</ele>
        <time>2023-11-23T08:06:33.000Z</time>
      </trkpt>
      <trkpt lat="45.86579" lon="4.70637">
        <ele>199.20767</ele>
        <time>2023-11-23T08:06:34.000Z</time>
      </trkpt>
      <trkpt lat="45.86575" lon="4.70637">
        <ele>199.37358</ele>
        <time>2023-11-23T08:06:35.000Z</time>
      </trkpt>
      <trkpt lat="45.8657" lon="4.70635">
        <ele>199.42058</ele>
        <time>2023-11-23T08:06:36.000Z</time>
      </trkpt>
      <trkpt lat="45.86566" lon="4.70635">
        <ele>199.48822</ele>
        <time>2023-11-23T08:06:37.000Z</time>
      </trkpt>
      <trkpt lat="45.86561" lon="4.70633">
        <ele>199.58112</ele>
        <time>2023-11-23T08:06:38.000Z</time>
      </trkpt>
      <trkpt lat="45.86557" lon="4.70628">
        <ele>199.59622</ele>
        <time>2023-11-23T08:06:39.000Z</time>
      </trkpt>
      <trkpt lat="45.86554" lon="4.70625">
        <ele>199.70711</ele>
        <time>2023-11-23T08:06:40.000Z</time>
      </trkpt>
      <trkpt lat="45.86551" lon="4.70619">
        <ele>199.79332</ele>
        <time>2023-11-23T08:06:41.000Z</time>
      </trkpt>
      <trkpt lat="45.86548" lon="4.70614">
        <ele>199.84457</ele>
        <time>2023-11-23T08:06:42.000Z</time>
      </trkpt>
      <trkpt lat="45.86546" lon="4.70609">
        <ele>199.85684</ele>
        <time>2023-11-23T08:06:43.000Z</time>
      </trkpt>
      <trkpt lat="45.86543" lon="4.70604">
        <ele>199.82497</ele>
        <time>2023-11-23T08:06:44.000Z</time>
      </trkpt>
      <trkpt lat="45.8654" lon="4.70598">
        <ele>199.77802</ele>
        <time>2023-11-23T08:06:45.000Z</time>
      </trkpt>
      <trkpt lat="45.86538" lon="4.70594">
        <ele>199.73267</ele>
        <time>2023-11-23T08:06:46.000Z</time>
      </trkpt>
      <trkpt lat="45.86534" lon="4.70588">
        <ele>199.62392</ele>
        <time>2023-11-23T08:06:47.000Z</time>
      </trkpt>
      <trkpt lat="45.86531" lon="4.70583">
        <ele>199.58249</ele>
        <time>2023-11-23T08:06:48.000Z</time>
      </trkpt>
      <trkpt lat="45.86528" lon="4.70579">
        <ele>199.57274</ele>
        <time>2023-11-23T08:06:49.000Z</time>
      </trkpt>
      <trkpt lat="45.86525" lon="4.70577">
        <ele>199.56039</ele>
        <time>2023-11-23T08:06:50.000Z</time>
      </trkpt>
      <trkpt lat="45.86521" lon="4.70573">
        <ele>199.56039</ele>
        <time>2023-11-23T08:06:51.000Z</time>
      </trkpt>
      <trkpt lat="45.86518" lon="4.70571">
        <ele>199.46733</ele>
        <time>2023-11-23T08:06:52.000Z</time>
      </trkpt>
      <trkpt lat="45.86515" lon="4.70569">
        <ele>199.35025</ele>
        <time>2023-11-23T08:06:53.000Z</time>
      </trkpt>
      <trkpt lat="45.86511" lon="4.70567">
        <ele>199.2484</ele>
        <time>2023-11-23T08:06:54.000Z</time>
      </trkpt>
      <trkpt lat="45.86508" lon="4.70565">
        <ele>199.10782</ele>
        <time>2023-11-23T08:06:55.000Z</time>
      </trkpt>
      <trkpt lat="45.86504" lon="4.70564">
        <ele>199.13864</ele>
        <time>2023-11-23T08:06:56.000Z</time>
      </trkpt>
      <trkpt lat="45.865" lon="4.70563">
        <ele>199.12796</ele>
        <time>2023-11-23T08:06:57.000Z</time>
      </trkpt>
      <trkpt lat="45.86496" lon="4.70562">
        <ele>199.10576</ele>
        <time>2023-11-23T08:06:58.000Z</time>
      </trkpt>
      <trkpt lat="45.86493" lon="4.70562">
        <ele>199.14969</ele>
        <time>2023-11-23T08:06:59.000Z</time>
      </trkpt>
      <trkpt lat="45.8649" lon="4.70561">
        <ele>199.10539</ele>
        <time>2023-11-23T08:07:00.000Z</time>
      </trkpt>
      <trkpt lat="45.86486" lon="4.70561">
        <ele>199.15306</ele>
        <time>2023-11-23T08:07:01.000Z</time>
      </trkpt>
      <trkpt lat="45.86482" lon="4.7056">
        <ele>199.22633</ele>
        <time>2023-11-23T08:07:02.000Z</time>
      </trkpt>
      <trkpt lat="45.86478" lon="4.7056">
        <ele>199.29857</ele>
        <time>2023-11-23T08:07:03.000Z</time>
      </trkpt>
      <trkpt lat="45.86474" lon="4.7056">
        <ele>199.45091</ele>
        <time>2023-11-23T08:07:04.000Z</time>
      </trkpt>
      <trkpt lat="45.86469" lon="4.7056">
        <ele>199.56682</ele>
        <time>2023-11-23T08:07:05.000Z</time>
      </trkpt>
      <trkpt lat="45.86465" lon="4.70561">
        <ele>199.67131</ele>
        <time>2023-11-23T08:07:06.000Z</time>
      </trkpt>
      <trkpt lat="45.86459" lon="4.70562">
        <ele>199.76416</ele>
        <time>2023-11-23T08:07:07.000Z</time>
      </trkpt>
      <trkpt lat="45.86455" lon="4.70563">
        <ele>199.8981</ele>
        <time>2023-11-23T08:07:08.000Z</time>
      </trkpt>
      <trkpt lat="45.86451" lon="4.70564">
        <ele>200.00681</ele>
        <time>2023-11-23T08:07:09.000Z</time>
      </trkpt>
      <trkpt lat="45.86448" lon="4.70565">
        <ele>200.11169</ele>
        <time>2023-11-23T08:07:10.000Z</time>
      </trkpt>
      <trkpt lat="45.86443" lon="4.70564">
        <ele>200.24449</ele>
        <time>2023-11-23T08:07:11.000Z</time>
      </trkpt>
      <trkpt lat="45.8644" lon="4.70565">
        <ele>200.37952</ele>
        <time>2023-11-23T08:07:12.000Z</time>
      </trkpt>
      <trkpt lat="45.86435" lon="4.70566">
        <ele>200.53165</ele>
        <time>2023-11-23T08:07:13.000Z</time>
      </trkpt>
      <trkpt lat="45.86431" lon="4.70568">
        <ele>200.63812</ele>
        <time>2023-11-23T08:07:14.000Z</time>
      </trkpt>
      <trkpt lat="45.86427" lon="4.7057">
        <ele>200.79309</ele>
        <time>2023-11-23T08:07:15.000Z</time>
      </trkpt>
      <trkpt lat="45.86423" lon="4.7057">
        <ele>200.88881</ele>
        <time>2023-11-23T08:07:16.000Z</time>
      </trkpt>
      <trkpt lat="45.86419" lon="4.70572">
        <ele>201.03098</ele>
        <time>2023-11-23T08:07:17.000Z</time>
      </trkpt>
      <trkpt lat="45.86414" lon="4.70573">
        <ele>201.19289</ele>
        <time>2023-11-23T08:07:18.000Z</time>
      </trkpt>
      <trkpt lat="45.86409" lon="4.70576">
        <ele>201.33286</ele>
        <time>2023-11-23T08:07:19.000Z</time>
      </trkpt>
      <trkpt lat="45.86404" lon="4.70578">
        <ele>201.42622</ele>
        <time>2023-11-23T08:07:20.000Z</time>
      </trkpt>
      <trkpt lat="45.86399" lon="4.70579">
        <ele>201.40027</ele>
        <time>2023-11-23T08:07:21.000Z</time>
      </trkpt>
      <trkpt lat="45.86393" lon="4.70579">
        <ele>201.31946</ele>
        <time>2023-11-23T08:07:22.000Z</time>
      </trkpt>
      <trkpt lat="45.86388" lon="4.70577">
        <ele>201.22792</ele>
        <time>2023-11-23T08:07:23.000Z</time>
      </trkpt>
      <trkpt lat="45.86384" lon="4.70572">
        <ele>201.20253</ele>
        <time>2023-11-23T08:07:24.000Z</time>
      </trkpt>
      <trkpt lat="45.86381" lon="4.70567">
        <ele>201.20555</ele>
        <time>2023-11-23T08:07:25.000Z</time>
      </trkpt>
      <trkpt lat="45.86379" lon="4.70562">
        <ele>201.20314</ele>
        <time>2023-11-23T08:07:26.000Z</time>
      </trkpt>
      <trkpt lat="45.86377" lon="4.70556">
        <ele>201.26527</ele>
        <time>2023-11-23T08:07:27.000Z</time>
      </trkpt>
      <trkpt lat="45.86376" lon="4.70548">
        <ele>201.21078</ele>
        <time>2023-11-23T08:07:28.000Z</time>
      </trkpt>
      <trkpt lat="45.86375" lon="4.7054">
        <ele>201.16989</ele>
        <time>2023-11-23T08:07:29.000Z</time>
      </trkpt>
      <trkpt lat="45.86374" lon="4.70535">
        <ele>201.12791</ele>
        <time>2023-11-23T08:07:30.000Z</time>
      </trkpt>
      <trkpt lat="45.86374" lon="4.7053">
        <ele>201.13895</ele>
        <time>2023-11-23T08:07:31.000Z</time>
      </trkpt>
      <trkpt lat="45.86372" lon="4.70522">
        <ele>201.07724</ele>
        <time>2023-11-23T08:07:32.000Z</time>
      </trkpt>
      <trkpt lat="45.86371" lon="4.70513">
        <ele>201.01431</ele>
        <time>2023-11-23T08:07:33.000Z</time>
      </trkpt>
      <trkpt lat="45.86372" lon="4.70504">
        <ele>201.00626</ele>
        <time>2023-11-23T08:07:34.000Z</time>
      </trkpt>
      <trkpt lat="45.86373" lon="4.70499">
        <ele>200.95319</ele>
        <time>2023-11-23T08:07:35.000Z</time>
      </trkpt>
      <trkpt lat="45.86376" lon="4.70492">
        <ele>200.79794</ele>
        <time>2023-11-23T08:07:36.000Z</time>
      </trkpt>
      <trkpt lat="45.86379" lon="4.70485">
        <ele>200.64883</ele>
        <time>2023-11-23T08:07:37.000Z</time>
      </trkpt>
      <trkpt lat="45.86384" lon="4.70477">
        <ele>200.50226</ele>
        <time>2023-11-23T08:07:38.000Z</time>
      </trkpt>
      <trkpt lat="45.86385" lon="4.7047">
        <ele>200.35995</ele>
        <time>2023-11-23T08:07:39.000Z</time>
      </trkpt>
      <trkpt lat="45.8639" lon="4.70466">
        <ele>200.29929</ele>
        <time>2023-11-23T08:07:40.000Z</time>
      </trkpt>
      <trkpt lat="45.86393" lon="4.7046">
        <ele>200.28641</ele>
        <time>2023-11-23T08:07:41.000Z</time>
      </trkpt>
      <trkpt lat="45.86394" lon="4.70453">
        <ele>200.37259</ele>
        <time>2023-11-23T08:07:42.000Z</time>
      </trkpt>
      <trkpt lat="45.86396" lon="4.70445">
        <ele>200.47946</ele>
        <time>2023-11-23T08:07:43.000Z</time>
      </trkpt>
      <trkpt lat="45.86395" lon="4.70437">
        <ele>200.61508</ele>
        <time>2023-11-23T08:07:44.000Z</time>
      </trkpt>
      <trkpt lat="45.86395" lon="4.70431">
        <ele>200.69278</ele>
        <time>2023-11-23T08:07:45.000Z</time>
      </trkpt>
      <trkpt lat="45.86394" lon="4.70423">
        <ele>200.76077</ele>
        <time>2023-11-23T08:07:46.000Z</time>
      </trkpt>
      <trkpt lat="45.86392" lon="4.70417">
        <ele>200.84203</ele>
        <time>2023-11-23T08:07:47.000Z</time>
      </trkpt>
      <trkpt lat="45.86389" lon="4.70409">
        <ele>200.99977</ele>
        <time>2023-11-23T08:07:48.000Z</time>
      </trkpt>
      <trkpt lat="45.86388" lon="4.70406">
        <ele>200.9677</ele>
        <time>2023-11-23T08:07:49.000Z</time>
      </trkpt>
      <trkpt lat="45.86388" lon="4.70398">
        <ele>201.01128</ele>
        <time>2023-11-23T08:07:50.000Z</time>
      </trkpt>
      <trkpt lat="45.86384" lon="4.70391">
        <ele>201.00012</ele>
        <time>2023-11-23T08:07:51.000Z</time>
      </trkpt>
      <trkpt lat="45.86381" lon="4.70386">
        <ele>201.02888</ele>
        <time>2023-11-23T08:07:52.000Z</time>
      </trkpt>
      <trkpt lat="45.86378" lon="4.70383">
        <ele>201.04556</ele>
        <time>2023-11-23T08:07:53.000Z</time>
      </trkpt>
      <trkpt lat="45.86374" lon="4.7038">
        <ele>201.03946</ele>
        <time>2023-11-23T08:07:54.000Z</time>
      </trkpt>
      <trkpt lat="45.86369" lon="4.70375">
        <ele>201.01355</ele>
        <time>2023-11-23T08:07:55.000Z</time>
      </trkpt>
      <trkpt lat="45.86366" lon="4.70372">
        <ele>201.11929</ele>
        <time>2023-11-23T08:07:56.000Z</time>
      </trkpt>
      <trkpt lat="45.86361" lon="4.70366">
        <ele>201.16949</ele>
        <time>2023-11-23T08:07:57.000Z</time>
      </trkpt>
      <trkpt lat="45.86357" lon="4.70364">
        <ele>201.35187</ele>
        <time>2023-11-23T08:07:58.000Z</time>
      </trkpt>
      <trkpt lat="45.86351" lon="4.70359">
        <ele>201.56935</ele>
        <time>2023-11-23T08:07:59.000Z</time>
      </trkpt>
      <trkpt lat="45.86347" lon="4.70355">
        <ele>201.76761</ele>
        <time>2023-11-23T08:08:00.000Z</time>
      </trkpt>
      <trkpt lat="45.86342" lon="4.7035">
        <ele>201.99736</ele>
        <time>2023-11-23T08:08:01.000Z</time>
      </trkpt>
      <trkpt lat="45.8634" lon="4.70345">
        <ele>202.07906</ele>
        <time>2023-11-23T08:08:02.000Z</time>
      </trkpt>
      <trkpt lat="45.86337" lon="4.7034">
        <ele>202.13631</ele>
        <time>2023-11-23T08:08:03.000Z</time>
      </trkpt>
      <trkpt lat="45.86333" lon="4.70335">
        <ele>202.12595</ele>
        <time>2023-11-23T08:08:04.000Z</time>
      </trkpt>
      <trkpt lat="45.86332" lon="4.70332">
        <ele>202.21277</ele>
        <time>2023-11-23T08:08:05.000Z</time>
      </trkpt>
      <trkpt lat="45.86328" lon="4.70325">
        <ele>202.34566</ele>
        <time>2023-11-23T08:08:06.000Z</time>
      </trkpt>
      <trkpt lat="45.86325" lon="4.70316">
        <ele>202.43344</ele>
        <time>2023-11-23T08:08:07.000Z</time>
      </trkpt>
      <trkpt lat="45.86325" lon="4.70306">
        <ele>202.4688</ele>
        <time>2023-11-23T08:08:08.000Z</time>
      </trkpt>
      <trkpt lat="45.86326" lon="4.70297">
        <ele>202.69452</ele>
        <time>2023-11-23T08:08:09.000Z</time>
      </trkpt>
      <trkpt lat="45.86327" lon="4.70291">
        <ele>202.85112</ele>
        <time>2023-11-23T08:08:10.000Z</time>
      </trkpt>
      <trkpt lat="45.86329" lon="4.70284">
        <ele>202.90031</ele>
        <time>2023-11-23T08:08:11.000Z</time>
      </trkpt>
      <trkpt lat="45.86329" lon="4.70277">
        <ele>202.98502</ele>
        <time>2023-11-23T08:08:12.000Z</time>
      </trkpt>
      <trkpt lat="45.86329" lon="4.7027">
        <ele>203.08043</ele>
        <time>2023-11-23T08:08:13.000Z</time>
      </trkpt>
      <trkpt lat="45.8633" lon="4.70262">
        <ele>203.16708</ele>
        <time>2023-11-23T08:08:14.000Z</time>
      </trkpt>
      <trkpt lat="45.86334" lon="4.70255">
        <ele>203.24081</ele>
        <time>2023-11-23T08:08:15.000Z</time>
      </trkpt>
      <trkpt lat="45.86338" lon="4.70248">
        <ele>203.29887</ele>
        <time>2023-11-23T08:08:16.000Z</time>
      </trkpt>
      <trkpt lat="45.86341" lon="4.7024">
        <ele>203.3483</ele>
        <time>2023-11-23T08:08:17.000Z</time>
      </trkpt>
      <trkpt lat="45.86344" lon="4.70233">
        <ele>203.24341</ele>
        <time>2023-11-23T08:08:18.000Z</time>
      </trkpt>
      <trkpt lat="45.86348" lon="4.70227">
        <ele>203.11252</ele>
        <time>2023-11-23T08:08:19.000Z</time>
      </trkpt>
      <trkpt lat="45.86352" lon="4.70222">
        <ele>202.9651</ele>
        <time>2023-11-23T08:08:20.000Z</time>
      </trkpt>
      <trkpt lat="45.86355" lon="4.70217">
        <ele>202.64626</ele>
        <time>2023-11-23T08:08:21.000Z</time>
      </trkpt>
      <trkpt lat="45.86359" lon="4.70213">
        <ele>202.47261</ele>
        <time>2023-11-23T08:08:22.000Z</time>
      </trkpt>
      <trkpt lat="45.86362" lon="4.70207">
        <ele>202.29663</ele>
        <time>2023-11-23T08:08:23.000Z</time>
      </trkpt>
      <trkpt lat="45.86365" lon="4.70199">
        <ele>202.16542</ele>
        <time>2023-11-23T08:08:24.000Z</time>
      </trkpt>
      <trkpt lat="45.86368" lon="4.70193">
        <ele>202.01254</ele>
        <time>2023-11-23T08:08:25.000Z</time>
      </trkpt>
      <trkpt lat="45.86371" lon="4.70187">
        <ele>201.81673</ele>
        <time>2023-11-23T08:08:26.000Z</time>
      </trkpt>
      <trkpt lat="45.86374" lon="4.70182">
        <ele>201.59082</ele>
        <time>2023-11-23T08:08:27.000Z</time>
      </trkpt>
      <trkpt lat="45.86375" lon="4.70174">
        <ele>201.38455</ele>
        <time>2023-11-23T08:08:28.000Z</time>
      </trkpt>
      <trkpt lat="45.86377" lon="4.70168">
        <ele>201.12178</ele>
        <time>2023-11-23T08:08:29.000Z</time>
      </trkpt>
      <trkpt lat="45.86378" lon="4.7016">
        <ele>200.85838</ele>
        <time>2023-11-23T08:08:30.000Z</time>
      </trkpt>
      <trkpt lat="45.8638" lon="4.70152">
        <ele>200.70258</ele>
        <time>2023-11-23T08:08:31.000Z</time>
      </trkpt>
      <trkpt lat="45.86382" lon="4.70144">
        <ele>200.55504</ele>
        <time>2023-11-23T08:08:32.000Z</time>
      </trkpt>
      <trkpt lat="45.86384" lon="4.70136">
        <ele>200.44283</ele>
        <time>2023-11-23T08:08:33.000Z</time>
      </trkpt>
      <trkpt lat="45.86385" lon="4.7013">
        <ele>200.28584</ele>
        <time>2023-11-23T08:08:34.000Z</time>
      </trkpt>
      <trkpt lat="45.86385" lon="4.70122">
        <ele>200.19911</ele>
        <time>2023-11-23T08:08:35.000Z</time>
      </trkpt>
      <trkpt lat="45.86386" lon="4.70114">
        <ele>200.15387</ele>
        <time>2023-11-23T08:08:36.000Z</time>
      </trkpt>
      <trkpt lat="45.86387" lon="4.70107">
        <ele>200.14255</ele>
        <time>2023-11-23T08:08:37.000Z</time>
      </trkpt>
      <trkpt lat="45.86389" lon="4.70099">
        <ele>200.15256</ele>
        <time>2023-11-23T08:08:38.000Z</time>
      </trkpt>
      <trkpt lat="45.8639" lon="4.70093">
        <ele>200.17917</ele>
        <time>2023-11-23T08:08:39.000Z</time>
      </trkpt>
      <trkpt lat="45.86391" lon="4.70085">
        <ele>200.24678</ele>
        <time>2023-11-23T08:08:40.000Z</time>
      </trkpt>
      <trkpt lat="45.86391" lon="4.70078">
        <ele>200.44704</ele>
        <time>2023-11-23T08:08:41.000Z</time>
      </trkpt>
      <trkpt lat="45.86393" lon="4.7007">
        <ele>200.53554</ele>
        <time>2023-11-23T08:08:42.000Z</time>
      </trkpt>
      <trkpt lat="45.86395" lon="4.70063">
        <ele>200.66635</ele>
        <time>2023-11-23T08:08:43.000Z</time>
      </trkpt>
      <trkpt lat="45.86396" lon="4.70057">
        <ele>200.81096</ele>
        <time>2023-11-23T08:08:44.000Z</time>
      </trkpt>
      <trkpt lat="45.86398" lon="4.70049">
        <ele>200.8958</ele>
        <time>2023-11-23T08:08:45.000Z</time>
      </trkpt>
      <trkpt lat="45.86398" lon="4.70041">
        <ele>200.98877</ele>
        <time>2023-11-23T08:08:46.000Z</time>
      </trkpt>
      <trkpt lat="45.86399" lon="4.70034">
        <ele>201.14764</ele>
        <time>2023-11-23T08:08:47.000Z</time>
      </trkpt>
      <trkpt lat="45.864" lon="4.70025">
        <ele>201.30435</ele>
        <time>2023-11-23T08:08:48.000Z</time>
      </trkpt>
      <trkpt lat="45.86401" lon="4.70016">
        <ele>201.39456</ele>
        <time>2023-11-23T08:08:49.000Z</time>
      </trkpt>
      <trkpt lat="45.86401" lon="4.7001">
        <ele>201.4816</ele>
        <time>2023-11-23T08:08:50.000Z</time>
      </trkpt>
      <trkpt lat="45.86401" lon="4.70001">
        <ele>201.54796</ele>
        <time>2023-11-23T08:08:51.000Z</time>
      </trkpt>
      <trkpt lat="45.86403" lon="4.69993">
        <ele>201.58347</ele>
        <time>2023-11-23T08:08:52.000Z</time>
      </trkpt>
      <trkpt lat="45.86402" lon="4.69985">
        <ele>201.59465</ele>
        <time>2023-11-23T08:08:53.000Z</time>
      </trkpt>
      <trkpt lat="45.86403" lon="4.69977">
        <ele>201.63353</ele>
        <time>2023-11-23T08:08:54.000Z</time>
      </trkpt>
      <trkpt lat="45.86404" lon="4.6997">
        <ele>201.6264</ele>
        <time>2023-11-23T08:08:55.000Z</time>
      </trkpt>
      <trkpt lat="45.86403" lon="4.69961">
        <ele>201.59686</ele>
        <time>2023-11-23T08:08:56.000Z</time>
      </trkpt>
      <trkpt lat="45.86403" lon="4.69954">
        <ele>201.57671</ele>
        <time>2023-11-23T08:08:57.000Z</time>
      </trkpt>
      <trkpt lat="45.86402" lon="4.69947">
        <ele>201.5701</ele>
        <time>2023-11-23T08:08:58.000Z</time>
      </trkpt>
      <trkpt lat="45.86401" lon="4.69939">
        <ele>201.58043</ele>
        <time>2023-11-23T08:08:59.000Z</time>
      </trkpt>
      <trkpt lat="45.86401" lon="4.69929">
        <ele>201.52739</ele>
        <time>2023-11-23T08:09:00.000Z</time>
      </trkpt>
      <trkpt lat="45.86401" lon="4.69922">
        <ele>201.43575</ele>
        <time>2023-11-23T08:09:01.000Z</time>
      </trkpt>
      <trkpt lat="45.864" lon="4.69914">
        <ele>201.36053</ele>
        <time>2023-11-23T08:09:02.000Z</time>
      </trkpt>
      <trkpt lat="45.86399" lon="4.69905">
        <ele>201.30669</ele>
        <time>2023-11-23T08:09:03.000Z</time>
      </trkpt>
      <trkpt lat="45.86398" lon="4.69897">
        <ele>201.19444</ele>
        <time>2023-11-23T08:09:04.000Z</time>
      </trkpt>
      <trkpt lat="45.86398" lon="4.6989">
        <ele>201.1133</ele>
        <time>2023-11-23T08:09:05.000Z</time>
      </trkpt>
      <trkpt lat="45.86397" lon="4.69883">
        <ele>201.04874</ele>
        <time>2023-11-23T08:09:06.000Z</time>
      </trkpt>
      <trkpt lat="45.86397" lon="4.69876">
        <ele>200.97177</ele>
        <time>2023-11-23T08:09:07.000Z</time>
      </trkpt>
      <trkpt lat="45.86396" lon="4.69869">
        <ele>200.97348</ele>
        <time>2023-11-23T08:09:08.000Z</time>
      </trkpt>
      <trkpt lat="45.86393" lon="4.69863">
        <ele>201.07437</ele>
        <time>2023-11-23T08:09:09.000Z</time>
      </trkpt>
      <trkpt lat="45.86391" lon="4.69857">
        <ele>201.19963</ele>
        <time>2023-11-23T08:09:10.000Z</time>
      </trkpt>
      <trkpt lat="45.86388" lon="4.69852">
        <ele>201.34286</ele>
        <time>2023-11-23T08:09:11.000Z</time>
      </trkpt>
      <trkpt lat="45.86385" lon="4.69846">
        <ele>201.45132</ele>
        <time>2023-11-23T08:09:12.000Z</time>
      </trkpt>
      <trkpt lat="45.86381" lon="4.6984">
        <ele>201.52385</ele>
        <time>2023-11-23T08:09:13.000Z</time>
      </trkpt>
      <trkpt lat="45.86378" lon="4.69834">
        <ele>201.65205</ele>
        <time>2023-11-23T08:09:14.000Z</time>
      </trkpt>
      <trkpt lat="45.86374" lon="4.69828">
        <ele>201.82437</ele>
        <time>2023-11-23T08:09:15.000Z</time>
      </trkpt>
      <trkpt lat="45.8637" lon="4.69821">
        <ele>201.98138</ele>
        <time>2023-11-23T08:09:16.000Z</time>
      </trkpt>
      <trkpt lat="45.86366" lon="4.69814">
        <ele>202.11707</ele>
        <time>2023-11-23T08:09:17.000Z</time>
      </trkpt>
      <trkpt lat="45.86362" lon="4.69807">
        <ele>202.83473</ele>
        <time>2023-11-23T08:09:18.000Z</time>
      </trkpt>
      <trkpt lat="45.86359" lon="4.698">
        <ele>203.49469</ele>
        <time>2023-11-23T08:09:19.000Z</time>
      </trkpt>
      <trkpt lat="45.86355" lon="4.69794">
        <ele>204.30783</ele>
        <time>2023-11-23T08:09:20.000Z</time>
      </trkpt>
      <trkpt lat="45.86352" lon="4.69788">
        <ele>204.86093</ele>
        <time>2023-11-23T08:09:21.000Z</time>
      </trkpt>
      <trkpt lat="45.86348" lon="4.69783">
        <ele>205.54585</ele>
        <time>2023-11-23T08:09:22.000Z</time>
      </trkpt>
      <trkpt lat="45.86345" lon="4.69778">
        <ele>206.15152</ele>
        <time>2023-11-23T08:09:23.000Z</time>
      </trkpt>
      <trkpt lat="45.86342" lon="4.69771">
        <ele>206.78079</ele>
        <time>2023-11-23T08:09:24.000Z</time>
      </trkpt>
      <trkpt lat="45.86337" lon="4.69766">
        <ele>207.48943</ele>
        <time>2023-11-23T08:09:25.000Z</time>
      </trkpt>
      <trkpt lat="45.86333" lon="4.69761">
        <ele>208.17615</ele>
        <time>2023-11-23T08:09:26.000Z</time>
      </trkpt>
      <trkpt lat="45.86327" lon="4.69758">
        <ele>208.82553</ele>
        <time>2023-11-23T08:09:27.000Z</time>
      </trkpt>
      <trkpt lat="45.86321" lon="4.69756">
        <ele>209.33403</ele>
        <time>2023-11-23T08:09:28.000Z</time>
      </trkpt>
      <trkpt lat="45.86315" lon="4.69754">
        <ele>209.81902</ele>
        <time>2023-11-23T08:09:29.000Z</time>
      </trkpt>
      <trkpt lat="45.86309" lon="4.69753">
        <ele>210.38937</ele>
        <time>2023-11-23T08:09:30.000Z</time>
      </trkpt>
      <trkpt lat="45.86303" lon="4.69753">
        <ele>210.97073</ele>
        <time>2023-11-23T08:09:31.000Z</time>
      </trkpt>
      <trkpt lat="45.86299" lon="4.69755">
        <ele>211.25154</ele>
        <time>2023-11-23T08:09:32.000Z</time>
      </trkpt>
      <trkpt lat="45.86293" lon="4.69755">
        <ele>211.689</ele>
        <time>2023-11-23T08:09:33.000Z</time>
      </trkpt>
      <trkpt lat="45.86288" lon="4.69756">
        <ele>212.07437</ele>
        <time>2023-11-23T08:09:34.000Z</time>
      </trkpt>
      <trkpt lat="45.86283" lon="4.69756">
        <ele>212.42073</ele>
        <time>2023-11-23T08:09:35.000Z</time>
      </trkpt>
      <trkpt lat="45.86276" lon="4.69756">
        <ele>212.78706</ele>
        <time>2023-11-23T08:09:36.000Z</time>
      </trkpt>
      <trkpt lat="45.8627" lon="4.69756">
        <ele>213.11877</ele>
        <time>2023-11-23T08:09:37.000Z</time>
      </trkpt>
      <trkpt lat="45.86264" lon="4.69758">
        <ele>212.85403</ele>
        <time>2023-11-23T08:09:38.000Z</time>
      </trkpt>
      <trkpt lat="45.86258" lon="4.69759">
        <ele>212.54614</ele>
        <time>2023-11-23T08:09:39.000Z</time>
      </trkpt>
      <trkpt lat="45.86252" lon="4.69762">
        <ele>212.11209</ele>
        <time>2023-11-23T08:09:40.000Z</time>
      </trkpt>
      <trkpt lat="45.86246" lon="4.69765">
        <ele>211.96085</ele>
        <time>2023-11-23T08:09:41.000Z</time>
      </trkpt>
      <trkpt lat="45.86241" lon="4.69769">
        <ele>211.67285</ele>
        <time>2023-11-23T08:09:42.000Z</time>
      </trkpt>
      <trkpt lat="45.86236" lon="4.69774">
        <ele>211.37521</ele>
        <time>2023-11-23T08:09:43.000Z</time>
      </trkpt>
      <trkpt lat="45.86232" lon="4.69778">
        <ele>211.16946</ele>
        <time>2023-11-23T08:09:44.000Z</time>
      </trkpt>
      <trkpt lat="45.86227" lon="4.69783">
        <ele>210.89835</ele>
        <time>2023-11-23T08:09:45.000Z</time>
      </trkpt>
      <trkpt lat="45.86223" lon="4.69787">
        <ele>210.60791</ele>
        <time>2023-11-23T08:09:46.000Z</time>
      </trkpt>
      <trkpt lat="45.86217" lon="4.69791">
        <ele>210.33586</ele>
        <time>2023-11-23T08:09:47.000Z</time>
      </trkpt>
      <trkpt lat="45.86212" lon="4.69794">
        <ele>209.7262</ele>
        <time>2023-11-23T08:09:48.000Z</time>
      </trkpt>
      <trkpt lat="45.86206" lon="4.69798">
        <ele>209.14548</ele>
        <time>2023-11-23T08:09:49.000Z</time>
      </trkpt>
      <trkpt lat="45.862" lon="4.69801">
        <ele>208.42419</ele>
        <time>2023-11-23T08:09:50.000Z</time>
      </trkpt>
      <trkpt lat="45.86195" lon="4.69806">
        <ele>207.72127</ele>
        <time>2023-11-23T08:09:51.000Z</time>
      </trkpt>
      <trkpt lat="45.86189" lon="4.69809">
        <ele>207.32768</ele>
        <time>2023-11-23T08:09:52.000Z</time>
      </trkpt>
      <trkpt lat="45.86184" lon="4.69814">
        <ele>206.80295</ele>
        <time>2023-11-23T08:09:53.000Z</time>
      </trkpt>
      <trkpt lat="45.8618" lon="4.69818">
        <ele>206.33035</ele>
        <time>2023-11-23T08:09:54.000Z</time>
      </trkpt>
      <trkpt lat="45.86175" lon="4.69822">
        <ele>205.83354</ele>
        <time>2023-11-23T08:09:55.000Z</time>
      </trkpt>
      <trkpt lat="45.86169" lon="4.69826">
        <ele>205.34485</ele>
        <time>2023-11-23T08:09:56.000Z</time>
      </trkpt>
      <trkpt lat="45.86164" lon="4.69831">
        <ele>204.91653</ele>
        <time>2023-11-23T08:09:57.000Z</time>
      </trkpt>
      <trkpt lat="45.86159" lon="4.69835">
        <ele>204.47522</ele>
        <time>2023-11-23T08:09:58.000Z</time>
      </trkpt>
      <trkpt lat="45.86154" lon="4.69839">
        <ele>204.08522</ele>
        <time>2023-11-23T08:09:59.000Z</time>
      </trkpt>
      <trkpt lat="45.86148" lon="4.69842">
        <ele>203.7052</ele>
        <time>2023-11-23T08:10:00.000Z</time>
      </trkpt>
      <trkpt lat="45.86143" lon="4.69846">
        <ele>203.33623</ele>
        <time>2023-11-23T08:10:01.000Z</time>
      </trkpt>
      <trkpt lat="45.86137" lon="4.69849">
        <ele>203.00697</ele>
        <time>2023-11-23T08:10:02.000Z</time>
      </trkpt>
      <trkpt lat="45.86132" lon="4.69854">
        <ele>202.70264</ele>
        <time>2023-11-23T08:10:03.000Z</time>
      </trkpt>
      <trkpt lat="45.86126" lon="4.69859">
        <ele>202.36179</ele>
        <time>2023-11-23T08:10:04.000Z</time>
      </trkpt>
      <trkpt lat="45.8612" lon="4.69863">
        <ele>201.97659</ele>
        <time>2023-11-23T08:10:05.000Z</time>
      </trkpt>
      <trkpt lat="45.86115" lon="4.69867">
        <ele>201.59834</ele>
        <time>2023-11-23T08:10:06.000Z</time>
      </trkpt>
      <trkpt lat="45.86109" lon="4.69872">
        <ele>201.21352</ele>
        <time>2023-11-23T08:10:07.000Z</time>
      </trkpt>
      <trkpt lat="45.86104" lon="4.69875">
        <ele>201.26517</ele>
        <time>2023-11-23T08:10:08.000Z</time>
      </trkpt>
      <trkpt lat="45.86099" lon="4.69877">
        <ele>201.32309</ele>
        <time>2023-11-23T08:10:09.000Z</time>
      </trkpt>
      <trkpt lat="45.86095" lon="4.69879">
        <ele>201.37433</ele>
        <time>2023-11-23T08:10:10.000Z</time>
      </trkpt>
      <trkpt lat="45.86088" lon="4.69884">
        <ele>201.3299</ele>
        <time>2023-11-23T08:10:11.000Z</time>
      </trkpt>
      <trkpt lat="45.86083" lon="4.69886">
        <ele>201.26323</ele>
        <time>2023-11-23T08:10:12.000Z</time>
      </trkpt>
      <trkpt lat="45.86077" lon="4.69887">
        <ele>201.20261</ele>
        <time>2023-11-23T08:10:13.000Z</time>
      </trkpt>
      <trkpt lat="45.86071" lon="4.69889">
        <ele>201.11714</ele>
        <time>2023-11-23T08:10:14.000Z</time>
      </trkpt>
      <trkpt lat="45.86066" lon="4.6989">
        <ele>201.07047</ele>
        <time>2023-11-23T08:10:15.000Z</time>
      </trkpt>
      <trkpt lat="45.86061" lon="4.69891">
        <ele>201.04379</ele>
        <time>2023-11-23T08:10:16.000Z</time>
      </trkpt>
      <trkpt lat="45.86057" lon="4.69891">
        <ele>200.9827</ele>
        <time>2023-11-23T08:10:17.000Z</time>
      </trkpt>
      <trkpt lat="45.86052" lon="4.69892">
        <ele>200.91965</ele>
        <time>2023-11-23T08:10:18.000Z</time>
      </trkpt>
      <trkpt lat="45.86046" lon="4.69891">
        <ele>200.87762</ele>
        <time>2023-11-23T08:10:19.000Z</time>
      </trkpt>
      <trkpt lat="45.86041" lon="4.69891">
        <ele>200.82785</ele>
        <time>2023-11-23T08:10:20.000Z</time>
      </trkpt>
      <trkpt lat="45.86035" lon="4.69892">
        <ele>200.76439</ele>
        <time>2023-11-23T08:10:21.000Z</time>
      </trkpt>
      <trkpt lat="45.86029" lon="4.69892">
        <ele>200.72125</ele>
        <time>2023-11-23T08:10:22.000Z</time>
      </trkpt>
      <trkpt lat="45.86025" lon="4.6989">
        <ele>200.68936</ele>
        <time>2023-11-23T08:10:23.000Z</time>
      </trkpt>
      <trkpt lat="45.86019" lon="4.69888">
        <ele>200.63864</ele>
        <time>2023-11-23T08:10:24.000Z</time>
      </trkpt>
      <trkpt lat="45.86013" lon="4.69885">
        <ele>200.5746</ele>
        <time>2023-11-23T08:10:25.000Z</time>
      </trkpt>
      <trkpt lat="45.86008" lon="4.69883">
        <ele>200.5222</ele>
        <time>2023-11-23T08:10:26.000Z</time>
      </trkpt>
      <trkpt lat="45.86004" lon="4.69879">
        <ele>200.4816</ele>
        <time>2023-11-23T08:10:27.000Z</time>
      </trkpt>
      <trkpt lat="45.85999" lon="4.69876">
        <ele>200.39813</ele>
        <time>2023-11-23T08:10:28.000Z</time>
      </trkpt>
      <trkpt lat="45.85995" lon="4.69871">
        <ele>200.33176</ele>
        <time>2023-11-23T08:10:29.000Z</time>
      </trkpt>
      <trkpt lat="45.8599" lon="4.69868">
        <ele>200.29361</ele>
        <time>2023-11-23T08:10:30.000Z</time>
      </trkpt>
      <trkpt lat="45.85985" lon="4.69863">
        <ele>200.33347</ele>
        <time>2023-11-23T08:10:31.000Z</time>
      </trkpt>
      <trkpt lat="45.8598" lon="4.69858">
        <ele>200.41557</ele>
        <time>2023-11-23T08:10:32.000Z</time>
      </trkpt>
      <trkpt lat="45.85975" lon="4.69855">
        <ele>200.45352</ele>
        <time>2023-11-23T08:10:33.000Z</time>
      </trkpt>
      <trkpt lat="45.8597" lon="4.6985">
        <ele>200.50493</ele>
        <time>2023-11-23T08:10:34.000Z</time>
      </trkpt>
      <trkpt lat="45.85965" lon="4.69845">
        <ele>200.49408</ele>
        <time>2023-11-23T08:10:35.000Z</time>
      </trkpt>
      <trkpt lat="45.8596" lon="4.69841">
        <ele>200.45747</ele>
        <time>2023-11-23T08:10:36.000Z</time>
      </trkpt>
      <trkpt lat="45.85955" lon="4.69836">
        <ele>200.50003</ele>
        <time>2023-11-23T08:10:37.000Z</time>
      </trkpt>
      <trkpt lat="45.85951" lon="4.69831">
        <ele>200.56976</ele>
        <time>2023-11-23T08:10:38.000Z</time>
      </trkpt>
      <trkpt lat="45.85947" lon="4.69826">
        <ele>200.67464</ele>
        <time>2023-11-23T08:10:39.000Z</time>
      </trkpt>
      <trkpt lat="45.85942" lon="4.6982">
        <ele>200.79459</ele>
        <time>2023-11-23T08:10:40.000Z</time>
      </trkpt>
      <trkpt lat="45.85937" lon="4.69816">
        <ele>200.80269</ele>
        <time>2023-11-23T08:10:41.000Z</time>
      </trkpt>
      <trkpt lat="45.85933" lon="4.6981">
        <ele>200.82353</ele>
        <time>2023-11-23T08:10:42.000Z</time>
      </trkpt>
      <trkpt lat="45.85928" lon="4.69805">
        <ele>200.8557</ele>
        <time>2023-11-23T08:10:43.000Z</time>
      </trkpt>
      <trkpt lat="45.85924" lon="4.698">
        <ele>200.90256</ele>
        <time>2023-11-23T08:10:44.000Z</time>
      </trkpt>
      <trkpt lat="45.85919" lon="4.69794">
        <ele>200.98265</ele>
        <time>2023-11-23T08:10:45.000Z</time>
      </trkpt>
      <trkpt lat="45.85916" lon="4.69789">
        <ele>201.0482</ele>
        <time>2023-11-23T08:10:46.000Z</time>
      </trkpt>
      <trkpt lat="45.85913" lon="4.69783">
        <ele>201.10963</ele>
        <time>2023-11-23T08:10:47.000Z</time>
      </trkpt>
      <trkpt lat="45.85909" lon="4.69778">
        <ele>201.20944</ele>
        <time>2023-11-23T08:10:48.000Z</time>
      </trkpt>
      <trkpt lat="45.85906" lon="4.69772">
        <ele>201.28644</ele>
        <time>2023-11-23T08:10:49.000Z</time>
      </trkpt>
      <trkpt lat="45.85902" lon="4.69767">
        <ele>201.3857</ele>
        <time>2023-11-23T08:10:50.000Z</time>
      </trkpt>
      <trkpt lat="45.85899" lon="4.69761">
        <ele>201.35429</ele>
        <time>2023-11-23T08:10:51.000Z</time>
      </trkpt>
      <trkpt lat="45.85894" lon="4.69756">
        <ele>201.32716</ele>
        <time>2023-11-23T08:10:52.000Z</time>
      </trkpt>
      <trkpt lat="45.85891" lon="4.69751">
        <ele>201.38664</ele>
        <time>2023-11-23T08:10:53.000Z</time>
      </trkpt>
      <trkpt lat="45.85889" lon="4.69743">
        <ele>201.42966</ele>
        <time>2023-11-23T08:10:54.000Z</time>
      </trkpt>
      <trkpt lat="45.85886" lon="4.69736">
        <ele>201.56717</ele>
        <time>2023-11-23T08:10:55.000Z</time>
      </trkpt>
      <trkpt lat="45.85882" lon="4.69729">
        <ele>201.69157</ele>
        <time>2023-11-23T08:10:56.000Z</time>
      </trkpt>
      <trkpt lat="45.85878" lon="4.69723">
        <ele>201.74292</ele>
        <time>2023-11-23T08:10:57.000Z</time>
      </trkpt>
      <trkpt lat="45.85875" lon="4.69717">
        <ele>201.77542</ele>
        <time>2023-11-23T08:10:58.000Z</time>
      </trkpt>
      <trkpt lat="45.85872" lon="4.6971">
        <ele>201.76523</ele>
        <time>2023-11-23T08:10:59.000Z</time>
      </trkpt>
      <trkpt lat="45.85869" lon="4.69703">
        <ele>201.77184</ele>
        <time>2023-11-23T08:11:00.000Z</time>
      </trkpt>
      <trkpt lat="45.85867" lon="4.69695">
        <ele>201.94356</ele>
        <time>2023-11-23T08:11:01.000Z</time>
      </trkpt>
      <trkpt lat="45.85864" lon="4.69689">
        <ele>202.26913</ele>
        <time>2023-11-23T08:11:02.000Z</time>
      </trkpt>
      <trkpt lat="45.85861" lon="4.69682">
        <ele>202.60072</ele>
        <time>2023-11-23T08:11:03.000Z</time>
      </trkpt>
      <trkpt lat="45.85858" lon="4.69677">
        <ele>202.88095</ele>
        <time>2023-11-23T08:11:04.000Z</time>
      </trkpt>
      <trkpt lat="45.85855" lon="4.69668">
        <ele>203.19321</ele>
        <time>2023-11-23T08:11:05.000Z</time>
      </trkpt>
      <trkpt lat="45.85853" lon="4.6966">
        <ele>203.5043</ele>
        <time>2023-11-23T08:11:06.000Z</time>
      </trkpt>
      <trkpt lat="45.85851" lon="4.69652">
        <ele>203.80411</ele>
        <time>2023-11-23T08:11:07.000Z</time>
      </trkpt>
      <trkpt lat="45.85848" lon="4.69645">
        <ele>204.04922</ele>
        <time>2023-11-23T08:11:08.000Z</time>
      </trkpt>
      <trkpt lat="45.85846" lon="4.69637">
        <ele>204.31355</ele>
        <time>2023-11-23T08:11:09.000Z</time>
      </trkpt>
      <trkpt lat="45.85845" lon="4.69629">
        <ele>204.57925</ele>
        <time>2023-11-23T08:11:10.000Z</time>
      </trkpt>
      <trkpt lat="45.85843" lon="4.69623">
        <ele>204.97551</ele>
        <time>2023-11-23T08:11:11.000Z</time>
      </trkpt>
      <trkpt lat="45.85841" lon="4.69615">
        <ele>205.26599</ele>
        <time>2023-11-23T08:11:12.000Z</time>
      </trkpt>
      <trkpt lat="45.85837" lon="4.69608">
        <ele>205.46701</ele>
        <time>2023-11-23T08:11:13.000Z</time>
      </trkpt>
      <trkpt lat="45.85836" lon="4.69601">
        <ele>205.73999</ele>
        <time>2023-11-23T08:11:14.000Z</time>
      </trkpt>
      <trkpt lat="45.85835" lon="4.69593">
        <ele>205.97949</ele>
        <time>2023-11-23T08:11:15.000Z</time>
      </trkpt>
      <trkpt lat="45.85834" lon="4.69585">
        <ele>206.25772</ele>
        <time>2023-11-23T08:11:16.000Z</time>
      </trkpt>
      <trkpt lat="45.85833" lon="4.69575">
        <ele>206.48953</ele>
        <time>2023-11-23T08:11:17.000Z</time>
      </trkpt>
      <trkpt lat="45.85832" lon="4.69567">
        <ele>206.67355</ele>
        <time>2023-11-23T08:11:18.000Z</time>
      </trkpt>
      <trkpt lat="45.85832" lon="4.6956">
        <ele>206.83333</ele>
        <time>2023-11-23T08:11:19.000Z</time>
      </trkpt>
      <trkpt lat="45.85832" lon="4.69551">
        <ele>206.91707</ele>
        <time>2023-11-23T08:11:20.000Z</time>
      </trkpt>
      <trkpt lat="45.85833" lon="4.69542">
        <ele>207.02136</ele>
        <time>2023-11-23T08:11:21.000Z</time>
      </trkpt>
      <trkpt lat="45.85832" lon="4.69535">
        <ele>207.01172</ele>
        <time>2023-11-23T08:11:22.000Z</time>
      </trkpt>
      <trkpt lat="45.85831" lon="4.69528">
        <ele>207.03165</ele>
        <time>2023-11-23T08:11:23.000Z</time>
      </trkpt>
      <trkpt lat="45.8583" lon="4.69519">
        <ele>206.9915</ele>
        <time>2023-11-23T08:11:24.000Z</time>
      </trkpt>
      <trkpt lat="45.85829" lon="4.6951">
        <ele>206.95992</ele>
        <time>2023-11-23T08:11:25.000Z</time>
      </trkpt>
      <trkpt lat="45.85828" lon="4.69502">
        <ele>206.94112</ele>
        <time>2023-11-23T08:11:26.000Z</time>
      </trkpt>
      <trkpt lat="45.85827" lon="4.69494">
        <ele>206.89975</ele>
        <time>2023-11-23T08:11:27.000Z</time>
      </trkpt>
      <trkpt lat="45.85828" lon="4.69484">
        <ele>206.88925</ele>
        <time>2023-11-23T08:11:28.000Z</time>
      </trkpt>
      <trkpt lat="45.85827" lon="4.69475">
        <ele>206.73946</ele>
        <time>2023-11-23T08:11:29.000Z</time>
      </trkpt>
      <trkpt lat="45.85826" lon="4.69467">
        <ele>206.58362</ele>
        <time>2023-11-23T08:11:30.000Z</time>
      </trkpt>
      <trkpt lat="45.85824" lon="4.69459">
        <ele>206.50333</ele>
        <time>2023-11-23T08:11:31.000Z</time>
      </trkpt>
      <trkpt lat="45.85822" lon="4.69449">
        <ele>206.57182</ele>
        <time>2023-11-23T08:11:32.000Z</time>
      </trkpt>
      <trkpt lat="45.85822" lon="4.69443">
        <ele>206.77388</ele>
        <time>2023-11-23T08:11:33.000Z</time>
      </trkpt>
      <trkpt lat="45.85824" lon="4.69437">
        <ele>206.73819</ele>
        <time>2023-11-23T08:11:34.000Z</time>
      </trkpt>
      <trkpt lat="45.85824" lon="4.6943">
        <ele>206.74692</ele>
        <time>2023-11-23T08:11:35.000Z</time>
      </trkpt>
      <trkpt lat="45.85826" lon="4.69422">
        <ele>206.70914</ele>
        <time>2023-11-23T08:11:36.000Z</time>
      </trkpt>
      <trkpt lat="45.85831" lon="4.69417">
        <ele>206.6008</ele>
        <time>2023-11-23T08:11:37.000Z</time>
      </trkpt>
      <trkpt lat="45.85834" lon="4.69414">
        <ele>206.44894</ele>
        <time>2023-11-23T08:11:38.000Z</time>
      </trkpt>
      <trkpt lat="45.85837" lon="4.69406">
        <ele>206.33585</ele>
        <time>2023-11-23T08:11:39.000Z</time>
      </trkpt>
      <trkpt lat="45.8584" lon="4.694">
        <ele>206.24712</ele>
        <time>2023-11-23T08:11:40.000Z</time>
      </trkpt>
      <trkpt lat="45.85843" lon="4.69395">
        <ele>206.02873</ele>
        <time>2023-11-23T08:11:41.000Z</time>
      </trkpt>
      <trkpt lat="45.85846" lon="4.69388">
        <ele>205.86455</ele>
        <time>2023-11-23T08:11:42.000Z</time>
      </trkpt>
      <trkpt lat="45.85849" lon="4.69383">
        <ele>205.71065</ele>
        <time>2023-11-23T08:11:43.000Z</time>
      </trkpt>
      <trkpt lat="45.8585" lon="4.69379">
        <ele>205.48032</ele>
        <time>2023-11-23T08:11:44.000Z</time>
      </trkpt>
      <trkpt lat="45.85851" lon="4.69374">
        <ele>205.22437</ele>
        <time>2023-11-23T08:11:45.000Z</time>
      </trkpt>
      <trkpt lat="45.85852" lon="4.69368">
        <ele>204.99023</ele>
        <time>2023-11-23T08:11:46.000Z</time>
      </trkpt>
      <trkpt lat="45.85851" lon="4.6936">
        <ele>204.72739</ele>
        <time>2023-11-23T08:11:47.000Z</time>
      </trkpt>
      <trkpt lat="45.8585" lon="4.69355">
        <ele>204.50539</ele>
        <time>2023-11-23T08:11:48.000Z</time>
      </trkpt>
      <trkpt lat="45.85848" lon="4.69349">
        <ele>204.40202</ele>
        <time>2023-11-23T08:11:49.000Z</time>
      </trkpt>
      <trkpt lat="45.85847" lon="4.69343">
        <ele>204.34543</ele>
        <time>2023-11-23T08:11:50.000Z</time>
      </trkpt>
      <trkpt lat="45.85845" lon="4.69336">
        <ele>204.19167</ele>
        <time>2023-11-23T08:11:51.000Z</time>
      </trkpt>
      <trkpt lat="45.85844" lon="4.6933">
        <ele>204.07045</ele>
        <time>2023-11-23T08:11:52.000Z</time>
      </trkpt>
      <trkpt lat="45.85841" lon="4.69324">
        <ele>203.89874</ele>
        <time>2023-11-23T08:11:53.000Z</time>
      </trkpt>
      <trkpt lat="45.85838" lon="4.69316">
        <ele>203.76289</ele>
        <time>2023-11-23T08:11:54.000Z</time>
      </trkpt>
      <trkpt lat="45.85835" lon="4.69308">
        <ele>203.61893</ele>
        <time>2023-11-23T08:11:55.000Z</time>
      </trkpt>
      <trkpt lat="45.85833" lon="4.693">
        <ele>203.50948</ele>
        <time>2023-11-23T08:11:56.000Z</time>
      </trkpt>
      <trkpt lat="45.85833" lon="4.69295">
        <ele>203.5488</ele>
        <time>2023-11-23T08:11:57.000Z</time>
      </trkpt>
      <trkpt lat="45.85833" lon="4.69289">
        <ele>203.67691</ele>
        <time>2023-11-23T08:11:58.000Z</time>
      </trkpt>
      <trkpt lat="45.85831" lon="4.69283">
        <ele>203.74258</ele>
        <time>2023-11-23T08:11:59.000Z</time>
      </trkpt>
      <trkpt lat="45.85831" lon="4.69275">
        <ele>203.80264</ele>
        <time>2023-11-23T08:12:00.000Z</time>
      </trkpt>
      <trkpt lat="45.85831" lon="4.69266">
        <ele>204.65616</ele>
        <time>2023-11-23T08:12:01.000Z</time>
      </trkpt>
      <trkpt lat="45.85832" lon="4.69261">
        <ele>205.42709</ele>
        <time>2023-11-23T08:12:02.000Z</time>
      </trkpt>
      <trkpt lat="45.85834" lon="4.69255">
        <ele>206.13376</ele>
        <time>2023-11-23T08:12:03.000Z</time>
      </trkpt>
      <trkpt lat="45.85835" lon="4.69247">
        <ele>207.11746</ele>
        <time>2023-11-23T08:12:04.000Z</time>
      </trkpt>
      <trkpt lat="45.85837" lon="4.6924">
        <ele>208.14822</ele>
        <time>2023-11-23T08:12:05.000Z</time>
      </trkpt>
      <trkpt lat="45.85837" lon="4.69234">
        <ele>208.75764</ele>
        <time>2023-11-23T08:12:06.000Z</time>
      </trkpt>
      <trkpt lat="45.85839" lon="4.69227">
        <ele>209.46692</ele>
        <time>2023-11-23T08:12:07.000Z</time>
      </trkpt>
      <trkpt lat="45.8584" lon="4.6922">
        <ele>210.15634</ele>
        <time>2023-11-23T08:12:08.000Z</time>
      </trkpt>
      <trkpt lat="45.85841" lon="4.69213">
        <ele>210.94931</ele>
        <time>2023-11-23T08:12:09.000Z</time>
      </trkpt>
      <trkpt lat="45.85843" lon="4.69206">
        <ele>211.6907</ele>
        <time>2023-11-23T08:12:10.000Z</time>
      </trkpt>
      <trkpt lat="45.85844" lon="4.69198">
        <ele>212.43376</ele>
        <time>2023-11-23T08:12:11.000Z</time>
      </trkpt>
      <trkpt lat="45.85845" lon="4.69189">
        <ele>213.047</ele>
        <time>2023-11-23T08:12:12.000Z</time>
      </trkpt>
      <trkpt lat="45.85846" lon="4.69185">
        <ele>213.63701</ele>
        <time>2023-11-23T08:12:13.000Z</time>
      </trkpt>
      <trkpt lat="45.85846" lon="4.69177">
        <ele>214.55307</ele>
        <time>2023-11-23T08:12:14.000Z</time>
      </trkpt>
      <trkpt lat="45.8585" lon="4.6917">
        <ele>215.50349</ele>
        <time>2023-11-23T08:12:15.000Z</time>
      </trkpt>
      <trkpt lat="45.85851" lon="4.69162">
        <ele>216.45398</ele>
        <time>2023-11-23T08:12:16.000Z</time>
      </trkpt>
      <trkpt lat="45.85851" lon="4.69154">
        <ele>217.3226</ele>
        <time>2023-11-23T08:12:17.000Z</time>
      </trkpt>
      <trkpt lat="45.85851" lon="4.69147">
        <ele>218.21265</ele>
        <time>2023-11-23T08:12:18.000Z</time>
      </trkpt>
      <trkpt lat="45.85852" lon="4.6914">
        <ele>219.14722</ele>
        <time>2023-11-23T08:12:19.000Z</time>
      </trkpt>
      <trkpt lat="45.85855" lon="4.69132">
        <ele>220.13094</ele>
        <time>2023-11-23T08:12:20.000Z</time>
      </trkpt>
      <trkpt lat="45.85856" lon="4.69124">
        <ele>220.04105</ele>
        <time>2023-11-23T08:12:21.000Z</time>
      </trkpt>
      <trkpt lat="45.85858" lon="4.69116">
        <ele>219.90034</ele>
        <time>2023-11-23T08:12:22.000Z</time>
      </trkpt>
      <trkpt lat="45.85858" lon="4.69109">
        <ele>219.76277</ele>
        <time>2023-11-23T08:12:23.000Z</time>
      </trkpt>
      <trkpt lat="45.85859" lon="4.69102">
        <ele>219.48929</ele>
        <time>2023-11-23T08:12:24.000Z</time>
      </trkpt>
      <trkpt lat="45.8586" lon="4.69094">
        <ele>219.13762</ele>
        <time>2023-11-23T08:12:25.000Z</time>
      </trkpt>
      <trkpt lat="45.85859" lon="4.69087">
        <ele>219.1438</ele>
        <time>2023-11-23T08:12:26.000Z</time>
      </trkpt>
      <trkpt lat="45.8586" lon="4.69078">
        <ele>219.007</ele>
        <time>2023-11-23T08:12:27.000Z</time>
      </trkpt>
      <trkpt lat="45.8586" lon="4.69071">
        <ele>218.8624</ele>
        <time>2023-11-23T08:12:28.000Z</time>
      </trkpt>
      <trkpt lat="45.85862" lon="4.69063">
        <ele>218.56975</ele>
        <time>2023-11-23T08:12:29.000Z</time>
      </trkpt>
      <trkpt lat="45.85864" lon="4.69058">
        <ele>218.24483</ele>
        <time>2023-11-23T08:12:30.000Z</time>
      </trkpt>
      <trkpt lat="45.85865" lon="4.69053">
        <ele>217.88791</ele>
        <time>2023-11-23T08:12:31.000Z</time>
      </trkpt>
      <trkpt lat="45.85867" lon="4.69048">
        <ele>217.59152</ele>
        <time>2023-11-23T08:12:32.000Z</time>
      </trkpt>
      <trkpt lat="45.85868" lon="4.69043">
        <ele>217.49751</ele>
        <time>2023-11-23T08:12:33.000Z</time>
      </trkpt>
      <trkpt lat="45.85869" lon="4.69039">
        <ele>217.21245</ele>
        <time>2023-11-23T08:12:34.000Z</time>
      </trkpt>
      <trkpt lat="45.8587" lon="4.69034">
        <ele>216.83789</ele>
        <time>2023-11-23T08:12:35.000Z</time>
      </trkpt>
      <trkpt lat="45.85871" lon="4.6903">
        <ele>216.47635</ele>
        <time>2023-11-23T08:12:36.000Z</time>
      </trkpt>
      <trkpt lat="45.8587" lon="4.69026">
        <ele>216.10339</ele>
        <time>2023-11-23T08:12:37.000Z</time>
      </trkpt>
      <trkpt lat="45.85869" lon="4.69022">
        <ele>215.69121</ele>
        <time>2023-11-23T08:12:38.000Z</time>
      </trkpt>
      <trkpt lat="45.85869" lon="4.69018">
        <ele>215.27742</ele>
        <time>2023-11-23T08:12:39.000Z</time>
      </trkpt>
      <trkpt lat="45.85867" lon="4.69013">
        <ele>214.80704</ele>
        <time>2023-11-23T08:12:40.000Z</time>
      </trkpt>
      <trkpt lat="45.85865" lon="4.69007">
        <ele>214.65181</ele>
        <time>2023-11-23T08:12:41.000Z</time>
      </trkpt>
      <trkpt lat="45.85864" lon="4.69001">
        <ele>214.5955</ele>
        <time>2023-11-23T08:12:42.000Z</time>
      </trkpt>
      <trkpt lat="45.85862" lon="4.68995">
        <ele>214.55368</ele>
        <time>2023-11-23T08:12:43.000Z</time>
      </trkpt>
      <trkpt lat="45.85861" lon="4.6899">
        <ele>214.2037</ele>
        <time>2023-11-23T08:12:44.000Z</time>
      </trkpt>
      <trkpt lat="45.8586" lon="4.68984">
        <ele>213.98503</ele>
        <time>2023-11-23T08:12:45.000Z</time>
      </trkpt>
      <trkpt lat="45.8586" lon="4.68978">
        <ele>213.80437</ele>
        <time>2023-11-23T08:12:46.000Z</time>
      </trkpt>
      <trkpt lat="45.8586" lon="4.68971">
        <ele>213.71082</ele>
        <time>2023-11-23T08:12:47.000Z</time>
      </trkpt>
      <trkpt lat="45.85859" lon="4.68965">
        <ele>213.5894</ele>
        <time>2023-11-23T08:12:48.000Z</time>
      </trkpt>
      <trkpt lat="45.85859" lon="4.68959">
        <ele>213.52849</ele>
        <time>2023-11-23T08:12:49.000Z</time>
      </trkpt>
      <trkpt lat="45.85859" lon="4.68953">
        <ele>213.46599</ele>
        <time>2023-11-23T08:12:50.000Z</time>
      </trkpt>
      <trkpt lat="45.85859" lon="4.68947">
        <ele>213.44026</ele>
        <time>2023-11-23T08:12:51.000Z</time>
      </trkpt>
      <trkpt lat="45.85859" lon="4.6894">
        <ele>213.38928</ele>
        <time>2023-11-23T08:12:52.000Z</time>
      </trkpt>
      <trkpt lat="45.85859" lon="4.68934">
        <ele>213.10477</ele>
        <time>2023-11-23T08:12:53.000Z</time>
      </trkpt>
      <trkpt lat="45.85859" lon="4.68928">
        <ele>212.811</ele>
        <time>2023-11-23T08:12:54.000Z</time>
      </trkpt>
      <trkpt lat="45.85861" lon="4.68922">
        <ele>212.6425</ele>
        <time>2023-11-23T08:12:55.000Z</time>
      </trkpt>
      <trkpt lat="45.85862" lon="4.68914">
        <ele>212.45625</ele>
        <time>2023-11-23T08:12:56.000Z</time>
      </trkpt>
      <trkpt lat="45.85862" lon="4.68907">
        <ele>212.32834</ele>
        <time>2023-11-23T08:12:57.000Z</time>
      </trkpt>
      <trkpt lat="45.85863" lon="4.68899">
        <ele>212.22733</ele>
        <time>2023-11-23T08:12:58.000Z</time>
      </trkpt>
      <trkpt lat="45.85863" lon="4.68892">
        <ele>212.11743</ele>
        <time>2023-11-23T08:12:59.000Z</time>
      </trkpt>
      <trkpt lat="45.85863" lon="4.68885">
        <ele>212.16342</ele>
        <time>2023-11-23T08:13:00.000Z</time>
      </trkpt>
      <trkpt lat="45.85864" lon="4.6888">
        <ele>211.92998</ele>
        <time>2023-11-23T08:13:01.000Z</time>
      </trkpt>
      <trkpt lat="45.85864" lon="4.68873">
        <ele>211.61844</ele>
        <time>2023-11-23T08:13:02.000Z</time>
      </trkpt>
      <trkpt lat="45.85863" lon="4.68866">
        <ele>211.30083</ele>
        <time>2023-11-23T08:13:03.000Z</time>
      </trkpt>
      <trkpt lat="45.85864" lon="4.6886">
        <ele>211.32385</ele>
        <time>2023-11-23T08:13:04.000Z</time>
      </trkpt>
      <trkpt lat="45.85866" lon="4.68851">
        <ele>211.22786</ele>
        <time>2023-11-23T08:13:05.000Z</time>
      </trkpt>
      <trkpt lat="45.85866" lon="4.68845">
        <ele>211.11104</ele>
        <time>2023-11-23T08:13:06.000Z</time>
      </trkpt>
      <trkpt lat="45.85866" lon="4.68838">
        <ele>211.16826</ele>
        <time>2023-11-23T08:13:07.000Z</time>
      </trkpt>
      <trkpt lat="45.85867" lon="4.68832">
        <ele>211.20134</ele>
        <time>2023-11-23T08:13:08.000Z</time>
      </trkpt>
      <trkpt lat="45.85867" lon="4.68825">
        <ele>211.23128</ele>
        <time>2023-11-23T08:13:09.000Z</time>
      </trkpt>
      <trkpt lat="45.85868" lon="4.68819">
        <ele>211.42607</ele>
        <time>2023-11-23T08:13:10.000Z</time>
      </trkpt>
      <trkpt lat="45.85869" lon="4.68813">
        <ele>211.29045</ele>
        <time>2023-11-23T08:13:11.000Z</time>
      </trkpt>
      <trkpt lat="45.8587" lon="4.68808">
        <ele>211.20621</ele>
        <time>2023-11-23T08:13:12.000Z</time>
      </trkpt>
      <trkpt lat="45.85871" lon="4.68802">
        <ele>211.13692</ele>
        <time>2023-11-23T08:13:13.000Z</time>
      </trkpt>
      <trkpt lat="45.85872" lon="4.68798">
        <ele>211.07808</ele>
        <time>2023-11-23T08:13:14.000Z</time>
      </trkpt>
      <trkpt lat="45.85872" lon="4.68793">
        <ele>210.88945</ele>
        <time>2023-11-23T08:13:15.000Z</time>
      </trkpt>
      <trkpt lat="45.85874" lon="4.68788">
        <ele>210.70657</ele>
        <time>2023-11-23T08:13:16.000Z</time>
      </trkpt>
      <trkpt lat="45.85875" lon="4.68785">
        <ele>210.57817</ele>
        <time>2023-11-23T08:13:17.000Z</time>
      </trkpt>
      <trkpt lat="45.85874" lon="4.6878">
        <ele>210.40805</ele>
        <time>2023-11-23T08:13:18.000Z</time>
      </trkpt>
      <trkpt lat="45.85875" lon="4.68777">
        <ele>210.27328</ele>
        <time>2023-11-23T08:13:19.000Z</time>
      </trkpt>
      <trkpt lat="45.85876" lon="4.68775">
        <ele>210.01938</ele>
        <time>2023-11-23T08:13:20.000Z</time>
      </trkpt>
      <trkpt lat="45.85877" lon="4.68772">
        <ele>210.27017</ele>
        <time>2023-11-23T08:13:21.000Z</time>
      </trkpt>
      <trkpt lat="45.85876" lon="4.68767">
        <ele>210.51855</ele>
        <time>2023-11-23T08:13:23.000Z</time>
      </trkpt>
      <trkpt lat="45.85876" lon="4.68763">
        <ele>210.80098</ele>
        <time>2023-11-23T08:13:25.000Z</time>
      </trkpt>
      <trkpt lat="45.85876" lon="4.6876">
        <ele>211.19478</ele>
        <time>2023-11-23T08:13:26.000Z</time>
      </trkpt>
      <trkpt lat="45.85877" lon="4.68757">
        <ele>211.24878</ele>
        <time>2023-11-23T08:13:27.000Z</time>
      </trkpt>
      <trkpt lat="45.8588" lon="4.68756">
        <ele>211.39822</ele>
        <time>2023-11-23T08:13:29.000Z</time>
      </trkpt>
      <trkpt lat="45.85881" lon="4.68758">
        <ele>211.37505</ele>
        <time>2023-11-23T08:13:30.000Z</time>
      </trkpt>
      <trkpt lat="45.85881" lon="4.68761">
        <ele>211.37296</ele>
        <time>2023-11-23T08:13:31.000Z</time>
      </trkpt>
      <trkpt lat="45.8588" lon="4.68764">
        <ele>211.35812</ele>
        <time>2023-11-23T08:13:32.000Z</time>
      </trkpt>
      <trkpt lat="45.85879" lon="4.68767">
        <ele>211.20801</ele>
        <time>2023-11-23T08:13:33.000Z</time>
      </trkpt>
      <trkpt lat="45.85877" lon="4.6877">
        <ele>211.38321</ele>
        <time>2023-11-23T08:13:34.000Z</time>
      </trkpt>
      <trkpt lat="45.85876" lon="4.68773">
        <ele>211.52327</ele>
        <time>2023-11-23T08:13:35.000Z</time>
      </trkpt>
      <trkpt lat="45.85875" lon="4.68777">
        <ele>211.66972</ele>
        <time>2023-11-23T08:13:37.000Z</time>
      </trkpt>
      <trkpt lat="45.85872" lon="4.68779">
        <ele>211.80417</ele>
        <time>2023-11-23T08:13:39.000Z</time>
      </trkpt>
      <trkpt lat="45.85871" lon="4.68778">
        <ele>211.93213</ele>
        <time>2023-11-23T08:13:40.000Z</time>
      </trkpt>
      <trkpt lat="45.85869" lon="4.68777">
        <ele>212.0649</ele>
        <time>2023-11-23T08:13:41.000Z</time>
      </trkpt>
      <trkpt lat="45.85865" lon="4.68776">
        <ele>212.20267</ele>
        <time>2023-11-23T08:13:43.000Z</time>
      </trkpt>
      <trkpt lat="45.85863" lon="4.68775">
        <ele>212.38071</ele>
        <time>2023-11-23T08:13:44.000Z</time>
      </trkpt>
      <trkpt lat="45.8586" lon="4.68774">
        <ele>212.54688</ele>
        <time>2023-11-23T08:13:45.000Z</time>
      </trkpt>
      <trkpt lat="45.85858" lon="4.68773">
        <ele>212.71928</ele>
        <time>2023-11-23T08:13:46.000Z</time>
      </trkpt>
      <trkpt lat="45.85855" lon="4.68772">
        <ele>212.62784</ele>
        <time>2023-11-23T08:13:47.000Z</time>
      </trkpt>
      <trkpt lat="45.85852" lon="4.68771">
        <ele>212.55058</ele>
        <time>2023-11-23T08:13:48.000Z</time>
      </trkpt>
      <trkpt lat="45.8585" lon="4.6877">
        <ele>212.33463</ele>
        <time>2023-11-23T08:13:49.000Z</time>
      </trkpt>
      <trkpt lat="45.85848" lon="4.68769">
        <ele>212.06563</ele>
        <time>2023-11-23T08:13:50.000Z</time>
      </trkpt>
      <trkpt lat="45.85846" lon="4.68768">
        <ele>212.17546</ele>
        <time>2023-11-23T08:13:51.000Z</time>
      </trkpt>
      <trkpt lat="45.85844" lon="4.68765">
        <ele>212.38876</ele>
        <time>2023-11-23T08:13:53.000Z</time>
      </trkpt>
      <trkpt lat="45.85843" lon="4.68762">
        <ele>212.77295</ele>
        <time>2023-11-23T08:13:54.000Z</time>
      </trkpt>
      <trkpt lat="45.85842" lon="4.68759">
        <ele>213.25403</ele>
        <time>2023-11-23T08:13:55.000Z</time>
      </trkpt>
      <trkpt lat="45.85841" lon="4.68755">
        <ele>213.4084</ele>
        <time>2023-11-23T08:13:56.000Z</time>
      </trkpt>
      <trkpt lat="45.8584" lon="4.68752">
        <ele>213.58151</ele>
        <time>2023-11-23T08:13:57.000Z</time>
      </trkpt>
      <trkpt lat="45.85838" lon="4.68748">
        <ele>213.74434</ele>
        <time>2023-11-23T08:13:58.000Z</time>
      </trkpt>
      <trkpt lat="45.85837" lon="4.68744">
        <ele>213.86674</ele>
        <time>2023-11-23T08:13:59.000Z</time>
      </trkpt>
      <trkpt lat="45.85835" lon="4.68739">
        <ele>213.903</ele>
        <time>2023-11-23T08:14:00.000Z</time>
      </trkpt>
      <trkpt lat="45.85834" lon="4.68734">
        <ele>213.84744</ele>
        <time>2023-11-23T08:14:01.000Z</time>
      </trkpt>
      <trkpt lat="45.85833" lon="4.68729">
        <ele>213.77206</ele>
        <time>2023-11-23T08:14:02.000Z</time>
      </trkpt>
      <trkpt lat="45.85833" lon="4.68724">
        <ele>213.6888</ele>
        <time>2023-11-23T08:14:03.000Z</time>
      </trkpt>
      <trkpt lat="45.85833" lon="4.68719">
        <ele>213.53671</ele>
        <time>2023-11-23T08:14:04.000Z</time>
      </trkpt>
      <trkpt lat="45.85832" lon="4.68714">
        <ele>213.33923</ele>
        <time>2023-11-23T08:14:05.000Z</time>
      </trkpt>
      <trkpt lat="45.8583" lon="4.68711">
        <ele>213.15707</ele>
        <time>2023-11-23T08:14:06.000Z</time>
      </trkpt>
      <trkpt lat="45.85828" lon="4.6871">
        <ele>212.97961</ele>
        <time>2023-11-23T08:14:07.000Z</time>
      </trkpt>
      <trkpt lat="45.85825" lon="4.68709">
        <ele>212.9185</ele>
        <time>2023-11-23T08:14:09.000Z</time>
      </trkpt>
      <trkpt lat="45.85822" lon="4.68708">
        <ele>212.83936</ele>
        <time>2023-11-23T08:14:11.000Z</time>
      </trkpt>
      <trkpt lat="45.8582" lon="4.68705">
        <ele>212.85957</ele>
        <time>2023-11-23T08:14:12.000Z</time>
      </trkpt>
      <trkpt lat="45.85819" lon="4.68701">
        <ele>212.84036</ele>
        <time>2023-11-23T08:14:13.000Z</time>
      </trkpt>
      <trkpt lat="45.85818" lon="4.68695">
        <ele>212.78323</ele>
        <time>2023-11-23T08:14:14.000Z</time>
      </trkpt>
      <trkpt lat="45.85817" lon="4.6869">
        <ele>212.55827</ele>
        <time>2023-11-23T08:14:15.000Z</time>
      </trkpt>
      <trkpt lat="45.85817" lon="4.68684">
        <ele>212.17603</ele>
        <time>2023-11-23T08:14:16.000Z</time>
      </trkpt>
      <trkpt lat="45.85818" lon="4.68678">
        <ele>211.71945</ele>
        <time>2023-11-23T08:14:17.000Z</time>
      </trkpt>
      <trkpt lat="45.85818" lon="4.68673">
        <ele>211.75113</ele>
        <time>2023-11-23T08:14:18.000Z</time>
      </trkpt>
      <trkpt lat="45.85819" lon="4.68668">
        <ele>211.80521</ele>
        <time>2023-11-23T08:14:19.000Z</time>
      </trkpt>
      <trkpt lat="45.85819" lon="4.68663">
        <ele>211.92957</ele>
        <time>2023-11-23T08:14:20.000Z</time>
      </trkpt>
      <trkpt lat="45.8582" lon="4.68658">
        <ele>211.76584</ele>
        <time>2023-11-23T08:14:21.000Z</time>
      </trkpt>
      <trkpt lat="45.8582" lon="4.68652">
        <ele>211.70755</ele>
        <time>2023-11-23T08:14:22.000Z</time>
      </trkpt>
      <trkpt lat="45.8582" lon="4.68647">
        <ele>211.72717</ele>
        <time>2023-11-23T08:14:23.000Z</time>
      </trkpt>
      <trkpt lat="45.8582" lon="4.68642">
        <ele>211.77853</ele>
        <time>2023-11-23T08:14:24.000Z</time>
      </trkpt>
      <trkpt lat="45.85819" lon="4.68635">
        <ele>211.80148</ele>
        <time>2023-11-23T08:14:25.000Z</time>
      </trkpt>
      <trkpt lat="45.85818" lon="4.68629">
        <ele>211.83511</ele>
        <time>2023-11-23T08:14:26.000Z</time>
      </trkpt>
      <trkpt lat="45.85818" lon="4.68623">
        <ele>211.88181</ele>
        <time>2023-11-23T08:14:27.000Z</time>
      </trkpt>
      <trkpt lat="45.85817" lon="4.68617">
        <ele>211.90442</ele>
        <time>2023-11-23T08:14:28.000Z</time>
      </trkpt>
      <trkpt lat="45.85816" lon="4.68611">
        <ele>211.91304</ele>
        <time>2023-11-23T08:14:29.000Z</time>
      </trkpt>
      <trkpt lat="45.85815" lon="4.68605">
        <ele>211.88652</ele>
        <time>2023-11-23T08:14:30.000Z</time>
      </trkpt>
      <trkpt lat="45.8581" lon="4.68599">
        <ele>211.84402</ele>
        <time>2023-11-23T08:14:31.000Z</time>
      </trkpt>
      <trkpt lat="45.8581" lon="4.68594">
        <ele>211.79959</ele>
        <time>2023-11-23T08:14:32.000Z</time>
      </trkpt>
      <trkpt lat="45.85808" lon="4.68588">
        <ele>211.74161</ele>
        <time>2023-11-23T08:14:33.000Z</time>
      </trkpt>
      <trkpt lat="45.85807" lon="4.68582">
        <ele>211.83818</ele>
        <time>2023-11-23T08:14:34.000Z</time>
      </trkpt>
      <trkpt lat="45.85806" lon="4.68575">
        <ele>211.91121</ele>
        <time>2023-11-23T08:14:35.000Z</time>
      </trkpt>
      <trkpt lat="45.85804" lon="4.68569">
        <ele>212.00545</ele>
        <time>2023-11-23T08:14:36.000Z</time>
      </trkpt>
      <trkpt lat="45.85803" lon="4.68564">
        <ele>212.08865</ele>
        <time>2023-11-23T08:14:37.000Z</time>
      </trkpt>
      <trkpt lat="45.858" lon="4.68558">
        <ele>212.0153</ele>
        <time>2023-11-23T08:14:38.000Z</time>
      </trkpt>
      <trkpt lat="45.85798" lon="4.68552">
        <ele>211.99702</ele>
        <time>2023-11-23T08:14:39.000Z</time>
      </trkpt>
      <trkpt lat="45.85796" lon="4.68546">
        <ele>211.93362</ele>
        <time>2023-11-23T08:14:40.000Z</time>
      </trkpt>
      <trkpt lat="45.85794" lon="4.6854">
        <ele>211.83432</ele>
        <time>2023-11-23T08:14:41.000Z</time>
      </trkpt>
      <trkpt lat="45.85792" lon="4.68535">
        <ele>211.78488</ele>
        <time>2023-11-23T08:14:42.000Z</time>
      </trkpt>
      <trkpt lat="45.85791" lon="4.6853">
        <ele>211.75142</ele>
        <time>2023-11-23T08:14:43.000Z</time>
      </trkpt>
      <trkpt lat="45.85789" lon="4.68524">
        <ele>211.71867</ele>
        <time>2023-11-23T08:14:44.000Z</time>
      </trkpt>
      <trkpt lat="45.85787" lon="4.68519">
        <ele>211.71475</ele>
        <time>2023-11-23T08:14:45.000Z</time>
      </trkpt>
      <trkpt lat="45.85786" lon="4.68515">
        <ele>211.7131</ele>
        <time>2023-11-23T08:14:46.000Z</time>
      </trkpt>
      <trkpt lat="45.85784" lon="4.68508">
        <ele>211.76379</ele>
        <time>2023-11-23T08:14:47.000Z</time>
      </trkpt>
      <trkpt lat="45.85783" lon="4.68502">
        <ele>211.80579</ele>
        <time>2023-11-23T08:14:48.000Z</time>
      </trkpt>
      <trkpt lat="45.85783" lon="4.68495">
        <ele>212.02669</ele>
        <time>2023-11-23T08:14:49.000Z</time>
      </trkpt>
      <trkpt lat="45.85782" lon="4.68488">
        <ele>212.3273</ele>
        <time>2023-11-23T08:14:50.000Z</time>
      </trkpt>
      <trkpt lat="45.8578" lon="4.68481">
        <ele>212.6208</ele>
        <time>2023-11-23T08:14:51.000Z</time>
      </trkpt>
      <trkpt lat="45.8578" lon="4.68474">
        <ele>212.60916</ele>
        <time>2023-11-23T08:14:52.000Z</time>
      </trkpt>
      <trkpt lat="45.85779" lon="4.68467">
        <ele>212.62016</ele>
        <time>2023-11-23T08:14:53.000Z</time>
      </trkpt>
      <trkpt lat="45.85776" lon="4.68461">
        <ele>212.51636</ele>
        <time>2023-11-23T08:14:54.000Z</time>
      </trkpt>
      <trkpt lat="45.85776" lon="4.68455">
        <ele>212.45308</ele>
        <time>2023-11-23T08:14:55.000Z</time>
      </trkpt>
      <trkpt lat="45.85774" lon="4.68449">
        <ele>212.37375</ele>
        <time>2023-11-23T08:14:56.000Z</time>
      </trkpt>
      <trkpt lat="45.85772" lon="4.68444">
        <ele>212.32849</ele>
        <time>2023-11-23T08:14:57.000Z</time>
      </trkpt>
      <trkpt lat="45.85771" lon="4.68437">
        <ele>212.25864</ele>
        <time>2023-11-23T08:14:58.000Z</time>
      </trkpt>
      <trkpt lat="45.85769" lon="4.68432">
        <ele>212.12692</ele>
        <time>2023-11-23T08:14:59.000Z</time>
      </trkpt>
      <trkpt lat="45.85767" lon="4.68426">
        <ele>212.0043</ele>
        <time>2023-11-23T08:15:00.000Z</time>
      </trkpt>
      <trkpt lat="45.85765" lon="4.6842">
        <ele>212.27815</ele>
        <time>2023-11-23T08:15:01.000Z</time>
      </trkpt>
      <trkpt lat="45.85764" lon="4.68414">
        <ele>212.63896</ele>
        <time>2023-11-23T08:15:02.000Z</time>
      </trkpt>
      <trkpt lat="45.85762" lon="4.68408">
        <ele>212.94885</ele>
        <time>2023-11-23T08:15:03.000Z</time>
      </trkpt>
      <trkpt lat="45.8576" lon="4.68404">
        <ele>213.24736</ele>
        <time>2023-11-23T08:15:04.000Z</time>
      </trkpt>
      <trkpt lat="45.85758" lon="4.68398">
        <ele>213.55486</ele>
        <time>2023-11-23T08:15:05.000Z</time>
      </trkpt>
      <trkpt lat="45.85756" lon="4.68393">
        <ele>213.98051</ele>
        <time>2023-11-23T08:15:06.000Z</time>
      </trkpt>
      <trkpt lat="45.85754" lon="4.68388">
        <ele>214.36288</ele>
        <time>2023-11-23T08:15:07.000Z</time>
      </trkpt>
      <trkpt lat="45.85752" lon="4.68383">
        <ele>214.79411</ele>
        <time>2023-11-23T08:15:08.000Z</time>
      </trkpt>
      <trkpt lat="45.8575" lon="4.68378">
        <ele>214.6665</ele>
        <time>2023-11-23T08:15:09.000Z</time>
      </trkpt>
      <trkpt lat="45.85748" lon="4.68373">
        <ele>214.51079</ele>
        <time>2023-11-23T08:15:10.000Z</time>
      </trkpt>
      <trkpt lat="45.85746" lon="4.68367">
        <ele>214.37024</ele>
        <time>2023-11-23T08:15:11.000Z</time>
      </trkpt>
      <trkpt lat="45.85744" lon="4.68362">
        <ele>214.55466</ele>
        <time>2023-11-23T08:15:12.000Z</time>
      </trkpt>
      <trkpt lat="45.85743" lon="4.68357">
        <ele>214.7039</ele>
        <time>2023-11-23T08:15:13.000Z</time>
      </trkpt>
      <trkpt lat="45.85741" lon="4.68352">
        <ele>214.7946</ele>
        <time>2023-11-23T08:15:14.000Z</time>
      </trkpt>
      <trkpt lat="45.85739" lon="4.68347">
        <ele>214.8461</ele>
        <time>2023-11-23T08:15:15.000Z</time>
      </trkpt>
      <trkpt lat="45.85737" lon="4.68341">
        <ele>214.89351</ele>
        <time>2023-11-23T08:15:16.000Z</time>
      </trkpt>
      <trkpt lat="45.85735" lon="4.68336">
        <ele>214.89481</ele>
        <time>2023-11-23T08:15:17.000Z</time>
      </trkpt>
      <trkpt lat="45.85733" lon="4.6833">
        <ele>214.90872</ele>
        <time>2023-11-23T08:15:18.000Z</time>
      </trkpt>
      <trkpt lat="45.85731" lon="4.68325">
        <ele>214.88541</ele>
        <time>2023-11-23T08:15:19.000Z</time>
      </trkpt>
      <trkpt lat="45.85729" lon="4.6832">
        <ele>214.84604</ele>
        <time>2023-11-23T08:15:20.000Z</time>
      </trkpt>
      <trkpt lat="45.85727" lon="4.68315">
        <ele>214.77812</ele>
        <time>2023-11-23T08:15:21.000Z</time>
      </trkpt>
      <trkpt lat="45.85724" lon="4.68311">
        <ele>214.55948</ele>
        <time>2023-11-23T08:15:22.000Z</time>
      </trkpt>
      <trkpt lat="45.85722" lon="4.68306">
        <ele>214.37729</ele>
        <time>2023-11-23T08:15:23.000Z</time>
      </trkpt>
      <trkpt lat="45.85719" lon="4.68302">
        <ele>214.20853</ele>
        <time>2023-11-23T08:15:24.000Z</time>
      </trkpt>
      <trkpt lat="45.85715" lon="4.68298">
        <ele>214.00589</ele>
        <time>2023-11-23T08:15:25.000Z</time>
      </trkpt>
      <trkpt lat="45.85712" lon="4.68294">
        <ele>213.6954</ele>
        <time>2023-11-23T08:15:26.000Z</time>
      </trkpt>
      <trkpt lat="45.85708" lon="4.68291">
        <ele>213.39995</ele>
        <time>2023-11-23T08:15:27.000Z</time>
      </trkpt>
      <trkpt lat="45.85705" lon="4.68287">
        <ele>213.08025</ele>
        <time>2023-11-23T08:15:28.000Z</time>
      </trkpt>
      <trkpt lat="45.85702" lon="4.68283">
        <ele>213.12566</ele>
        <time>2023-11-23T08:15:29.000Z</time>
      </trkpt>
      <trkpt lat="45.85699" lon="4.68279">
        <ele>213.08658</ele>
        <time>2023-11-23T08:15:30.000Z</time>
      </trkpt>
      <trkpt lat="45.85696" lon="4.68276">
        <ele>213.03731</ele>
        <time>2023-11-23T08:15:31.000Z</time>
      </trkpt>
      <trkpt lat="45.85692" lon="4.68272">
        <ele>212.99284</ele>
        <time>2023-11-23T08:15:32.000Z</time>
      </trkpt>
      <trkpt lat="45.85689" lon="4.68269">
        <ele>213.0031</ele>
        <time>2023-11-23T08:15:33.000Z</time>
      </trkpt>
      <trkpt lat="45.85686" lon="4.68265">
        <ele>213.03598</ele>
        <time>2023-11-23T08:15:34.000Z</time>
      </trkpt>
      <trkpt lat="45.85683" lon="4.68261">
        <ele>213.06477</ele>
        <time>2023-11-23T08:15:35.000Z</time>
      </trkpt>
      <trkpt lat="45.8568" lon="4.68257">
        <ele>213.07903</ele>
        <time>2023-11-23T08:15:36.000Z</time>
      </trkpt>
      <trkpt lat="45.85677" lon="4.68253">
        <ele>213.14702</ele>
        <time>2023-11-23T08:15:37.000Z</time>
      </trkpt>
      <trkpt lat="45.85674" lon="4.68249">
        <ele>213.22636</ele>
        <time>2023-11-23T08:15:38.000Z</time>
      </trkpt>
      <trkpt lat="45.85671" lon="4.68245">
        <ele>213.30293</ele>
        <time>2023-11-23T08:15:39.000Z</time>
      </trkpt>
      <trkpt lat="45.85668" lon="4.68242">
        <ele>213.4156</ele>
        <time>2023-11-23T08:15:40.000Z</time>
      </trkpt>
      <trkpt lat="45.85664" lon="4.68238">
        <ele>213.50833</ele>
        <time>2023-11-23T08:15:41.000Z</time>
      </trkpt>
      <trkpt lat="45.85661" lon="4.68235">
        <ele>213.73198</ele>
        <time>2023-11-23T08:15:42.000Z</time>
      </trkpt>
      <trkpt lat="45.85657" lon="4.68232">
        <ele>213.96631</ele>
        <time>2023-11-23T08:15:43.000Z</time>
      </trkpt>
      <trkpt lat="45.85653" lon="4.68227">
        <ele>214.2876</ele>
        <time>2023-11-23T08:15:44.000Z</time>
      </trkpt>
      <trkpt lat="45.85651" lon="4.68223">
        <ele>214.6221</ele>
        <time>2023-11-23T08:15:45.000Z</time>
      </trkpt>
      <trkpt lat="45.85647" lon="4.68218">
        <ele>214.66154</ele>
        <time>2023-11-23T08:15:46.000Z</time>
      </trkpt>
      <trkpt lat="45.85644" lon="4.68214">
        <ele>214.7242</ele>
        <time>2023-11-23T08:15:47.000Z</time>
      </trkpt>
      <trkpt lat="45.85641" lon="4.68209">
        <ele>214.76949</ele>
        <time>2023-11-23T08:15:48.000Z</time>
      </trkpt>
      <trkpt lat="45.85638" lon="4.68205">
        <ele>214.81702</ele>
        <time>2023-11-23T08:15:49.000Z</time>
      </trkpt>
      <trkpt lat="45.85635" lon="4.68201">
        <ele>214.87204</ele>
        <time>2023-11-23T08:15:50.000Z</time>
      </trkpt>
      <trkpt lat="45.85633" lon="4.68197">
        <ele>214.95236</ele>
        <time>2023-11-23T08:15:51.000Z</time>
      </trkpt>
      <trkpt lat="45.8563" lon="4.68192">
        <ele>215.01176</ele>
        <time>2023-11-23T08:15:52.000Z</time>
      </trkpt>
      <trkpt lat="45.85627" lon="4.68188">
        <ele>215.01665</ele>
        <time>2023-11-23T08:15:53.000Z</time>
      </trkpt>
      <trkpt lat="45.85624" lon="4.68184">
        <ele>215.03374</ele>
        <time>2023-11-23T08:15:54.000Z</time>
      </trkpt>
      <trkpt lat="45.85621" lon="4.6818">
        <ele>215.03079</ele>
        <time>2023-11-23T08:15:55.000Z</time>
      </trkpt>
      <trkpt lat="45.85619" lon="4.68176">
        <ele>215.03549</ele>
        <time>2023-11-23T08:15:56.000Z</time>
      </trkpt>
      <trkpt lat="45.85616" lon="4.68172">
        <ele>214.99118</ele>
        <time>2023-11-23T08:15:57.000Z</time>
      </trkpt>
      <trkpt lat="45.85613" lon="4.68167">
        <ele>214.96175</ele>
        <time>2023-11-23T08:15:58.000Z</time>
      </trkpt>
      <trkpt lat="45.85611" lon="4.68162">
        <ele>214.90144</ele>
        <time>2023-11-23T08:15:59.000Z</time>
      </trkpt>
      <trkpt lat="45.85608" lon="4.68157">
        <ele>214.81306</ele>
        <time>2023-11-23T08:16:00.000Z</time>
      </trkpt>
      <trkpt lat="45.85605" lon="4.6815">
        <ele>214.69315</ele>
        <time>2023-11-23T08:16:01.000Z</time>
      </trkpt>
      <trkpt lat="45.85601" lon="4.68145">
        <ele>214.39351</ele>
        <time>2023-11-23T08:16:02.000Z</time>
      </trkpt>
      <trkpt lat="45.85599" lon="4.68142">
        <ele>214.10457</ele>
        <time>2023-11-23T08:16:03.000Z</time>
      </trkpt>
      <trkpt lat="45.85596" lon="4.68136">
        <ele>213.72104</ele>
        <time>2023-11-23T08:16:04.000Z</time>
      </trkpt>
      <trkpt lat="45.85593" lon="4.68133">
        <ele>213.36116</ele>
        <time>2023-11-23T08:16:05.000Z</time>
      </trkpt>
      <trkpt lat="45.8559" lon="4.68127">
        <ele>213.25578</ele>
        <time>2023-11-23T08:16:06.000Z</time>
      </trkpt>
      <trkpt lat="45.85589" lon="4.68123">
        <ele>213.17293</ele>
        <time>2023-11-23T08:16:07.000Z</time>
      </trkpt>
      <trkpt lat="45.85587" lon="4.68117">
        <ele>213.12056</ele>
        <time>2023-11-23T08:16:08.000Z</time>
      </trkpt>
      <trkpt lat="45.85584" lon="4.68113">
        <ele>213.18477</ele>
        <time>2023-11-23T08:16:09.000Z</time>
      </trkpt>
      <trkpt lat="45.85582" lon="4.68107">
        <ele>213.24809</ele>
        <time>2023-11-23T08:16:10.000Z</time>
      </trkpt>
      <trkpt lat="45.85579" lon="4.68102">
        <ele>213.23567</ele>
        <time>2023-11-23T08:16:11.000Z</time>
      </trkpt>
      <trkpt lat="45.85577" lon="4.68096">
        <ele>213.19722</ele>
        <time>2023-11-23T08:16:12.000Z</time>
      </trkpt>
      <trkpt lat="45.85575" lon="4.68092">
        <ele>213.2159</ele>
        <time>2023-11-23T08:16:13.000Z</time>
      </trkpt>
      <trkpt lat="45.85573" lon="4.68087">
        <ele>213.2299</ele>
        <time>2023-11-23T08:16:14.000Z</time>
      </trkpt>
      <trkpt lat="45.85571" lon="4.68082">
        <ele>213.23398</ele>
        <time>2023-11-23T08:16:15.000Z</time>
      </trkpt>
      <trkpt lat="45.85569" lon="4.68077">
        <ele>213.22519</ele>
        <time>2023-11-23T08:16:16.000Z</time>
      </trkpt>
      <trkpt lat="45.85567" lon="4.68072">
        <ele>213.43991</ele>
        <time>2023-11-23T08:16:17.000Z</time>
      </trkpt>
      <trkpt lat="45.85565" lon="4.68067">
        <ele>213.69376</ele>
        <time>2023-11-23T08:16:18.000Z</time>
      </trkpt>
      <trkpt lat="45.85564" lon="4.68062">
        <ele>214.04646</ele>
        <time>2023-11-23T08:16:19.000Z</time>
      </trkpt>
      <trkpt lat="45.85562" lon="4.68057">
        <ele>214.49393</ele>
        <time>2023-11-23T08:16:20.000Z</time>
      </trkpt>
      <trkpt lat="45.85561" lon="4.68052">
        <ele>214.62326</ele>
        <time>2023-11-23T08:16:21.000Z</time>
      </trkpt>
      <trkpt lat="45.85559" lon="4.68047">
        <ele>214.88896</ele>
        <time>2023-11-23T08:16:22.000Z</time>
      </trkpt>
      <trkpt lat="45.85557" lon="4.68043">
        <ele>215.04575</ele>
        <time>2023-11-23T08:16:23.000Z</time>
      </trkpt>
      <trkpt lat="45.85556" lon="4.68039">
        <ele>215.17026</ele>
        <time>2023-11-23T08:16:24.000Z</time>
      </trkpt>
      <trkpt lat="45.85554" lon="4.68034">
        <ele>215.35489</ele>
        <time>2023-11-23T08:16:25.000Z</time>
      </trkpt>
      <trkpt lat="45.85552" lon="4.6803">
        <ele>215.60201</ele>
        <time>2023-11-23T08:16:26.000Z</time>
      </trkpt>
      <trkpt lat="45.8555" lon="4.68025">
        <ele>215.84026</ele>
        <time>2023-11-23T08:16:27.000Z</time>
      </trkpt>
      <trkpt lat="45.85549" lon="4.6802">
        <ele>215.93355</ele>
        <time>2023-11-23T08:16:28.000Z</time>
      </trkpt>
      <trkpt lat="45.85547" lon="4.68015">
        <ele>215.90572</ele>
        <time>2023-11-23T08:16:29.000Z</time>
      </trkpt>
      <trkpt lat="45.85546" lon="4.68011">
        <ele>215.95157</ele>
        <time>2023-11-23T08:16:30.000Z</time>
      </trkpt>
      <trkpt lat="45.85544" lon="4.68006">
        <ele>216.03284</ele>
        <time>2023-11-23T08:16:31.000Z</time>
      </trkpt>
      <trkpt lat="45.85543" lon="4.68002">
        <ele>216.15128</ele>
        <time>2023-11-23T08:16:32.000Z</time>
      </trkpt>
      <trkpt lat="45.85543" lon="4.67997">
        <ele>216.30139</ele>
        <time>2023-11-23T08:16:33.000Z</time>
      </trkpt>
      <trkpt lat="45.85542" lon="4.67992">
        <ele>216.3886</ele>
        <time>2023-11-23T08:16:34.000Z</time>
      </trkpt>
      <trkpt lat="45.85541" lon="4.67988">
        <ele>216.50679</ele>
        <time>2023-11-23T08:16:35.000Z</time>
      </trkpt>
      <trkpt lat="45.85541" lon="4.67983">
        <ele>216.68668</ele>
        <time>2023-11-23T08:16:36.000Z</time>
      </trkpt>
      <trkpt lat="45.8554" lon="4.67979">
        <ele>216.61557</ele>
        <time>2023-11-23T08:16:37.000Z</time>
      </trkpt>
      <trkpt lat="45.8554" lon="4.67975">
        <ele>216.44478</ele>
        <time>2023-11-23T08:16:38.000Z</time>
      </trkpt>
      <trkpt lat="45.85539" lon="4.67971">
        <ele>216.20969</ele>
        <time>2023-11-23T08:16:39.000Z</time>
      </trkpt>
      <trkpt lat="45.85538" lon="4.67967">
        <ele>215.86465</ele>
        <time>2023-11-23T08:16:40.000Z</time>
      </trkpt>
      <trkpt lat="45.85537" lon="4.67964">
        <ele>215.89851</ele>
        <time>2023-11-23T08:16:41.000Z</time>
      </trkpt>
      <trkpt lat="45.85536" lon="4.67961">
        <ele>215.8168</ele>
        <time>2023-11-23T08:16:42.000Z</time>
      </trkpt>
      <trkpt lat="45.85534" lon="4.67959">
        <ele>215.79642</ele>
        <time>2023-11-23T08:16:43.000Z</time>
      </trkpt>
      <trkpt lat="45.85533" lon="4.67955">
        <ele>215.82072</ele>
        <time>2023-11-23T08:16:44.000Z</time>
      </trkpt>
      <trkpt lat="45.85532" lon="4.67951">
        <ele>215.75583</ele>
        <time>2023-11-23T08:16:45.000Z</time>
      </trkpt>
      <trkpt lat="45.8553" lon="4.67947">
        <ele>215.70419</ele>
        <time>2023-11-23T08:16:46.000Z</time>
      </trkpt>
      <trkpt lat="45.85529" lon="4.67942">
        <ele>215.62671</ele>
        <time>2023-11-23T08:16:47.000Z</time>
      </trkpt>
      <trkpt lat="45.85527" lon="4.67937">
        <ele>215.70596</ele>
        <time>2023-11-23T08:16:48.000Z</time>
      </trkpt>
      <trkpt lat="45.85524" lon="4.67931">
        <ele>215.80742</ele>
        <time>2023-11-23T08:16:49.000Z</time>
      </trkpt>
      <trkpt lat="45.85522" lon="4.67925">
        <ele>215.80038</ele>
        <time>2023-11-23T08:16:50.000Z</time>
      </trkpt>
      <trkpt lat="45.85521" lon="4.6792">
        <ele>215.79697</ele>
        <time>2023-11-23T08:16:51.000Z</time>
      </trkpt>
      <trkpt lat="45.85519" lon="4.67915">
        <ele>215.78784</ele>
        <time>2023-11-23T08:16:52.000Z</time>
      </trkpt>
      <trkpt lat="45.85517" lon="4.67908">
        <ele>215.66154</ele>
        <time>2023-11-23T08:16:53.000Z</time>
      </trkpt>
      <trkpt lat="45.85516" lon="4.67901">
        <ele>215.58383</ele>
        <time>2023-11-23T08:16:54.000Z</time>
      </trkpt>
      <trkpt lat="45.85513" lon="4.67893">
        <ele>215.48596</ele>
        <time>2023-11-23T08:16:55.000Z</time>
      </trkpt>
      <trkpt lat="45.85512" lon="4.67886">
        <ele>215.37325</ele>
        <time>2023-11-23T08:16:56.000Z</time>
      </trkpt>
      <trkpt lat="45.8551" lon="4.6788">
        <ele>215.32214</ele>
        <time>2023-11-23T08:16:57.000Z</time>
      </trkpt>
      <trkpt lat="45.85509" lon="4.67873">
        <ele>215.31711</ele>
        <time>2023-11-23T08:16:58.000Z</time>
      </trkpt>
      <trkpt lat="45.85508" lon="4.67865">
        <ele>215.33426</ele>
        <time>2023-11-23T08:16:59.000Z</time>
      </trkpt>
      <trkpt lat="45.85506" lon="4.67859">
        <ele>215.34476</ele>
        <time>2023-11-23T08:17:00.000Z</time>
      </trkpt>
      <trkpt lat="45.85505" lon="4.67852">
        <ele>215.59175</ele>
        <time>2023-11-23T08:17:01.000Z</time>
      </trkpt>
      <trkpt lat="45.85503" lon="4.67845">
        <ele>216.01559</ele>
        <time>2023-11-23T08:17:02.000Z</time>
      </trkpt>
      <trkpt lat="45.85501" lon="4.6784">
        <ele>216.39644</ele>
        <time>2023-11-23T08:17:03.000Z</time>
      </trkpt>
      <trkpt lat="45.855" lon="4.67834">
        <ele>216.42273</ele>
        <time>2023-11-23T08:17:04.000Z</time>
      </trkpt>
      <trkpt lat="45.85499" lon="4.67828">
        <ele>216.51453</ele>
        <time>2023-11-23T08:17:05.000Z</time>
      </trkpt>
      <trkpt lat="45.85497" lon="4.67822">
        <ele>216.53125</ele>
        <time>2023-11-23T08:17:06.000Z</time>
      </trkpt>
      <trkpt lat="45.85496" lon="4.67816">
        <ele>216.58389</ele>
        <time>2023-11-23T08:17:07.000Z</time>
      </trkpt>
      <trkpt lat="45.85495" lon="4.6781">
        <ele>216.59309</ele>
        <time>2023-11-23T08:17:08.000Z</time>
      </trkpt>
      <trkpt lat="45.85495" lon="4.67803">
        <ele>216.68518</ele>
        <time>2023-11-23T08:17:09.000Z</time>
      </trkpt>
      <trkpt lat="45.85494" lon="4.67796">
        <ele>216.77609</ele>
        <time>2023-11-23T08:17:10.000Z</time>
      </trkpt>
      <trkpt lat="45.85494" lon="4.67789">
        <ele>216.9366</ele>
        <time>2023-11-23T08:17:11.000Z</time>
      </trkpt>
      <trkpt lat="45.85494" lon="4.67783">
        <ele>217.13449</ele>
        <time>2023-11-23T08:17:12.000Z</time>
      </trkpt>
      <trkpt lat="45.85493" lon="4.67777">
        <ele>217.3522</ele>
        <time>2023-11-23T08:17:13.000Z</time>
      </trkpt>
      <trkpt lat="45.85494" lon="4.67769">
        <ele>217.57211</ele>
        <time>2023-11-23T08:17:14.000Z</time>
      </trkpt>
      <trkpt lat="45.85495" lon="4.67762">
        <ele>217.80215</ele>
        <time>2023-11-23T08:17:15.000Z</time>
      </trkpt>
      <trkpt lat="45.85498" lon="4.67755">
        <ele>218.04549</ele>
        <time>2023-11-23T08:17:16.000Z</time>
      </trkpt>
      <trkpt lat="45.85501" lon="4.67749">
        <ele>218.24641</ele>
        <time>2023-11-23T08:17:17.000Z</time>
      </trkpt>
      <trkpt lat="45.85503" lon="4.67743">
        <ele>218.35962</ele>
        <time>2023-11-23T08:17:18.000Z</time>
      </trkpt>
      <trkpt lat="45.85505" lon="4.67737">
        <ele>218.40573</ele>
        <time>2023-11-23T08:17:19.000Z</time>
      </trkpt>
      <trkpt lat="45.85506" lon="4.67729">
        <ele>218.47827</ele>
        <time>2023-11-23T08:17:20.000Z</time>
      </trkpt>
      <trkpt lat="45.85509" lon="4.67723">
        <ele>218.30183</ele>
        <time>2023-11-23T08:17:21.000Z</time>
      </trkpt>
      <trkpt lat="45.85511" lon="4.67717">
        <ele>218.09969</ele>
        <time>2023-11-23T08:17:22.000Z</time>
      </trkpt>
      <trkpt lat="45.85514" lon="4.67711">
        <ele>217.98518</ele>
        <time>2023-11-23T08:17:23.000Z</time>
      </trkpt>
      <trkpt lat="45.85517" lon="4.67706">
        <ele>218.25691</ele>
        <time>2023-11-23T08:17:24.000Z</time>
      </trkpt>
      <trkpt lat="45.8552" lon="4.67701">
        <ele>218.39822</ele>
        <time>2023-11-23T08:17:25.000Z</time>
      </trkpt>
      <trkpt lat="45.85523" lon="4.67695">
        <ele>218.2616</ele>
        <time>2023-11-23T08:17:26.000Z</time>
      </trkpt>
      <trkpt lat="45.85526" lon="4.67689">
        <ele>218.10352</ele>
        <time>2023-11-23T08:17:27.000Z</time>
      </trkpt>
      <trkpt lat="45.85529" lon="4.67682">
        <ele>217.93234</ele>
        <time>2023-11-23T08:17:28.000Z</time>
      </trkpt>
      <trkpt lat="45.85533" lon="4.67677">
        <ele>217.70291</ele>
        <time>2023-11-23T08:17:29.000Z</time>
      </trkpt>
      <trkpt lat="45.85537" lon="4.67672">
        <ele>217.51712</ele>
        <time>2023-11-23T08:17:30.000Z</time>
      </trkpt>
      <trkpt lat="45.85541" lon="4.67667">
        <ele>217.29764</ele>
        <time>2023-11-23T08:17:31.000Z</time>
      </trkpt>
      <trkpt lat="45.85545" lon="4.67663">
        <ele>217.02544</ele>
        <time>2023-11-23T08:17:32.000Z</time>
      </trkpt>
      <trkpt lat="45.85549" lon="4.67659">
        <ele>216.77283</ele>
        <time>2023-11-23T08:17:33.000Z</time>
      </trkpt>
      <trkpt lat="45.85552" lon="4.67655">
        <ele>216.49915</ele>
        <time>2023-11-23T08:17:34.000Z</time>
      </trkpt>
      <trkpt lat="45.85556" lon="4.67649">
        <ele>216.25903</ele>
        <time>2023-11-23T08:17:35.000Z</time>
      </trkpt>
      <trkpt lat="45.8556" lon="4.67645">
        <ele>215.9689</ele>
        <time>2023-11-23T08:17:36.000Z</time>
      </trkpt>
      <trkpt lat="45.85564" lon="4.67641">
        <ele>215.86337</ele>
        <time>2023-11-23T08:17:37.000Z</time>
      </trkpt>
      <trkpt lat="45.85569" lon="4.67636">
        <ele>215.89755</ele>
        <time>2023-11-23T08:17:38.000Z</time>
      </trkpt>
      <trkpt lat="45.85573" lon="4.67631">
        <ele>216.06953</ele>
        <time>2023-11-23T08:17:39.000Z</time>
      </trkpt>
      <trkpt lat="45.85577" lon="4.67627">
        <ele>215.90669</ele>
        <time>2023-11-23T08:17:40.000Z</time>
      </trkpt>
      <trkpt lat="45.85581" lon="4.67621">
        <ele>215.77971</ele>
        <time>2023-11-23T08:17:41.000Z</time>
      </trkpt>
      <trkpt lat="45.85586" lon="4.67617">
        <ele>215.44243</ele>
        <time>2023-11-23T08:17:42.000Z</time>
      </trkpt>
      <trkpt lat="45.8559" lon="4.67613">
        <ele>215.10481</ele>
        <time>2023-11-23T08:17:43.000Z</time>
      </trkpt>
      <trkpt lat="45.85595" lon="4.67608">
        <ele>214.68018</ele>
        <time>2023-11-23T08:17:44.000Z</time>
      </trkpt>
      <trkpt lat="45.85599" lon="4.67603">
        <ele>214.33138</ele>
        <time>2023-11-23T08:17:45.000Z</time>
      </trkpt>
      <trkpt lat="45.85603" lon="4.67599">
        <ele>214.29443</ele>
        <time>2023-11-23T08:17:46.000Z</time>
      </trkpt>
      <trkpt lat="45.85608" lon="4.67595">
        <ele>214.24162</ele>
        <time>2023-11-23T08:17:47.000Z</time>
      </trkpt>
      <trkpt lat="45.85612" lon="4.67592">
        <ele>214.2626</ele>
        <time>2023-11-23T08:17:48.000Z</time>
      </trkpt>
      <trkpt lat="45.85616" lon="4.67589">
        <ele>214.23576</ele>
        <time>2023-11-23T08:17:49.000Z</time>
      </trkpt>
      <trkpt lat="45.85621" lon="4.67584">
        <ele>214.24878</ele>
        <time>2023-11-23T08:17:50.000Z</time>
      </trkpt>
      <trkpt lat="45.85624" lon="4.6758">
        <ele>214.28415</ele>
        <time>2023-11-23T08:17:51.000Z</time>
      </trkpt>
      <trkpt lat="45.85629" lon="4.67577">
        <ele>214.31848</ele>
        <time>2023-11-23T08:17:52.000Z</time>
      </trkpt>
      <trkpt lat="45.85633" lon="4.67573">
        <ele>214.47148</ele>
        <time>2023-11-23T08:17:53.000Z</time>
      </trkpt>
      <trkpt lat="45.85637" lon="4.67569">
        <ele>214.65527</ele>
        <time>2023-11-23T08:17:54.000Z</time>
      </trkpt>
      <trkpt lat="45.85642" lon="4.67565">
        <ele>214.8118</ele>
        <time>2023-11-23T08:17:55.000Z</time>
      </trkpt>
      <trkpt lat="45.85645" lon="4.6756">
        <ele>215.07272</ele>
        <time>2023-11-23T08:17:56.000Z</time>
      </trkpt>
      <trkpt lat="45.8565" lon="4.67556">
        <ele>214.86055</ele>
        <time>2023-11-23T08:17:57.000Z</time>
      </trkpt>
      <trkpt lat="45.85655" lon="4.67552">
        <ele>214.67305</ele>
        <time>2023-11-23T08:17:58.000Z</time>
      </trkpt>
      <trkpt lat="45.85659" lon="4.67548">
        <ele>214.3604</ele>
        <time>2023-11-23T08:17:59.000Z</time>
      </trkpt>
      <trkpt lat="45.85663" lon="4.67544">
        <ele>214.38492</ele>
        <time>2023-11-23T08:18:00.000Z</time>
      </trkpt>
      <trkpt lat="45.85667" lon="4.67539">
        <ele>214.41805</ele>
        <time>2023-11-23T08:18:01.000Z</time>
      </trkpt>
      <trkpt lat="45.85671" lon="4.67535">
        <ele>214.48518</ele>
        <time>2023-11-23T08:18:02.000Z</time>
      </trkpt>
      <trkpt lat="45.85675" lon="4.6753">
        <ele>214.5289</ele>
        <time>2023-11-23T08:18:03.000Z</time>
      </trkpt>
      <trkpt lat="45.8568" lon="4.67525">
        <ele>214.61465</ele>
        <time>2023-11-23T08:18:04.000Z</time>
      </trkpt>
      <trkpt lat="45.85685" lon="4.67522">
        <ele>214.72993</ele>
        <time>2023-11-23T08:18:05.000Z</time>
      </trkpt>
      <trkpt lat="45.85688" lon="4.67517">
        <ele>214.86972</ele>
        <time>2023-11-23T08:18:06.000Z</time>
      </trkpt>
      <trkpt lat="45.85693" lon="4.67512">
        <ele>215.01395</ele>
        <time>2023-11-23T08:18:07.000Z</time>
      </trkpt>
      <trkpt lat="45.85696" lon="4.67507">
        <ele>215.08499</ele>
        <time>2023-11-23T08:18:08.000Z</time>
      </trkpt>
      <trkpt lat="45.85699" lon="4.67501">
        <ele>215.30591</ele>
        <time>2023-11-23T08:18:09.000Z</time>
      </trkpt>
      <trkpt lat="45.85703" lon="4.67495">
        <ele>215.55098</ele>
        <time>2023-11-23T08:18:10.000Z</time>
      </trkpt>
      <trkpt lat="45.85707" lon="4.67489">
        <ele>215.82719</ele>
        <time>2023-11-23T08:18:11.000Z</time>
      </trkpt>
      <trkpt lat="45.85711" lon="4.67484">
        <ele>215.81657</ele>
        <time>2023-11-23T08:18:12.000Z</time>
      </trkpt>
      <trkpt lat="45.85714" lon="4.67479">
        <ele>215.73819</ele>
        <time>2023-11-23T08:18:13.000Z</time>
      </trkpt>
      <trkpt lat="45.85717" lon="4.67473">
        <ele>215.66402</ele>
        <time>2023-11-23T08:18:14.000Z</time>
      </trkpt>
      <trkpt lat="45.85721" lon="4.67468">
        <ele>215.57854</ele>
        <time>2023-11-23T08:18:15.000Z</time>
      </trkpt>
      <trkpt lat="45.85724" lon="4.67462">
        <ele>215.42587</ele>
        <time>2023-11-23T08:18:16.000Z</time>
      </trkpt>
      <trkpt lat="45.85727" lon="4.67456">
        <ele>215.58511</ele>
        <time>2023-11-23T08:18:17.000Z</time>
      </trkpt>
      <trkpt lat="45.85731" lon="4.67451">
        <ele>215.62601</ele>
        <time>2023-11-23T08:18:18.000Z</time>
      </trkpt>
      <trkpt lat="45.85735" lon="4.67443">
        <ele>215.71826</ele>
        <time>2023-11-23T08:18:19.000Z</time>
      </trkpt>
      <trkpt lat="45.85738" lon="4.67436">
        <ele>215.7979</ele>
        <time>2023-11-23T08:18:20.000Z</time>
      </trkpt>
      <trkpt lat="45.85741" lon="4.6743">
        <ele>215.78145</ele>
        <time>2023-11-23T08:18:21.000Z</time>
      </trkpt>
      <trkpt lat="45.85745" lon="4.67424">
        <ele>215.80119</ele>
        <time>2023-11-23T08:18:22.000Z</time>
      </trkpt>
      <trkpt lat="45.85748" lon="4.67417">
        <ele>215.84122</ele>
        <time>2023-11-23T08:18:23.000Z</time>
      </trkpt>
      <trkpt lat="45.85752" lon="4.67411">
        <ele>215.91739</ele>
        <time>2023-11-23T08:18:24.000Z</time>
      </trkpt>
      <trkpt lat="45.85755" lon="4.67405">
        <ele>216.04179</ele>
        <time>2023-11-23T08:18:25.000Z</time>
      </trkpt>
      <trkpt lat="45.85758" lon="4.67399">
        <ele>216.2209</ele>
        <time>2023-11-23T08:18:26.000Z</time>
      </trkpt>
      <trkpt lat="45.85761" lon="4.67392">
        <ele>216.35156</ele>
        <time>2023-11-23T08:18:27.000Z</time>
      </trkpt>
      <trkpt lat="45.85763" lon="4.67386">
        <ele>216.44023</ele>
        <time>2023-11-23T08:18:28.000Z</time>
      </trkpt>
      <trkpt lat="45.85766" lon="4.67379">
        <ele>216.44112</ele>
        <time>2023-11-23T08:18:29.000Z</time>
      </trkpt>
      <trkpt lat="45.85768" lon="4.67375">
        <ele>216.28915</ele>
        <time>2023-11-23T08:18:30.000Z</time>
      </trkpt>
      <trkpt lat="45.85771" lon="4.6737">
        <ele>216.24622</ele>
        <time>2023-11-23T08:18:31.000Z</time>
      </trkpt>
      <trkpt lat="45.85774" lon="4.67367">
        <ele>216.49455</ele>
        <time>2023-11-23T08:18:32.000Z</time>
      </trkpt>
      <trkpt lat="45.85776" lon="4.67362">
        <ele>216.70059</ele>
        <time>2023-11-23T08:18:33.000Z</time>
      </trkpt>
      <trkpt lat="45.85776" lon="4.67357">
        <ele>216.88022</ele>
        <time>2023-11-23T08:18:34.000Z</time>
      </trkpt>
      <trkpt lat="45.85776" lon="4.67352">
        <ele>217.08244</ele>
        <time>2023-11-23T08:18:35.000Z</time>
      </trkpt>
      <trkpt lat="45.85775" lon="4.67348">
        <ele>217.25066</ele>
        <time>2023-11-23T08:18:36.000Z</time>
      </trkpt>
      <trkpt lat="45.85775" lon="4.67344">
        <ele>217.43135</ele>
        <time>2023-11-23T08:18:37.000Z</time>
      </trkpt>
      <trkpt lat="45.85774" lon="4.6734">
        <ele>217.65613</ele>
        <time>2023-11-23T08:18:38.000Z</time>
      </trkpt>
      <trkpt lat="45.85776" lon="4.67335">
        <ele>217.83774</ele>
        <time>2023-11-23T08:18:39.000Z</time>
      </trkpt>
      <trkpt lat="45.85775" lon="4.67331">
        <ele>218.01541</ele>
        <time>2023-11-23T08:18:40.000Z</time>
      </trkpt>
      <trkpt lat="45.85772" lon="4.67326">
        <ele>218.21371</ele>
        <time>2023-11-23T08:18:41.000Z</time>
      </trkpt>
      <trkpt lat="45.85768" lon="4.67322">
        <ele>218.3945</ele>
        <time>2023-11-23T08:18:42.000Z</time>
      </trkpt>
      <trkpt lat="45.85765" lon="4.67318">
        <ele>218.57072</ele>
        <time>2023-11-23T08:18:43.000Z</time>
      </trkpt>
      <trkpt lat="45.8576" lon="4.67314">
        <ele>218.69392</ele>
        <time>2023-11-23T08:18:44.000Z</time>
      </trkpt>
      <trkpt lat="45.85755" lon="4.6731">
        <ele>218.72327</ele>
        <time>2023-11-23T08:18:45.000Z</time>
      </trkpt>
      <trkpt lat="45.85752" lon="4.67306">
        <ele>218.66003</ele>
        <time>2023-11-23T08:18:46.000Z</time>
      </trkpt>
      <trkpt lat="45.85748" lon="4.67303">
        <ele>218.60303</ele>
        <time>2023-11-23T08:18:47.000Z</time>
      </trkpt>
      <trkpt lat="45.85743" lon="4.673">
        <ele>218.32718</ele>
        <time>2023-11-23T08:18:48.000Z</time>
      </trkpt>
      <trkpt lat="45.85739" lon="4.67295">
        <ele>218.02182</ele>
        <time>2023-11-23T08:18:49.000Z</time>
      </trkpt>
      <trkpt lat="45.85737" lon="4.67292">
        <ele>217.90744</ele>
        <time>2023-11-23T08:18:50.000Z</time>
      </trkpt>
      <trkpt lat="45.85734" lon="4.67288">
        <ele>217.66122</ele>
        <time>2023-11-23T08:18:51.000Z</time>
      </trkpt>
      <trkpt lat="45.8573" lon="4.67284">
        <ele>217.39067</ele>
        <time>2023-11-23T08:18:52.000Z</time>
      </trkpt>
      <trkpt lat="45.85725" lon="4.67281">
        <ele>217.03838</ele>
        <time>2023-11-23T08:18:53.000Z</time>
      </trkpt>
      <trkpt lat="45.85721" lon="4.67277">
        <ele>216.6763</ele>
        <time>2023-11-23T08:18:54.000Z</time>
      </trkpt>
      <trkpt lat="45.85717" lon="4.67275">
        <ele>216.40508</ele>
        <time>2023-11-23T08:18:55.000Z</time>
      </trkpt>
      <trkpt lat="45.85713" lon="4.67272">
        <ele>216.13492</ele>
        <time>2023-11-23T08:18:56.000Z</time>
      </trkpt>
      <trkpt lat="45.85709" lon="4.67271">
        <ele>215.97205</ele>
        <time>2023-11-23T08:18:57.000Z</time>
      </trkpt>
      <trkpt lat="45.85705" lon="4.67269">
        <ele>215.82153</ele>
        <time>2023-11-23T08:18:58.000Z</time>
      </trkpt>
      <trkpt lat="45.85701" lon="4.67267">
        <ele>215.6752</ele>
        <time>2023-11-23T08:18:59.000Z</time>
      </trkpt>
      <trkpt lat="45.85697" lon="4.67265">
        <ele>215.69019</ele>
        <time>2023-11-23T08:19:00.000Z</time>
      </trkpt>
      <trkpt lat="45.85693" lon="4.67263">
        <ele>215.71513</ele>
        <time>2023-11-23T08:19:01.000Z</time>
      </trkpt>
      <trkpt lat="45.85689" lon="4.67261">
        <ele>215.44992</ele>
        <time>2023-11-23T08:19:02.000Z</time>
      </trkpt>
      <trkpt lat="45.85685" lon="4.67259">
        <ele>215.19841</ele>
        <time>2023-11-23T08:19:03.000Z</time>
      </trkpt>
      <trkpt lat="45.85681" lon="4.67256">
        <ele>215.0354</ele>
        <time>2023-11-23T08:19:04.000Z</time>
      </trkpt>
      <trkpt lat="45.85678" lon="4.67254">
        <ele>214.95706</ele>
        <time>2023-11-23T08:19:05.000Z</time>
      </trkpt>
      <trkpt lat="45.85673" lon="4.67252">
        <ele>214.92131</ele>
        <time>2023-11-23T08:19:06.000Z</time>
      </trkpt>
      <trkpt lat="45.85669" lon="4.6725">
        <ele>214.89006</ele>
        <time>2023-11-23T08:19:07.000Z</time>
      </trkpt>
      <trkpt lat="45.85665" lon="4.67247">
        <ele>215.1434</ele>
        <time>2023-11-23T08:19:08.000Z</time>
      </trkpt>
      <trkpt lat="45.85661" lon="4.67245">
        <ele>215.45638</ele>
        <time>2023-11-23T08:19:09.000Z</time>
      </trkpt>
      <trkpt lat="45.85657" lon="4.67242">
        <ele>215.66777</ele>
        <time>2023-11-23T08:19:10.000Z</time>
      </trkpt>
      <trkpt lat="45.85654" lon="4.6724">
        <ele>215.96133</ele>
        <time>2023-11-23T08:19:11.000Z</time>
      </trkpt>
      <trkpt lat="45.8565" lon="4.67237">
        <ele>216.24905</ele>
        <time>2023-11-23T08:19:12.000Z</time>
      </trkpt>
      <trkpt lat="45.85646" lon="4.67234">
        <ele>216.60654</ele>
        <time>2023-11-23T08:19:13.000Z</time>
      </trkpt>
      <trkpt lat="45.85643" lon="4.67231">
        <ele>217.00381</ele>
        <time>2023-11-23T08:19:14.000Z</time>
      </trkpt>
      <trkpt lat="45.85638" lon="4.67225">
        <ele>217.31372</ele>
        <time>2023-11-23T08:19:15.000Z</time>
      </trkpt>
      <trkpt lat="45.85636" lon="4.67222">
        <ele>217.65767</ele>
        <time>2023-11-23T08:19:16.000Z</time>
      </trkpt>
      <trkpt lat="45.85632" lon="4.67217">
        <ele>217.90067</ele>
        <time>2023-11-23T08:19:17.000Z</time>
      </trkpt>
      <trkpt lat="45.85627" lon="4.67213">
        <ele>218.10336</ele>
        <time>2023-11-23T08:19:18.000Z</time>
      </trkpt>
      <trkpt lat="45.85624" lon="4.67207">
        <ele>218.29037</ele>
        <time>2023-11-23T08:19:19.000Z</time>
      </trkpt>
      <trkpt lat="45.85621" lon="4.67202">
        <ele>218.26189</ele>
        <time>2023-11-23T08:19:20.000Z</time>
      </trkpt>
      <trkpt lat="45.85618" lon="4.67198">
        <ele>218.19499</ele>
        <time>2023-11-23T08:19:21.000Z</time>
      </trkpt>
      <trkpt lat="45.85616" lon="4.67193">
        <ele>218.70488</ele>
        <time>2023-11-23T08:19:22.000Z</time>
      </trkpt>
      <trkpt lat="45.85614" lon="4.67188">
        <ele>219.21919</ele>
        <time>2023-11-23T08:19:23.000Z</time>
      </trkpt>
      <trkpt lat="45.85611" lon="4.67182">
        <ele>219.83025</ele>
        <time>2023-11-23T08:19:24.000Z</time>
      </trkpt>
      <trkpt lat="45.85608" lon="4.67175">
        <ele>220.34904</ele>
        <time>2023-11-23T08:19:25.000Z</time>
      </trkpt>
      <trkpt lat="45.85606" lon="4.6717">
        <ele>220.85234</ele>
        <time>2023-11-23T08:19:26.000Z</time>
      </trkpt>
      <trkpt lat="45.85603" lon="4.67165">
        <ele>221.04117</ele>
        <time>2023-11-23T08:19:27.000Z</time>
      </trkpt>
      <trkpt lat="45.85601" lon="4.67158">
        <ele>221.20601</ele>
        <time>2023-11-23T08:19:28.000Z</time>
      </trkpt>
      <trkpt lat="45.85598" lon="4.67153">
        <ele>221.2292</ele>
        <time>2023-11-23T08:19:29.000Z</time>
      </trkpt>
      <trkpt lat="45.85595" lon="4.67149">
        <ele>221.3125</ele>
        <time>2023-11-23T08:19:30.000Z</time>
      </trkpt>
      <trkpt lat="45.85593" lon="4.67144">
        <ele>221.28543</ele>
        <time>2023-11-23T08:19:31.000Z</time>
      </trkpt>
      <trkpt lat="45.8559" lon="4.6714">
        <ele>221.34306</ele>
        <time>2023-11-23T08:19:32.000Z</time>
      </trkpt>
      <trkpt lat="45.85588" lon="4.67132">
        <ele>221.47543</ele>
        <time>2023-11-23T08:19:33.000Z</time>
      </trkpt>
      <trkpt lat="45.85586" lon="4.67125">
        <ele>221.65572</ele>
        <time>2023-11-23T08:19:34.000Z</time>
      </trkpt>
      <trkpt lat="45.85584" lon="4.67118">
        <ele>221.86824</ele>
        <time>2023-11-23T08:19:35.000Z</time>
      </trkpt>
      <trkpt lat="45.8558" lon="4.67111">
        <ele>222.01131</ele>
        <time>2023-11-23T08:19:36.000Z</time>
      </trkpt>
      <trkpt lat="45.85578" lon="4.67105">
        <ele>222.03194</ele>
        <time>2023-11-23T08:19:37.000Z</time>
      </trkpt>
      <trkpt lat="45.85575" lon="4.671">
        <ele>222.34424</ele>
        <time>2023-11-23T08:19:38.000Z</time>
      </trkpt>
      <trkpt lat="45.85573" lon="4.67092">
        <ele>221.73636</ele>
        <time>2023-11-23T08:19:39.000Z</time>
      </trkpt>
      <trkpt lat="45.85571" lon="4.67084">
        <ele>221.21558</ele>
        <time>2023-11-23T08:19:40.000Z</time>
      </trkpt>
      <trkpt lat="45.85569" lon="4.67078">
        <ele>220.74763</ele>
        <time>2023-11-23T08:19:41.000Z</time>
      </trkpt>
      <trkpt lat="45.85567" lon="4.6707">
        <ele>220.03833</ele>
        <time>2023-11-23T08:19:42.000Z</time>
      </trkpt>
      <trkpt lat="45.85565" lon="4.67064">
        <ele>219.2935</ele>
        <time>2023-11-23T08:19:43.000Z</time>
      </trkpt>
      <trkpt lat="45.85563" lon="4.67057">
        <ele>218.38596</ele>
        <time>2023-11-23T08:19:44.000Z</time>
      </trkpt>
      <trkpt lat="45.85562" lon="4.67053">
        <ele>217.47849</ele>
        <time>2023-11-23T08:19:45.000Z</time>
      </trkpt>
      <trkpt lat="45.8556" lon="4.67047">
        <ele>216.5668</ele>
        <time>2023-11-23T08:19:46.000Z</time>
      </trkpt>
      <trkpt lat="45.85558" lon="4.6704">
        <ele>216.02878</ele>
        <time>2023-11-23T08:19:47.000Z</time>
      </trkpt>
      <trkpt lat="45.85556" lon="4.67036">
        <ele>215.51535</ele>
        <time>2023-11-23T08:19:48.000Z</time>
      </trkpt>
      <trkpt lat="45.85556" lon="4.6703">
        <ele>215.04919</ele>
        <time>2023-11-23T08:19:49.000Z</time>
      </trkpt>
      <trkpt lat="45.85554" lon="4.67022">
        <ele>214.55734</ele>
        <time>2023-11-23T08:19:50.000Z</time>
      </trkpt>
      <trkpt lat="45.85552" lon="4.67017">
        <ele>214.06131</ele>
        <time>2023-11-23T08:19:51.000Z</time>
      </trkpt>
      <trkpt lat="45.85551" lon="4.67009">
        <ele>213.54126</ele>
        <time>2023-11-23T08:19:52.000Z</time>
      </trkpt>
      <trkpt lat="45.85549" lon="4.67004">
        <ele>212.96819</ele>
        <time>2023-11-23T08:19:53.000Z</time>
      </trkpt>
      <trkpt lat="45.85548" lon="4.66998">
        <ele>212.34079</ele>
        <time>2023-11-23T08:19:54.000Z</time>
      </trkpt>
      <trkpt lat="45.85547" lon="4.66993">
        <ele>211.70639</ele>
        <time>2023-11-23T08:19:55.000Z</time>
      </trkpt>
      <trkpt lat="45.85546" lon="4.6699">
        <ele>211.13863</ele>
        <time>2023-11-23T08:19:56.000Z</time>
      </trkpt>
      <trkpt lat="45.85544" lon="4.66985">
        <ele>210.66599</ele>
        <time>2023-11-23T08:19:57.000Z</time>
      </trkpt>
      <trkpt lat="45.85543" lon="4.66982">
        <ele>209.90292</ele>
        <time>2023-11-23T08:19:58.000Z</time>
      </trkpt>
      <trkpt lat="45.85542" lon="4.66979">
        <ele>210.09326</ele>
        <time>2023-11-23T08:19:59.000Z</time>
      </trkpt>
      <trkpt lat="45.85541" lon="4.66977">
        <ele>210.25427</ele>
        <time>2023-11-23T08:20:00.000Z</time>
      </trkpt>
      <trkpt lat="45.8554" lon="4.66974">
        <ele>210.41428</ele>
        <time>2023-11-23T08:20:01.000Z</time>
      </trkpt>
      <trkpt lat="45.85538" lon="4.66971">
        <ele>210.54984</ele>
        <time>2023-11-23T08:20:02.000Z</time>
      </trkpt>
      <trkpt lat="45.85537" lon="4.66968">
        <ele>210.71719</ele>
        <time>2023-11-23T08:20:03.000Z</time>
      </trkpt>
      <trkpt lat="45.85536" lon="4.66966">
        <ele>210.86511</ele>
        <time>2023-11-23T08:20:04.000Z</time>
      </trkpt>
      <trkpt lat="45.85536" lon="4.66963">
        <ele>211.04422</ele>
        <time>2023-11-23T08:20:05.000Z</time>
      </trkpt>
      <trkpt lat="45.85535" lon="4.6696">
        <ele>211.20027</ele>
        <time>2023-11-23T08:20:06.000Z</time>
      </trkpt>
      <trkpt lat="45.85534" lon="4.66957">
        <ele>211.32808</ele>
        <time>2023-11-23T08:20:07.000Z</time>
      </trkpt>
      <trkpt lat="45.85534" lon="4.66953">
        <ele>211.43661</ele>
        <time>2023-11-23T08:20:08.000Z</time>
      </trkpt>
      <trkpt lat="45.85533" lon="4.6695">
        <ele>211.57784</ele>
        <time>2023-11-23T08:20:09.000Z</time>
      </trkpt>
      <trkpt lat="45.85533" lon="4.66947">
        <ele>211.68796</ele>
        <time>2023-11-23T08:20:10.000Z</time>
      </trkpt>
      <trkpt lat="45.85532" lon="4.66943">
        <ele>211.76468</ele>
        <time>2023-11-23T08:20:11.000Z</time>
      </trkpt>
      <trkpt lat="45.85531" lon="4.66939">
        <ele>211.82312</ele>
        <time>2023-11-23T08:20:12.000Z</time>
      </trkpt>
      <trkpt lat="45.8553" lon="4.66934">
        <ele>211.84402</ele>
        <time>2023-11-23T08:20:13.000Z</time>
      </trkpt>
      <trkpt lat="45.85529" lon="4.66929">
        <ele>211.84195</ele>
        <time>2023-11-23T08:20:14.000Z</time>
      </trkpt>
      <trkpt lat="45.85528" lon="4.66923">
        <ele>211.79141</ele>
        <time>2023-11-23T08:20:15.000Z</time>
      </trkpt>
      <trkpt lat="45.85527" lon="4.66917">
        <ele>211.70769</ele>
        <time>2023-11-23T08:20:16.000Z</time>
      </trkpt>
      <trkpt lat="45.85528" lon="4.66906">
        <ele>211.58408</ele>
        <time>2023-11-23T08:20:17.000Z</time>
      </trkpt>
      <trkpt lat="45.85527" lon="4.66899">
        <ele>211.48633</ele>
        <time>2023-11-23T08:20:18.000Z</time>
      </trkpt>
      <trkpt lat="45.85526" lon="4.66892">
        <ele>211.38644</ele>
        <time>2023-11-23T08:20:19.000Z</time>
      </trkpt>
      <trkpt lat="45.85525" lon="4.66884">
        <ele>211.2878</ele>
        <time>2023-11-23T08:20:20.000Z</time>
      </trkpt>
      <trkpt lat="45.85525" lon="4.66875">
        <ele>211.14627</ele>
        <time>2023-11-23T08:20:21.000Z</time>
      </trkpt>
      <trkpt lat="45.85524" lon="4.66867">
        <ele>210.97112</ele>
        <time>2023-11-23T08:20:22.000Z</time>
      </trkpt>
      <trkpt lat="45.85524" lon="4.66861">
        <ele>210.79764</ele>
        <time>2023-11-23T08:20:23.000Z</time>
      </trkpt>
      <trkpt lat="45.85524" lon="4.66854">
        <ele>210.63081</ele>
        <time>2023-11-23T08:20:24.000Z</time>
      </trkpt>
      <trkpt lat="45.85524" lon="4.66847">
        <ele>210.4678</ele>
        <time>2023-11-23T08:20:25.000Z</time>
      </trkpt>
      <trkpt lat="45.85524" lon="4.6684">
        <ele>210.29251</ele>
        <time>2023-11-23T08:20:26.000Z</time>
      </trkpt>
      <trkpt lat="45.85524" lon="4.66834">
        <ele>210.0491</ele>
        <time>2023-11-23T08:20:27.000Z</time>
      </trkpt>
      <trkpt lat="45.85524" lon="4.66827">
        <ele>209.83142</ele>
        <time>2023-11-23T08:20:28.000Z</time>
      </trkpt>
      <trkpt lat="45.85525" lon="4.66822">
        <ele>209.6322</ele>
        <time>2023-11-23T08:20:29.000Z</time>
      </trkpt>
      <trkpt lat="45.85525" lon="4.66816">
        <ele>209.42908</ele>
        <time>2023-11-23T08:20:30.000Z</time>
      </trkpt>
      <trkpt lat="45.85524" lon="4.66809">
        <ele>209.22281</ele>
        <time>2023-11-23T08:20:31.000Z</time>
      </trkpt>
      <trkpt lat="45.85521" lon="4.66801">
        <ele>208.95906</ele>
        <time>2023-11-23T08:20:32.000Z</time>
      </trkpt>
      <trkpt lat="45.85521" lon="4.66795">
        <ele>208.75113</ele>
        <time>2023-11-23T08:20:33.000Z</time>
      </trkpt>
      <trkpt lat="45.8552" lon="4.66789">
        <ele>208.56523</ele>
        <time>2023-11-23T08:20:34.000Z</time>
      </trkpt>
      <trkpt lat="45.8552" lon="4.66782">
        <ele>208.41304</ele>
        <time>2023-11-23T08:20:35.000Z</time>
      </trkpt>
      <trkpt lat="45.85518" lon="4.66776">
        <ele>208.26689</ele>
        <time>2023-11-23T08:20:36.000Z</time>
      </trkpt>
      <trkpt lat="45.85517" lon="4.6677">
        <ele>208.16135</ele>
        <time>2023-11-23T08:20:37.000Z</time>
      </trkpt>
      <trkpt lat="45.85516" lon="4.66763">
        <ele>208.09944</ele>
        <time>2023-11-23T08:20:38.000Z</time>
      </trkpt>
      <trkpt lat="45.85513" lon="4.66758">
        <ele>208.0511</ele>
        <time>2023-11-23T08:20:39.000Z</time>
      </trkpt>
      <trkpt lat="45.8551" lon="4.66752">
        <ele>207.974</ele>
        <time>2023-11-23T08:20:40.000Z</time>
      </trkpt>
      <trkpt lat="45.85507" lon="4.66745">
        <ele>207.91724</ele>
        <time>2023-11-23T08:20:41.000Z</time>
      </trkpt>
      <trkpt lat="45.85506" lon="4.66738">
        <ele>207.92513</ele>
        <time>2023-11-23T08:20:42.000Z</time>
      </trkpt>
      <trkpt lat="45.85505" lon="4.66731">
        <ele>207.9034</ele>
        <time>2023-11-23T08:20:43.000Z</time>
      </trkpt>
      <trkpt lat="45.85505" lon="4.66723">
        <ele>207.90323</ele>
        <time>2023-11-23T08:20:44.000Z</time>
      </trkpt>
      <trkpt lat="45.85503" lon="4.66716">
        <ele>207.88106</ele>
        <time>2023-11-23T08:20:45.000Z</time>
      </trkpt>
      <trkpt lat="45.85503" lon="4.66708">
        <ele>207.93176</ele>
        <time>2023-11-23T08:20:46.000Z</time>
      </trkpt>
      <trkpt lat="45.85502" lon="4.66702">
        <ele>208.01355</ele>
        <time>2023-11-23T08:20:47.000Z</time>
      </trkpt>
      <trkpt lat="45.85501" lon="4.66695">
        <ele>208.07634</ele>
        <time>2023-11-23T08:20:48.000Z</time>
      </trkpt>
      <trkpt lat="45.855" lon="4.66688">
        <ele>208.10193</ele>
        <time>2023-11-23T08:20:49.000Z</time>
      </trkpt>
      <trkpt lat="45.855" lon="4.66682">
        <ele>208.13879</ele>
        <time>2023-11-23T08:20:50.000Z</time>
      </trkpt>
      <trkpt lat="45.85501" lon="4.66675">
        <ele>208.20598</ele>
        <time>2023-11-23T08:20:51.000Z</time>
      </trkpt>
      <trkpt lat="45.85501" lon="4.66667">
        <ele>208.32068</ele>
        <time>2023-11-23T08:20:52.000Z</time>
      </trkpt>
      <trkpt lat="45.85502" lon="4.66659">
        <ele>208.39914</ele>
        <time>2023-11-23T08:20:53.000Z</time>
      </trkpt>
      <trkpt lat="45.85502" lon="4.6665">
        <ele>208.493</ele>
        <time>2023-11-23T08:20:54.000Z</time>
      </trkpt>
      <trkpt lat="45.85502" lon="4.66642">
        <ele>208.56731</ele>
        <time>2023-11-23T08:20:55.000Z</time>
      </trkpt>
      <trkpt lat="45.855" lon="4.66634">
        <ele>208.60983</ele>
        <time>2023-11-23T08:20:56.000Z</time>
      </trkpt>
      <trkpt lat="45.85498" lon="4.66626">
        <ele>208.61958</ele>
        <time>2023-11-23T08:20:57.000Z</time>
      </trkpt>
      <trkpt lat="45.85499" lon="4.66618">
        <ele>208.61133</ele>
        <time>2023-11-23T08:20:58.000Z</time>
      </trkpt>
      <trkpt lat="45.85499" lon="4.66611">
        <ele>208.59648</ele>
        <time>2023-11-23T08:20:59.000Z</time>
      </trkpt>
      <trkpt lat="45.855" lon="4.66603">
        <ele>208.61026</ele>
        <time>2023-11-23T08:21:00.000Z</time>
      </trkpt>
      <trkpt lat="45.85501" lon="4.66596">
        <ele>208.63823</ele>
        <time>2023-11-23T08:21:01.000Z</time>
      </trkpt>
      <trkpt lat="45.85502" lon="4.66588">
        <ele>208.63168</ele>
        <time>2023-11-23T08:21:02.000Z</time>
      </trkpt>
      <trkpt lat="45.85502" lon="4.66581">
        <ele>208.63106</ele>
        <time>2023-11-23T08:21:03.000Z</time>
      </trkpt>
      <trkpt lat="45.85501" lon="4.66575">
        <ele>208.62503</ele>
        <time>2023-11-23T08:21:04.000Z</time>
      </trkpt>
      <trkpt lat="45.855" lon="4.66569">
        <ele>208.66019</ele>
        <time>2023-11-23T08:21:05.000Z</time>
      </trkpt>
      <trkpt lat="45.85495" lon="4.66565">
        <ele>208.65007</ele>
        <time>2023-11-23T08:21:06.000Z</time>
      </trkpt>
      <trkpt lat="45.85491" lon="4.66564">
        <ele>208.69621</ele>
        <time>2023-11-23T08:21:07.000Z</time>
      </trkpt>
      <trkpt lat="45.85486" lon="4.66562">
        <ele>208.76175</ele>
        <time>2023-11-23T08:21:08.000Z</time>
      </trkpt>
      <trkpt lat="45.85482" lon="4.66559">
        <ele>208.82544</ele>
        <time>2023-11-23T08:21:09.000Z</time>
      </trkpt>
      <trkpt lat="45.85478" lon="4.66558">
        <ele>208.92477</ele>
        <time>2023-11-23T08:21:10.000Z</time>
      </trkpt>
      <trkpt lat="45.85475" lon="4.66555">
        <ele>208.98459</ele>
        <time>2023-11-23T08:21:11.000Z</time>
      </trkpt>
      <trkpt lat="45.85473" lon="4.6655">
        <ele>209.09189</ele>
        <time>2023-11-23T08:21:12.000Z</time>
      </trkpt>
      <trkpt lat="45.85472" lon="4.66545">
        <ele>209.20512</ele>
        <time>2023-11-23T08:21:13.000Z</time>
      </trkpt>
      <trkpt lat="45.85472" lon="4.66539">
        <ele>209.28738</ele>
        <time>2023-11-23T08:21:14.000Z</time>
      </trkpt>
      <trkpt lat="45.85471" lon="4.66533">
        <ele>209.36734</ele>
        <time>2023-11-23T08:21:15.000Z</time>
      </trkpt>
      <trkpt lat="45.85471" lon="4.66529">
        <ele>209.52425</ele>
        <time>2023-11-23T08:21:16.000Z</time>
      </trkpt>
      <trkpt lat="45.85471" lon="4.66523">
        <ele>209.70505</ele>
        <time>2023-11-23T08:21:17.000Z</time>
      </trkpt>
      <trkpt lat="45.85469" lon="4.66518">
        <ele>209.84737</ele>
        <time>2023-11-23T08:21:18.000Z</time>
      </trkpt>
      <trkpt lat="45.85468" lon="4.66512">
        <ele>209.97678</ele>
        <time>2023-11-23T08:21:19.000Z</time>
      </trkpt>
      <trkpt lat="45.85467" lon="4.66507">
        <ele>210.10074</ele>
        <time>2023-11-23T08:21:20.000Z</time>
      </trkpt>
      <trkpt lat="45.85466" lon="4.66504">
        <ele>210.14493</ele>
        <time>2023-11-23T08:21:21.000Z</time>
      </trkpt>
      <trkpt lat="45.85466" lon="4.66501">
        <ele>210.19077</ele>
        <time>2023-11-23T08:21:22.000Z</time>
      </trkpt>
      <trkpt lat="45.85466" lon="4.66496">
        <ele>210.26596</ele>
        <time>2023-11-23T08:21:23.000Z</time>
      </trkpt>
      <trkpt lat="45.85466" lon="4.66492">
        <ele>210.354</ele>
        <time>2023-11-23T08:21:24.000Z</time>
      </trkpt>
      <trkpt lat="45.85466" lon="4.66487">
        <ele>210.42563</ele>
        <time>2023-11-23T08:21:25.000Z</time>
      </trkpt>
      <trkpt lat="45.85467" lon="4.66482">
        <ele>210.50705</ele>
        <time>2023-11-23T08:21:26.000Z</time>
      </trkpt>
      <trkpt lat="45.85468" lon="4.66477">
        <ele>210.58423</ele>
        <time>2023-11-23T08:21:27.000Z</time>
      </trkpt>
      <trkpt lat="45.85469" lon="4.66472">
        <ele>210.66496</ele>
        <time>2023-11-23T08:21:28.000Z</time>
      </trkpt>
      <trkpt lat="45.8547" lon="4.66466">
        <ele>210.77339</ele>
        <time>2023-11-23T08:21:29.000Z</time>
      </trkpt>
      <trkpt lat="45.85471" lon="4.66461">
        <ele>210.85539</ele>
        <time>2023-11-23T08:21:30.000Z</time>
      </trkpt>
      <trkpt lat="45.85473" lon="4.66456">
        <ele>210.97949</ele>
        <time>2023-11-23T08:21:31.000Z</time>
      </trkpt>
      <trkpt lat="45.85474" lon="4.6645">
        <ele>211.0562</ele>
        <time>2023-11-23T08:21:32.000Z</time>
      </trkpt>
      <trkpt lat="45.85475" lon="4.66446">
        <ele>211.1655</ele>
        <time>2023-11-23T08:21:33.000Z</time>
      </trkpt>
      <trkpt lat="45.85476" lon="4.66441">
        <ele>211.33293</ele>
        <time>2023-11-23T08:21:34.000Z</time>
      </trkpt>
      <trkpt lat="45.85477" lon="4.66436">
        <ele>211.52068</ele>
        <time>2023-11-23T08:21:35.000Z</time>
      </trkpt>
      <trkpt lat="45.85478" lon="4.6643">
        <ele>211.67825</ele>
        <time>2023-11-23T08:21:36.000Z</time>
      </trkpt>
      <trkpt lat="45.85479" lon="4.66424">
        <ele>211.86174</ele>
        <time>2023-11-23T08:21:37.000Z</time>
      </trkpt>
      <trkpt lat="45.8548" lon="4.66418">
        <ele>212.03862</ele>
        <time>2023-11-23T08:21:38.000Z</time>
      </trkpt>
      <trkpt lat="45.85482" lon="4.66412">
        <ele>212.21342</ele>
        <time>2023-11-23T08:21:39.000Z</time>
      </trkpt>
      <trkpt lat="45.85483" lon="4.66407">
        <ele>212.43076</ele>
        <time>2023-11-23T08:21:40.000Z</time>
      </trkpt>
      <trkpt lat="45.85484" lon="4.66401">
        <ele>212.78215</ele>
        <time>2023-11-23T08:21:41.000Z</time>
      </trkpt>
      <trkpt lat="45.85486" lon="4.66394">
        <ele>213.19731</ele>
        <time>2023-11-23T08:21:42.000Z</time>
      </trkpt>
      <trkpt lat="45.85487" lon="4.66388">
        <ele>213.61707</ele>
        <time>2023-11-23T08:21:43.000Z</time>
      </trkpt>
      <trkpt lat="45.85489" lon="4.66382">
        <ele>213.95296</ele>
        <time>2023-11-23T08:21:44.000Z</time>
      </trkpt>
      <trkpt lat="45.8549" lon="4.66375">
        <ele>214.28194</ele>
        <time>2023-11-23T08:21:45.000Z</time>
      </trkpt>
      <trkpt lat="45.8549" lon="4.6637">
        <ele>214.67476</ele>
        <time>2023-11-23T08:21:46.000Z</time>
      </trkpt>
      <trkpt lat="45.85491" lon="4.66364">
        <ele>215.07381</ele>
        <time>2023-11-23T08:21:47.000Z</time>
      </trkpt>
      <trkpt lat="45.85491" lon="4.66358">
        <ele>215.46663</ele>
        <time>2023-11-23T08:21:48.000Z</time>
      </trkpt>
      <trkpt lat="45.85492" lon="4.66352">
        <ele>215.82959</ele>
        <time>2023-11-23T08:21:49.000Z</time>
      </trkpt>
      <trkpt lat="45.85493" lon="4.66346">
        <ele>216.17513</ele>
        <time>2023-11-23T08:21:50.000Z</time>
      </trkpt>
      <trkpt lat="45.85493" lon="4.6634">
        <ele>216.51579</ele>
        <time>2023-11-23T08:21:51.000Z</time>
      </trkpt>
      <trkpt lat="45.85494" lon="4.66334">
        <ele>216.8521</ele>
        <time>2023-11-23T08:21:52.000Z</time>
      </trkpt>
      <trkpt lat="45.85495" lon="4.6633">
        <ele>217.23238</ele>
        <time>2023-11-23T08:21:53.000Z</time>
      </trkpt>
      <trkpt lat="45.85496" lon="4.66325">
        <ele>217.5627</ele>
        <time>2023-11-23T08:21:54.000Z</time>
      </trkpt>
      <trkpt lat="45.85496" lon="4.66322">
        <ele>217.85234</ele>
        <time>2023-11-23T08:21:55.000Z</time>
      </trkpt>
      <trkpt lat="45.85498" lon="4.66319">
        <ele>218.08064</ele>
        <time>2023-11-23T08:21:56.000Z</time>
      </trkpt>
      <trkpt lat="45.85499" lon="4.66315">
        <ele>218.28516</ele>
        <time>2023-11-23T08:21:57.000Z</time>
      </trkpt>
      <trkpt lat="45.855" lon="4.66312">
        <ele>218.51424</ele>
        <time>2023-11-23T08:21:58.000Z</time>
      </trkpt>
      <trkpt lat="45.85501" lon="4.66308">
        <ele>218.78622</ele>
        <time>2023-11-23T08:21:59.000Z</time>
      </trkpt>
      <trkpt lat="45.85502" lon="4.66305">
        <ele>219.04153</ele>
        <time>2023-11-23T08:22:00.000Z</time>
      </trkpt>
      <trkpt lat="45.85503" lon="4.66302">
        <ele>219.25919</ele>
        <time>2023-11-23T08:22:01.000Z</time>
      </trkpt>
      <trkpt lat="45.85504" lon="4.66297">
        <ele>219.51123</ele>
        <time>2023-11-23T08:22:03.000Z</time>
      </trkpt>
      <trkpt lat="45.85504" lon="4.66293">
        <ele>219.74373</ele>
        <time>2023-11-23T08:22:04.000Z</time>
      </trkpt>
      <trkpt lat="45.85505" lon="4.66291">
        <ele>220.04546</ele>
        <time>2023-11-23T08:22:05.000Z</time>
      </trkpt>
      <trkpt lat="45.85505" lon="4.66288">
        <ele>220.3259</ele>
        <time>2023-11-23T08:22:06.000Z</time>
      </trkpt>
      <trkpt lat="45.85506" lon="4.66285">
        <ele>220.54597</ele>
        <time>2023-11-23T08:22:07.000Z</time>
      </trkpt>
      <trkpt lat="45.85507" lon="4.66282">
        <ele>220.74533</ele>
        <time>2023-11-23T08:22:08.000Z</time>
      </trkpt>
      <trkpt lat="45.85507" lon="4.66279">
        <ele>220.9166</ele>
        <time>2023-11-23T08:22:09.000Z</time>
      </trkpt>
      <trkpt lat="45.85507" lon="4.66275">
        <ele>221.10068</ele>
        <time>2023-11-23T08:22:10.000Z</time>
      </trkpt>
      <trkpt lat="45.85508" lon="4.66271">
        <ele>221.28235</ele>
        <time>2023-11-23T08:22:11.000Z</time>
      </trkpt>
      <trkpt lat="45.85509" lon="4.66267">
        <ele>221.49898</ele>
        <time>2023-11-23T08:22:12.000Z</time>
      </trkpt>
      <trkpt lat="45.85511" lon="4.66263">
        <ele>221.72354</ele>
        <time>2023-11-23T08:22:13.000Z</time>
      </trkpt>
      <trkpt lat="45.85512" lon="4.66258">
        <ele>221.85574</ele>
        <time>2023-11-23T08:22:14.000Z</time>
      </trkpt>
      <trkpt lat="45.85512" lon="4.66253">
        <ele>221.97537</ele>
        <time>2023-11-23T08:22:15.000Z</time>
      </trkpt>
      <trkpt lat="45.85513" lon="4.66248">
        <ele>222.09341</ele>
        <time>2023-11-23T08:22:16.000Z</time>
      </trkpt>
      <trkpt lat="45.85514" lon="4.66243">
        <ele>222.24014</ele>
        <time>2023-11-23T08:22:17.000Z</time>
      </trkpt>
      <trkpt lat="45.85515" lon="4.66237">
        <ele>222.40926</ele>
        <time>2023-11-23T08:22:18.000Z</time>
      </trkpt>
      <trkpt lat="45.85516" lon="4.66233">
        <ele>222.5938</ele>
        <time>2023-11-23T08:22:19.000Z</time>
      </trkpt>
      <trkpt lat="45.85517" lon="4.66228">
        <ele>222.74905</ele>
        <time>2023-11-23T08:22:20.000Z</time>
      </trkpt>
      <trkpt lat="45.85519" lon="4.66223">
        <ele>222.84981</ele>
        <time>2023-11-23T08:22:21.000Z</time>
      </trkpt>
      <trkpt lat="45.8552" lon="4.66218">
        <ele>222.95366</ele>
        <time>2023-11-23T08:22:22.000Z</time>
      </trkpt>
      <trkpt lat="45.85521" lon="4.66212">
        <ele>222.95279</ele>
        <time>2023-11-23T08:22:23.000Z</time>
      </trkpt>
      <trkpt lat="45.85522" lon="4.66206">
        <ele>222.94707</ele>
        <time>2023-11-23T08:22:24.000Z</time>
      </trkpt>
      <trkpt lat="45.85522" lon="4.662">
        <ele>222.93668</ele>
        <time>2023-11-23T08:22:25.000Z</time>
      </trkpt>
      <trkpt lat="45.85523" lon="4.66194">
        <ele>222.85579</ele>
        <time>2023-11-23T08:22:26.000Z</time>
      </trkpt>
      <trkpt lat="45.85524" lon="4.66188">
        <ele>222.75415</ele>
        <time>2023-11-23T08:22:27.000Z</time>
      </trkpt>
      <trkpt lat="45.85525" lon="4.66182">
        <ele>222.66411</ele>
        <time>2023-11-23T08:22:28.000Z</time>
      </trkpt>
      <trkpt lat="45.85525" lon="4.66175">
        <ele>222.53442</ele>
        <time>2023-11-23T08:22:29.000Z</time>
      </trkpt>
      <trkpt lat="45.85526" lon="4.66168">
        <ele>222.38809</ele>
        <time>2023-11-23T08:22:30.000Z</time>
      </trkpt>
      <trkpt lat="45.85527" lon="4.66163">
        <ele>222.41646</ele>
        <time>2023-11-23T08:22:31.000Z</time>
      </trkpt>
      <trkpt lat="45.85527" lon="4.66156">
        <ele>222.39136</ele>
        <time>2023-11-23T08:22:32.000Z</time>
      </trkpt>
      <trkpt lat="45.85528" lon="4.66149">
        <ele>222.35037</ele>
        <time>2023-11-23T08:22:33.000Z</time>
      </trkpt>
      <trkpt lat="45.85528" lon="4.66143">
        <ele>222.32227</ele>
        <time>2023-11-23T08:22:34.000Z</time>
      </trkpt>
      <trkpt lat="45.85528" lon="4.66136">
        <ele>222.30823</ele>
        <time>2023-11-23T08:22:35.000Z</time>
      </trkpt>
      <trkpt lat="45.85527" lon="4.66129">
        <ele>222.32739</ele>
        <time>2023-11-23T08:22:36.000Z</time>
      </trkpt>
      <trkpt lat="45.85526" lon="4.66122">
        <ele>222.29932</ele>
        <time>2023-11-23T08:22:37.000Z</time>
      </trkpt>
      <trkpt lat="45.85526" lon="4.66116">
        <ele>222.26582</ele>
        <time>2023-11-23T08:22:38.000Z</time>
      </trkpt>
      <trkpt lat="45.85526" lon="4.6611">
        <ele>222.19046</ele>
        <time>2023-11-23T08:22:39.000Z</time>
      </trkpt>
      <trkpt lat="45.85526" lon="4.66103">
        <ele>222.11333</ele>
        <time>2023-11-23T08:22:40.000Z</time>
      </trkpt>
      <trkpt lat="45.85525" lon="4.66097">
        <ele>222.0614</ele>
        <time>2023-11-23T08:22:41.000Z</time>
      </trkpt>
      <trkpt lat="45.85524" lon="4.66091">
        <ele>221.9799</ele>
        <time>2023-11-23T08:22:42.000Z</time>
      </trkpt>
      <trkpt lat="45.85524" lon="4.66086">
        <ele>221.86565</ele>
        <time>2023-11-23T08:22:43.000Z</time>
      </trkpt>
      <trkpt lat="45.85524" lon="4.66081">
        <ele>221.72775</ele>
        <time>2023-11-23T08:22:44.000Z</time>
      </trkpt>
      <trkpt lat="45.85523" lon="4.66074">
        <ele>221.75061</ele>
        <time>2023-11-23T08:22:45.000Z</time>
      </trkpt>
      <trkpt lat="45.85523" lon="4.66068">
        <ele>221.8177</ele>
        <time>2023-11-23T08:22:46.000Z</time>
      </trkpt>
      <trkpt lat="45.85522" lon="4.66062">
        <ele>221.89978</ele>
        <time>2023-11-23T08:22:47.000Z</time>
      </trkpt>
      <trkpt lat="45.85522" lon="4.66056">
        <ele>221.97112</ele>
        <time>2023-11-23T08:22:48.000Z</time>
      </trkpt>
      <trkpt lat="45.85521" lon="4.6605">
        <ele>222.09628</ele>
        <time>2023-11-23T08:22:49.000Z</time>
      </trkpt>
      <trkpt lat="45.8552" lon="4.66044">
        <ele>222.25671</ele>
        <time>2023-11-23T08:22:50.000Z</time>
      </trkpt>
      <trkpt lat="45.8552" lon="4.66038">
        <ele>222.24155</ele>
        <time>2023-11-23T08:22:51.000Z</time>
      </trkpt>
      <trkpt lat="45.85519" lon="4.66032">
        <ele>222.23172</ele>
        <time>2023-11-23T08:22:52.000Z</time>
      </trkpt>
      <trkpt lat="45.85518" lon="4.66026">
        <ele>222.16785</ele>
        <time>2023-11-23T08:22:53.000Z</time>
      </trkpt>
      <trkpt lat="45.85517" lon="4.66021">
        <ele>222.06905</ele>
        <time>2023-11-23T08:22:54.000Z</time>
      </trkpt>
      <trkpt lat="45.85517" lon="4.66015">
        <ele>221.94824</ele>
        <time>2023-11-23T08:22:55.000Z</time>
      </trkpt>
      <trkpt lat="45.85517" lon="4.66009">
        <ele>221.98392</ele>
        <time>2023-11-23T08:22:56.000Z</time>
      </trkpt>
      <trkpt lat="45.85516" lon="4.66003">
        <ele>222.02632</ele>
        <time>2023-11-23T08:22:57.000Z</time>
      </trkpt>
      <trkpt lat="45.85516" lon="4.65997">
        <ele>222.06198</ele>
        <time>2023-11-23T08:22:58.000Z</time>
      </trkpt>
      <trkpt lat="45.85517" lon="4.6599">
        <ele>222.11238</ele>
        <time>2023-11-23T08:22:59.000Z</time>
      </trkpt>
      <trkpt lat="45.85517" lon="4.65983">
        <ele>222.14458</ele>
        <time>2023-11-23T08:23:00.000Z</time>
      </trkpt>
      <trkpt lat="45.85517" lon="4.65976">
        <ele>222.16594</ele>
        <time>2023-11-23T08:23:01.000Z</time>
      </trkpt>
      <trkpt lat="45.85518" lon="4.65969">
        <ele>222.16646</ele>
        <time>2023-11-23T08:23:02.000Z</time>
      </trkpt>
      <trkpt lat="45.85518" lon="4.65962">
        <ele>222.18823</ele>
        <time>2023-11-23T08:23:03.000Z</time>
      </trkpt>
      <trkpt lat="45.85517" lon="4.65954">
        <ele>222.19402</ele>
        <time>2023-11-23T08:23:04.000Z</time>
      </trkpt>
      <trkpt lat="45.85516" lon="4.65947">
        <ele>222.03836</ele>
        <time>2023-11-23T08:23:05.000Z</time>
      </trkpt>
      <trkpt lat="45.85515" lon="4.6594">
        <ele>221.90068</ele>
        <time>2023-11-23T08:23:06.000Z</time>
      </trkpt>
      <trkpt lat="45.85515" lon="4.65933">
        <ele>221.74426</ele>
        <time>2023-11-23T08:23:07.000Z</time>
      </trkpt>
      <trkpt lat="45.85514" lon="4.65928">
        <ele>221.56819</ele>
        <time>2023-11-23T08:23:08.000Z</time>
      </trkpt>
      <trkpt lat="45.85511" lon="4.65924">
        <ele>221.41158</ele>
        <time>2023-11-23T08:23:09.000Z</time>
      </trkpt>
      <trkpt lat="45.85509" lon="4.65921">
        <ele>221.23152</ele>
        <time>2023-11-23T08:23:10.000Z</time>
      </trkpt>
      <trkpt lat="45.85505" lon="4.6592">
        <ele>221.05704</ele>
        <time>2023-11-23T08:23:11.000Z</time>
      </trkpt>
      <trkpt lat="45.855" lon="4.65919">
        <ele>220.87756</ele>
        <time>2023-11-23T08:23:12.000Z</time>
      </trkpt>
      <trkpt lat="45.85495" lon="4.65918">
        <ele>220.72818</ele>
        <time>2023-11-23T08:23:13.000Z</time>
      </trkpt>
      <trkpt lat="45.85492" lon="4.65915">
        <ele>220.58887</ele>
        <time>2023-11-23T08:23:14.000Z</time>
      </trkpt>
      <trkpt lat="45.85488" lon="4.65912">
        <ele>220.42441</ele>
        <time>2023-11-23T08:23:15.000Z</time>
      </trkpt>
      <trkpt lat="45.85484" lon="4.65912">
        <ele>220.11653</ele>
        <time>2023-11-23T08:23:16.000Z</time>
      </trkpt>
      <trkpt lat="45.8548" lon="4.65915">
        <ele>219.82022</ele>
        <time>2023-11-23T08:23:17.000Z</time>
      </trkpt>
      <trkpt lat="45.85475" lon="4.65915">
        <ele>219.50003</ele>
        <time>2023-11-23T08:23:18.000Z</time>
      </trkpt>
      <trkpt lat="45.85472" lon="4.65913">
        <ele>219.15805</ele>
        <time>2023-11-23T08:23:19.000Z</time>
      </trkpt>
      <trkpt lat="45.85466" lon="4.65913">
        <ele>218.90482</ele>
        <time>2023-11-23T08:23:21.000Z</time>
      </trkpt>
      <trkpt lat="45.85462" lon="4.65914">
        <ele>218.71619</ele>
        <time>2023-11-23T08:23:22.000Z</time>
      </trkpt>
      <trkpt lat="45.85458" lon="4.65914">
        <ele>218.58672</ele>
        <time>2023-11-23T08:23:23.000Z</time>
      </trkpt>
      <trkpt lat="45.85455" lon="4.65912">
        <ele>218.5148</ele>
        <time>2023-11-23T08:23:24.000Z</time>
      </trkpt>
      <trkpt lat="45.85451" lon="4.65911">
        <ele>218.47978</ele>
        <time>2023-11-23T08:23:25.000Z</time>
      </trkpt>
      <trkpt lat="45.85446" lon="4.65908">
        <ele>218.43509</ele>
        <time>2023-11-23T08:23:26.000Z</time>
      </trkpt>
      <trkpt lat="45.85443" lon="4.65905">
        <ele>218.50854</ele>
        <time>2023-11-23T08:23:27.000Z</time>
      </trkpt>
      <trkpt lat="45.85439" lon="4.65902">
        <ele>218.55742</ele>
        <time>2023-11-23T08:23:28.000Z</time>
      </trkpt>
      <trkpt lat="45.85436" lon="4.65899">
        <ele>218.61868</ele>
        <time>2023-11-23T08:23:29.000Z</time>
      </trkpt>
      <trkpt lat="45.85431" lon="4.65901">
        <ele>218.66866</ele>
        <time>2023-11-23T08:23:30.000Z</time>
      </trkpt>
      <trkpt lat="45.85429" lon="4.65899">
        <ele>218.68399</ele>
        <time>2023-11-23T08:23:31.000Z</time>
      </trkpt>
      <trkpt lat="45.85425" lon="4.65898">
        <ele>218.73418</ele>
        <time>2023-11-23T08:23:32.000Z</time>
      </trkpt>
      <trkpt lat="45.85421" lon="4.65896">
        <ele>218.80252</ele>
        <time>2023-11-23T08:23:33.000Z</time>
      </trkpt>
      <trkpt lat="45.85417" lon="4.65894">
        <ele>218.93863</ele>
        <time>2023-11-23T08:23:34.000Z</time>
      </trkpt>
      <trkpt lat="45.85413" lon="4.65891">
        <ele>219.11777</ele>
        <time>2023-11-23T08:23:35.000Z</time>
      </trkpt>
      <trkpt lat="45.8541" lon="4.65888">
        <ele>219.25375</ele>
        <time>2023-11-23T08:23:36.000Z</time>
      </trkpt>
      <trkpt lat="45.85407" lon="4.65885">
        <ele>219.39156</ele>
        <time>2023-11-23T08:23:37.000Z</time>
      </trkpt>
      <trkpt lat="45.85403" lon="4.65883">
        <ele>219.62155</ele>
        <time>2023-11-23T08:23:38.000Z</time>
      </trkpt>
      <trkpt lat="45.85399" lon="4.6588">
        <ele>219.87219</ele>
        <time>2023-11-23T08:23:39.000Z</time>
      </trkpt>
      <trkpt lat="45.85395" lon="4.65877">
        <ele>220.34158</ele>
        <time>2023-11-23T08:23:40.000Z</time>
      </trkpt>
      <trkpt lat="45.85391" lon="4.65875">
        <ele>220.68558</ele>
        <time>2023-11-23T08:23:41.000Z</time>
      </trkpt>
      <trkpt lat="45.85388" lon="4.65873">
        <ele>220.94455</ele>
        <time>2023-11-23T08:23:42.000Z</time>
      </trkpt>
      <trkpt lat="45.85385" lon="4.65871">
        <ele>221.12398</ele>
        <time>2023-11-23T08:23:43.000Z</time>
      </trkpt>
      <trkpt lat="45.85381" lon="4.65868">
        <ele>221.30466</ele>
        <time>2023-11-23T08:23:44.000Z</time>
      </trkpt>
      <trkpt lat="45.85377" lon="4.65864">
        <ele>221.382</ele>
        <time>2023-11-23T08:23:45.000Z</time>
      </trkpt>
      <trkpt lat="45.85372" lon="4.65861">
        <ele>221.45212</ele>
        <time>2023-11-23T08:23:46.000Z</time>
      </trkpt>
      <trkpt lat="45.85369" lon="4.65858">
        <ele>221.39438</ele>
        <time>2023-11-23T08:23:47.000Z</time>
      </trkpt>
      <trkpt lat="45.85365" lon="4.65855">
        <ele>221.3372</ele>
        <time>2023-11-23T08:23:48.000Z</time>
      </trkpt>
      <trkpt lat="45.8536" lon="4.65852">
        <ele>221.25003</ele>
        <time>2023-11-23T08:23:49.000Z</time>
      </trkpt>
      <trkpt lat="45.85359" lon="4.65848">
        <ele>221.17599</ele>
        <time>2023-11-23T08:23:50.000Z</time>
      </trkpt>
      <trkpt lat="45.85353" lon="4.65842">
        <ele>221.13242</ele>
        <time>2023-11-23T08:23:51.000Z</time>
      </trkpt>
      <trkpt lat="45.85348" lon="4.65842">
        <ele>221.09409</ele>
        <time>2023-11-23T08:23:52.000Z</time>
      </trkpt>
      <trkpt lat="45.85344" lon="4.65842">
        <ele>221.14661</ele>
        <time>2023-11-23T08:23:53.000Z</time>
      </trkpt>
      <trkpt lat="45.85339" lon="4.65841">
        <ele>221.3273</ele>
        <time>2023-11-23T08:23:54.000Z</time>
      </trkpt>
      <trkpt lat="45.85335" lon="4.65838">
        <ele>221.54988</ele>
        <time>2023-11-23T08:23:55.000Z</time>
      </trkpt>
      <trkpt lat="45.85331" lon="4.65836">
        <ele>221.89046</ele>
        <time>2023-11-23T08:23:56.000Z</time>
      </trkpt>
      <trkpt lat="45.85327" lon="4.65834">
        <ele>222.23703</ele>
        <time>2023-11-23T08:23:57.000Z</time>
      </trkpt>
      <trkpt lat="45.85324" lon="4.65833">
        <ele>222.56267</ele>
        <time>2023-11-23T08:23:58.000Z</time>
      </trkpt>
      <trkpt lat="45.85321" lon="4.65833">
        <ele>222.91829</ele>
        <time>2023-11-23T08:23:59.000Z</time>
      </trkpt>
      <trkpt lat="45.85318" lon="4.65834">
        <ele>223.11508</ele>
        <time>2023-11-23T08:24:00.000Z</time>
      </trkpt>
      <trkpt lat="45.85315" lon="4.65836">
        <ele>223.38644</ele>
        <time>2023-11-23T08:24:01.000Z</time>
      </trkpt>
      <trkpt lat="45.85313" lon="4.6584">
        <ele>223.72385</ele>
        <time>2023-11-23T08:24:02.000Z</time>
      </trkpt>
      <trkpt lat="45.85311" lon="4.65845">
        <ele>224.1241</ele>
        <time>2023-11-23T08:24:03.000Z</time>
      </trkpt>
      <trkpt lat="45.85309" lon="4.6585">
        <ele>224.73279</ele>
        <time>2023-11-23T08:24:04.000Z</time>
      </trkpt>
      <trkpt lat="45.85308" lon="4.65855">
        <ele>225.46146</ele>
        <time>2023-11-23T08:24:05.000Z</time>
      </trkpt>
      <trkpt lat="45.85307" lon="4.65861">
        <ele>226.10538</ele>
        <time>2023-11-23T08:24:06.000Z</time>
      </trkpt>
      <trkpt lat="45.85307" lon="4.65867">
        <ele>226.77902</ele>
        <time>2023-11-23T08:24:07.000Z</time>
      </trkpt>
      <trkpt lat="45.85306" lon="4.65873">
        <ele>227.50778</ele>
        <time>2023-11-23T08:24:08.000Z</time>
      </trkpt>
      <trkpt lat="45.85306" lon="4.65879">
        <ele>228.1333</ele>
        <time>2023-11-23T08:24:09.000Z</time>
      </trkpt>
      <trkpt lat="45.85307" lon="4.65885">
        <ele>228.67673</ele>
        <time>2023-11-23T08:24:10.000Z</time>
      </trkpt>
      <trkpt lat="45.85307" lon="4.6589">
        <ele>229.18533</ele>
        <time>2023-11-23T08:24:11.000Z</time>
      </trkpt>
      <trkpt lat="45.85307" lon="4.65895">
        <ele>229.57938</ele>
        <time>2023-11-23T08:24:12.000Z</time>
      </trkpt>
      <trkpt lat="45.85307" lon="4.659">
        <ele>230.19963</ele>
        <time>2023-11-23T08:24:13.000Z</time>
      </trkpt>
      <trkpt lat="45.85307" lon="4.65905">
        <ele>230.62529</ele>
        <time>2023-11-23T08:24:14.000Z</time>
      </trkpt>
      <trkpt lat="45.85308" lon="4.6591">
        <ele>231.00607</ele>
        <time>2023-11-23T08:24:15.000Z</time>
      </trkpt>
      <trkpt lat="45.85308" lon="4.65915">
        <ele>231.37737</ele>
        <time>2023-11-23T08:24:16.000Z</time>
      </trkpt>
      <trkpt lat="45.85308" lon="4.6592">
        <ele>231.76042</ele>
        <time>2023-11-23T08:24:17.000Z</time>
      </trkpt>
      <trkpt lat="45.85309" lon="4.65925">
        <ele>232.09941</ele>
        <time>2023-11-23T08:24:18.000Z</time>
      </trkpt>
      <trkpt lat="45.8531" lon="4.6593">
        <ele>232.26225</ele>
        <time>2023-11-23T08:24:19.000Z</time>
      </trkpt>
      <trkpt lat="45.8531" lon="4.65935">
        <ele>232.40457</ele>
        <time>2023-11-23T08:24:20.000Z</time>
      </trkpt>
      <trkpt lat="45.85309" lon="4.65939">
        <ele>232.54887</ele>
        <time>2023-11-23T08:24:21.000Z</time>
      </trkpt>
      <trkpt lat="45.85307" lon="4.65942">
        <ele>232.57646</ele>
        <time>2023-11-23T08:24:22.000Z</time>
      </trkpt>
      <trkpt lat="45.85304" lon="4.65943">
        <ele>232.8931</ele>
        <time>2023-11-23T08:24:23.000Z</time>
      </trkpt>
      <trkpt lat="45.85301" lon="4.65944">
        <ele>232.87131</ele>
        <time>2023-11-23T08:24:24.000Z</time>
      </trkpt>
      <trkpt lat="45.85298" lon="4.65945">
        <ele>232.8812</ele>
        <time>2023-11-23T08:24:25.000Z</time>
      </trkpt>
      <trkpt lat="45.85294" lon="4.65945">
        <ele>232.94739</ele>
        <time>2023-11-23T08:24:26.000Z</time>
      </trkpt>
      <trkpt lat="45.8529" lon="4.65945">
        <ele>233.01775</ele>
        <time>2023-11-23T08:24:27.000Z</time>
      </trkpt>
      <trkpt lat="45.85287" lon="4.65946">
        <ele>233.08904</ele>
        <time>2023-11-23T08:24:28.000Z</time>
      </trkpt>
      <trkpt lat="45.85283" lon="4.65946">
        <ele>233.27571</ele>
        <time>2023-11-23T08:24:29.000Z</time>
      </trkpt>
      <trkpt lat="45.85279" lon="4.65947">
        <ele>233.3345</ele>
        <time>2023-11-23T08:24:30.000Z</time>
      </trkpt>
      <trkpt lat="45.85274" lon="4.65948">
        <ele>233.42508</ele>
        <time>2023-11-23T08:24:31.000Z</time>
      </trkpt>
      <trkpt lat="45.8527" lon="4.6595">
        <ele>233.58505</ele>
        <time>2023-11-23T08:24:32.000Z</time>
      </trkpt>
      <trkpt lat="45.85267" lon="4.65952">
        <ele>233.46069</ele>
        <time>2023-11-23T08:24:33.000Z</time>
      </trkpt>
      <trkpt lat="45.85263" lon="4.65955">
        <ele>233.35568</ele>
        <time>2023-11-23T08:24:34.000Z</time>
      </trkpt>
      <trkpt lat="45.85261" lon="4.65958">
        <ele>233.16252</ele>
        <time>2023-11-23T08:24:35.000Z</time>
      </trkpt>
      <trkpt lat="45.85258" lon="4.65961">
        <ele>232.9364</ele>
        <time>2023-11-23T08:24:36.000Z</time>
      </trkpt>
      <trkpt lat="45.85255" lon="4.65964">
        <ele>233.02969</ele>
        <time>2023-11-23T08:24:37.000Z</time>
      </trkpt>
      <trkpt lat="45.85252" lon="4.65967">
        <ele>233.11601</ele>
        <time>2023-11-23T08:24:38.000Z</time>
      </trkpt>
      <trkpt lat="45.8525" lon="4.6597">
        <ele>233.38431</ele>
        <time>2023-11-23T08:24:39.000Z</time>
      </trkpt>
      <trkpt lat="45.85246" lon="4.65973">
        <ele>233.63582</ele>
        <time>2023-11-23T08:24:40.000Z</time>
      </trkpt>
      <trkpt lat="45.85243" lon="4.65976">
        <ele>233.8636</ele>
        <time>2023-11-23T08:24:41.000Z</time>
      </trkpt>
      <trkpt lat="45.85239" lon="4.65979">
        <ele>233.998</ele>
        <time>2023-11-23T08:24:42.000Z</time>
      </trkpt>
      <trkpt lat="45.85235" lon="4.6598">
        <ele>233.76315</ele>
        <time>2023-11-23T08:24:43.000Z</time>
      </trkpt>
      <trkpt lat="45.85231" lon="4.65981">
        <ele>233.6143</ele>
        <time>2023-11-23T08:24:44.000Z</time>
      </trkpt>
      <trkpt lat="45.85228" lon="4.65983">
        <ele>233.46399</ele>
        <time>2023-11-23T08:24:45.000Z</time>
      </trkpt>
      <trkpt lat="45.85224" lon="4.65984">
        <ele>233.33977</ele>
        <time>2023-11-23T08:24:46.000Z</time>
      </trkpt>
      <trkpt lat="45.8522" lon="4.65985">
        <ele>233.54834</ele>
        <time>2023-11-23T08:24:47.000Z</time>
      </trkpt>
      <trkpt lat="45.85216" lon="4.65986">
        <ele>233.68755</ele>
        <time>2023-11-23T08:24:48.000Z</time>
      </trkpt>
      <trkpt lat="45.85213" lon="4.65987">
        <ele>233.85086</ele>
        <time>2023-11-23T08:24:49.000Z</time>
      </trkpt>
      <trkpt lat="45.85209" lon="4.65988">
        <ele>234.21477</ele>
        <time>2023-11-23T08:24:50.000Z</time>
      </trkpt>
      <trkpt lat="45.85206" lon="4.65989">
        <ele>234.56827</ele>
        <time>2023-11-23T08:24:51.000Z</time>
      </trkpt>
      <trkpt lat="45.85202" lon="4.6599">
        <ele>234.80673</ele>
        <time>2023-11-23T08:24:52.000Z</time>
      </trkpt>
      <trkpt lat="45.85199" lon="4.65992">
        <ele>235.04472</ele>
        <time>2023-11-23T08:24:53.000Z</time>
      </trkpt>
      <trkpt lat="45.85196" lon="4.65994">
        <ele>235.31209</ele>
        <time>2023-11-23T08:24:54.000Z</time>
      </trkpt>
      <trkpt lat="45.85193" lon="4.65995">
        <ele>235.65439</ele>
        <time>2023-11-23T08:24:55.000Z</time>
      </trkpt>
      <trkpt lat="45.85189" lon="4.65997">
        <ele>235.97531</ele>
        <time>2023-11-23T08:24:56.000Z</time>
      </trkpt>
      <trkpt lat="45.85186" lon="4.65999">
        <ele>235.92618</ele>
        <time>2023-11-23T08:24:57.000Z</time>
      </trkpt>
      <trkpt lat="45.85183" lon="4.66001">
        <ele>235.89351</ele>
        <time>2023-11-23T08:24:58.000Z</time>
      </trkpt>
      <trkpt lat="45.85179" lon="4.66002">
        <ele>235.79878</ele>
        <time>2023-11-23T08:24:59.000Z</time>
      </trkpt>
      <trkpt lat="45.85175" lon="4.66004">
        <ele>235.65662</ele>
        <time>2023-11-23T08:25:00.000Z</time>
      </trkpt>
      <trkpt lat="45.85171" lon="4.66005">
        <ele>235.93779</ele>
        <time>2023-11-23T08:25:01.000Z</time>
      </trkpt>
      <trkpt lat="45.85168" lon="4.66005">
        <ele>236.37314</ele>
        <time>2023-11-23T08:25:02.000Z</time>
      </trkpt>
      <trkpt lat="45.85164" lon="4.66006">
        <ele>236.89853</ele>
        <time>2023-11-23T08:25:03.000Z</time>
      </trkpt>
      <trkpt lat="45.85161" lon="4.66007">
        <ele>237.47295</ele>
        <time>2023-11-23T08:25:04.000Z</time>
      </trkpt>
      <trkpt lat="45.85157" lon="4.66008">
        <ele>238.03117</ele>
        <time>2023-11-23T08:25:05.000Z</time>
      </trkpt>
      <trkpt lat="45.85153" lon="4.66009">
        <ele>238.63815</ele>
        <time>2023-11-23T08:25:06.000Z</time>
      </trkpt>
      <trkpt lat="45.8515" lon="4.6601">
        <ele>238.92883</ele>
        <time>2023-11-23T08:25:07.000Z</time>
      </trkpt>
      <trkpt lat="45.85146" lon="4.6601">
        <ele>239.21638</ele>
        <time>2023-11-23T08:25:08.000Z</time>
      </trkpt>
      <trkpt lat="45.85142" lon="4.66011">
        <ele>239.49162</ele>
        <time>2023-11-23T08:25:09.000Z</time>
      </trkpt>
      <trkpt lat="45.85138" lon="4.66011">
        <ele>239.75314</ele>
        <time>2023-11-23T08:25:10.000Z</time>
      </trkpt>
      <trkpt lat="45.85134" lon="4.66012">
        <ele>240.07549</ele>
        <time>2023-11-23T08:25:11.000Z</time>
      </trkpt>
      <trkpt lat="45.8513" lon="4.66014">
        <ele>240.51758</ele>
        <time>2023-11-23T08:25:12.000Z</time>
      </trkpt>
      <trkpt lat="45.85126" lon="4.66015">
        <ele>240.92981</ele>
        <time>2023-11-23T08:25:13.000Z</time>
      </trkpt>
      <trkpt lat="45.85122" lon="4.66017">
        <ele>241.34375</ele>
        <time>2023-11-23T08:25:14.000Z</time>
      </trkpt>
      <trkpt lat="45.85118" lon="4.66018">
        <ele>241.78134</ele>
        <time>2023-11-23T08:25:15.000Z</time>
      </trkpt>
      <trkpt lat="45.85114" lon="4.66019">
        <ele>242.27229</ele>
        <time>2023-11-23T08:25:16.000Z</time>
      </trkpt>
      <trkpt lat="45.8511" lon="4.6602">
        <ele>242.76189</ele>
        <time>2023-11-23T08:25:17.000Z</time>
      </trkpt>
      <trkpt lat="45.85107" lon="4.66021">
        <ele>243.23489</ele>
        <time>2023-11-23T08:25:18.000Z</time>
      </trkpt>
      <trkpt lat="45.85103" lon="4.66022">
        <ele>243.76657</ele>
        <time>2023-11-23T08:25:19.000Z</time>
      </trkpt>
      <trkpt lat="45.851" lon="4.66023">
        <ele>244.36807</ele>
        <time>2023-11-23T08:25:20.000Z</time>
      </trkpt>
      <trkpt lat="45.85097" lon="4.66023">
        <ele>244.54912</ele>
        <time>2023-11-23T08:25:21.000Z</time>
      </trkpt>
      <trkpt lat="45.85093" lon="4.66024">
        <ele>244.76709</ele>
        <time>2023-11-23T08:25:22.000Z</time>
      </trkpt>
      <trkpt lat="45.8509" lon="4.66025">
        <ele>244.70486</ele>
        <time>2023-11-23T08:25:23.000Z</time>
      </trkpt>
      <trkpt lat="45.85086" lon="4.66025">
        <ele>244.56755</ele>
        <time>2023-11-23T08:25:24.000Z</time>
      </trkpt>
      <trkpt lat="45.85083" lon="4.66026">
        <ele>244.87546</ele>
        <time>2023-11-23T08:25:25.000Z</time>
      </trkpt>
      <trkpt lat="45.85079" lon="4.66027">
        <ele>245.0275</ele>
        <time>2023-11-23T08:25:26.000Z</time>
      </trkpt>
      <trkpt lat="45.85076" lon="4.66028">
        <ele>245.12744</ele>
        <time>2023-11-23T08:25:27.000Z</time>
      </trkpt>
      <trkpt lat="45.85072" lon="4.66029">
        <ele>245.26636</ele>
        <time>2023-11-23T08:25:28.000Z</time>
      </trkpt>
      <trkpt lat="45.85069" lon="4.6603">
        <ele>245.48389</ele>
        <time>2023-11-23T08:25:29.000Z</time>
      </trkpt>
      <trkpt lat="45.85066" lon="4.6603">
        <ele>245.728</ele>
        <time>2023-11-23T08:25:30.000Z</time>
      </trkpt>
      <trkpt lat="45.85062" lon="4.66031">
        <ele>245.96342</ele>
        <time>2023-11-23T08:25:31.000Z</time>
      </trkpt>
      <trkpt lat="45.85058" lon="4.66032">
        <ele>246.25345</ele>
        <time>2023-11-23T08:25:32.000Z</time>
      </trkpt>
      <trkpt lat="45.85055" lon="4.66032">
        <ele>246.56633</ele>
        <time>2023-11-23T08:25:33.000Z</time>
      </trkpt>
      <trkpt lat="45.85051" lon="4.66032">
        <ele>246.87698</ele>
        <time>2023-11-23T08:25:34.000Z</time>
      </trkpt>
      <trkpt lat="45.85048" lon="4.66032">
        <ele>246.84697</ele>
        <time>2023-11-23T08:25:35.000Z</time>
      </trkpt>
      <trkpt lat="45.85044" lon="4.66032">
        <ele>246.7843</ele>
        <time>2023-11-23T08:25:36.000Z</time>
      </trkpt>
      <trkpt lat="45.8504" lon="4.66032">
        <ele>246.78911</ele>
        <time>2023-11-23T08:25:37.000Z</time>
      </trkpt>
      <trkpt lat="45.85037" lon="4.66032">
        <ele>246.7253</ele>
        <time>2023-11-23T08:25:38.000Z</time>
      </trkpt>
      <trkpt lat="45.85033" lon="4.66032">
        <ele>247.19653</ele>
        <time>2023-11-23T08:25:39.000Z</time>
      </trkpt>
      <trkpt lat="45.8503" lon="4.66032">
        <ele>247.58215</ele>
        <time>2023-11-23T08:25:40.000Z</time>
      </trkpt>
      <trkpt lat="45.85026" lon="4.66033">
        <ele>247.97803</ele>
        <time>2023-11-23T08:25:41.000Z</time>
      </trkpt>
      <trkpt lat="45.85022" lon="4.66033">
        <ele>248.35185</ele>
        <time>2023-11-23T08:25:42.000Z</time>
      </trkpt>
      <trkpt lat="45.85018" lon="4.66033">
        <ele>248.99202</ele>
        <time>2023-11-23T08:25:43.000Z</time>
      </trkpt>
      <trkpt lat="45.85015" lon="4.66033">
        <ele>249.67834</ele>
        <time>2023-11-23T08:25:44.000Z</time>
      </trkpt>
      <trkpt lat="45.85011" lon="4.66033">
        <ele>249.90913</ele>
        <time>2023-11-23T08:25:45.000Z</time>
      </trkpt>
      <trkpt lat="45.85007" lon="4.66033">
        <ele>250.27681</ele>
        <time>2023-11-23T08:25:46.000Z</time>
      </trkpt>
      <trkpt lat="45.85004" lon="4.66032">
        <ele>250.65189</ele>
        <time>2023-11-23T08:25:47.000Z</time>
      </trkpt>
      <trkpt lat="45.85" lon="4.66032">
        <ele>251.05774</ele>
        <time>2023-11-23T08:25:48.000Z</time>
      </trkpt>
      <trkpt lat="45.84996" lon="4.66032">
        <ele>251.40491</ele>
        <time>2023-11-23T08:25:49.000Z</time>
      </trkpt>
      <trkpt lat="45.84992" lon="4.66031">
        <ele>251.38457</ele>
        <time>2023-11-23T08:25:50.000Z</time>
      </trkpt>
      <trkpt lat="45.84988" lon="4.66031">
        <ele>251.34578</ele>
        <time>2023-11-23T08:25:51.000Z</time>
      </trkpt>
      <trkpt lat="45.84985" lon="4.6603">
        <ele>251.26274</ele>
        <time>2023-11-23T08:25:52.000Z</time>
      </trkpt>
      <trkpt lat="45.84981" lon="4.6603">
        <ele>251.16988</ele>
        <time>2023-11-23T08:25:53.000Z</time>
      </trkpt>
      <trkpt lat="45.84977" lon="4.6603">
        <ele>251.05212</ele>
        <time>2023-11-23T08:25:54.000Z</time>
      </trkpt>
      <trkpt lat="45.84973" lon="4.6603">
        <ele>251.2399</ele>
        <time>2023-11-23T08:25:55.000Z</time>
      </trkpt>
      <trkpt lat="45.84969" lon="4.6603">
        <ele>252.03894</ele>
        <time>2023-11-23T08:25:56.000Z</time>
      </trkpt>
      <trkpt lat="45.84966" lon="4.6603">
        <ele>252.67708</ele>
        <time>2023-11-23T08:25:57.000Z</time>
      </trkpt>
      <trkpt lat="45.84962" lon="4.6603">
        <ele>253.41635</ele>
        <time>2023-11-23T08:25:58.000Z</time>
      </trkpt>
      <trkpt lat="45.84958" lon="4.66029">
        <ele>253.58414</ele>
        <time>2023-11-23T08:25:59.000Z</time>
      </trkpt>
      <trkpt lat="45.84954" lon="4.66029">
        <ele>253.80533</ele>
        <time>2023-11-23T08:26:00.000Z</time>
      </trkpt>
      <trkpt lat="45.8495" lon="4.66029">
        <ele>254.00932</ele>
        <time>2023-11-23T08:26:01.000Z</time>
      </trkpt>
      <trkpt lat="45.84947" lon="4.66028">
        <ele>254.2496</ele>
        <time>2023-11-23T08:26:02.000Z</time>
      </trkpt>
      <trkpt lat="45.84943" lon="4.66028">
        <ele>254.4653</ele>
        <time>2023-11-23T08:26:03.000Z</time>
      </trkpt>
      <trkpt lat="45.84939" lon="4.66027">
        <ele>254.6553</ele>
        <time>2023-11-23T08:26:04.000Z</time>
      </trkpt>
      <trkpt lat="45.84935" lon="4.66027">
        <ele>254.83926</ele>
        <time>2023-11-23T08:26:05.000Z</time>
      </trkpt>
      <trkpt lat="45.84931" lon="4.66026">
        <ele>255.01692</ele>
        <time>2023-11-23T08:26:06.000Z</time>
      </trkpt>
      <trkpt lat="45.84927" lon="4.66026">
        <ele>255.18571</ele>
        <time>2023-11-23T08:26:07.000Z</time>
      </trkpt>
      <trkpt lat="45.84923" lon="4.66025">
        <ele>255.33664</ele>
        <time>2023-11-23T08:26:08.000Z</time>
      </trkpt>
      <trkpt lat="45.84919" lon="4.66025">
        <ele>255.48868</ele>
        <time>2023-11-23T08:26:09.000Z</time>
      </trkpt>
      <trkpt lat="45.84915" lon="4.66024">
        <ele>256.01202</ele>
        <time>2023-11-23T08:26:10.000Z</time>
      </trkpt>
      <trkpt lat="45.84911" lon="4.66023">
        <ele>256.10876</ele>
        <time>2023-11-23T08:26:11.000Z</time>
      </trkpt>
      <trkpt lat="45.84907" lon="4.66022">
        <ele>256.19437</ele>
        <time>2023-11-23T08:26:12.000Z</time>
      </trkpt>
      <trkpt lat="45.84903" lon="4.66022">
        <ele>256.258</ele>
        <time>2023-11-23T08:26:13.000Z</time>
      </trkpt>
      <trkpt lat="45.84899" lon="4.66021">
        <ele>256.34137</ele>
        <time>2023-11-23T08:26:14.000Z</time>
      </trkpt>
      <trkpt lat="45.84895" lon="4.6602">
        <ele>256.44104</ele>
        <time>2023-11-23T08:26:15.000Z</time>
      </trkpt>
      <trkpt lat="45.84891" lon="4.66019">
        <ele>255.94133</ele>
        <time>2023-11-23T08:26:16.000Z</time>
      </trkpt>
      <trkpt lat="45.84887" lon="4.66019">
        <ele>255.54764</ele>
        <time>2023-11-23T08:26:17.000Z</time>
      </trkpt>
      <trkpt lat="45.84883" lon="4.66019">
        <ele>255.11243</ele>
        <time>2023-11-23T08:26:18.000Z</time>
      </trkpt>
      <trkpt lat="45.84879" lon="4.66019">
        <ele>254.62114</ele>
        <time>2023-11-23T08:26:19.000Z</time>
      </trkpt>
      <trkpt lat="45.84875" lon="4.66019">
        <ele>254.7865</ele>
        <time>2023-11-23T08:26:20.000Z</time>
      </trkpt>
      <trkpt lat="45.8487" lon="4.6602">
        <ele>254.8356</ele>
        <time>2023-11-23T08:26:21.000Z</time>
      </trkpt>
      <trkpt lat="45.84866" lon="4.66022">
        <ele>254.86719</ele>
        <time>2023-11-23T08:26:22.000Z</time>
      </trkpt>
      <trkpt lat="45.84862" lon="4.66024">
        <ele>254.93938</ele>
        <time>2023-11-23T08:26:23.000Z</time>
      </trkpt>
      <trkpt lat="45.84858" lon="4.66026">
        <ele>254.99483</ele>
        <time>2023-11-23T08:26:24.000Z</time>
      </trkpt>
      <trkpt lat="45.84854" lon="4.66027">
        <ele>255.06079</ele>
        <time>2023-11-23T08:26:25.000Z</time>
      </trkpt>
      <trkpt lat="45.8485" lon="4.66029">
        <ele>255.10242</ele>
        <time>2023-11-23T08:26:26.000Z</time>
      </trkpt>
      <trkpt lat="45.84846" lon="4.66031">
        <ele>255.20695</ele>
        <time>2023-11-23T08:26:27.000Z</time>
      </trkpt>
      <trkpt lat="45.84842" lon="4.66032">
        <ele>255.28166</ele>
        <time>2023-11-23T08:26:28.000Z</time>
      </trkpt>
      <trkpt lat="45.84838" lon="4.66034">
        <ele>255.36751</ele>
        <time>2023-11-23T08:26:29.000Z</time>
      </trkpt>
      <trkpt lat="45.84835" lon="4.66036">
        <ele>254.97351</ele>
        <time>2023-11-23T08:26:30.000Z</time>
      </trkpt>
      <trkpt lat="45.84831" lon="4.66038">
        <ele>254.97763</ele>
        <time>2023-11-23T08:26:31.000Z</time>
      </trkpt>
      <trkpt lat="45.84827" lon="4.6604">
        <ele>254.92383</ele>
        <time>2023-11-23T08:26:32.000Z</time>
      </trkpt>
      <trkpt lat="45.84823" lon="4.66042">
        <ele>254.86063</ele>
        <time>2023-11-23T08:26:33.000Z</time>
      </trkpt>
      <trkpt lat="45.84819" lon="4.66044">
        <ele>255.41599</ele>
        <time>2023-11-23T08:26:34.000Z</time>
      </trkpt>
      <trkpt lat="45.84816" lon="4.66046">
        <ele>255.84969</ele>
        <time>2023-11-23T08:26:35.000Z</time>
      </trkpt>
      <trkpt lat="45.84811" lon="4.66048">
        <ele>256.3017</ele>
        <time>2023-11-23T08:26:36.000Z</time>
      </trkpt>
      <trkpt lat="45.84807" lon="4.66049">
        <ele>256.7688</ele>
        <time>2023-11-23T08:26:37.000Z</time>
      </trkpt>
      <trkpt lat="45.84803" lon="4.66051">
        <ele>257.26147</ele>
        <time>2023-11-23T08:26:38.000Z</time>
      </trkpt>
      <trkpt lat="45.84799" lon="4.66052">
        <ele>257.82141</ele>
        <time>2023-11-23T08:26:39.000Z</time>
      </trkpt>
      <trkpt lat="45.84795" lon="4.66054">
        <ele>257.69144</ele>
        <time>2023-11-23T08:26:40.000Z</time>
      </trkpt>
      <trkpt lat="45.84791" lon="4.66056">
        <ele>257.7005</ele>
        <time>2023-11-23T08:26:41.000Z</time>
      </trkpt>
      <trkpt lat="45.84787" lon="4.66058">
        <ele>257.73154</ele>
        <time>2023-11-23T08:26:42.000Z</time>
      </trkpt>
      <trkpt lat="45.84783" lon="4.6606">
        <ele>257.74808</ele>
        <time>2023-11-23T08:26:43.000Z</time>
      </trkpt>
      <trkpt lat="45.84779" lon="4.66062">
        <ele>257.80936</ele>
        <time>2023-11-23T08:26:44.000Z</time>
      </trkpt>
      <trkpt lat="45.84774" lon="4.66065">
        <ele>257.81744</ele>
        <time>2023-11-23T08:26:45.000Z</time>
      </trkpt>
      <trkpt lat="45.84769" lon="4.66068">
        <ele>257.87732</ele>
        <time>2023-11-23T08:26:46.000Z</time>
      </trkpt>
      <trkpt lat="45.84765" lon="4.66071">
        <ele>257.9028</ele>
        <time>2023-11-23T08:26:47.000Z</time>
      </trkpt>
      <trkpt lat="45.84761" lon="4.66073">
        <ele>257.94122</ele>
        <time>2023-11-23T08:26:48.000Z</time>
      </trkpt>
      <trkpt lat="45.84756" lon="4.66075">
        <ele>257.97028</ele>
        <time>2023-11-23T08:26:49.000Z</time>
      </trkpt>
      <trkpt lat="45.84751" lon="4.66076">
        <ele>258.4953</ele>
        <time>2023-11-23T08:26:50.000Z</time>
      </trkpt>
      <trkpt lat="45.84747" lon="4.66078">
        <ele>259.03311</ele>
        <time>2023-11-23T08:26:51.000Z</time>
      </trkpt>
      <trkpt lat="45.84742" lon="4.66081">
        <ele>259.33194</ele>
        <time>2023-11-23T08:26:52.000Z</time>
      </trkpt>
      <trkpt lat="45.84738" lon="4.66084">
        <ele>259.48105</ele>
        <time>2023-11-23T08:26:53.000Z</time>
      </trkpt>
      <trkpt lat="45.84734" lon="4.66087">
        <ele>258.97083</ele>
        <time>2023-11-23T08:26:54.000Z</time>
      </trkpt>
      <trkpt lat="45.8473" lon="4.66088">
        <ele>259.19855</ele>
        <time>2023-11-23T08:26:55.000Z</time>
      </trkpt>
      <trkpt lat="45.84725" lon="4.66089">
        <ele>259.29172</ele>
        <time>2023-11-23T08:26:56.000Z</time>
      </trkpt>
      <trkpt lat="45.8472" lon="4.66091">
        <ele>259.34097</ele>
        <time>2023-11-23T08:26:57.000Z</time>
      </trkpt>
      <trkpt lat="45.84716" lon="4.66092">
        <ele>259.37589</ele>
        <time>2023-11-23T08:26:58.000Z</time>
      </trkpt>
      <trkpt lat="45.84712" lon="4.66093">
        <ele>259.41702</ele>
        <time>2023-11-23T08:26:59.000Z</time>
      </trkpt>
      <trkpt lat="45.84707" lon="4.66095">
        <ele>259.05469</ele>
        <time>2023-11-23T08:27:00.000Z</time>
      </trkpt>
      <trkpt lat="45.84703" lon="4.66097">
        <ele>258.72632</ele>
        <time>2023-11-23T08:27:01.000Z</time>
      </trkpt>
      <trkpt lat="45.84699" lon="4.66098">
        <ele>258.31207</ele>
        <time>2023-11-23T08:27:02.000Z</time>
      </trkpt>
      <trkpt lat="45.84695" lon="4.66099">
        <ele>258.47699</ele>
        <time>2023-11-23T08:27:03.000Z</time>
      </trkpt>
      <trkpt lat="45.84691" lon="4.66101">
        <ele>258.48804</ele>
        <time>2023-11-23T08:27:04.000Z</time>
      </trkpt>
      <trkpt lat="45.84687" lon="4.66103">
        <ele>258.57239</ele>
        <time>2023-11-23T08:27:05.000Z</time>
      </trkpt>
      <trkpt lat="45.84682" lon="4.66105">
        <ele>258.5708</ele>
        <time>2023-11-23T08:27:06.000Z</time>
      </trkpt>
      <trkpt lat="45.84677" lon="4.66107">
        <ele>258.57593</ele>
        <time>2023-11-23T08:27:07.000Z</time>
      </trkpt>
      <trkpt lat="45.84673" lon="4.66109">
        <ele>258.59357</ele>
        <time>2023-11-23T08:27:08.000Z</time>
      </trkpt>
      <trkpt lat="45.84668" lon="4.6611">
        <ele>258.58917</ele>
        <time>2023-11-23T08:27:09.000Z</time>
      </trkpt>
      <trkpt lat="45.84663" lon="4.66112">
        <ele>258.53473</ele>
        <time>2023-11-23T08:27:10.000Z</time>
      </trkpt>
      <trkpt lat="45.84659" lon="4.66113">
        <ele>258.49445</ele>
        <time>2023-11-23T08:27:11.000Z</time>
      </trkpt>
      <trkpt lat="45.84654" lon="4.66114">
        <ele>258.77008</ele>
        <time>2023-11-23T08:27:12.000Z</time>
      </trkpt>
      <trkpt lat="45.8465" lon="4.66117">
        <ele>259.20117</ele>
        <time>2023-11-23T08:27:13.000Z</time>
      </trkpt>
      <trkpt lat="45.84646" lon="4.66118">
        <ele>259.61441</ele>
        <time>2023-11-23T08:27:14.000Z</time>
      </trkpt>
      <trkpt lat="45.84642" lon="4.66121">
        <ele>259.42392</ele>
        <time>2023-11-23T08:27:15.000Z</time>
      </trkpt>
      <trkpt lat="45.84638" lon="4.66125">
        <ele>259.34415</ele>
        <time>2023-11-23T08:27:16.000Z</time>
      </trkpt>
      <trkpt lat="45.84635" lon="4.66128">
        <ele>259.30948</ele>
        <time>2023-11-23T08:27:17.000Z</time>
      </trkpt>
      <trkpt lat="45.8463" lon="4.66132">
        <ele>259.33023</ele>
        <time>2023-11-23T08:27:18.000Z</time>
      </trkpt>
      <trkpt lat="45.84626" lon="4.66136">
        <ele>259.31055</ele>
        <time>2023-11-23T08:27:19.000Z</time>
      </trkpt>
      <trkpt lat="45.84623" lon="4.66139">
        <ele>259.79916</ele>
        <time>2023-11-23T08:27:20.000Z</time>
      </trkpt>
      <trkpt lat="45.84619" lon="4.66142">
        <ele>260.21008</ele>
        <time>2023-11-23T08:27:21.000Z</time>
      </trkpt>
      <trkpt lat="45.84616" lon="4.66146">
        <ele>260.67279</ele>
        <time>2023-11-23T08:27:22.000Z</time>
      </trkpt>
      <trkpt lat="45.84613" lon="4.66149">
        <ele>260.17459</ele>
        <time>2023-11-23T08:27:23.000Z</time>
      </trkpt>
      <trkpt lat="45.8461" lon="4.66152">
        <ele>259.63983</ele>
        <time>2023-11-23T08:27:24.000Z</time>
      </trkpt>
      <trkpt lat="45.84608" lon="4.66155">
        <ele>259.00888</ele>
        <time>2023-11-23T08:27:25.000Z</time>
      </trkpt>
      <trkpt lat="45.84606" lon="4.66158">
        <ele>258.4494</ele>
        <time>2023-11-23T08:27:26.000Z</time>
      </trkpt>
      <trkpt lat="45.84603" lon="4.66159">
        <ele>258.57803</ele>
        <time>2023-11-23T08:27:27.000Z</time>
      </trkpt>
      <trkpt lat="45.84601" lon="4.66161">
        <ele>258.62152</ele>
        <time>2023-11-23T08:27:28.000Z</time>
      </trkpt>
      <trkpt lat="45.846" lon="4.66162">
        <ele>258.66461</ele>
        <time>2023-11-23T08:27:29.000Z</time>
      </trkpt>
      <trkpt lat="45.84598" lon="4.66165">
        <ele>258.68063</ele>
        <time>2023-11-23T08:27:31.000Z</time>
      </trkpt>
      <trkpt lat="45.84597" lon="4.66168">
        <ele>258.71146</ele>
        <time>2023-11-23T08:27:34.000Z</time>
      </trkpt>
      <trkpt lat="45.84596" lon="4.66171">
        <ele>259.51358</ele>
        <time>2023-11-23T08:31:44.000Z</time>
      </trkpt>
      <trkpt lat="45.84594" lon="4.66172">
        <ele>260.31396</ele>
        <time>2023-11-23T08:31:45.000Z</time>
      </trkpt>
      <trkpt lat="45.84591" lon="4.66172">
        <ele>261.1618</ele>
        <time>2023-11-23T08:31:46.000Z</time>
      </trkpt>
      <trkpt lat="45.84589" lon="4.66171">
        <ele>261.97522</ele>
        <time>2023-11-23T08:31:47.000Z</time>
      </trkpt>
      <trkpt lat="45.84586" lon="4.6617">
        <ele>262.81219</ele>
        <time>2023-11-23T08:31:48.000Z</time>
      </trkpt>
      <trkpt lat="45.84584" lon="4.66169">
        <ele>263.64484</ele>
        <time>2023-11-23T08:31:49.000Z</time>
      </trkpt>
      <trkpt lat="45.84581" lon="4.66167">
        <ele>264.46109</ele>
        <time>2023-11-23T08:31:50.000Z</time>
      </trkpt>
      <trkpt lat="45.84579" lon="4.66165">
        <ele>265.28754</ele>
        <time>2023-11-23T08:31:51.000Z</time>
      </trkpt>
      <trkpt lat="45.84576" lon="4.66163">
        <ele>266.02985</ele>
        <time>2023-11-23T08:31:52.000Z</time>
      </trkpt>
      <trkpt lat="45.84573" lon="4.66162">
        <ele>266.80145</ele>
        <time>2023-11-23T08:31:53.000Z</time>
      </trkpt>
      <trkpt lat="45.8457" lon="4.66161">
        <ele>267.57852</ele>
        <time>2023-11-23T08:31:54.000Z</time>
      </trkpt>
      <trkpt lat="45.84566" lon="4.6616">
        <ele>268.72235</ele>
        <time>2023-11-23T08:31:55.000Z</time>
      </trkpt>
      <trkpt lat="45.84563" lon="4.66158">
        <ele>270.01642</ele>
        <time>2023-11-23T08:31:56.000Z</time>
      </trkpt>
      <trkpt lat="45.8456" lon="4.66156">
        <ele>271.36163</ele>
        <time>2023-11-23T08:31:57.000Z</time>
      </trkpt>
      <trkpt lat="45.84557" lon="4.66154">
        <ele>272.69412</ele>
        <time>2023-11-23T08:31:58.000Z</time>
      </trkpt>
      <trkpt lat="45.84554" lon="4.66152">
        <ele>273.34317</ele>
        <time>2023-11-23T08:31:59.000Z</time>
      </trkpt>
      <trkpt lat="45.84551" lon="4.6615">
        <ele>274.09256</ele>
        <time>2023-11-23T08:32:00.000Z</time>
      </trkpt>
      <trkpt lat="45.84548" lon="4.66148">
        <ele>274.71521</ele>
        <time>2023-11-23T08:32:01.000Z</time>
      </trkpt>
      <trkpt lat="45.84545" lon="4.66145">
        <ele>274.76126</ele>
        <time>2023-11-23T08:32:02.000Z</time>
      </trkpt>
      <trkpt lat="45.84543" lon="4.66141">
        <ele>274.8179</ele>
        <time>2023-11-23T08:32:03.000Z</time>
      </trkpt>
      <trkpt lat="45.8454" lon="4.66138">
        <ele>274.07602</ele>
        <time>2023-11-23T08:32:04.000Z</time>
      </trkpt>
      <trkpt lat="45.84538" lon="4.66135">
        <ele>273.33505</ele>
        <time>2023-11-23T08:32:05.000Z</time>
      </trkpt>
      <trkpt lat="45.84535" lon="4.66131">
        <ele>272.56488</ele>
        <time>2023-11-23T08:32:06.000Z</time>
      </trkpt>
      <trkpt lat="45.84532" lon="4.66128">
        <ele>271.81537</ele>
        <time>2023-11-23T08:32:07.000Z</time>
      </trkpt>
      <trkpt lat="45.84529" lon="4.66124">
        <ele>271.04086</ele>
        <time>2023-11-23T08:32:08.000Z</time>
      </trkpt>
      <trkpt lat="45.84527" lon="4.6612">
        <ele>270.28229</ele>
        <time>2023-11-23T08:32:09.000Z</time>
      </trkpt>
      <trkpt lat="45.84524" lon="4.66117">
        <ele>269.21655</ele>
        <time>2023-11-23T08:32:10.000Z</time>
      </trkpt>
      <trkpt lat="45.84521" lon="4.66113">
        <ele>267.93979</ele>
        <time>2023-11-23T08:32:11.000Z</time>
      </trkpt>
      <trkpt lat="45.84519" lon="4.6611">
        <ele>267.31073</ele>
        <time>2023-11-23T08:32:12.000Z</time>
      </trkpt>
      <trkpt lat="45.84516" lon="4.66107">
        <ele>266.52997</ele>
        <time>2023-11-23T08:32:13.000Z</time>
      </trkpt>
      <trkpt lat="45.84513" lon="4.66104">
        <ele>265.79584</ele>
        <time>2023-11-23T08:32:14.000Z</time>
      </trkpt>
      <trkpt lat="45.8451" lon="4.661">
        <ele>265.10687</ele>
        <time>2023-11-23T08:32:15.000Z</time>
      </trkpt>
      <trkpt lat="45.84507" lon="4.66097">
        <ele>264.40668</ele>
        <time>2023-11-23T08:32:16.000Z</time>
      </trkpt>
      <trkpt lat="45.84505" lon="4.66094">
        <ele>263.70599</ele>
        <time>2023-11-23T08:32:17.000Z</time>
      </trkpt>
      <trkpt lat="45.84503" lon="4.6609">
        <ele>263.02328</ele>
        <time>2023-11-23T08:32:18.000Z</time>
      </trkpt>
      <trkpt lat="45.84501" lon="4.66087">
        <ele>262.33575</ele>
        <time>2023-11-23T08:32:19.000Z</time>
      </trkpt>
      <trkpt lat="45.845" lon="4.66085">
        <ele>261.65247</ele>
        <time>2023-11-23T08:32:20.000Z</time>
      </trkpt>
      <trkpt lat="45.84499" lon="4.66082">
        <ele>261.10233</ele>
        <time>2023-11-23T08:32:21.000Z</time>
      </trkpt>
      <trkpt lat="45.84497" lon="4.66079">
        <ele>260.87955</ele>
        <time>2023-11-23T08:32:23.000Z</time>
      </trkpt>
      <trkpt lat="45.84495" lon="4.66078">
        <ele>260.61111</ele>
        <time>2023-11-23T08:32:24.000Z</time>
      </trkpt>
      <trkpt lat="45.84493" lon="4.66076">
        <ele>260.36905</ele>
        <time>2023-11-23T08:32:25.000Z</time>
      </trkpt>
      <trkpt lat="45.84492" lon="4.66073">
        <ele>260.11218</ele>
        <time>2023-11-23T08:32:26.000Z</time>
      </trkpt>
      <trkpt lat="45.84491" lon="4.66071">
        <ele>259.87656</ele>
        <time>2023-11-23T08:32:27.000Z</time>
      </trkpt>
      <trkpt lat="45.84491" lon="4.66067">
        <ele>260.06891</ele>
        <time>2023-11-23T08:32:29.000Z</time>
      </trkpt>
      <trkpt lat="45.84493" lon="4.66064">
        <ele>260.13858</ele>
        <time>2023-11-23T08:32:30.000Z</time>
      </trkpt>
      <trkpt lat="45.84494" lon="4.6606">
        <ele>260.172</ele>
        <time>2023-11-23T08:32:31.000Z</time>
      </trkpt>
      <trkpt lat="45.84494" lon="4.66058">
        <ele>260.49966</ele>
        <time>2023-11-23T08:32:32.000Z</time>
      </trkpt>
      <trkpt lat="45.84494" lon="4.66053">
        <ele>261.09174</ele>
        <time>2023-11-23T08:32:34.000Z</time>
      </trkpt>
      <trkpt lat="45.84496" lon="4.6605">
        <ele>261.0506</ele>
        <time>2023-11-23T08:32:36.000Z</time>
      </trkpt>
      <trkpt lat="45.84498" lon="4.66051">
        <ele>261.16754</ele>
        <time>2023-11-23T08:32:37.000Z</time>
      </trkpt>
      <trkpt lat="45.845" lon="4.66055">
        <ele>261.1998</ele>
        <time>2023-11-23T08:32:38.000Z</time>
      </trkpt>
      <trkpt lat="45.84499" lon="4.66059">
        <ele>261.18549</ele>
        <time>2023-11-23T08:32:39.000Z</time>
      </trkpt>
      <trkpt lat="45.84498" lon="4.66063">
        <ele>261.24704</ele>
        <time>2023-11-23T08:32:40.000Z</time>
      </trkpt>
      <trkpt lat="45.84496" lon="4.66067">
        <ele>261.29846</ele>
        <time>2023-11-23T08:32:41.000Z</time>
      </trkpt>
      <trkpt lat="45.84494" lon="4.66069">
        <ele>261.33188</ele>
        <time>2023-11-23T08:32:42.000Z</time>
      </trkpt>
      <trkpt lat="45.84492" lon="4.66072">
        <ele>261.06012</ele>
        <time>2023-11-23T08:32:43.000Z</time>
      </trkpt>
      <trkpt lat="45.8449" lon="4.66074">
        <ele>260.53122</ele>
        <time>2023-11-23T08:32:45.000Z</time>
      </trkpt>
      <trkpt lat="45.84488" lon="4.66076">
        <ele>260.6058</ele>
        <time>2023-11-23T08:33:13.000Z</time>
      </trkpt>
      <trkpt lat="45.84487" lon="4.66078">
        <ele>260.94196</ele>
        <time>2023-11-23T08:33:14.000Z</time>
      </trkpt>
      <trkpt lat="45.84486" lon="4.6608">
        <ele>261.32932</ele>
        <time>2023-11-23T08:33:15.000Z</time>
      </trkpt>
      <trkpt lat="45.84485" lon="4.66083">
        <ele>261.39627</ele>
        <time>2023-11-23T08:33:16.000Z</time>
      </trkpt>
      <trkpt lat="45.84484" lon="4.66086">
        <ele>261.48218</ele>
        <time>2023-11-23T08:33:17.000Z</time>
      </trkpt>
      <trkpt lat="45.84482" lon="4.66089">
        <ele>261.37668</ele>
        <time>2023-11-23T08:33:18.000Z</time>
      </trkpt>
      <trkpt lat="45.84481" lon="4.66093">
        <ele>260.83932</ele>
        <time>2023-11-23T08:33:19.000Z</time>
      </trkpt>
      <trkpt lat="45.84479" lon="4.66095">
        <ele>261.09381</ele>
        <time>2023-11-23T08:33:20.000Z</time>
      </trkpt>
      <trkpt lat="45.84477" lon="4.66098">
        <ele>261.22256</ele>
        <time>2023-11-23T08:33:21.000Z</time>
      </trkpt>
      <trkpt lat="45.84475" lon="4.66101">
        <ele>261.34122</ele>
        <time>2023-11-23T08:33:22.000Z</time>
      </trkpt>
      <trkpt lat="45.84472" lon="4.66104">
        <ele>261.3815</ele>
        <time>2023-11-23T08:33:23.000Z</time>
      </trkpt>
      <trkpt lat="45.8447" lon="4.66107">
        <ele>261.42822</ele>
        <time>2023-11-23T08:33:24.000Z</time>
      </trkpt>
      <trkpt lat="45.84468" lon="4.66111">
        <ele>261.48639</ele>
        <time>2023-11-23T08:33:25.000Z</time>
      </trkpt>
      <trkpt lat="45.84466" lon="4.66114">
        <ele>261.56677</ele>
        <time>2023-11-23T08:33:26.000Z</time>
      </trkpt>
      <trkpt lat="45.84464" lon="4.66118">
        <ele>261.64816</ele>
        <time>2023-11-23T08:33:27.000Z</time>
      </trkpt>
      <trkpt lat="45.84462" lon="4.66122">
        <ele>261.66559</ele>
        <time>2023-11-23T08:33:28.000Z</time>
      </trkpt>
      <trkpt lat="45.8446" lon="4.66125">
        <ele>261.68597</ele>
        <time>2023-11-23T08:33:29.000Z</time>
      </trkpt>
      <trkpt lat="45.84458" lon="4.66128">
        <ele>261.70462</ele>
        <time>2023-11-23T08:33:30.000Z</time>
      </trkpt>
      <trkpt lat="45.84455" lon="4.66132">
        <ele>262.02148</ele>
        <time>2023-11-23T08:33:31.000Z</time>
      </trkpt>
      <trkpt lat="45.84452" lon="4.66136">
        <ele>262.56927</ele>
        <time>2023-11-23T08:33:32.000Z</time>
      </trkpt>
      <trkpt lat="45.84449" lon="4.6614">
        <ele>262.49628</ele>
        <time>2023-11-23T08:33:33.000Z</time>
      </trkpt>
      <trkpt lat="45.84447" lon="4.66143">
        <ele>262.44785</ele>
        <time>2023-11-23T08:33:34.000Z</time>
      </trkpt>
      <trkpt lat="45.84444" lon="4.66147">
        <ele>262.32263</ele>
        <time>2023-11-23T08:33:35.000Z</time>
      </trkpt>
      <trkpt lat="45.84442" lon="4.66151">
        <ele>262.52545</ele>
        <time>2023-11-23T08:33:36.000Z</time>
      </trkpt>
      <trkpt lat="45.84439" lon="4.66155">
        <ele>262.73016</ele>
        <time>2023-11-23T08:33:37.000Z</time>
      </trkpt>
      <trkpt lat="45.84436" lon="4.66159">
        <ele>263.14395</ele>
        <time>2023-11-23T08:33:38.000Z</time>
      </trkpt>
      <trkpt lat="45.84434" lon="4.66164">
        <ele>263.54431</ele>
        <time>2023-11-23T08:33:39.000Z</time>
      </trkpt>
      <trkpt lat="45.84431" lon="4.66168">
        <ele>263.28644</ele>
        <time>2023-11-23T08:33:40.000Z</time>
      </trkpt>
      <trkpt lat="45.84428" lon="4.66172">
        <ele>263.1633</ele>
        <time>2023-11-23T08:33:41.000Z</time>
      </trkpt>
      <trkpt lat="45.84426" lon="4.66176">
        <ele>263.05688</ele>
        <time>2023-11-23T08:33:42.000Z</time>
      </trkpt>
      <trkpt lat="45.84423" lon="4.6618">
        <ele>262.96747</ele>
        <time>2023-11-23T08:33:43.000Z</time>
      </trkpt>
      <trkpt lat="45.84421" lon="4.66184">
        <ele>262.91183</ele>
        <time>2023-11-23T08:33:44.000Z</time>
      </trkpt>
      <trkpt lat="45.84419" lon="4.66189">
        <ele>262.82916</ele>
        <time>2023-11-23T08:33:45.000Z</time>
      </trkpt>
      <trkpt lat="45.84417" lon="4.66193">
        <ele>262.75113</ele>
        <time>2023-11-23T08:33:46.000Z</time>
      </trkpt>
      <trkpt lat="45.84414" lon="4.66198">
        <ele>262.66714</ele>
        <time>2023-11-23T08:33:47.000Z</time>
      </trkpt>
      <trkpt lat="45.84412" lon="4.66203">
        <ele>262.59286</ele>
        <time>2023-11-23T08:33:48.000Z</time>
      </trkpt>
      <trkpt lat="45.84409" lon="4.66207">
        <ele>262.53937</ele>
        <time>2023-11-23T08:33:49.000Z</time>
      </trkpt>
      <trkpt lat="45.84407" lon="4.66212">
        <ele>262.47626</ele>
        <time>2023-11-23T08:33:50.000Z</time>
      </trkpt>
      <trkpt lat="45.84405" lon="4.66217">
        <ele>262.41953</ele>
        <time>2023-11-23T08:33:51.000Z</time>
      </trkpt>
      <trkpt lat="45.84403" lon="4.66222">
        <ele>262.37518</ele>
        <time>2023-11-23T08:33:52.000Z</time>
      </trkpt>
      <trkpt lat="45.84401" lon="4.66227">
        <ele>262.34714</ele>
        <time>2023-11-23T08:33:53.000Z</time>
      </trkpt>
      <trkpt lat="45.84399" lon="4.66232">
        <ele>262.3201</ele>
        <time>2023-11-23T08:33:54.000Z</time>
      </trkpt>
      <trkpt lat="45.84396" lon="4.66236">
        <ele>262.3248</ele>
        <time>2023-11-23T08:33:55.000Z</time>
      </trkpt>
      <trkpt lat="45.84394" lon="4.66238">
        <ele>263.67026</ele>
        <time>2023-11-23T08:33:56.000Z</time>
      </trkpt>
      <trkpt lat="45.84391" lon="4.66239">
        <ele>265.02618</ele>
        <time>2023-11-23T08:33:57.000Z</time>
      </trkpt>
      <trkpt lat="45.84388" lon="4.6624">
        <ele>264.86887</ele>
        <time>2023-11-23T08:33:58.000Z</time>
      </trkpt>
      <trkpt lat="45.84385" lon="4.6624">
        <ele>264.82123</ele>
        <time>2023-11-23T08:33:59.000Z</time>
      </trkpt>
      <trkpt lat="45.84382" lon="4.66241">
        <ele>264.74847</ele>
        <time>2023-11-23T08:34:00.000Z</time>
      </trkpt>
      <trkpt lat="45.84379" lon="4.66242">
        <ele>265.41022</ele>
        <time>2023-11-23T08:34:02.000Z</time>
      </trkpt>
      <trkpt lat="45.84377" lon="4.66244">
        <ele>266.04608</ele>
        <time>2023-11-23T08:34:04.000Z</time>
      </trkpt>
      <trkpt lat="45.84375" lon="4.66244">
        <ele>266.85199</ele>
        <time>2023-11-23T08:34:15.000Z</time>
      </trkpt>
      <trkpt lat="45.84373" lon="4.66244">
        <ele>267.62839</ele>
        <time>2023-11-23T08:34:16.000Z</time>
      </trkpt>
      <trkpt lat="45.84371" lon="4.66245">
        <ele>268.41217</ele>
        <time>2023-11-23T08:34:17.000Z</time>
      </trkpt>
      <trkpt lat="45.84369" lon="4.66245">
        <ele>269.20889</ele>
        <time>2023-11-23T08:34:18.000Z</time>
      </trkpt>
      <trkpt lat="45.84366" lon="4.66245">
        <ele>270.01529</ele>
        <time>2023-11-23T08:34:19.000Z</time>
      </trkpt>
      <trkpt lat="45.84363" lon="4.66244">
        <ele>270.83209</ele>
        <time>2023-11-23T08:34:20.000Z</time>
      </trkpt>
      <trkpt lat="45.8436" lon="4.66244">
        <ele>271.63718</ele>
        <time>2023-11-23T08:34:21.000Z</time>
      </trkpt>
      <trkpt lat="45.84356" lon="4.66243">
        <ele>272.44781</ele>
        <time>2023-11-23T08:34:22.000Z</time>
      </trkpt>
      <trkpt lat="45.84353" lon="4.66242">
        <ele>273.24438</ele>
        <time>2023-11-23T08:34:23.000Z</time>
      </trkpt>
      <trkpt lat="45.84349" lon="4.66242">
        <ele>274.03268</ele>
        <time>2023-11-23T08:34:24.000Z</time>
      </trkpt>
      <trkpt lat="45.84346" lon="4.66241">
        <ele>274.8157</ele>
        <time>2023-11-23T08:34:25.000Z</time>
      </trkpt>
      <trkpt lat="45.84342" lon="4.66241">
        <ele>275.58276</ele>
        <time>2023-11-23T08:34:26.000Z</time>
      </trkpt>
      <trkpt lat="45.84338" lon="4.66241">
        <ele>276.3595</ele>
        <time>2023-11-23T08:34:27.000Z</time>
      </trkpt>
      <trkpt lat="45.84335" lon="4.6624">
        <ele>275.76102</ele>
        <time>2023-11-23T08:34:28.000Z</time>
      </trkpt>
      <trkpt lat="45.84331" lon="4.6624">
        <ele>275.15353</ele>
        <time>2023-11-23T08:34:29.000Z</time>
      </trkpt>
      <trkpt lat="45.84327" lon="4.66239">
        <ele>276.05911</ele>
        <time>2023-11-23T08:34:30.000Z</time>
      </trkpt>
      <trkpt lat="45.84323" lon="4.66238">
        <ele>276.85049</ele>
        <time>2023-11-23T08:34:31.000Z</time>
      </trkpt>
      <trkpt lat="45.84319" lon="4.66237">
        <ele>277.66241</ele>
        <time>2023-11-23T08:34:32.000Z</time>
      </trkpt>
      <trkpt lat="45.84315" lon="4.66236">
        <ele>277.75089</ele>
        <time>2023-11-23T08:34:33.000Z</time>
      </trkpt>
      <trkpt lat="45.84311" lon="4.66236">
        <ele>277.8576</ele>
        <time>2023-11-23T08:34:34.000Z</time>
      </trkpt>
      <trkpt lat="45.84307" lon="4.66235">
        <ele>277.81918</ele>
        <time>2023-11-23T08:34:35.000Z</time>
      </trkpt>
      <trkpt lat="45.84303" lon="4.66235">
        <ele>277.78311</ele>
        <time>2023-11-23T08:34:36.000Z</time>
      </trkpt>
      <trkpt lat="45.84299" lon="4.66234">
        <ele>277.74274</ele>
        <time>2023-11-23T08:34:37.000Z</time>
      </trkpt>
      <trkpt lat="45.84296" lon="4.66234">
        <ele>277.68689</ele>
        <time>2023-11-23T08:34:38.000Z</time>
      </trkpt>
      <trkpt lat="45.84292" lon="4.66234">
        <ele>277.63474</ele>
        <time>2023-11-23T08:34:39.000Z</time>
      </trkpt>
      <trkpt lat="45.84289" lon="4.66234">
        <ele>277.57156</ele>
        <time>2023-11-23T08:34:40.000Z</time>
      </trkpt>
      <trkpt lat="45.84286" lon="4.66234">
        <ele>277.53043</ele>
        <time>2023-11-23T08:34:41.000Z</time>
      </trkpt>
      <trkpt lat="45.84283" lon="4.66234">
        <ele>277.4892</ele>
        <time>2023-11-23T08:34:42.000Z</time>
      </trkpt>
      <trkpt lat="45.84281" lon="4.66234">
        <ele>277.4696</ele>
        <time>2023-11-23T08:34:44.000Z</time>
      </trkpt>
      <trkpt lat="45.84278" lon="4.66235">
        <ele>277.33789</ele>
        <time>2023-11-23T08:34:53.000Z</time>
      </trkpt>
      <trkpt lat="45.84276" lon="4.66236">
        <ele>277.21481</ele>
        <time>2023-11-23T08:34:54.000Z</time>
      </trkpt>
      <trkpt lat="45.84274" lon="4.66237">
        <ele>277.1131</ele>
        <time>2023-11-23T08:34:55.000Z</time>
      </trkpt>
      <trkpt lat="45.84271" lon="4.66238">
        <ele>277.01721</ele>
        <time>2023-11-23T08:34:56.000Z</time>
      </trkpt>
      <trkpt lat="45.84268" lon="4.66239">
        <ele>277.07446</ele>
        <time>2023-11-23T08:34:57.000Z</time>
      </trkpt>
      <trkpt lat="45.84266" lon="4.6624">
        <ele>277.07373</ele>
        <time>2023-11-23T08:34:58.000Z</time>
      </trkpt>
      <trkpt lat="45.84263" lon="4.66241">
        <ele>277.06406</ele>
        <time>2023-11-23T08:34:59.000Z</time>
      </trkpt>
      <trkpt lat="45.8426" lon="4.66242">
        <ele>277.04401</ele>
        <time>2023-11-23T08:35:00.000Z</time>
      </trkpt>
      <trkpt lat="45.84257" lon="4.66244">
        <ele>277.03458</ele>
        <time>2023-11-23T08:35:01.000Z</time>
      </trkpt>
      <trkpt lat="45.84254" lon="4.66245">
        <ele>277.00885</ele>
        <time>2023-11-23T08:35:02.000Z</time>
      </trkpt>
      <trkpt lat="45.8425" lon="4.66246">
        <ele>276.96075</ele>
        <time>2023-11-23T08:35:03.000Z</time>
      </trkpt>
      <trkpt lat="45.84247" lon="4.66248">
        <ele>276.92072</ele>
        <time>2023-11-23T08:35:04.000Z</time>
      </trkpt>
      <trkpt lat="45.84244" lon="4.66251">
        <ele>276.88342</ele>
        <time>2023-11-23T08:35:05.000Z</time>
      </trkpt>
      <trkpt lat="45.8424" lon="4.66254">
        <ele>276.83047</ele>
        <time>2023-11-23T08:35:06.000Z</time>
      </trkpt>
      <trkpt lat="45.84236" lon="4.66257">
        <ele>276.79114</ele>
        <time>2023-11-23T08:35:07.000Z</time>
      </trkpt>
      <trkpt lat="45.84233" lon="4.6626">
        <ele>276.75821</ele>
        <time>2023-11-23T08:35:08.000Z</time>
      </trkpt>
      <trkpt lat="45.84229" lon="4.66264">
        <ele>276.73834</ele>
        <time>2023-11-23T08:35:09.000Z</time>
      </trkpt>
      <trkpt lat="45.84225" lon="4.66267">
        <ele>276.69397</ele>
        <time>2023-11-23T08:35:10.000Z</time>
      </trkpt>
      <trkpt lat="45.84222" lon="4.66269">
        <ele>276.63818</ele>
        <time>2023-11-23T08:35:11.000Z</time>
      </trkpt>
      <trkpt lat="45.84219" lon="4.66271">
        <ele>276.57831</ele>
        <time>2023-11-23T08:35:12.000Z</time>
      </trkpt>
      <trkpt lat="45.84218" lon="4.66274">
        <ele>276.58633</ele>
        <time>2023-11-23T08:35:13.000Z</time>
      </trkpt>
      <trkpt lat="45.84215" lon="4.66276">
        <ele>276.57465</ele>
        <time>2023-11-23T08:35:14.000Z</time>
      </trkpt>
      <trkpt lat="45.84213" lon="4.66279">
        <ele>276.55792</ele>
        <time>2023-11-23T08:35:15.000Z</time>
      </trkpt>
      <trkpt lat="45.8421" lon="4.66282">
        <ele>276.50958</ele>
        <time>2023-11-23T08:35:16.000Z</time>
      </trkpt>
      <trkpt lat="45.84207" lon="4.66284">
        <ele>276.33093</ele>
        <time>2023-11-23T08:35:17.000Z</time>
      </trkpt>
      <trkpt lat="45.84204" lon="4.66287">
        <ele>276.22467</ele>
        <time>2023-11-23T08:35:18.000Z</time>
      </trkpt>
      <trkpt lat="45.842" lon="4.66288">
        <ele>276.04364</ele>
        <time>2023-11-23T08:35:19.000Z</time>
      </trkpt>
      <trkpt lat="45.84196" lon="4.66289">
        <ele>275.87622</ele>
        <time>2023-11-23T08:35:20.000Z</time>
      </trkpt>
      <trkpt lat="45.84192" lon="4.6629">
        <ele>275.68079</ele>
        <time>2023-11-23T08:35:21.000Z</time>
      </trkpt>
      <trkpt lat="45.84188" lon="4.66289">
        <ele>275.50699</ele>
        <time>2023-11-23T08:35:22.000Z</time>
      </trkpt>
      <trkpt lat="45.84184" lon="4.66288">
        <ele>275.34451</ele>
        <time>2023-11-23T08:35:23.000Z</time>
      </trkpt>
      <trkpt lat="45.84181" lon="4.66287">
        <ele>275.17398</ele>
        <time>2023-11-23T08:35:24.000Z</time>
      </trkpt>
      <trkpt lat="45.84177" lon="4.66286">
        <ele>275.00821</ele>
        <time>2023-11-23T08:35:25.000Z</time>
      </trkpt>
      <trkpt lat="45.84173" lon="4.66285">
        <ele>274.87482</ele>
        <time>2023-11-23T08:35:26.000Z</time>
      </trkpt>
      <trkpt lat="45.8417" lon="4.66285">
        <ele>274.75684</ele>
        <time>2023-11-23T08:35:27.000Z</time>
      </trkpt>
      <trkpt lat="45.84167" lon="4.66286">
        <ele>274.64529</ele>
        <time>2023-11-23T08:35:28.000Z</time>
      </trkpt>
      <trkpt lat="45.84165" lon="4.6629">
        <ele>274.53094</ele>
        <time>2023-11-23T08:35:29.000Z</time>
      </trkpt>
      <trkpt lat="45.84164" lon="4.66294">
        <ele>274.42413</ele>
        <time>2023-11-23T08:35:30.000Z</time>
      </trkpt>
      <trkpt lat="45.84163" lon="4.66299">
        <ele>274.30951</ele>
        <time>2023-11-23T08:35:31.000Z</time>
      </trkpt>
      <trkpt lat="45.84163" lon="4.66305">
        <ele>274.17767</ele>
        <time>2023-11-23T08:35:32.000Z</time>
      </trkpt>
      <trkpt lat="45.84164" lon="4.6631">
        <ele>274.099</ele>
        <time>2023-11-23T08:35:33.000Z</time>
      </trkpt>
      <trkpt lat="45.84163" lon="4.66314">
        <ele>274.02618</ele>
        <time>2023-11-23T08:35:34.000Z</time>
      </trkpt>
      <trkpt lat="45.84163" lon="4.66319">
        <ele>273.94507</ele>
        <time>2023-11-23T08:35:35.000Z</time>
      </trkpt>
      <trkpt lat="45.84163" lon="4.66325">
        <ele>273.86273</ele>
        <time>2023-11-23T08:35:36.000Z</time>
      </trkpt>
      <trkpt lat="45.84163" lon="4.6633">
        <ele>273.74799</ele>
        <time>2023-11-23T08:35:37.000Z</time>
      </trkpt>
      <trkpt lat="45.84162" lon="4.66335">
        <ele>273.52496</ele>
        <time>2023-11-23T08:35:38.000Z</time>
      </trkpt>
      <trkpt lat="45.8416" lon="4.6634">
        <ele>273.3623</ele>
        <time>2023-11-23T08:35:39.000Z</time>
      </trkpt>
      <trkpt lat="45.84156" lon="4.66343">
        <ele>273.20468</ele>
        <time>2023-11-23T08:35:40.000Z</time>
      </trkpt>
      <trkpt lat="45.84152" lon="4.66346">
        <ele>273.17303</ele>
        <time>2023-11-23T08:35:41.000Z</time>
      </trkpt>
      <trkpt lat="45.84147" lon="4.66347">
        <ele>273.06924</ele>
        <time>2023-11-23T08:35:42.000Z</time>
      </trkpt>
      <trkpt lat="45.84141" lon="4.66348">
        <ele>272.95355</ele>
        <time>2023-11-23T08:35:43.000Z</time>
      </trkpt>
      <trkpt lat="45.84136" lon="4.66348">
        <ele>272.83905</ele>
        <time>2023-11-23T08:35:44.000Z</time>
      </trkpt>
      <trkpt lat="45.8413" lon="4.66349">
        <ele>272.71207</ele>
        <time>2023-11-23T08:35:45.000Z</time>
      </trkpt>
      <trkpt lat="45.84124" lon="4.66349">
        <ele>272.54828</ele>
        <time>2023-11-23T08:35:46.000Z</time>
      </trkpt>
      <trkpt lat="45.84118" lon="4.6635">
        <ele>272.33383</ele>
        <time>2023-11-23T08:35:47.000Z</time>
      </trkpt>
      <trkpt lat="45.84111" lon="4.6635">
        <ele>272.08661</ele>
        <time>2023-11-23T08:35:48.000Z</time>
      </trkpt>
      <trkpt lat="45.84105" lon="4.66351">
        <ele>271.82544</ele>
        <time>2023-11-23T08:35:49.000Z</time>
      </trkpt>
      <trkpt lat="45.84099" lon="4.6635">
        <ele>271.57523</ele>
        <time>2023-11-23T08:35:50.000Z</time>
      </trkpt>
      <trkpt lat="45.84093" lon="4.6635">
        <ele>271.36011</ele>
        <time>2023-11-23T08:35:51.000Z</time>
      </trkpt>
      <trkpt lat="45.84088" lon="4.66345">
        <ele>271.13495</ele>
        <time>2023-11-23T08:35:52.000Z</time>
      </trkpt>
      <trkpt lat="45.84083" lon="4.6634">
        <ele>270.87415</ele>
        <time>2023-11-23T08:35:53.000Z</time>
      </trkpt>
      <trkpt lat="45.8408" lon="4.66332">
        <ele>270.60687</ele>
        <time>2023-11-23T08:35:54.000Z</time>
      </trkpt>
      <trkpt lat="45.84078" lon="4.66321">
        <ele>270.34509</ele>
        <time>2023-11-23T08:35:55.000Z</time>
      </trkpt>
      <trkpt lat="45.84076" lon="4.66311">
        <ele>270.12036</ele>
        <time>2023-11-23T08:35:56.000Z</time>
      </trkpt>
      <trkpt lat="45.84075" lon="4.663">
        <ele>269.88803</ele>
        <time>2023-11-23T08:35:57.000Z</time>
      </trkpt>
      <trkpt lat="45.84074" lon="4.66289">
        <ele>269.74518</ele>
        <time>2023-11-23T08:35:58.000Z</time>
      </trkpt>
      <trkpt lat="45.84074" lon="4.66278">
        <ele>269.62048</ele>
        <time>2023-11-23T08:35:59.000Z</time>
      </trkpt>
      <trkpt lat="45.84074" lon="4.66268">
        <ele>269.50415</ele>
        <time>2023-11-23T08:36:00.000Z</time>
      </trkpt>
      <trkpt lat="45.84074" lon="4.66258">
        <ele>269.26013</ele>
        <time>2023-11-23T08:36:01.000Z</time>
      </trkpt>
      <trkpt lat="45.84074" lon="4.66248">
        <ele>269.08508</ele>
        <time>2023-11-23T08:36:02.000Z</time>
      </trkpt>
      <trkpt lat="45.84073" lon="4.66239">
        <ele>268.92267</ele>
        <time>2023-11-23T08:36:03.000Z</time>
      </trkpt>
      <trkpt lat="45.84073" lon="4.6623">
        <ele>268.72284</ele>
        <time>2023-11-23T08:36:04.000Z</time>
      </trkpt>
      <trkpt lat="45.84072" lon="4.66223">
        <ele>268.50739</ele>
        <time>2023-11-23T08:36:05.000Z</time>
      </trkpt>
      <trkpt lat="45.84072" lon="4.66216">
        <ele>268.28741</ele>
        <time>2023-11-23T08:36:06.000Z</time>
      </trkpt>
      <trkpt lat="45.8407" lon="4.66212">
        <ele>268.06952</ele>
        <time>2023-11-23T08:36:07.000Z</time>
      </trkpt>
      <trkpt lat="45.84067" lon="4.66211">
        <ele>267.85724</ele>
        <time>2023-11-23T08:36:08.000Z</time>
      </trkpt>
      <trkpt lat="45.84063" lon="4.66212">
        <ele>267.57599</ele>
        <time>2023-11-23T08:36:09.000Z</time>
      </trkpt>
      <trkpt lat="45.84059" lon="4.66214">
        <ele>267.27133</ele>
        <time>2023-11-23T08:36:10.000Z</time>
      </trkpt>
      <trkpt lat="45.84055" lon="4.66215">
        <ele>266.93842</ele>
        <time>2023-11-23T08:36:11.000Z</time>
      </trkpt>
      <trkpt lat="45.84052" lon="4.66217">
        <ele>266.64835</ele>
        <time>2023-11-23T08:36:12.000Z</time>
      </trkpt>
      <trkpt lat="45.84048" lon="4.66216">
        <ele>266.41556</ele>
        <time>2023-11-23T08:36:13.000Z</time>
      </trkpt>
      <trkpt lat="45.84045" lon="4.66216">
        <ele>266.18546</ele>
        <time>2023-11-23T08:36:14.000Z</time>
      </trkpt>
      <trkpt lat="45.84041" lon="4.66214">
        <ele>265.953</ele>
        <time>2023-11-23T08:36:15.000Z</time>
      </trkpt>
      <trkpt lat="45.84037" lon="4.66216">
        <ele>265.7168</ele>
        <time>2023-11-23T08:36:16.000Z</time>
      </trkpt>
      <trkpt lat="45.84034" lon="4.66216">
        <ele>265.54831</ele>
        <time>2023-11-23T08:36:17.000Z</time>
      </trkpt>
      <trkpt lat="45.84031" lon="4.66216">
        <ele>265.34286</ele>
        <time>2023-11-23T08:36:18.000Z</time>
      </trkpt>
      <trkpt lat="45.84028" lon="4.66217">
        <ele>265.11792</ele>
        <time>2023-11-23T08:36:20.000Z</time>
      </trkpt>
      <trkpt lat="45.84027" lon="4.66219">
        <ele>264.88629</ele>
        <time>2023-11-23T08:36:21.000Z</time>
      </trkpt>
      <trkpt lat="45.84024" lon="4.66221">
        <ele>264.70111</ele>
        <time>2023-11-23T08:36:22.000Z</time>
      </trkpt>
      <trkpt lat="45.84022" lon="4.66222">
        <ele>264.49109</ele>
        <time>2023-11-23T08:36:23.000Z</time>
      </trkpt>
      <trkpt lat="45.84019" lon="4.66224">
        <ele>264.32916</ele>
        <time>2023-11-23T08:36:24.000Z</time>
      </trkpt>
      <trkpt lat="45.84017" lon="4.66225">
        <ele>264.18402</ele>
        <time>2023-11-23T08:36:25.000Z</time>
      </trkpt>
      <trkpt lat="45.84015" lon="4.66227">
        <ele>264.0549</ele>
        <time>2023-11-23T08:36:26.000Z</time>
      </trkpt>
      <trkpt lat="45.84013" lon="4.66229">
        <ele>263.96762</ele>
        <time>2023-11-23T08:36:27.000Z</time>
      </trkpt>
      <trkpt lat="45.84011" lon="4.66231">
        <ele>263.90442</ele>
        <time>2023-11-23T08:36:28.000Z</time>
      </trkpt>
      <trkpt lat="45.84009" lon="4.66233">
        <ele>263.83725</ele>
        <time>2023-11-23T08:36:29.000Z</time>
      </trkpt>
      <trkpt lat="45.84007" lon="4.66235">
        <ele>263.89227</ele>
        <time>2023-11-23T08:36:30.000Z</time>
      </trkpt>
      <trkpt lat="45.84004" lon="4.66236">
        <ele>263.97305</ele>
        <time>2023-11-23T08:36:31.000Z</time>
      </trkpt>
      <trkpt lat="45.84002" lon="4.66237">
        <ele>264.09418</ele>
        <time>2023-11-23T08:36:32.000Z</time>
      </trkpt>
      <trkpt lat="45.83999" lon="4.66237">
        <ele>264.21075</ele>
        <time>2023-11-23T08:36:33.000Z</time>
      </trkpt>
      <trkpt lat="45.83996" lon="4.66238">
        <ele>264.32404</ele>
        <time>2023-11-23T08:36:34.000Z</time>
      </trkpt>
      <trkpt lat="45.83994" lon="4.66239">
        <ele>264.47766</ele>
        <time>2023-11-23T08:36:35.000Z</time>
      </trkpt>
      <trkpt lat="45.83991" lon="4.6624">
        <ele>264.64987</ele>
        <time>2023-11-23T08:36:36.000Z</time>
      </trkpt>
      <trkpt lat="45.83989" lon="4.66242">
        <ele>264.81561</ele>
        <time>2023-11-23T08:36:37.000Z</time>
      </trkpt>
      <trkpt lat="45.83988" lon="4.66244">
        <ele>264.95377</ele>
        <time>2023-11-23T08:36:38.000Z</time>
      </trkpt>
      <trkpt lat="45.83988" lon="4.66248">
        <ele>265.19958</ele>
        <time>2023-11-23T08:36:39.000Z</time>
      </trkpt>
      <trkpt lat="45.83989" lon="4.66251">
        <ele>265.45868</ele>
        <time>2023-11-23T08:36:40.000Z</time>
      </trkpt>
      <trkpt lat="45.83991" lon="4.66254">
        <ele>265.73108</ele>
        <time>2023-11-23T08:36:41.000Z</time>
      </trkpt>
      <trkpt lat="45.83992" lon="4.66256">
        <ele>265.98495</ele>
        <time>2023-11-23T08:36:42.000Z</time>
      </trkpt>
      <trkpt lat="45.83994" lon="4.66258">
        <ele>266.23065</ele>
        <time>2023-11-23T08:36:43.000Z</time>
      </trkpt>
      <trkpt lat="45.83996" lon="4.66261">
        <ele>266.42377</ele>
        <time>2023-11-23T08:36:45.000Z</time>
      </trkpt>
      <trkpt lat="45.83999" lon="4.66264">
        <ele>266.62875</ele>
        <time>2023-11-23T08:36:47.000Z</time>
      </trkpt>
      <trkpt lat="45.84001" lon="4.66266">
        <ele>266.82898</ele>
        <time>2023-11-23T08:36:48.000Z</time>
      </trkpt>
      <trkpt lat="45.84002" lon="4.66268">
        <ele>267.09015</ele>
        <time>2023-11-23T08:36:49.000Z</time>
      </trkpt>
      <trkpt lat="45.84004" lon="4.66271">
        <ele>267.33539</ele>
        <time>2023-11-23T08:36:50.000Z</time>
      </trkpt>
      <trkpt lat="45.84005" lon="4.66273">
        <ele>267.58588</ele>
        <time>2023-11-23T08:36:51.000Z</time>
      </trkpt>
      <trkpt lat="45.84006" lon="4.66276">
        <ele>267.78534</ele>
        <time>2023-11-23T08:36:53.000Z</time>
      </trkpt>
      <trkpt lat="45.84006" lon="4.6628">
        <ele>267.95636</ele>
        <time>2023-11-23T08:36:55.000Z</time>
      </trkpt>
      <trkpt lat="45.84007" lon="4.66284">
        <ele>268.08112</ele>
        <time>2023-11-23T08:36:57.000Z</time>
      </trkpt>
      <trkpt lat="45.84007" lon="4.66288">
        <ele>268.17096</ele>
        <time>2023-11-23T08:36:59.000Z</time>
      </trkpt>
      <trkpt lat="45.84009" lon="4.66285">
        <ele>268.21329</ele>
        <time>2023-11-23T08:37:07.000Z</time>
      </trkpt>
      <trkpt lat="45.84009" lon="4.6628">
        <ele>268.22931</ele>
        <time>2023-11-23T08:37:08.000Z</time>
      </trkpt>
      <trkpt lat="45.84008" lon="4.66275">
        <ele>268.23364</ele>
        <time>2023-11-23T08:37:09.000Z</time>
      </trkpt>
      <trkpt lat="45.84007" lon="4.66271">
        <ele>268.26743</ele>
        <time>2023-11-23T08:37:10.000Z</time>
      </trkpt>
      <trkpt lat="45.84005" lon="4.66267">
        <ele>268.32077</ele>
        <time>2023-11-23T08:37:11.000Z</time>
      </trkpt>
      <trkpt lat="45.84002" lon="4.66263">
        <ele>268.29102</ele>
        <time>2023-11-23T08:37:12.000Z</time>
      </trkpt>
      <trkpt lat="45.83999" lon="4.6626">
        <ele>268.21625</ele>
        <time>2023-11-23T08:37:13.000Z</time>
      </trkpt>
      <trkpt lat="45.83996" lon="4.66258">
        <ele>268.12393</ele>
        <time>2023-11-23T08:37:14.000Z</time>
      </trkpt>
      <trkpt lat="45.83994" lon="4.66255">
        <ele>268.03851</ele>
        <time>2023-11-23T08:37:15.000Z</time>
      </trkpt>
      <trkpt lat="45.83991" lon="4.66253">
        <ele>267.97885</ele>
        <time>2023-11-23T08:37:16.000Z</time>
      </trkpt>
      <trkpt lat="45.8399" lon="4.66251">
        <ele>267.94592</ele>
        <time>2023-11-23T08:37:17.000Z</time>
      </trkpt>
      <trkpt lat="45.83988" lon="4.66249">
        <ele>267.9306</ele>
        <time>2023-11-23T08:37:18.000Z</time>
      </trkpt>
      <trkpt lat="45.83986" lon="4.66247">
        <ele>267.91919</ele>
        <time>2023-11-23T08:37:19.000Z</time>
      </trkpt>
      <trkpt lat="45.83984" lon="4.66246">
        <ele>267.83652</ele>
        <time>2023-11-23T08:37:20.000Z</time>
      </trkpt>
      <trkpt lat="45.83982" lon="4.66245">
        <ele>267.79315</ele>
        <time>2023-11-23T08:37:21.000Z</time>
      </trkpt>
      <trkpt lat="45.83979" lon="4.66243">
        <ele>267.75937</ele>
        <time>2023-11-23T08:37:22.000Z</time>
      </trkpt>
      <trkpt lat="45.83975" lon="4.66241">
        <ele>267.73407</ele>
        <time>2023-11-23T08:37:23.000Z</time>
      </trkpt>
      <trkpt lat="45.83972" lon="4.66241">
        <ele>267.72595</ele>
        <time>2023-11-23T08:37:24.000Z</time>
      </trkpt>
      <trkpt lat="45.83968" lon="4.6624">
        <ele>267.75116</ele>
        <time>2023-11-23T08:37:25.000Z</time>
      </trkpt>
      <trkpt lat="45.83965" lon="4.66239">
        <ele>267.79898</ele>
        <time>2023-11-23T08:37:26.000Z</time>
      </trkpt>
      <trkpt lat="45.83962" lon="4.66239">
        <ele>267.86264</ele>
        <time>2023-11-23T08:37:27.000Z</time>
      </trkpt>
      <trkpt lat="45.83959" lon="4.66239">
        <ele>267.94351</ele>
        <time>2023-11-23T08:37:28.000Z</time>
      </trkpt>
      <trkpt lat="45.83955" lon="4.66239">
        <ele>268.03595</ele>
        <time>2023-11-23T08:37:29.000Z</time>
      </trkpt>
      <trkpt lat="45.83952" lon="4.66238">
        <ele>268.12115</ele>
        <time>2023-11-23T08:37:30.000Z</time>
      </trkpt>
      <trkpt lat="45.83949" lon="4.66237">
        <ele>268.19635</ele>
        <time>2023-11-23T08:37:31.000Z</time>
      </trkpt>
      <trkpt lat="45.83945" lon="4.66237">
        <ele>268.31946</ele>
        <time>2023-11-23T08:37:32.000Z</time>
      </trkpt>
      <trkpt lat="45.83942" lon="4.66235">
        <ele>268.49689</ele>
        <time>2023-11-23T08:37:33.000Z</time>
      </trkpt>
      <trkpt lat="45.83939" lon="4.66233">
        <ele>268.69272</ele>
        <time>2023-11-23T08:37:34.000Z</time>
      </trkpt>
      <trkpt lat="45.83937" lon="4.66231">
        <ele>268.88629</ele>
        <time>2023-11-23T08:37:35.000Z</time>
      </trkpt>
      <trkpt lat="45.83934" lon="4.66228">
        <ele>269.1077</ele>
        <time>2023-11-23T08:37:36.000Z</time>
      </trkpt>
      <trkpt lat="45.83932" lon="4.66225">
        <ele>269.33896</ele>
        <time>2023-11-23T08:37:37.000Z</time>
      </trkpt>
      <trkpt lat="45.83929" lon="4.66222">
        <ele>269.58115</ele>
        <time>2023-11-23T08:37:38.000Z</time>
      </trkpt>
      <trkpt lat="45.83927" lon="4.66219">
        <ele>269.85049</ele>
        <time>2023-11-23T08:37:39.000Z</time>
      </trkpt>
      <trkpt lat="45.83924" lon="4.66216">
        <ele>270.15497</ele>
        <time>2023-11-23T08:37:40.000Z</time>
      </trkpt>
      <trkpt lat="45.83921" lon="4.66214">
        <ele>270.47125</ele>
        <time>2023-11-23T08:37:41.000Z</time>
      </trkpt>
      <trkpt lat="45.83919" lon="4.6621">
        <ele>270.79144</ele>
        <time>2023-11-23T08:37:42.000Z</time>
      </trkpt>
      <trkpt lat="45.83916" lon="4.66207">
        <ele>271.03137</ele>
        <time>2023-11-23T08:37:43.000Z</time>
      </trkpt>
      <trkpt lat="45.83914" lon="4.66203">
        <ele>271.26508</ele>
        <time>2023-11-23T08:37:44.000Z</time>
      </trkpt>
      <trkpt lat="45.83911" lon="4.662">
        <ele>271.44757</ele>
        <time>2023-11-23T08:37:45.000Z</time>
      </trkpt>
      <trkpt lat="45.83909" lon="4.66197">
        <ele>271.65588</ele>
        <time>2023-11-23T08:37:46.000Z</time>
      </trkpt>
      <trkpt lat="45.83906" lon="4.66194">
        <ele>272.04709</ele>
        <time>2023-11-23T08:37:47.000Z</time>
      </trkpt>
      <trkpt lat="45.83904" lon="4.66191">
        <ele>272.4061</ele>
        <time>2023-11-23T08:37:48.000Z</time>
      </trkpt>
      <trkpt lat="45.83901" lon="4.66187">
        <ele>272.77539</ele>
        <time>2023-11-23T08:37:49.000Z</time>
      </trkpt>
      <trkpt lat="45.83899" lon="4.66183">
        <ele>273.09204</ele>
        <time>2023-11-23T08:37:50.000Z</time>
      </trkpt>
      <trkpt lat="45.83897" lon="4.6618">
        <ele>273.43652</ele>
        <time>2023-11-23T08:37:51.000Z</time>
      </trkpt>
      <trkpt lat="45.83895" lon="4.66177">
        <ele>273.77197</ele>
        <time>2023-11-23T08:37:52.000Z</time>
      </trkpt>
      <trkpt lat="45.83892" lon="4.66174">
        <ele>274.1297</ele>
        <time>2023-11-23T08:37:53.000Z</time>
      </trkpt>
      <trkpt lat="45.83888" lon="4.66174">
        <ele>274.47528</ele>
        <time>2023-11-23T08:37:54.000Z</time>
      </trkpt>
      <trkpt lat="45.83885" lon="4.66174">
        <ele>274.81949</ele>
        <time>2023-11-23T08:37:55.000Z</time>
      </trkpt>
      <trkpt lat="45.83881" lon="4.66176">
        <ele>275.11911</ele>
        <time>2023-11-23T08:37:56.000Z</time>
      </trkpt>
      <trkpt lat="45.83878" lon="4.66178">
        <ele>275.3775</ele>
        <time>2023-11-23T08:37:57.000Z</time>
      </trkpt>
      <trkpt lat="45.83874" lon="4.66179">
        <ele>275.61819</ele>
        <time>2023-11-23T08:37:58.000Z</time>
      </trkpt>
      <trkpt lat="45.83871" lon="4.66181">
        <ele>275.76971</ele>
        <time>2023-11-23T08:37:59.000Z</time>
      </trkpt>
      <trkpt lat="45.83868" lon="4.66183">
        <ele>275.89459</ele>
        <time>2023-11-23T08:38:00.000Z</time>
      </trkpt>
      <trkpt lat="45.83865" lon="4.66185">
        <ele>276.03375</ele>
        <time>2023-11-23T08:38:01.000Z</time>
      </trkpt>
      <trkpt lat="45.83861" lon="4.66187">
        <ele>276.20404</ele>
        <time>2023-11-23T08:38:02.000Z</time>
      </trkpt>
      <trkpt lat="45.83858" lon="4.66189">
        <ele>276.48871</ele>
        <time>2023-11-23T08:38:03.000Z</time>
      </trkpt>
      <trkpt lat="45.83854" lon="4.66191">
        <ele>276.78232</ele>
        <time>2023-11-23T08:38:04.000Z</time>
      </trkpt>
      <trkpt lat="45.83851" lon="4.66192">
        <ele>277.07181</ele>
        <time>2023-11-23T08:38:05.000Z</time>
      </trkpt>
      <trkpt lat="45.83847" lon="4.66193">
        <ele>277.3327</ele>
        <time>2023-11-23T08:38:06.000Z</time>
      </trkpt>
      <trkpt lat="45.83844" lon="4.66194">
        <ele>277.41043</ele>
        <time>2023-11-23T08:38:07.000Z</time>
      </trkpt>
      <trkpt lat="45.83841" lon="4.66195">
        <ele>277.51178</ele>
        <time>2023-11-23T08:38:08.000Z</time>
      </trkpt>
      <trkpt lat="45.83838" lon="4.66196">
        <ele>277.58554</ele>
        <time>2023-11-23T08:38:09.000Z</time>
      </trkpt>
      <trkpt lat="45.83834" lon="4.66198">
        <ele>277.69366</ele>
        <time>2023-11-23T08:38:10.000Z</time>
      </trkpt>
      <trkpt lat="45.8383" lon="4.662">
        <ele>277.75986</ele>
        <time>2023-11-23T08:38:11.000Z</time>
      </trkpt>
      <trkpt lat="45.83827" lon="4.66202">
        <ele>277.85449</ele>
        <time>2023-11-23T08:38:12.000Z</time>
      </trkpt>
      <trkpt lat="45.83823" lon="4.66203">
        <ele>277.95093</ele>
        <time>2023-11-23T08:38:13.000Z</time>
      </trkpt>
      <trkpt lat="45.8382" lon="4.66205">
        <ele>278.0549</ele>
        <time>2023-11-23T08:38:14.000Z</time>
      </trkpt>
      <trkpt lat="45.83816" lon="4.66207">
        <ele>278.15585</ele>
        <time>2023-11-23T08:38:15.000Z</time>
      </trkpt>
      <trkpt lat="45.83812" lon="4.66209">
        <ele>278.27585</ele>
        <time>2023-11-23T08:38:16.000Z</time>
      </trkpt>
      <trkpt lat="45.83808" lon="4.6621">
        <ele>278.39816</ele>
        <time>2023-11-23T08:38:17.000Z</time>
      </trkpt>
      <trkpt lat="45.83804" lon="4.66211">
        <ele>278.52182</ele>
        <time>2023-11-23T08:38:18.000Z</time>
      </trkpt>
      <trkpt lat="45.83801" lon="4.66213">
        <ele>278.71304</ele>
        <time>2023-11-23T08:38:19.000Z</time>
      </trkpt>
      <trkpt lat="45.83797" lon="4.66214">
        <ele>278.88391</ele>
        <time>2023-11-23T08:38:20.000Z</time>
      </trkpt>
      <trkpt lat="45.83794" lon="4.66216">
        <ele>279.01141</ele>
        <time>2023-11-23T08:38:21.000Z</time>
      </trkpt>
      <trkpt lat="45.8379" lon="4.66217">
        <ele>279.12015</ele>
        <time>2023-11-23T08:38:22.000Z</time>
      </trkpt>
      <trkpt lat="45.83787" lon="4.66219">
        <ele>279.17389</ele>
        <time>2023-11-23T08:38:23.000Z</time>
      </trkpt>
      <trkpt lat="45.83783" lon="4.6622">
        <ele>279.08386</ele>
        <time>2023-11-23T08:38:24.000Z</time>
      </trkpt>
      <trkpt lat="45.83779" lon="4.66222">
        <ele>279.03745</ele>
        <time>2023-11-23T08:38:25.000Z</time>
      </trkpt>
      <trkpt lat="45.83776" lon="4.66223">
        <ele>278.95303</ele>
        <time>2023-11-23T08:38:26.000Z</time>
      </trkpt>
      <trkpt lat="45.83772" lon="4.66225">
        <ele>278.87094</ele>
        <time>2023-11-23T08:38:27.000Z</time>
      </trkpt>
      <trkpt lat="45.83768" lon="4.66226">
        <ele>278.98874</ele>
        <time>2023-11-23T08:38:28.000Z</time>
      </trkpt>
      <trkpt lat="45.83764" lon="4.66226">
        <ele>279.09921</ele>
        <time>2023-11-23T08:38:29.000Z</time>
      </trkpt>
      <trkpt lat="45.8376" lon="4.66227">
        <ele>279.22162</ele>
        <time>2023-11-23T08:38:30.000Z</time>
      </trkpt>
      <trkpt lat="45.83757" lon="4.66228">
        <ele>279.35065</ele>
        <time>2023-11-23T08:38:31.000Z</time>
      </trkpt>
      <trkpt lat="45.83753" lon="4.66229">
        <ele>279.43369</ele>
        <time>2023-11-23T08:38:32.000Z</time>
      </trkpt>
      <trkpt lat="45.83749" lon="4.6623">
        <ele>279.49591</ele>
        <time>2023-11-23T08:38:33.000Z</time>
      </trkpt>
      <trkpt lat="45.83745" lon="4.66231">
        <ele>279.54843</ele>
        <time>2023-11-23T08:38:34.000Z</time>
      </trkpt>
      <trkpt lat="45.83741" lon="4.66232">
        <ele>279.62027</ele>
        <time>2023-11-23T08:38:35.000Z</time>
      </trkpt>
      <trkpt lat="45.83737" lon="4.66233">
        <ele>279.72345</ele>
        <time>2023-11-23T08:38:36.000Z</time>
      </trkpt>
      <trkpt lat="45.83734" lon="4.66234">
        <ele>279.83719</ele>
        <time>2023-11-23T08:38:37.000Z</time>
      </trkpt>
      <trkpt lat="45.8373" lon="4.66235">
        <ele>279.96646</ele>
        <time>2023-11-23T08:38:38.000Z</time>
      </trkpt>
      <trkpt lat="45.83726" lon="4.66236">
        <ele>280.08554</ele>
        <time>2023-11-23T08:38:39.000Z</time>
      </trkpt>
      <trkpt lat="45.83723" lon="4.66237">
        <ele>280.20386</ele>
        <time>2023-11-23T08:38:40.000Z</time>
      </trkpt>
      <trkpt lat="45.8372" lon="4.66238">
        <ele>280.34848</ele>
        <time>2023-11-23T08:38:41.000Z</time>
      </trkpt>
      <trkpt lat="45.83717" lon="4.66238">
        <ele>280.4725</ele>
        <time>2023-11-23T08:38:42.000Z</time>
      </trkpt>
      <trkpt lat="45.83714" lon="4.66238">
        <ele>280.66153</ele>
        <time>2023-11-23T08:38:43.000Z</time>
      </trkpt>
      <trkpt lat="45.83711" lon="4.66238">
        <ele>280.99908</ele>
        <time>2023-11-23T08:38:44.000Z</time>
      </trkpt>
      <trkpt lat="45.83709" lon="4.66238">
        <ele>281.34314</ele>
        <time>2023-11-23T08:38:45.000Z</time>
      </trkpt>
      <trkpt lat="45.83707" lon="4.66238">
        <ele>281.73059</ele>
        <time>2023-11-23T08:38:46.000Z</time>
      </trkpt>
      <trkpt lat="45.83704" lon="4.66239">
        <ele>282.10291</ele>
        <time>2023-11-23T08:38:47.000Z</time>
      </trkpt>
      <trkpt lat="45.83702" lon="4.66239">
        <ele>282.26532</ele>
        <time>2023-11-23T08:38:48.000Z</time>
      </trkpt>
      <trkpt lat="45.837" lon="4.66239">
        <ele>282.42325</ele>
        <time>2023-11-23T08:38:49.000Z</time>
      </trkpt>
      <trkpt lat="45.83698" lon="4.66238">
        <ele>282.45782</ele>
        <time>2023-11-23T08:38:50.000Z</time>
      </trkpt>
      <trkpt lat="45.83694" lon="4.66238">
        <ele>282.40891</ele>
        <time>2023-11-23T08:38:52.000Z</time>
      </trkpt>
      <trkpt lat="45.83692" lon="4.66238">
        <ele>282.34433</ele>
        <time>2023-11-23T08:38:53.000Z</time>
      </trkpt>
      <trkpt lat="45.83691" lon="4.66238">
        <ele>282.54663</ele>
        <time>2023-11-23T08:38:54.000Z</time>
      </trkpt>
      <trkpt lat="45.83688" lon="4.66237">
        <ele>282.69513</ele>
        <time>2023-11-23T08:38:55.000Z</time>
      </trkpt>
      <trkpt lat="45.83686" lon="4.66237">
        <ele>282.79672</ele>
        <time>2023-11-23T08:38:56.000Z</time>
      </trkpt>
      <trkpt lat="45.83683" lon="4.66237">
        <ele>282.84662</ele>
        <time>2023-11-23T08:38:57.000Z</time>
      </trkpt>
      <trkpt lat="45.83681" lon="4.66237">
        <ele>282.9118</ele>
        <time>2023-11-23T08:38:58.000Z</time>
      </trkpt>
      <trkpt lat="45.83679" lon="4.66238">
        <ele>282.94571</ele>
        <time>2023-11-23T08:38:59.000Z</time>
      </trkpt>
      <trkpt lat="45.83675" lon="4.66237">
        <ele>282.95367</ele>
        <time>2023-11-23T08:39:01.000Z</time>
      </trkpt>
      <trkpt lat="45.83674" lon="4.66237">
        <ele>282.97272</ele>
        <time>2023-11-23T08:39:02.000Z</time>
      </trkpt>
      <trkpt lat="45.83672" lon="4.66236">
        <ele>282.95352</ele>
        <time>2023-11-23T08:39:03.000Z</time>
      </trkpt>
      <trkpt lat="45.8367" lon="4.66238">
        <ele>282.93759</ele>
        <time>2023-11-23T08:39:12.000Z</time>
      </trkpt>
      <trkpt lat="45.83668" lon="4.66243">
        <ele>282.86456</ele>
        <time>2023-11-23T08:39:14.000Z</time>
      </trkpt>
      <trkpt lat="45.83668" lon="4.66247">
        <ele>282.78406</ele>
        <time>2023-11-23T08:39:15.000Z</time>
      </trkpt>
      <trkpt lat="45.83668" lon="4.6625">
        <ele>282.69458</ele>
        <time>2023-11-23T08:39:16.000Z</time>
      </trkpt>
      <trkpt lat="45.83668" lon="4.66254">
        <ele>282.61237</ele>
        <time>2023-11-23T08:39:17.000Z</time>
      </trkpt>
      <trkpt lat="45.83669" lon="4.66259">
        <ele>282.55124</ele>
        <time>2023-11-23T08:39:18.000Z</time>
      </trkpt>
      <trkpt lat="45.83669" lon="4.66264">
        <ele>282.46631</ele>
        <time>2023-11-23T08:39:19.000Z</time>
      </trkpt>
      <trkpt lat="45.83669" lon="4.66269">
        <ele>282.39603</ele>
        <time>2023-11-23T08:39:20.000Z</time>
      </trkpt>
      <trkpt lat="45.83669" lon="4.66274">
        <ele>282.41351</ele>
        <time>2023-11-23T08:39:21.000Z</time>
      </trkpt>
      <trkpt lat="45.83669" lon="4.66279">
        <ele>282.46683</ele>
        <time>2023-11-23T08:39:22.000Z</time>
      </trkpt>
      <trkpt lat="45.83669" lon="4.66284">
        <ele>282.41037</ele>
        <time>2023-11-23T08:39:23.000Z</time>
      </trkpt>
      <trkpt lat="45.83669" lon="4.6629">
        <ele>282.06244</ele>
        <time>2023-11-23T08:39:24.000Z</time>
      </trkpt>
      <trkpt lat="45.83668" lon="4.66295">
        <ele>281.7413</ele>
        <time>2023-11-23T08:39:25.000Z</time>
      </trkpt>
      <trkpt lat="45.83668" lon="4.663">
        <ele>281.38348</ele>
        <time>2023-11-23T08:39:26.000Z</time>
      </trkpt>
      <trkpt lat="45.83668" lon="4.66305">
        <ele>280.98825</ele>
        <time>2023-11-23T08:39:27.000Z</time>
      </trkpt>
      <trkpt lat="45.83667" lon="4.6631">
        <ele>280.79056</ele>
        <time>2023-11-23T08:39:28.000Z</time>
      </trkpt>
      <trkpt lat="45.83667" lon="4.66314">
        <ele>280.59592</ele>
        <time>2023-11-23T08:39:29.000Z</time>
      </trkpt>
      <trkpt lat="45.83667" lon="4.66319">
        <ele>280.42233</ele>
        <time>2023-11-23T08:39:30.000Z</time>
      </trkpt>
      <trkpt lat="45.83667" lon="4.66323">
        <ele>280.23676</ele>
        <time>2023-11-23T08:39:31.000Z</time>
      </trkpt>
      <trkpt lat="45.83667" lon="4.66327">
        <ele>280.05304</ele>
        <time>2023-11-23T08:39:32.000Z</time>
      </trkpt>
      <trkpt lat="45.83667" lon="4.66332">
        <ele>279.84155</ele>
        <time>2023-11-23T08:39:33.000Z</time>
      </trkpt>
      <trkpt lat="45.83667" lon="4.66337">
        <ele>279.56857</ele>
        <time>2023-11-23T08:39:34.000Z</time>
      </trkpt>
      <trkpt lat="45.83666" lon="4.66341">
        <ele>279.27319</ele>
        <time>2023-11-23T08:39:35.000Z</time>
      </trkpt>
      <trkpt lat="45.83666" lon="4.66347">
        <ele>278.9382</ele>
        <time>2023-11-23T08:39:36.000Z</time>
      </trkpt>
      <trkpt lat="45.83667" lon="4.66353">
        <ele>278.52832</ele>
        <time>2023-11-23T08:39:37.000Z</time>
      </trkpt>
      <trkpt lat="45.83668" lon="4.6636">
        <ele>278.08374</ele>
        <time>2023-11-23T08:39:38.000Z</time>
      </trkpt>
      <trkpt lat="45.83668" lon="4.66366">
        <ele>277.6131</ele>
        <time>2023-11-23T08:39:39.000Z</time>
      </trkpt>
      <trkpt lat="45.8367" lon="4.66371">
        <ele>277.12833</ele>
        <time>2023-11-23T08:39:40.000Z</time>
      </trkpt>
      <trkpt lat="45.83671" lon="4.66375">
        <ele>276.64288</ele>
        <time>2023-11-23T08:39:41.000Z</time>
      </trkpt>
      <trkpt lat="45.83672" lon="4.6638">
        <ele>276.19958</ele>
        <time>2023-11-23T08:39:42.000Z</time>
      </trkpt>
      <trkpt lat="45.83673" lon="4.66384">
        <ele>275.84906</ele>
        <time>2023-11-23T08:39:43.000Z</time>
      </trkpt>
      <trkpt lat="45.83673" lon="4.66389">
        <ele>275.49048</ele>
        <time>2023-11-23T08:39:44.000Z</time>
      </trkpt>
      <trkpt lat="45.83673" lon="4.66393">
        <ele>275.12042</ele>
        <time>2023-11-23T08:39:45.000Z</time>
      </trkpt>
      <trkpt lat="45.83671" lon="4.66396">
        <ele>274.79529</ele>
        <time>2023-11-23T08:39:46.000Z</time>
      </trkpt>
      <trkpt lat="45.83668" lon="4.66398">
        <ele>274.43881</ele>
        <time>2023-11-23T08:39:47.000Z</time>
      </trkpt>
      <trkpt lat="45.83667" lon="4.66399">
        <ele>273.86017</ele>
        <time>2023-11-23T08:39:48.000Z</time>
      </trkpt>
      <trkpt lat="45.83665" lon="4.664">
        <ele>273.39081</ele>
        <time>2023-11-23T08:39:49.000Z</time>
      </trkpt>
      <trkpt lat="45.83662" lon="4.66401">
        <ele>272.8804</ele>
        <time>2023-11-23T08:39:50.000Z</time>
      </trkpt>
      <trkpt lat="45.83661" lon="4.66401">
        <ele>272.37372</ele>
        <time>2023-11-23T08:39:51.000Z</time>
      </trkpt>
      <trkpt lat="45.83659" lon="4.66402">
        <ele>271.86505</ele>
        <time>2023-11-23T08:39:52.000Z</time>
      </trkpt>
      <trkpt lat="45.83657" lon="4.66405">
        <ele>271.38882</ele>
        <time>2023-11-23T08:39:53.000Z</time>
      </trkpt>
      <trkpt lat="45.83655" lon="4.66407">
        <ele>270.95282</ele>
        <time>2023-11-23T08:39:54.000Z</time>
      </trkpt>
      <trkpt lat="45.83654" lon="4.66409">
        <ele>270.52844</ele>
        <time>2023-11-23T08:39:55.000Z</time>
      </trkpt>
      <trkpt lat="45.83653" lon="4.66413">
        <ele>270.15952</ele>
        <time>2023-11-23T08:39:56.000Z</time>
      </trkpt>
      <trkpt lat="45.83653" lon="4.66418">
        <ele>269.83072</ele>
        <time>2023-11-23T08:39:57.000Z</time>
      </trkpt>
      <trkpt lat="45.83655" lon="4.66422">
        <ele>269.52811</ele>
        <time>2023-11-23T08:39:58.000Z</time>
      </trkpt>
      <trkpt lat="45.83657" lon="4.66426">
        <ele>269.25104</ele>
        <time>2023-11-23T08:39:59.000Z</time>
      </trkpt>
      <trkpt lat="45.83659" lon="4.66428">
        <ele>268.97311</ele>
        <time>2023-11-23T08:40:00.000Z</time>
      </trkpt>
      <trkpt lat="45.83661" lon="4.66431">
        <ele>268.7009</ele>
        <time>2023-11-23T08:40:01.000Z</time>
      </trkpt>
      <trkpt lat="45.83663" lon="4.66434">
        <ele>268.39581</ele>
        <time>2023-11-23T08:40:02.000Z</time>
      </trkpt>
      <trkpt lat="45.83665" lon="4.66438">
        <ele>268.13092</ele>
        <time>2023-11-23T08:40:03.000Z</time>
      </trkpt>
      <trkpt lat="45.83667" lon="4.66441">
        <ele>267.88959</ele>
        <time>2023-11-23T08:40:04.000Z</time>
      </trkpt>
      <trkpt lat="45.83669" lon="4.66443">
        <ele>267.72174</ele>
        <time>2023-11-23T08:40:05.000Z</time>
      </trkpt>
      <trkpt lat="45.83672" lon="4.66447">
        <ele>267.52115</ele>
        <time>2023-11-23T08:40:06.000Z</time>
      </trkpt>
      <trkpt lat="45.83675" lon="4.6645">
        <ele>267.38577</ele>
        <time>2023-11-23T08:40:07.000Z</time>
      </trkpt>
      <trkpt lat="45.83677" lon="4.66454">
        <ele>267.24197</ele>
        <time>2023-11-23T08:40:08.000Z</time>
      </trkpt>
      <trkpt lat="45.83679" lon="4.66458">
        <ele>266.99234</ele>
        <time>2023-11-23T08:40:09.000Z</time>
      </trkpt>
      <trkpt lat="45.83685" lon="4.66468">
        <ele>266.78549</ele>
        <time>2023-11-23T08:40:10.000Z</time>
      </trkpt>
      <trkpt lat="45.83688" lon="4.66474">
        <ele>266.56903</ele>
        <time>2023-11-23T08:40:11.000Z</time>
      </trkpt>
      <trkpt lat="45.83693" lon="4.66482">
        <ele>266.35175</ele>
        <time>2023-11-23T08:40:12.000Z</time>
      </trkpt>
      <trkpt lat="45.83698" lon="4.66486">
        <ele>266.01917</ele>
        <time>2023-11-23T08:40:13.000Z</time>
      </trkpt>
      <trkpt lat="45.83699" lon="4.6649">
        <ele>265.73373</ele>
        <time>2023-11-23T08:40:14.000Z</time>
      </trkpt>
      <trkpt lat="45.83701" lon="4.66494">
        <ele>265.45654</ele>
        <time>2023-11-23T08:40:15.000Z</time>
      </trkpt>
      <trkpt lat="45.83704" lon="4.66497">
        <ele>265.10651</ele>
        <time>2023-11-23T08:40:16.000Z</time>
      </trkpt>
      <trkpt lat="45.83708" lon="4.665">
        <ele>264.77313</ele>
        <time>2023-11-23T08:40:17.000Z</time>
      </trkpt>
      <trkpt lat="45.8371" lon="4.66503">
        <ele>264.41568</ele>
        <time>2023-11-23T08:40:18.000Z</time>
      </trkpt>
      <trkpt lat="45.83713" lon="4.66508">
        <ele>264.07373</ele>
        <time>2023-11-23T08:40:19.000Z</time>
      </trkpt>
      <trkpt lat="45.83717" lon="4.6651">
        <ele>263.72479</ele>
        <time>2023-11-23T08:40:20.000Z</time>
      </trkpt>
      <trkpt lat="45.83719" lon="4.6651">
        <ele>265.04935</ele>
        <time>2023-11-23T08:40:21.000Z</time>
      </trkpt>
      <trkpt lat="45.83721" lon="4.66513">
        <ele>265.77499</ele>
        <time>2023-11-23T08:40:22.000Z</time>
      </trkpt>
      <trkpt lat="45.83724" lon="4.66515">
        <ele>266.58502</ele>
        <time>2023-11-23T08:40:23.000Z</time>
      </trkpt>
      <trkpt lat="45.83726" lon="4.66516">
        <ele>267.41434</ele>
        <time>2023-11-23T08:40:24.000Z</time>
      </trkpt>
      <trkpt lat="45.83729" lon="4.66517">
        <ele>268.29922</ele>
        <time>2023-11-23T08:40:25.000Z</time>
      </trkpt>
      <trkpt lat="45.83732" lon="4.66518">
        <ele>269.29861</ele>
        <time>2023-11-23T08:40:26.000Z</time>
      </trkpt>
      <trkpt lat="45.83735" lon="4.66519">
        <ele>270.46518</ele>
        <time>2023-11-23T08:40:27.000Z</time>
      </trkpt>
      <trkpt lat="45.83737" lon="4.66521">
        <ele>271.74591</ele>
        <time>2023-11-23T08:40:28.000Z</time>
      </trkpt>
      <trkpt lat="45.8374" lon="4.66524">
        <ele>273.11456</ele>
        <time>2023-11-23T08:40:29.000Z</time>
      </trkpt>
      <trkpt lat="45.83743" lon="4.66527">
        <ele>274.461</ele>
        <time>2023-11-23T08:40:30.000Z</time>
      </trkpt>
      <trkpt lat="45.83745" lon="4.6653">
        <ele>275.87045</ele>
        <time>2023-11-23T08:40:31.000Z</time>
      </trkpt>
      <trkpt lat="45.83748" lon="4.66532">
        <ele>277.22192</ele>
        <time>2023-11-23T08:40:32.000Z</time>
      </trkpt>
      <trkpt lat="45.83751" lon="4.66533">
        <ele>278.64432</ele>
        <time>2023-11-23T08:40:33.000Z</time>
      </trkpt>
      <trkpt lat="45.83753" lon="4.66535">
        <ele>280.24652</ele>
        <time>2023-11-23T08:40:34.000Z</time>
      </trkpt>
      <trkpt lat="45.83756" lon="4.66536">
        <ele>281.89816</ele>
        <time>2023-11-23T08:40:35.000Z</time>
      </trkpt>
      <trkpt lat="45.83759" lon="4.66537">
        <ele>283.5899</ele>
        <time>2023-11-23T08:40:36.000Z</time>
      </trkpt>
      <trkpt lat="45.83761" lon="4.66538">
        <ele>285.25247</ele>
        <time>2023-11-23T08:40:37.000Z</time>
      </trkpt>
      <trkpt lat="45.83764" lon="4.6654">
        <ele>286.91113</ele>
        <time>2023-11-23T08:40:38.000Z</time>
      </trkpt>
      <trkpt lat="45.83766" lon="4.6654">
        <ele>288.51678</ele>
        <time>2023-11-23T08:40:39.000Z</time>
      </trkpt>
      <trkpt lat="45.83769" lon="4.66541">
        <ele>290.19592</ele>
        <time>2023-11-23T08:40:40.000Z</time>
      </trkpt>
      <trkpt lat="45.83771" lon="4.66542">
        <ele>289.67499</ele>
        <time>2023-11-23T08:40:41.000Z</time>
      </trkpt>
      <trkpt lat="45.83773" lon="4.66543">
        <ele>289.82672</ele>
        <time>2023-11-23T08:40:42.000Z</time>
      </trkpt>
      <trkpt lat="45.83775" lon="4.66544">
        <ele>289.81412</ele>
        <time>2023-11-23T08:40:43.000Z</time>
      </trkpt>
      <trkpt lat="45.83778" lon="4.66545">
        <ele>289.6658</ele>
        <time>2023-11-23T08:40:45.000Z</time>
      </trkpt>
      <trkpt lat="45.83781" lon="4.66548">
        <ele>289.48184</ele>
        <time>2023-11-23T08:40:47.000Z</time>
      </trkpt>
      <trkpt lat="45.83783" lon="4.66551">
        <ele>289.12567</ele>
        <time>2023-11-23T08:40:49.000Z</time>
      </trkpt>
      <trkpt lat="45.83785" lon="4.66553">
        <ele>288.59897</ele>
        <time>2023-11-23T08:40:50.000Z</time>
      </trkpt>
      <trkpt lat="45.83787" lon="4.66556">
        <ele>287.93796</ele>
        <time>2023-11-23T08:40:51.000Z</time>
      </trkpt>
      <trkpt lat="45.83789" lon="4.66559">
        <ele>287.21835</ele>
        <time>2023-11-23T08:40:52.000Z</time>
      </trkpt>
      <trkpt lat="45.8379" lon="4.66562">
        <ele>286.47314</ele>
        <time>2023-11-23T08:40:53.000Z</time>
      </trkpt>
      <trkpt lat="45.83792" lon="4.66564">
        <ele>285.716</ele>
        <time>2023-11-23T08:40:54.000Z</time>
      </trkpt>
      <trkpt lat="45.83795" lon="4.66567">
        <ele>285.05621</ele>
        <time>2023-11-23T08:40:55.000Z</time>
      </trkpt>
      <trkpt lat="45.83797" lon="4.66569">
        <ele>284.39398</ele>
        <time>2023-11-23T08:40:56.000Z</time>
      </trkpt>
      <trkpt lat="45.83798" lon="4.66571">
        <ele>283.38345</ele>
        <time>2023-11-23T08:40:57.000Z</time>
      </trkpt>
      <trkpt lat="45.838" lon="4.66573">
        <ele>282.67944</ele>
        <time>2023-11-23T08:40:58.000Z</time>
      </trkpt>
      <trkpt lat="45.838" lon="4.66578">
        <ele>281.9772</ele>
        <time>2023-11-23T08:41:00.000Z</time>
      </trkpt>
      <trkpt lat="45.83799" lon="4.66581">
        <ele>281.28433</ele>
        <time>2023-11-23T08:41:01.000Z</time>
      </trkpt>
      <trkpt lat="45.83796" lon="4.66583">
        <ele>280.5657</ele>
        <time>2023-11-23T08:41:02.000Z</time>
      </trkpt>
      <trkpt lat="45.83794" lon="4.66584">
        <ele>279.90082</ele>
        <time>2023-11-23T08:41:03.000Z</time>
      </trkpt>
      <trkpt lat="45.8379" lon="4.66586">
        <ele>279.16986</ele>
        <time>2023-11-23T08:41:05.000Z</time>
      </trkpt>
      <trkpt lat="45.83787" lon="4.66589">
        <ele>278.86063</ele>
        <time>2023-11-23T08:41:06.000Z</time>
      </trkpt>
      <trkpt lat="45.83785" lon="4.66591">
        <ele>278.61334</ele>
        <time>2023-11-23T08:41:07.000Z</time>
      </trkpt>
      <trkpt lat="45.83783" lon="4.66594">
        <ele>278.47473</ele>
        <time>2023-11-23T08:41:08.000Z</time>
      </trkpt>
      <trkpt lat="45.83781" lon="4.66598">
        <ele>278.58496</ele>
        <time>2023-11-23T08:41:09.000Z</time>
      </trkpt>
      <trkpt lat="45.83779" lon="4.66601">
        <ele>278.78021</ele>
        <time>2023-11-23T08:41:10.000Z</time>
      </trkpt>
      <trkpt lat="45.83778" lon="4.66606">
        <ele>278.40872</ele>
        <time>2023-11-23T08:41:11.000Z</time>
      </trkpt>
      <trkpt lat="45.83777" lon="4.6661">
        <ele>278.13263</ele>
        <time>2023-11-23T08:41:12.000Z</time>
      </trkpt>
      <trkpt lat="45.83777" lon="4.66614">
        <ele>277.83664</ele>
        <time>2023-11-23T08:41:13.000Z</time>
      </trkpt>
      <trkpt lat="45.83777" lon="4.66618">
        <ele>277.37671</ele>
        <time>2023-11-23T08:41:14.000Z</time>
      </trkpt>
      <trkpt lat="45.83777" lon="4.66621">
        <ele>277.27539</ele>
        <time>2023-11-23T08:41:15.000Z</time>
      </trkpt>
      <trkpt lat="45.83775" lon="4.66624">
        <ele>277.4317</ele>
        <time>2023-11-23T08:41:17.000Z</time>
      </trkpt>
      <trkpt lat="45.83772" lon="4.66623">
        <ele>277.64447</ele>
        <time>2023-11-23T08:41:19.000Z</time>
      </trkpt>
      <trkpt lat="45.83769" lon="4.66622">
        <ele>278.05038</ele>
        <time>2023-11-23T08:41:20.000Z</time>
      </trkpt>
      <trkpt lat="45.83766" lon="4.6662">
        <ele>278.72687</ele>
        <time>2023-11-23T08:41:21.000Z</time>
      </trkpt>
      <trkpt lat="45.83758" lon="4.66614">
        <ele>279.02963</ele>
        <time>2023-11-23T08:41:22.000Z</time>
      </trkpt>
      <trkpt lat="45.83752" lon="4.6661">
        <ele>279.6813</ele>
        <time>2023-11-23T08:41:23.000Z</time>
      </trkpt>
      <trkpt lat="45.83743" lon="4.66603">
        <ele>280.3996</ele>
        <time>2023-11-23T08:41:24.000Z</time>
      </trkpt>
      <trkpt lat="45.83737" lon="4.666">
        <ele>281.17041</ele>
        <time>2023-11-23T08:41:25.000Z</time>
      </trkpt>
      <trkpt lat="45.83732" lon="4.66594">
        <ele>281.98248</ele>
        <time>2023-11-23T08:41:26.000Z</time>
      </trkpt>
      <trkpt lat="45.83727" lon="4.66591">
        <ele>282.16281</ele>
        <time>2023-11-23T08:41:27.000Z</time>
      </trkpt>
      <trkpt lat="45.83725" lon="4.66589">
        <ele>282.54007</ele>
        <time>2023-11-23T08:41:28.000Z</time>
      </trkpt>
      <trkpt lat="45.83722" lon="4.66591">
        <ele>282.69824</ele>
        <time>2023-11-23T08:41:29.000Z</time>
      </trkpt>
      <trkpt lat="45.8372" lon="4.66593">
        <ele>282.81201</ele>
        <time>2023-11-23T08:41:30.000Z</time>
      </trkpt>
      <trkpt lat="45.83717" lon="4.66595">
        <ele>282.77222</ele>
        <time>2023-11-23T08:41:31.000Z</time>
      </trkpt>
      <trkpt lat="45.83715" lon="4.66596">
        <ele>282.56754</ele>
        <time>2023-11-23T08:41:32.000Z</time>
      </trkpt>
      <trkpt lat="45.83712" lon="4.66598">
        <ele>283.17755</ele>
        <time>2023-11-23T08:41:33.000Z</time>
      </trkpt>
      <trkpt lat="45.83709" lon="4.66599">
        <ele>283.72992</ele>
        <time>2023-11-23T08:41:34.000Z</time>
      </trkpt>
      <trkpt lat="45.83706" lon="4.66596">
        <ele>284.39023</ele>
        <time>2023-11-23T08:41:35.000Z</time>
      </trkpt>
      <trkpt lat="45.83703" lon="4.66597">
        <ele>285.56732</ele>
        <time>2023-11-23T08:41:36.000Z</time>
      </trkpt>
      <trkpt lat="45.837" lon="4.66596">
        <ele>286.64322</ele>
        <time>2023-11-23T08:41:37.000Z</time>
      </trkpt>
      <trkpt lat="45.83698" lon="4.66595">
        <ele>287.45905</ele>
        <time>2023-11-23T08:41:38.000Z</time>
      </trkpt>
      <trkpt lat="45.83695" lon="4.66594">
        <ele>287.58185</ele>
        <time>2023-11-23T08:41:39.000Z</time>
      </trkpt>
      <trkpt lat="45.83692" lon="4.66591">
        <ele>287.78357</ele>
        <time>2023-11-23T08:41:40.000Z</time>
      </trkpt>
      <trkpt lat="45.83689" lon="4.66589">
        <ele>288.06238</ele>
        <time>2023-11-23T08:41:41.000Z</time>
      </trkpt>
      <trkpt lat="45.83686" lon="4.66587">
        <ele>288.3515</ele>
        <time>2023-11-23T08:41:42.000Z</time>
      </trkpt>
      <trkpt lat="45.83684" lon="4.66585">
        <ele>288.36078</ele>
        <time>2023-11-23T08:41:43.000Z</time>
      </trkpt>
      <trkpt lat="45.83682" lon="4.66584">
        <ele>288.28839</ele>
        <time>2023-11-23T08:41:44.000Z</time>
      </trkpt>
      <trkpt lat="45.83679" lon="4.66583">
        <ele>288.19977</ele>
        <time>2023-11-23T08:41:45.000Z</time>
      </trkpt>
      <trkpt lat="45.83677" lon="4.66583">
        <ele>288.2106</ele>
        <time>2023-11-23T08:41:46.000Z</time>
      </trkpt>
      <trkpt lat="45.83674" lon="4.66582">
        <ele>288.82379</ele>
        <time>2023-11-23T08:41:47.000Z</time>
      </trkpt>
      <trkpt lat="45.8367" lon="4.6658">
        <ele>289.33038</ele>
        <time>2023-11-23T08:41:48.000Z</time>
      </trkpt>
      <trkpt lat="45.83666" lon="4.66577">
        <ele>289.9371</ele>
        <time>2023-11-23T08:41:49.000Z</time>
      </trkpt>
      <trkpt lat="45.83664" lon="4.66575">
        <ele>290.58124</ele>
        <time>2023-11-23T08:41:50.000Z</time>
      </trkpt>
      <trkpt lat="45.8366" lon="4.66572">
        <ele>291.14572</ele>
        <time>2023-11-23T08:41:51.000Z</time>
      </trkpt>
      <trkpt lat="45.83657" lon="4.6657">
        <ele>291.73422</ele>
        <time>2023-11-23T08:41:52.000Z</time>
      </trkpt>
      <trkpt lat="45.83653" lon="4.66567">
        <ele>292.17111</ele>
        <time>2023-11-23T08:41:53.000Z</time>
      </trkpt>
      <trkpt lat="45.8365" lon="4.66564">
        <ele>292.68671</ele>
        <time>2023-11-23T08:41:54.000Z</time>
      </trkpt>
      <trkpt lat="45.83646" lon="4.6656">
        <ele>293.02411</ele>
        <time>2023-11-23T08:41:55.000Z</time>
      </trkpt>
      <trkpt lat="45.83642" lon="4.66557">
        <ele>293.03217</ele>
        <time>2023-11-23T08:41:56.000Z</time>
      </trkpt>
      <trkpt lat="45.8364" lon="4.66555">
        <ele>292.78952</ele>
        <time>2023-11-23T08:41:57.000Z</time>
      </trkpt>
      <trkpt lat="45.83637" lon="4.66551">
        <ele>292.50424</ele>
        <time>2023-11-23T08:41:58.000Z</time>
      </trkpt>
      <trkpt lat="45.83633" lon="4.66549">
        <ele>292.70691</ele>
        <time>2023-11-23T08:41:59.000Z</time>
      </trkpt>
      <trkpt lat="45.83629" lon="4.66547">
        <ele>292.90118</ele>
        <time>2023-11-23T08:42:00.000Z</time>
      </trkpt>
      <trkpt lat="45.83624" lon="4.66544">
        <ele>292.83795</ele>
        <time>2023-11-23T08:42:01.000Z</time>
      </trkpt>
      <trkpt lat="45.8362" lon="4.66542">
        <ele>292.82217</ele>
        <time>2023-11-23T08:42:02.000Z</time>
      </trkpt>
      <trkpt lat="45.83617" lon="4.6654">
        <ele>292.80228</ele>
        <time>2023-11-23T08:42:03.000Z</time>
      </trkpt>
      <trkpt lat="45.83613" lon="4.66538">
        <ele>293.08771</ele>
        <time>2023-11-23T08:42:04.000Z</time>
      </trkpt>
      <trkpt lat="45.8361" lon="4.66537">
        <ele>293.37799</ele>
        <time>2023-11-23T08:42:05.000Z</time>
      </trkpt>
      <trkpt lat="45.83606" lon="4.66535">
        <ele>293.01355</ele>
        <time>2023-11-23T08:42:06.000Z</time>
      </trkpt>
      <trkpt lat="45.83602" lon="4.66532">
        <ele>292.79004</ele>
        <time>2023-11-23T08:42:07.000Z</time>
      </trkpt>
      <trkpt lat="45.83599" lon="4.66529">
        <ele>292.64386</ele>
        <time>2023-11-23T08:42:08.000Z</time>
      </trkpt>
      <trkpt lat="45.83596" lon="4.66526">
        <ele>292.54385</ele>
        <time>2023-11-23T08:42:09.000Z</time>
      </trkpt>
      <trkpt lat="45.83594" lon="4.66522">
        <ele>292.42783</ele>
        <time>2023-11-23T08:42:10.000Z</time>
      </trkpt>
      <trkpt lat="45.8359" lon="4.66518">
        <ele>292.35016</ele>
        <time>2023-11-23T08:42:11.000Z</time>
      </trkpt>
      <trkpt lat="45.83587" lon="4.66514">
        <ele>292.19165</ele>
        <time>2023-11-23T08:42:12.000Z</time>
      </trkpt>
      <trkpt lat="45.83584" lon="4.6651">
        <ele>292.26688</ele>
        <time>2023-11-23T08:42:13.000Z</time>
      </trkpt>
      <trkpt lat="45.83581" lon="4.66506">
        <ele>292.52292</ele>
        <time>2023-11-23T08:42:14.000Z</time>
      </trkpt>
      <trkpt lat="45.83577" lon="4.66502">
        <ele>292.27884</ele>
        <time>2023-11-23T08:42:15.000Z</time>
      </trkpt>
      <trkpt lat="45.83574" lon="4.66499">
        <ele>292.08505</ele>
        <time>2023-11-23T08:42:16.000Z</time>
      </trkpt>
      <trkpt lat="45.8357" lon="4.66495">
        <ele>291.94455</ele>
        <time>2023-11-23T08:42:17.000Z</time>
      </trkpt>
      <trkpt lat="45.83566" lon="4.66492">
        <ele>291.86719</ele>
        <time>2023-11-23T08:42:18.000Z</time>
      </trkpt>
      <trkpt lat="45.83562" lon="4.66489">
        <ele>292.15353</ele>
        <time>2023-11-23T08:42:19.000Z</time>
      </trkpt>
      <trkpt lat="45.83559" lon="4.66486">
        <ele>292.15103</ele>
        <time>2023-11-23T08:42:20.000Z</time>
      </trkpt>
      <trkpt lat="45.83555" lon="4.66483">
        <ele>292.27805</ele>
        <time>2023-11-23T08:42:21.000Z</time>
      </trkpt>
      <trkpt lat="45.83552" lon="4.66481">
        <ele>292.39453</ele>
        <time>2023-11-23T08:42:22.000Z</time>
      </trkpt>
      <trkpt lat="45.83549" lon="4.66479">
        <ele>292.66473</ele>
        <time>2023-11-23T08:42:23.000Z</time>
      </trkpt>
      <trkpt lat="45.83545" lon="4.66476">
        <ele>292.60114</ele>
        <time>2023-11-23T08:42:24.000Z</time>
      </trkpt>
      <trkpt lat="45.83542" lon="4.66473">
        <ele>292.55688</ele>
        <time>2023-11-23T08:42:25.000Z</time>
      </trkpt>
      <trkpt lat="45.8354" lon="4.6647">
        <ele>293.03784</ele>
        <time>2023-11-23T08:42:26.000Z</time>
      </trkpt>
      <trkpt lat="45.83538" lon="4.66468">
        <ele>292.90793</ele>
        <time>2023-11-23T08:42:27.000Z</time>
      </trkpt>
      <trkpt lat="45.83535" lon="4.66467">
        <ele>292.87125</ele>
        <time>2023-11-23T08:42:29.000Z</time>
      </trkpt>
      <trkpt lat="45.83537" lon="4.66468">
        <ele>292.57822</ele>
        <time>2023-11-23T08:42:37.000Z</time>
      </trkpt>
      <trkpt lat="45.8354" lon="4.6647">
        <ele>292.37494</ele>
        <time>2023-11-23T08:42:39.000Z</time>
      </trkpt>
      <trkpt lat="45.83542" lon="4.66472">
        <ele>292.25977</ele>
        <time>2023-11-23T08:42:40.000Z</time>
      </trkpt>
      <trkpt lat="45.83545" lon="4.66473">
        <ele>292.19855</ele>
        <time>2023-11-23T08:42:41.000Z</time>
      </trkpt>
      <trkpt lat="45.83548" lon="4.66475">
        <ele>291.87531</ele>
        <time>2023-11-23T08:42:42.000Z</time>
      </trkpt>
      <trkpt lat="45.83551" lon="4.66476">
        <ele>291.38544</ele>
        <time>2023-11-23T08:42:43.000Z</time>
      </trkpt>
      <trkpt lat="45.83553" lon="4.66478">
        <ele>291.50458</ele>
        <time>2023-11-23T08:42:44.000Z</time>
      </trkpt>
      <trkpt lat="45.83556" lon="4.66479">
        <ele>291.48688</ele>
        <time>2023-11-23T08:42:45.000Z</time>
      </trkpt>
      <trkpt lat="45.83558" lon="4.66481">
        <ele>291.36749</ele>
        <time>2023-11-23T08:42:46.000Z</time>
      </trkpt>
      <trkpt lat="45.83561" lon="4.66484">
        <ele>291.25003</ele>
        <time>2023-11-23T08:42:47.000Z</time>
      </trkpt>
      <trkpt lat="45.83564" lon="4.66486">
        <ele>290.80734</ele>
        <time>2023-11-23T08:42:48.000Z</time>
      </trkpt>
      <trkpt lat="45.83566" lon="4.66488">
        <ele>290.23444</ele>
        <time>2023-11-23T08:42:49.000Z</time>
      </trkpt>
      <trkpt lat="45.83569" lon="4.66491">
        <ele>289.54721</ele>
        <time>2023-11-23T08:42:50.000Z</time>
      </trkpt>
      <trkpt lat="45.83572" lon="4.66493">
        <ele>288.78027</ele>
        <time>2023-11-23T08:42:51.000Z</time>
      </trkpt>
      <trkpt lat="45.83575" lon="4.66495">
        <ele>287.75052</ele>
        <time>2023-11-23T08:42:52.000Z</time>
      </trkpt>
      <trkpt lat="45.83577" lon="4.66497">
        <ele>286.6293</ele>
        <time>2023-11-23T08:42:53.000Z</time>
      </trkpt>
      <trkpt lat="45.8358" lon="4.66499">
        <ele>285.49515</ele>
        <time>2023-11-23T08:42:54.000Z</time>
      </trkpt>
      <trkpt lat="45.83582" lon="4.66501">
        <ele>284.311</ele>
        <time>2023-11-23T08:42:55.000Z</time>
      </trkpt>
      <trkpt lat="45.83585" lon="4.66504">
        <ele>283.92017</ele>
        <time>2023-11-23T08:42:56.000Z</time>
      </trkpt>
      <trkpt lat="45.83589" lon="4.66508">
        <ele>283.42157</ele>
        <time>2023-11-23T08:42:57.000Z</time>
      </trkpt>
      <trkpt lat="45.83592" lon="4.6651">
        <ele>283.10477</ele>
        <time>2023-11-23T08:42:58.000Z</time>
      </trkpt>
      <trkpt lat="45.83594" lon="4.66513">
        <ele>282.75586</ele>
        <time>2023-11-23T08:42:59.000Z</time>
      </trkpt>
      <trkpt lat="45.83597" lon="4.66515">
        <ele>282.31018</ele>
        <time>2023-11-23T08:43:00.000Z</time>
      </trkpt>
      <trkpt lat="45.836" lon="4.66517">
        <ele>281.92651</ele>
        <time>2023-11-23T08:43:01.000Z</time>
      </trkpt>
      <trkpt lat="45.83603" lon="4.6652">
        <ele>281.92203</ele>
        <time>2023-11-23T08:43:02.000Z</time>
      </trkpt>
      <trkpt lat="45.83606" lon="4.66524">
        <ele>281.77191</ele>
        <time>2023-11-23T08:43:03.000Z</time>
      </trkpt>
      <trkpt lat="45.83609" lon="4.66527">
        <ele>281.69977</ele>
        <time>2023-11-23T08:43:04.000Z</time>
      </trkpt>
      <trkpt lat="45.83612" lon="4.6653">
        <ele>281.68097</ele>
        <time>2023-11-23T08:43:05.000Z</time>
      </trkpt>
      <trkpt lat="45.83615" lon="4.66533">
        <ele>281.76877</ele>
        <time>2023-11-23T08:43:06.000Z</time>
      </trkpt>
      <trkpt lat="45.83618" lon="4.66536">
        <ele>281.82745</ele>
        <time>2023-11-23T08:43:07.000Z</time>
      </trkpt>
      <trkpt lat="45.83624" lon="4.66542">
        <ele>281.63861</ele>
        <time>2023-11-23T08:43:08.000Z</time>
      </trkpt>
      <trkpt lat="45.83628" lon="4.66546">
        <ele>281.63998</ele>
        <time>2023-11-23T08:43:09.000Z</time>
      </trkpt>
      <trkpt lat="45.83632" lon="4.66552">
        <ele>282.5065</ele>
        <time>2023-11-23T08:43:10.000Z</time>
      </trkpt>
      <trkpt lat="45.83637" lon="4.66557">
        <ele>282.88153</ele>
        <time>2023-11-23T08:43:11.000Z</time>
      </trkpt>
      <trkpt lat="45.8364" lon="4.66558">
        <ele>283.45093</ele>
        <time>2023-11-23T08:43:12.000Z</time>
      </trkpt>
      <trkpt lat="45.83643" lon="4.66561">
        <ele>284.19299</ele>
        <time>2023-11-23T08:43:13.000Z</time>
      </trkpt>
      <trkpt lat="45.83646" lon="4.66561">
        <ele>284.93561</ele>
        <time>2023-11-23T08:43:14.000Z</time>
      </trkpt>
      <trkpt lat="45.83651" lon="4.66562">
        <ele>285.81445</ele>
        <time>2023-11-23T08:43:15.000Z</time>
      </trkpt>
      <trkpt lat="45.83654" lon="4.66564">
        <ele>286.35748</ele>
        <time>2023-11-23T08:43:16.000Z</time>
      </trkpt>
      <trkpt lat="45.83658" lon="4.66566">
        <ele>286.8338</ele>
        <time>2023-11-23T08:43:17.000Z</time>
      </trkpt>
      <trkpt lat="45.83664" lon="4.66568">
        <ele>287.3111</ele>
        <time>2023-11-23T08:43:18.000Z</time>
      </trkpt>
      <trkpt lat="45.83667" lon="4.6657">
        <ele>287.6983</ele>
        <time>2023-11-23T08:43:19.000Z</time>
      </trkpt>
      <trkpt lat="45.83671" lon="4.66574">
        <ele>288.21603</ele>
        <time>2023-11-23T08:43:20.000Z</time>
      </trkpt>
      <trkpt lat="45.83675" lon="4.66577">
        <ele>288.89069</ele>
        <time>2023-11-23T08:43:21.000Z</time>
      </trkpt>
      <trkpt lat="45.8368" lon="4.66581">
        <ele>289.34821</ele>
        <time>2023-11-23T08:43:22.000Z</time>
      </trkpt>
      <trkpt lat="45.83684" lon="4.66585">
        <ele>289.85263</ele>
        <time>2023-11-23T08:43:23.000Z</time>
      </trkpt>
      <trkpt lat="45.83688" lon="4.66587">
        <ele>289.81851</ele>
        <time>2023-11-23T08:43:24.000Z</time>
      </trkpt>
      <trkpt lat="45.83691" lon="4.66589">
        <ele>289.85159</ele>
        <time>2023-11-23T08:43:25.000Z</time>
      </trkpt>
      <trkpt lat="45.83696" lon="4.66589">
        <ele>289.74255</ele>
        <time>2023-11-23T08:43:26.000Z</time>
      </trkpt>
      <trkpt lat="45.83706" lon="4.66591">
        <ele>289.71854</ele>
        <time>2023-11-23T08:43:27.000Z</time>
      </trkpt>
      <trkpt lat="45.83712" lon="4.66591">
        <ele>289.98438</ele>
        <time>2023-11-23T08:43:28.000Z</time>
      </trkpt>
      <trkpt lat="45.83717" lon="4.66589">
        <ele>290.2406</ele>
        <time>2023-11-23T08:43:29.000Z</time>
      </trkpt>
      <trkpt lat="45.83722" lon="4.6659">
        <ele>289.52185</ele>
        <time>2023-11-23T08:43:30.000Z</time>
      </trkpt>
      <trkpt lat="45.83727" lon="4.66593">
        <ele>289.00629</ele>
        <time>2023-11-23T08:43:31.000Z</time>
      </trkpt>
      <trkpt lat="45.83732" lon="4.66594">
        <ele>288.32043</ele>
        <time>2023-11-23T08:43:32.000Z</time>
      </trkpt>
      <trkpt lat="45.83736" lon="4.66596">
        <ele>287.51904</ele>
        <time>2023-11-23T08:43:33.000Z</time>
      </trkpt>
      <trkpt lat="45.8374" lon="4.66599">
        <ele>286.54266</ele>
        <time>2023-11-23T08:43:34.000Z</time>
      </trkpt>
      <trkpt lat="45.83745" lon="4.66601">
        <ele>285.35538</ele>
        <time>2023-11-23T08:43:35.000Z</time>
      </trkpt>
      <trkpt lat="45.83751" lon="4.66605">
        <ele>284.07486</ele>
        <time>2023-11-23T08:43:36.000Z</time>
      </trkpt>
      <trkpt lat="45.83754" lon="4.66606">
        <ele>282.74222</ele>
        <time>2023-11-23T08:43:37.000Z</time>
      </trkpt>
      <trkpt lat="45.83757" lon="4.66607">
        <ele>281.42877</ele>
        <time>2023-11-23T08:43:38.000Z</time>
      </trkpt>
      <trkpt lat="45.83762" lon="4.6661">
        <ele>280.08246</ele>
        <time>2023-11-23T08:43:39.000Z</time>
      </trkpt>
      <trkpt lat="45.83765" lon="4.66613">
        <ele>278.62967</ele>
        <time>2023-11-23T08:43:40.000Z</time>
      </trkpt>
      <trkpt lat="45.83769" lon="4.66615">
        <ele>276.96167</ele>
        <time>2023-11-23T08:43:41.000Z</time>
      </trkpt>
      <trkpt lat="45.83773" lon="4.66619">
        <ele>275.19778</ele>
        <time>2023-11-23T08:43:42.000Z</time>
      </trkpt>
      <trkpt lat="45.83777" lon="4.66622">
        <ele>273.45715</ele>
        <time>2023-11-23T08:43:43.000Z</time>
      </trkpt>
      <trkpt lat="45.83781" lon="4.66625">
        <ele>272.22842</ele>
        <time>2023-11-23T08:43:44.000Z</time>
      </trkpt>
      <trkpt lat="45.83785" lon="4.66629">
        <ele>270.95068</ele>
        <time>2023-11-23T08:43:45.000Z</time>
      </trkpt>
      <trkpt lat="45.83789" lon="4.66634">
        <ele>269.85919</ele>
        <time>2023-11-23T08:43:46.000Z</time>
      </trkpt>
      <trkpt lat="45.83792" lon="4.66637">
        <ele>268.66983</ele>
        <time>2023-11-23T08:43:47.000Z</time>
      </trkpt>
      <trkpt lat="45.83796" lon="4.66641">
        <ele>267.55853</ele>
        <time>2023-11-23T08:43:48.000Z</time>
      </trkpt>
      <trkpt lat="45.838" lon="4.66645">
        <ele>266.44849</ele>
        <time>2023-11-23T08:43:49.000Z</time>
      </trkpt>
      <trkpt lat="45.83804" lon="4.66648">
        <ele>265.65576</ele>
        <time>2023-11-23T08:43:50.000Z</time>
      </trkpt>
      <trkpt lat="45.83808" lon="4.66651">
        <ele>265.24008</ele>
        <time>2023-11-23T08:43:51.000Z</time>
      </trkpt>
      <trkpt lat="45.83812" lon="4.66653">
        <ele>264.89313</ele>
        <time>2023-11-23T08:43:52.000Z</time>
      </trkpt>
      <trkpt lat="45.83816" lon="4.66656">
        <ele>264.87152</ele>
        <time>2023-11-23T08:43:53.000Z</time>
      </trkpt>
      <trkpt lat="45.83819" lon="4.66658">
        <ele>265.22302</ele>
        <time>2023-11-23T08:43:54.000Z</time>
      </trkpt>
      <trkpt lat="45.83822" lon="4.66661">
        <ele>265.24423</ele>
        <time>2023-11-23T08:43:55.000Z</time>
      </trkpt>
      <trkpt lat="45.83827" lon="4.66666">
        <ele>265.52048</ele>
        <time>2023-11-23T08:43:56.000Z</time>
      </trkpt>
      <trkpt lat="45.83831" lon="4.66669">
        <ele>265.92374</ele>
        <time>2023-11-23T08:43:57.000Z</time>
      </trkpt>
      <trkpt lat="45.83834" lon="4.66673">
        <ele>266.37082</ele>
        <time>2023-11-23T08:43:58.000Z</time>
      </trkpt>
      <trkpt lat="45.83838" lon="4.66677">
        <ele>266.91837</ele>
        <time>2023-11-23T08:43:59.000Z</time>
      </trkpt>
      <trkpt lat="45.83842" lon="4.6668">
        <ele>267.50623</ele>
        <time>2023-11-23T08:44:00.000Z</time>
      </trkpt>
      <trkpt lat="45.83845" lon="4.66683">
        <ele>268.12961</ele>
        <time>2023-11-23T08:44:01.000Z</time>
      </trkpt>
      <trkpt lat="45.83849" lon="4.66686">
        <ele>268.75507</ele>
        <time>2023-11-23T08:44:02.000Z</time>
      </trkpt>
      <trkpt lat="45.83852" lon="4.66689">
        <ele>269.3606</ele>
        <time>2023-11-23T08:44:03.000Z</time>
      </trkpt>
      <trkpt lat="45.83856" lon="4.66692">
        <ele>269.96918</ele>
        <time>2023-11-23T08:44:04.000Z</time>
      </trkpt>
      <trkpt lat="45.8386" lon="4.66695">
        <ele>270.58325</ele>
        <time>2023-11-23T08:44:05.000Z</time>
      </trkpt>
      <trkpt lat="45.83863" lon="4.66698">
        <ele>271.12567</ele>
        <time>2023-11-23T08:44:06.000Z</time>
      </trkpt>
      <trkpt lat="45.83866" lon="4.66702">
        <ele>271.70782</ele>
        <time>2023-11-23T08:44:07.000Z</time>
      </trkpt>
      <trkpt lat="45.8387" lon="4.66705">
        <ele>271.80954</ele>
        <time>2023-11-23T08:44:08.000Z</time>
      </trkpt>
      <trkpt lat="45.83874" lon="4.66709">
        <ele>271.94037</ele>
        <time>2023-11-23T08:44:09.000Z</time>
      </trkpt>
      <trkpt lat="45.83877" lon="4.66713">
        <ele>271.92587</ele>
        <time>2023-11-23T08:44:10.000Z</time>
      </trkpt>
      <trkpt lat="45.8388" lon="4.66717">
        <ele>271.87473</ele>
        <time>2023-11-23T08:44:11.000Z</time>
      </trkpt>
      <trkpt lat="45.83883" lon="4.66722">
        <ele>271.87802</ele>
        <time>2023-11-23T08:44:12.000Z</time>
      </trkpt>
      <trkpt lat="45.83885" lon="4.66726">
        <ele>271.64398</ele>
        <time>2023-11-23T08:44:13.000Z</time>
      </trkpt>
      <trkpt lat="45.83887" lon="4.66731">
        <ele>271.2793</ele>
        <time>2023-11-23T08:44:14.000Z</time>
      </trkpt>
      <trkpt lat="45.8389" lon="4.66735">
        <ele>271.375</ele>
        <time>2023-11-23T08:44:15.000Z</time>
      </trkpt>
      <trkpt lat="45.83892" lon="4.6674">
        <ele>271.38794</ele>
        <time>2023-11-23T08:44:16.000Z</time>
      </trkpt>
      <trkpt lat="45.83895" lon="4.66745">
        <ele>271.30441</ele>
        <time>2023-11-23T08:44:17.000Z</time>
      </trkpt>
      <trkpt lat="45.83897" lon="4.6675">
        <ele>271.24701</ele>
        <time>2023-11-23T08:44:18.000Z</time>
      </trkpt>
      <trkpt lat="45.83898" lon="4.66755">
        <ele>271.16565</ele>
        <time>2023-11-23T08:44:19.000Z</time>
      </trkpt>
      <trkpt lat="45.839" lon="4.6676">
        <ele>271.0976</ele>
        <time>2023-11-23T08:44:20.000Z</time>
      </trkpt>
      <trkpt lat="45.83902" lon="4.66766">
        <ele>271.01599</ele>
        <time>2023-11-23T08:44:21.000Z</time>
      </trkpt>
      <trkpt lat="45.83903" lon="4.66771">
        <ele>270.92029</ele>
        <time>2023-11-23T08:44:22.000Z</time>
      </trkpt>
      <trkpt lat="45.83904" lon="4.66777">
        <ele>270.82507</ele>
        <time>2023-11-23T08:44:23.000Z</time>
      </trkpt>
      <trkpt lat="45.83905" lon="4.66783">
        <ele>270.74945</ele>
        <time>2023-11-23T08:44:24.000Z</time>
      </trkpt>
      <trkpt lat="45.83906" lon="4.66789">
        <ele>270.67291</ele>
        <time>2023-11-23T08:44:25.000Z</time>
      </trkpt>
      <trkpt lat="45.83907" lon="4.66795">
        <ele>270.61203</ele>
        <time>2023-11-23T08:44:26.000Z</time>
      </trkpt>
      <trkpt lat="45.83907" lon="4.66801">
        <ele>270.4679</ele>
        <time>2023-11-23T08:44:27.000Z</time>
      </trkpt>
      <trkpt lat="45.83908" lon="4.66807">
        <ele>270.79367</ele>
        <time>2023-11-23T08:44:28.000Z</time>
      </trkpt>
      <trkpt lat="45.83909" lon="4.66812">
        <ele>271.13504</ele>
        <time>2023-11-23T08:44:29.000Z</time>
      </trkpt>
      <trkpt lat="45.8391" lon="4.66818">
        <ele>271.5025</ele>
        <time>2023-11-23T08:44:30.000Z</time>
      </trkpt>
      <trkpt lat="45.83911" lon="4.66824">
        <ele>271.88281</ele>
        <time>2023-11-23T08:44:31.000Z</time>
      </trkpt>
      <trkpt lat="45.83912" lon="4.66829">
        <ele>272.19843</ele>
        <time>2023-11-23T08:44:32.000Z</time>
      </trkpt>
      <trkpt lat="45.83913" lon="4.66835">
        <ele>272.52451</ele>
        <time>2023-11-23T08:44:33.000Z</time>
      </trkpt>
      <trkpt lat="45.83914" lon="4.6684">
        <ele>272.81104</ele>
        <time>2023-11-23T08:44:34.000Z</time>
      </trkpt>
      <trkpt lat="45.83915" lon="4.66845">
        <ele>273.69885</ele>
        <time>2023-11-23T08:44:35.000Z</time>
      </trkpt>
      <trkpt lat="45.83916" lon="4.6685">
        <ele>274.58759</ele>
        <time>2023-11-23T08:44:36.000Z</time>
      </trkpt>
      <trkpt lat="45.83916" lon="4.66855">
        <ele>275.5918</ele>
        <time>2023-11-23T08:44:37.000Z</time>
      </trkpt>
      <trkpt lat="45.83917" lon="4.6686">
        <ele>276.61887</ele>
        <time>2023-11-23T08:44:38.000Z</time>
      </trkpt>
      <trkpt lat="45.83917" lon="4.66865">
        <ele>277.32034</ele>
        <time>2023-11-23T08:44:39.000Z</time>
      </trkpt>
      <trkpt lat="45.83918" lon="4.66869">
        <ele>278.05463</ele>
        <time>2023-11-23T08:44:40.000Z</time>
      </trkpt>
      <trkpt lat="45.83918" lon="4.66873">
        <ele>278.33902</ele>
        <time>2023-11-23T08:44:41.000Z</time>
      </trkpt>
      <trkpt lat="45.83918" lon="4.66877">
        <ele>278.62164</ele>
        <time>2023-11-23T08:44:42.000Z</time>
      </trkpt>
      <trkpt lat="45.83918" lon="4.66881">
        <ele>278.89172</ele>
        <time>2023-11-23T08:44:43.000Z</time>
      </trkpt>
      <trkpt lat="45.83918" lon="4.66886">
        <ele>279.12811</ele>
        <time>2023-11-23T08:44:44.000Z</time>
      </trkpt>
      <trkpt lat="45.83919" lon="4.6689">
        <ele>279.33539</ele>
        <time>2023-11-23T08:44:45.000Z</time>
      </trkpt>
      <trkpt lat="45.83919" lon="4.66895">
        <ele>279.55951</ele>
        <time>2023-11-23T08:44:46.000Z</time>
      </trkpt>
      <trkpt lat="45.83919" lon="4.66899">
        <ele>280.27493</ele>
        <time>2023-11-23T08:44:47.000Z</time>
      </trkpt>
      <trkpt lat="45.8392" lon="4.66904">
        <ele>280.97162</ele>
        <time>2023-11-23T08:44:48.000Z</time>
      </trkpt>
      <trkpt lat="45.83921" lon="4.66908">
        <ele>281.64948</ele>
        <time>2023-11-23T08:44:49.000Z</time>
      </trkpt>
      <trkpt lat="45.83921" lon="4.66913">
        <ele>282.27887</ele>
        <time>2023-11-23T08:44:50.000Z</time>
      </trkpt>
      <trkpt lat="45.83922" lon="4.66918">
        <ele>282.91412</ele>
        <time>2023-11-23T08:44:51.000Z</time>
      </trkpt>
      <trkpt lat="45.83922" lon="4.66922">
        <ele>283.51282</ele>
        <time>2023-11-23T08:44:52.000Z</time>
      </trkpt>
      <trkpt lat="45.83923" lon="4.66926">
        <ele>284.12003</ele>
        <time>2023-11-23T08:44:53.000Z</time>
      </trkpt>
      <trkpt lat="45.83924" lon="4.6693">
        <ele>284.69684</ele>
        <time>2023-11-23T08:44:54.000Z</time>
      </trkpt>
      <trkpt lat="45.83924" lon="4.66934">
        <ele>284.66229</ele>
        <time>2023-11-23T08:44:55.000Z</time>
      </trkpt>
      <trkpt lat="45.83924" lon="4.66938">
        <ele>284.59589</ele>
        <time>2023-11-23T08:44:56.000Z</time>
      </trkpt>
      <trkpt lat="45.83925" lon="4.66942">
        <ele>284.65009</ele>
        <time>2023-11-23T08:44:57.000Z</time>
      </trkpt>
      <trkpt lat="45.83925" lon="4.66946">
        <ele>284.6225</ele>
        <time>2023-11-23T08:44:58.000Z</time>
      </trkpt>
      <trkpt lat="45.83926" lon="4.6695">
        <ele>284.9433</ele>
        <time>2023-11-23T08:44:59.000Z</time>
      </trkpt>
      <trkpt lat="45.83926" lon="4.66953">
        <ele>285.23129</ele>
        <time>2023-11-23T08:45:00.000Z</time>
      </trkpt>
      <trkpt lat="45.83927" lon="4.66957">
        <ele>285.67593</ele>
        <time>2023-11-23T08:45:01.000Z</time>
      </trkpt>
      <trkpt lat="45.83927" lon="4.6696">
        <ele>286.06726</ele>
        <time>2023-11-23T08:45:02.000Z</time>
      </trkpt>
      <trkpt lat="45.83927" lon="4.66964">
        <ele>286.47116</ele>
        <time>2023-11-23T08:45:03.000Z</time>
      </trkpt>
      <trkpt lat="45.83927" lon="4.66968">
        <ele>287.00543</ele>
        <time>2023-11-23T08:45:04.000Z</time>
      </trkpt>
      <trkpt lat="45.83927" lon="4.66972">
        <ele>287.57495</ele>
        <time>2023-11-23T08:45:05.000Z</time>
      </trkpt>
      <trkpt lat="45.83928" lon="4.66975">
        <ele>288.14441</ele>
        <time>2023-11-23T08:45:06.000Z</time>
      </trkpt>
      <trkpt lat="45.83928" lon="4.66978">
        <ele>288.05939</ele>
        <time>2023-11-23T08:45:07.000Z</time>
      </trkpt>
      <trkpt lat="45.83929" lon="4.66981">
        <ele>287.4202</ele>
        <time>2023-11-23T08:45:08.000Z</time>
      </trkpt>
      <trkpt lat="45.83929" lon="4.66985">
        <ele>286.82721</ele>
        <time>2023-11-23T08:45:10.000Z</time>
      </trkpt>
      <trkpt lat="45.83929" lon="4.66991">
        <ele>286.24759</ele>
        <time>2023-11-23T08:45:12.000Z</time>
      </trkpt>
      <trkpt lat="45.83929" lon="4.66993">
        <ele>285.56689</ele>
        <time>2023-11-23T08:45:13.000Z</time>
      </trkpt>
      <trkpt lat="45.83929" lon="4.66996">
        <ele>284.90817</ele>
        <time>2023-11-23T08:45:14.000Z</time>
      </trkpt>
      <trkpt lat="45.83929" lon="4.66999">
        <ele>284.21051</ele>
        <time>2023-11-23T08:45:15.000Z</time>
      </trkpt>
      <trkpt lat="45.83929" lon="4.67002">
        <ele>283.53366</ele>
        <time>2023-11-23T08:45:16.000Z</time>
      </trkpt>
      <trkpt lat="45.83928" lon="4.67006">
        <ele>282.87329</ele>
        <time>2023-11-23T08:45:18.000Z</time>
      </trkpt>
      <trkpt lat="45.83926" lon="4.67009">
        <ele>282.18167</ele>
        <time>2023-11-23T08:45:20.000Z</time>
      </trkpt>
      <trkpt lat="45.83929" lon="4.67011">
        <ele>281.46271</ele>
        <time>2023-11-23T08:45:22.000Z</time>
      </trkpt>
      <trkpt lat="45.83931" lon="4.6701">
        <ele>280.74808</ele>
        <time>2023-11-23T08:45:23.000Z</time>
      </trkpt>
      <trkpt lat="45.83932" lon="4.67009">
        <ele>279.96146</ele>
        <time>2023-11-23T08:45:24.000Z</time>
      </trkpt>
      <trkpt lat="45.83933" lon="4.67006">
        <ele>279.16711</ele>
        <time>2023-11-23T08:45:25.000Z</time>
      </trkpt>
      <trkpt lat="45.83932" lon="4.67003">
        <ele>278.66177</ele>
        <time>2023-11-23T08:45:26.000Z</time>
      </trkpt>
      <trkpt lat="45.8393" lon="4.67001">
        <ele>278.16891</ele>
        <time>2023-11-23T08:45:28.000Z</time>
      </trkpt>
      <trkpt lat="45.83928" lon="4.67002">
        <ele>277.55966</ele>
        <time>2023-11-23T08:45:29.000Z</time>
      </trkpt>
      <trkpt lat="45.83928" lon="4.67005">
        <ele>276.93802</ele>
        <time>2023-11-23T08:45:30.000Z</time>
      </trkpt>
      <trkpt lat="45.83928" lon="4.67008">
        <ele>276.25494</ele>
        <time>2023-11-23T08:45:31.000Z</time>
      </trkpt>
      <trkpt lat="45.83927" lon="4.6701">
        <ele>275.57224</ele>
        <time>2023-11-23T08:45:32.000Z</time>
      </trkpt>
      <trkpt lat="45.83926" lon="4.67012">
        <ele>275.09125</ele>
        <time>2023-11-23T08:45:33.000Z</time>
      </trkpt>
      <trkpt lat="45.83923" lon="4.67013">
        <ele>275.16907</ele>
        <time>2023-11-23T08:45:34.000Z</time>
      </trkpt>
      <trkpt lat="45.8392" lon="4.67013">
        <ele>275.18201</ele>
        <time>2023-11-23T08:45:35.000Z</time>
      </trkpt>
      <trkpt lat="45.83918" lon="4.67012">
        <ele>275.20367</ele>
        <time>2023-11-23T08:45:36.000Z</time>
      </trkpt>
      <trkpt lat="45.83915" lon="4.67011">
        <ele>275.30923</ele>
        <time>2023-11-23T08:45:37.000Z</time>
      </trkpt>
      <trkpt lat="45.83912" lon="4.6701">
        <ele>275.38687</ele>
        <time>2023-11-23T08:45:38.000Z</time>
      </trkpt>
      <trkpt lat="45.83909" lon="4.67008">
        <ele>275.49454</ele>
        <time>2023-11-23T08:45:39.000Z</time>
      </trkpt>
      <trkpt lat="45.83906" lon="4.67007">
        <ele>275.58362</ele>
        <time>2023-11-23T08:45:40.000Z</time>
      </trkpt>
      <trkpt lat="45.83903" lon="4.67005">
        <ele>275.65167</ele>
        <time>2023-11-23T08:45:41.000Z</time>
      </trkpt>
      <trkpt lat="45.839" lon="4.67004">
        <ele>275.75543</ele>
        <time>2023-11-23T08:45:42.000Z</time>
      </trkpt>
      <trkpt lat="45.83897" lon="4.67004">
        <ele>275.68945</ele>
        <time>2023-11-23T08:45:43.000Z</time>
      </trkpt>
      <trkpt lat="45.83894" lon="4.67003">
        <ele>275.53629</ele>
        <time>2023-11-23T08:45:44.000Z</time>
      </trkpt>
      <trkpt lat="45.83891" lon="4.67002">
        <ele>275.38312</ele>
        <time>2023-11-23T08:45:45.000Z</time>
      </trkpt>
      <trkpt lat="45.83888" lon="4.67001">
        <ele>275.39752</ele>
        <time>2023-11-23T08:45:46.000Z</time>
      </trkpt>
      <trkpt lat="45.83885" lon="4.67">
        <ele>275.39929</ele>
        <time>2023-11-23T08:45:47.000Z</time>
      </trkpt>
      <trkpt lat="45.83882" lon="4.66999">
        <ele>275.42712</ele>
        <time>2023-11-23T08:45:48.000Z</time>
      </trkpt>
      <trkpt lat="45.83878" lon="4.66997">
        <ele>275.56879</ele>
        <time>2023-11-23T08:45:49.000Z</time>
      </trkpt>
      <trkpt lat="45.83875" lon="4.66996">
        <ele>275.57523</ele>
        <time>2023-11-23T08:45:50.000Z</time>
      </trkpt>
      <trkpt lat="45.83872" lon="4.66995">
        <ele>275.61401</ele>
        <time>2023-11-23T08:45:51.000Z</time>
      </trkpt>
      <trkpt lat="45.83869" lon="4.66994">
        <ele>275.66742</ele>
        <time>2023-11-23T08:45:52.000Z</time>
      </trkpt>
      <trkpt lat="45.83866" lon="4.66993">
        <ele>275.6022</ele>
        <time>2023-11-23T08:45:53.000Z</time>
      </trkpt>
      <trkpt lat="45.83863" lon="4.66992">
        <ele>275.51758</ele>
        <time>2023-11-23T08:45:54.000Z</time>
      </trkpt>
      <trkpt lat="45.8386" lon="4.66991">
        <ele>275.61298</ele>
        <time>2023-11-23T08:45:55.000Z</time>
      </trkpt>
      <trkpt lat="45.83857" lon="4.66989">
        <ele>275.67059</ele>
        <time>2023-11-23T08:45:56.000Z</time>
      </trkpt>
      <trkpt lat="45.83854" lon="4.66989">
        <ele>275.73602</ele>
        <time>2023-11-23T08:45:57.000Z</time>
      </trkpt>
      <trkpt lat="45.83851" lon="4.66988">
        <ele>275.80887</ele>
        <time>2023-11-23T08:45:58.000Z</time>
      </trkpt>
      <trkpt lat="45.83847" lon="4.66987">
        <ele>275.89313</ele>
        <time>2023-11-23T08:45:59.000Z</time>
      </trkpt>
      <trkpt lat="45.83844" lon="4.66986">
        <ele>275.9809</ele>
        <time>2023-11-23T08:46:00.000Z</time>
      </trkpt>
      <trkpt lat="45.8384" lon="4.66986">
        <ele>276.09207</ele>
        <time>2023-11-23T08:46:01.000Z</time>
      </trkpt>
      <trkpt lat="45.83837" lon="4.66985">
        <ele>276.2038</ele>
        <time>2023-11-23T08:46:02.000Z</time>
      </trkpt>
      <trkpt lat="45.83834" lon="4.66985">
        <ele>276.31308</ele>
        <time>2023-11-23T08:46:03.000Z</time>
      </trkpt>
      <trkpt lat="45.83831" lon="4.66985">
        <ele>276.5166</ele>
        <time>2023-11-23T08:46:04.000Z</time>
      </trkpt>
      <trkpt lat="45.83827" lon="4.66984">
        <ele>276.75696</ele>
        <time>2023-11-23T08:46:05.000Z</time>
      </trkpt>
      <trkpt lat="45.83824" lon="4.66984">
        <ele>277.41034</ele>
        <time>2023-11-23T08:46:06.000Z</time>
      </trkpt>
      <trkpt lat="45.83821" lon="4.66984">
        <ele>278.08917</ele>
        <time>2023-11-23T08:46:07.000Z</time>
      </trkpt>
      <trkpt lat="45.83818" lon="4.66984">
        <ele>278.90738</ele>
        <time>2023-11-23T08:46:08.000Z</time>
      </trkpt>
      <trkpt lat="45.83815" lon="4.66983">
        <ele>279.41443</ele>
        <time>2023-11-23T08:46:09.000Z</time>
      </trkpt>
      <trkpt lat="45.83811" lon="4.66983">
        <ele>279.92206</ele>
        <time>2023-11-23T08:46:10.000Z</time>
      </trkpt>
      <trkpt lat="45.83808" lon="4.66982">
        <ele>280.41461</ele>
        <time>2023-11-23T08:46:11.000Z</time>
      </trkpt>
      <trkpt lat="45.83805" lon="4.66982">
        <ele>280.85175</ele>
        <time>2023-11-23T08:46:12.000Z</time>
      </trkpt>
      <trkpt lat="45.83802" lon="4.66981">
        <ele>281.41104</ele>
        <time>2023-11-23T08:46:13.000Z</time>
      </trkpt>
      <trkpt lat="45.83799" lon="4.66981">
        <ele>282.00668</ele>
        <time>2023-11-23T08:46:14.000Z</time>
      </trkpt>
      <trkpt lat="45.83795" lon="4.66981">
        <ele>282.45212</ele>
        <time>2023-11-23T08:46:15.000Z</time>
      </trkpt>
      <trkpt lat="45.83791" lon="4.66981">
        <ele>282.94452</ele>
        <time>2023-11-23T08:46:16.000Z</time>
      </trkpt>
      <trkpt lat="45.83788" lon="4.66981">
        <ele>283.43564</ele>
        <time>2023-11-23T08:46:17.000Z</time>
      </trkpt>
      <trkpt lat="45.83784" lon="4.66981">
        <ele>283.92804</ele>
        <time>2023-11-23T08:46:18.000Z</time>
      </trkpt>
      <trkpt lat="45.8378" lon="4.6698">
        <ele>284.4133</ele>
        <time>2023-11-23T08:46:19.000Z</time>
      </trkpt>
      <trkpt lat="45.83776" lon="4.6698">
        <ele>284.91904</ele>
        <time>2023-11-23T08:46:20.000Z</time>
      </trkpt>
      <trkpt lat="45.83772" lon="4.66979">
        <ele>285.38223</ele>
        <time>2023-11-23T08:46:21.000Z</time>
      </trkpt>
      <trkpt lat="45.83769" lon="4.66979">
        <ele>285.85278</ele>
        <time>2023-11-23T08:46:22.000Z</time>
      </trkpt>
      <trkpt lat="45.83765" lon="4.66978">
        <ele>286.32843</ele>
        <time>2023-11-23T08:46:23.000Z</time>
      </trkpt>
      <trkpt lat="45.83762" lon="4.66978">
        <ele>286.83752</ele>
        <time>2023-11-23T08:46:24.000Z</time>
      </trkpt>
      <trkpt lat="45.83758" lon="4.66977">
        <ele>287.34061</ele>
        <time>2023-11-23T08:46:25.000Z</time>
      </trkpt>
      <trkpt lat="45.83754" lon="4.66977">
        <ele>287.25946</ele>
        <time>2023-11-23T08:46:26.000Z</time>
      </trkpt>
      <trkpt lat="45.83751" lon="4.66977">
        <ele>287.19214</ele>
        <time>2023-11-23T08:46:27.000Z</time>
      </trkpt>
      <trkpt lat="45.83747" lon="4.66976">
        <ele>286.43274</ele>
        <time>2023-11-23T08:46:28.000Z</time>
      </trkpt>
      <trkpt lat="45.83743" lon="4.66976">
        <ele>286.14087</ele>
        <time>2023-11-23T08:46:29.000Z</time>
      </trkpt>
      <trkpt lat="45.8374" lon="4.66976">
        <ele>285.85077</ele>
        <time>2023-11-23T08:46:30.000Z</time>
      </trkpt>
      <trkpt lat="45.83736" lon="4.66975">
        <ele>285.5676</ele>
        <time>2023-11-23T08:46:31.000Z</time>
      </trkpt>
      <trkpt lat="45.83732" lon="4.66975">
        <ele>285.33228</ele>
        <time>2023-11-23T08:46:32.000Z</time>
      </trkpt>
      <trkpt lat="45.83729" lon="4.66975">
        <ele>285.08575</ele>
        <time>2023-11-23T08:46:33.000Z</time>
      </trkpt>
      <trkpt lat="45.83725" lon="4.66975">
        <ele>284.83527</ele>
        <time>2023-11-23T08:46:34.000Z</time>
      </trkpt>
      <trkpt lat="45.83721" lon="4.66975">
        <ele>284.5589</ele>
        <time>2023-11-23T08:46:35.000Z</time>
      </trkpt>
      <trkpt lat="45.83717" lon="4.66975">
        <ele>284.27243</ele>
        <time>2023-11-23T08:46:36.000Z</time>
      </trkpt>
      <trkpt lat="45.83714" lon="4.66974">
        <ele>283.98526</ele>
        <time>2023-11-23T08:46:37.000Z</time>
      </trkpt>
      <trkpt lat="45.8371" lon="4.66973">
        <ele>283.69342</ele>
        <time>2023-11-23T08:46:38.000Z</time>
      </trkpt>
      <trkpt lat="45.83707" lon="4.66973">
        <ele>283.521</ele>
        <time>2023-11-23T08:46:39.000Z</time>
      </trkpt>
      <trkpt lat="45.83703" lon="4.66972">
        <ele>281.94418</ele>
        <time>2023-11-23T08:46:40.000Z</time>
      </trkpt>
      <trkpt lat="45.83699" lon="4.66971">
        <ele>281.69708</ele>
        <time>2023-11-23T08:46:41.000Z</time>
      </trkpt>
      <trkpt lat="45.83696" lon="4.6697">
        <ele>281.43109</ele>
        <time>2023-11-23T08:46:42.000Z</time>
      </trkpt>
      <trkpt lat="45.83692" lon="4.6697">
        <ele>281.15524</ele>
        <time>2023-11-23T08:46:43.000Z</time>
      </trkpt>
      <trkpt lat="45.83688" lon="4.6697">
        <ele>280.82617</ele>
        <time>2023-11-23T08:46:44.000Z</time>
      </trkpt>
      <trkpt lat="45.83685" lon="4.6697">
        <ele>280.46863</ele>
        <time>2023-11-23T08:46:45.000Z</time>
      </trkpt>
      <trkpt lat="45.83681" lon="4.66969">
        <ele>279.10025</ele>
        <time>2023-11-23T08:46:46.000Z</time>
      </trkpt>
      <trkpt lat="45.83677" lon="4.66969">
        <ele>277.52838</ele>
        <time>2023-11-23T08:46:47.000Z</time>
      </trkpt>
      <trkpt lat="45.83673" lon="4.66969">
        <ele>278.17096</ele>
        <time>2023-11-23T08:46:48.000Z</time>
      </trkpt>
      <trkpt lat="45.8367" lon="4.66968">
        <ele>278.66589</ele>
        <time>2023-11-23T08:46:49.000Z</time>
      </trkpt>
      <trkpt lat="45.83666" lon="4.66968">
        <ele>279.13434</ele>
        <time>2023-11-23T08:46:50.000Z</time>
      </trkpt>
      <trkpt lat="45.83662" lon="4.66967">
        <ele>279.58728</ele>
        <time>2023-11-23T08:46:51.000Z</time>
      </trkpt>
      <trkpt lat="45.83658" lon="4.66966">
        <ele>280.01947</ele>
        <time>2023-11-23T08:46:52.000Z</time>
      </trkpt>
      <trkpt lat="45.83655" lon="4.66966">
        <ele>280.47256</ele>
        <time>2023-11-23T08:46:53.000Z</time>
      </trkpt>
      <trkpt lat="45.83651" lon="4.66965">
        <ele>280.92267</ele>
        <time>2023-11-23T08:46:54.000Z</time>
      </trkpt>
      <trkpt lat="45.83648" lon="4.66964">
        <ele>281.37228</ele>
        <time>2023-11-23T08:46:55.000Z</time>
      </trkpt>
      <trkpt lat="45.83644" lon="4.66963">
        <ele>281.81415</ele>
        <time>2023-11-23T08:46:56.000Z</time>
      </trkpt>
      <trkpt lat="45.83641" lon="4.66963">
        <ele>282.25119</ele>
        <time>2023-11-23T08:46:57.000Z</time>
      </trkpt>
      <trkpt lat="45.83637" lon="4.66962">
        <ele>282.72937</ele>
        <time>2023-11-23T08:46:58.000Z</time>
      </trkpt>
      <trkpt lat="45.83634" lon="4.66961">
        <ele>283.10574</ele>
        <time>2023-11-23T08:46:59.000Z</time>
      </trkpt>
      <trkpt lat="45.8363" lon="4.66961">
        <ele>284.87219</ele>
        <time>2023-11-23T08:47:00.000Z</time>
      </trkpt>
      <trkpt lat="45.83627" lon="4.6696">
        <ele>285.34232</ele>
        <time>2023-11-23T08:47:01.000Z</time>
      </trkpt>
      <trkpt lat="45.83623" lon="4.6696">
        <ele>285.82874</ele>
        <time>2023-11-23T08:47:02.000Z</time>
      </trkpt>
      <trkpt lat="45.8362" lon="4.66959">
        <ele>286.32407</ele>
        <time>2023-11-23T08:47:03.000Z</time>
      </trkpt>
      <trkpt lat="45.83616" lon="4.66959">
        <ele>286.83884</ele>
        <time>2023-11-23T08:47:04.000Z</time>
      </trkpt>
      <trkpt lat="45.83613" lon="4.66958">
        <ele>287.38531</ele>
        <time>2023-11-23T08:47:05.000Z</time>
      </trkpt>
      <trkpt lat="45.83609" lon="4.66958">
        <ele>288.96155</ele>
        <time>2023-11-23T08:47:06.000Z</time>
      </trkpt>
      <trkpt lat="45.83606" lon="4.66957">
        <ele>290.72128</ele>
        <time>2023-11-23T08:47:07.000Z</time>
      </trkpt>
      <trkpt lat="45.83602" lon="4.66957">
        <ele>290.83121</ele>
        <time>2023-11-23T08:47:08.000Z</time>
      </trkpt>
      <trkpt lat="45.83599" lon="4.66957">
        <ele>290.94342</ele>
        <time>2023-11-23T08:47:09.000Z</time>
      </trkpt>
      <trkpt lat="45.83595" lon="4.66956">
        <ele>290.67889</ele>
        <time>2023-11-23T08:47:10.000Z</time>
      </trkpt>
      <trkpt lat="45.83591" lon="4.66955">
        <ele>290.3205</ele>
        <time>2023-11-23T08:47:11.000Z</time>
      </trkpt>
      <trkpt lat="45.83588" lon="4.66955">
        <ele>289.97189</ele>
        <time>2023-11-23T08:47:12.000Z</time>
      </trkpt>
      <trkpt lat="45.83584" lon="4.66954">
        <ele>289.55655</ele>
        <time>2023-11-23T08:47:13.000Z</time>
      </trkpt>
      <trkpt lat="45.83581" lon="4.66953">
        <ele>289.07623</ele>
        <time>2023-11-23T08:47:14.000Z</time>
      </trkpt>
      <trkpt lat="45.83577" lon="4.66952">
        <ele>288.58688</ele>
        <time>2023-11-23T08:47:15.000Z</time>
      </trkpt>
      <trkpt lat="45.83573" lon="4.66952">
        <ele>288.11334</ele>
        <time>2023-11-23T08:47:16.000Z</time>
      </trkpt>
      <trkpt lat="45.8357" lon="4.66952">
        <ele>288.27167</ele>
        <time>2023-11-23T08:47:17.000Z</time>
      </trkpt>
      <trkpt lat="45.83566" lon="4.66951">
        <ele>288.44135</ele>
        <time>2023-11-23T08:47:18.000Z</time>
      </trkpt>
      <trkpt lat="45.83562" lon="4.66951">
        <ele>288.62372</ele>
        <time>2023-11-23T08:47:19.000Z</time>
      </trkpt>
      <trkpt lat="45.83558" lon="4.6695">
        <ele>288.82901</ele>
        <time>2023-11-23T08:47:20.000Z</time>
      </trkpt>
      <trkpt lat="45.83554" lon="4.6695">
        <ele>289.01953</ele>
        <time>2023-11-23T08:47:21.000Z</time>
      </trkpt>
      <trkpt lat="45.83551" lon="4.66949">
        <ele>289.21826</ele>
        <time>2023-11-23T08:47:22.000Z</time>
      </trkpt>
      <trkpt lat="45.83547" lon="4.66949">
        <ele>289.01666</ele>
        <time>2023-11-23T08:47:23.000Z</time>
      </trkpt>
      <trkpt lat="45.83543" lon="4.66949">
        <ele>288.80255</ele>
        <time>2023-11-23T08:47:24.000Z</time>
      </trkpt>
      <trkpt lat="45.83539" lon="4.66948">
        <ele>288.54865</ele>
        <time>2023-11-23T08:47:25.000Z</time>
      </trkpt>
      <trkpt lat="45.83536" lon="4.66947">
        <ele>288.2717</ele>
        <time>2023-11-23T08:47:26.000Z</time>
      </trkpt>
      <trkpt lat="45.83532" lon="4.66947">
        <ele>287.99731</ele>
        <time>2023-11-23T08:47:27.000Z</time>
      </trkpt>
      <trkpt lat="45.83528" lon="4.66946">
        <ele>287.71124</ele>
        <time>2023-11-23T08:47:28.000Z</time>
      </trkpt>
      <trkpt lat="45.83524" lon="4.66945">
        <ele>287.42001</ele>
        <time>2023-11-23T08:47:29.000Z</time>
      </trkpt>
      <trkpt lat="45.83521" lon="4.66945">
        <ele>287.55472</ele>
        <time>2023-11-23T08:47:30.000Z</time>
      </trkpt>
      <trkpt lat="45.83517" lon="4.66944">
        <ele>287.79761</ele>
        <time>2023-11-23T08:47:31.000Z</time>
      </trkpt>
      <trkpt lat="45.83513" lon="4.66944">
        <ele>287.91763</ele>
        <time>2023-11-23T08:47:32.000Z</time>
      </trkpt>
      <trkpt lat="45.83509" lon="4.66944">
        <ele>288.00909</ele>
        <time>2023-11-23T08:47:33.000Z</time>
      </trkpt>
      <trkpt lat="45.83505" lon="4.66944">
        <ele>288.1235</ele>
        <time>2023-11-23T08:47:34.000Z</time>
      </trkpt>
      <trkpt lat="45.83501" lon="4.66945">
        <ele>288.54987</ele>
        <time>2023-11-23T08:47:35.000Z</time>
      </trkpt>
      <trkpt lat="45.83497" lon="4.66945">
        <ele>288.91913</ele>
        <time>2023-11-23T08:47:36.000Z</time>
      </trkpt>
      <trkpt lat="45.83493" lon="4.66945">
        <ele>288.63373</ele>
        <time>2023-11-23T08:47:37.000Z</time>
      </trkpt>
      <trkpt lat="45.83489" lon="4.66946">
        <ele>288.3558</ele>
        <time>2023-11-23T08:47:38.000Z</time>
      </trkpt>
      <trkpt lat="45.83485" lon="4.66946">
        <ele>288.02533</ele>
        <time>2023-11-23T08:47:39.000Z</time>
      </trkpt>
      <trkpt lat="45.83481" lon="4.66946">
        <ele>288.10251</ele>
        <time>2023-11-23T08:47:40.000Z</time>
      </trkpt>
      <trkpt lat="45.83477" lon="4.66947">
        <ele>288.17502</ele>
        <time>2023-11-23T08:47:41.000Z</time>
      </trkpt>
      <trkpt lat="45.83474" lon="4.66947">
        <ele>288.24402</ele>
        <time>2023-11-23T08:47:42.000Z</time>
      </trkpt>
      <trkpt lat="45.8347" lon="4.66948">
        <ele>288.74176</ele>
        <time>2023-11-23T08:47:43.000Z</time>
      </trkpt>
      <trkpt lat="45.83466" lon="4.66949">
        <ele>289.26422</ele>
        <time>2023-11-23T08:47:44.000Z</time>
      </trkpt>
      <trkpt lat="45.83462" lon="4.6695">
        <ele>289.81921</ele>
        <time>2023-11-23T08:47:45.000Z</time>
      </trkpt>
      <trkpt lat="45.83459" lon="4.6695">
        <ele>290.40448</ele>
        <time>2023-11-23T08:47:46.000Z</time>
      </trkpt>
      <trkpt lat="45.83455" lon="4.6695">
        <ele>291.01437</ele>
        <time>2023-11-23T08:47:47.000Z</time>
      </trkpt>
      <trkpt lat="45.83451" lon="4.66951">
        <ele>291.62613</ele>
        <time>2023-11-23T08:47:48.000Z</time>
      </trkpt>
      <trkpt lat="45.83448" lon="4.66951">
        <ele>292.24319</ele>
        <time>2023-11-23T08:47:49.000Z</time>
      </trkpt>
      <trkpt lat="45.83444" lon="4.66952">
        <ele>292.44415</ele>
        <time>2023-11-23T08:47:50.000Z</time>
      </trkpt>
      <trkpt lat="45.83441" lon="4.66953">
        <ele>292.65134</ele>
        <time>2023-11-23T08:47:51.000Z</time>
      </trkpt>
      <trkpt lat="45.83437" lon="4.66954">
        <ele>292.98221</ele>
        <time>2023-11-23T08:47:52.000Z</time>
      </trkpt>
      <trkpt lat="45.83434" lon="4.66954">
        <ele>293.37399</ele>
        <time>2023-11-23T08:47:53.000Z</time>
      </trkpt>
      <trkpt lat="45.8343" lon="4.66955">
        <ele>293.78668</ele>
        <time>2023-11-23T08:47:54.000Z</time>
      </trkpt>
      <trkpt lat="45.83427" lon="4.66956">
        <ele>293.7457</ele>
        <time>2023-11-23T08:47:55.000Z</time>
      </trkpt>
      <trkpt lat="45.83423" lon="4.66956">
        <ele>293.67368</ele>
        <time>2023-11-23T08:47:56.000Z</time>
      </trkpt>
      <trkpt lat="45.8342" lon="4.66957">
        <ele>293.58099</ele>
        <time>2023-11-23T08:47:57.000Z</time>
      </trkpt>
      <trkpt lat="45.83416" lon="4.66957">
        <ele>293.79932</ele>
        <time>2023-11-23T08:47:58.000Z</time>
      </trkpt>
      <trkpt lat="45.83412" lon="4.66958">
        <ele>293.9603</ele>
        <time>2023-11-23T08:47:59.000Z</time>
      </trkpt>
      <trkpt lat="45.83409" lon="4.66959">
        <ele>293.70578</ele>
        <time>2023-11-23T08:48:00.000Z</time>
      </trkpt>
      <trkpt lat="45.83405" lon="4.6696">
        <ele>293.43494</ele>
        <time>2023-11-23T08:48:01.000Z</time>
      </trkpt>
      <trkpt lat="45.83401" lon="4.66961">
        <ele>293.15036</ele>
        <time>2023-11-23T08:48:02.000Z</time>
      </trkpt>
      <trkpt lat="45.83398" lon="4.66961">
        <ele>292.84293</ele>
        <time>2023-11-23T08:48:03.000Z</time>
      </trkpt>
      <trkpt lat="45.83394" lon="4.66961">
        <ele>292.54507</ele>
        <time>2023-11-23T08:48:04.000Z</time>
      </trkpt>
      <trkpt lat="45.83391" lon="4.66961">
        <ele>292.25186</ele>
        <time>2023-11-23T08:48:05.000Z</time>
      </trkpt>
      <trkpt lat="45.83387" lon="4.66961">
        <ele>291.9523</ele>
        <time>2023-11-23T08:48:06.000Z</time>
      </trkpt>
      <trkpt lat="45.83384" lon="4.66961">
        <ele>291.56964</ele>
        <time>2023-11-23T08:48:07.000Z</time>
      </trkpt>
      <trkpt lat="45.8338" lon="4.66961">
        <ele>291.173</ele>
        <time>2023-11-23T08:48:08.000Z</time>
      </trkpt>
      <trkpt lat="45.83377" lon="4.66962">
        <ele>290.76819</ele>
        <time>2023-11-23T08:48:09.000Z</time>
      </trkpt>
      <trkpt lat="45.83374" lon="4.66963">
        <ele>290.76117</ele>
        <time>2023-11-23T08:48:10.000Z</time>
      </trkpt>
      <trkpt lat="45.83371" lon="4.66965">
        <ele>290.78131</ele>
        <time>2023-11-23T08:48:11.000Z</time>
      </trkpt>
      <trkpt lat="45.83369" lon="4.66967">
        <ele>290.77582</ele>
        <time>2023-11-23T08:48:12.000Z</time>
      </trkpt>
      <trkpt lat="45.83367" lon="4.6697">
        <ele>290.75775</ele>
        <time>2023-11-23T08:48:13.000Z</time>
      </trkpt>
      <trkpt lat="45.83366" lon="4.66974">
        <ele>290.72995</ele>
        <time>2023-11-23T08:48:14.000Z</time>
      </trkpt>
      <trkpt lat="45.83365" lon="4.66979">
        <ele>290.86346</ele>
        <time>2023-11-23T08:48:15.000Z</time>
      </trkpt>
      <trkpt lat="45.83365" lon="4.66983">
        <ele>291.06876</ele>
        <time>2023-11-23T08:48:16.000Z</time>
      </trkpt>
      <trkpt lat="45.83366" lon="4.66988">
        <ele>291.33813</ele>
        <time>2023-11-23T08:48:17.000Z</time>
      </trkpt>
      <trkpt lat="45.83367" lon="4.66993">
        <ele>291.27887</ele>
        <time>2023-11-23T08:48:18.000Z</time>
      </trkpt>
      <trkpt lat="45.83369" lon="4.66997">
        <ele>291.30875</ele>
        <time>2023-11-23T08:48:19.000Z</time>
      </trkpt>
      <trkpt lat="45.83369" lon="4.67002">
        <ele>291.31342</ele>
        <time>2023-11-23T08:48:20.000Z</time>
      </trkpt>
      <trkpt lat="45.8337" lon="4.67006">
        <ele>291.35458</ele>
        <time>2023-11-23T08:48:21.000Z</time>
      </trkpt>
      <trkpt lat="45.83369" lon="4.6701">
        <ele>291.41394</ele>
        <time>2023-11-23T08:48:22.000Z</time>
      </trkpt>
      <trkpt lat="45.83369" lon="4.67014">
        <ele>291.43643</ele>
        <time>2023-11-23T08:48:23.000Z</time>
      </trkpt>
      <trkpt lat="45.83369" lon="4.67019">
        <ele>291.44077</ele>
        <time>2023-11-23T08:48:24.000Z</time>
      </trkpt>
      <trkpt lat="45.83368" lon="4.67023">
        <ele>291.45236</ele>
        <time>2023-11-23T08:48:25.000Z</time>
      </trkpt>
      <trkpt lat="45.83368" lon="4.67027">
        <ele>291.43283</ele>
        <time>2023-11-23T08:48:26.000Z</time>
      </trkpt>
      <trkpt lat="45.83368" lon="4.67031">
        <ele>291.47574</ele>
        <time>2023-11-23T08:48:27.000Z</time>
      </trkpt>
      <trkpt lat="45.83368" lon="4.67035">
        <ele>291.53076</ele>
        <time>2023-11-23T08:48:28.000Z</time>
      </trkpt>
      <trkpt lat="45.8337" lon="4.67039">
        <ele>291.5564</ele>
        <time>2023-11-23T08:48:29.000Z</time>
      </trkpt>
      <trkpt lat="45.83372" lon="4.67042">
        <ele>291.59039</ele>
        <time>2023-11-23T08:48:30.000Z</time>
      </trkpt>
      <trkpt lat="45.83374" lon="4.67046">
        <ele>291.57236</ele>
        <time>2023-11-23T08:48:31.000Z</time>
      </trkpt>
      <trkpt lat="45.83377" lon="4.67049">
        <ele>291.5806</ele>
        <time>2023-11-23T08:48:32.000Z</time>
      </trkpt>
      <trkpt lat="45.8338" lon="4.67052">
        <ele>291.62253</ele>
        <time>2023-11-23T08:48:33.000Z</time>
      </trkpt>
      <trkpt lat="45.83383" lon="4.67054">
        <ele>291.51019</ele>
        <time>2023-11-23T08:48:34.000Z</time>
      </trkpt>
      <trkpt lat="45.83387" lon="4.67057">
        <ele>291.3891</ele>
        <time>2023-11-23T08:48:35.000Z</time>
      </trkpt>
      <trkpt lat="45.8339" lon="4.6706">
        <ele>291.26404</ele>
        <time>2023-11-23T08:48:36.000Z</time>
      </trkpt>
      <trkpt lat="45.83393" lon="4.67063">
        <ele>291.11218</ele>
        <time>2023-11-23T08:48:37.000Z</time>
      </trkpt>
      <trkpt lat="45.83396" lon="4.67066">
        <ele>290.93658</ele>
        <time>2023-11-23T08:48:38.000Z</time>
      </trkpt>
      <trkpt lat="45.83399" lon="4.6707">
        <ele>290.63629</ele>
        <time>2023-11-23T08:48:39.000Z</time>
      </trkpt>
      <trkpt lat="45.83402" lon="4.67073">
        <ele>290.69977</ele>
        <time>2023-11-23T08:48:40.000Z</time>
      </trkpt>
      <trkpt lat="45.83405" lon="4.67076">
        <ele>290.69403</ele>
        <time>2023-11-23T08:48:41.000Z</time>
      </trkpt>
      <trkpt lat="45.83409" lon="4.67079">
        <ele>290.68616</ele>
        <time>2023-11-23T08:48:42.000Z</time>
      </trkpt>
      <trkpt lat="45.83412" lon="4.67083">
        <ele>290.70325</ele>
        <time>2023-11-23T08:48:43.000Z</time>
      </trkpt>
      <trkpt lat="45.83416" lon="4.67086">
        <ele>290.71246</ele>
        <time>2023-11-23T08:48:44.000Z</time>
      </trkpt>
      <trkpt lat="45.83419" lon="4.67089">
        <ele>290.70554</ele>
        <time>2023-11-23T08:48:45.000Z</time>
      </trkpt>
      <trkpt lat="45.83422" lon="4.67093">
        <ele>290.72687</ele>
        <time>2023-11-23T08:48:46.000Z</time>
      </trkpt>
      <trkpt lat="45.83426" lon="4.67097">
        <ele>290.74167</ele>
        <time>2023-11-23T08:48:47.000Z</time>
      </trkpt>
      <trkpt lat="45.83429" lon="4.67101">
        <ele>290.55637</ele>
        <time>2023-11-23T08:48:48.000Z</time>
      </trkpt>
      <trkpt lat="45.83432" lon="4.67105">
        <ele>290.59845</ele>
        <time>2023-11-23T08:48:49.000Z</time>
      </trkpt>
      <trkpt lat="45.83435" lon="4.67109">
        <ele>290.63232</ele>
        <time>2023-11-23T08:48:50.000Z</time>
      </trkpt>
      <trkpt lat="45.83439" lon="4.67113">
        <ele>291.50928</ele>
        <time>2023-11-23T08:48:51.000Z</time>
      </trkpt>
      <trkpt lat="45.83441" lon="4.67117">
        <ele>292.41702</ele>
        <time>2023-11-23T08:48:52.000Z</time>
      </trkpt>
      <trkpt lat="45.83444" lon="4.67122">
        <ele>293.31268</ele>
        <time>2023-11-23T08:48:53.000Z</time>
      </trkpt>
      <trkpt lat="45.83447" lon="4.67127">
        <ele>293.21024</ele>
        <time>2023-11-23T08:48:54.000Z</time>
      </trkpt>
      <trkpt lat="45.8345" lon="4.67132">
        <ele>293.1835</ele>
        <time>2023-11-23T08:48:55.000Z</time>
      </trkpt>
      <trkpt lat="45.83453" lon="4.67137">
        <ele>293.13666</ele>
        <time>2023-11-23T08:48:56.000Z</time>
      </trkpt>
      <trkpt lat="45.83457" lon="4.67143">
        <ele>293.01291</ele>
        <time>2023-11-23T08:48:57.000Z</time>
      </trkpt>
      <trkpt lat="45.83461" lon="4.67149">
        <ele>292.85785</ele>
        <time>2023-11-23T08:48:58.000Z</time>
      </trkpt>
      <trkpt lat="45.83465" lon="4.67156">
        <ele>292.75662</ele>
        <time>2023-11-23T08:48:59.000Z</time>
      </trkpt>
      <trkpt lat="45.83469" lon="4.67162">
        <ele>292.31671</ele>
        <time>2023-11-23T08:49:00.000Z</time>
      </trkpt>
      <trkpt lat="45.83473" lon="4.67167">
        <ele>291.9108</ele>
        <time>2023-11-23T08:49:01.000Z</time>
      </trkpt>
      <trkpt lat="45.83477" lon="4.67172">
        <ele>291.84082</ele>
        <time>2023-11-23T08:49:02.000Z</time>
      </trkpt>
      <trkpt lat="45.83481" lon="4.67177">
        <ele>292.29376</ele>
        <time>2023-11-23T08:49:03.000Z</time>
      </trkpt>
      <trkpt lat="45.83486" lon="4.67184">
        <ele>292.75012</ele>
        <time>2023-11-23T08:49:04.000Z</time>
      </trkpt>
      <trkpt lat="45.83491" lon="4.6719">
        <ele>293.21472</ele>
        <time>2023-11-23T08:49:05.000Z</time>
      </trkpt>
      <trkpt lat="45.83495" lon="4.67196">
        <ele>293.64136</ele>
        <time>2023-11-23T08:49:06.000Z</time>
      </trkpt>
      <trkpt lat="45.835" lon="4.67201">
        <ele>294.05591</ele>
        <time>2023-11-23T08:49:07.000Z</time>
      </trkpt>
      <trkpt lat="45.83505" lon="4.67208">
        <ele>294.65216</ele>
        <time>2023-11-23T08:49:08.000Z</time>
      </trkpt>
      <trkpt lat="45.83511" lon="4.67213">
        <ele>295.02289</ele>
        <time>2023-11-23T08:49:09.000Z</time>
      </trkpt>
      <trkpt lat="45.83518" lon="4.67219">
        <ele>295.38654</ele>
        <time>2023-11-23T08:49:10.000Z</time>
      </trkpt>
      <trkpt lat="45.83524" lon="4.67224">
        <ele>294.90073</ele>
        <time>2023-11-23T08:49:11.000Z</time>
      </trkpt>
      <trkpt lat="45.83529" lon="4.67229">
        <ele>294.34543</ele>
        <time>2023-11-23T08:49:12.000Z</time>
      </trkpt>
      <trkpt lat="45.83536" lon="4.67235">
        <ele>293.78433</ele>
        <time>2023-11-23T08:49:13.000Z</time>
      </trkpt>
      <trkpt lat="45.83542" lon="4.67241">
        <ele>294.39688</ele>
        <time>2023-11-23T08:49:14.000Z</time>
      </trkpt>
      <trkpt lat="45.83548" lon="4.67247">
        <ele>294.93066</ele>
        <time>2023-11-23T08:49:15.000Z</time>
      </trkpt>
      <trkpt lat="45.83554" lon="4.67252">
        <ele>295.47604</ele>
        <time>2023-11-23T08:49:16.000Z</time>
      </trkpt>
      <trkpt lat="45.8356" lon="4.67256">
        <ele>296.0791</ele>
        <time>2023-11-23T08:49:17.000Z</time>
      </trkpt>
      <trkpt lat="45.83566" lon="4.67262">
        <ele>296.70932</ele>
        <time>2023-11-23T08:49:18.000Z</time>
      </trkpt>
      <trkpt lat="45.83572" lon="4.67267">
        <ele>297.43268</ele>
        <time>2023-11-23T08:49:19.000Z</time>
      </trkpt>
      <trkpt lat="45.83578" lon="4.67272">
        <ele>298.13831</ele>
        <time>2023-11-23T08:49:20.000Z</time>
      </trkpt>
      <trkpt lat="45.83584" lon="4.67277">
        <ele>298.85614</ele>
        <time>2023-11-23T08:49:21.000Z</time>
      </trkpt>
      <trkpt lat="45.83591" lon="4.67282">
        <ele>299.22086</ele>
        <time>2023-11-23T08:49:22.000Z</time>
      </trkpt>
      <trkpt lat="45.83597" lon="4.67286">
        <ele>299.06256</ele>
        <time>2023-11-23T08:49:23.000Z</time>
      </trkpt>
      <trkpt lat="45.83603" lon="4.67291">
        <ele>298.79742</ele>
        <time>2023-11-23T08:49:24.000Z</time>
      </trkpt>
      <trkpt lat="45.8361" lon="4.67296">
        <ele>298.52722</ele>
        <time>2023-11-23T08:49:25.000Z</time>
      </trkpt>
      <trkpt lat="45.83615" lon="4.673">
        <ele>298.24225</ele>
        <time>2023-11-23T08:49:26.000Z</time>
      </trkpt>
      <trkpt lat="45.83621" lon="4.67302">
        <ele>297.9599</ele>
        <time>2023-11-23T08:49:27.000Z</time>
      </trkpt>
      <trkpt lat="45.83627" lon="4.67308">
        <ele>297.69983</ele>
        <time>2023-11-23T08:49:28.000Z</time>
      </trkpt>
      <trkpt lat="45.83633" lon="4.67311">
        <ele>297.44745</ele>
        <time>2023-11-23T08:49:29.000Z</time>
      </trkpt>
      <trkpt lat="45.83639" lon="4.67316">
        <ele>297.24066</ele>
        <time>2023-11-23T08:49:30.000Z</time>
      </trkpt>
      <trkpt lat="45.83645" lon="4.67319">
        <ele>297.0701</ele>
        <time>2023-11-23T08:49:31.000Z</time>
      </trkpt>
      <trkpt lat="45.83651" lon="4.67323">
        <ele>296.9548</ele>
        <time>2023-11-23T08:49:32.000Z</time>
      </trkpt>
      <trkpt lat="45.83658" lon="4.67328">
        <ele>296.71335</ele>
        <time>2023-11-23T08:49:33.000Z</time>
      </trkpt>
      <trkpt lat="45.83664" lon="4.67333">
        <ele>296.47595</ele>
        <time>2023-11-23T08:49:34.000Z</time>
      </trkpt>
      <trkpt lat="45.8367" lon="4.67337">
        <ele>296.24701</ele>
        <time>2023-11-23T08:49:35.000Z</time>
      </trkpt>
      <trkpt lat="45.83675" lon="4.6734">
        <ele>296.05124</ele>
        <time>2023-11-23T08:49:36.000Z</time>
      </trkpt>
      <trkpt lat="45.83681" lon="4.67344">
        <ele>295.8811</ele>
        <time>2023-11-23T08:49:37.000Z</time>
      </trkpt>
      <trkpt lat="45.83688" lon="4.67348">
        <ele>295.71112</ele>
        <time>2023-11-23T08:49:38.000Z</time>
      </trkpt>
      <trkpt lat="45.83693" lon="4.67352">
        <ele>295.49191</ele>
        <time>2023-11-23T08:49:39.000Z</time>
      </trkpt>
      <trkpt lat="45.83699" lon="4.67357">
        <ele>295.28119</ele>
        <time>2023-11-23T08:49:40.000Z</time>
      </trkpt>
      <trkpt lat="45.83705" lon="4.67361">
        <ele>295.09412</ele>
        <time>2023-11-23T08:49:41.000Z</time>
      </trkpt>
      <trkpt lat="45.83711" lon="4.67365">
        <ele>294.88776</ele>
        <time>2023-11-23T08:49:42.000Z</time>
      </trkpt>
      <trkpt lat="45.83717" lon="4.67369">
        <ele>294.67773</ele>
        <time>2023-11-23T08:49:43.000Z</time>
      </trkpt>
      <trkpt lat="45.83722" lon="4.67373">
        <ele>294.55917</ele>
        <time>2023-11-23T08:49:44.000Z</time>
      </trkpt>
      <trkpt lat="45.83729" lon="4.67377">
        <ele>294.42816</ele>
        <time>2023-11-23T08:49:45.000Z</time>
      </trkpt>
      <trkpt lat="45.83735" lon="4.67381">
        <ele>294.3045</ele>
        <time>2023-11-23T08:49:46.000Z</time>
      </trkpt>
      <trkpt lat="45.8374" lon="4.67385">
        <ele>294.20673</ele>
        <time>2023-11-23T08:49:47.000Z</time>
      </trkpt>
      <trkpt lat="45.83746" lon="4.67388">
        <ele>294.09106</ele>
        <time>2023-11-23T08:49:48.000Z</time>
      </trkpt>
      <trkpt lat="45.83752" lon="4.67391">
        <ele>293.96567</ele>
        <time>2023-11-23T08:49:49.000Z</time>
      </trkpt>
      <trkpt lat="45.83757" lon="4.67395">
        <ele>293.79669</ele>
        <time>2023-11-23T08:49:50.000Z</time>
      </trkpt>
      <trkpt lat="45.83763" lon="4.674">
        <ele>293.60187</ele>
        <time>2023-11-23T08:49:51.000Z</time>
      </trkpt>
      <trkpt lat="45.83769" lon="4.67404">
        <ele>293.38647</ele>
        <time>2023-11-23T08:49:52.000Z</time>
      </trkpt>
      <trkpt lat="45.83776" lon="4.67408">
        <ele>293.27216</ele>
        <time>2023-11-23T08:49:53.000Z</time>
      </trkpt>
      <trkpt lat="45.83782" lon="4.6741">
        <ele>293.14133</ele>
        <time>2023-11-23T08:49:54.000Z</time>
      </trkpt>
      <trkpt lat="45.83788" lon="4.67413">
        <ele>293.00372</ele>
        <time>2023-11-23T08:49:55.000Z</time>
      </trkpt>
      <trkpt lat="45.83794" lon="4.67414">
        <ele>292.81549</ele>
        <time>2023-11-23T08:49:56.000Z</time>
      </trkpt>
      <trkpt lat="45.83801" lon="4.67416">
        <ele>292.6084</ele>
        <time>2023-11-23T08:49:57.000Z</time>
      </trkpt>
      <trkpt lat="45.83807" lon="4.67417">
        <ele>292.37927</ele>
        <time>2023-11-23T08:49:58.000Z</time>
      </trkpt>
      <trkpt lat="45.83813" lon="4.6742">
        <ele>292.17224</ele>
        <time>2023-11-23T08:49:59.000Z</time>
      </trkpt>
      <trkpt lat="45.83819" lon="4.67422">
        <ele>291.96219</ele>
        <time>2023-11-23T08:50:00.000Z</time>
      </trkpt>
      <trkpt lat="45.83825" lon="4.67424">
        <ele>291.74619</ele>
        <time>2023-11-23T08:50:01.000Z</time>
      </trkpt>
      <trkpt lat="45.8383" lon="4.67426">
        <ele>291.5329</ele>
        <time>2023-11-23T08:50:02.000Z</time>
      </trkpt>
      <trkpt lat="45.83837" lon="4.67428">
        <ele>291.32004</ele>
        <time>2023-11-23T08:50:03.000Z</time>
      </trkpt>
      <trkpt lat="45.83842" lon="4.6743">
        <ele>291.18896</ele>
        <time>2023-11-23T08:50:04.000Z</time>
      </trkpt>
      <trkpt lat="45.83848" lon="4.67433">
        <ele>291.08334</ele>
        <time>2023-11-23T08:50:05.000Z</time>
      </trkpt>
      <trkpt lat="45.83853" lon="4.67435">
        <ele>291.01025</ele>
        <time>2023-11-23T08:50:06.000Z</time>
      </trkpt>
      <trkpt lat="45.83859" lon="4.67438">
        <ele>290.91821</ele>
        <time>2023-11-23T08:50:07.000Z</time>
      </trkpt>
      <trkpt lat="45.83865" lon="4.6744">
        <ele>290.66681</ele>
        <time>2023-11-23T08:50:08.000Z</time>
      </trkpt>
      <trkpt lat="45.8387" lon="4.67443">
        <ele>290.45193</ele>
        <time>2023-11-23T08:50:09.000Z</time>
      </trkpt>
      <trkpt lat="45.83876" lon="4.67446">
        <ele>290.21603</ele>
        <time>2023-11-23T08:50:10.000Z</time>
      </trkpt>
      <trkpt lat="45.83882" lon="4.67448">
        <ele>289.99405</ele>
        <time>2023-11-23T08:50:11.000Z</time>
      </trkpt>
      <trkpt lat="45.83887" lon="4.67451">
        <ele>289.74384</ele>
        <time>2023-11-23T08:50:12.000Z</time>
      </trkpt>
      <trkpt lat="45.83892" lon="4.67453">
        <ele>289.46039</ele>
        <time>2023-11-23T08:50:13.000Z</time>
      </trkpt>
      <trkpt lat="45.83899" lon="4.67455">
        <ele>289.13205</ele>
        <time>2023-11-23T08:50:14.000Z</time>
      </trkpt>
      <trkpt lat="45.83905" lon="4.67458">
        <ele>288.81555</ele>
        <time>2023-11-23T08:50:15.000Z</time>
      </trkpt>
      <trkpt lat="45.83911" lon="4.67458">
        <ele>288.67233</ele>
        <time>2023-11-23T08:50:16.000Z</time>
      </trkpt>
      <trkpt lat="45.83917" lon="4.6746">
        <ele>288.59399</ele>
        <time>2023-11-23T08:50:17.000Z</time>
      </trkpt>
      <trkpt lat="45.83923" lon="4.67463">
        <ele>288.30096</ele>
        <time>2023-11-23T08:50:18.000Z</time>
      </trkpt>
      <trkpt lat="45.83929" lon="4.67464">
        <ele>288.0004</ele>
        <time>2023-11-23T08:50:19.000Z</time>
      </trkpt>
      <trkpt lat="45.83935" lon="4.67466">
        <ele>287.71768</ele>
        <time>2023-11-23T08:50:20.000Z</time>
      </trkpt>
      <trkpt lat="45.83942" lon="4.67468">
        <ele>287.44543</ele>
        <time>2023-11-23T08:50:21.000Z</time>
      </trkpt>
      <trkpt lat="45.83948" lon="4.67469">
        <ele>287.20209</ele>
        <time>2023-11-23T08:50:22.000Z</time>
      </trkpt>
      <trkpt lat="45.83955" lon="4.67471">
        <ele>286.97614</ele>
        <time>2023-11-23T08:50:23.000Z</time>
      </trkpt>
      <trkpt lat="45.83961" lon="4.67474">
        <ele>286.66742</ele>
        <time>2023-11-23T08:50:24.000Z</time>
      </trkpt>
      <trkpt lat="45.83967" lon="4.67475">
        <ele>286.31299</ele>
        <time>2023-11-23T08:50:25.000Z</time>
      </trkpt>
      <trkpt lat="45.83973" lon="4.67477">
        <ele>285.95264</ele>
        <time>2023-11-23T08:50:26.000Z</time>
      </trkpt>
      <trkpt lat="45.8398" lon="4.6748">
        <ele>285.60529</ele>
        <time>2023-11-23T08:50:27.000Z</time>
      </trkpt>
      <trkpt lat="45.83985" lon="4.6748">
        <ele>285.42264</ele>
        <time>2023-11-23T08:50:28.000Z</time>
      </trkpt>
      <trkpt lat="45.83991" lon="4.67482">
        <ele>285.20459</ele>
        <time>2023-11-23T08:50:29.000Z</time>
      </trkpt>
      <trkpt lat="45.83997" lon="4.67484">
        <ele>285.01508</ele>
        <time>2023-11-23T08:50:30.000Z</time>
      </trkpt>
      <trkpt lat="45.84004" lon="4.67486">
        <ele>284.83301</ele>
        <time>2023-11-23T08:50:31.000Z</time>
      </trkpt>
      <trkpt lat="45.8401" lon="4.67488">
        <ele>284.66519</ele>
        <time>2023-11-23T08:50:32.000Z</time>
      </trkpt>
      <trkpt lat="45.84016" lon="4.67491">
        <ele>284.57266</ele>
        <time>2023-11-23T08:50:33.000Z</time>
      </trkpt>
      <trkpt lat="45.84022" lon="4.67493">
        <ele>284.53598</ele>
        <time>2023-11-23T08:50:34.000Z</time>
      </trkpt>
      <trkpt lat="45.84028" lon="4.67493">
        <ele>284.48996</ele>
        <time>2023-11-23T08:50:35.000Z</time>
      </trkpt>
      <trkpt lat="45.84034" lon="4.67495">
        <ele>284.28555</ele>
        <time>2023-11-23T08:50:36.000Z</time>
      </trkpt>
      <trkpt lat="45.84038" lon="4.67496">
        <ele>283.97888</ele>
        <time>2023-11-23T08:50:37.000Z</time>
      </trkpt>
      <trkpt lat="45.84043" lon="4.67496">
        <ele>283.91092</ele>
        <time>2023-11-23T08:50:38.000Z</time>
      </trkpt>
      <trkpt lat="45.84049" lon="4.67497">
        <ele>283.82175</ele>
        <time>2023-11-23T08:50:39.000Z</time>
      </trkpt>
      <trkpt lat="45.84054" lon="4.67498">
        <ele>283.73099</ele>
        <time>2023-11-23T08:50:40.000Z</time>
      </trkpt>
      <trkpt lat="45.8406" lon="4.67502">
        <ele>283.6925</ele>
        <time>2023-11-23T08:50:41.000Z</time>
      </trkpt>
      <trkpt lat="45.84065" lon="4.67503">
        <ele>283.05197</ele>
        <time>2023-11-23T08:50:42.000Z</time>
      </trkpt>
      <trkpt lat="45.8407" lon="4.67504">
        <ele>282.42596</ele>
        <time>2023-11-23T08:50:43.000Z</time>
      </trkpt>
      <trkpt lat="45.84074" lon="4.67506">
        <ele>281.7243</ele>
        <time>2023-11-23T08:50:44.000Z</time>
      </trkpt>
      <trkpt lat="45.84079" lon="4.67508">
        <ele>281.06195</ele>
        <time>2023-11-23T08:50:45.000Z</time>
      </trkpt>
      <trkpt lat="45.84084" lon="4.6751">
        <ele>281.71826</ele>
        <time>2023-11-23T08:50:46.000Z</time>
      </trkpt>
      <trkpt lat="45.84089" lon="4.6751">
        <ele>281.90649</ele>
        <time>2023-11-23T08:50:47.000Z</time>
      </trkpt>
      <trkpt lat="45.84093" lon="4.67511">
        <ele>282.13788</ele>
        <time>2023-11-23T08:50:48.000Z</time>
      </trkpt>
      <trkpt lat="45.84097" lon="4.67513">
        <ele>282.35846</ele>
        <time>2023-11-23T08:50:49.000Z</time>
      </trkpt>
      <trkpt lat="45.841" lon="4.67517">
        <ele>282.57831</ele>
        <time>2023-11-23T08:50:50.000Z</time>
      </trkpt>
      <trkpt lat="45.84102" lon="4.67521">
        <ele>282.51569</ele>
        <time>2023-11-23T08:50:51.000Z</time>
      </trkpt>
      <trkpt lat="45.84103" lon="4.67525">
        <ele>282.44501</ele>
        <time>2023-11-23T08:50:52.000Z</time>
      </trkpt>
      <trkpt lat="45.84104" lon="4.67531">
        <ele>281.80371</ele>
        <time>2023-11-23T08:50:53.000Z</time>
      </trkpt>
      <trkpt lat="45.84107" lon="4.67535">
        <ele>281.1438</ele>
        <time>2023-11-23T08:50:54.000Z</time>
      </trkpt>
      <trkpt lat="45.8411" lon="4.6754">
        <ele>280.49237</ele>
        <time>2023-11-23T08:50:55.000Z</time>
      </trkpt>
      <trkpt lat="45.84113" lon="4.67544">
        <ele>279.8078</ele>
        <time>2023-11-23T08:50:56.000Z</time>
      </trkpt>
      <trkpt lat="45.84116" lon="4.67549">
        <ele>279.17606</ele>
        <time>2023-11-23T08:50:57.000Z</time>
      </trkpt>
      <trkpt lat="45.84118" lon="4.67554">
        <ele>278.52182</ele>
        <time>2023-11-23T08:50:58.000Z</time>
      </trkpt>
      <trkpt lat="45.84119" lon="4.67561">
        <ele>277.90448</ele>
        <time>2023-11-23T08:50:59.000Z</time>
      </trkpt>
      <trkpt lat="45.84118" lon="4.67569">
        <ele>277.30817</ele>
        <time>2023-11-23T08:51:00.000Z</time>
      </trkpt>
      <trkpt lat="45.84116" lon="4.67575">
        <ele>276.60367</ele>
        <time>2023-11-23T08:51:01.000Z</time>
      </trkpt>
      <trkpt lat="45.84112" lon="4.67581">
        <ele>277.16364</ele>
        <time>2023-11-23T08:51:02.000Z</time>
      </trkpt>
      <trkpt lat="45.8411" lon="4.67584">
        <ele>277.73834</ele>
        <time>2023-11-23T08:51:03.000Z</time>
      </trkpt>
      <trkpt lat="45.84106" lon="4.67586">
        <ele>278.43521</ele>
        <time>2023-11-23T08:51:04.000Z</time>
      </trkpt>
      <trkpt lat="45.84103" lon="4.67588">
        <ele>278.60257</ele>
        <time>2023-11-23T08:51:05.000Z</time>
      </trkpt>
      <trkpt lat="45.841" lon="4.67592">
        <ele>277.47162</ele>
        <time>2023-11-23T08:51:06.000Z</time>
      </trkpt>
      <trkpt lat="45.84098" lon="4.67594">
        <ele>276.83102</ele>
        <time>2023-11-23T08:51:07.000Z</time>
      </trkpt>
      <trkpt lat="45.84094" lon="4.67597">
        <ele>276.17194</ele>
        <time>2023-11-23T08:51:08.000Z</time>
      </trkpt>
      <trkpt lat="45.84092" lon="4.67601">
        <ele>275.56253</ele>
        <time>2023-11-23T08:51:09.000Z</time>
      </trkpt>
      <trkpt lat="45.84088" lon="4.67605">
        <ele>274.9689</ele>
        <time>2023-11-23T08:51:10.000Z</time>
      </trkpt>
      <trkpt lat="45.84085" lon="4.67609">
        <ele>274.58392</ele>
        <time>2023-11-23T08:51:11.000Z</time>
      </trkpt>
      <trkpt lat="45.84082" lon="4.67613">
        <ele>274.16159</ele>
        <time>2023-11-23T08:51:12.000Z</time>
      </trkpt>
      <trkpt lat="45.84078" lon="4.67617">
        <ele>274.27341</ele>
        <time>2023-11-23T08:51:13.000Z</time>
      </trkpt>
      <trkpt lat="45.84075" lon="4.67621">
        <ele>274.39288</ele>
        <time>2023-11-23T08:51:14.000Z</time>
      </trkpt>
      <trkpt lat="45.84072" lon="4.67626">
        <ele>274.48575</ele>
        <time>2023-11-23T08:51:15.000Z</time>
      </trkpt>
      <trkpt lat="45.84068" lon="4.6763">
        <ele>274.79218</ele>
        <time>2023-11-23T08:51:16.000Z</time>
      </trkpt>
      <trkpt lat="45.84065" lon="4.67634">
        <ele>275.08099</ele>
        <time>2023-11-23T08:51:17.000Z</time>
      </trkpt>
      <trkpt lat="45.84062" lon="4.67638">
        <ele>275.40897</ele>
        <time>2023-11-23T08:51:18.000Z</time>
      </trkpt>
      <trkpt lat="45.84058" lon="4.67643">
        <ele>275.76593</ele>
        <time>2023-11-23T08:51:19.000Z</time>
      </trkpt>
      <trkpt lat="45.84055" lon="4.67648">
        <ele>275.9736</ele>
        <time>2023-11-23T08:51:20.000Z</time>
      </trkpt>
      <trkpt lat="45.84052" lon="4.67652">
        <ele>276.1994</ele>
        <time>2023-11-23T08:51:21.000Z</time>
      </trkpt>
      <trkpt lat="45.84049" lon="4.67656">
        <ele>275.71399</ele>
        <time>2023-11-23T08:51:22.000Z</time>
      </trkpt>
      <trkpt lat="45.84046" lon="4.67661">
        <ele>275.32706</ele>
        <time>2023-11-23T08:51:23.000Z</time>
      </trkpt>
      <trkpt lat="45.84042" lon="4.67665">
        <ele>275.4689</ele>
        <time>2023-11-23T08:51:24.000Z</time>
      </trkpt>
      <trkpt lat="45.84039" lon="4.6767">
        <ele>276.13959</ele>
        <time>2023-11-23T08:51:25.000Z</time>
      </trkpt>
      <trkpt lat="45.84036" lon="4.67674">
        <ele>276.78333</ele>
        <time>2023-11-23T08:51:26.000Z</time>
      </trkpt>
      <trkpt lat="45.84033" lon="4.67679">
        <ele>277.41412</ele>
        <time>2023-11-23T08:51:27.000Z</time>
      </trkpt>
      <trkpt lat="45.84029" lon="4.67683">
        <ele>278.01962</ele>
        <time>2023-11-23T08:51:28.000Z</time>
      </trkpt>
      <trkpt lat="45.84026" lon="4.67688">
        <ele>278.58966</ele>
        <time>2023-11-23T08:51:29.000Z</time>
      </trkpt>
      <trkpt lat="45.84022" lon="4.67692">
        <ele>279.28607</ele>
        <time>2023-11-23T08:51:30.000Z</time>
      </trkpt>
      <trkpt lat="45.84017" lon="4.67695">
        <ele>280.08978</ele>
        <time>2023-11-23T08:51:31.000Z</time>
      </trkpt>
      <trkpt lat="45.84012" lon="4.67695">
        <ele>280.0726</ele>
        <time>2023-11-23T08:51:32.000Z</time>
      </trkpt>
      <trkpt lat="45.84007" lon="4.67694">
        <ele>280.05817</ele>
        <time>2023-11-23T08:51:33.000Z</time>
      </trkpt>
      <trkpt lat="45.84002" lon="4.67692">
        <ele>280.22955</ele>
        <time>2023-11-23T08:51:34.000Z</time>
      </trkpt>
      <trkpt lat="45.83996" lon="4.6769">
        <ele>280.38376</ele>
        <time>2023-11-23T08:51:35.000Z</time>
      </trkpt>
      <trkpt lat="45.83991" lon="4.67688">
        <ele>280.38095</ele>
        <time>2023-11-23T08:51:36.000Z</time>
      </trkpt>
      <trkpt lat="45.83986" lon="4.67686">
        <ele>280.39481</ele>
        <time>2023-11-23T08:51:37.000Z</time>
      </trkpt>
      <trkpt lat="45.83982" lon="4.67683">
        <ele>280.40417</ele>
        <time>2023-11-23T08:51:38.000Z</time>
      </trkpt>
      <trkpt lat="45.83977" lon="4.67682">
        <ele>280.36395</ele>
        <time>2023-11-23T08:51:39.000Z</time>
      </trkpt>
      <trkpt lat="45.83972" lon="4.67681">
        <ele>280.43921</ele>
        <time>2023-11-23T08:51:40.000Z</time>
      </trkpt>
      <trkpt lat="45.83968" lon="4.6768">
        <ele>280.52768</ele>
        <time>2023-11-23T08:51:41.000Z</time>
      </trkpt>
      <trkpt lat="45.83963" lon="4.67678">
        <ele>280.67902</ele>
        <time>2023-11-23T08:51:42.000Z</time>
      </trkpt>
      <trkpt lat="45.83958" lon="4.67678">
        <ele>280.69409</ele>
        <time>2023-11-23T08:51:43.000Z</time>
      </trkpt>
      <trkpt lat="45.83954" lon="4.67681">
        <ele>280.13263</ele>
        <time>2023-11-23T08:51:44.000Z</time>
      </trkpt>
      <trkpt lat="45.83949" lon="4.67684">
        <ele>279.54987</ele>
        <time>2023-11-23T08:51:45.000Z</time>
      </trkpt>
      <trkpt lat="45.83944" lon="4.67688">
        <ele>278.98419</ele>
        <time>2023-11-23T08:51:46.000Z</time>
      </trkpt>
      <trkpt lat="45.8394" lon="4.67693">
        <ele>278.4032</ele>
        <time>2023-11-23T08:51:47.000Z</time>
      </trkpt>
      <trkpt lat="45.83936" lon="4.67698">
        <ele>277.82556</ele>
        <time>2023-11-23T08:51:48.000Z</time>
      </trkpt>
      <trkpt lat="45.83933" lon="4.67704">
        <ele>277.13556</ele>
        <time>2023-11-23T08:51:49.000Z</time>
      </trkpt>
      <trkpt lat="45.83929" lon="4.67708">
        <ele>276.2713</ele>
        <time>2023-11-23T08:51:50.000Z</time>
      </trkpt>
      <trkpt lat="45.83925" lon="4.67713">
        <ele>275.35831</ele>
        <time>2023-11-23T08:51:51.000Z</time>
      </trkpt>
      <trkpt lat="45.83921" lon="4.67719">
        <ele>275.45032</ele>
        <time>2023-11-23T08:51:52.000Z</time>
      </trkpt>
      <trkpt lat="45.83918" lon="4.67724">
        <ele>275.50458</ele>
        <time>2023-11-23T08:51:53.000Z</time>
      </trkpt>
      <trkpt lat="45.83913" lon="4.67729">
        <ele>275.35052</ele>
        <time>2023-11-23T08:51:54.000Z</time>
      </trkpt>
      <trkpt lat="45.83909" lon="4.67732">
        <ele>275.26352</ele>
        <time>2023-11-23T08:51:55.000Z</time>
      </trkpt>
      <trkpt lat="45.83907" lon="4.67735">
        <ele>275.18698</ele>
        <time>2023-11-23T08:51:56.000Z</time>
      </trkpt>
      <trkpt lat="45.83903" lon="4.6774">
        <ele>275.11435</ele>
        <time>2023-11-23T08:51:57.000Z</time>
      </trkpt>
      <trkpt lat="45.839" lon="4.67741">
        <ele>274.95569</ele>
        <time>2023-11-23T08:51:58.000Z</time>
      </trkpt>
      <trkpt lat="45.83896" lon="4.67743">
        <ele>274.80966</ele>
        <time>2023-11-23T08:51:59.000Z</time>
      </trkpt>
      <trkpt lat="45.83893" lon="4.67744">
        <ele>274.6037</ele>
        <time>2023-11-23T08:52:00.000Z</time>
      </trkpt>
      <trkpt lat="45.8389" lon="4.67744">
        <ele>274.38232</ele>
        <time>2023-11-23T08:52:01.000Z</time>
      </trkpt>
      <trkpt lat="45.83887" lon="4.67742">
        <ele>274.26843</ele>
        <time>2023-11-23T08:52:02.000Z</time>
      </trkpt>
      <trkpt lat="45.83884" lon="4.67741">
        <ele>274.13449</ele>
        <time>2023-11-23T08:52:03.000Z</time>
      </trkpt>
      <trkpt lat="45.8388" lon="4.67739">
        <ele>274.03021</ele>
        <time>2023-11-23T08:52:04.000Z</time>
      </trkpt>
      <trkpt lat="45.83877" lon="4.67737">
        <ele>273.93311</ele>
        <time>2023-11-23T08:52:05.000Z</time>
      </trkpt>
      <trkpt lat="45.83874" lon="4.67735">
        <ele>273.88748</ele>
        <time>2023-11-23T08:52:06.000Z</time>
      </trkpt>
      <trkpt lat="45.83871" lon="4.67733">
        <ele>273.80179</ele>
        <time>2023-11-23T08:52:07.000Z</time>
      </trkpt>
      <trkpt lat="45.83868" lon="4.67732">
        <ele>273.68362</ele>
        <time>2023-11-23T08:52:08.000Z</time>
      </trkpt>
      <trkpt lat="45.83864" lon="4.6773">
        <ele>273.63312</ele>
        <time>2023-11-23T08:52:09.000Z</time>
      </trkpt>
      <trkpt lat="45.83861" lon="4.67728">
        <ele>273.56073</ele>
        <time>2023-11-23T08:52:10.000Z</time>
      </trkpt>
      <trkpt lat="45.83857" lon="4.67726">
        <ele>273.51053</ele>
        <time>2023-11-23T08:52:11.000Z</time>
      </trkpt>
      <trkpt lat="45.83854" lon="4.67724">
        <ele>273.49542</ele>
        <time>2023-11-23T08:52:12.000Z</time>
      </trkpt>
      <trkpt lat="45.83851" lon="4.67722">
        <ele>273.51389</ele>
        <time>2023-11-23T08:52:13.000Z</time>
      </trkpt>
      <trkpt lat="45.83848" lon="4.6772">
        <ele>273.54681</ele>
        <time>2023-11-23T08:52:14.000Z</time>
      </trkpt>
      <trkpt lat="45.83845" lon="4.67718">
        <ele>273.5481</ele>
        <time>2023-11-23T08:52:15.000Z</time>
      </trkpt>
      <trkpt lat="45.83842" lon="4.67716">
        <ele>273.53217</ele>
        <time>2023-11-23T08:52:16.000Z</time>
      </trkpt>
      <trkpt lat="45.83839" lon="4.67714">
        <ele>273.4895</ele>
        <time>2023-11-23T08:52:17.000Z</time>
      </trkpt>
      <trkpt lat="45.83836" lon="4.67713">
        <ele>273.53067</ele>
        <time>2023-11-23T08:52:18.000Z</time>
      </trkpt>
      <trkpt lat="45.83832" lon="4.67712">
        <ele>273.52426</ele>
        <time>2023-11-23T08:52:19.000Z</time>
      </trkpt>
      <trkpt lat="45.83829" lon="4.67712">
        <ele>273.56677</ele>
        <time>2023-11-23T08:52:20.000Z</time>
      </trkpt>
      <trkpt lat="45.83827" lon="4.67712">
        <ele>273.64398</ele>
        <time>2023-11-23T08:52:21.000Z</time>
      </trkpt>
      <trkpt lat="45.83824" lon="4.67713">
        <ele>273.60089</ele>
        <time>2023-11-23T08:52:22.000Z</time>
      </trkpt>
      <trkpt lat="45.83822" lon="4.67713">
        <ele>273.58673</ele>
        <time>2023-11-23T08:52:23.000Z</time>
      </trkpt>
      <trkpt lat="45.8382" lon="4.67713">
        <ele>273.58746</ele>
        <time>2023-11-23T08:52:25.000Z</time>
      </trkpt>
      <trkpt lat="45.83818" lon="4.67712">
        <ele>273.58804</ele>
        <time>2023-11-23T08:52:27.000Z</time>
      </trkpt>
      <trkpt lat="45.83816" lon="4.67712">
        <ele>273.48593</ele>
        <time>2023-11-23T08:52:29.000Z</time>
      </trkpt>
      <trkpt lat="45.83814" lon="4.67712">
        <ele>274.10638</ele>
        <time>2023-11-23T08:53:04.000Z</time>
      </trkpt>
      <trkpt lat="45.83811" lon="4.67711">
        <ele>274.74445</ele>
        <time>2023-11-23T08:53:06.000Z</time>
      </trkpt>
      <trkpt lat="45.83809" lon="4.6771">
        <ele>275.43341</ele>
        <time>2023-11-23T08:53:07.000Z</time>
      </trkpt>
      <trkpt lat="45.83806" lon="4.67709">
        <ele>276.21326</ele>
        <time>2023-11-23T08:53:08.000Z</time>
      </trkpt>
      <trkpt lat="45.83804" lon="4.67708">
        <ele>277.02338</ele>
        <time>2023-11-23T08:53:09.000Z</time>
      </trkpt>
      <trkpt lat="45.83802" lon="4.67706">
        <ele>277.63315</ele>
        <time>2023-11-23T08:53:10.000Z</time>
      </trkpt>
      <trkpt lat="45.83799" lon="4.67705">
        <ele>278.242</ele>
        <time>2023-11-23T08:53:11.000Z</time>
      </trkpt>
      <trkpt lat="45.83796" lon="4.67704">
        <ele>278.8222</ele>
        <time>2023-11-23T08:53:12.000Z</time>
      </trkpt>
      <trkpt lat="45.83793" lon="4.67702">
        <ele>279.47247</ele>
        <time>2023-11-23T08:53:13.000Z</time>
      </trkpt>
      <trkpt lat="45.8379" lon="4.67701">
        <ele>280.14719</ele>
        <time>2023-11-23T08:53:14.000Z</time>
      </trkpt>
      <trkpt lat="45.83787" lon="4.67699">
        <ele>280.80182</ele>
        <time>2023-11-23T08:53:15.000Z</time>
      </trkpt>
      <trkpt lat="45.83784" lon="4.67697">
        <ele>281.44061</ele>
        <time>2023-11-23T08:53:16.000Z</time>
      </trkpt>
      <trkpt lat="45.8378" lon="4.67695">
        <ele>282.10898</ele>
        <time>2023-11-23T08:53:17.000Z</time>
      </trkpt>
      <trkpt lat="45.83777" lon="4.67693">
        <ele>282.76627</ele>
        <time>2023-11-23T08:53:18.000Z</time>
      </trkpt>
      <trkpt lat="45.83773" lon="4.67691">
        <ele>283.38974</ele>
        <time>2023-11-23T08:53:19.000Z</time>
      </trkpt>
      <trkpt lat="45.8377" lon="4.67688">
        <ele>284.03641</ele>
        <time>2023-11-23T08:53:20.000Z</time>
      </trkpt>
      <trkpt lat="45.83767" lon="4.67687">
        <ele>284.6629</ele>
        <time>2023-11-23T08:53:21.000Z</time>
      </trkpt>
      <trkpt lat="45.83763" lon="4.67685">
        <ele>285.29044</ele>
        <time>2023-11-23T08:53:22.000Z</time>
      </trkpt>
      <trkpt lat="45.8376" lon="4.67683">
        <ele>285.90909</ele>
        <time>2023-11-23T08:53:23.000Z</time>
      </trkpt>
      <trkpt lat="45.83757" lon="4.6768">
        <ele>286.57507</ele>
        <time>2023-11-23T08:53:24.000Z</time>
      </trkpt>
      <trkpt lat="45.83754" lon="4.67678">
        <ele>286.56036</ele>
        <time>2023-11-23T08:53:25.000Z</time>
      </trkpt>
      <trkpt lat="45.8375" lon="4.67676">
        <ele>286.58328</ele>
        <time>2023-11-23T08:53:26.000Z</time>
      </trkpt>
      <trkpt lat="45.83747" lon="4.67674">
        <ele>286.61725</ele>
        <time>2023-11-23T08:53:27.000Z</time>
      </trkpt>
      <trkpt lat="45.83744" lon="4.67672">
        <ele>286.88959</ele>
        <time>2023-11-23T08:53:28.000Z</time>
      </trkpt>
      <trkpt lat="45.83741" lon="4.6767">
        <ele>287.26556</ele>
        <time>2023-11-23T08:53:29.000Z</time>
      </trkpt>
      <trkpt lat="45.83737" lon="4.67667">
        <ele>287.46307</ele>
        <time>2023-11-23T08:53:30.000Z</time>
      </trkpt>
      <trkpt lat="45.83734" lon="4.67665">
        <ele>286.81668</ele>
        <time>2023-11-23T08:53:31.000Z</time>
      </trkpt>
      <trkpt lat="45.83731" lon="4.67662">
        <ele>286.19788</ele>
        <time>2023-11-23T08:53:32.000Z</time>
      </trkpt>
      <trkpt lat="45.83727" lon="4.67659">
        <ele>285.53839</ele>
        <time>2023-11-23T08:53:33.000Z</time>
      </trkpt>
      <trkpt lat="45.83725" lon="4.67655">
        <ele>284.79865</ele>
        <time>2023-11-23T08:53:34.000Z</time>
      </trkpt>
      <trkpt lat="45.83722" lon="4.67651">
        <ele>284.23575</ele>
        <time>2023-11-23T08:53:35.000Z</time>
      </trkpt>
      <trkpt lat="45.8372" lon="4.67643">
        <ele>283.65692</ele>
        <time>2023-11-23T08:53:36.000Z</time>
      </trkpt>
      <trkpt lat="45.83717" lon="4.67638">
        <ele>283.07623</ele>
        <time>2023-11-23T08:53:37.000Z</time>
      </trkpt>
      <trkpt lat="45.83715" lon="4.67633">
        <ele>282.51608</ele>
        <time>2023-11-23T08:53:38.000Z</time>
      </trkpt>
      <trkpt lat="45.83712" lon="4.67628">
        <ele>281.96069</ele>
        <time>2023-11-23T08:53:39.000Z</time>
      </trkpt>
      <trkpt lat="45.8371" lon="4.67622">
        <ele>281.4119</ele>
        <time>2023-11-23T08:53:40.000Z</time>
      </trkpt>
      <trkpt lat="45.83708" lon="4.67617">
        <ele>280.89453</ele>
        <time>2023-11-23T08:53:41.000Z</time>
      </trkpt>
      <trkpt lat="45.83705" lon="4.67612">
        <ele>280.33563</ele>
        <time>2023-11-23T08:53:42.000Z</time>
      </trkpt>
      <trkpt lat="45.83702" lon="4.67608">
        <ele>279.79681</ele>
        <time>2023-11-23T08:53:43.000Z</time>
      </trkpt>
      <trkpt lat="45.837" lon="4.67604">
        <ele>279.25043</ele>
        <time>2023-11-23T08:53:44.000Z</time>
      </trkpt>
      <trkpt lat="45.83696" lon="4.67598">
        <ele>278.62088</ele>
        <time>2023-11-23T08:53:45.000Z</time>
      </trkpt>
      <trkpt lat="45.83693" lon="4.67595">
        <ele>277.98465</ele>
        <time>2023-11-23T08:53:46.000Z</time>
      </trkpt>
      <trkpt lat="45.8369" lon="4.6759">
        <ele>277.35663</ele>
        <time>2023-11-23T08:53:47.000Z</time>
      </trkpt>
      <trkpt lat="45.83687" lon="4.67585">
        <ele>276.45444</ele>
        <time>2023-11-23T08:53:48.000Z</time>
      </trkpt>
      <trkpt lat="45.83683" lon="4.67582">
        <ele>275.40546</ele>
        <time>2023-11-23T08:53:49.000Z</time>
      </trkpt>
      <trkpt lat="45.83681" lon="4.67579">
        <ele>274.50693</ele>
        <time>2023-11-23T08:53:50.000Z</time>
      </trkpt>
      <trkpt lat="45.83678" lon="4.67575">
        <ele>274.67276</ele>
        <time>2023-11-23T08:53:51.000Z</time>
      </trkpt>
      <trkpt lat="45.83675" lon="4.67573">
        <ele>274.85526</ele>
        <time>2023-11-23T08:53:52.000Z</time>
      </trkpt>
      <trkpt lat="45.83672" lon="4.67569">
        <ele>275.03595</ele>
        <time>2023-11-23T08:53:53.000Z</time>
      </trkpt>
      <trkpt lat="45.83669" lon="4.67568">
        <ele>275.27301</ele>
        <time>2023-11-23T08:53:54.000Z</time>
      </trkpt>
      <trkpt lat="45.83666" lon="4.67568">
        <ele>275.37012</ele>
        <time>2023-11-23T08:53:55.000Z</time>
      </trkpt>
      <trkpt lat="45.83663" lon="4.67571">
        <ele>275.50018</ele>
        <time>2023-11-23T08:53:56.000Z</time>
      </trkpt>
      <trkpt lat="45.8366" lon="4.67575">
        <ele>275.52277</ele>
        <time>2023-11-23T08:53:57.000Z</time>
      </trkpt>
      <trkpt lat="45.83657" lon="4.67579">
        <ele>275.5061</ele>
        <time>2023-11-23T08:53:58.000Z</time>
      </trkpt>
      <trkpt lat="45.83655" lon="4.67582">
        <ele>276.34076</ele>
        <time>2023-11-23T08:53:59.000Z</time>
      </trkpt>
      <trkpt lat="45.83652" lon="4.67585">
        <ele>276.93454</ele>
        <time>2023-11-23T08:54:00.000Z</time>
      </trkpt>
      <trkpt lat="45.8365" lon="4.67588">
        <ele>277.55328</ele>
        <time>2023-11-23T08:54:01.000Z</time>
      </trkpt>
      <trkpt lat="45.83647" lon="4.67592">
        <ele>278.19882</ele>
        <time>2023-11-23T08:54:02.000Z</time>
      </trkpt>
      <trkpt lat="45.83644" lon="4.67596">
        <ele>278.86188</ele>
        <time>2023-11-23T08:54:03.000Z</time>
      </trkpt>
      <trkpt lat="45.83642" lon="4.676">
        <ele>279.53409</ele>
        <time>2023-11-23T08:54:04.000Z</time>
      </trkpt>
      <trkpt lat="45.83639" lon="4.67603">
        <ele>280.28015</ele>
        <time>2023-11-23T08:54:05.000Z</time>
      </trkpt>
      <trkpt lat="45.83636" lon="4.67607">
        <ele>281.10678</ele>
        <time>2023-11-23T08:54:06.000Z</time>
      </trkpt>
      <trkpt lat="45.83633" lon="4.67611">
        <ele>281.92172</ele>
        <time>2023-11-23T08:54:07.000Z</time>
      </trkpt>
      <trkpt lat="45.8363" lon="4.67614">
        <ele>282.73209</ele>
        <time>2023-11-23T08:54:08.000Z</time>
      </trkpt>
      <trkpt lat="45.83627" lon="4.67617">
        <ele>283.56171</ele>
        <time>2023-11-23T08:54:09.000Z</time>
      </trkpt>
      <trkpt lat="45.83624" lon="4.6762">
        <ele>284.4118</ele>
        <time>2023-11-23T08:54:10.000Z</time>
      </trkpt>
      <trkpt lat="45.83621" lon="4.67623">
        <ele>285.07187</ele>
        <time>2023-11-23T08:54:11.000Z</time>
      </trkpt>
      <trkpt lat="45.83618" lon="4.67626">
        <ele>285.74973</ele>
        <time>2023-11-23T08:54:12.000Z</time>
      </trkpt>
      <trkpt lat="45.83614" lon="4.67629">
        <ele>286.38345</ele>
        <time>2023-11-23T08:54:13.000Z</time>
      </trkpt>
      <trkpt lat="45.83611" lon="4.67632">
        <ele>287.02249</ele>
        <time>2023-11-23T08:54:14.000Z</time>
      </trkpt>
      <trkpt lat="45.83607" lon="4.67633">
        <ele>287.65424</ele>
        <time>2023-11-23T08:54:15.000Z</time>
      </trkpt>
      <trkpt lat="45.83603" lon="4.67635">
        <ele>288.58737</ele>
        <time>2023-11-23T08:54:16.000Z</time>
      </trkpt>
      <trkpt lat="45.83599" lon="4.67635">
        <ele>289.6803</ele>
        <time>2023-11-23T08:54:17.000Z</time>
      </trkpt>
      <trkpt lat="45.83595" lon="4.67634">
        <ele>290.76617</ele>
        <time>2023-11-23T08:54:18.000Z</time>
      </trkpt>
      <trkpt lat="45.83591" lon="4.67632">
        <ele>291.04657</ele>
        <time>2023-11-23T08:54:19.000Z</time>
      </trkpt>
      <trkpt lat="45.83587" lon="4.6763">
        <ele>291.75409</ele>
        <time>2023-11-23T08:54:20.000Z</time>
      </trkpt>
      <trkpt lat="45.83583" lon="4.67628">
        <ele>292.41702</ele>
        <time>2023-11-23T08:54:21.000Z</time>
      </trkpt>
      <trkpt lat="45.83579" lon="4.67626">
        <ele>293.10712</ele>
        <time>2023-11-23T08:54:22.000Z</time>
      </trkpt>
      <trkpt lat="45.83576" lon="4.67624">
        <ele>293.83319</ele>
        <time>2023-11-23T08:54:23.000Z</time>
      </trkpt>
      <trkpt lat="45.83572" lon="4.67622">
        <ele>294.23724</ele>
        <time>2023-11-23T08:54:24.000Z</time>
      </trkpt>
      <trkpt lat="45.83569" lon="4.6762">
        <ele>294.66602</ele>
        <time>2023-11-23T08:54:25.000Z</time>
      </trkpt>
      <trkpt lat="45.83565" lon="4.67617">
        <ele>294.98212</ele>
        <time>2023-11-23T08:54:26.000Z</time>
      </trkpt>
      <trkpt lat="45.83562" lon="4.67615">
        <ele>295.27878</ele>
        <time>2023-11-23T08:54:27.000Z</time>
      </trkpt>
      <trkpt lat="45.83558" lon="4.67612">
        <ele>295.60297</ele>
        <time>2023-11-23T08:54:28.000Z</time>
      </trkpt>
      <trkpt lat="45.83555" lon="4.6761">
        <ele>295.87863</ele>
        <time>2023-11-23T08:54:29.000Z</time>
      </trkpt>
      <trkpt lat="45.83551" lon="4.67608">
        <ele>296.21664</ele>
        <time>2023-11-23T08:54:30.000Z</time>
      </trkpt>
      <trkpt lat="45.83548" lon="4.67606">
        <ele>296.50824</ele>
        <time>2023-11-23T08:54:31.000Z</time>
      </trkpt>
      <trkpt lat="45.83544" lon="4.67603">
        <ele>296.79919</ele>
        <time>2023-11-23T08:54:32.000Z</time>
      </trkpt>
      <trkpt lat="45.83541" lon="4.67601">
        <ele>297.10904</ele>
        <time>2023-11-23T08:54:33.000Z</time>
      </trkpt>
      <trkpt lat="45.83537" lon="4.67599">
        <ele>297.41302</ele>
        <time>2023-11-23T08:54:34.000Z</time>
      </trkpt>
      <trkpt lat="45.83534" lon="4.67597">
        <ele>297.71307</ele>
        <time>2023-11-23T08:54:35.000Z</time>
      </trkpt>
      <trkpt lat="45.8353" lon="4.67594">
        <ele>297.68597</ele>
        <time>2023-11-23T08:54:36.000Z</time>
      </trkpt>
      <trkpt lat="45.83526" lon="4.67592">
        <ele>297.61423</ele>
        <time>2023-11-23T08:54:37.000Z</time>
      </trkpt>
      <trkpt lat="45.83523" lon="4.6759">
        <ele>297.58328</ele>
        <time>2023-11-23T08:54:38.000Z</time>
      </trkpt>
      <trkpt lat="45.83519" lon="4.67587">
        <ele>297.51288</ele>
        <time>2023-11-23T08:54:39.000Z</time>
      </trkpt>
      <trkpt lat="45.83515" lon="4.67585">
        <ele>297.21875</ele>
        <time>2023-11-23T08:54:40.000Z</time>
      </trkpt>
      <trkpt lat="45.83512" lon="4.67583">
        <ele>296.94635</ele>
        <time>2023-11-23T08:54:41.000Z</time>
      </trkpt>
      <trkpt lat="45.83508" lon="4.67581">
        <ele>296.65982</ele>
        <time>2023-11-23T08:54:42.000Z</time>
      </trkpt>
      <trkpt lat="45.83504" lon="4.67579">
        <ele>296.29932</ele>
        <time>2023-11-23T08:54:43.000Z</time>
      </trkpt>
      <trkpt lat="45.83501" lon="4.67577">
        <ele>296.2681</ele>
        <time>2023-11-23T08:54:44.000Z</time>
      </trkpt>
      <trkpt lat="45.83497" lon="4.67575">
        <ele>296.37982</ele>
        <time>2023-11-23T08:54:45.000Z</time>
      </trkpt>
      <trkpt lat="45.83494" lon="4.67572">
        <ele>296.60843</ele>
        <time>2023-11-23T08:54:46.000Z</time>
      </trkpt>
      <trkpt lat="45.8349" lon="4.6757">
        <ele>296.88455</ele>
        <time>2023-11-23T08:54:47.000Z</time>
      </trkpt>
      <trkpt lat="45.83487" lon="4.67568">
        <ele>297.22861</ele>
        <time>2023-11-23T08:54:48.000Z</time>
      </trkpt>
      <trkpt lat="45.83483" lon="4.67566">
        <ele>297.29126</ele>
        <time>2023-11-23T08:54:49.000Z</time>
      </trkpt>
      <trkpt lat="45.8348" lon="4.67565">
        <ele>297.36096</ele>
        <time>2023-11-23T08:54:50.000Z</time>
      </trkpt>
      <trkpt lat="45.83476" lon="4.67563">
        <ele>297.47931</ele>
        <time>2023-11-23T08:54:51.000Z</time>
      </trkpt>
      <trkpt lat="45.83472" lon="4.67561">
        <ele>297.58389</ele>
        <time>2023-11-23T08:54:52.000Z</time>
      </trkpt>
      <trkpt lat="45.83469" lon="4.67559">
        <ele>297.67462</ele>
        <time>2023-11-23T08:54:53.000Z</time>
      </trkpt>
      <trkpt lat="45.83465" lon="4.67558">
        <ele>297.78806</ele>
        <time>2023-11-23T08:54:54.000Z</time>
      </trkpt>
      <trkpt lat="45.83461" lon="4.67555">
        <ele>297.93613</ele>
        <time>2023-11-23T08:54:55.000Z</time>
      </trkpt>
      <trkpt lat="45.83458" lon="4.67554">
        <ele>298.10724</ele>
        <time>2023-11-23T08:54:56.000Z</time>
      </trkpt>
      <trkpt lat="45.83454" lon="4.67552">
        <ele>298.26813</ele>
        <time>2023-11-23T08:54:57.000Z</time>
      </trkpt>
      <trkpt lat="45.83451" lon="4.67551">
        <ele>298.42746</ele>
        <time>2023-11-23T08:54:58.000Z</time>
      </trkpt>
      <trkpt lat="45.83447" lon="4.67549">
        <ele>298.59601</ele>
        <time>2023-11-23T08:54:59.000Z</time>
      </trkpt>
      <trkpt lat="45.83443" lon="4.67547">
        <ele>298.74106</ele>
        <time>2023-11-23T08:55:00.000Z</time>
      </trkpt>
      <trkpt lat="45.83439" lon="4.67545">
        <ele>298.88687</ele>
        <time>2023-11-23T08:55:01.000Z</time>
      </trkpt>
      <trkpt lat="45.83436" lon="4.67542">
        <ele>299.01712</ele>
        <time>2023-11-23T08:55:02.000Z</time>
      </trkpt>
      <trkpt lat="45.83432" lon="4.6754">
        <ele>299.14441</ele>
        <time>2023-11-23T08:55:03.000Z</time>
      </trkpt>
      <trkpt lat="45.83428" lon="4.67538">
        <ele>299.25833</ele>
        <time>2023-11-23T08:55:04.000Z</time>
      </trkpt>
      <trkpt lat="45.83424" lon="4.67535">
        <ele>299.20605</ele>
        <time>2023-11-23T08:55:05.000Z</time>
      </trkpt>
      <trkpt lat="45.83421" lon="4.67533">
        <ele>299.05823</ele>
        <time>2023-11-23T08:55:06.000Z</time>
      </trkpt>
      <trkpt lat="45.83418" lon="4.67531">
        <ele>298.88358</ele>
        <time>2023-11-23T08:55:07.000Z</time>
      </trkpt>
      <trkpt lat="45.83415" lon="4.67529">
        <ele>298.61023</ele>
        <time>2023-11-23T08:55:08.000Z</time>
      </trkpt>
      <trkpt lat="45.83412" lon="4.67526">
        <ele>298.64261</ele>
        <time>2023-11-23T08:55:09.000Z</time>
      </trkpt>
      <trkpt lat="45.83409" lon="4.67524">
        <ele>298.60712</ele>
        <time>2023-11-23T08:55:10.000Z</time>
      </trkpt>
      <trkpt lat="45.83406" lon="4.67523">
        <ele>298.58511</ele>
        <time>2023-11-23T08:55:11.000Z</time>
      </trkpt>
      <trkpt lat="45.83404" lon="4.67521">
        <ele>298.56683</ele>
        <time>2023-11-23T08:55:12.000Z</time>
      </trkpt>
      <trkpt lat="45.83401" lon="4.67519">
        <ele>298.54794</ele>
        <time>2023-11-23T08:55:13.000Z</time>
      </trkpt>
      <trkpt lat="45.83398" lon="4.67517">
        <ele>298.53769</ele>
        <time>2023-11-23T08:55:14.000Z</time>
      </trkpt>
      <trkpt lat="45.83396" lon="4.67515">
        <ele>298.48877</ele>
        <time>2023-11-23T08:55:15.000Z</time>
      </trkpt>
      <trkpt lat="45.83393" lon="4.67512">
        <ele>298.45477</ele>
        <time>2023-11-23T08:55:16.000Z</time>
      </trkpt>
      <trkpt lat="45.83391" lon="4.67509">
        <ele>298.43414</ele>
        <time>2023-11-23T08:55:17.000Z</time>
      </trkpt>
      <trkpt lat="45.83388" lon="4.67506">
        <ele>298.41806</ele>
        <time>2023-11-23T08:55:18.000Z</time>
      </trkpt>
      <trkpt lat="45.83386" lon="4.67503">
        <ele>298.41193</ele>
        <time>2023-11-23T08:55:19.000Z</time>
      </trkpt>
      <trkpt lat="45.83384" lon="4.675">
        <ele>298.43509</ele>
        <time>2023-11-23T08:55:20.000Z</time>
      </trkpt>
      <trkpt lat="45.83381" lon="4.67497">
        <ele>298.44611</ele>
        <time>2023-11-23T08:55:21.000Z</time>
      </trkpt>
      <trkpt lat="45.83379" lon="4.67493">
        <ele>298.42767</ele>
        <time>2023-11-23T08:55:22.000Z</time>
      </trkpt>
      <trkpt lat="45.83378" lon="4.67489">
        <ele>298.42072</ele>
        <time>2023-11-23T08:55:23.000Z</time>
      </trkpt>
      <trkpt lat="45.83376" lon="4.67486">
        <ele>298.42441</ele>
        <time>2023-11-23T08:55:24.000Z</time>
      </trkpt>
      <trkpt lat="45.83375" lon="4.67482">
        <ele>298.46103</ele>
        <time>2023-11-23T08:55:25.000Z</time>
      </trkpt>
      <trkpt lat="45.83373" lon="4.67478">
        <ele>298.52182</ele>
        <time>2023-11-23T08:55:26.000Z</time>
      </trkpt>
      <trkpt lat="45.83371" lon="4.67474">
        <ele>298.58713</ele>
        <time>2023-11-23T08:55:27.000Z</time>
      </trkpt>
      <trkpt lat="45.8337" lon="4.6747">
        <ele>298.65436</ele>
        <time>2023-11-23T08:55:28.000Z</time>
      </trkpt>
      <trkpt lat="45.83368" lon="4.67467">
        <ele>298.73123</ele>
        <time>2023-11-23T08:55:29.000Z</time>
      </trkpt>
      <trkpt lat="45.83366" lon="4.67463">
        <ele>298.87003</ele>
        <time>2023-11-23T08:55:30.000Z</time>
      </trkpt>
      <trkpt lat="45.83365" lon="4.6746">
        <ele>298.97266</ele>
        <time>2023-11-23T08:55:31.000Z</time>
      </trkpt>
      <trkpt lat="45.83363" lon="4.67456">
        <ele>299.20337</ele>
        <time>2023-11-23T08:55:32.000Z</time>
      </trkpt>
      <trkpt lat="45.83361" lon="4.67452">
        <ele>299.4465</ele>
        <time>2023-11-23T08:55:33.000Z</time>
      </trkpt>
      <trkpt lat="45.8336" lon="4.67449">
        <ele>299.64197</ele>
        <time>2023-11-23T08:55:34.000Z</time>
      </trkpt>
      <trkpt lat="45.83358" lon="4.67446">
        <ele>299.95721</ele>
        <time>2023-11-23T08:55:35.000Z</time>
      </trkpt>
      <trkpt lat="45.83356" lon="4.67442">
        <ele>300.23309</ele>
        <time>2023-11-23T08:55:36.000Z</time>
      </trkpt>
      <trkpt lat="45.83355" lon="4.67439">
        <ele>300.28046</ele>
        <time>2023-11-23T08:55:37.000Z</time>
      </trkpt>
      <trkpt lat="45.83353" lon="4.67435">
        <ele>300.36917</ele>
        <time>2023-11-23T08:55:38.000Z</time>
      </trkpt>
      <trkpt lat="45.83351" lon="4.67432">
        <ele>300.46466</ele>
        <time>2023-11-23T08:55:39.000Z</time>
      </trkpt>
      <trkpt lat="45.83349" lon="4.67429">
        <ele>300.53873</ele>
        <time>2023-11-23T08:55:40.000Z</time>
      </trkpt>
      <trkpt lat="45.83346" lon="4.67426">
        <ele>300.63864</ele>
        <time>2023-11-23T08:55:41.000Z</time>
      </trkpt>
      <trkpt lat="45.83343" lon="4.67425">
        <ele>300.75232</ele>
        <time>2023-11-23T08:55:42.000Z</time>
      </trkpt>
      <trkpt lat="45.8334" lon="4.67425">
        <ele>300.8447</ele>
        <time>2023-11-23T08:55:43.000Z</time>
      </trkpt>
      <trkpt lat="45.83337" lon="4.67425">
        <ele>300.95074</ele>
        <time>2023-11-23T08:55:44.000Z</time>
      </trkpt>
      <trkpt lat="45.83334" lon="4.67425">
        <ele>301.05533</ele>
        <time>2023-11-23T08:55:45.000Z</time>
      </trkpt>
      <trkpt lat="45.83331" lon="4.67426">
        <ele>301.0975</ele>
        <time>2023-11-23T08:55:46.000Z</time>
      </trkpt>
      <trkpt lat="45.83327" lon="4.67426">
        <ele>301.08746</ele>
        <time>2023-11-23T08:55:47.000Z</time>
      </trkpt>
      <trkpt lat="45.83324" lon="4.67425">
        <ele>301.04117</ele>
        <time>2023-11-23T08:55:48.000Z</time>
      </trkpt>
      <trkpt lat="45.83321" lon="4.67425">
        <ele>301.00339</ele>
        <time>2023-11-23T08:55:49.000Z</time>
      </trkpt>
      <trkpt lat="45.83317" lon="4.67425">
        <ele>300.91998</ele>
        <time>2023-11-23T08:55:50.000Z</time>
      </trkpt>
      <trkpt lat="45.83313" lon="4.67425">
        <ele>300.82742</ele>
        <time>2023-11-23T08:55:51.000Z</time>
      </trkpt>
      <trkpt lat="45.8331" lon="4.67425">
        <ele>300.63293</ele>
        <time>2023-11-23T08:55:52.000Z</time>
      </trkpt>
      <trkpt lat="45.83306" lon="4.67426">
        <ele>300.42755</ele>
        <time>2023-11-23T08:55:53.000Z</time>
      </trkpt>
      <trkpt lat="45.83302" lon="4.67426">
        <ele>300.22427</ele>
        <time>2023-11-23T08:55:54.000Z</time>
      </trkpt>
      <trkpt lat="45.83298" lon="4.67426">
        <ele>299.89542</ele>
        <time>2023-11-23T08:55:55.000Z</time>
      </trkpt>
      <trkpt lat="45.83293" lon="4.67426">
        <ele>299.53418</ele>
        <time>2023-11-23T08:55:56.000Z</time>
      </trkpt>
      <trkpt lat="45.83289" lon="4.67426">
        <ele>299.38309</ele>
        <time>2023-11-23T08:55:57.000Z</time>
      </trkpt>
      <trkpt lat="45.83285" lon="4.67426">
        <ele>299.17072</ele>
        <time>2023-11-23T08:55:58.000Z</time>
      </trkpt>
      <trkpt lat="45.83281" lon="4.67426">
        <ele>298.94366</ele>
        <time>2023-11-23T08:55:59.000Z</time>
      </trkpt>
      <trkpt lat="45.83276" lon="4.67426">
        <ele>298.64914</ele>
        <time>2023-11-23T08:56:00.000Z</time>
      </trkpt>
      <trkpt lat="45.83272" lon="4.67426">
        <ele>298.53629</ele>
        <time>2023-11-23T08:56:01.000Z</time>
      </trkpt>
      <trkpt lat="45.83265" lon="4.67425">
        <ele>298.40765</ele>
        <time>2023-11-23T08:56:02.000Z</time>
      </trkpt>
      <trkpt lat="45.83261" lon="4.67421">
        <ele>298.28458</ele>
        <time>2023-11-23T08:56:03.000Z</time>
      </trkpt>
      <trkpt lat="45.83258" lon="4.67414">
        <ele>298.12643</ele>
        <time>2023-11-23T08:56:04.000Z</time>
      </trkpt>
      <trkpt lat="45.83255" lon="4.67409">
        <ele>297.94427</ele>
        <time>2023-11-23T08:56:05.000Z</time>
      </trkpt>
      <trkpt lat="45.83252" lon="4.67403">
        <ele>297.79459</ele>
        <time>2023-11-23T08:56:06.000Z</time>
      </trkpt>
      <trkpt lat="45.83249" lon="4.67397">
        <ele>297.68686</ele>
        <time>2023-11-23T08:56:07.000Z</time>
      </trkpt>
      <trkpt lat="45.83245" lon="4.67392">
        <ele>297.62674</ele>
        <time>2023-11-23T08:56:08.000Z</time>
      </trkpt>
      <trkpt lat="45.83242" lon="4.67388">
        <ele>297.54233</ele>
        <time>2023-11-23T08:56:09.000Z</time>
      </trkpt>
      <trkpt lat="45.83238" lon="4.67386">
        <ele>297.45947</ele>
        <time>2023-11-23T08:56:10.000Z</time>
      </trkpt>
      <trkpt lat="45.83235" lon="4.67385">
        <ele>297.39716</ele>
        <time>2023-11-23T08:56:11.000Z</time>
      </trkpt>
      <trkpt lat="45.8323" lon="4.67387">
        <ele>297.32507</ele>
        <time>2023-11-23T08:56:12.000Z</time>
      </trkpt>
      <trkpt lat="45.83226" lon="4.67388">
        <ele>297.27869</ele>
        <time>2023-11-23T08:56:13.000Z</time>
      </trkpt>
      <trkpt lat="45.83222" lon="4.67392">
        <ele>297.22769</ele>
        <time>2023-11-23T08:56:14.000Z</time>
      </trkpt>
      <trkpt lat="45.83217" lon="4.67397">
        <ele>297.17429</ele>
        <time>2023-11-23T08:56:15.000Z</time>
      </trkpt>
      <trkpt lat="45.83212" lon="4.67401">
        <ele>297.12964</ele>
        <time>2023-11-23T08:56:16.000Z</time>
      </trkpt>
      <trkpt lat="45.83207" lon="4.67408">
        <ele>297.09991</ele>
        <time>2023-11-23T08:56:17.000Z</time>
      </trkpt>
      <trkpt lat="45.83201" lon="4.67414">
        <ele>297.07007</ele>
        <time>2023-11-23T08:56:18.000Z</time>
      </trkpt>
      <trkpt lat="45.83195" lon="4.6742">
        <ele>296.66812</ele>
        <time>2023-11-23T08:56:19.000Z</time>
      </trkpt>
      <trkpt lat="45.83189" lon="4.67426">
        <ele>296.45648</ele>
        <time>2023-11-23T08:56:20.000Z</time>
      </trkpt>
      <trkpt lat="45.83182" lon="4.67429">
        <ele>296.00833</ele>
        <time>2023-11-23T08:56:21.000Z</time>
      </trkpt>
      <trkpt lat="45.83173" lon="4.67432">
        <ele>295.5434</ele>
        <time>2023-11-23T08:56:22.000Z</time>
      </trkpt>
      <trkpt lat="45.83166" lon="4.67436">
        <ele>295.06348</ele>
        <time>2023-11-23T08:56:23.000Z</time>
      </trkpt>
      <trkpt lat="45.83159" lon="4.67439">
        <ele>294.58514</ele>
        <time>2023-11-23T08:56:24.000Z</time>
      </trkpt>
      <trkpt lat="45.83152" lon="4.67442">
        <ele>294.10367</ele>
        <time>2023-11-23T08:56:25.000Z</time>
      </trkpt>
      <trkpt lat="45.83148" lon="4.67446">
        <ele>293.62415</ele>
        <time>2023-11-23T08:56:26.000Z</time>
      </trkpt>
      <trkpt lat="45.83145" lon="4.67448">
        <ele>293.16299</ele>
        <time>2023-11-23T08:56:27.000Z</time>
      </trkpt>
      <trkpt lat="45.83141" lon="4.67451">
        <ele>292.68652</ele>
        <time>2023-11-23T08:56:28.000Z</time>
      </trkpt>
      <trkpt lat="45.83141" lon="4.67454">
        <ele>292.14709</ele>
        <time>2023-11-23T08:56:29.000Z</time>
      </trkpt>
      <trkpt lat="45.83142" lon="4.67459">
        <ele>291.66544</ele>
        <time>2023-11-23T08:56:30.000Z</time>
      </trkpt>
      <trkpt lat="45.83143" lon="4.67462">
        <ele>291.15378</ele>
        <time>2023-11-23T08:56:31.000Z</time>
      </trkpt>
      <trkpt lat="45.83145" lon="4.67466">
        <ele>290.56</ele>
        <time>2023-11-23T08:56:32.000Z</time>
      </trkpt>
      <trkpt lat="45.83148" lon="4.67468">
        <ele>289.91635</ele>
        <time>2023-11-23T08:56:33.000Z</time>
      </trkpt>
      <trkpt lat="45.83153" lon="4.67469">
        <ele>289.3299</ele>
        <time>2023-11-23T08:56:34.000Z</time>
      </trkpt>
      <trkpt lat="45.83156" lon="4.67468">
        <ele>288.77057</ele>
        <time>2023-11-23T08:56:35.000Z</time>
      </trkpt>
      <trkpt lat="45.8316" lon="4.67467">
        <ele>288.25552</ele>
        <time>2023-11-23T08:56:36.000Z</time>
      </trkpt>
      <trkpt lat="45.83164" lon="4.67467">
        <ele>287.77997</ele>
        <time>2023-11-23T08:56:37.000Z</time>
      </trkpt>
      <trkpt lat="45.83167" lon="4.67467">
        <ele>287.30768</ele>
        <time>2023-11-23T08:56:38.000Z</time>
      </trkpt>
      <trkpt lat="45.83171" lon="4.67469">
        <ele>287.23566</ele>
        <time>2023-11-23T08:56:39.000Z</time>
      </trkpt>
      <trkpt lat="45.83175" lon="4.67472">
        <ele>287.04745</ele>
        <time>2023-11-23T08:56:40.000Z</time>
      </trkpt>
      <trkpt lat="45.83179" lon="4.67476">
        <ele>286.91992</ele>
        <time>2023-11-23T08:56:41.000Z</time>
      </trkpt>
      <trkpt lat="45.83183" lon="4.6748">
        <ele>286.82758</ele>
        <time>2023-11-23T08:56:42.000Z</time>
      </trkpt>
      <trkpt lat="45.83187" lon="4.67485">
        <ele>286.79108</ele>
        <time>2023-11-23T08:56:43.000Z</time>
      </trkpt>
      <trkpt lat="45.8319" lon="4.6749">
        <ele>286.97522</ele>
        <time>2023-11-23T08:56:44.000Z</time>
      </trkpt>
      <trkpt lat="45.83194" lon="4.67496">
        <ele>287.28238</ele>
        <time>2023-11-23T08:56:45.000Z</time>
      </trkpt>
      <trkpt lat="45.83197" lon="4.67502">
        <ele>287.66382</ele>
        <time>2023-11-23T08:56:46.000Z</time>
      </trkpt>
      <trkpt lat="45.832" lon="4.67505">
        <ele>287.63828</ele>
        <time>2023-11-23T08:56:47.000Z</time>
      </trkpt>
      <trkpt lat="45.83204" lon="4.67507">
        <ele>287.6076</ele>
        <time>2023-11-23T08:56:48.000Z</time>
      </trkpt>
      <trkpt lat="45.83208" lon="4.67509">
        <ele>287.70346</ele>
        <time>2023-11-23T08:56:49.000Z</time>
      </trkpt>
      <trkpt lat="45.83214" lon="4.67515">
        <ele>287.69672</ele>
        <time>2023-11-23T08:56:50.000Z</time>
      </trkpt>
      <trkpt lat="45.83218" lon="4.67517">
        <ele>287.69864</ele>
        <time>2023-11-23T08:56:51.000Z</time>
      </trkpt>
      <trkpt lat="45.83222" lon="4.67519">
        <ele>287.75281</ele>
        <time>2023-11-23T08:56:52.000Z</time>
      </trkpt>
      <trkpt lat="45.83227" lon="4.67522">
        <ele>288.05975</ele>
        <time>2023-11-23T08:56:53.000Z</time>
      </trkpt>
      <trkpt lat="45.83231" lon="4.67526">
        <ele>288.3172</ele>
        <time>2023-11-23T08:56:54.000Z</time>
      </trkpt>
      <trkpt lat="45.83235" lon="4.67529">
        <ele>288.53772</ele>
        <time>2023-11-23T08:56:55.000Z</time>
      </trkpt>
      <trkpt lat="45.83238" lon="4.67535">
        <ele>288.78467</ele>
        <time>2023-11-23T08:56:56.000Z</time>
      </trkpt>
      <trkpt lat="45.83241" lon="4.6754">
        <ele>289.15256</ele>
        <time>2023-11-23T08:56:57.000Z</time>
      </trkpt>
      <trkpt lat="45.83243" lon="4.67544">
        <ele>289.40442</ele>
        <time>2023-11-23T08:56:58.000Z</time>
      </trkpt>
      <trkpt lat="45.83243" lon="4.67551">
        <ele>289.629</ele>
        <time>2023-11-23T08:56:59.000Z</time>
      </trkpt>
      <trkpt lat="45.83244" lon="4.67558">
        <ele>289.83624</ele>
        <time>2023-11-23T08:57:00.000Z</time>
      </trkpt>
      <trkpt lat="45.83243" lon="4.67564">
        <ele>289.99857</ele>
        <time>2023-11-23T08:57:01.000Z</time>
      </trkpt>
      <trkpt lat="45.83243" lon="4.6757">
        <ele>290.15997</ele>
        <time>2023-11-23T08:57:02.000Z</time>
      </trkpt>
      <trkpt lat="45.83242" lon="4.67578">
        <ele>290.27533</ele>
        <time>2023-11-23T08:57:03.000Z</time>
      </trkpt>
      <trkpt lat="45.83241" lon="4.67586">
        <ele>290.18222</ele>
        <time>2023-11-23T08:57:04.000Z</time>
      </trkpt>
      <trkpt lat="45.83239" lon="4.67595">
        <ele>290.10712</ele>
        <time>2023-11-23T08:57:05.000Z</time>
      </trkpt>
      <trkpt lat="45.83239" lon="4.67603">
        <ele>289.98022</ele>
        <time>2023-11-23T08:57:06.000Z</time>
      </trkpt>
      <trkpt lat="45.83239" lon="4.6761">
        <ele>289.78513</ele>
        <time>2023-11-23T08:57:07.000Z</time>
      </trkpt>
      <trkpt lat="45.83241" lon="4.67616">
        <ele>289.67731</ele>
        <time>2023-11-23T08:57:08.000Z</time>
      </trkpt>
      <trkpt lat="45.83244" lon="4.67622">
        <ele>289.52448</ele>
        <time>2023-11-23T08:57:09.000Z</time>
      </trkpt>
      <trkpt lat="45.83248" lon="4.67626">
        <ele>289.43677</ele>
        <time>2023-11-23T08:57:10.000Z</time>
      </trkpt>
      <trkpt lat="45.83253" lon="4.6763">
        <ele>289.36407</ele>
        <time>2023-11-23T08:57:11.000Z</time>
      </trkpt>
      <trkpt lat="45.83258" lon="4.67632">
        <ele>289.27814</ele>
        <time>2023-11-23T08:57:12.000Z</time>
      </trkpt>
      <trkpt lat="45.83262" lon="4.67632">
        <ele>288.98175</ele>
        <time>2023-11-23T08:57:13.000Z</time>
      </trkpt>
      <trkpt lat="45.83267" lon="4.67634">
        <ele>288.69208</ele>
        <time>2023-11-23T08:57:14.000Z</time>
      </trkpt>
      <trkpt lat="45.83271" lon="4.67634">
        <ele>288.43555</ele>
        <time>2023-11-23T08:57:15.000Z</time>
      </trkpt>
      <trkpt lat="45.83274" lon="4.67634">
        <ele>288.15143</ele>
        <time>2023-11-23T08:57:16.000Z</time>
      </trkpt>
      <trkpt lat="45.83278" lon="4.67635">
        <ele>287.72757</ele>
        <time>2023-11-23T08:57:17.000Z</time>
      </trkpt>
      <trkpt lat="45.83282" lon="4.67636">
        <ele>287.4458</ele>
        <time>2023-11-23T08:57:18.000Z</time>
      </trkpt>
      <trkpt lat="45.83285" lon="4.67636">
        <ele>287.17029</ele>
        <time>2023-11-23T08:57:19.000Z</time>
      </trkpt>
      <trkpt lat="45.8329" lon="4.67637">
        <ele>286.93112</ele>
        <time>2023-11-23T08:57:20.000Z</time>
      </trkpt>
      <trkpt lat="45.83295" lon="4.67638">
        <ele>286.6781</ele>
        <time>2023-11-23T08:57:21.000Z</time>
      </trkpt>
      <trkpt lat="45.83299" lon="4.67639">
        <ele>286.41391</ele>
        <time>2023-11-23T08:57:22.000Z</time>
      </trkpt>
      <trkpt lat="45.83304" lon="4.67642">
        <ele>286.20587</ele>
        <time>2023-11-23T08:57:23.000Z</time>
      </trkpt>
      <trkpt lat="45.83308" lon="4.67643">
        <ele>286.0174</ele>
        <time>2023-11-23T08:57:24.000Z</time>
      </trkpt>
      <trkpt lat="45.83312" lon="4.67647">
        <ele>285.71625</ele>
        <time>2023-11-23T08:57:25.000Z</time>
      </trkpt>
      <trkpt lat="45.83317" lon="4.67649">
        <ele>285.38611</ele>
        <time>2023-11-23T08:57:26.000Z</time>
      </trkpt>
      <trkpt lat="45.83321" lon="4.67651">
        <ele>285.51944</ele>
        <time>2023-11-23T08:57:27.000Z</time>
      </trkpt>
      <trkpt lat="45.83326" lon="4.67653">
        <ele>285.5899</ele>
        <time>2023-11-23T08:57:28.000Z</time>
      </trkpt>
      <trkpt lat="45.83332" lon="4.67656">
        <ele>285.66418</ele>
        <time>2023-11-23T08:57:29.000Z</time>
      </trkpt>
      <trkpt lat="45.83336" lon="4.67659">
        <ele>285.73163</ele>
        <time>2023-11-23T08:57:30.000Z</time>
      </trkpt>
      <trkpt lat="45.8334" lon="4.67661">
        <ele>286.04355</ele>
        <time>2023-11-23T08:57:31.000Z</time>
      </trkpt>
      <trkpt lat="45.83345" lon="4.67664">
        <ele>286.33911</ele>
        <time>2023-11-23T08:57:32.000Z</time>
      </trkpt>
      <trkpt lat="45.83349" lon="4.67666">
        <ele>286.63373</ele>
        <time>2023-11-23T08:57:33.000Z</time>
      </trkpt>
      <trkpt lat="45.83354" lon="4.67669">
        <ele>287.04257</ele>
        <time>2023-11-23T08:57:34.000Z</time>
      </trkpt>
      <trkpt lat="45.83358" lon="4.67672">
        <ele>287.42783</ele>
        <time>2023-11-23T08:57:35.000Z</time>
      </trkpt>
      <trkpt lat="45.83362" lon="4.67674">
        <ele>287.78638</ele>
        <time>2023-11-23T08:57:36.000Z</time>
      </trkpt>
      <trkpt lat="45.83366" lon="4.67676">
        <ele>288.1116</ele>
        <time>2023-11-23T08:57:37.000Z</time>
      </trkpt>
      <trkpt lat="45.8337" lon="4.67678">
        <ele>287.96661</ele>
        <time>2023-11-23T08:57:38.000Z</time>
      </trkpt>
      <trkpt lat="45.83374" lon="4.6768">
        <ele>287.90613</ele>
        <time>2023-11-23T08:57:39.000Z</time>
      </trkpt>
      <trkpt lat="45.83379" lon="4.67682">
        <ele>287.80121</ele>
        <time>2023-11-23T08:57:40.000Z</time>
      </trkpt>
      <trkpt lat="45.83384" lon="4.67685">
        <ele>287.69846</ele>
        <time>2023-11-23T08:57:41.000Z</time>
      </trkpt>
      <trkpt lat="45.83389" lon="4.67689">
        <ele>287.61993</ele>
        <time>2023-11-23T08:57:42.000Z</time>
      </trkpt>
      <trkpt lat="45.83394" lon="4.67692">
        <ele>287.51663</ele>
        <time>2023-11-23T08:57:43.000Z</time>
      </trkpt>
      <trkpt lat="45.83399" lon="4.67695">
        <ele>287.41241</ele>
        <time>2023-11-23T08:57:44.000Z</time>
      </trkpt>
      <trkpt lat="45.83403" lon="4.67698">
        <ele>287.28857</ele>
        <time>2023-11-23T08:57:45.000Z</time>
      </trkpt>
      <trkpt lat="45.83407" lon="4.67701">
        <ele>287.17868</ele>
        <time>2023-11-23T08:57:46.000Z</time>
      </trkpt>
      <trkpt lat="45.83411" lon="4.67704">
        <ele>287.05426</ele>
        <time>2023-11-23T08:57:47.000Z</time>
      </trkpt>
      <trkpt lat="45.83415" lon="4.67706">
        <ele>286.8985</ele>
        <time>2023-11-23T08:57:48.000Z</time>
      </trkpt>
      <trkpt lat="45.83419" lon="4.6771">
        <ele>286.73398</ele>
        <time>2023-11-23T08:57:49.000Z</time>
      </trkpt>
      <trkpt lat="45.83423" lon="4.67714">
        <ele>286.58624</ele>
        <time>2023-11-23T08:57:50.000Z</time>
      </trkpt>
      <trkpt lat="45.83426" lon="4.67719">
        <ele>286.20923</ele>
        <time>2023-11-23T08:57:51.000Z</time>
      </trkpt>
      <trkpt lat="45.8343" lon="4.67724">
        <ele>286.07767</ele>
        <time>2023-11-23T08:57:52.000Z</time>
      </trkpt>
      <trkpt lat="45.83432" lon="4.67728">
        <ele>285.99533</ele>
        <time>2023-11-23T08:57:53.000Z</time>
      </trkpt>
      <trkpt lat="45.83434" lon="4.67733">
        <ele>285.91336</ele>
        <time>2023-11-23T08:57:54.000Z</time>
      </trkpt>
      <trkpt lat="45.83436" lon="4.6774">
        <ele>285.8584</ele>
        <time>2023-11-23T08:57:55.000Z</time>
      </trkpt>
      <trkpt lat="45.83437" lon="4.67746">
        <ele>285.82779</ele>
        <time>2023-11-23T08:57:56.000Z</time>
      </trkpt>
      <trkpt lat="45.83438" lon="4.67753">
        <ele>285.33917</ele>
        <time>2023-11-23T08:57:57.000Z</time>
      </trkpt>
      <trkpt lat="45.83438" lon="4.67759">
        <ele>285.39355</ele>
        <time>2023-11-23T08:57:58.000Z</time>
      </trkpt>
      <trkpt lat="45.83439" lon="4.67765">
        <ele>285.38214</ele>
        <time>2023-11-23T08:57:59.000Z</time>
      </trkpt>
      <trkpt lat="45.8344" lon="4.67773">
        <ele>285.38684</ele>
        <time>2023-11-23T08:58:00.000Z</time>
      </trkpt>
      <trkpt lat="45.83441" lon="4.67781">
        <ele>285.39996</ele>
        <time>2023-11-23T08:58:01.000Z</time>
      </trkpt>
      <trkpt lat="45.83442" lon="4.67787">
        <ele>285.38574</ele>
        <time>2023-11-23T08:58:02.000Z</time>
      </trkpt>
      <trkpt lat="45.83444" lon="4.67794">
        <ele>285.32535</ele>
        <time>2023-11-23T08:58:03.000Z</time>
      </trkpt>
      <trkpt lat="45.83447" lon="4.67799">
        <ele>285.23468</ele>
        <time>2023-11-23T08:58:04.000Z</time>
      </trkpt>
      <trkpt lat="45.8345" lon="4.67804">
        <ele>285.35663</ele>
        <time>2023-11-23T08:58:05.000Z</time>
      </trkpt>
      <trkpt lat="45.83454" lon="4.67808">
        <ele>285.61172</ele>
        <time>2023-11-23T08:58:06.000Z</time>
      </trkpt>
      <trkpt lat="45.83459" lon="4.67812">
        <ele>285.37518</ele>
        <time>2023-11-23T08:58:07.000Z</time>
      </trkpt>
      <trkpt lat="45.83462" lon="4.67813">
        <ele>285.26135</ele>
        <time>2023-11-23T08:58:08.000Z</time>
      </trkpt>
      <trkpt lat="45.83467" lon="4.67814">
        <ele>285.16071</ele>
        <time>2023-11-23T08:58:09.000Z</time>
      </trkpt>
      <trkpt lat="45.83472" lon="4.67815">
        <ele>285.14008</ele>
        <time>2023-11-23T08:58:10.000Z</time>
      </trkpt>
      <trkpt lat="45.83476" lon="4.67816">
        <ele>285.13507</ele>
        <time>2023-11-23T08:58:11.000Z</time>
      </trkpt>
      <trkpt lat="45.8348" lon="4.67817">
        <ele>284.92407</ele>
        <time>2023-11-23T08:58:12.000Z</time>
      </trkpt>
      <trkpt lat="45.83482" lon="4.67819">
        <ele>285.13635</ele>
        <time>2023-11-23T08:58:13.000Z</time>
      </trkpt>
      <trkpt lat="45.83487" lon="4.67822">
        <ele>284.81195</ele>
        <time>2023-11-23T08:58:14.000Z</time>
      </trkpt>
      <trkpt lat="45.83491" lon="4.67825">
        <ele>284.41684</ele>
        <time>2023-11-23T08:58:15.000Z</time>
      </trkpt>
      <trkpt lat="45.83495" lon="4.67829">
        <ele>284.04996</ele>
        <time>2023-11-23T08:58:16.000Z</time>
      </trkpt>
      <trkpt lat="45.83498" lon="4.67831">
        <ele>284.1828</ele>
        <time>2023-11-23T08:58:17.000Z</time>
      </trkpt>
      <trkpt lat="45.83501" lon="4.67835">
        <ele>284.21875</ele>
        <time>2023-11-23T08:58:18.000Z</time>
      </trkpt>
      <trkpt lat="45.83505" lon="4.67838">
        <ele>284.23792</ele>
        <time>2023-11-23T08:58:19.000Z</time>
      </trkpt>
      <trkpt lat="45.83508" lon="4.67841">
        <ele>284.48679</ele>
        <time>2023-11-23T08:58:20.000Z</time>
      </trkpt>
      <trkpt lat="45.83512" lon="4.67845">
        <ele>284.72394</ele>
        <time>2023-11-23T08:58:21.000Z</time>
      </trkpt>
      <trkpt lat="45.83515" lon="4.67849">
        <ele>285.12408</ele>
        <time>2023-11-23T08:58:22.000Z</time>
      </trkpt>
      <trkpt lat="45.83519" lon="4.67854">
        <ele>285.56369</ele>
        <time>2023-11-23T08:58:23.000Z</time>
      </trkpt>
      <trkpt lat="45.83523" lon="4.6786">
        <ele>285.5596</ele>
        <time>2023-11-23T08:58:24.000Z</time>
      </trkpt>
      <trkpt lat="45.83526" lon="4.67864">
        <ele>285.42783</ele>
        <time>2023-11-23T08:58:25.000Z</time>
      </trkpt>
      <trkpt lat="45.8353" lon="4.6787">
        <ele>285.16559</ele>
        <time>2023-11-23T08:58:26.000Z</time>
      </trkpt>
      <trkpt lat="45.83533" lon="4.67875">
        <ele>285.41388</ele>
        <time>2023-11-23T08:58:27.000Z</time>
      </trkpt>
      <trkpt lat="45.83537" lon="4.67882">
        <ele>285.53122</ele>
        <time>2023-11-23T08:58:28.000Z</time>
      </trkpt>
      <trkpt lat="45.8354" lon="4.67888">
        <ele>285.64096</ele>
        <time>2023-11-23T08:58:29.000Z</time>
      </trkpt>
      <trkpt lat="45.83544" lon="4.67894">
        <ele>285.62238</ele>
        <time>2023-11-23T08:58:30.000Z</time>
      </trkpt>
      <trkpt lat="45.83548" lon="4.67898">
        <ele>285.60284</ele>
        <time>2023-11-23T08:58:31.000Z</time>
      </trkpt>
      <trkpt lat="45.83552" lon="4.67902">
        <ele>285.57822</ele>
        <time>2023-11-23T08:58:32.000Z</time>
      </trkpt>
      <trkpt lat="45.83555" lon="4.67906">
        <ele>285.10696</ele>
        <time>2023-11-23T08:58:33.000Z</time>
      </trkpt>
      <trkpt lat="45.8356" lon="4.67912">
        <ele>285.0087</ele>
        <time>2023-11-23T08:58:34.000Z</time>
      </trkpt>
      <trkpt lat="45.83564" lon="4.67916">
        <ele>285.19644</ele>
        <time>2023-11-23T08:58:35.000Z</time>
      </trkpt>
      <trkpt lat="45.83569" lon="4.67918">
        <ele>285.30817</ele>
        <time>2023-11-23T08:58:36.000Z</time>
      </trkpt>
      <trkpt lat="45.83572" lon="4.67922">
        <ele>285.4126</ele>
        <time>2023-11-23T08:58:37.000Z</time>
      </trkpt>
      <trkpt lat="45.83577" lon="4.67924">
        <ele>285.52347</ele>
        <time>2023-11-23T08:58:38.000Z</time>
      </trkpt>
      <trkpt lat="45.83582" lon="4.67928">
        <ele>285.64963</ele>
        <time>2023-11-23T08:58:39.000Z</time>
      </trkpt>
      <trkpt lat="45.83585" lon="4.6793">
        <ele>285.58032</ele>
        <time>2023-11-23T08:58:40.000Z</time>
      </trkpt>
      <trkpt lat="45.8359" lon="4.67934">
        <ele>285.55209</ele>
        <time>2023-11-23T08:58:41.000Z</time>
      </trkpt>
      <trkpt lat="45.83595" lon="4.67938">
        <ele>285.36334</ele>
        <time>2023-11-23T08:58:42.000Z</time>
      </trkpt>
      <trkpt lat="45.83599" lon="4.67941">
        <ele>285.17993</ele>
        <time>2023-11-23T08:58:43.000Z</time>
      </trkpt>
      <trkpt lat="45.83603" lon="4.67946">
        <ele>285.45825</ele>
        <time>2023-11-23T08:58:44.000Z</time>
      </trkpt>
      <trkpt lat="45.83607" lon="4.67949">
        <ele>285.65375</ele>
        <time>2023-11-23T08:58:45.000Z</time>
      </trkpt>
      <trkpt lat="45.83612" lon="4.67953">
        <ele>285.81982</ele>
        <time>2023-11-23T08:58:46.000Z</time>
      </trkpt>
      <trkpt lat="45.83617" lon="4.67957">
        <ele>285.96817</ele>
        <time>2023-11-23T08:58:47.000Z</time>
      </trkpt>
      <trkpt lat="45.83621" lon="4.6796">
        <ele>286.15927</ele>
        <time>2023-11-23T08:58:48.000Z</time>
      </trkpt>
      <trkpt lat="45.83626" lon="4.67965">
        <ele>286.33282</ele>
        <time>2023-11-23T08:58:49.000Z</time>
      </trkpt>
      <trkpt lat="45.83631" lon="4.67969">
        <ele>286.55334</ele>
        <time>2023-11-23T08:58:50.000Z</time>
      </trkpt>
      <trkpt lat="45.83634" lon="4.67973">
        <ele>286.75604</ele>
        <time>2023-11-23T08:58:51.000Z</time>
      </trkpt>
      <trkpt lat="45.83638" lon="4.67977">
        <ele>286.94086</ele>
        <time>2023-11-23T08:58:52.000Z</time>
      </trkpt>
      <trkpt lat="45.83642" lon="4.6798">
        <ele>287.11304</ele>
        <time>2023-11-23T08:58:53.000Z</time>
      </trkpt>
      <trkpt lat="45.83644" lon="4.67983">
        <ele>287.47992</ele>
        <time>2023-11-23T08:58:54.000Z</time>
      </trkpt>
      <trkpt lat="45.83648" lon="4.67988">
        <ele>287.62564</ele>
        <time>2023-11-23T08:58:55.000Z</time>
      </trkpt>
      <trkpt lat="45.83651" lon="4.67992">
        <ele>287.83865</ele>
        <time>2023-11-23T08:58:56.000Z</time>
      </trkpt>
      <trkpt lat="45.83655" lon="4.67997">
        <ele>287.56158</ele>
        <time>2023-11-23T08:58:57.000Z</time>
      </trkpt>
      <trkpt lat="45.83658" lon="4.68002">
        <ele>287.38922</ele>
        <time>2023-11-23T08:58:58.000Z</time>
      </trkpt>
      <trkpt lat="45.83661" lon="4.68006">
        <ele>287.22272</ele>
        <time>2023-11-23T08:58:59.000Z</time>
      </trkpt>
      <trkpt lat="45.83665" lon="4.68009">
        <ele>287.05835</ele>
        <time>2023-11-23T08:59:00.000Z</time>
      </trkpt>
      <trkpt lat="45.83669" lon="4.68013">
        <ele>286.87885</ele>
        <time>2023-11-23T08:59:01.000Z</time>
      </trkpt>
      <trkpt lat="45.83672" lon="4.68018">
        <ele>286.70148</ele>
        <time>2023-11-23T08:59:02.000Z</time>
      </trkpt>
      <trkpt lat="45.83675" lon="4.68022">
        <ele>286.50043</ele>
        <time>2023-11-23T08:59:03.000Z</time>
      </trkpt>
      <trkpt lat="45.83678" lon="4.68027">
        <ele>286.28445</ele>
        <time>2023-11-23T08:59:04.000Z</time>
      </trkpt>
      <trkpt lat="45.83681" lon="4.68032">
        <ele>286.05664</ele>
        <time>2023-11-23T08:59:05.000Z</time>
      </trkpt>
      <trkpt lat="45.83684" lon="4.68036">
        <ele>285.80344</ele>
        <time>2023-11-23T08:59:06.000Z</time>
      </trkpt>
      <trkpt lat="45.83687" lon="4.6804">
        <ele>285.54025</ele>
        <time>2023-11-23T08:59:07.000Z</time>
      </trkpt>
      <trkpt lat="45.8369" lon="4.68045">
        <ele>285.28836</ele>
        <time>2023-11-23T08:59:08.000Z</time>
      </trkpt>
      <trkpt lat="45.83693" lon="4.6805">
        <ele>285.01251</ele>
        <time>2023-11-23T08:59:09.000Z</time>
      </trkpt>
      <trkpt lat="45.83696" lon="4.68057">
        <ele>284.73932</ele>
        <time>2023-11-23T08:59:10.000Z</time>
      </trkpt>
      <trkpt lat="45.83697" lon="4.68065">
        <ele>284.50055</ele>
        <time>2023-11-23T08:59:11.000Z</time>
      </trkpt>
      <trkpt lat="45.83694" lon="4.68072">
        <ele>284.36053</ele>
        <time>2023-11-23T08:59:12.000Z</time>
      </trkpt>
      <trkpt lat="45.83692" lon="4.68077">
        <ele>284.19684</ele>
        <time>2023-11-23T08:59:13.000Z</time>
      </trkpt>
      <trkpt lat="45.83689" lon="4.68082">
        <ele>283.892</ele>
        <time>2023-11-23T08:59:14.000Z</time>
      </trkpt>
      <trkpt lat="45.83685" lon="4.68086">
        <ele>283.33047</ele>
        <time>2023-11-23T08:59:15.000Z</time>
      </trkpt>
      <trkpt lat="45.8368" lon="4.6809">
        <ele>282.79199</ele>
        <time>2023-11-23T08:59:16.000Z</time>
      </trkpt>
      <trkpt lat="45.83676" lon="4.68095">
        <ele>282.76062</ele>
        <time>2023-11-23T08:59:17.000Z</time>
      </trkpt>
      <trkpt lat="45.83673" lon="4.68098">
        <ele>282.76276</ele>
        <time>2023-11-23T08:59:18.000Z</time>
      </trkpt>
      <trkpt lat="45.83669" lon="4.68101">
        <ele>282.74057</ele>
        <time>2023-11-23T08:59:19.000Z</time>
      </trkpt>
      <trkpt lat="45.83666" lon="4.68105">
        <ele>282.71066</ele>
        <time>2023-11-23T08:59:20.000Z</time>
      </trkpt>
      <trkpt lat="45.83662" lon="4.6811">
        <ele>282.66602</ele>
        <time>2023-11-23T08:59:21.000Z</time>
      </trkpt>
      <trkpt lat="45.83659" lon="4.68115">
        <ele>282.62421</ele>
        <time>2023-11-23T08:59:22.000Z</time>
      </trkpt>
      <trkpt lat="45.83656" lon="4.68119">
        <ele>282.64899</ele>
        <time>2023-11-23T08:59:23.000Z</time>
      </trkpt>
      <trkpt lat="45.83652" lon="4.68125">
        <ele>282.72565</ele>
        <time>2023-11-23T08:59:24.000Z</time>
      </trkpt>
      <trkpt lat="45.83649" lon="4.6813">
        <ele>282.8425</ele>
        <time>2023-11-23T08:59:25.000Z</time>
      </trkpt>
      <trkpt lat="45.83645" lon="4.68135">
        <ele>283.02957</ele>
        <time>2023-11-23T08:59:26.000Z</time>
      </trkpt>
      <trkpt lat="45.83642" lon="4.6814">
        <ele>282.96234</ele>
        <time>2023-11-23T08:59:27.000Z</time>
      </trkpt>
      <trkpt lat="45.83638" lon="4.68146">
        <ele>282.88141</ele>
        <time>2023-11-23T08:59:28.000Z</time>
      </trkpt>
      <trkpt lat="45.83636" lon="4.68151">
        <ele>282.80331</ele>
        <time>2023-11-23T08:59:29.000Z</time>
      </trkpt>
      <trkpt lat="45.83633" lon="4.68156">
        <ele>282.73221</ele>
        <time>2023-11-23T08:59:30.000Z</time>
      </trkpt>
      <trkpt lat="45.8363" lon="4.68163">
        <ele>282.62936</ele>
        <time>2023-11-23T08:59:31.000Z</time>
      </trkpt>
      <trkpt lat="45.83627" lon="4.68169">
        <ele>282.42471</ele>
        <time>2023-11-23T08:59:32.000Z</time>
      </trkpt>
      <trkpt lat="45.83624" lon="4.68175">
        <ele>282.19888</ele>
        <time>2023-11-23T08:59:33.000Z</time>
      </trkpt>
      <trkpt lat="45.83621" lon="4.68182">
        <ele>281.98749</ele>
        <time>2023-11-23T08:59:34.000Z</time>
      </trkpt>
      <trkpt lat="45.83619" lon="4.68188">
        <ele>282.24908</ele>
        <time>2023-11-23T08:59:35.000Z</time>
      </trkpt>
      <trkpt lat="45.83616" lon="4.68195">
        <ele>282.21423</ele>
        <time>2023-11-23T08:59:36.000Z</time>
      </trkpt>
      <trkpt lat="45.83613" lon="4.68202">
        <ele>282.11523</ele>
        <time>2023-11-23T08:59:37.000Z</time>
      </trkpt>
      <trkpt lat="45.8361" lon="4.68208">
        <ele>281.87946</ele>
        <time>2023-11-23T08:59:38.000Z</time>
      </trkpt>
      <trkpt lat="45.83607" lon="4.68214">
        <ele>281.63617</ele>
        <time>2023-11-23T08:59:39.000Z</time>
      </trkpt>
      <trkpt lat="45.83605" lon="4.6822">
        <ele>281.39804</ele>
        <time>2023-11-23T08:59:40.000Z</time>
      </trkpt>
      <trkpt lat="45.83603" lon="4.68225">
        <ele>281.18027</ele>
        <time>2023-11-23T08:59:41.000Z</time>
      </trkpt>
      <trkpt lat="45.83601" lon="4.6823">
        <ele>281.01373</ele>
        <time>2023-11-23T08:59:42.000Z</time>
      </trkpt>
      <trkpt lat="45.836" lon="4.68236">
        <ele>281.04871</ele>
        <time>2023-11-23T08:59:43.000Z</time>
      </trkpt>
      <trkpt lat="45.83598" lon="4.68242">
        <ele>281.05264</ele>
        <time>2023-11-23T08:59:44.000Z</time>
      </trkpt>
      <trkpt lat="45.83596" lon="4.68247">
        <ele>280.78049</ele>
        <time>2023-11-23T08:59:45.000Z</time>
      </trkpt>
      <trkpt lat="45.83595" lon="4.68253">
        <ele>280.50708</ele>
        <time>2023-11-23T08:59:46.000Z</time>
      </trkpt>
      <trkpt lat="45.83594" lon="4.68259">
        <ele>280.53217</ele>
        <time>2023-11-23T08:59:47.000Z</time>
      </trkpt>
      <trkpt lat="45.83592" lon="4.68264">
        <ele>280.54901</ele>
        <time>2023-11-23T08:59:48.000Z</time>
      </trkpt>
      <trkpt lat="45.83591" lon="4.6827">
        <ele>280.60577</ele>
        <time>2023-11-23T08:59:49.000Z</time>
      </trkpt>
      <trkpt lat="45.8359" lon="4.68274">
        <ele>280.64801</ele>
        <time>2023-11-23T08:59:50.000Z</time>
      </trkpt>
      <trkpt lat="45.83589" lon="4.68279">
        <ele>280.69525</ele>
        <time>2023-11-23T08:59:51.000Z</time>
      </trkpt>
      <trkpt lat="45.83589" lon="4.68282">
        <ele>281.03827</ele>
        <time>2023-11-23T08:59:52.000Z</time>
      </trkpt>
      <trkpt lat="45.83589" lon="4.68286">
        <ele>281.40579</ele>
        <time>2023-11-23T08:59:53.000Z</time>
      </trkpt>
      <trkpt lat="45.83589" lon="4.68289">
        <ele>281.77637</ele>
        <time>2023-11-23T08:59:54.000Z</time>
      </trkpt>
      <trkpt lat="45.83589" lon="4.68292">
        <ele>281.96402</ele>
        <time>2023-11-23T08:59:55.000Z</time>
      </trkpt>
      <trkpt lat="45.83591" lon="4.68295">
        <ele>282.38757</ele>
        <time>2023-11-23T08:59:56.000Z</time>
      </trkpt>
      <trkpt lat="45.83593" lon="4.68297">
        <ele>282.82321</ele>
        <time>2023-11-23T08:59:57.000Z</time>
      </trkpt>
      <trkpt lat="45.83596" lon="4.683">
        <ele>283.23389</ele>
        <time>2023-11-23T08:59:58.000Z</time>
      </trkpt>
      <trkpt lat="45.83599" lon="4.68304">
        <ele>283.66241</ele>
        <time>2023-11-23T08:59:59.000Z</time>
      </trkpt>
      <trkpt lat="45.83602" lon="4.68308">
        <ele>284.06458</ele>
        <time>2023-11-23T09:00:00.000Z</time>
      </trkpt>
      <trkpt lat="45.83605" lon="4.68313">
        <ele>284.43793</ele>
        <time>2023-11-23T09:00:01.000Z</time>
      </trkpt>
      <trkpt lat="45.83608" lon="4.68317">
        <ele>284.75909</ele>
        <time>2023-11-23T09:00:02.000Z</time>
      </trkpt>
      <trkpt lat="45.83611" lon="4.68322">
        <ele>284.8475</ele>
        <time>2023-11-23T09:00:03.000Z</time>
      </trkpt>
      <trkpt lat="45.83614" lon="4.68327">
        <ele>284.95776</ele>
        <time>2023-11-23T09:00:04.000Z</time>
      </trkpt>
      <trkpt lat="45.83618" lon="4.68333">
        <ele>285.32379</ele>
        <time>2023-11-23T09:00:05.000Z</time>
      </trkpt>
      <trkpt lat="45.83621" lon="4.68337">
        <ele>285.66364</ele>
        <time>2023-11-23T09:00:06.000Z</time>
      </trkpt>
      <trkpt lat="45.83624" lon="4.68342">
        <ele>285.95782</ele>
        <time>2023-11-23T09:00:07.000Z</time>
      </trkpt>
      <trkpt lat="45.83626" lon="4.68347">
        <ele>286.21295</ele>
        <time>2023-11-23T09:00:08.000Z</time>
      </trkpt>
      <trkpt lat="45.83629" lon="4.68353">
        <ele>286.48856</ele>
        <time>2023-11-23T09:00:09.000Z</time>
      </trkpt>
      <trkpt lat="45.83632" lon="4.68358">
        <ele>286.76303</ele>
        <time>2023-11-23T09:00:10.000Z</time>
      </trkpt>
      <trkpt lat="45.83635" lon="4.68363">
        <ele>286.99713</ele>
        <time>2023-11-23T09:00:11.000Z</time>
      </trkpt>
      <trkpt lat="45.83637" lon="4.68368">
        <ele>286.95923</ele>
        <time>2023-11-23T09:00:12.000Z</time>
      </trkpt>
      <trkpt lat="45.83641" lon="4.68374">
        <ele>286.91852</ele>
        <time>2023-11-23T09:00:13.000Z</time>
      </trkpt>
      <trkpt lat="45.83644" lon="4.68379">
        <ele>286.74655</ele>
        <time>2023-11-23T09:00:14.000Z</time>
      </trkpt>
      <trkpt lat="45.83647" lon="4.68384">
        <ele>286.43274</ele>
        <time>2023-11-23T09:00:15.000Z</time>
      </trkpt>
      <trkpt lat="45.83649" lon="4.68389">
        <ele>286.1188</ele>
        <time>2023-11-23T09:00:16.000Z</time>
      </trkpt>
      <trkpt lat="45.83652" lon="4.68394">
        <ele>285.80362</ele>
        <time>2023-11-23T09:00:17.000Z</time>
      </trkpt>
      <trkpt lat="45.83655" lon="4.68399">
        <ele>285.64801</ele>
        <time>2023-11-23T09:00:18.000Z</time>
      </trkpt>
      <trkpt lat="45.83658" lon="4.68404">
        <ele>285.53128</ele>
        <time>2023-11-23T09:00:19.000Z</time>
      </trkpt>
      <trkpt lat="45.83662" lon="4.68409">
        <ele>285.46405</ele>
        <time>2023-11-23T09:00:20.000Z</time>
      </trkpt>
      <trkpt lat="45.83664" lon="4.68415">
        <ele>285.48947</ele>
        <time>2023-11-23T09:00:21.000Z</time>
      </trkpt>
      <trkpt lat="45.83667" lon="4.68419">
        <ele>285.22589</ele>
        <time>2023-11-23T09:00:22.000Z</time>
      </trkpt>
      <trkpt lat="45.8367" lon="4.68424">
        <ele>284.95093</ele>
        <time>2023-11-23T09:00:23.000Z</time>
      </trkpt>
      <trkpt lat="45.83671" lon="4.68429">
        <ele>284.64081</ele>
        <time>2023-11-23T09:00:24.000Z</time>
      </trkpt>
      <trkpt lat="45.83675" lon="4.68437">
        <ele>284.34711</ele>
        <time>2023-11-23T09:00:25.000Z</time>
      </trkpt>
      <trkpt lat="45.83678" lon="4.68443">
        <ele>284.08124</ele>
        <time>2023-11-23T09:00:26.000Z</time>
      </trkpt>
      <trkpt lat="45.83681" lon="4.68448">
        <ele>283.8313</ele>
        <time>2023-11-23T09:00:27.000Z</time>
      </trkpt>
      <trkpt lat="45.83684" lon="4.68452">
        <ele>283.59973</ele>
        <time>2023-11-23T09:00:28.000Z</time>
      </trkpt>
      <trkpt lat="45.83687" lon="4.68455">
        <ele>283.32376</ele>
        <time>2023-11-23T09:00:29.000Z</time>
      </trkpt>
      <trkpt lat="45.83689" lon="4.68458">
        <ele>283.04413</ele>
        <time>2023-11-23T09:00:30.000Z</time>
      </trkpt>
      <trkpt lat="45.83692" lon="4.68459">
        <ele>282.8046</ele>
        <time>2023-11-23T09:00:31.000Z</time>
      </trkpt>
      <trkpt lat="45.83695" lon="4.6846">
        <ele>282.5629</ele>
        <time>2023-11-23T09:00:32.000Z</time>
      </trkpt>
      <trkpt lat="45.83697" lon="4.68459">
        <ele>282.50211</ele>
        <time>2023-11-23T09:00:33.000Z</time>
      </trkpt>
      <trkpt lat="45.837" lon="4.68458">
        <ele>282.59808</ele>
        <time>2023-11-23T09:00:34.000Z</time>
      </trkpt>
      <trkpt lat="45.83702" lon="4.68456">
        <ele>282.5141</ele>
        <time>2023-11-23T09:00:35.000Z</time>
      </trkpt>
      <trkpt lat="45.83703" lon="4.68454">
        <ele>282.52411</ele>
        <time>2023-11-23T09:00:36.000Z</time>
      </trkpt>
      <trkpt lat="45.83704" lon="4.6845">
        <ele>282.58264</ele>
        <time>2023-11-23T09:00:37.000Z</time>
      </trkpt>
      <trkpt lat="45.83705" lon="4.68447">
        <ele>282.49213</ele>
        <time>2023-11-23T09:00:38.000Z</time>
      </trkpt>
      <trkpt lat="45.83707" lon="4.68443">
        <ele>282.33966</ele>
        <time>2023-11-23T09:00:39.000Z</time>
      </trkpt>
      <trkpt lat="45.83709" lon="4.68439">
        <ele>282.13727</ele>
        <time>2023-11-23T09:00:40.000Z</time>
      </trkpt>
      <trkpt lat="45.83711" lon="4.68435">
        <ele>281.85968</ele>
        <time>2023-11-23T09:00:41.000Z</time>
      </trkpt>
      <trkpt lat="45.83714" lon="4.68429">
        <ele>281.8569</ele>
        <time>2023-11-23T09:00:42.000Z</time>
      </trkpt>
      <trkpt lat="45.83716" lon="4.68424">
        <ele>281.84344</ele>
        <time>2023-11-23T09:00:43.000Z</time>
      </trkpt>
      <trkpt lat="45.83719" lon="4.68418">
        <ele>281.80243</ele>
        <time>2023-11-23T09:00:44.000Z</time>
      </trkpt>
      <trkpt lat="45.83723" lon="4.68411">
        <ele>281.67856</ele>
        <time>2023-11-23T09:00:45.000Z</time>
      </trkpt>
      <trkpt lat="45.83727" lon="4.68404">
        <ele>281.50668</ele>
        <time>2023-11-23T09:00:46.000Z</time>
      </trkpt>
      <trkpt lat="45.83731" lon="4.68397">
        <ele>281.32526</ele>
        <time>2023-11-23T09:00:47.000Z</time>
      </trkpt>
      <trkpt lat="45.83735" lon="4.68389">
        <ele>281.12827</ele>
        <time>2023-11-23T09:00:48.000Z</time>
      </trkpt>
      <trkpt lat="45.83739" lon="4.68381">
        <ele>280.9306</ele>
        <time>2023-11-23T09:00:49.000Z</time>
      </trkpt>
      <trkpt lat="45.83743" lon="4.68373">
        <ele>280.91626</ele>
        <time>2023-11-23T09:00:50.000Z</time>
      </trkpt>
      <trkpt lat="45.83748" lon="4.68365">
        <ele>280.91534</ele>
        <time>2023-11-23T09:00:51.000Z</time>
      </trkpt>
      <trkpt lat="45.83752" lon="4.68357">
        <ele>280.55392</ele>
        <time>2023-11-23T09:00:52.000Z</time>
      </trkpt>
      <trkpt lat="45.83757" lon="4.68349">
        <ele>280.04324</ele>
        <time>2023-11-23T09:00:53.000Z</time>
      </trkpt>
      <trkpt lat="45.83762" lon="4.68341">
        <ele>279.46326</ele>
        <time>2023-11-23T09:00:54.000Z</time>
      </trkpt>
      <trkpt lat="45.83767" lon="4.68332">
        <ele>279.1441</ele>
        <time>2023-11-23T09:00:55.000Z</time>
      </trkpt>
      <trkpt lat="45.83772" lon="4.68323">
        <ele>278.72809</ele>
        <time>2023-11-23T09:00:56.000Z</time>
      </trkpt>
      <trkpt lat="45.83778" lon="4.68313">
        <ele>278.25952</ele>
        <time>2023-11-23T09:00:57.000Z</time>
      </trkpt>
      <trkpt lat="45.83783" lon="4.68305">
        <ele>277.78745</ele>
        <time>2023-11-23T09:00:58.000Z</time>
      </trkpt>
      <trkpt lat="45.83788" lon="4.68296">
        <ele>277.28641</ele>
        <time>2023-11-23T09:00:59.000Z</time>
      </trkpt>
      <trkpt lat="45.83794" lon="4.68286">
        <ele>276.77829</ele>
        <time>2023-11-23T09:01:00.000Z</time>
      </trkpt>
      <trkpt lat="45.838" lon="4.68278">
        <ele>276.22845</ele>
        <time>2023-11-23T09:01:01.000Z</time>
      </trkpt>
      <trkpt lat="45.83806" lon="4.68271">
        <ele>275.69199</ele>
        <time>2023-11-23T09:01:02.000Z</time>
      </trkpt>
      <trkpt lat="45.83812" lon="4.68265">
        <ele>275.12155</ele>
        <time>2023-11-23T09:01:03.000Z</time>
      </trkpt>
      <trkpt lat="45.83818" lon="4.6826">
        <ele>274.7663</ele>
        <time>2023-11-23T09:01:04.000Z</time>
      </trkpt>
      <trkpt lat="45.83824" lon="4.68256">
        <ele>274.58688</ele>
        <time>2023-11-23T09:01:05.000Z</time>
      </trkpt>
      <trkpt lat="45.8383" lon="4.68253">
        <ele>273.98663</ele>
        <time>2023-11-23T09:01:06.000Z</time>
      </trkpt>
      <trkpt lat="45.83837" lon="4.68252">
        <ele>273.5163</ele>
        <time>2023-11-23T09:01:07.000Z</time>
      </trkpt>
      <trkpt lat="45.83843" lon="4.68252">
        <ele>273.08057</ele>
        <time>2023-11-23T09:01:08.000Z</time>
      </trkpt>
      <trkpt lat="45.83849" lon="4.68252">
        <ele>272.65738</ele>
        <time>2023-11-23T09:01:09.000Z</time>
      </trkpt>
      <trkpt lat="45.83855" lon="4.68253">
        <ele>272.29767</ele>
        <time>2023-11-23T09:01:10.000Z</time>
      </trkpt>
      <trkpt lat="45.83861" lon="4.68253">
        <ele>271.95792</ele>
        <time>2023-11-23T09:01:11.000Z</time>
      </trkpt>
      <trkpt lat="45.83867" lon="4.68252">
        <ele>271.5275</ele>
        <time>2023-11-23T09:01:12.000Z</time>
      </trkpt>
      <trkpt lat="45.83873" lon="4.68253">
        <ele>271.15692</ele>
        <time>2023-11-23T09:01:13.000Z</time>
      </trkpt>
      <trkpt lat="45.83879" lon="4.68253">
        <ele>270.80017</ele>
        <time>2023-11-23T09:01:14.000Z</time>
      </trkpt>
      <trkpt lat="45.83884" lon="4.68252">
        <ele>270.47165</ele>
        <time>2023-11-23T09:01:15.000Z</time>
      </trkpt>
      <trkpt lat="45.83889" lon="4.68251">
        <ele>270.16821</ele>
        <time>2023-11-23T09:01:16.000Z</time>
      </trkpt>
      <trkpt lat="45.83893" lon="4.68251">
        <ele>269.9057</ele>
        <time>2023-11-23T09:01:17.000Z</time>
      </trkpt>
      <trkpt lat="45.83899" lon="4.68252">
        <ele>269.72098</ele>
        <time>2023-11-23T09:01:18.000Z</time>
      </trkpt>
      <trkpt lat="45.83902" lon="4.68252">
        <ele>269.54056</ele>
        <time>2023-11-23T09:01:19.000Z</time>
      </trkpt>
      <trkpt lat="45.83906" lon="4.68253">
        <ele>269.4024</ele>
        <time>2023-11-23T09:01:20.000Z</time>
      </trkpt>
      <trkpt lat="45.8391" lon="4.68253">
        <ele>269.28091</ele>
        <time>2023-11-23T09:01:21.000Z</time>
      </trkpt>
      <trkpt lat="45.83914" lon="4.68253">
        <ele>269.1442</ele>
        <time>2023-11-23T09:01:22.000Z</time>
      </trkpt>
      <trkpt lat="45.83919" lon="4.68253">
        <ele>269.09763</ele>
        <time>2023-11-23T09:01:23.000Z</time>
      </trkpt>
      <trkpt lat="45.83924" lon="4.68254">
        <ele>268.89648</ele>
        <time>2023-11-23T09:01:24.000Z</time>
      </trkpt>
      <trkpt lat="45.83929" lon="4.68254">
        <ele>268.81854</ele>
        <time>2023-11-23T09:01:25.000Z</time>
      </trkpt>
      <trkpt lat="45.83934" lon="4.68254">
        <ele>269.17981</ele>
        <time>2023-11-23T09:01:26.000Z</time>
      </trkpt>
      <trkpt lat="45.83939" lon="4.68253">
        <ele>269.36282</ele>
        <time>2023-11-23T09:01:27.000Z</time>
      </trkpt>
      <trkpt lat="45.83944" lon="4.68254">
        <ele>269.49722</ele>
        <time>2023-11-23T09:01:28.000Z</time>
      </trkpt>
      <trkpt lat="45.83949" lon="4.68253">
        <ele>269.80093</ele>
        <time>2023-11-23T09:01:29.000Z</time>
      </trkpt>
      <trkpt lat="45.83954" lon="4.68252">
        <ele>269.4444</ele>
        <time>2023-11-23T09:01:30.000Z</time>
      </trkpt>
      <trkpt lat="45.83959" lon="4.68253">
        <ele>269.08136</ele>
        <time>2023-11-23T09:01:31.000Z</time>
      </trkpt>
      <trkpt lat="45.83965" lon="4.68253">
        <ele>269.12115</ele>
        <time>2023-11-23T09:01:32.000Z</time>
      </trkpt>
      <trkpt lat="45.83969" lon="4.68252">
        <ele>269.29196</ele>
        <time>2023-11-23T09:01:33.000Z</time>
      </trkpt>
      <trkpt lat="45.83973" lon="4.68252">
        <ele>269.48279</ele>
        <time>2023-11-23T09:01:34.000Z</time>
      </trkpt>
      <trkpt lat="45.83978" lon="4.68252">
        <ele>269.83078</ele>
        <time>2023-11-23T09:01:35.000Z</time>
      </trkpt>
      <trkpt lat="45.83983" lon="4.68251">
        <ele>270.16766</ele>
        <time>2023-11-23T09:01:36.000Z</time>
      </trkpt>
      <trkpt lat="45.83988" lon="4.68251">
        <ele>270.04974</ele>
        <time>2023-11-23T09:01:37.000Z</time>
      </trkpt>
      <trkpt lat="45.83994" lon="4.68251">
        <ele>269.94083</ele>
        <time>2023-11-23T09:01:38.000Z</time>
      </trkpt>
      <trkpt lat="45.83999" lon="4.68251">
        <ele>269.86435</ele>
        <time>2023-11-23T09:01:39.000Z</time>
      </trkpt>
      <trkpt lat="45.84003" lon="4.68253">
        <ele>269.80884</ele>
        <time>2023-11-23T09:01:40.000Z</time>
      </trkpt>
      <trkpt lat="45.84008" lon="4.68254">
        <ele>269.75107</ele>
        <time>2023-11-23T09:01:41.000Z</time>
      </trkpt>
      <trkpt lat="45.84013" lon="4.68254">
        <ele>269.79907</ele>
        <time>2023-11-23T09:01:42.000Z</time>
      </trkpt>
      <trkpt lat="45.84019" lon="4.68254">
        <ele>269.74698</ele>
        <time>2023-11-23T09:01:43.000Z</time>
      </trkpt>
      <trkpt lat="45.84024" lon="4.68256">
        <ele>269.66177</ele>
        <time>2023-11-23T09:01:44.000Z</time>
      </trkpt>
      <trkpt lat="45.84029" lon="4.68257">
        <ele>269.539</ele>
        <time>2023-11-23T09:01:45.000Z</time>
      </trkpt>
      <trkpt lat="45.84033" lon="4.68257">
        <ele>269.44022</ele>
        <time>2023-11-23T09:01:46.000Z</time>
      </trkpt>
      <trkpt lat="45.84036" lon="4.68256">
        <ele>269.61627</ele>
        <time>2023-11-23T09:01:47.000Z</time>
      </trkpt>
      <trkpt lat="45.84039" lon="4.68257">
        <ele>269.38382</ele>
        <time>2023-11-23T09:01:48.000Z</time>
      </trkpt>
      <trkpt lat="45.84041" lon="4.68257">
        <ele>269.08188</ele>
        <time>2023-11-23T09:01:49.000Z</time>
      </trkpt>
      <trkpt lat="45.84043" lon="4.68261">
        <ele>269.14059</ele>
        <time>2023-11-23T09:01:50.000Z</time>
      </trkpt>
      <trkpt lat="45.84046" lon="4.68261">
        <ele>269.18622</ele>
        <time>2023-11-23T09:01:51.000Z</time>
      </trkpt>
      <trkpt lat="45.84049" lon="4.68262">
        <ele>269.43552</ele>
        <time>2023-11-23T09:01:52.000Z</time>
      </trkpt>
      <trkpt lat="45.84051" lon="4.68263">
        <ele>269.58569</ele>
        <time>2023-11-23T09:01:53.000Z</time>
      </trkpt>
      <trkpt lat="45.84053" lon="4.68266">
        <ele>269.7471</ele>
        <time>2023-11-23T09:01:54.000Z</time>
      </trkpt>
      <trkpt lat="45.84057" lon="4.68267">
        <ele>269.34735</ele>
        <time>2023-11-23T09:01:55.000Z</time>
      </trkpt>
      <trkpt lat="45.84059" lon="4.68267">
        <ele>268.97873</ele>
        <time>2023-11-23T09:01:56.000Z</time>
      </trkpt>
      <trkpt lat="45.84061" lon="4.68267">
        <ele>268.99835</ele>
        <time>2023-11-23T09:01:57.000Z</time>
      </trkpt>
      <trkpt lat="45.84064" lon="4.68267">
        <ele>268.95166</ele>
        <time>2023-11-23T09:01:58.000Z</time>
      </trkpt>
      <trkpt lat="45.84067" lon="4.68267">
        <ele>268.98276</ele>
        <time>2023-11-23T09:01:59.000Z</time>
      </trkpt>
      <trkpt lat="45.8407" lon="4.68267">
        <ele>268.93958</ele>
        <time>2023-11-23T09:02:00.000Z</time>
      </trkpt>
      <trkpt lat="45.84073" lon="4.68268">
        <ele>268.94876</ele>
        <time>2023-11-23T09:02:01.000Z</time>
      </trkpt>
      <trkpt lat="45.84076" lon="4.68268">
        <ele>269.16608</ele>
        <time>2023-11-23T09:02:02.000Z</time>
      </trkpt>
      <trkpt lat="45.8408" lon="4.68268">
        <ele>269.31052</ele>
        <time>2023-11-23T09:02:03.000Z</time>
      </trkpt>
      <trkpt lat="45.84084" lon="4.68268">
        <ele>269.44913</ele>
        <time>2023-11-23T09:02:04.000Z</time>
      </trkpt>
      <trkpt lat="45.84089" lon="4.68268">
        <ele>269.32953</ele>
        <time>2023-11-23T09:02:05.000Z</time>
      </trkpt>
      <trkpt lat="45.84093" lon="4.68267">
        <ele>269.21201</ele>
        <time>2023-11-23T09:02:06.000Z</time>
      </trkpt>
      <trkpt lat="45.84099" lon="4.68268">
        <ele>268.89655</ele>
        <time>2023-11-23T09:02:07.000Z</time>
      </trkpt>
      <trkpt lat="45.84104" lon="4.6827">
        <ele>268.99173</ele>
        <time>2023-11-23T09:02:08.000Z</time>
      </trkpt>
      <trkpt lat="45.84109" lon="4.6827">
        <ele>268.97244</ele>
        <time>2023-11-23T09:02:09.000Z</time>
      </trkpt>
      <trkpt lat="45.84115" lon="4.6827">
        <ele>268.97449</ele>
        <time>2023-11-23T09:02:10.000Z</time>
      </trkpt>
      <trkpt lat="45.8412" lon="4.68271">
        <ele>268.96436</ele>
        <time>2023-11-23T09:02:11.000Z</time>
      </trkpt>
      <trkpt lat="45.84126" lon="4.68276">
        <ele>268.7951</ele>
        <time>2023-11-23T09:02:12.000Z</time>
      </trkpt>
      <trkpt lat="45.84129" lon="4.68277">
        <ele>269.01517</ele>
        <time>2023-11-23T09:02:13.000Z</time>
      </trkpt>
      <trkpt lat="45.84134" lon="4.68281">
        <ele>268.64664</ele>
        <time>2023-11-23T09:02:14.000Z</time>
      </trkpt>
      <trkpt lat="45.84139" lon="4.68283">
        <ele>268.69391</ele>
        <time>2023-11-23T09:02:15.000Z</time>
      </trkpt>
      <trkpt lat="45.84142" lon="4.68283">
        <ele>268.76624</ele>
        <time>2023-11-23T09:02:16.000Z</time>
      </trkpt>
      <trkpt lat="45.84145" lon="4.68285">
        <ele>268.88745</ele>
        <time>2023-11-23T09:02:17.000Z</time>
      </trkpt>
      <trkpt lat="45.84148" lon="4.68285">
        <ele>269.16339</ele>
        <time>2023-11-23T09:02:18.000Z</time>
      </trkpt>
      <trkpt lat="45.84151" lon="4.68285">
        <ele>269.44226</ele>
        <time>2023-11-23T09:02:20.000Z</time>
      </trkpt>
      <trkpt lat="45.84155" lon="4.68288">
        <ele>270.19952</ele>
        <time>2023-11-23T09:02:22.000Z</time>
      </trkpt>
      <trkpt lat="45.84158" lon="4.6829">
        <ele>271.15436</ele>
        <time>2023-11-23T09:02:24.000Z</time>
      </trkpt>
      <trkpt lat="45.84161" lon="4.68291">
        <ele>271.89966</ele>
        <time>2023-11-23T09:02:25.000Z</time>
      </trkpt>
      <trkpt lat="45.84163" lon="4.68293">
        <ele>272.73404</ele>
        <time>2023-11-23T09:02:26.000Z</time>
      </trkpt>
      <trkpt lat="45.84165" lon="4.68295">
        <ele>272.90082</ele>
        <time>2023-11-23T09:02:27.000Z</time>
      </trkpt>
      <trkpt lat="45.84168" lon="4.68297">
        <ele>273.23257</ele>
        <time>2023-11-23T09:02:28.000Z</time>
      </trkpt>
      <trkpt lat="45.84171" lon="4.683">
        <ele>273.51483</ele>
        <time>2023-11-23T09:02:29.000Z</time>
      </trkpt>
      <trkpt lat="45.84174" lon="4.68303">
        <ele>273.72421</ele>
        <time>2023-11-23T09:02:30.000Z</time>
      </trkpt>
      <trkpt lat="45.84177" lon="4.68304">
        <ele>274.12155</ele>
        <time>2023-11-23T09:02:31.000Z</time>
      </trkpt>
      <trkpt lat="45.8418" lon="4.68306">
        <ele>274.60083</ele>
        <time>2023-11-23T09:02:32.000Z</time>
      </trkpt>
      <trkpt lat="45.84184" lon="4.68308">
        <ele>275.57117</ele>
        <time>2023-11-23T09:02:33.000Z</time>
      </trkpt>
      <trkpt lat="45.84187" lon="4.6831">
        <ele>276.53812</ele>
        <time>2023-11-23T09:02:34.000Z</time>
      </trkpt>
      <trkpt lat="45.84189" lon="4.68312">
        <ele>277.61786</ele>
        <time>2023-11-23T09:02:35.000Z</time>
      </trkpt>
      <trkpt lat="45.84193" lon="4.68314">
        <ele>278.25726</ele>
        <time>2023-11-23T09:02:36.000Z</time>
      </trkpt>
      <trkpt lat="45.84198" lon="4.68317">
        <ele>279.49695</ele>
        <time>2023-11-23T09:02:37.000Z</time>
      </trkpt>
      <trkpt lat="45.84202" lon="4.68319">
        <ele>280.71198</ele>
        <time>2023-11-23T09:02:38.000Z</time>
      </trkpt>
      <trkpt lat="45.84207" lon="4.6832">
        <ele>281.92392</ele>
        <time>2023-11-23T09:02:39.000Z</time>
      </trkpt>
      <trkpt lat="45.84211" lon="4.68321">
        <ele>283.14337</ele>
        <time>2023-11-23T09:02:40.000Z</time>
      </trkpt>
      <trkpt lat="45.84216" lon="4.68322">
        <ele>284.27753</ele>
        <time>2023-11-23T09:02:41.000Z</time>
      </trkpt>
      <trkpt lat="45.8422" lon="4.68323">
        <ele>285.27448</ele>
        <time>2023-11-23T09:02:42.000Z</time>
      </trkpt>
      <trkpt lat="45.84225" lon="4.68324">
        <ele>285.96854</ele>
        <time>2023-11-23T09:02:43.000Z</time>
      </trkpt>
      <trkpt lat="45.84233" lon="4.68322">
        <ele>286.46725</ele>
        <time>2023-11-23T09:02:44.000Z</time>
      </trkpt>
      <trkpt lat="45.84239" lon="4.68326">
        <ele>286.85181</ele>
        <time>2023-11-23T09:02:45.000Z</time>
      </trkpt>
      <trkpt lat="45.84245" lon="4.68328">
        <ele>287.30548</ele>
        <time>2023-11-23T09:02:46.000Z</time>
      </trkpt>
      <trkpt lat="45.8425" lon="4.68326">
        <ele>288.29932</ele>
        <time>2023-11-23T09:02:47.000Z</time>
      </trkpt>
      <trkpt lat="45.84256" lon="4.68325">
        <ele>288.69852</ele>
        <time>2023-11-23T09:02:48.000Z</time>
      </trkpt>
      <trkpt lat="45.8426" lon="4.68325">
        <ele>289.10797</ele>
        <time>2023-11-23T09:02:49.000Z</time>
      </trkpt>
      <trkpt lat="45.84266" lon="4.68323">
        <ele>289.03937</ele>
        <time>2023-11-23T09:02:50.000Z</time>
      </trkpt>
      <trkpt lat="45.8427" lon="4.68322">
        <ele>289.08841</ele>
        <time>2023-11-23T09:02:51.000Z</time>
      </trkpt>
      <trkpt lat="45.84276" lon="4.68322">
        <ele>289.03864</ele>
        <time>2023-11-23T09:02:52.000Z</time>
      </trkpt>
      <trkpt lat="45.8428" lon="4.68322">
        <ele>288.50873</ele>
        <time>2023-11-23T09:02:53.000Z</time>
      </trkpt>
      <trkpt lat="45.84285" lon="4.68321">
        <ele>287.90088</ele>
        <time>2023-11-23T09:02:54.000Z</time>
      </trkpt>
      <trkpt lat="45.84289" lon="4.68322">
        <ele>287.17413</ele>
        <time>2023-11-23T09:02:55.000Z</time>
      </trkpt>
      <trkpt lat="45.84293" lon="4.68324">
        <ele>286.31818</ele>
        <time>2023-11-23T09:02:56.000Z</time>
      </trkpt>
      <trkpt lat="45.84295" lon="4.68324">
        <ele>285.52841</ele>
        <time>2023-11-23T09:02:58.000Z</time>
      </trkpt>
      <trkpt lat="45.84296" lon="4.68327">
        <ele>284.75949</ele>
        <time>2023-11-23T09:03:11.000Z</time>
      </trkpt>
      <trkpt lat="45.84298" lon="4.68331">
        <ele>283.96124</ele>
        <time>2023-11-23T09:03:12.000Z</time>
      </trkpt>
      <trkpt lat="45.84299" lon="4.68336">
        <ele>283.14462</ele>
        <time>2023-11-23T09:03:13.000Z</time>
      </trkpt>
      <trkpt lat="45.84299" lon="4.6834">
        <ele>282.26971</ele>
        <time>2023-11-23T09:03:14.000Z</time>
      </trkpt>
      <trkpt lat="45.84301" lon="4.68345">
        <ele>281.41391</ele>
        <time>2023-11-23T09:03:15.000Z</time>
      </trkpt>
      <trkpt lat="45.84302" lon="4.68349">
        <ele>280.27167</ele>
        <time>2023-11-23T09:03:16.000Z</time>
      </trkpt>
      <trkpt lat="45.84303" lon="4.68353">
        <ele>278.99594</ele>
        <time>2023-11-23T09:03:17.000Z</time>
      </trkpt>
      <trkpt lat="45.84304" lon="4.68356">
        <ele>277.98837</ele>
        <time>2023-11-23T09:03:18.000Z</time>
      </trkpt>
      <trkpt lat="45.84305" lon="4.68359">
        <ele>276.9942</ele>
        <time>2023-11-23T09:03:19.000Z</time>
      </trkpt>
      <trkpt lat="45.84308" lon="4.68362">
        <ele>276.29044</ele>
        <time>2023-11-23T09:03:20.000Z</time>
      </trkpt>
      <trkpt lat="45.84312" lon="4.68362">
        <ele>276.08429</ele>
        <time>2023-11-23T09:03:21.000Z</time>
      </trkpt>
      <trkpt lat="45.84315" lon="4.68361">
        <ele>275.28613</ele>
        <time>2023-11-23T09:03:22.000Z</time>
      </trkpt>
      <trkpt lat="45.84319" lon="4.68359">
        <ele>275.09787</ele>
        <time>2023-11-23T09:03:23.000Z</time>
      </trkpt>
      <trkpt lat="45.84323" lon="4.68357">
        <ele>274.5929</ele>
        <time>2023-11-23T09:03:24.000Z</time>
      </trkpt>
      <trkpt lat="45.84326" lon="4.68357">
        <ele>274.0881</ele>
        <time>2023-11-23T09:03:25.000Z</time>
      </trkpt>
      <trkpt lat="45.8433" lon="4.68357">
        <ele>273.52994</ele>
        <time>2023-11-23T09:03:26.000Z</time>
      </trkpt>
      <trkpt lat="45.84334" lon="4.68358">
        <ele>273.00385</ele>
        <time>2023-11-23T09:03:27.000Z</time>
      </trkpt>
      <trkpt lat="45.84337" lon="4.6836">
        <ele>272.47385</ele>
        <time>2023-11-23T09:03:28.000Z</time>
      </trkpt>
      <trkpt lat="45.84341" lon="4.68364">
        <ele>271.98138</ele>
        <time>2023-11-23T09:03:29.000Z</time>
      </trkpt>
      <trkpt lat="45.84344" lon="4.68367">
        <ele>271.34464</ele>
        <time>2023-11-23T09:03:30.000Z</time>
      </trkpt>
      <trkpt lat="45.84347" lon="4.6837">
        <ele>270.6377</ele>
        <time>2023-11-23T09:03:31.000Z</time>
      </trkpt>
      <trkpt lat="45.8435" lon="4.68373">
        <ele>269.89795</ele>
        <time>2023-11-23T09:03:32.000Z</time>
      </trkpt>
      <trkpt lat="45.84353" lon="4.68376">
        <ele>269.16391</ele>
        <time>2023-11-23T09:03:33.000Z</time>
      </trkpt>
      <trkpt lat="45.84356" lon="4.68379">
        <ele>268.42181</ele>
        <time>2023-11-23T09:03:34.000Z</time>
      </trkpt>
      <trkpt lat="45.8436" lon="4.68382">
        <ele>267.71378</ele>
        <time>2023-11-23T09:03:35.000Z</time>
      </trkpt>
      <trkpt lat="45.84363" lon="4.68385">
        <ele>267.40659</ele>
        <time>2023-11-23T09:03:36.000Z</time>
      </trkpt>
      <trkpt lat="45.84366" lon="4.68387">
        <ele>267.1922</ele>
        <time>2023-11-23T09:03:37.000Z</time>
      </trkpt>
      <trkpt lat="45.84369" lon="4.6839">
        <ele>266.74124</ele>
        <time>2023-11-23T09:03:38.000Z</time>
      </trkpt>
      <trkpt lat="45.84372" lon="4.68392">
        <ele>266.25565</ele>
        <time>2023-11-23T09:03:39.000Z</time>
      </trkpt>
      <trkpt lat="45.84374" lon="4.68394">
        <ele>265.65408</ele>
        <time>2023-11-23T09:03:40.000Z</time>
      </trkpt>
      <trkpt lat="45.84376" lon="4.68396">
        <ele>265.04315</ele>
        <time>2023-11-23T09:03:41.000Z</time>
      </trkpt>
      <trkpt lat="45.84378" lon="4.68398">
        <ele>265.21808</ele>
        <time>2023-11-23T09:03:42.000Z</time>
      </trkpt>
      <trkpt lat="45.8438" lon="4.684">
        <ele>265.41183</ele>
        <time>2023-11-23T09:03:43.000Z</time>
      </trkpt>
      <trkpt lat="45.84381" lon="4.68402">
        <ele>265.21149</ele>
        <time>2023-11-23T09:03:44.000Z</time>
      </trkpt>
      <trkpt lat="45.84383" lon="4.68404">
        <ele>265.09433</ele>
        <time>2023-11-23T09:03:45.000Z</time>
      </trkpt>
      <trkpt lat="45.84386" lon="4.68407">
        <ele>265.08298</ele>
        <time>2023-11-23T09:03:46.000Z</time>
      </trkpt>
      <trkpt lat="45.84389" lon="4.6841">
        <ele>265.13089</ele>
        <time>2023-11-23T09:03:47.000Z</time>
      </trkpt>
      <trkpt lat="45.84391" lon="4.68413">
        <ele>265.17688</ele>
        <time>2023-11-23T09:03:48.000Z</time>
      </trkpt>
      <trkpt lat="45.84394" lon="4.68417">
        <ele>265.35611</ele>
        <time>2023-11-23T09:03:49.000Z</time>
      </trkpt>
      <trkpt lat="45.84397" lon="4.68422">
        <ele>265.5401</ele>
        <time>2023-11-23T09:03:50.000Z</time>
      </trkpt>
      <trkpt lat="45.844" lon="4.68427">
        <ele>265.82214</ele>
        <time>2023-11-23T09:03:51.000Z</time>
      </trkpt>
      <trkpt lat="45.84404" lon="4.68431">
        <ele>266.16071</ele>
        <time>2023-11-23T09:03:52.000Z</time>
      </trkpt>
      <trkpt lat="45.84407" lon="4.68434">
        <ele>266.46658</ele>
        <time>2023-11-23T09:03:53.000Z</time>
      </trkpt>
      <trkpt lat="45.8441" lon="4.68436">
        <ele>266.82831</ele>
        <time>2023-11-23T09:03:54.000Z</time>
      </trkpt>
      <trkpt lat="45.84414" lon="4.68439">
        <ele>267.20926</ele>
        <time>2023-11-23T09:03:55.000Z</time>
      </trkpt>
      <trkpt lat="45.84417" lon="4.68442">
        <ele>267.35294</ele>
        <time>2023-11-23T09:03:56.000Z</time>
      </trkpt>
      <trkpt lat="45.8442" lon="4.68445">
        <ele>267.49274</ele>
        <time>2023-11-23T09:03:57.000Z</time>
      </trkpt>
      <trkpt lat="45.84422" lon="4.68447">
        <ele>267.65506</ele>
        <time>2023-11-23T09:03:58.000Z</time>
      </trkpt>
      <trkpt lat="45.84424" lon="4.6845">
        <ele>267.69501</ele>
        <time>2023-11-23T09:03:59.000Z</time>
      </trkpt>
      <trkpt lat="45.84426" lon="4.68452">
        <ele>267.57672</ele>
        <time>2023-11-23T09:04:00.000Z</time>
      </trkpt>
      <trkpt lat="45.84428" lon="4.68454">
        <ele>267.45685</ele>
        <time>2023-11-23T09:04:01.000Z</time>
      </trkpt>
      <trkpt lat="45.8443" lon="4.68457">
        <ele>267.78152</ele>
        <time>2023-11-23T09:04:03.000Z</time>
      </trkpt>
      <trkpt lat="45.84431" lon="4.68459">
        <ele>268.1286</ele>
        <time>2023-11-23T09:04:04.000Z</time>
      </trkpt>
      <trkpt lat="45.84432" lon="4.68462">
        <ele>268.9397</ele>
        <time>2023-11-23T09:04:05.000Z</time>
      </trkpt>
      <trkpt lat="45.84434" lon="4.68465">
        <ele>269.58453</ele>
        <time>2023-11-23T09:04:06.000Z</time>
      </trkpt>
      <trkpt lat="45.84438" lon="4.68469">
        <ele>270.2626</ele>
        <time>2023-11-23T09:04:07.000Z</time>
      </trkpt>
      <trkpt lat="45.8444" lon="4.68472">
        <ele>270.9043</ele>
        <time>2023-11-23T09:04:08.000Z</time>
      </trkpt>
      <trkpt lat="45.84442" lon="4.68475">
        <ele>271.70288</ele>
        <time>2023-11-23T09:04:09.000Z</time>
      </trkpt>
      <trkpt lat="45.84444" lon="4.68478">
        <ele>271.84451</ele>
        <time>2023-11-23T09:04:10.000Z</time>
      </trkpt>
      <trkpt lat="45.84446" lon="4.68483">
        <ele>272.07578</ele>
        <time>2023-11-23T09:04:11.000Z</time>
      </trkpt>
      <trkpt lat="45.84448" lon="4.68488">
        <ele>272.24698</ele>
        <time>2023-11-23T09:04:12.000Z</time>
      </trkpt>
      <trkpt lat="45.84451" lon="4.68494">
        <ele>272.33179</ele>
        <time>2023-11-23T09:04:13.000Z</time>
      </trkpt>
      <trkpt lat="45.84453" lon="4.685">
        <ele>272.41739</ele>
        <time>2023-11-23T09:04:14.000Z</time>
      </trkpt>
      <trkpt lat="45.84455" lon="4.68506">
        <ele>272.3941</ele>
        <time>2023-11-23T09:04:15.000Z</time>
      </trkpt>
      <trkpt lat="45.84457" lon="4.68512">
        <ele>272.33679</ele>
        <time>2023-11-23T09:04:16.000Z</time>
      </trkpt>
      <trkpt lat="45.84459" lon="4.68518">
        <ele>272.29056</ele>
        <time>2023-11-23T09:04:17.000Z</time>
      </trkpt>
      <trkpt lat="45.84461" lon="4.68523">
        <ele>272.23053</ele>
        <time>2023-11-23T09:04:18.000Z</time>
      </trkpt>
      <trkpt lat="45.84462" lon="4.68528">
        <ele>272.18146</ele>
        <time>2023-11-23T09:04:19.000Z</time>
      </trkpt>
      <trkpt lat="45.84463" lon="4.68533">
        <ele>272.27362</ele>
        <time>2023-11-23T09:04:20.000Z</time>
      </trkpt>
      <trkpt lat="45.84464" lon="4.68537">
        <ele>272.43817</ele>
        <time>2023-11-23T09:04:21.000Z</time>
      </trkpt>
      <trkpt lat="45.84466" lon="4.68543">
        <ele>272.59967</ele>
        <time>2023-11-23T09:04:22.000Z</time>
      </trkpt>
      <trkpt lat="45.84467" lon="4.68548">
        <ele>272.15372</ele>
        <time>2023-11-23T09:04:23.000Z</time>
      </trkpt>
      <trkpt lat="45.84469" lon="4.68552">
        <ele>271.52966</ele>
        <time>2023-11-23T09:04:24.000Z</time>
      </trkpt>
      <trkpt lat="45.84472" lon="4.68556">
        <ele>270.73135</ele>
        <time>2023-11-23T09:04:25.000Z</time>
      </trkpt>
      <trkpt lat="45.84476" lon="4.68559">
        <ele>270.04123</ele>
        <time>2023-11-23T09:04:26.000Z</time>
      </trkpt>
      <trkpt lat="45.84478" lon="4.68562">
        <ele>269.36563</ele>
        <time>2023-11-23T09:04:27.000Z</time>
      </trkpt>
      <trkpt lat="45.84481" lon="4.68566">
        <ele>268.66611</ele>
        <time>2023-11-23T09:04:28.000Z</time>
      </trkpt>
      <trkpt lat="45.84484" lon="4.68569">
        <ele>267.88745</ele>
        <time>2023-11-23T09:04:29.000Z</time>
      </trkpt>
      <trkpt lat="45.84487" lon="4.68571">
        <ele>267.67487</ele>
        <time>2023-11-23T09:04:30.000Z</time>
      </trkpt>
      <trkpt lat="45.84489" lon="4.68574">
        <ele>267.45828</ele>
        <time>2023-11-23T09:04:31.000Z</time>
      </trkpt>
      <trkpt lat="45.84491" lon="4.68576">
        <ele>267.20901</ele>
        <time>2023-11-23T09:04:32.000Z</time>
      </trkpt>
      <trkpt lat="45.84493" lon="4.68579">
        <ele>267.01294</ele>
        <time>2023-11-23T09:04:33.000Z</time>
      </trkpt>
      <trkpt lat="45.84496" lon="4.68582">
        <ele>266.78574</ele>
        <time>2023-11-23T09:04:35.000Z</time>
      </trkpt>
      <trkpt lat="45.84499" lon="4.68585">
        <ele>266.55688</ele>
        <time>2023-11-23T09:04:36.000Z</time>
      </trkpt>
      <trkpt lat="45.84502" lon="4.68587">
        <ele>266.3082</ele>
        <time>2023-11-23T09:04:37.000Z</time>
      </trkpt>
      <trkpt lat="45.84506" lon="4.6859">
        <ele>266.06122</ele>
        <time>2023-11-23T09:04:38.000Z</time>
      </trkpt>
      <trkpt lat="45.84509" lon="4.68592">
        <ele>265.82782</ele>
        <time>2023-11-23T09:04:39.000Z</time>
      </trkpt>
      <trkpt lat="45.84512" lon="4.68594">
        <ele>265.56363</ele>
        <time>2023-11-23T09:04:40.000Z</time>
      </trkpt>
      <trkpt lat="45.84516" lon="4.68597">
        <ele>265.26093</ele>
        <time>2023-11-23T09:04:41.000Z</time>
      </trkpt>
      <trkpt lat="45.8452" lon="4.686">
        <ele>265.03412</ele>
        <time>2023-11-23T09:04:42.000Z</time>
      </trkpt>
      <trkpt lat="45.84523" lon="4.68602">
        <ele>265.07013</ele>
        <time>2023-11-23T09:04:43.000Z</time>
      </trkpt>
      <trkpt lat="45.84527" lon="4.68605">
        <ele>265.27689</ele>
        <time>2023-11-23T09:04:44.000Z</time>
      </trkpt>
      <trkpt lat="45.84531" lon="4.68608">
        <ele>265.58609</ele>
        <time>2023-11-23T09:04:45.000Z</time>
      </trkpt>
      <trkpt lat="45.84534" lon="4.68611">
        <ele>265.58868</ele>
        <time>2023-11-23T09:04:46.000Z</time>
      </trkpt>
      <trkpt lat="45.84538" lon="4.68614">
        <ele>265.81516</ele>
        <time>2023-11-23T09:04:47.000Z</time>
      </trkpt>
      <trkpt lat="45.84541" lon="4.68617">
        <ele>265.93283</ele>
        <time>2023-11-23T09:04:48.000Z</time>
      </trkpt>
      <trkpt lat="45.84544" lon="4.68621">
        <ele>266.11566</ele>
        <time>2023-11-23T09:04:49.000Z</time>
      </trkpt>
      <trkpt lat="45.84547" lon="4.68625">
        <ele>266.21722</ele>
        <time>2023-11-23T09:04:50.000Z</time>
      </trkpt>
      <trkpt lat="45.8455" lon="4.6863">
        <ele>266.33609</ele>
        <time>2023-11-23T09:04:51.000Z</time>
      </trkpt>
      <trkpt lat="45.84553" lon="4.68634">
        <ele>266.40192</ele>
        <time>2023-11-23T09:04:52.000Z</time>
      </trkpt>
      <trkpt lat="45.84557" lon="4.68638">
        <ele>266.50446</ele>
        <time>2023-11-23T09:04:53.000Z</time>
      </trkpt>
      <trkpt lat="45.8456" lon="4.68643">
        <ele>266.56482</ele>
        <time>2023-11-23T09:04:54.000Z</time>
      </trkpt>
      <trkpt lat="45.84564" lon="4.68648">
        <ele>266.54291</ele>
        <time>2023-11-23T09:04:55.000Z</time>
      </trkpt>
      <trkpt lat="45.84568" lon="4.68652">
        <ele>266.86249</ele>
        <time>2023-11-23T09:04:56.000Z</time>
      </trkpt>
      <trkpt lat="45.84572" lon="4.68656">
        <ele>267.30399</ele>
        <time>2023-11-23T09:04:57.000Z</time>
      </trkpt>
      <trkpt lat="45.84578" lon="4.68661">
        <ele>267.72772</ele>
        <time>2023-11-23T09:04:58.000Z</time>
      </trkpt>
      <trkpt lat="45.84585" lon="4.68664">
        <ele>268.16806</ele>
        <time>2023-11-23T09:04:59.000Z</time>
      </trkpt>
      <trkpt lat="45.8459" lon="4.68668">
        <ele>268.46631</ele>
        <time>2023-11-23T09:05:00.000Z</time>
      </trkpt>
      <trkpt lat="45.84594" lon="4.68674">
        <ele>268.73624</ele>
        <time>2023-11-23T09:05:01.000Z</time>
      </trkpt>
      <trkpt lat="45.846" lon="4.68683">
        <ele>268.99493</ele>
        <time>2023-11-23T09:05:02.000Z</time>
      </trkpt>
      <trkpt lat="45.84605" lon="4.68694">
        <ele>268.99622</ele>
        <time>2023-11-23T09:05:03.000Z</time>
      </trkpt>
      <trkpt lat="45.8461" lon="4.68705">
        <ele>268.81415</ele>
        <time>2023-11-23T09:05:04.000Z</time>
      </trkpt>
      <trkpt lat="45.84617" lon="4.68715">
        <ele>267.86383</ele>
        <time>2023-11-23T09:05:05.000Z</time>
      </trkpt>
      <trkpt lat="45.84624" lon="4.68725">
        <ele>267.32227</ele>
        <time>2023-11-23T09:05:06.000Z</time>
      </trkpt>
      <trkpt lat="45.84632" lon="4.68735">
        <ele>266.53519</ele>
        <time>2023-11-23T09:05:07.000Z</time>
      </trkpt>
      <trkpt lat="45.84642" lon="4.68743">
        <ele>265.66632</ele>
        <time>2023-11-23T09:05:08.000Z</time>
      </trkpt>
      <trkpt lat="45.84652" lon="4.6875">
        <ele>264.73041</ele>
        <time>2023-11-23T09:05:09.000Z</time>
      </trkpt>
      <trkpt lat="45.84662" lon="4.68755">
        <ele>263.77036</ele>
        <time>2023-11-23T09:05:10.000Z</time>
      </trkpt>
      <trkpt lat="45.84671" lon="4.68763">
        <ele>262.73831</ele>
        <time>2023-11-23T09:05:11.000Z</time>
      </trkpt>
      <trkpt lat="45.8468" lon="4.68771">
        <ele>261.72156</ele>
        <time>2023-11-23T09:05:12.000Z</time>
      </trkpt>
      <trkpt lat="45.84687" lon="4.68778">
        <ele>260.68796</ele>
        <time>2023-11-23T09:05:13.000Z</time>
      </trkpt>
      <trkpt lat="45.84694" lon="4.68785">
        <ele>259.63733</ele>
        <time>2023-11-23T09:05:14.000Z</time>
      </trkpt>
      <trkpt lat="45.84701" lon="4.68789">
        <ele>258.75702</ele>
        <time>2023-11-23T09:05:15.000Z</time>
      </trkpt>
      <trkpt lat="45.84707" lon="4.68788">
        <ele>257.52618</ele>
        <time>2023-11-23T09:05:16.000Z</time>
      </trkpt>
      <trkpt lat="45.84713" lon="4.68785">
        <ele>256.22229</ele>
        <time>2023-11-23T09:05:17.000Z</time>
      </trkpt>
      <trkpt lat="45.84718" lon="4.68779">
        <ele>254.83463</ele>
        <time>2023-11-23T09:05:18.000Z</time>
      </trkpt>
      <trkpt lat="45.84724" lon="4.68772">
        <ele>253.42139</ele>
        <time>2023-11-23T09:05:19.000Z</time>
      </trkpt>
      <trkpt lat="45.84729" lon="4.68765">
        <ele>252.14497</ele>
        <time>2023-11-23T09:05:20.000Z</time>
      </trkpt>
      <trkpt lat="45.84734" lon="4.68759">
        <ele>250.91565</ele>
        <time>2023-11-23T09:05:21.000Z</time>
      </trkpt>
      <trkpt lat="45.84738" lon="4.68752">
        <ele>249.67586</ele>
        <time>2023-11-23T09:05:22.000Z</time>
      </trkpt>
      <trkpt lat="45.84742" lon="4.68745">
        <ele>248.39958</ele>
        <time>2023-11-23T09:05:23.000Z</time>
      </trkpt>
      <trkpt lat="45.84745" lon="4.68738">
        <ele>247.11821</ele>
        <time>2023-11-23T09:05:24.000Z</time>
      </trkpt>
      <trkpt lat="45.84747" lon="4.6873">
        <ele>246.54276</ele>
        <time>2023-11-23T09:05:25.000Z</time>
      </trkpt>
      <trkpt lat="45.8475" lon="4.68722">
        <ele>246.00302</ele>
        <time>2023-11-23T09:05:26.000Z</time>
      </trkpt>
      <trkpt lat="45.84755" lon="4.68715">
        <ele>245.46455</ele>
        <time>2023-11-23T09:05:27.000Z</time>
      </trkpt>
      <trkpt lat="45.84761" lon="4.6871">
        <ele>245.01408</ele>
        <time>2023-11-23T09:05:28.000Z</time>
      </trkpt>
      <trkpt lat="45.84768" lon="4.68706">
        <ele>244.63774</ele>
        <time>2023-11-23T09:05:29.000Z</time>
      </trkpt>
      <trkpt lat="45.84776" lon="4.68703">
        <ele>244.21199</ele>
        <time>2023-11-23T09:05:30.000Z</time>
      </trkpt>
      <trkpt lat="45.84784" lon="4.68702">
        <ele>243.82072</ele>
        <time>2023-11-23T09:05:31.000Z</time>
      </trkpt>
      <trkpt lat="45.84792" lon="4.687">
        <ele>243.41101</ele>
        <time>2023-11-23T09:05:32.000Z</time>
      </trkpt>
      <trkpt lat="45.84799" lon="4.68699">
        <ele>243.04131</ele>
        <time>2023-11-23T09:05:33.000Z</time>
      </trkpt>
      <trkpt lat="45.84806" lon="4.68696">
        <ele>242.72522</ele>
        <time>2023-11-23T09:05:34.000Z</time>
      </trkpt>
      <trkpt lat="45.84812" lon="4.68693">
        <ele>242.37024</ele>
        <time>2023-11-23T09:05:35.000Z</time>
      </trkpt>
      <trkpt lat="45.84819" lon="4.68692">
        <ele>242.07303</ele>
        <time>2023-11-23T09:05:36.000Z</time>
      </trkpt>
      <trkpt lat="45.84825" lon="4.68691">
        <ele>241.76006</ele>
        <time>2023-11-23T09:05:37.000Z</time>
      </trkpt>
      <trkpt lat="45.84831" lon="4.68689">
        <ele>241.52461</ele>
        <time>2023-11-23T09:05:38.000Z</time>
      </trkpt>
      <trkpt lat="45.84836" lon="4.68687">
        <ele>241.35457</ele>
        <time>2023-11-23T09:05:39.000Z</time>
      </trkpt>
      <trkpt lat="45.84843" lon="4.68684">
        <ele>241.16521</ele>
        <time>2023-11-23T09:05:40.000Z</time>
      </trkpt>
      <trkpt lat="45.84848" lon="4.68682">
        <ele>240.96577</ele>
        <time>2023-11-23T09:05:41.000Z</time>
      </trkpt>
      <trkpt lat="45.84854" lon="4.6868">
        <ele>240.76419</ele>
        <time>2023-11-23T09:05:42.000Z</time>
      </trkpt>
      <trkpt lat="45.84859" lon="4.68677">
        <ele>240.94907</ele>
        <time>2023-11-23T09:05:43.000Z</time>
      </trkpt>
      <trkpt lat="45.84863" lon="4.68675">
        <ele>241.37849</ele>
        <time>2023-11-23T09:05:44.000Z</time>
      </trkpt>
      <trkpt lat="45.84868" lon="4.68674">
        <ele>241.82536</ele>
        <time>2023-11-23T09:05:45.000Z</time>
      </trkpt>
      <trkpt lat="45.84873" lon="4.68672">
        <ele>242.28549</ele>
        <time>2023-11-23T09:05:46.000Z</time>
      </trkpt>
      <trkpt lat="45.84878" lon="4.68671">
        <ele>242.78906</ele>
        <time>2023-11-23T09:05:47.000Z</time>
      </trkpt>
      <trkpt lat="45.84883" lon="4.6867">
        <ele>242.50977</ele>
        <time>2023-11-23T09:05:48.000Z</time>
      </trkpt>
      <trkpt lat="45.84888" lon="4.68671">
        <ele>242.34956</ele>
        <time>2023-11-23T09:05:49.000Z</time>
      </trkpt>
      <trkpt lat="45.84893" lon="4.68672">
        <ele>242.31885</ele>
        <time>2023-11-23T09:05:50.000Z</time>
      </trkpt>
      <trkpt lat="45.84897" lon="4.68672">
        <ele>242.298</ele>
        <time>2023-11-23T09:05:51.000Z</time>
      </trkpt>
      <trkpt lat="45.84901" lon="4.6867">
        <ele>242.33723</ele>
        <time>2023-11-23T09:05:52.000Z</time>
      </trkpt>
      <trkpt lat="45.84906" lon="4.6867">
        <ele>242.35519</ele>
        <time>2023-11-23T09:05:53.000Z</time>
      </trkpt>
      <trkpt lat="45.8491" lon="4.6867">
        <ele>242.41023</ele>
        <time>2023-11-23T09:05:54.000Z</time>
      </trkpt>
      <trkpt lat="45.84914" lon="4.6867">
        <ele>242.50948</ele>
        <time>2023-11-23T09:05:55.000Z</time>
      </trkpt>
      <trkpt lat="45.84919" lon="4.68671">
        <ele>242.59842</ele>
        <time>2023-11-23T09:05:56.000Z</time>
      </trkpt>
      <trkpt lat="45.84923" lon="4.68669">
        <ele>242.70789</ele>
        <time>2023-11-23T09:05:57.000Z</time>
      </trkpt>
      <trkpt lat="45.84927" lon="4.68668">
        <ele>242.78879</ele>
        <time>2023-11-23T09:05:58.000Z</time>
      </trkpt>
      <trkpt lat="45.84932" lon="4.68668">
        <ele>242.84651</ele>
        <time>2023-11-23T09:05:59.000Z</time>
      </trkpt>
      <trkpt lat="45.84935" lon="4.68668">
        <ele>242.9207</ele>
        <time>2023-11-23T09:06:00.000Z</time>
      </trkpt>
      <trkpt lat="45.8494" lon="4.68668">
        <ele>243.00211</ele>
        <time>2023-11-23T09:06:01.000Z</time>
      </trkpt>
      <trkpt lat="45.84944" lon="4.68667">
        <ele>243.08821</ele>
        <time>2023-11-23T09:06:02.000Z</time>
      </trkpt>
      <trkpt lat="45.84949" lon="4.68666">
        <ele>243.15862</ele>
        <time>2023-11-23T09:06:03.000Z</time>
      </trkpt>
      <trkpt lat="45.84953" lon="4.68666">
        <ele>243.23796</ele>
        <time>2023-11-23T09:06:04.000Z</time>
      </trkpt>
      <trkpt lat="45.84957" lon="4.68666">
        <ele>242.61113</ele>
        <time>2023-11-23T09:06:05.000Z</time>
      </trkpt>
      <trkpt lat="45.84961" lon="4.68666">
        <ele>242.12488</ele>
        <time>2023-11-23T09:06:06.000Z</time>
      </trkpt>
      <trkpt lat="45.84965" lon="4.68667">
        <ele>241.64517</ele>
        <time>2023-11-23T09:06:07.000Z</time>
      </trkpt>
      <trkpt lat="45.84968" lon="4.68667">
        <ele>241.96902</ele>
        <time>2023-11-23T09:06:08.000Z</time>
      </trkpt>
      <trkpt lat="45.84973" lon="4.68667">
        <ele>242.50032</ele>
        <time>2023-11-23T09:06:09.000Z</time>
      </trkpt>
      <trkpt lat="45.84977" lon="4.68667">
        <ele>243.25137</ele>
        <time>2023-11-23T09:06:10.000Z</time>
      </trkpt>
      <trkpt lat="45.8498" lon="4.68667">
        <ele>243.98727</ele>
        <time>2023-11-23T09:06:11.000Z</time>
      </trkpt>
      <trkpt lat="45.84984" lon="4.68667">
        <ele>243.95847</ele>
        <time>2023-11-23T09:06:12.000Z</time>
      </trkpt>
      <trkpt lat="45.84986" lon="4.68667">
        <ele>244.07597</ele>
        <time>2023-11-23T09:06:13.000Z</time>
      </trkpt>
      <trkpt lat="45.84989" lon="4.68668">
        <ele>244.15439</ele>
        <time>2023-11-23T09:06:14.000Z</time>
      </trkpt>
      <trkpt lat="45.84991" lon="4.68668">
        <ele>244.25473</ele>
        <time>2023-11-23T09:06:15.000Z</time>
      </trkpt>
      <trkpt lat="45.84993" lon="4.68668">
        <ele>244.3754</ele>
        <time>2023-11-23T09:06:16.000Z</time>
      </trkpt>
      <trkpt lat="45.84996" lon="4.68668">
        <ele>244.45622</ele>
        <time>2023-11-23T09:06:17.000Z</time>
      </trkpt>
      <trkpt lat="45.84998" lon="4.68668">
        <ele>244.55754</ele>
        <time>2023-11-23T09:06:18.000Z</time>
      </trkpt>
      <trkpt lat="45.85" lon="4.68669">
        <ele>244.67207</ele>
        <time>2023-11-23T09:06:19.000Z</time>
      </trkpt>
      <trkpt lat="45.85002" lon="4.68669">
        <ele>244.76871</ele>
        <time>2023-11-23T09:06:20.000Z</time>
      </trkpt>
      <trkpt lat="45.85005" lon="4.68669">
        <ele>244.85872</ele>
        <time>2023-11-23T09:06:21.000Z</time>
      </trkpt>
      <trkpt lat="45.85007" lon="4.68668">
        <ele>244.95927</ele>
        <time>2023-11-23T09:06:22.000Z</time>
      </trkpt>
      <trkpt lat="45.8501" lon="4.68669">
        <ele>244.70291</ele>
        <time>2023-11-23T09:06:23.000Z</time>
      </trkpt>
      <trkpt lat="45.85012" lon="4.68669">
        <ele>244.20175</ele>
        <time>2023-11-23T09:06:24.000Z</time>
      </trkpt>
      <trkpt lat="45.85015" lon="4.68669">
        <ele>244.75833</ele>
        <time>2023-11-23T09:06:25.000Z</time>
      </trkpt>
      <trkpt lat="45.85018" lon="4.6867">
        <ele>245.19478</ele>
        <time>2023-11-23T09:06:26.000Z</time>
      </trkpt>
      <trkpt lat="45.85022" lon="4.6867">
        <ele>245.79375</ele>
        <time>2023-11-23T09:06:27.000Z</time>
      </trkpt>
      <trkpt lat="45.85025" lon="4.68671">
        <ele>246.37398</ele>
        <time>2023-11-23T09:06:28.000Z</time>
      </trkpt>
      <trkpt lat="45.85028" lon="4.68672">
        <ele>246.61409</ele>
        <time>2023-11-23T09:06:29.000Z</time>
      </trkpt>
      <trkpt lat="45.85031" lon="4.68673">
        <ele>245.86157</ele>
        <time>2023-11-23T09:06:30.000Z</time>
      </trkpt>
      <trkpt lat="45.85034" lon="4.68674">
        <ele>245.25737</ele>
        <time>2023-11-23T09:06:31.000Z</time>
      </trkpt>
      <trkpt lat="45.85036" lon="4.68676">
        <ele>245.36389</ele>
        <time>2023-11-23T09:06:32.000Z</time>
      </trkpt>
      <trkpt lat="45.85038" lon="4.68678">
        <ele>245.36496</ele>
        <time>2023-11-23T09:06:33.000Z</time>
      </trkpt>
      <trkpt lat="45.8504" lon="4.6868">
        <ele>245.33627</ele>
        <time>2023-11-23T09:06:34.000Z</time>
      </trkpt>
      <trkpt lat="45.85042" lon="4.68681">
        <ele>245.31351</ele>
        <time>2023-11-23T09:06:35.000Z</time>
      </trkpt>
      <trkpt lat="45.85043" lon="4.68679">
        <ele>245.26355</ele>
        <time>2023-11-23T09:06:36.000Z</time>
      </trkpt>
      <trkpt lat="45.85044" lon="4.68676">
        <ele>245.2634</ele>
        <time>2023-11-23T09:06:37.000Z</time>
      </trkpt>
      <trkpt lat="45.85045" lon="4.68674">
        <ele>245.26315</ele>
        <time>2023-11-23T09:06:38.000Z</time>
      </trkpt>
      <trkpt lat="45.85047" lon="4.68675">
        <ele>245.24048</ele>
        <time>2023-11-23T09:06:39.000Z</time>
      </trkpt>
      <trkpt lat="45.85048" lon="4.68679">
        <ele>245.25082</ele>
        <time>2023-11-23T09:06:40.000Z</time>
      </trkpt>
      <trkpt lat="45.85047" lon="4.68683">
        <ele>245.23848</ele>
        <time>2023-11-23T09:06:41.000Z</time>
      </trkpt>
      <trkpt lat="45.85045" lon="4.68687">
        <ele>245.19958</ele>
        <time>2023-11-23T09:06:42.000Z</time>
      </trkpt>
      <trkpt lat="45.85043" lon="4.68691">
        <ele>245.19168</ele>
        <time>2023-11-23T09:06:43.000Z</time>
      </trkpt>
      <trkpt lat="45.85041" lon="4.68696">
        <ele>245.20584</ele>
        <time>2023-11-23T09:06:44.000Z</time>
      </trkpt>
      <trkpt lat="45.85039" lon="4.68701">
        <ele>244.8322</ele>
        <time>2023-11-23T09:06:45.000Z</time>
      </trkpt>
      <trkpt lat="45.85037" lon="4.68706">
        <ele>244.4416</ele>
        <time>2023-11-23T09:06:46.000Z</time>
      </trkpt>
      <trkpt lat="45.85035" lon="4.68711">
        <ele>243.87021</ele>
        <time>2023-11-23T09:06:47.000Z</time>
      </trkpt>
      <trkpt lat="45.85033" lon="4.68717">
        <ele>243.29898</ele>
        <time>2023-11-23T09:06:48.000Z</time>
      </trkpt>
      <trkpt lat="45.85029" lon="4.68722">
        <ele>242.68486</ele>
        <time>2023-11-23T09:06:49.000Z</time>
      </trkpt>
      <trkpt lat="45.85027" lon="4.68728">
        <ele>242.79489</ele>
        <time>2023-11-23T09:06:50.000Z</time>
      </trkpt>
      <trkpt lat="45.85024" lon="4.68735">
        <ele>242.75858</ele>
        <time>2023-11-23T09:06:51.000Z</time>
      </trkpt>
      <trkpt lat="45.85021" lon="4.68741">
        <ele>242.72107</ele>
        <time>2023-11-23T09:06:52.000Z</time>
      </trkpt>
      <trkpt lat="45.85018" lon="4.68749">
        <ele>242.66882</ele>
        <time>2023-11-23T09:06:53.000Z</time>
      </trkpt>
      <trkpt lat="45.85015" lon="4.68755">
        <ele>242.6586</ele>
        <time>2023-11-23T09:06:54.000Z</time>
      </trkpt>
      <trkpt lat="45.85012" lon="4.68762">
        <ele>242.55844</ele>
        <time>2023-11-23T09:06:55.000Z</time>
      </trkpt>
      <trkpt lat="45.85008" lon="4.68769">
        <ele>242.4729</ele>
        <time>2023-11-23T09:06:56.000Z</time>
      </trkpt>
      <trkpt lat="45.85004" lon="4.68776">
        <ele>242.33321</ele>
        <time>2023-11-23T09:06:57.000Z</time>
      </trkpt>
      <trkpt lat="45.85" lon="4.68783">
        <ele>242.1926</ele>
        <time>2023-11-23T09:06:58.000Z</time>
      </trkpt>
      <trkpt lat="45.84996" lon="4.68789">
        <ele>242.01823</ele>
        <time>2023-11-23T09:06:59.000Z</time>
      </trkpt>
      <trkpt lat="45.84991" lon="4.68796">
        <ele>241.85193</ele>
        <time>2023-11-23T09:07:00.000Z</time>
      </trkpt>
      <trkpt lat="45.84987" lon="4.68802">
        <ele>241.66846</ele>
        <time>2023-11-23T09:07:01.000Z</time>
      </trkpt>
      <trkpt lat="45.84982" lon="4.68808">
        <ele>241.44926</ele>
        <time>2023-11-23T09:07:02.000Z</time>
      </trkpt>
      <trkpt lat="45.84978" lon="4.68813">
        <ele>241.22433</ele>
        <time>2023-11-23T09:07:03.000Z</time>
      </trkpt>
      <trkpt lat="45.84974" lon="4.6882">
        <ele>240.9686</ele>
        <time>2023-11-23T09:07:04.000Z</time>
      </trkpt>
      <trkpt lat="45.84969" lon="4.68825">
        <ele>240.7272</ele>
        <time>2023-11-23T09:07:05.000Z</time>
      </trkpt>
      <trkpt lat="45.84965" lon="4.68831">
        <ele>240.48877</ele>
        <time>2023-11-23T09:07:06.000Z</time>
      </trkpt>
      <trkpt lat="45.8496" lon="4.68835">
        <ele>240.28023</ele>
        <time>2023-11-23T09:07:07.000Z</time>
      </trkpt>
      <trkpt lat="45.84955" lon="4.68839">
        <ele>240.08578</ele>
        <time>2023-11-23T09:07:08.000Z</time>
      </trkpt>
      <trkpt lat="45.8495" lon="4.68843">
        <ele>240.29037</ele>
        <time>2023-11-23T09:07:09.000Z</time>
      </trkpt>
      <trkpt lat="45.84946" lon="4.68848">
        <ele>240.7981</ele>
        <time>2023-11-23T09:07:10.000Z</time>
      </trkpt>
      <trkpt lat="45.84941" lon="4.68852">
        <ele>241.33505</ele>
        <time>2023-11-23T09:07:11.000Z</time>
      </trkpt>
      <trkpt lat="45.84936" lon="4.68857">
        <ele>241.08163</ele>
        <time>2023-11-23T09:07:12.000Z</time>
      </trkpt>
      <trkpt lat="45.84932" lon="4.6886">
        <ele>240.95276</ele>
        <time>2023-11-23T09:07:13.000Z</time>
      </trkpt>
      <trkpt lat="45.84928" lon="4.68864">
        <ele>240.80705</ele>
        <time>2023-11-23T09:07:14.000Z</time>
      </trkpt>
      <trkpt lat="45.84923" lon="4.68869">
        <ele>240.67575</ele>
        <time>2023-11-23T09:07:15.000Z</time>
      </trkpt>
      <trkpt lat="45.84919" lon="4.68873">
        <ele>240.59843</ele>
        <time>2023-11-23T09:07:16.000Z</time>
      </trkpt>
      <trkpt lat="45.84915" lon="4.68877">
        <ele>240.51277</ele>
        <time>2023-11-23T09:07:17.000Z</time>
      </trkpt>
      <trkpt lat="45.84912" lon="4.6888">
        <ele>240.45149</ele>
        <time>2023-11-23T09:07:18.000Z</time>
      </trkpt>
      <trkpt lat="45.84909" lon="4.68883">
        <ele>240.42029</ele>
        <time>2023-11-23T09:07:19.000Z</time>
      </trkpt>
      <trkpt lat="45.84907" lon="4.68885">
        <ele>240.40117</ele>
        <time>2023-11-23T09:07:20.000Z</time>
      </trkpt>
      <trkpt lat="45.84905" lon="4.68887">
        <ele>240.42545</ele>
        <time>2023-11-23T09:07:21.000Z</time>
      </trkpt>
      <trkpt lat="45.84903" lon="4.68889">
        <ele>240.5209</ele>
        <time>2023-11-23T09:07:22.000Z</time>
      </trkpt>
      <trkpt lat="45.849" lon="4.68891">
        <ele>240.5712</ele>
        <time>2023-11-23T09:07:23.000Z</time>
      </trkpt>
      <trkpt lat="45.84897" lon="4.68893">
        <ele>240.66508</ele>
        <time>2023-11-23T09:07:24.000Z</time>
      </trkpt>
      <trkpt lat="45.84893" lon="4.68895">
        <ele>240.77292</ele>
        <time>2023-11-23T09:07:25.000Z</time>
      </trkpt>
      <trkpt lat="45.8489" lon="4.68898">
        <ele>240.87708</ele>
        <time>2023-11-23T09:07:26.000Z</time>
      </trkpt>
      <trkpt lat="45.84887" lon="4.68901">
        <ele>240.93938</ele>
        <time>2023-11-23T09:07:27.000Z</time>
      </trkpt>
      <trkpt lat="45.84884" lon="4.68903">
        <ele>240.98172</ele>
        <time>2023-11-23T09:07:28.000Z</time>
      </trkpt>
      <trkpt lat="45.8488" lon="4.68905">
        <ele>240.65579</ele>
        <time>2023-11-23T09:07:29.000Z</time>
      </trkpt>
      <trkpt lat="45.84876" lon="4.68907">
        <ele>240.03543</ele>
        <time>2023-11-23T09:07:30.000Z</time>
      </trkpt>
      <trkpt lat="45.84873" lon="4.68909">
        <ele>239.39896</ele>
        <time>2023-11-23T09:07:31.000Z</time>
      </trkpt>
      <trkpt lat="45.8487" lon="4.68912">
        <ele>239.54956</ele>
        <time>2023-11-23T09:07:32.000Z</time>
      </trkpt>
      <trkpt lat="45.84866" lon="4.68914">
        <ele>239.56856</ele>
        <time>2023-11-23T09:07:33.000Z</time>
      </trkpt>
      <trkpt lat="45.84863" lon="4.68917">
        <ele>239.59305</ele>
        <time>2023-11-23T09:07:34.000Z</time>
      </trkpt>
      <trkpt lat="45.8486" lon="4.68919">
        <ele>240.0072</ele>
        <time>2023-11-23T09:07:35.000Z</time>
      </trkpt>
      <trkpt lat="45.84856" lon="4.68922">
        <ele>240.63852</ele>
        <time>2023-11-23T09:07:36.000Z</time>
      </trkpt>
      <trkpt lat="45.84853" lon="4.68924">
        <ele>240.53836</ele>
        <time>2023-11-23T09:07:37.000Z</time>
      </trkpt>
      <trkpt lat="45.8485" lon="4.68927">
        <ele>240.54919</ele>
        <time>2023-11-23T09:07:38.000Z</time>
      </trkpt>
      <trkpt lat="45.84847" lon="4.68929">
        <ele>240.56284</ele>
        <time>2023-11-23T09:07:39.000Z</time>
      </trkpt>
      <trkpt lat="45.84844" lon="4.68931">
        <ele>240.54204</ele>
        <time>2023-11-23T09:07:40.000Z</time>
      </trkpt>
      <trkpt lat="45.84841" lon="4.68933">
        <ele>240.45193</ele>
        <time>2023-11-23T09:07:41.000Z</time>
      </trkpt>
      <trkpt lat="45.84838" lon="4.68936">
        <ele>240.33281</ele>
        <time>2023-11-23T09:07:42.000Z</time>
      </trkpt>
      <trkpt lat="45.84835" lon="4.68939">
        <ele>240.24265</ele>
        <time>2023-11-23T09:07:43.000Z</time>
      </trkpt>
      <trkpt lat="45.84832" lon="4.68941">
        <ele>240.22307</ele>
        <time>2023-11-23T09:07:44.000Z</time>
      </trkpt>
      <trkpt lat="45.8483" lon="4.68944">
        <ele>240.18466</ele>
        <time>2023-11-23T09:07:45.000Z</time>
      </trkpt>
      <trkpt lat="45.84827" lon="4.68946">
        <ele>240.1644</ele>
        <time>2023-11-23T09:07:46.000Z</time>
      </trkpt>
      <trkpt lat="45.84824" lon="4.68948">
        <ele>240.16617</ele>
        <time>2023-11-23T09:07:47.000Z</time>
      </trkpt>
      <trkpt lat="45.84822" lon="4.6895">
        <ele>240.22009</ele>
        <time>2023-11-23T09:07:48.000Z</time>
      </trkpt>
      <trkpt lat="45.84819" lon="4.68952">
        <ele>240.29646</ele>
        <time>2023-11-23T09:07:49.000Z</time>
      </trkpt>
      <trkpt lat="45.84816" lon="4.68954">
        <ele>240.37102</ele>
        <time>2023-11-23T09:07:50.000Z</time>
      </trkpt>
      <trkpt lat="45.84813" lon="4.68956">
        <ele>240.45523</ele>
        <time>2023-11-23T09:07:51.000Z</time>
      </trkpt>
      <trkpt lat="45.84811" lon="4.68958">
        <ele>240.58334</ele>
        <time>2023-11-23T09:07:52.000Z</time>
      </trkpt>
      <trkpt lat="45.84808" lon="4.68961">
        <ele>240.71921</ele>
        <time>2023-11-23T09:07:53.000Z</time>
      </trkpt>
      <trkpt lat="45.84805" lon="4.68964">
        <ele>240.84114</ele>
        <time>2023-11-23T09:07:54.000Z</time>
      </trkpt>
      <trkpt lat="45.84802" lon="4.68966">
        <ele>240.60872</ele>
        <time>2023-11-23T09:07:55.000Z</time>
      </trkpt>
      <trkpt lat="45.84799" lon="4.68969">
        <ele>240.13913</ele>
        <time>2023-11-23T09:07:56.000Z</time>
      </trkpt>
      <trkpt lat="45.84796" lon="4.68971">
        <ele>240.43484</ele>
        <time>2023-11-23T09:07:57.000Z</time>
      </trkpt>
      <trkpt lat="45.84794" lon="4.68974">
        <ele>240.58044</ele>
        <time>2023-11-23T09:07:58.000Z</time>
      </trkpt>
      <trkpt lat="45.84791" lon="4.68977">
        <ele>240.7197</ele>
        <time>2023-11-23T09:07:59.000Z</time>
      </trkpt>
      <trkpt lat="45.84788" lon="4.6898">
        <ele>240.91426</ele>
        <time>2023-11-23T09:08:00.000Z</time>
      </trkpt>
      <trkpt lat="45.84786" lon="4.68982">
        <ele>241.16927</ele>
        <time>2023-11-23T09:08:01.000Z</time>
      </trkpt>
      <trkpt lat="45.84783" lon="4.68984">
        <ele>241.42502</ele>
        <time>2023-11-23T09:08:02.000Z</time>
      </trkpt>
      <trkpt lat="45.8478" lon="4.68986">
        <ele>241.69304</ele>
        <time>2023-11-23T09:08:03.000Z</time>
      </trkpt>
      <trkpt lat="45.84777" lon="4.68989">
        <ele>241.8671</ele>
        <time>2023-11-23T09:08:04.000Z</time>
      </trkpt>
      <trkpt lat="45.84775" lon="4.68991">
        <ele>242.39819</ele>
        <time>2023-11-23T09:08:05.000Z</time>
      </trkpt>
      <trkpt lat="45.84772" lon="4.68994">
        <ele>243.09073</ele>
        <time>2023-11-23T09:08:06.000Z</time>
      </trkpt>
      <trkpt lat="45.84769" lon="4.68996">
        <ele>243.99442</ele>
        <time>2023-11-23T09:08:07.000Z</time>
      </trkpt>
      <trkpt lat="45.84767" lon="4.68999">
        <ele>244.11772</ele>
        <time>2023-11-23T09:08:08.000Z</time>
      </trkpt>
      <trkpt lat="45.84764" lon="4.69001">
        <ele>244.31181</ele>
        <time>2023-11-23T09:08:09.000Z</time>
      </trkpt>
      <trkpt lat="45.84762" lon="4.69004">
        <ele>244.48563</ele>
        <time>2023-11-23T09:08:10.000Z</time>
      </trkpt>
      <trkpt lat="45.84759" lon="4.69007">
        <ele>244.66463</ele>
        <time>2023-11-23T09:08:11.000Z</time>
      </trkpt>
      <trkpt lat="45.84757" lon="4.6901">
        <ele>244.87589</ele>
        <time>2023-11-23T09:08:12.000Z</time>
      </trkpt>
      <trkpt lat="45.84754" lon="4.69013">
        <ele>245.08943</ele>
        <time>2023-11-23T09:08:13.000Z</time>
      </trkpt>
      <trkpt lat="45.84751" lon="4.69015">
        <ele>245.32968</ele>
        <time>2023-11-23T09:08:14.000Z</time>
      </trkpt>
      <trkpt lat="45.84749" lon="4.69018">
        <ele>245.53642</ele>
        <time>2023-11-23T09:08:15.000Z</time>
      </trkpt>
      <trkpt lat="45.84746" lon="4.6902">
        <ele>245.7175</ele>
        <time>2023-11-23T09:08:16.000Z</time>
      </trkpt>
      <trkpt lat="45.84743" lon="4.69022">
        <ele>245.95139</ele>
        <time>2023-11-23T09:08:17.000Z</time>
      </trkpt>
      <trkpt lat="45.84741" lon="4.69024">
        <ele>246.17664</ele>
        <time>2023-11-23T09:08:18.000Z</time>
      </trkpt>
      <trkpt lat="45.84738" lon="4.69026">
        <ele>246.41101</ele>
        <time>2023-11-23T09:08:19.000Z</time>
      </trkpt>
      <trkpt lat="45.84735" lon="4.69027">
        <ele>246.61746</ele>
        <time>2023-11-23T09:08:20.000Z</time>
      </trkpt>
      <trkpt lat="45.84733" lon="4.69029">
        <ele>246.78552</ele>
        <time>2023-11-23T09:08:21.000Z</time>
      </trkpt>
      <trkpt lat="45.8473" lon="4.6903">
        <ele>246.99072</ele>
        <time>2023-11-23T09:08:22.000Z</time>
      </trkpt>
      <trkpt lat="45.84726" lon="4.69032">
        <ele>247.15752</ele>
        <time>2023-11-23T09:08:23.000Z</time>
      </trkpt>
      <trkpt lat="45.84723" lon="4.69033">
        <ele>247.31267</ele>
        <time>2023-11-23T09:08:24.000Z</time>
      </trkpt>
      <trkpt lat="45.8472" lon="4.69034">
        <ele>247.15958</ele>
        <time>2023-11-23T09:08:25.000Z</time>
      </trkpt>
      <trkpt lat="45.84716" lon="4.69035">
        <ele>246.78242</ele>
        <time>2023-11-23T09:08:26.000Z</time>
      </trkpt>
      <trkpt lat="45.84713" lon="4.69037">
        <ele>246.20622</ele>
        <time>2023-11-23T09:08:27.000Z</time>
      </trkpt>
      <trkpt lat="45.84709" lon="4.69038">
        <ele>246.42197</ele>
        <time>2023-11-23T09:08:28.000Z</time>
      </trkpt>
      <trkpt lat="45.84707" lon="4.69039">
        <ele>246.54385</ele>
        <time>2023-11-23T09:08:29.000Z</time>
      </trkpt>
      <trkpt lat="45.84703" lon="4.69041">
        <ele>246.71936</ele>
        <time>2023-11-23T09:08:30.000Z</time>
      </trkpt>
      <trkpt lat="45.847" lon="4.69042">
        <ele>246.6658</ele>
        <time>2023-11-23T09:08:31.000Z</time>
      </trkpt>
      <trkpt lat="45.84697" lon="4.69044">
        <ele>246.55917</ele>
        <time>2023-11-23T09:08:32.000Z</time>
      </trkpt>
      <trkpt lat="45.84694" lon="4.69046">
        <ele>246.45525</ele>
        <time>2023-11-23T09:08:33.000Z</time>
      </trkpt>
      <trkpt lat="45.84691" lon="4.69048">
        <ele>246.34958</ele>
        <time>2023-11-23T09:08:34.000Z</time>
      </trkpt>
      <trkpt lat="45.84688" lon="4.6905">
        <ele>246.28635</ele>
        <time>2023-11-23T09:08:35.000Z</time>
      </trkpt>
      <trkpt lat="45.84686" lon="4.69053">
        <ele>246.23489</ele>
        <time>2023-11-23T09:08:36.000Z</time>
      </trkpt>
      <trkpt lat="45.84683" lon="4.69055">
        <ele>246.15796</ele>
        <time>2023-11-23T09:08:37.000Z</time>
      </trkpt>
      <trkpt lat="45.8468" lon="4.69058">
        <ele>246.11499</ele>
        <time>2023-11-23T09:08:38.000Z</time>
      </trkpt>
      <trkpt lat="45.84678" lon="4.6906">
        <ele>246.08427</ele>
        <time>2023-11-23T09:08:39.000Z</time>
      </trkpt>
      <trkpt lat="45.84675" lon="4.69062">
        <ele>246.05875</ele>
        <time>2023-11-23T09:08:40.000Z</time>
      </trkpt>
      <trkpt lat="45.84673" lon="4.69065">
        <ele>246.09396</ele>
        <time>2023-11-23T09:08:41.000Z</time>
      </trkpt>
      <trkpt lat="45.84672" lon="4.69069">
        <ele>246.11658</ele>
        <time>2023-11-23T09:08:42.000Z</time>
      </trkpt>
      <trkpt lat="45.84671" lon="4.69073">
        <ele>246.19754</ele>
        <time>2023-11-23T09:08:43.000Z</time>
      </trkpt>
      <trkpt lat="45.8467" lon="4.69077">
        <ele>246.29166</ele>
        <time>2023-11-23T09:08:44.000Z</time>
      </trkpt>
      <trkpt lat="45.84669" lon="4.6908">
        <ele>246.41757</ele>
        <time>2023-11-23T09:08:45.000Z</time>
      </trkpt>
      <trkpt lat="45.84668" lon="4.69083">
        <ele>246.59048</ele>
        <time>2023-11-23T09:08:46.000Z</time>
      </trkpt>
      <trkpt lat="45.84668" lon="4.69086">
        <ele>246.74966</ele>
        <time>2023-11-23T09:08:47.000Z</time>
      </trkpt>
      <trkpt lat="45.84668" lon="4.6909">
        <ele>246.88506</ele>
        <time>2023-11-23T09:08:48.000Z</time>
      </trkpt>
      <trkpt lat="45.84667" lon="4.69094">
        <ele>247.04102</ele>
        <time>2023-11-23T09:08:49.000Z</time>
      </trkpt>
      <trkpt lat="45.84666" lon="4.69098">
        <ele>247.37561</ele>
        <time>2023-11-23T09:08:50.000Z</time>
      </trkpt>
      <trkpt lat="45.84666" lon="4.69101">
        <ele>247.87479</ele>
        <time>2023-11-23T09:08:51.000Z</time>
      </trkpt>
      <trkpt lat="45.84666" lon="4.69105">
        <ele>248.35449</ele>
        <time>2023-11-23T09:08:52.000Z</time>
      </trkpt>
      <trkpt lat="45.84666" lon="4.69108">
        <ele>248.81558</ele>
        <time>2023-11-23T09:08:53.000Z</time>
      </trkpt>
      <trkpt lat="45.84665" lon="4.69111">
        <ele>249.27193</ele>
        <time>2023-11-23T09:08:54.000Z</time>
      </trkpt>
      <trkpt lat="45.84665" lon="4.69114">
        <ele>249.70508</ele>
        <time>2023-11-23T09:08:55.000Z</time>
      </trkpt>
      <trkpt lat="45.84664" lon="4.69117">
        <ele>250.41206</ele>
        <time>2023-11-23T09:08:56.000Z</time>
      </trkpt>
      <trkpt lat="45.84664" lon="4.69121">
        <ele>251.11032</ele>
        <time>2023-11-23T09:08:57.000Z</time>
      </trkpt>
      <trkpt lat="45.84664" lon="4.69124">
        <ele>251.80779</ele>
        <time>2023-11-23T09:08:58.000Z</time>
      </trkpt>
      <trkpt lat="45.84664" lon="4.69127">
        <ele>252.56393</ele>
        <time>2023-11-23T09:08:59.000Z</time>
      </trkpt>
      <trkpt lat="45.84665" lon="4.6913">
        <ele>253.41028</ele>
        <time>2023-11-23T09:09:00.000Z</time>
      </trkpt>
      <trkpt lat="45.84665" lon="4.69134">
        <ele>254.36526</ele>
        <time>2023-11-23T09:09:01.000Z</time>
      </trkpt>
      <trkpt lat="45.84666" lon="4.69137">
        <ele>255.31792</ele>
        <time>2023-11-23T09:09:02.000Z</time>
      </trkpt>
      <trkpt lat="45.84666" lon="4.6914">
        <ele>255.77383</ele>
        <time>2023-11-23T09:09:03.000Z</time>
      </trkpt>
      <trkpt lat="45.84667" lon="4.69144">
        <ele>256.36887</ele>
        <time>2023-11-23T09:09:04.000Z</time>
      </trkpt>
      <trkpt lat="45.84667" lon="4.69147">
        <ele>256.91666</ele>
        <time>2023-11-23T09:09:05.000Z</time>
      </trkpt>
      <trkpt lat="45.84668" lon="4.69151">
        <ele>257.38217</ele>
        <time>2023-11-23T09:09:06.000Z</time>
      </trkpt>
      <trkpt lat="45.84668" lon="4.69154">
        <ele>257.7854</ele>
        <time>2023-11-23T09:09:07.000Z</time>
      </trkpt>
      <trkpt lat="45.84668" lon="4.69157">
        <ele>258.14722</ele>
        <time>2023-11-23T09:09:08.000Z</time>
      </trkpt>
      <trkpt lat="45.84668" lon="4.6916">
        <ele>258.51923</ele>
        <time>2023-11-23T09:09:09.000Z</time>
      </trkpt>
      <trkpt lat="45.84668" lon="4.69163">
        <ele>258.86011</ele>
        <time>2023-11-23T09:09:10.000Z</time>
      </trkpt>
      <trkpt lat="45.84668" lon="4.69167">
        <ele>259.20557</ele>
        <time>2023-11-23T09:09:11.000Z</time>
      </trkpt>
      <trkpt lat="45.84668" lon="4.6917">
        <ele>259.55194</ele>
        <time>2023-11-23T09:09:12.000Z</time>
      </trkpt>
      <trkpt lat="45.84668" lon="4.69174">
        <ele>259.80493</ele>
        <time>2023-11-23T09:09:13.000Z</time>
      </trkpt>
      <trkpt lat="45.84668" lon="4.69177">
        <ele>260.02261</ele>
        <time>2023-11-23T09:09:14.000Z</time>
      </trkpt>
      <trkpt lat="45.84668" lon="4.6918">
        <ele>260.26212</ele>
        <time>2023-11-23T09:09:15.000Z</time>
      </trkpt>
      <trkpt lat="45.84668" lon="4.69184">
        <ele>260.17337</ele>
        <time>2023-11-23T09:09:16.000Z</time>
      </trkpt>
      <trkpt lat="45.84668" lon="4.69187">
        <ele>260.18344</ele>
        <time>2023-11-23T09:09:17.000Z</time>
      </trkpt>
      <trkpt lat="45.84668" lon="4.69191">
        <ele>260.13666</ele>
        <time>2023-11-23T09:09:18.000Z</time>
      </trkpt>
      <trkpt lat="45.84668" lon="4.69195">
        <ele>260.00165</ele>
        <time>2023-11-23T09:09:19.000Z</time>
      </trkpt>
      <trkpt lat="45.84667" lon="4.69199">
        <ele>259.79544</ele>
        <time>2023-11-23T09:09:20.000Z</time>
      </trkpt>
      <trkpt lat="45.84667" lon="4.69203">
        <ele>259.40424</ele>
        <time>2023-11-23T09:09:21.000Z</time>
      </trkpt>
      <trkpt lat="45.84666" lon="4.69208">
        <ele>259.05328</ele>
        <time>2023-11-23T09:09:22.000Z</time>
      </trkpt>
      <trkpt lat="45.84666" lon="4.69212">
        <ele>259.11069</ele>
        <time>2023-11-23T09:09:23.000Z</time>
      </trkpt>
      <trkpt lat="45.84665" lon="4.69216">
        <ele>258.98175</ele>
        <time>2023-11-23T09:09:24.000Z</time>
      </trkpt>
      <trkpt lat="45.84664" lon="4.6922">
        <ele>258.88251</ele>
        <time>2023-11-23T09:09:25.000Z</time>
      </trkpt>
      <trkpt lat="45.84664" lon="4.69224">
        <ele>258.8631</ele>
        <time>2023-11-23T09:09:26.000Z</time>
      </trkpt>
      <trkpt lat="45.84663" lon="4.69228">
        <ele>258.90668</ele>
        <time>2023-11-23T09:09:27.000Z</time>
      </trkpt>
      <trkpt lat="45.84662" lon="4.69232">
        <ele>258.96259</ele>
        <time>2023-11-23T09:09:28.000Z</time>
      </trkpt>
      <trkpt lat="45.84661" lon="4.69237">
        <ele>258.97266</ele>
        <time>2023-11-23T09:09:29.000Z</time>
      </trkpt>
      <trkpt lat="45.8466" lon="4.69241">
        <ele>258.79202</ele>
        <time>2023-11-23T09:09:30.000Z</time>
      </trkpt>
      <trkpt lat="45.84659" lon="4.69245">
        <ele>258.65417</ele>
        <time>2023-11-23T09:09:31.000Z</time>
      </trkpt>
      <trkpt lat="45.84657" lon="4.6925">
        <ele>258.83078</ele>
        <time>2023-11-23T09:09:32.000Z</time>
      </trkpt>
      <trkpt lat="45.84656" lon="4.69254">
        <ele>259.25195</ele>
        <time>2023-11-23T09:09:33.000Z</time>
      </trkpt>
      <trkpt lat="45.84656" lon="4.69259">
        <ele>259.69708</ele>
        <time>2023-11-23T09:09:34.000Z</time>
      </trkpt>
      <trkpt lat="45.84655" lon="4.69263">
        <ele>260.15671</ele>
        <time>2023-11-23T09:09:35.000Z</time>
      </trkpt>
      <trkpt lat="45.84654" lon="4.69268">
        <ele>260.64386</ele>
        <time>2023-11-23T09:09:36.000Z</time>
      </trkpt>
      <trkpt lat="45.84654" lon="4.69272">
        <ele>260.93567</ele>
        <time>2023-11-23T09:09:37.000Z</time>
      </trkpt>
      <trkpt lat="45.84653" lon="4.69277">
        <ele>261.173</ele>
        <time>2023-11-23T09:09:38.000Z</time>
      </trkpt>
      <trkpt lat="45.84652" lon="4.69282">
        <ele>261.62384</ele>
        <time>2023-11-23T09:09:39.000Z</time>
      </trkpt>
      <trkpt lat="45.84652" lon="4.69287">
        <ele>261.98016</ele>
        <time>2023-11-23T09:09:40.000Z</time>
      </trkpt>
      <trkpt lat="45.84651" lon="4.69292">
        <ele>262.40585</ele>
        <time>2023-11-23T09:09:41.000Z</time>
      </trkpt>
      <trkpt lat="45.84651" lon="4.69296">
        <ele>262.72842</ele>
        <time>2023-11-23T09:09:42.000Z</time>
      </trkpt>
      <trkpt lat="45.8465" lon="4.69299">
        <ele>263.08807</ele>
        <time>2023-11-23T09:09:43.000Z</time>
      </trkpt>
      <trkpt lat="45.84649" lon="4.69304">
        <ele>263.43344</ele>
        <time>2023-11-23T09:09:44.000Z</time>
      </trkpt>
      <trkpt lat="45.84648" lon="4.69308">
        <ele>263.82379</ele>
        <time>2023-11-23T09:09:45.000Z</time>
      </trkpt>
      <trkpt lat="45.84647" lon="4.69311">
        <ele>264.36749</ele>
        <time>2023-11-23T09:09:46.000Z</time>
      </trkpt>
      <trkpt lat="45.84646" lon="4.69315">
        <ele>264.90543</ele>
        <time>2023-11-23T09:09:47.000Z</time>
      </trkpt>
      <trkpt lat="45.84646" lon="4.69318">
        <ele>264.92758</ele>
        <time>2023-11-23T09:09:48.000Z</time>
      </trkpt>
      <trkpt lat="45.84645" lon="4.69322">
        <ele>265.11133</ele>
        <time>2023-11-23T09:09:49.000Z</time>
      </trkpt>
      <trkpt lat="45.84644" lon="4.69327">
        <ele>265.35205</ele>
        <time>2023-11-23T09:09:50.000Z</time>
      </trkpt>
      <trkpt lat="45.84643" lon="4.6933">
        <ele>265.59436</ele>
        <time>2023-11-23T09:09:51.000Z</time>
      </trkpt>
      <trkpt lat="45.84643" lon="4.69334">
        <ele>265.58392</ele>
        <time>2023-11-23T09:09:52.000Z</time>
      </trkpt>
      <trkpt lat="45.84642" lon="4.69337">
        <ele>265.39194</ele>
        <time>2023-11-23T09:09:53.000Z</time>
      </trkpt>
      <trkpt lat="45.8464" lon="4.69341">
        <ele>265.17371</ele>
        <time>2023-11-23T09:09:54.000Z</time>
      </trkpt>
      <trkpt lat="45.84639" lon="4.69344">
        <ele>264.98441</ele>
        <time>2023-11-23T09:09:55.000Z</time>
      </trkpt>
      <trkpt lat="45.84638" lon="4.69347">
        <ele>264.87799</ele>
        <time>2023-11-23T09:09:56.000Z</time>
      </trkpt>
      <trkpt lat="45.84637" lon="4.6935">
        <ele>264.79074</ele>
        <time>2023-11-23T09:09:57.000Z</time>
      </trkpt>
      <trkpt lat="45.84637" lon="4.69354">
        <ele>264.82544</ele>
        <time>2023-11-23T09:09:58.000Z</time>
      </trkpt>
      <trkpt lat="45.84636" lon="4.69357">
        <ele>264.71185</ele>
        <time>2023-11-23T09:09:59.000Z</time>
      </trkpt>
      <trkpt lat="45.84635" lon="4.6936">
        <ele>264.67822</ele>
        <time>2023-11-23T09:10:00.000Z</time>
      </trkpt>
      <trkpt lat="45.84633" lon="4.69363">
        <ele>264.70334</ele>
        <time>2023-11-23T09:10:02.000Z</time>
      </trkpt>
      <trkpt lat="45.84631" lon="4.69365">
        <ele>264.88693</ele>
        <time>2023-11-23T09:10:03.000Z</time>
      </trkpt>
      <trkpt lat="45.8463" lon="4.69367">
        <ele>265.01233</ele>
        <time>2023-11-23T09:10:05.000Z</time>
      </trkpt>
      <trkpt lat="45.84628" lon="4.69369">
        <ele>265.00082</ele>
        <time>2023-11-23T09:10:16.000Z</time>
      </trkpt>
      <trkpt lat="45.84627" lon="4.6937">
        <ele>264.9278</ele>
        <time>2023-11-23T09:10:19.000Z</time>
      </trkpt>
      <trkpt lat="45.84624" lon="4.69373">
        <ele>265.043</ele>
        <time>2023-11-23T09:10:28.000Z</time>
      </trkpt>
      <trkpt lat="45.84622" lon="4.69375">
        <ele>265.26373</ele>
        <time>2023-11-23T09:10:29.000Z</time>
      </trkpt>
      <trkpt lat="45.8462" lon="4.69377">
        <ele>266.21014</ele>
        <time>2023-11-23T09:10:30.000Z</time>
      </trkpt>
      <trkpt lat="45.84619" lon="4.6938">
        <ele>267.06079</ele>
        <time>2023-11-23T09:10:31.000Z</time>
      </trkpt>
      <trkpt lat="45.84617" lon="4.69382">
        <ele>267.44669</ele>
        <time>2023-11-23T09:10:32.000Z</time>
      </trkpt>
      <trkpt lat="45.84616" lon="4.69385">
        <ele>268.04553</ele>
        <time>2023-11-23T09:10:33.000Z</time>
      </trkpt>
      <trkpt lat="45.84614" lon="4.69387">
        <ele>268.58502</ele>
        <time>2023-11-23T09:10:34.000Z</time>
      </trkpt>
      <trkpt lat="45.84611" lon="4.69389">
        <ele>269.07697</ele>
        <time>2023-11-23T09:10:35.000Z</time>
      </trkpt>
      <trkpt lat="45.84609" lon="4.69392">
        <ele>269.61459</ele>
        <time>2023-11-23T09:10:36.000Z</time>
      </trkpt>
      <trkpt lat="45.84607" lon="4.69394">
        <ele>270.01398</ele>
        <time>2023-11-23T09:10:37.000Z</time>
      </trkpt>
      <trkpt lat="45.84605" lon="4.69396">
        <ele>270.41031</ele>
        <time>2023-11-23T09:10:38.000Z</time>
      </trkpt>
      <trkpt lat="45.84603" lon="4.69399">
        <ele>270.91275</ele>
        <time>2023-11-23T09:10:39.000Z</time>
      </trkpt>
      <trkpt lat="45.84601" lon="4.69401">
        <ele>271.40714</ele>
        <time>2023-11-23T09:10:40.000Z</time>
      </trkpt>
      <trkpt lat="45.84599" lon="4.69405">
        <ele>271.91556</ele>
        <time>2023-11-23T09:10:41.000Z</time>
      </trkpt>
      <trkpt lat="45.84597" lon="4.69408">
        <ele>272.37274</ele>
        <time>2023-11-23T09:10:42.000Z</time>
      </trkpt>
      <trkpt lat="45.84595" lon="4.6941">
        <ele>272.89374</ele>
        <time>2023-11-23T09:10:43.000Z</time>
      </trkpt>
      <trkpt lat="45.84592" lon="4.69413">
        <ele>273.35013</ele>
        <time>2023-11-23T09:10:44.000Z</time>
      </trkpt>
      <trkpt lat="45.84589" lon="4.69415">
        <ele>273.87985</ele>
        <time>2023-11-23T09:10:45.000Z</time>
      </trkpt>
      <trkpt lat="45.84586" lon="4.69417">
        <ele>274.59628</ele>
        <time>2023-11-23T09:10:46.000Z</time>
      </trkpt>
      <trkpt lat="45.84583" lon="4.6942">
        <ele>275.25186</ele>
        <time>2023-11-23T09:10:47.000Z</time>
      </trkpt>
      <trkpt lat="45.8458" lon="4.69422">
        <ele>275.58597</ele>
        <time>2023-11-23T09:10:48.000Z</time>
      </trkpt>
      <trkpt lat="45.84577" lon="4.69423">
        <ele>275.80872</ele>
        <time>2023-11-23T09:10:49.000Z</time>
      </trkpt>
      <trkpt lat="45.84574" lon="4.69425">
        <ele>275.90536</ele>
        <time>2023-11-23T09:10:50.000Z</time>
      </trkpt>
      <trkpt lat="45.84572" lon="4.69427">
        <ele>275.89069</ele>
        <time>2023-11-23T09:10:51.000Z</time>
      </trkpt>
      <trkpt lat="45.8457" lon="4.69429">
        <ele>276.31934</ele>
        <time>2023-11-23T09:10:52.000Z</time>
      </trkpt>
      <trkpt lat="45.84567" lon="4.6943">
        <ele>276.55145</ele>
        <time>2023-11-23T09:10:53.000Z</time>
      </trkpt>
      <trkpt lat="45.84565" lon="4.69432">
        <ele>276.83505</ele>
        <time>2023-11-23T09:10:54.000Z</time>
      </trkpt>
      <trkpt lat="45.84562" lon="4.69436">
        <ele>277.27539</ele>
        <time>2023-11-23T09:10:56.000Z</time>
      </trkpt>
      <trkpt lat="45.8456" lon="4.69438">
        <ele>277.57397</ele>
        <time>2023-11-23T09:10:57.000Z</time>
      </trkpt>
      <trkpt lat="45.84558" lon="4.6944">
        <ele>278.18011</ele>
        <time>2023-11-23T09:10:58.000Z</time>
      </trkpt>
      <trkpt lat="45.84555" lon="4.69442">
        <ele>278.90921</ele>
        <time>2023-11-23T09:10:59.000Z</time>
      </trkpt>
      <trkpt lat="45.84552" lon="4.69445">
        <ele>279.21494</ele>
        <time>2023-11-23T09:11:00.000Z</time>
      </trkpt>
      <trkpt lat="45.84549" lon="4.69449">
        <ele>279.46585</ele>
        <time>2023-11-23T09:11:01.000Z</time>
      </trkpt>
      <trkpt lat="45.84547" lon="4.69451">
        <ele>279.5997</ele>
        <time>2023-11-23T09:11:02.000Z</time>
      </trkpt>
      <trkpt lat="45.84544" lon="4.69454">
        <ele>279.6857</ele>
        <time>2023-11-23T09:11:03.000Z</time>
      </trkpt>
      <trkpt lat="45.84541" lon="4.69457">
        <ele>279.638</ele>
        <time>2023-11-23T09:11:04.000Z</time>
      </trkpt>
      <trkpt lat="45.84538" lon="4.6946">
        <ele>279.55826</ele>
        <time>2023-11-23T09:11:05.000Z</time>
      </trkpt>
      <trkpt lat="45.84536" lon="4.69463">
        <ele>279.4433</ele>
        <time>2023-11-23T09:11:06.000Z</time>
      </trkpt>
      <trkpt lat="45.84532" lon="4.69465">
        <ele>279.29807</ele>
        <time>2023-11-23T09:11:07.000Z</time>
      </trkpt>
      <trkpt lat="45.84529" lon="4.69467">
        <ele>279.26276</ele>
        <time>2023-11-23T09:11:08.000Z</time>
      </trkpt>
      <trkpt lat="45.84527" lon="4.69469">
        <ele>279.32019</ele>
        <time>2023-11-23T09:11:09.000Z</time>
      </trkpt>
      <trkpt lat="45.84525" lon="4.6947">
        <ele>279.37668</ele>
        <time>2023-11-23T09:11:10.000Z</time>
      </trkpt>
      <trkpt lat="45.84522" lon="4.69472">
        <ele>279.48553</ele>
        <time>2023-11-23T09:11:11.000Z</time>
      </trkpt>
      <trkpt lat="45.84519" lon="4.69474">
        <ele>279.72256</ele>
        <time>2023-11-23T09:11:12.000Z</time>
      </trkpt>
      <trkpt lat="45.84517" lon="4.69476">
        <ele>279.96246</ele>
        <time>2023-11-23T09:11:13.000Z</time>
      </trkpt>
      <trkpt lat="45.84514" lon="4.69478">
        <ele>280.12802</ele>
        <time>2023-11-23T09:11:14.000Z</time>
      </trkpt>
      <trkpt lat="45.84511" lon="4.69479">
        <ele>280.2121</ele>
        <time>2023-11-23T09:11:15.000Z</time>
      </trkpt>
      <trkpt lat="45.84509" lon="4.6948">
        <ele>280.25067</ele>
        <time>2023-11-23T09:11:16.000Z</time>
      </trkpt>
      <trkpt lat="45.84506" lon="4.69481">
        <ele>280.35895</ele>
        <time>2023-11-23T09:11:17.000Z</time>
      </trkpt>
      <trkpt lat="45.84503" lon="4.69482">
        <ele>280.16241</ele>
        <time>2023-11-23T09:11:18.000Z</time>
      </trkpt>
      <trkpt lat="45.84501" lon="4.69485">
        <ele>279.81592</ele>
        <time>2023-11-23T09:11:19.000Z</time>
      </trkpt>
      <trkpt lat="45.84498" lon="4.69488">
        <ele>279.90701</ele>
        <time>2023-11-23T09:11:20.000Z</time>
      </trkpt>
      <trkpt lat="45.84496" lon="4.6949">
        <ele>280.02734</ele>
        <time>2023-11-23T09:11:21.000Z</time>
      </trkpt>
      <trkpt lat="45.84493" lon="4.69492">
        <ele>280.40277</ele>
        <time>2023-11-23T09:11:22.000Z</time>
      </trkpt>
      <trkpt lat="45.84491" lon="4.69494">
        <ele>280.88397</ele>
        <time>2023-11-23T09:11:23.000Z</time>
      </trkpt>
      <trkpt lat="45.84489" lon="4.69496">
        <ele>281.34039</ele>
        <time>2023-11-23T09:11:24.000Z</time>
      </trkpt>
      <trkpt lat="45.84487" lon="4.69498">
        <ele>281.84372</ele>
        <time>2023-11-23T09:11:25.000Z</time>
      </trkpt>
      <trkpt lat="45.84484" lon="4.69501">
        <ele>282.40384</ele>
        <time>2023-11-23T09:11:26.000Z</time>
      </trkpt>
      <trkpt lat="45.84482" lon="4.69503">
        <ele>283.01868</ele>
        <time>2023-11-23T09:11:27.000Z</time>
      </trkpt>
      <trkpt lat="45.84478" lon="4.69505">
        <ele>284.10834</ele>
        <time>2023-11-23T09:11:28.000Z</time>
      </trkpt>
      <trkpt lat="45.84475" lon="4.69506">
        <ele>285.05634</ele>
        <time>2023-11-23T09:11:29.000Z</time>
      </trkpt>
      <trkpt lat="45.84471" lon="4.69507">
        <ele>286.05304</ele>
        <time>2023-11-23T09:11:30.000Z</time>
      </trkpt>
      <trkpt lat="45.84468" lon="4.69508">
        <ele>287.12286</ele>
        <time>2023-11-23T09:11:31.000Z</time>
      </trkpt>
      <trkpt lat="45.84466" lon="4.69508">
        <ele>288.21045</ele>
        <time>2023-11-23T09:11:32.000Z</time>
      </trkpt>
      <trkpt lat="45.84463" lon="4.69509">
        <ele>288.75323</ele>
        <time>2023-11-23T09:11:33.000Z</time>
      </trkpt>
      <trkpt lat="45.8446" lon="4.6951">
        <ele>289.50189</ele>
        <time>2023-11-23T09:11:34.000Z</time>
      </trkpt>
      <trkpt lat="45.84456" lon="4.6951">
        <ele>290.21066</ele>
        <time>2023-11-23T09:11:35.000Z</time>
      </trkpt>
      <trkpt lat="45.84452" lon="4.69511">
        <ele>290.75455</ele>
        <time>2023-11-23T09:11:36.000Z</time>
      </trkpt>
      <trkpt lat="45.84448" lon="4.69513">
        <ele>291.31186</ele>
        <time>2023-11-23T09:11:37.000Z</time>
      </trkpt>
      <trkpt lat="45.84445" lon="4.69514">
        <ele>292.36407</ele>
        <time>2023-11-23T09:11:38.000Z</time>
      </trkpt>
      <trkpt lat="45.84441" lon="4.69515">
        <ele>292.75574</ele>
        <time>2023-11-23T09:11:39.000Z</time>
      </trkpt>
      <trkpt lat="45.84438" lon="4.69516">
        <ele>293.04691</ele>
        <time>2023-11-23T09:11:40.000Z</time>
      </trkpt>
      <trkpt lat="45.84434" lon="4.69517">
        <ele>293.33902</ele>
        <time>2023-11-23T09:11:41.000Z</time>
      </trkpt>
      <trkpt lat="45.84431" lon="4.69518">
        <ele>293.25888</ele>
        <time>2023-11-23T09:11:42.000Z</time>
      </trkpt>
      <trkpt lat="45.84427" lon="4.6952">
        <ele>293.06644</ele>
        <time>2023-11-23T09:11:43.000Z</time>
      </trkpt>
      <trkpt lat="45.84424" lon="4.69521">
        <ele>292.90823</ele>
        <time>2023-11-23T09:11:44.000Z</time>
      </trkpt>
      <trkpt lat="45.84421" lon="4.69522">
        <ele>292.66678</ele>
        <time>2023-11-23T09:11:45.000Z</time>
      </trkpt>
      <trkpt lat="45.84417" lon="4.69524">
        <ele>292.1745</ele>
        <time>2023-11-23T09:11:46.000Z</time>
      </trkpt>
      <trkpt lat="45.84414" lon="4.69525">
        <ele>291.64734</ele>
        <time>2023-11-23T09:11:47.000Z</time>
      </trkpt>
      <trkpt lat="45.84411" lon="4.69526">
        <ele>290.57886</ele>
        <time>2023-11-23T09:11:48.000Z</time>
      </trkpt>
      <trkpt lat="45.84407" lon="4.69528">
        <ele>289.50598</ele>
        <time>2023-11-23T09:11:49.000Z</time>
      </trkpt>
      <trkpt lat="45.84404" lon="4.69529">
        <ele>288.35889</ele>
        <time>2023-11-23T09:11:50.000Z</time>
      </trkpt>
      <trkpt lat="45.84401" lon="4.6953">
        <ele>287.01117</ele>
        <time>2023-11-23T09:11:51.000Z</time>
      </trkpt>
      <trkpt lat="45.84398" lon="4.6953">
        <ele>285.55753</ele>
        <time>2023-11-23T09:11:52.000Z</time>
      </trkpt>
      <trkpt lat="45.84395" lon="4.69531">
        <ele>284.58069</ele>
        <time>2023-11-23T09:11:53.000Z</time>
      </trkpt>
      <trkpt lat="45.84392" lon="4.69532">
        <ele>283.64099</ele>
        <time>2023-11-23T09:11:54.000Z</time>
      </trkpt>
      <trkpt lat="45.84389" lon="4.69533">
        <ele>282.75421</ele>
        <time>2023-11-23T09:11:55.000Z</time>
      </trkpt>
      <trkpt lat="45.84386" lon="4.69534">
        <ele>281.98218</ele>
        <time>2023-11-23T09:11:56.000Z</time>
      </trkpt>
      <trkpt lat="45.84384" lon="4.69535">
        <ele>281.31363</ele>
        <time>2023-11-23T09:11:57.000Z</time>
      </trkpt>
      <trkpt lat="45.84382" lon="4.69535">
        <ele>280.32672</ele>
        <time>2023-11-23T09:11:58.000Z</time>
      </trkpt>
      <trkpt lat="45.84379" lon="4.69538">
        <ele>279.6362</ele>
        <time>2023-11-23T09:12:00.000Z</time>
      </trkpt>
      <trkpt lat="45.84378" lon="4.6954">
        <ele>279.04996</ele>
        <time>2023-11-23T09:12:02.000Z</time>
      </trkpt>
      <trkpt lat="45.84377" lon="4.69542">
        <ele>278.51465</ele>
        <time>2023-11-23T09:12:04.000Z</time>
      </trkpt>
      <trkpt lat="45.84377" lon="4.69545">
        <ele>278.18671</ele>
        <time>2023-11-23T09:12:05.000Z</time>
      </trkpt>
      <trkpt lat="45.84378" lon="4.69549">
        <ele>277.92706</ele>
        <time>2023-11-23T09:12:06.000Z</time>
      </trkpt>
      <trkpt lat="45.84379" lon="4.69554">
        <ele>277.65997</ele>
        <time>2023-11-23T09:12:07.000Z</time>
      </trkpt>
      <trkpt lat="45.84379" lon="4.69559">
        <ele>277.40793</ele>
        <time>2023-11-23T09:12:08.000Z</time>
      </trkpt>
      <trkpt lat="45.8438" lon="4.69564">
        <ele>277.41519</ele>
        <time>2023-11-23T09:12:09.000Z</time>
      </trkpt>
      <trkpt lat="45.8438" lon="4.69567">
        <ele>277.43658</ele>
        <time>2023-11-23T09:12:10.000Z</time>
      </trkpt>
      <trkpt lat="45.8438" lon="4.69572">
        <ele>277.52383</ele>
        <time>2023-11-23T09:12:11.000Z</time>
      </trkpt>
      <trkpt lat="45.8438" lon="4.69576">
        <ele>277.68274</ele>
        <time>2023-11-23T09:12:12.000Z</time>
      </trkpt>
      <trkpt lat="45.8438" lon="4.6958">
        <ele>277.89941</ele>
        <time>2023-11-23T09:12:13.000Z</time>
      </trkpt>
      <trkpt lat="45.84381" lon="4.69584">
        <ele>278.02466</ele>
        <time>2023-11-23T09:12:14.000Z</time>
      </trkpt>
      <trkpt lat="45.84381" lon="4.69588">
        <ele>278.20569</ele>
        <time>2023-11-23T09:12:15.000Z</time>
      </trkpt>
      <trkpt lat="45.84382" lon="4.69593">
        <ele>278.45313</ele>
        <time>2023-11-23T09:12:16.000Z</time>
      </trkpt>
      <trkpt lat="45.84383" lon="4.69599">
        <ele>278.60065</ele>
        <time>2023-11-23T09:12:17.000Z</time>
      </trkpt>
      <trkpt lat="45.84384" lon="4.69604">
        <ele>278.7475</ele>
        <time>2023-11-23T09:12:18.000Z</time>
      </trkpt>
      <trkpt lat="45.84386" lon="4.69609">
        <ele>278.93329</ele>
        <time>2023-11-23T09:12:19.000Z</time>
      </trkpt>
      <trkpt lat="45.84387" lon="4.69614">
        <ele>279.08142</ele>
        <time>2023-11-23T09:12:20.000Z</time>
      </trkpt>
      <trkpt lat="45.84388" lon="4.69618">
        <ele>279.09409</ele>
        <time>2023-11-23T09:12:21.000Z</time>
      </trkpt>
      <trkpt lat="45.84388" lon="4.69623">
        <ele>279.45819</ele>
        <time>2023-11-23T09:12:22.000Z</time>
      </trkpt>
      <trkpt lat="45.84387" lon="4.69627">
        <ele>279.75381</ele>
        <time>2023-11-23T09:12:23.000Z</time>
      </trkpt>
      <trkpt lat="45.84385" lon="4.69632">
        <ele>279.99731</ele>
        <time>2023-11-23T09:12:24.000Z</time>
      </trkpt>
      <trkpt lat="45.84382" lon="4.69635">
        <ele>280.21149</ele>
        <time>2023-11-23T09:12:25.000Z</time>
      </trkpt>
      <trkpt lat="45.84379" lon="4.69636">
        <ele>280.39264</ele>
        <time>2023-11-23T09:12:26.000Z</time>
      </trkpt>
      <trkpt lat="45.84376" lon="4.69638">
        <ele>280.56317</ele>
        <time>2023-11-23T09:12:27.000Z</time>
      </trkpt>
      <trkpt lat="45.84373" lon="4.69639">
        <ele>280.74643</ele>
        <time>2023-11-23T09:12:28.000Z</time>
      </trkpt>
      <trkpt lat="45.8437" lon="4.69641">
        <ele>280.93427</ele>
        <time>2023-11-23T09:12:29.000Z</time>
      </trkpt>
      <trkpt lat="45.84367" lon="4.69642">
        <ele>281.14935</ele>
        <time>2023-11-23T09:12:30.000Z</time>
      </trkpt>
      <trkpt lat="45.84363" lon="4.69643">
        <ele>281.35507</ele>
        <time>2023-11-23T09:12:31.000Z</time>
      </trkpt>
      <trkpt lat="45.84359" lon="4.69645">
        <ele>281.51035</ele>
        <time>2023-11-23T09:12:32.000Z</time>
      </trkpt>
      <trkpt lat="45.84356" lon="4.69647">
        <ele>281.74414</ele>
        <time>2023-11-23T09:12:33.000Z</time>
      </trkpt>
      <trkpt lat="45.84351" lon="4.69649">
        <ele>282.2175</ele>
        <time>2023-11-23T09:12:34.000Z</time>
      </trkpt>
      <trkpt lat="45.84348" lon="4.69651">
        <ele>282.36096</ele>
        <time>2023-11-23T09:12:35.000Z</time>
      </trkpt>
      <trkpt lat="45.84344" lon="4.69653">
        <ele>282.50815</ele>
        <time>2023-11-23T09:12:36.000Z</time>
      </trkpt>
      <trkpt lat="45.84341" lon="4.69655">
        <ele>282.61969</ele>
        <time>2023-11-23T09:12:37.000Z</time>
      </trkpt>
      <trkpt lat="45.84337" lon="4.69657">
        <ele>282.68613</ele>
        <time>2023-11-23T09:12:38.000Z</time>
      </trkpt>
      <trkpt lat="45.84333" lon="4.69659">
        <ele>282.64215</ele>
        <time>2023-11-23T09:12:39.000Z</time>
      </trkpt>
      <trkpt lat="45.84329" lon="4.69661">
        <ele>282.59845</ele>
        <time>2023-11-23T09:12:40.000Z</time>
      </trkpt>
      <trkpt lat="45.84327" lon="4.69663">
        <ele>282.68826</ele>
        <time>2023-11-23T09:12:41.000Z</time>
      </trkpt>
      <trkpt lat="45.84324" lon="4.69664">
        <ele>282.78217</ele>
        <time>2023-11-23T09:12:42.000Z</time>
      </trkpt>
      <trkpt lat="45.8432" lon="4.69665">
        <ele>282.88071</ele>
        <time>2023-11-23T09:12:43.000Z</time>
      </trkpt>
      <trkpt lat="45.84317" lon="4.69666">
        <ele>283.03772</ele>
        <time>2023-11-23T09:12:44.000Z</time>
      </trkpt>
      <trkpt lat="45.84313" lon="4.69667">
        <ele>283.26794</ele>
        <time>2023-11-23T09:12:45.000Z</time>
      </trkpt>
      <trkpt lat="45.84309" lon="4.69668">
        <ele>283.71246</ele>
        <time>2023-11-23T09:12:46.000Z</time>
      </trkpt>
      <trkpt lat="45.84305" lon="4.6967">
        <ele>284.24054</ele>
        <time>2023-11-23T09:12:47.000Z</time>
      </trkpt>
      <trkpt lat="45.843" lon="4.69672">
        <ele>284.68536</ele>
        <time>2023-11-23T09:12:48.000Z</time>
      </trkpt>
      <trkpt lat="45.84296" lon="4.69674">
        <ele>285.13925</ele>
        <time>2023-11-23T09:12:49.000Z</time>
      </trkpt>
      <trkpt lat="45.84292" lon="4.69676">
        <ele>285.25607</ele>
        <time>2023-11-23T09:12:50.000Z</time>
      </trkpt>
      <trkpt lat="45.84288" lon="4.69678">
        <ele>285.36276</ele>
        <time>2023-11-23T09:12:51.000Z</time>
      </trkpt>
      <trkpt lat="45.84285" lon="4.69679">
        <ele>285.44415</ele>
        <time>2023-11-23T09:12:52.000Z</time>
      </trkpt>
      <trkpt lat="45.84282" lon="4.69679">
        <ele>285.32132</ele>
        <time>2023-11-23T09:12:53.000Z</time>
      </trkpt>
      <trkpt lat="45.8428" lon="4.6968">
        <ele>285.17651</ele>
        <time>2023-11-23T09:12:54.000Z</time>
      </trkpt>
      <trkpt lat="45.84277" lon="4.69682">
        <ele>285.32806</ele>
        <time>2023-11-23T09:12:55.000Z</time>
      </trkpt>
      <trkpt lat="45.84274" lon="4.69684">
        <ele>285.42377</ele>
        <time>2023-11-23T09:12:56.000Z</time>
      </trkpt>
      <trkpt lat="45.84272" lon="4.69686">
        <ele>285.4982</ele>
        <time>2023-11-23T09:12:57.000Z</time>
      </trkpt>
      <trkpt lat="45.84269" lon="4.69687">
        <ele>285.86734</ele>
        <time>2023-11-23T09:12:58.000Z</time>
      </trkpt>
      <trkpt lat="45.84266" lon="4.69688">
        <ele>286.4205</ele>
        <time>2023-11-23T09:12:59.000Z</time>
      </trkpt>
      <trkpt lat="45.84262" lon="4.6969">
        <ele>286.60052</ele>
        <time>2023-11-23T09:13:00.000Z</time>
      </trkpt>
      <trkpt lat="45.8426" lon="4.69691">
        <ele>286.66907</ele>
        <time>2023-11-23T09:13:01.000Z</time>
      </trkpt>
      <trkpt lat="45.84256" lon="4.69692">
        <ele>287.18805</ele>
        <time>2023-11-23T09:13:02.000Z</time>
      </trkpt>
      <trkpt lat="45.84252" lon="4.69694">
        <ele>287.6463</ele>
        <time>2023-11-23T09:13:03.000Z</time>
      </trkpt>
      <trkpt lat="45.84248" lon="4.69695">
        <ele>288.01981</ele>
        <time>2023-11-23T09:13:04.000Z</time>
      </trkpt>
      <trkpt lat="45.84244" lon="4.69696">
        <ele>288.62592</ele>
        <time>2023-11-23T09:13:05.000Z</time>
      </trkpt>
      <trkpt lat="45.84239" lon="4.69697">
        <ele>289.07419</ele>
        <time>2023-11-23T09:13:06.000Z</time>
      </trkpt>
      <trkpt lat="45.84234" lon="4.69697">
        <ele>289.37103</ele>
        <time>2023-11-23T09:13:07.000Z</time>
      </trkpt>
      <trkpt lat="45.8423" lon="4.69697">
        <ele>289.74286</ele>
        <time>2023-11-23T09:13:08.000Z</time>
      </trkpt>
      <trkpt lat="45.84225" lon="4.69696">
        <ele>290.06915</ele>
        <time>2023-11-23T09:13:09.000Z</time>
      </trkpt>
      <trkpt lat="45.84221" lon="4.69696">
        <ele>290.71359</ele>
        <time>2023-11-23T09:13:10.000Z</time>
      </trkpt>
      <trkpt lat="45.84217" lon="4.69696">
        <ele>291.40805</ele>
        <time>2023-11-23T09:13:11.000Z</time>
      </trkpt>
      <trkpt lat="45.84214" lon="4.69694">
        <ele>292.17493</ele>
        <time>2023-11-23T09:13:12.000Z</time>
      </trkpt>
      <trkpt lat="45.8421" lon="4.69693">
        <ele>292.94843</ele>
        <time>2023-11-23T09:13:13.000Z</time>
      </trkpt>
      <trkpt lat="45.84207" lon="4.69692">
        <ele>293.55072</ele>
        <time>2023-11-23T09:13:14.000Z</time>
      </trkpt>
      <trkpt lat="45.84204" lon="4.69691">
        <ele>294.11755</ele>
        <time>2023-11-23T09:13:15.000Z</time>
      </trkpt>
      <trkpt lat="45.842" lon="4.6969">
        <ele>294.73264</ele>
        <time>2023-11-23T09:13:16.000Z</time>
      </trkpt>
      <trkpt lat="45.84196" lon="4.6969">
        <ele>295.2038</ele>
        <time>2023-11-23T09:13:17.000Z</time>
      </trkpt>
      <trkpt lat="45.84191" lon="4.69689">
        <ele>295.58508</ele>
        <time>2023-11-23T09:13:18.000Z</time>
      </trkpt>
      <trkpt lat="45.84188" lon="4.69689">
        <ele>295.8869</ele>
        <time>2023-11-23T09:13:19.000Z</time>
      </trkpt>
      <trkpt lat="45.84185" lon="4.69688">
        <ele>296.4411</ele>
        <time>2023-11-23T09:13:20.000Z</time>
      </trkpt>
      <trkpt lat="45.84182" lon="4.69688">
        <ele>296.97638</ele>
        <time>2023-11-23T09:13:21.000Z</time>
      </trkpt>
      <trkpt lat="45.84178" lon="4.69688">
        <ele>297.00995</ele>
        <time>2023-11-23T09:13:22.000Z</time>
      </trkpt>
      <trkpt lat="45.84175" lon="4.69688">
        <ele>297.21393</ele>
        <time>2023-11-23T09:13:23.000Z</time>
      </trkpt>
      <trkpt lat="45.84173" lon="4.69689">
        <ele>297.43869</ele>
        <time>2023-11-23T09:13:24.000Z</time>
      </trkpt>
      <trkpt lat="45.8417" lon="4.69689">
        <ele>296.83563</ele>
        <time>2023-11-23T09:13:25.000Z</time>
      </trkpt>
      <trkpt lat="45.84168" lon="4.69689">
        <ele>296.1734</ele>
        <time>2023-11-23T09:13:26.000Z</time>
      </trkpt>
      <trkpt lat="45.84166" lon="4.6969">
        <ele>295.6637</ele>
        <time>2023-11-23T09:13:31.000Z</time>
      </trkpt>
      <trkpt lat="45.84164" lon="4.69689">
        <ele>294.76831</ele>
        <time>2023-11-23T09:13:42.000Z</time>
      </trkpt>
      <trkpt lat="45.84161" lon="4.69689">
        <ele>293.91443</ele>
        <time>2023-11-23T09:13:44.000Z</time>
      </trkpt>
      <trkpt lat="45.84159" lon="4.69689">
        <ele>293.02615</ele>
        <time>2023-11-23T09:13:45.000Z</time>
      </trkpt>
      <trkpt lat="45.84156" lon="4.69689">
        <ele>292.03699</ele>
        <time>2023-11-23T09:13:46.000Z</time>
      </trkpt>
      <trkpt lat="45.84153" lon="4.69689">
        <ele>291.0509</ele>
        <time>2023-11-23T09:13:47.000Z</time>
      </trkpt>
      <trkpt lat="45.8415" lon="4.69688">
        <ele>290.23279</ele>
        <time>2023-11-23T09:13:48.000Z</time>
      </trkpt>
      <trkpt lat="45.84147" lon="4.69688">
        <ele>289.46304</ele>
        <time>2023-11-23T09:13:49.000Z</time>
      </trkpt>
      <trkpt lat="45.84144" lon="4.69688">
        <ele>288.67279</ele>
        <time>2023-11-23T09:13:50.000Z</time>
      </trkpt>
      <trkpt lat="45.84141" lon="4.69687">
        <ele>287.85992</ele>
        <time>2023-11-23T09:13:51.000Z</time>
      </trkpt>
      <trkpt lat="45.84138" lon="4.69686">
        <ele>287.22046</ele>
        <time>2023-11-23T09:13:52.000Z</time>
      </trkpt>
      <trkpt lat="45.84135" lon="4.69685">
        <ele>286.45996</ele>
        <time>2023-11-23T09:13:53.000Z</time>
      </trkpt>
      <trkpt lat="45.84133" lon="4.69685">
        <ele>285.7746</ele>
        <time>2023-11-23T09:13:54.000Z</time>
      </trkpt>
      <trkpt lat="45.84131" lon="4.69686">
        <ele>285.14871</ele>
        <time>2023-11-23T09:13:55.000Z</time>
      </trkpt>
      <trkpt lat="45.84128" lon="4.69685">
        <ele>284.52277</ele>
        <time>2023-11-23T09:13:56.000Z</time>
      </trkpt>
      <trkpt lat="45.84125" lon="4.69684">
        <ele>283.88889</ele>
        <time>2023-11-23T09:13:57.000Z</time>
      </trkpt>
      <trkpt lat="45.84122" lon="4.69683">
        <ele>283.32959</ele>
        <time>2023-11-23T09:13:58.000Z</time>
      </trkpt>
      <trkpt lat="45.84119" lon="4.69682">
        <ele>282.85541</ele>
        <time>2023-11-23T09:13:59.000Z</time>
      </trkpt>
      <trkpt lat="45.84116" lon="4.69681">
        <ele>282.54517</ele>
        <time>2023-11-23T09:14:00.000Z</time>
      </trkpt>
      <trkpt lat="45.84113" lon="4.69681">
        <ele>282.29108</ele>
        <time>2023-11-23T09:14:01.000Z</time>
      </trkpt>
      <trkpt lat="45.8411" lon="4.6968">
        <ele>282.01996</ele>
        <time>2023-11-23T09:14:02.000Z</time>
      </trkpt>
      <trkpt lat="45.84108" lon="4.6968">
        <ele>282.11676</ele>
        <time>2023-11-23T09:14:03.000Z</time>
      </trkpt>
      <trkpt lat="45.84105" lon="4.69679">
        <ele>282.2049</ele>
        <time>2023-11-23T09:14:04.000Z</time>
      </trkpt>
      <trkpt lat="45.84102" lon="4.6968">
        <ele>282.32135</ele>
        <time>2023-11-23T09:14:05.000Z</time>
      </trkpt>
      <trkpt lat="45.84098" lon="4.69681">
        <ele>282.46786</ele>
        <time>2023-11-23T09:14:06.000Z</time>
      </trkpt>
      <trkpt lat="45.84094" lon="4.69682">
        <ele>282.58026</ele>
        <time>2023-11-23T09:14:07.000Z</time>
      </trkpt>
      <trkpt lat="45.8409" lon="4.69682">
        <ele>282.58197</ele>
        <time>2023-11-23T09:14:08.000Z</time>
      </trkpt>
      <trkpt lat="45.84087" lon="4.69682">
        <ele>282.53351</ele>
        <time>2023-11-23T09:14:09.000Z</time>
      </trkpt>
      <trkpt lat="45.84085" lon="4.69683">
        <ele>282.42999</ele>
        <time>2023-11-23T09:14:10.000Z</time>
      </trkpt>
      <trkpt lat="45.84083" lon="4.69684">
        <ele>282.26288</ele>
        <time>2023-11-23T09:14:11.000Z</time>
      </trkpt>
      <trkpt lat="45.8408" lon="4.69687">
        <ele>282.02148</ele>
        <time>2023-11-23T09:14:12.000Z</time>
      </trkpt>
      <trkpt lat="45.84077" lon="4.69689">
        <ele>281.78085</ele>
        <time>2023-11-23T09:14:13.000Z</time>
      </trkpt>
      <trkpt lat="45.84074" lon="4.69692">
        <ele>281.49469</ele>
        <time>2023-11-23T09:14:14.000Z</time>
      </trkpt>
      <trkpt lat="45.8407" lon="4.69696">
        <ele>281.2959</ele>
        <time>2023-11-23T09:14:15.000Z</time>
      </trkpt>
      <trkpt lat="45.84066" lon="4.697">
        <ele>281.08215</ele>
        <time>2023-11-23T09:14:16.000Z</time>
      </trkpt>
      <trkpt lat="45.84063" lon="4.69704">
        <ele>280.87421</ele>
        <time>2023-11-23T09:14:17.000Z</time>
      </trkpt>
      <trkpt lat="45.84057" lon="4.69712">
        <ele>280.3996</ele>
        <time>2023-11-23T09:14:18.000Z</time>
      </trkpt>
      <trkpt lat="45.84054" lon="4.69714">
        <ele>279.90558</ele>
        <time>2023-11-23T09:14:19.000Z</time>
      </trkpt>
      <trkpt lat="45.84051" lon="4.69717">
        <ele>279.90814</ele>
        <time>2023-11-23T09:14:21.000Z</time>
      </trkpt>
      <trkpt lat="45.8405" lon="4.6972">
        <ele>279.95294</ele>
        <time>2023-11-23T09:14:23.000Z</time>
      </trkpt>
      <trkpt lat="45.8405" lon="4.69722">
        <ele>279.9288</ele>
        <time>2023-11-23T09:14:24.000Z</time>
      </trkpt>
      <trkpt lat="45.84049" lon="4.69725">
        <ele>280.02249</ele>
        <time>2023-11-23T09:14:25.000Z</time>
      </trkpt>
      <trkpt lat="45.84045" lon="4.6973">
        <ele>279.71054</ele>
        <time>2023-11-23T09:14:27.000Z</time>
      </trkpt>
      <trkpt lat="45.84043" lon="4.69733">
        <ele>279.38101</ele>
        <time>2023-11-23T09:14:28.000Z</time>
      </trkpt>
      <trkpt lat="45.84042" lon="4.69736">
        <ele>279.08279</ele>
        <time>2023-11-23T09:14:29.000Z</time>
      </trkpt>
      <trkpt lat="45.8404" lon="4.69739">
        <ele>278.81763</ele>
        <time>2023-11-23T09:14:30.000Z</time>
      </trkpt>
      <trkpt lat="45.84038" lon="4.69742">
        <ele>278.61688</ele>
        <time>2023-11-23T09:14:31.000Z</time>
      </trkpt>
      <trkpt lat="45.84036" lon="4.69746">
        <ele>278.48691</ele>
        <time>2023-11-23T09:14:32.000Z</time>
      </trkpt>
      <trkpt lat="45.84035" lon="4.69748">
        <ele>278.46497</ele>
        <time>2023-11-23T09:14:33.000Z</time>
      </trkpt>
      <trkpt lat="45.84033" lon="4.69752">
        <ele>278.69989</ele>
        <time>2023-11-23T09:14:34.000Z</time>
      </trkpt>
      <trkpt lat="45.84031" lon="4.69755">
        <ele>279.04007</ele>
        <time>2023-11-23T09:14:35.000Z</time>
      </trkpt>
      <trkpt lat="45.84029" lon="4.69758">
        <ele>279.44168</ele>
        <time>2023-11-23T09:14:36.000Z</time>
      </trkpt>
      <trkpt lat="45.84027" lon="4.69761">
        <ele>279.45737</ele>
        <time>2023-11-23T09:14:37.000Z</time>
      </trkpt>
      <trkpt lat="45.84025" lon="4.69764">
        <ele>279.47086</ele>
        <time>2023-11-23T09:14:38.000Z</time>
      </trkpt>
      <trkpt lat="45.84023" lon="4.69767">
        <ele>279.54053</ele>
        <time>2023-11-23T09:14:39.000Z</time>
      </trkpt>
      <trkpt lat="45.84021" lon="4.6977">
        <ele>279.60681</ele>
        <time>2023-11-23T09:14:40.000Z</time>
      </trkpt>
      <trkpt lat="45.84019" lon="4.69773">
        <ele>279.77191</ele>
        <time>2023-11-23T09:14:41.000Z</time>
      </trkpt>
      <trkpt lat="45.84017" lon="4.69776">
        <ele>280.0636</ele>
        <time>2023-11-23T09:14:42.000Z</time>
      </trkpt>
      <trkpt lat="45.84015" lon="4.69778">
        <ele>280.21149</ele>
        <time>2023-11-23T09:14:43.000Z</time>
      </trkpt>
      <trkpt lat="45.84014" lon="4.69781">
        <ele>280.36038</ele>
        <time>2023-11-23T09:14:44.000Z</time>
      </trkpt>
      <trkpt lat="45.84012" lon="4.69783">
        <ele>280.53256</ele>
        <time>2023-11-23T09:14:45.000Z</time>
      </trkpt>
      <trkpt lat="45.8401" lon="4.69786">
        <ele>280.60028</ele>
        <time>2023-11-23T09:14:46.000Z</time>
      </trkpt>
      <trkpt lat="45.84008" lon="4.69789">
        <ele>281.06805</ele>
        <time>2023-11-23T09:14:47.000Z</time>
      </trkpt>
      <trkpt lat="45.84007" lon="4.69792">
        <ele>281.53128</ele>
        <time>2023-11-23T09:14:48.000Z</time>
      </trkpt>
      <trkpt lat="45.84005" lon="4.69795">
        <ele>281.94415</ele>
        <time>2023-11-23T09:14:49.000Z</time>
      </trkpt>
      <trkpt lat="45.84004" lon="4.69797">
        <ele>282.32312</ele>
        <time>2023-11-23T09:14:50.000Z</time>
      </trkpt>
      <trkpt lat="45.84002" lon="4.698">
        <ele>282.68219</ele>
        <time>2023-11-23T09:14:51.000Z</time>
      </trkpt>
      <trkpt lat="45.84" lon="4.69803">
        <ele>283.04352</ele>
        <time>2023-11-23T09:14:52.000Z</time>
      </trkpt>
      <trkpt lat="45.83998" lon="4.69806">
        <ele>283.37402</ele>
        <time>2023-11-23T09:14:53.000Z</time>
      </trkpt>
      <trkpt lat="45.83997" lon="4.69808">
        <ele>283.53119</ele>
        <time>2023-11-23T09:14:54.000Z</time>
      </trkpt>
      <trkpt lat="45.83995" lon="4.69812">
        <ele>283.61786</ele>
        <time>2023-11-23T09:14:55.000Z</time>
      </trkpt>
      <trkpt lat="45.83993" lon="4.69815">
        <ele>283.63556</ele>
        <time>2023-11-23T09:14:56.000Z</time>
      </trkpt>
      <trkpt lat="45.83992" lon="4.69819">
        <ele>283.99066</ele>
        <time>2023-11-23T09:14:57.000Z</time>
      </trkpt>
      <trkpt lat="45.8399" lon="4.69822">
        <ele>284.32202</ele>
        <time>2023-11-23T09:14:58.000Z</time>
      </trkpt>
      <trkpt lat="45.83988" lon="4.69825">
        <ele>284.64728</ele>
        <time>2023-11-23T09:14:59.000Z</time>
      </trkpt>
      <trkpt lat="45.83986" lon="4.69828">
        <ele>284.98431</ele>
        <time>2023-11-23T09:15:00.000Z</time>
      </trkpt>
      <trkpt lat="45.83984" lon="4.69831">
        <ele>285.32672</ele>
        <time>2023-11-23T09:15:01.000Z</time>
      </trkpt>
      <trkpt lat="45.83982" lon="4.69834">
        <ele>285.59634</ele>
        <time>2023-11-23T09:15:02.000Z</time>
      </trkpt>
      <trkpt lat="45.8398" lon="4.69837">
        <ele>285.53217</ele>
        <time>2023-11-23T09:15:03.000Z</time>
      </trkpt>
      <trkpt lat="45.83978" lon="4.6984">
        <ele>285.66556</ele>
        <time>2023-11-23T09:15:04.000Z</time>
      </trkpt>
      <trkpt lat="45.83975" lon="4.69844">
        <ele>285.77753</ele>
        <time>2023-11-23T09:15:05.000Z</time>
      </trkpt>
      <trkpt lat="45.83973" lon="4.69848">
        <ele>285.86115</ele>
        <time>2023-11-23T09:15:06.000Z</time>
      </trkpt>
      <trkpt lat="45.83971" lon="4.69852">
        <ele>285.97745</ele>
        <time>2023-11-23T09:15:07.000Z</time>
      </trkpt>
      <trkpt lat="45.83969" lon="4.69856">
        <ele>286.1048</ele>
        <time>2023-11-23T09:15:08.000Z</time>
      </trkpt>
      <trkpt lat="45.83967" lon="4.6986">
        <ele>286.27277</ele>
        <time>2023-11-23T09:15:09.000Z</time>
      </trkpt>
      <trkpt lat="45.83964" lon="4.69864">
        <ele>286.38275</ele>
        <time>2023-11-23T09:15:10.000Z</time>
      </trkpt>
      <trkpt lat="45.83962" lon="4.69868">
        <ele>286.44113</ele>
        <time>2023-11-23T09:15:11.000Z</time>
      </trkpt>
      <trkpt lat="45.8396" lon="4.69873">
        <ele>286.46912</ele>
        <time>2023-11-23T09:15:12.000Z</time>
      </trkpt>
      <trkpt lat="45.83958" lon="4.69877">
        <ele>286.50983</ele>
        <time>2023-11-23T09:15:13.000Z</time>
      </trkpt>
      <trkpt lat="45.83956" lon="4.69881">
        <ele>286.55246</ele>
        <time>2023-11-23T09:15:14.000Z</time>
      </trkpt>
      <trkpt lat="45.83953" lon="4.69885">
        <ele>286.57697</ele>
        <time>2023-11-23T09:15:15.000Z</time>
      </trkpt>
      <trkpt lat="45.83951" lon="4.6989">
        <ele>286.59888</ele>
        <time>2023-11-23T09:15:16.000Z</time>
      </trkpt>
      <trkpt lat="45.83949" lon="4.69894">
        <ele>286.61642</ele>
        <time>2023-11-23T09:15:17.000Z</time>
      </trkpt>
      <trkpt lat="45.83946" lon="4.69899">
        <ele>286.59772</ele>
        <time>2023-11-23T09:15:18.000Z</time>
      </trkpt>
      <trkpt lat="45.83944" lon="4.69904">
        <ele>286.55051</ele>
        <time>2023-11-23T09:15:19.000Z</time>
      </trkpt>
      <trkpt lat="45.83941" lon="4.69909">
        <ele>286.53931</ele>
        <time>2023-11-23T09:15:20.000Z</time>
      </trkpt>
      <trkpt lat="45.83939" lon="4.69914">
        <ele>286.47345</ele>
        <time>2023-11-23T09:15:21.000Z</time>
      </trkpt>
      <trkpt lat="45.83936" lon="4.69918">
        <ele>286.3327</ele>
        <time>2023-11-23T09:15:22.000Z</time>
      </trkpt>
      <trkpt lat="45.83934" lon="4.69922">
        <ele>286.53229</ele>
        <time>2023-11-23T09:15:23.000Z</time>
      </trkpt>
      <trkpt lat="45.83932" lon="4.69926">
        <ele>286.47897</ele>
        <time>2023-11-23T09:15:24.000Z</time>
      </trkpt>
      <trkpt lat="45.8393" lon="4.6993">
        <ele>286.42813</ele>
        <time>2023-11-23T09:15:25.000Z</time>
      </trkpt>
      <trkpt lat="45.83927" lon="4.69934">
        <ele>286.40802</ele>
        <time>2023-11-23T09:15:26.000Z</time>
      </trkpt>
      <trkpt lat="45.83925" lon="4.69938">
        <ele>286.28448</ele>
        <time>2023-11-23T09:15:27.000Z</time>
      </trkpt>
      <trkpt lat="45.83923" lon="4.69942">
        <ele>286.16626</ele>
        <time>2023-11-23T09:15:28.000Z</time>
      </trkpt>
      <trkpt lat="45.8392" lon="4.69946">
        <ele>286.00143</ele>
        <time>2023-11-23T09:15:29.000Z</time>
      </trkpt>
      <trkpt lat="45.83917" lon="4.6995">
        <ele>285.88049</ele>
        <time>2023-11-23T09:15:30.000Z</time>
      </trkpt>
      <trkpt lat="45.83915" lon="4.69954">
        <ele>285.80914</ele>
        <time>2023-11-23T09:15:31.000Z</time>
      </trkpt>
      <trkpt lat="45.83913" lon="4.69958">
        <ele>285.71753</ele>
        <time>2023-11-23T09:15:32.000Z</time>
      </trkpt>
      <trkpt lat="45.8391" lon="4.69961">
        <ele>285.66315</ele>
        <time>2023-11-23T09:15:33.000Z</time>
      </trkpt>
      <trkpt lat="45.83908" lon="4.69964">
        <ele>285.60843</ele>
        <time>2023-11-23T09:15:34.000Z</time>
      </trkpt>
      <trkpt lat="45.83906" lon="4.69968">
        <ele>285.57465</ele>
        <time>2023-11-23T09:15:35.000Z</time>
      </trkpt>
      <trkpt lat="45.83903" lon="4.69971">
        <ele>285.57669</ele>
        <time>2023-11-23T09:15:36.000Z</time>
      </trkpt>
      <trkpt lat="45.83901" lon="4.69975">
        <ele>285.59796</ele>
        <time>2023-11-23T09:15:37.000Z</time>
      </trkpt>
      <trkpt lat="45.83899" lon="4.69978">
        <ele>285.64624</ele>
        <time>2023-11-23T09:15:38.000Z</time>
      </trkpt>
      <trkpt lat="45.83897" lon="4.69981">
        <ele>285.71768</ele>
        <time>2023-11-23T09:15:39.000Z</time>
      </trkpt>
      <trkpt lat="45.83895" lon="4.69984">
        <ele>285.77402</ele>
        <time>2023-11-23T09:15:40.000Z</time>
      </trkpt>
      <trkpt lat="45.83893" lon="4.69988">
        <ele>285.86133</ele>
        <time>2023-11-23T09:15:41.000Z</time>
      </trkpt>
      <trkpt lat="45.83891" lon="4.69991">
        <ele>285.93451</ele>
        <time>2023-11-23T09:15:42.000Z</time>
      </trkpt>
      <trkpt lat="45.83889" lon="4.69994">
        <ele>285.97708</ele>
        <time>2023-11-23T09:15:43.000Z</time>
      </trkpt>
      <trkpt lat="45.83886" lon="4.69998">
        <ele>286.31256</ele>
        <time>2023-11-23T09:15:44.000Z</time>
      </trkpt>
      <trkpt lat="45.83884" lon="4.70001">
        <ele>286.69009</ele>
        <time>2023-11-23T09:15:45.000Z</time>
      </trkpt>
      <trkpt lat="45.83883" lon="4.70004">
        <ele>287.16183</ele>
        <time>2023-11-23T09:15:46.000Z</time>
      </trkpt>
      <trkpt lat="45.83881" lon="4.70007">
        <ele>287.23679</ele>
        <time>2023-11-23T09:15:47.000Z</time>
      </trkpt>
      <trkpt lat="45.83879" lon="4.70011">
        <ele>287.35184</ele>
        <time>2023-11-23T09:15:48.000Z</time>
      </trkpt>
      <trkpt lat="45.83877" lon="4.70014">
        <ele>287.45322</ele>
        <time>2023-11-23T09:15:49.000Z</time>
      </trkpt>
      <trkpt lat="45.83875" lon="4.70017">
        <ele>287.5603</ele>
        <time>2023-11-23T09:15:50.000Z</time>
      </trkpt>
      <trkpt lat="45.83873" lon="4.70021">
        <ele>287.64941</ele>
        <time>2023-11-23T09:15:51.000Z</time>
      </trkpt>
      <trkpt lat="45.83871" lon="4.70024">
        <ele>287.74695</ele>
        <time>2023-11-23T09:15:52.000Z</time>
      </trkpt>
      <trkpt lat="45.83869" lon="4.70026">
        <ele>287.79373</ele>
        <time>2023-11-23T09:15:53.000Z</time>
      </trkpt>
      <trkpt lat="45.83868" lon="4.70028">
        <ele>287.79892</ele>
        <time>2023-11-23T09:15:54.000Z</time>
      </trkpt>
      <trkpt lat="45.83866" lon="4.70031">
        <ele>287.75238</ele>
        <time>2023-11-23T09:15:55.000Z</time>
      </trkpt>
      <trkpt lat="45.83866" lon="4.70034">
        <ele>287.685</ele>
        <time>2023-11-23T09:15:56.000Z</time>
      </trkpt>
      <trkpt lat="45.83865" lon="4.70037">
        <ele>287.60437</ele>
        <time>2023-11-23T09:15:57.000Z</time>
      </trkpt>
      <trkpt lat="45.83864" lon="4.70041">
        <ele>286.54248</ele>
        <time>2023-11-23T09:15:58.000Z</time>
      </trkpt>
      <trkpt lat="45.83863" lon="4.70045">
        <ele>285.48148</ele>
        <time>2023-11-23T09:15:59.000Z</time>
      </trkpt>
      <trkpt lat="45.83863" lon="4.70049">
        <ele>284.40973</ele>
        <time>2023-11-23T09:16:00.000Z</time>
      </trkpt>
      <trkpt lat="45.83862" lon="4.70052">
        <ele>283.33926</ele>
        <time>2023-11-23T09:16:01.000Z</time>
      </trkpt>
      <trkpt lat="45.83862" lon="4.70056">
        <ele>282.26682</ele>
        <time>2023-11-23T09:16:02.000Z</time>
      </trkpt>
      <trkpt lat="45.83861" lon="4.70059">
        <ele>281.21075</ele>
        <time>2023-11-23T09:16:03.000Z</time>
      </trkpt>
      <trkpt lat="45.8386" lon="4.70063">
        <ele>279.69855</ele>
        <time>2023-11-23T09:16:04.000Z</time>
      </trkpt>
      <trkpt lat="45.8386" lon="4.70067">
        <ele>279.26663</ele>
        <time>2023-11-23T09:16:05.000Z</time>
      </trkpt>
      <trkpt lat="45.83859" lon="4.7007">
        <ele>278.74896</ele>
        <time>2023-11-23T09:16:06.000Z</time>
      </trkpt>
      <trkpt lat="45.83859" lon="4.70073">
        <ele>278.67816</ele>
        <time>2023-11-23T09:16:07.000Z</time>
      </trkpt>
      <trkpt lat="45.83858" lon="4.70077">
        <ele>278.61053</ele>
        <time>2023-11-23T09:16:08.000Z</time>
      </trkpt>
      <trkpt lat="45.83858" lon="4.70081">
        <ele>278.56384</ele>
        <time>2023-11-23T09:16:09.000Z</time>
      </trkpt>
      <trkpt lat="45.83857" lon="4.70085">
        <ele>278.47623</ele>
        <time>2023-11-23T09:16:10.000Z</time>
      </trkpt>
      <trkpt lat="45.83857" lon="4.7009">
        <ele>278.39865</ele>
        <time>2023-11-23T09:16:11.000Z</time>
      </trkpt>
      <trkpt lat="45.83856" lon="4.70094">
        <ele>278.3457</ele>
        <time>2023-11-23T09:16:12.000Z</time>
      </trkpt>
      <trkpt lat="45.83855" lon="4.70097">
        <ele>278.31711</ele>
        <time>2023-11-23T09:16:13.000Z</time>
      </trkpt>
      <trkpt lat="45.83854" lon="4.70101">
        <ele>278.28851</ele>
        <time>2023-11-23T09:16:14.000Z</time>
      </trkpt>
      <trkpt lat="45.83854" lon="4.70105">
        <ele>278.26215</ele>
        <time>2023-11-23T09:16:15.000Z</time>
      </trkpt>
      <trkpt lat="45.83853" lon="4.70109">
        <ele>278.25189</ele>
        <time>2023-11-23T09:16:16.000Z</time>
      </trkpt>
      <trkpt lat="45.83852" lon="4.70114">
        <ele>278.22003</ele>
        <time>2023-11-23T09:16:17.000Z</time>
      </trkpt>
      <trkpt lat="45.83851" lon="4.70119">
        <ele>279.14716</ele>
        <time>2023-11-23T09:16:18.000Z</time>
      </trkpt>
      <trkpt lat="45.8385" lon="4.70124">
        <ele>280.08966</ele>
        <time>2023-11-23T09:16:19.000Z</time>
      </trkpt>
      <trkpt lat="45.83849" lon="4.70129">
        <ele>281.01239</ele>
        <time>2023-11-23T09:16:20.000Z</time>
      </trkpt>
      <trkpt lat="45.83847" lon="4.70134">
        <ele>281.92633</ele>
        <time>2023-11-23T09:16:21.000Z</time>
      </trkpt>
      <trkpt lat="45.83846" lon="4.70139">
        <ele>282.82062</ele>
        <time>2023-11-23T09:16:22.000Z</time>
      </trkpt>
      <trkpt lat="45.83844" lon="4.70144">
        <ele>283.69171</ele>
        <time>2023-11-23T09:16:23.000Z</time>
      </trkpt>
      <trkpt lat="45.83842" lon="4.70148">
        <ele>284.70432</ele>
        <time>2023-11-23T09:16:24.000Z</time>
      </trkpt>
      <trkpt lat="45.83838" lon="4.70154">
        <ele>284.60938</ele>
        <time>2023-11-23T09:16:25.000Z</time>
      </trkpt>
      <trkpt lat="45.83835" lon="4.70159">
        <ele>284.74594</ele>
        <time>2023-11-23T09:16:26.000Z</time>
      </trkpt>
      <trkpt lat="45.83832" lon="4.70164">
        <ele>284.85971</ele>
        <time>2023-11-23T09:16:27.000Z</time>
      </trkpt>
      <trkpt lat="45.83829" lon="4.70168">
        <ele>284.95718</ele>
        <time>2023-11-23T09:16:28.000Z</time>
      </trkpt>
      <trkpt lat="45.83826" lon="4.70172">
        <ele>285.07169</ele>
        <time>2023-11-23T09:16:29.000Z</time>
      </trkpt>
      <trkpt lat="45.83823" lon="4.70175">
        <ele>285.43402</ele>
        <time>2023-11-23T09:16:30.000Z</time>
      </trkpt>
      <trkpt lat="45.83821" lon="4.70177">
        <ele>285.9798</ele>
        <time>2023-11-23T09:16:31.000Z</time>
      </trkpt>
      <trkpt lat="45.83821" lon="4.70179">
        <ele>286.70004</ele>
        <time>2023-11-23T09:16:32.000Z</time>
      </trkpt>
      <trkpt lat="45.83819" lon="4.70183">
        <ele>286.89429</ele>
        <time>2023-11-23T09:16:33.000Z</time>
      </trkpt>
      <trkpt lat="45.83817" lon="4.70187">
        <ele>287.30322</ele>
        <time>2023-11-23T09:16:34.000Z</time>
      </trkpt>
      <trkpt lat="45.83814" lon="4.70189">
        <ele>287.80334</ele>
        <time>2023-11-23T09:16:35.000Z</time>
      </trkpt>
      <trkpt lat="45.8381" lon="4.70192">
        <ele>288.22653</ele>
        <time>2023-11-23T09:16:36.000Z</time>
      </trkpt>
      <trkpt lat="45.83807" lon="4.70194">
        <ele>288.63089</ele>
        <time>2023-11-23T09:16:38.000Z</time>
      </trkpt>
      <trkpt lat="45.83805" lon="4.70195">
        <ele>289.06381</ele>
        <time>2023-11-23T09:16:39.000Z</time>
      </trkpt>
      <trkpt lat="45.83803" lon="4.70199">
        <ele>289.46399</ele>
        <time>2023-11-23T09:16:41.000Z</time>
      </trkpt>
      <trkpt lat="45.83802" lon="4.70202">
        <ele>289.88611</ele>
        <time>2023-11-23T09:16:42.000Z</time>
      </trkpt>
      <trkpt lat="45.83802" lon="4.70205">
        <ele>290.54608</ele>
        <time>2023-11-23T09:16:43.000Z</time>
      </trkpt>
      <trkpt lat="45.83802" lon="4.70208">
        <ele>291.14273</ele>
        <time>2023-11-23T09:16:44.000Z</time>
      </trkpt>
      <trkpt lat="45.83802" lon="4.70212">
        <ele>291.77936</ele>
        <time>2023-11-23T09:16:45.000Z</time>
      </trkpt>
      <trkpt lat="45.83803" lon="4.70216">
        <ele>292.55112</ele>
        <time>2023-11-23T09:16:46.000Z</time>
      </trkpt>
      <trkpt lat="45.83803" lon="4.7022">
        <ele>293.30981</ele>
        <time>2023-11-23T09:16:47.000Z</time>
      </trkpt>
      <trkpt lat="45.83803" lon="4.70223">
        <ele>293.30545</ele>
        <time>2023-11-23T09:16:48.000Z</time>
      </trkpt>
      <trkpt lat="45.83804" lon="4.70227">
        <ele>293.42142</ele>
        <time>2023-11-23T09:16:49.000Z</time>
      </trkpt>
      <trkpt lat="45.83806" lon="4.70231">
        <ele>293.46472</ele>
        <time>2023-11-23T09:16:50.000Z</time>
      </trkpt>
      <trkpt lat="45.83807" lon="4.70234">
        <ele>293.5491</ele>
        <time>2023-11-23T09:16:51.000Z</time>
      </trkpt>
      <trkpt lat="45.83808" lon="4.70237">
        <ele>293.71039</ele>
        <time>2023-11-23T09:16:52.000Z</time>
      </trkpt>
      <trkpt lat="45.83809" lon="4.7024">
        <ele>293.70123</ele>
        <time>2023-11-23T09:16:53.000Z</time>
      </trkpt>
      <trkpt lat="45.8381" lon="4.70244">
        <ele>293.57901</ele>
        <time>2023-11-23T09:16:54.000Z</time>
      </trkpt>
      <trkpt lat="45.83811" lon="4.70248">
        <ele>294.09308</ele>
        <time>2023-11-23T09:16:55.000Z</time>
      </trkpt>
      <trkpt lat="45.83811" lon="4.70252">
        <ele>293.91321</ele>
        <time>2023-11-23T09:16:56.000Z</time>
      </trkpt>
      <trkpt lat="45.83812" lon="4.70256">
        <ele>293.73621</ele>
        <time>2023-11-23T09:16:57.000Z</time>
      </trkpt>
      <trkpt lat="45.83813" lon="4.7026">
        <ele>293.61328</ele>
        <time>2023-11-23T09:16:58.000Z</time>
      </trkpt>
      <trkpt lat="45.83814" lon="4.70264">
        <ele>293.51349</ele>
        <time>2023-11-23T09:16:59.000Z</time>
      </trkpt>
      <trkpt lat="45.83815" lon="4.70268">
        <ele>293.32428</ele>
        <time>2023-11-23T09:17:00.000Z</time>
      </trkpt>
      <trkpt lat="45.83816" lon="4.70273">
        <ele>293.00494</ele>
        <time>2023-11-23T09:17:01.000Z</time>
      </trkpt>
      <trkpt lat="45.83816" lon="4.70277">
        <ele>292.71371</ele>
        <time>2023-11-23T09:17:02.000Z</time>
      </trkpt>
      <trkpt lat="45.83817" lon="4.70282">
        <ele>292.242</ele>
        <time>2023-11-23T09:17:03.000Z</time>
      </trkpt>
      <trkpt lat="45.83818" lon="4.70286">
        <ele>291.93036</ele>
        <time>2023-11-23T09:17:04.000Z</time>
      </trkpt>
      <trkpt lat="45.83819" lon="4.7029">
        <ele>291.63028</ele>
        <time>2023-11-23T09:17:05.000Z</time>
      </trkpt>
      <trkpt lat="45.8382" lon="4.70295">
        <ele>291.18207</ele>
        <time>2023-11-23T09:17:06.000Z</time>
      </trkpt>
      <trkpt lat="45.83821" lon="4.703">
        <ele>290.72705</ele>
        <time>2023-11-23T09:17:07.000Z</time>
      </trkpt>
      <trkpt lat="45.83822" lon="4.70304">
        <ele>290.75311</ele>
        <time>2023-11-23T09:17:08.000Z</time>
      </trkpt>
      <trkpt lat="45.83823" lon="4.70308">
        <ele>290.69296</ele>
        <time>2023-11-23T09:17:09.000Z</time>
      </trkpt>
      <trkpt lat="45.83824" lon="4.70312">
        <ele>290.68808</ele>
        <time>2023-11-23T09:17:10.000Z</time>
      </trkpt>
      <trkpt lat="45.83824" lon="4.70316">
        <ele>290.56659</ele>
        <time>2023-11-23T09:17:11.000Z</time>
      </trkpt>
      <trkpt lat="45.83825" lon="4.7032">
        <ele>290.1662</ele>
        <time>2023-11-23T09:17:12.000Z</time>
      </trkpt>
      <trkpt lat="45.83826" lon="4.70324">
        <ele>289.71976</ele>
        <time>2023-11-23T09:17:13.000Z</time>
      </trkpt>
      <trkpt lat="45.83827" lon="4.70329">
        <ele>289.26068</ele>
        <time>2023-11-23T09:17:14.000Z</time>
      </trkpt>
      <trkpt lat="45.83829" lon="4.70333">
        <ele>288.7128</ele>
        <time>2023-11-23T09:17:15.000Z</time>
      </trkpt>
      <trkpt lat="45.83829" lon="4.70338">
        <ele>288.66522</ele>
        <time>2023-11-23T09:17:16.000Z</time>
      </trkpt>
      <trkpt lat="45.8383" lon="4.70342">
        <ele>288.54633</ele>
        <time>2023-11-23T09:17:17.000Z</time>
      </trkpt>
      <trkpt lat="45.83831" lon="4.70346">
        <ele>288.40482</ele>
        <time>2023-11-23T09:17:18.000Z</time>
      </trkpt>
      <trkpt lat="45.83832" lon="4.70351">
        <ele>288.27567</ele>
        <time>2023-11-23T09:17:19.000Z</time>
      </trkpt>
      <trkpt lat="45.83833" lon="4.70356">
        <ele>288.22443</ele>
        <time>2023-11-23T09:17:20.000Z</time>
      </trkpt>
      <trkpt lat="45.83834" lon="4.7036">
        <ele>288.33832</ele>
        <time>2023-11-23T09:17:21.000Z</time>
      </trkpt>
      <trkpt lat="45.83835" lon="4.70365">
        <ele>288.39392</ele>
        <time>2023-11-23T09:17:22.000Z</time>
      </trkpt>
      <trkpt lat="45.83835" lon="4.70369">
        <ele>288.39691</ele>
        <time>2023-11-23T09:17:23.000Z</time>
      </trkpt>
      <trkpt lat="45.83836" lon="4.70373">
        <ele>288.2879</ele>
        <time>2023-11-23T09:17:24.000Z</time>
      </trkpt>
      <trkpt lat="45.83837" lon="4.70378">
        <ele>288.15649</ele>
        <time>2023-11-23T09:17:25.000Z</time>
      </trkpt>
      <trkpt lat="45.83838" lon="4.70382">
        <ele>288.06573</ele>
        <time>2023-11-23T09:17:26.000Z</time>
      </trkpt>
      <trkpt lat="45.83839" lon="4.70387">
        <ele>287.97787</ele>
        <time>2023-11-23T09:17:27.000Z</time>
      </trkpt>
      <trkpt lat="45.8384" lon="4.70391">
        <ele>287.95468</ele>
        <time>2023-11-23T09:17:28.000Z</time>
      </trkpt>
      <trkpt lat="45.8384" lon="4.70396">
        <ele>287.91373</ele>
        <time>2023-11-23T09:17:29.000Z</time>
      </trkpt>
      <trkpt lat="45.83841" lon="4.704">
        <ele>287.85529</ele>
        <time>2023-11-23T09:17:30.000Z</time>
      </trkpt>
      <trkpt lat="45.83842" lon="4.70405">
        <ele>288.04132</ele>
        <time>2023-11-23T09:17:31.000Z</time>
      </trkpt>
      <trkpt lat="45.83844" lon="4.70409">
        <ele>288.2413</ele>
        <time>2023-11-23T09:17:32.000Z</time>
      </trkpt>
      <trkpt lat="45.83845" lon="4.70414">
        <ele>288.20694</ele>
        <time>2023-11-23T09:17:33.000Z</time>
      </trkpt>
      <trkpt lat="45.83845" lon="4.70419">
        <ele>288.12253</ele>
        <time>2023-11-23T09:17:34.000Z</time>
      </trkpt>
      <trkpt lat="45.83846" lon="4.70423">
        <ele>288.03851</ele>
        <time>2023-11-23T09:17:35.000Z</time>
      </trkpt>
      <trkpt lat="45.83847" lon="4.70428">
        <ele>288.25946</ele>
        <time>2023-11-23T09:17:36.000Z</time>
      </trkpt>
      <trkpt lat="45.83849" lon="4.70433">
        <ele>288.4353</ele>
        <time>2023-11-23T09:17:37.000Z</time>
      </trkpt>
      <trkpt lat="45.8385" lon="4.70437">
        <ele>288.52872</ele>
        <time>2023-11-23T09:17:38.000Z</time>
      </trkpt>
      <trkpt lat="45.83851" lon="4.70442">
        <ele>288.66547</ele>
        <time>2023-11-23T09:17:39.000Z</time>
      </trkpt>
      <trkpt lat="45.83852" lon="4.70447">
        <ele>288.78021</ele>
        <time>2023-11-23T09:17:40.000Z</time>
      </trkpt>
      <trkpt lat="45.83853" lon="4.70452">
        <ele>288.8432</ele>
        <time>2023-11-23T09:17:41.000Z</time>
      </trkpt>
      <trkpt lat="45.83854" lon="4.70456">
        <ele>289.39362</ele>
        <time>2023-11-23T09:17:42.000Z</time>
      </trkpt>
      <trkpt lat="45.83855" lon="4.7046">
        <ele>289.7514</ele>
        <time>2023-11-23T09:17:43.000Z</time>
      </trkpt>
      <trkpt lat="45.83856" lon="4.70465">
        <ele>290.14679</ele>
        <time>2023-11-23T09:17:44.000Z</time>
      </trkpt>
      <trkpt lat="45.83857" lon="4.70469">
        <ele>290.52414</ele>
        <time>2023-11-23T09:17:45.000Z</time>
      </trkpt>
      <trkpt lat="45.83858" lon="4.70473">
        <ele>291.00861</ele>
        <time>2023-11-23T09:17:46.000Z</time>
      </trkpt>
      <trkpt lat="45.83859" lon="4.70478">
        <ele>291.20477</ele>
        <time>2023-11-23T09:17:47.000Z</time>
      </trkpt>
      <trkpt lat="45.8386" lon="4.70482">
        <ele>291.23251</ele>
        <time>2023-11-23T09:17:48.000Z</time>
      </trkpt>
      <trkpt lat="45.8386" lon="4.70486">
        <ele>291.30646</ele>
        <time>2023-11-23T09:17:49.000Z</time>
      </trkpt>
      <trkpt lat="45.83861" lon="4.7049">
        <ele>291.48636</ele>
        <time>2023-11-23T09:17:50.000Z</time>
      </trkpt>
      <trkpt lat="45.83862" lon="4.70494">
        <ele>291.59244</ele>
        <time>2023-11-23T09:17:51.000Z</time>
      </trkpt>
      <trkpt lat="45.83863" lon="4.70497">
        <ele>291.68399</ele>
        <time>2023-11-23T09:17:52.000Z</time>
      </trkpt>
      <trkpt lat="45.83864" lon="4.70501">
        <ele>292.01434</ele>
        <time>2023-11-23T09:17:54.000Z</time>
      </trkpt>
      <trkpt lat="45.83866" lon="4.70505">
        <ele>292.11929</ele>
        <time>2023-11-23T09:17:56.000Z</time>
      </trkpt>
      <trkpt lat="45.83868" lon="4.70507">
        <ele>292.30435</ele>
        <time>2023-11-23T09:17:57.000Z</time>
      </trkpt>
      <trkpt lat="45.8387" lon="4.70508">
        <ele>292.20715</ele>
        <time>2023-11-23T09:17:58.000Z</time>
      </trkpt>
      <trkpt lat="45.83873" lon="4.70508">
        <ele>292.04053</ele>
        <time>2023-11-23T09:17:59.000Z</time>
      </trkpt>
      <trkpt lat="45.83876" lon="4.70508">
        <ele>291.95108</ele>
        <time>2023-11-23T09:18:00.000Z</time>
      </trkpt>
      <trkpt lat="45.83879" lon="4.70507">
        <ele>291.80893</ele>
        <time>2023-11-23T09:18:01.000Z</time>
      </trkpt>
      <trkpt lat="45.83882" lon="4.70506">
        <ele>291.67606</ele>
        <time>2023-11-23T09:18:02.000Z</time>
      </trkpt>
      <trkpt lat="45.83885" lon="4.70505">
        <ele>291.58658</ele>
        <time>2023-11-23T09:18:03.000Z</time>
      </trkpt>
      <trkpt lat="45.83888" lon="4.70503">
        <ele>291.0524</ele>
        <time>2023-11-23T09:18:04.000Z</time>
      </trkpt>
      <trkpt lat="45.83891" lon="4.70501">
        <ele>290.98203</ele>
        <time>2023-11-23T09:18:05.000Z</time>
      </trkpt>
      <trkpt lat="45.83894" lon="4.70499">
        <ele>291.17285</ele>
        <time>2023-11-23T09:18:06.000Z</time>
      </trkpt>
      <trkpt lat="45.83897" lon="4.70498">
        <ele>291.36295</ele>
        <time>2023-11-23T09:18:07.000Z</time>
      </trkpt>
      <trkpt lat="45.839" lon="4.70496">
        <ele>291.46774</ele>
        <time>2023-11-23T09:18:08.000Z</time>
      </trkpt>
      <trkpt lat="45.83903" lon="4.70493">
        <ele>291.52863</ele>
        <time>2023-11-23T09:18:09.000Z</time>
      </trkpt>
      <trkpt lat="45.83906" lon="4.70491">
        <ele>291.82507</ele>
        <time>2023-11-23T09:18:10.000Z</time>
      </trkpt>
      <trkpt lat="45.83909" lon="4.70489">
        <ele>292.06451</ele>
        <time>2023-11-23T09:18:11.000Z</time>
      </trkpt>
      <trkpt lat="45.83912" lon="4.70487">
        <ele>292.16827</ele>
        <time>2023-11-23T09:18:12.000Z</time>
      </trkpt>
      <trkpt lat="45.83915" lon="4.70485">
        <ele>292.16858</ele>
        <time>2023-11-23T09:18:13.000Z</time>
      </trkpt>
      <trkpt lat="45.83918" lon="4.70483">
        <ele>292.17136</ele>
        <time>2023-11-23T09:18:14.000Z</time>
      </trkpt>
      <trkpt lat="45.83921" lon="4.70482">
        <ele>292.20367</ele>
        <time>2023-11-23T09:18:15.000Z</time>
      </trkpt>
      <trkpt lat="45.83924" lon="4.70481">
        <ele>292.46802</ele>
        <time>2023-11-23T09:18:16.000Z</time>
      </trkpt>
      <trkpt lat="45.83927" lon="4.70481">
        <ele>292.61618</ele>
        <time>2023-11-23T09:18:17.000Z</time>
      </trkpt>
      <trkpt lat="45.8393" lon="4.70482">
        <ele>292.83035</ele>
        <time>2023-11-23T09:18:18.000Z</time>
      </trkpt>
      <trkpt lat="45.83932" lon="4.70485">
        <ele>293.20142</ele>
        <time>2023-11-23T09:18:19.000Z</time>
      </trkpt>
      <trkpt lat="45.83933" lon="4.7049">
        <ele>293.57321</ele>
        <time>2023-11-23T09:18:20.000Z</time>
      </trkpt>
      <trkpt lat="45.83933" lon="4.70495">
        <ele>293.93781</ele>
        <time>2023-11-23T09:18:21.000Z</time>
      </trkpt>
      <trkpt lat="45.83932" lon="4.705">
        <ele>294.25565</ele>
        <time>2023-11-23T09:18:22.000Z</time>
      </trkpt>
      <trkpt lat="45.83932" lon="4.70505">
        <ele>294.53644</ele>
        <time>2023-11-23T09:18:23.000Z</time>
      </trkpt>
      <trkpt lat="45.83932" lon="4.70511">
        <ele>294.8161</ele>
        <time>2023-11-23T09:18:24.000Z</time>
      </trkpt>
      <trkpt lat="45.83931" lon="4.70516">
        <ele>294.84073</ele>
        <time>2023-11-23T09:18:25.000Z</time>
      </trkpt>
      <trkpt lat="45.83931" lon="4.70521">
        <ele>294.76389</ele>
        <time>2023-11-23T09:18:26.000Z</time>
      </trkpt>
      <trkpt lat="45.83931" lon="4.70526">
        <ele>294.7027</ele>
        <time>2023-11-23T09:18:27.000Z</time>
      </trkpt>
      <trkpt lat="45.83931" lon="4.70531">
        <ele>294.73203</ele>
        <time>2023-11-23T09:18:28.000Z</time>
      </trkpt>
      <trkpt lat="45.83931" lon="4.70537">
        <ele>295.12146</ele>
        <time>2023-11-23T09:18:29.000Z</time>
      </trkpt>
      <trkpt lat="45.83931" lon="4.70542">
        <ele>295.08377</ele>
        <time>2023-11-23T09:18:30.000Z</time>
      </trkpt>
      <trkpt lat="45.83931" lon="4.70547">
        <ele>295.12744</ele>
        <time>2023-11-23T09:18:31.000Z</time>
      </trkpt>
      <trkpt lat="45.83931" lon="4.70552">
        <ele>295.18118</ele>
        <time>2023-11-23T09:18:32.000Z</time>
      </trkpt>
      <trkpt lat="45.83931" lon="4.70556">
        <ele>295.22934</ele>
        <time>2023-11-23T09:18:33.000Z</time>
      </trkpt>
      <trkpt lat="45.83931" lon="4.70561">
        <ele>295.3175</ele>
        <time>2023-11-23T09:18:34.000Z</time>
      </trkpt>
      <trkpt lat="45.83931" lon="4.70566">
        <ele>295.3941</ele>
        <time>2023-11-23T09:18:35.000Z</time>
      </trkpt>
      <trkpt lat="45.83931" lon="4.7057">
        <ele>295.47446</ele>
        <time>2023-11-23T09:18:36.000Z</time>
      </trkpt>
      <trkpt lat="45.83931" lon="4.70575">
        <ele>295.6051</ele>
        <time>2023-11-23T09:18:37.000Z</time>
      </trkpt>
      <trkpt lat="45.83931" lon="4.70579">
        <ele>295.67197</ele>
        <time>2023-11-23T09:18:38.000Z</time>
      </trkpt>
      <trkpt lat="45.83931" lon="4.70584">
        <ele>295.70245</ele>
        <time>2023-11-23T09:18:39.000Z</time>
      </trkpt>
      <trkpt lat="45.83931" lon="4.70589">
        <ele>295.55975</ele>
        <time>2023-11-23T09:18:40.000Z</time>
      </trkpt>
      <trkpt lat="45.83931" lon="4.70593">
        <ele>295.45319</ele>
        <time>2023-11-23T09:18:41.000Z</time>
      </trkpt>
      <trkpt lat="45.83932" lon="4.70598">
        <ele>295.43707</ele>
        <time>2023-11-23T09:18:42.000Z</time>
      </trkpt>
      <trkpt lat="45.83932" lon="4.70603">
        <ele>295.32513</ele>
        <time>2023-11-23T09:18:43.000Z</time>
      </trkpt>
      <trkpt lat="45.83932" lon="4.70608">
        <ele>295.22632</ele>
        <time>2023-11-23T09:18:44.000Z</time>
      </trkpt>
      <trkpt lat="45.83932" lon="4.70613">
        <ele>295.1232</ele>
        <time>2023-11-23T09:18:45.000Z</time>
      </trkpt>
      <trkpt lat="45.83932" lon="4.70617">
        <ele>294.86032</ele>
        <time>2023-11-23T09:18:46.000Z</time>
      </trkpt>
      <trkpt lat="45.83933" lon="4.70622">
        <ele>294.61026</ele>
        <time>2023-11-23T09:18:47.000Z</time>
      </trkpt>
      <trkpt lat="45.83933" lon="4.70627">
        <ele>294.23224</ele>
        <time>2023-11-23T09:18:48.000Z</time>
      </trkpt>
      <trkpt lat="45.83933" lon="4.70632">
        <ele>293.81403</ele>
        <time>2023-11-23T09:18:49.000Z</time>
      </trkpt>
      <trkpt lat="45.83933" lon="4.70636">
        <ele>293.76797</ele>
        <time>2023-11-23T09:18:50.000Z</time>
      </trkpt>
      <trkpt lat="45.83933" lon="4.70642">
        <ele>293.66925</ele>
        <time>2023-11-23T09:18:51.000Z</time>
      </trkpt>
      <trkpt lat="45.83933" lon="4.70647">
        <ele>293.59039</ele>
        <time>2023-11-23T09:18:52.000Z</time>
      </trkpt>
      <trkpt lat="45.83933" lon="4.70652">
        <ele>293.50201</ele>
        <time>2023-11-23T09:18:53.000Z</time>
      </trkpt>
      <trkpt lat="45.83934" lon="4.70657">
        <ele>293.39716</ele>
        <time>2023-11-23T09:18:54.000Z</time>
      </trkpt>
      <trkpt lat="45.83934" lon="4.70661">
        <ele>293.29031</ele>
        <time>2023-11-23T09:18:55.000Z</time>
      </trkpt>
      <trkpt lat="45.83934" lon="4.70666">
        <ele>293.14081</ele>
        <time>2023-11-23T09:18:56.000Z</time>
      </trkpt>
      <trkpt lat="45.83934" lon="4.70671">
        <ele>292.9595</ele>
        <time>2023-11-23T09:18:57.000Z</time>
      </trkpt>
      <trkpt lat="45.83934" lon="4.70676">
        <ele>292.74744</ele>
        <time>2023-11-23T09:18:58.000Z</time>
      </trkpt>
      <trkpt lat="45.83934" lon="4.70682">
        <ele>292.53787</ele>
        <time>2023-11-23T09:18:59.000Z</time>
      </trkpt>
      <trkpt lat="45.83934" lon="4.70687">
        <ele>292.54901</ele>
        <time>2023-11-23T09:19:00.000Z</time>
      </trkpt>
      <trkpt lat="45.83934" lon="4.70692">
        <ele>292.56924</ele>
        <time>2023-11-23T09:19:01.000Z</time>
      </trkpt>
      <trkpt lat="45.83934" lon="4.70698">
        <ele>292.53827</ele>
        <time>2023-11-23T09:19:02.000Z</time>
      </trkpt>
      <trkpt lat="45.83934" lon="4.70703">
        <ele>292.61584</ele>
        <time>2023-11-23T09:19:03.000Z</time>
      </trkpt>
      <trkpt lat="45.83934" lon="4.70708">
        <ele>292.67761</ele>
        <time>2023-11-23T09:19:04.000Z</time>
      </trkpt>
      <trkpt lat="45.83934" lon="4.70713">
        <ele>292.72421</ele>
        <time>2023-11-23T09:19:05.000Z</time>
      </trkpt>
      <trkpt lat="45.83933" lon="4.70718">
        <ele>292.74942</ele>
        <time>2023-11-23T09:19:06.000Z</time>
      </trkpt>
      <trkpt lat="45.83933" lon="4.70723">
        <ele>292.81732</ele>
        <time>2023-11-23T09:19:07.000Z</time>
      </trkpt>
      <trkpt lat="45.83933" lon="4.70727">
        <ele>292.31268</ele>
        <time>2023-11-23T09:19:08.000Z</time>
      </trkpt>
      <trkpt lat="45.83932" lon="4.70732">
        <ele>292.52957</ele>
        <time>2023-11-23T09:19:09.000Z</time>
      </trkpt>
      <trkpt lat="45.83931" lon="4.70737">
        <ele>292.58212</ele>
        <time>2023-11-23T09:19:10.000Z</time>
      </trkpt>
      <trkpt lat="45.8393" lon="4.70741">
        <ele>292.64328</ele>
        <time>2023-11-23T09:19:11.000Z</time>
      </trkpt>
      <trkpt lat="45.8393" lon="4.70746">
        <ele>292.70648</ele>
        <time>2023-11-23T09:19:12.000Z</time>
      </trkpt>
      <trkpt lat="45.83929" lon="4.7075">
        <ele>292.78262</ele>
        <time>2023-11-23T09:19:13.000Z</time>
      </trkpt>
      <trkpt lat="45.83928" lon="4.70754">
        <ele>292.84406</ele>
        <time>2023-11-23T09:19:14.000Z</time>
      </trkpt>
      <trkpt lat="45.83927" lon="4.70758">
        <ele>292.9104</ele>
        <time>2023-11-23T09:19:15.000Z</time>
      </trkpt>
      <trkpt lat="45.83926" lon="4.70762">
        <ele>293.02634</ele>
        <time>2023-11-23T09:19:16.000Z</time>
      </trkpt>
      <trkpt lat="45.83924" lon="4.70765">
        <ele>293.14734</ele>
        <time>2023-11-23T09:19:17.000Z</time>
      </trkpt>
      <trkpt lat="45.83922" lon="4.70769">
        <ele>293.26395</ele>
        <time>2023-11-23T09:19:18.000Z</time>
      </trkpt>
      <trkpt lat="45.83921" lon="4.70773">
        <ele>293.37653</ele>
        <time>2023-11-23T09:19:19.000Z</time>
      </trkpt>
      <trkpt lat="45.83919" lon="4.70777">
        <ele>293.44119</ele>
        <time>2023-11-23T09:19:20.000Z</time>
      </trkpt>
      <trkpt lat="45.83917" lon="4.70781">
        <ele>293.69641</ele>
        <time>2023-11-23T09:19:21.000Z</time>
      </trkpt>
      <trkpt lat="45.83916" lon="4.70785">
        <ele>293.96149</ele>
        <time>2023-11-23T09:19:22.000Z</time>
      </trkpt>
      <trkpt lat="45.83914" lon="4.70788">
        <ele>294.23907</ele>
        <time>2023-11-23T09:19:23.000Z</time>
      </trkpt>
      <trkpt lat="45.83912" lon="4.70792">
        <ele>294.5076</ele>
        <time>2023-11-23T09:19:24.000Z</time>
      </trkpt>
      <trkpt lat="45.8391" lon="4.70796">
        <ele>294.78638</ele>
        <time>2023-11-23T09:19:25.000Z</time>
      </trkpt>
      <trkpt lat="45.83908" lon="4.70799">
        <ele>295.07761</ele>
        <time>2023-11-23T09:19:26.000Z</time>
      </trkpt>
      <trkpt lat="45.83906" lon="4.70803">
        <ele>295.30716</ele>
        <time>2023-11-23T09:19:27.000Z</time>
      </trkpt>
      <trkpt lat="45.83904" lon="4.70807">
        <ele>296.10062</ele>
        <time>2023-11-23T09:19:28.000Z</time>
      </trkpt>
      <trkpt lat="45.83902" lon="4.70811">
        <ele>296.19589</ele>
        <time>2023-11-23T09:19:29.000Z</time>
      </trkpt>
      <trkpt lat="45.839" lon="4.70815">
        <ele>296.39999</ele>
        <time>2023-11-23T09:19:30.000Z</time>
      </trkpt>
      <trkpt lat="45.83898" lon="4.70818">
        <ele>296.58832</ele>
        <time>2023-11-23T09:19:31.000Z</time>
      </trkpt>
      <trkpt lat="45.83896" lon="4.70822">
        <ele>296.58447</ele>
        <time>2023-11-23T09:19:32.000Z</time>
      </trkpt>
      <trkpt lat="45.83894" lon="4.70826">
        <ele>296.61023</ele>
        <time>2023-11-23T09:19:33.000Z</time>
      </trkpt>
      <trkpt lat="45.83891" lon="4.7083">
        <ele>296.60938</ele>
        <time>2023-11-23T09:19:34.000Z</time>
      </trkpt>
      <trkpt lat="45.83889" lon="4.70834">
        <ele>296.58975</ele>
        <time>2023-11-23T09:19:35.000Z</time>
      </trkpt>
      <trkpt lat="45.83887" lon="4.70838">
        <ele>296.55365</ele>
        <time>2023-11-23T09:19:36.000Z</time>
      </trkpt>
      <trkpt lat="45.83885" lon="4.70842">
        <ele>296.52023</ele>
        <time>2023-11-23T09:19:37.000Z</time>
      </trkpt>
      <trkpt lat="45.83882" lon="4.70845">
        <ele>296.50989</ele>
        <time>2023-11-23T09:19:38.000Z</time>
      </trkpt>
      <trkpt lat="45.83879" lon="4.70848">
        <ele>296.52573</ele>
        <time>2023-11-23T09:19:39.000Z</time>
      </trkpt>
      <trkpt lat="45.83876" lon="4.70851">
        <ele>296.54349</ele>
        <time>2023-11-23T09:19:40.000Z</time>
      </trkpt>
      <trkpt lat="45.83873" lon="4.70854">
        <ele>296.41449</ele>
        <time>2023-11-23T09:19:41.000Z</time>
      </trkpt>
      <trkpt lat="45.8387" lon="4.70858">
        <ele>296.33936</ele>
        <time>2023-11-23T09:19:42.000Z</time>
      </trkpt>
      <trkpt lat="45.83868" lon="4.70861">
        <ele>296.12405</ele>
        <time>2023-11-23T09:19:43.000Z</time>
      </trkpt>
      <trkpt lat="45.83866" lon="4.70865">
        <ele>295.93549</ele>
        <time>2023-11-23T09:19:44.000Z</time>
      </trkpt>
      <trkpt lat="45.83864" lon="4.70869">
        <ele>295.74243</ele>
        <time>2023-11-23T09:19:45.000Z</time>
      </trkpt>
      <trkpt lat="45.83862" lon="4.70873">
        <ele>295.53192</ele>
        <time>2023-11-23T09:19:46.000Z</time>
      </trkpt>
      <trkpt lat="45.8386" lon="4.70877">
        <ele>295.33038</ele>
        <time>2023-11-23T09:19:47.000Z</time>
      </trkpt>
      <trkpt lat="45.83858" lon="4.70882">
        <ele>295.16739</ele>
        <time>2023-11-23T09:19:48.000Z</time>
      </trkpt>
      <trkpt lat="45.83856" lon="4.70886">
        <ele>295.01123</ele>
        <time>2023-11-23T09:19:49.000Z</time>
      </trkpt>
      <trkpt lat="45.83854" lon="4.7089">
        <ele>294.88165</ele>
        <time>2023-11-23T09:19:50.000Z</time>
      </trkpt>
      <trkpt lat="45.83851" lon="4.70894">
        <ele>294.74969</ele>
        <time>2023-11-23T09:19:51.000Z</time>
      </trkpt>
      <trkpt lat="45.83849" lon="4.70898">
        <ele>294.80878</ele>
        <time>2023-11-23T09:19:52.000Z</time>
      </trkpt>
      <trkpt lat="45.83847" lon="4.70902">
        <ele>294.81619</ele>
        <time>2023-11-23T09:19:53.000Z</time>
      </trkpt>
      <trkpt lat="45.83844" lon="4.70907">
        <ele>294.86655</ele>
        <time>2023-11-23T09:19:54.000Z</time>
      </trkpt>
      <trkpt lat="45.83842" lon="4.70911">
        <ele>294.9726</ele>
        <time>2023-11-23T09:19:55.000Z</time>
      </trkpt>
      <trkpt lat="45.83839" lon="4.70916">
        <ele>295.08749</ele>
        <time>2023-11-23T09:19:56.000Z</time>
      </trkpt>
      <trkpt lat="45.83836" lon="4.70921">
        <ele>295.1933</ele>
        <time>2023-11-23T09:19:57.000Z</time>
      </trkpt>
      <trkpt lat="45.83833" lon="4.70925">
        <ele>295.14514</ele>
        <time>2023-11-23T09:19:58.000Z</time>
      </trkpt>
      <trkpt lat="45.8383" lon="4.7093">
        <ele>295.07611</ele>
        <time>2023-11-23T09:19:59.000Z</time>
      </trkpt>
      <trkpt lat="45.83827" lon="4.70935">
        <ele>295.02588</ele>
        <time>2023-11-23T09:20:00.000Z</time>
      </trkpt>
      <trkpt lat="45.83824" lon="4.70939">
        <ele>294.90723</ele>
        <time>2023-11-23T09:20:01.000Z</time>
      </trkpt>
      <trkpt lat="45.83821" lon="4.70944">
        <ele>294.72284</ele>
        <time>2023-11-23T09:20:02.000Z</time>
      </trkpt>
      <trkpt lat="45.83819" lon="4.70949">
        <ele>294.69925</ele>
        <time>2023-11-23T09:20:03.000Z</time>
      </trkpt>
      <trkpt lat="45.83816" lon="4.70954">
        <ele>294.67374</ele>
        <time>2023-11-23T09:20:04.000Z</time>
      </trkpt>
      <trkpt lat="45.83813" lon="4.7096">
        <ele>294.63486</ele>
        <time>2023-11-23T09:20:05.000Z</time>
      </trkpt>
      <trkpt lat="45.83811" lon="4.70965">
        <ele>294.5943</ele>
        <time>2023-11-23T09:20:06.000Z</time>
      </trkpt>
      <trkpt lat="45.83808" lon="4.7097">
        <ele>294.54553</ele>
        <time>2023-11-23T09:20:07.000Z</time>
      </trkpt>
      <trkpt lat="45.83806" lon="4.70974">
        <ele>294.48605</ele>
        <time>2023-11-23T09:20:08.000Z</time>
      </trkpt>
      <trkpt lat="45.83803" lon="4.70979">
        <ele>294.39288</ele>
        <time>2023-11-23T09:20:09.000Z</time>
      </trkpt>
      <trkpt lat="45.838" lon="4.70983">
        <ele>294.29437</ele>
        <time>2023-11-23T09:20:10.000Z</time>
      </trkpt>
      <trkpt lat="45.83797" lon="4.70988">
        <ele>294.18256</ele>
        <time>2023-11-23T09:20:11.000Z</time>
      </trkpt>
      <trkpt lat="45.83794" lon="4.7099">
        <ele>294.08731</ele>
        <time>2023-11-23T09:20:12.000Z</time>
      </trkpt>
      <trkpt lat="45.83791" lon="4.70992">
        <ele>294.00787</ele>
        <time>2023-11-23T09:20:13.000Z</time>
      </trkpt>
      <trkpt lat="45.8379" lon="4.70997">
        <ele>293.90363</ele>
        <time>2023-11-23T09:20:14.000Z</time>
      </trkpt>
      <trkpt lat="45.83788" lon="4.71001">
        <ele>293.78046</ele>
        <time>2023-11-23T09:20:15.000Z</time>
      </trkpt>
      <trkpt lat="45.83787" lon="4.71005">
        <ele>293.65326</ele>
        <time>2023-11-23T09:20:16.000Z</time>
      </trkpt>
      <trkpt lat="45.83785" lon="4.7101">
        <ele>293.50357</ele>
        <time>2023-11-23T09:20:17.000Z</time>
      </trkpt>
      <trkpt lat="45.83783" lon="4.71014">
        <ele>293.49432</ele>
        <time>2023-11-23T09:20:18.000Z</time>
      </trkpt>
      <trkpt lat="45.83781" lon="4.71018">
        <ele>293.54321</ele>
        <time>2023-11-23T09:20:19.000Z</time>
      </trkpt>
      <trkpt lat="45.83778" lon="4.71022">
        <ele>293.57324</ele>
        <time>2023-11-23T09:20:20.000Z</time>
      </trkpt>
      <trkpt lat="45.83776" lon="4.71026">
        <ele>293.61676</ele>
        <time>2023-11-23T09:20:21.000Z</time>
      </trkpt>
      <trkpt lat="45.83773" lon="4.71029">
        <ele>293.71045</ele>
        <time>2023-11-23T09:20:22.000Z</time>
      </trkpt>
      <trkpt lat="45.83771" lon="4.71033">
        <ele>293.77576</ele>
        <time>2023-11-23T09:20:23.000Z</time>
      </trkpt>
      <trkpt lat="45.83768" lon="4.71037">
        <ele>293.66571</ele>
        <time>2023-11-23T09:20:24.000Z</time>
      </trkpt>
      <trkpt lat="45.83766" lon="4.71041">
        <ele>293.62152</ele>
        <time>2023-11-23T09:20:25.000Z</time>
      </trkpt>
      <trkpt lat="45.83763" lon="4.71046">
        <ele>293.57767</ele>
        <time>2023-11-23T09:20:26.000Z</time>
      </trkpt>
      <trkpt lat="45.83761" lon="4.7105">
        <ele>293.52676</ele>
        <time>2023-11-23T09:20:27.000Z</time>
      </trkpt>
      <trkpt lat="45.83758" lon="4.71055">
        <ele>293.5087</ele>
        <time>2023-11-23T09:20:28.000Z</time>
      </trkpt>
      <trkpt lat="45.83756" lon="4.7106">
        <ele>293.5094</ele>
        <time>2023-11-23T09:20:29.000Z</time>
      </trkpt>
      <trkpt lat="45.83753" lon="4.71064">
        <ele>293.52002</ele>
        <time>2023-11-23T09:20:30.000Z</time>
      </trkpt>
      <trkpt lat="45.8375" lon="4.71069">
        <ele>293.54675</ele>
        <time>2023-11-23T09:20:31.000Z</time>
      </trkpt>
      <trkpt lat="45.83747" lon="4.71074">
        <ele>293.54724</ele>
        <time>2023-11-23T09:20:32.000Z</time>
      </trkpt>
      <trkpt lat="45.83744" lon="4.7108">
        <ele>293.55679</ele>
        <time>2023-11-23T09:20:33.000Z</time>
      </trkpt>
      <trkpt lat="45.83741" lon="4.71085">
        <ele>293.57028</ele>
        <time>2023-11-23T09:20:34.000Z</time>
      </trkpt>
      <trkpt lat="45.83738" lon="4.7109">
        <ele>293.55072</ele>
        <time>2023-11-23T09:20:35.000Z</time>
      </trkpt>
      <trkpt lat="45.83735" lon="4.71094">
        <ele>293.53168</ele>
        <time>2023-11-23T09:20:36.000Z</time>
      </trkpt>
      <trkpt lat="45.83732" lon="4.71099">
        <ele>293.49103</ele>
        <time>2023-11-23T09:20:37.000Z</time>
      </trkpt>
      <trkpt lat="45.83729" lon="4.71104">
        <ele>293.46857</ele>
        <time>2023-11-23T09:20:38.000Z</time>
      </trkpt>
      <trkpt lat="45.83727" lon="4.71109">
        <ele>293.37524</ele>
        <time>2023-11-23T09:20:39.000Z</time>
      </trkpt>
      <trkpt lat="45.83723" lon="4.71114">
        <ele>293.3035</ele>
        <time>2023-11-23T09:20:40.000Z</time>
      </trkpt>
      <trkpt lat="45.8372" lon="4.71119">
        <ele>293.21735</ele>
        <time>2023-11-23T09:20:41.000Z</time>
      </trkpt>
      <trkpt lat="45.83718" lon="4.71125">
        <ele>293.08255</ele>
        <time>2023-11-23T09:20:42.000Z</time>
      </trkpt>
      <trkpt lat="45.83716" lon="4.7113">
        <ele>292.97174</ele>
        <time>2023-11-23T09:20:43.000Z</time>
      </trkpt>
      <trkpt lat="45.83714" lon="4.71136">
        <ele>293.01526</ele>
        <time>2023-11-23T09:20:44.000Z</time>
      </trkpt>
      <trkpt lat="45.83711" lon="4.7114">
        <ele>293.02667</ele>
        <time>2023-11-23T09:20:45.000Z</time>
      </trkpt>
      <trkpt lat="45.83708" lon="4.71144">
        <ele>293.03918</ele>
        <time>2023-11-23T09:20:46.000Z</time>
      </trkpt>
      <trkpt lat="45.83707" lon="4.71148">
        <ele>293.064</ele>
        <time>2023-11-23T09:20:47.000Z</time>
      </trkpt>
      <trkpt lat="45.83705" lon="4.71151">
        <ele>293.09262</ele>
        <time>2023-11-23T09:20:48.000Z</time>
      </trkpt>
      <trkpt lat="45.83702" lon="4.71153">
        <ele>293.12384</ele>
        <time>2023-11-23T09:20:49.000Z</time>
      </trkpt>
      <trkpt lat="45.837" lon="4.71157">
        <ele>293.13403</ele>
        <time>2023-11-23T09:20:50.000Z</time>
      </trkpt>
      <trkpt lat="45.83697" lon="4.7116">
        <ele>293.14355</ele>
        <time>2023-11-23T09:20:51.000Z</time>
      </trkpt>
      <trkpt lat="45.83696" lon="4.71165">
        <ele>293.14844</ele>
        <time>2023-11-23T09:20:52.000Z</time>
      </trkpt>
      <trkpt lat="45.83694" lon="4.7117">
        <ele>293.11249</ele>
        <time>2023-11-23T09:20:53.000Z</time>
      </trkpt>
      <trkpt lat="45.83693" lon="4.71175">
        <ele>293.07205</ele>
        <time>2023-11-23T09:20:54.000Z</time>
      </trkpt>
      <trkpt lat="45.83691" lon="4.7118">
        <ele>293.05798</ele>
        <time>2023-11-23T09:20:55.000Z</time>
      </trkpt>
      <trkpt lat="45.8369" lon="4.71185">
        <ele>293.07196</ele>
        <time>2023-11-23T09:20:56.000Z</time>
      </trkpt>
      <trkpt lat="45.83689" lon="4.7119">
        <ele>293.13989</ele>
        <time>2023-11-23T09:20:57.000Z</time>
      </trkpt>
      <trkpt lat="45.83687" lon="4.71195">
        <ele>293.16257</ele>
        <time>2023-11-23T09:20:58.000Z</time>
      </trkpt>
      <trkpt lat="45.83686" lon="4.712">
        <ele>293.37216</ele>
        <time>2023-11-23T09:20:59.000Z</time>
      </trkpt>
      <trkpt lat="45.83684" lon="4.71205">
        <ele>293.51285</ele>
        <time>2023-11-23T09:21:00.000Z</time>
      </trkpt>
      <trkpt lat="45.83682" lon="4.7121">
        <ele>293.9046</ele>
        <time>2023-11-23T09:21:01.000Z</time>
      </trkpt>
      <trkpt lat="45.83681" lon="4.71216">
        <ele>294.30597</ele>
        <time>2023-11-23T09:21:02.000Z</time>
      </trkpt>
      <trkpt lat="45.83679" lon="4.71223">
        <ele>294.69788</ele>
        <time>2023-11-23T09:21:03.000Z</time>
      </trkpt>
      <trkpt lat="45.83678" lon="4.71229">
        <ele>295.09412</ele>
        <time>2023-11-23T09:21:04.000Z</time>
      </trkpt>
      <trkpt lat="45.83676" lon="4.71235">
        <ele>295.46881</ele>
        <time>2023-11-23T09:21:05.000Z</time>
      </trkpt>
      <trkpt lat="45.83675" lon="4.71241">
        <ele>295.85242</ele>
        <time>2023-11-23T09:21:06.000Z</time>
      </trkpt>
      <trkpt lat="45.83673" lon="4.71248">
        <ele>296.24039</ele>
        <time>2023-11-23T09:21:07.000Z</time>
      </trkpt>
      <trkpt lat="45.83673" lon="4.71254">
        <ele>296.59161</ele>
        <time>2023-11-23T09:21:08.000Z</time>
      </trkpt>
      <trkpt lat="45.83672" lon="4.7126">
        <ele>296.931</ele>
        <time>2023-11-23T09:21:09.000Z</time>
      </trkpt>
      <trkpt lat="45.83671" lon="4.71265">
        <ele>297.27869</ele>
        <time>2023-11-23T09:21:10.000Z</time>
      </trkpt>
      <trkpt lat="45.83669" lon="4.71271">
        <ele>297.61456</ele>
        <time>2023-11-23T09:21:11.000Z</time>
      </trkpt>
      <trkpt lat="45.83668" lon="4.71277">
        <ele>297.95676</ele>
        <time>2023-11-23T09:21:12.000Z</time>
      </trkpt>
      <trkpt lat="45.83668" lon="4.71282">
        <ele>298.03976</ele>
        <time>2023-11-23T09:21:13.000Z</time>
      </trkpt>
      <trkpt lat="45.83666" lon="4.71288">
        <ele>298.11771</ele>
        <time>2023-11-23T09:21:14.000Z</time>
      </trkpt>
      <trkpt lat="45.83664" lon="4.71294">
        <ele>298.06607</ele>
        <time>2023-11-23T09:21:15.000Z</time>
      </trkpt>
      <trkpt lat="45.83663" lon="4.713">
        <ele>297.97406</ele>
        <time>2023-11-23T09:21:16.000Z</time>
      </trkpt>
      <trkpt lat="45.83662" lon="4.71306">
        <ele>297.86664</ele>
        <time>2023-11-23T09:21:17.000Z</time>
      </trkpt>
      <trkpt lat="45.83661" lon="4.71312">
        <ele>297.79901</ele>
        <time>2023-11-23T09:21:18.000Z</time>
      </trkpt>
      <trkpt lat="45.83659" lon="4.71318">
        <ele>297.56729</ele>
        <time>2023-11-23T09:21:19.000Z</time>
      </trkpt>
      <trkpt lat="45.83657" lon="4.71324">
        <ele>297.46506</ele>
        <time>2023-11-23T09:21:20.000Z</time>
      </trkpt>
      <trkpt lat="45.83656" lon="4.71329">
        <ele>297.13623</ele>
        <time>2023-11-23T09:21:21.000Z</time>
      </trkpt>
      <trkpt lat="45.83655" lon="4.71335">
        <ele>296.82123</ele>
        <time>2023-11-23T09:21:22.000Z</time>
      </trkpt>
      <trkpt lat="45.83652" lon="4.71341">
        <ele>296.56866</ele>
        <time>2023-11-23T09:21:23.000Z</time>
      </trkpt>
      <trkpt lat="45.83651" lon="4.71347">
        <ele>296.33749</ele>
        <time>2023-11-23T09:21:24.000Z</time>
      </trkpt>
      <trkpt lat="45.83649" lon="4.71352">
        <ele>296.13168</ele>
        <time>2023-11-23T09:21:25.000Z</time>
      </trkpt>
      <trkpt lat="45.83647" lon="4.71358">
        <ele>295.68964</ele>
        <time>2023-11-23T09:21:26.000Z</time>
      </trkpt>
      <trkpt lat="45.83645" lon="4.71364">
        <ele>295.26077</ele>
        <time>2023-11-23T09:21:27.000Z</time>
      </trkpt>
      <trkpt lat="45.83644" lon="4.71371">
        <ele>294.80167</ele>
        <time>2023-11-23T09:21:28.000Z</time>
      </trkpt>
      <trkpt lat="45.83643" lon="4.71377">
        <ele>294.34564</ele>
        <time>2023-11-23T09:21:29.000Z</time>
      </trkpt>
      <trkpt lat="45.83643" lon="4.71383">
        <ele>293.87164</ele>
        <time>2023-11-23T09:21:30.000Z</time>
      </trkpt>
      <trkpt lat="45.83642" lon="4.71389">
        <ele>293.39923</ele>
        <time>2023-11-23T09:21:31.000Z</time>
      </trkpt>
      <trkpt lat="45.8364" lon="4.71395">
        <ele>292.96478</ele>
        <time>2023-11-23T09:21:32.000Z</time>
      </trkpt>
      <trkpt lat="45.8364" lon="4.714">
        <ele>292.79803</ele>
        <time>2023-11-23T09:21:33.000Z</time>
      </trkpt>
      <trkpt lat="45.8364" lon="4.71405">
        <ele>292.60101</ele>
        <time>2023-11-23T09:21:34.000Z</time>
      </trkpt>
      <trkpt lat="45.83638" lon="4.71409">
        <ele>292.54993</ele>
        <time>2023-11-23T09:21:35.000Z</time>
      </trkpt>
      <trkpt lat="45.83637" lon="4.71414">
        <ele>292.53513</ele>
        <time>2023-11-23T09:21:36.000Z</time>
      </trkpt>
      <trkpt lat="45.83638" lon="4.71418">
        <ele>292.52597</ele>
        <time>2023-11-23T09:21:37.000Z</time>
      </trkpt>
      <trkpt lat="45.83637" lon="4.71422">
        <ele>292.44281</ele>
        <time>2023-11-23T09:21:38.000Z</time>
      </trkpt>
      <trkpt lat="45.83636" lon="4.71425">
        <ele>292.3537</ele>
        <time>2023-11-23T09:21:39.000Z</time>
      </trkpt>
      <trkpt lat="45.83636" lon="4.71429">
        <ele>292.23352</ele>
        <time>2023-11-23T09:21:40.000Z</time>
      </trkpt>
      <trkpt lat="45.83636" lon="4.71432">
        <ele>292.08026</ele>
        <time>2023-11-23T09:21:41.000Z</time>
      </trkpt>
      <trkpt lat="45.83636" lon="4.71437">
        <ele>291.90668</ele>
        <time>2023-11-23T09:21:42.000Z</time>
      </trkpt>
      <trkpt lat="45.83635" lon="4.71442">
        <ele>291.6275</ele>
        <time>2023-11-23T09:21:43.000Z</time>
      </trkpt>
      <trkpt lat="45.83634" lon="4.71448">
        <ele>291.32666</ele>
        <time>2023-11-23T09:21:44.000Z</time>
      </trkpt>
      <trkpt lat="45.83633" lon="4.71454">
        <ele>291.03351</ele>
        <time>2023-11-23T09:21:45.000Z</time>
      </trkpt>
      <trkpt lat="45.83631" lon="4.71459">
        <ele>291.10809</ele>
        <time>2023-11-23T09:21:46.000Z</time>
      </trkpt>
      <trkpt lat="45.83629" lon="4.71464">
        <ele>291.24542</ele>
        <time>2023-11-23T09:21:47.000Z</time>
      </trkpt>
      <trkpt lat="45.83627" lon="4.7147">
        <ele>291.15558</ele>
        <time>2023-11-23T09:21:48.000Z</time>
      </trkpt>
      <trkpt lat="45.83625" lon="4.71475">
        <ele>291.13211</ele>
        <time>2023-11-23T09:21:49.000Z</time>
      </trkpt>
      <trkpt lat="45.83623" lon="4.71479">
        <ele>291.16962</ele>
        <time>2023-11-23T09:21:50.000Z</time>
      </trkpt>
      <trkpt lat="45.8362" lon="4.71483">
        <ele>291.22702</ele>
        <time>2023-11-23T09:21:51.000Z</time>
      </trkpt>
      <trkpt lat="45.83617" lon="4.71486">
        <ele>291.24005</ele>
        <time>2023-11-23T09:21:52.000Z</time>
      </trkpt>
      <trkpt lat="45.83614" lon="4.71489">
        <ele>291.38324</ele>
        <time>2023-11-23T09:21:53.000Z</time>
      </trkpt>
      <trkpt lat="45.83611" lon="4.71491">
        <ele>291.59473</ele>
        <time>2023-11-23T09:21:54.000Z</time>
      </trkpt>
      <trkpt lat="45.83608" lon="4.71492">
        <ele>291.83377</ele>
        <time>2023-11-23T09:21:55.000Z</time>
      </trkpt>
      <trkpt lat="45.83606" lon="4.71494">
        <ele>291.82208</ele>
        <time>2023-11-23T09:21:56.000Z</time>
      </trkpt>
      <trkpt lat="45.83605" lon="4.71495">
        <ele>291.87189</ele>
        <time>2023-11-23T09:21:57.000Z</time>
      </trkpt>
      <trkpt lat="45.83604" lon="4.715">
        <ele>291.9787</ele>
        <time>2023-11-23T09:21:59.000Z</time>
      </trkpt>
      <trkpt lat="45.83605" lon="4.71503">
        <ele>292.10675</ele>
        <time>2023-11-23T09:22:00.000Z</time>
      </trkpt>
      <trkpt lat="45.83606" lon="4.71508">
        <ele>292.19482</ele>
        <time>2023-11-23T09:22:01.000Z</time>
      </trkpt>
      <trkpt lat="45.83608" lon="4.71512">
        <ele>292.28482</ele>
        <time>2023-11-23T09:22:02.000Z</time>
      </trkpt>
      <trkpt lat="45.83611" lon="4.71516">
        <ele>292.36432</ele>
        <time>2023-11-23T09:22:03.000Z</time>
      </trkpt>
      <trkpt lat="45.83613" lon="4.7152">
        <ele>292.50281</ele>
        <time>2023-11-23T09:22:04.000Z</time>
      </trkpt>
      <trkpt lat="45.83615" lon="4.71525">
        <ele>292.65555</ele>
        <time>2023-11-23T09:22:05.000Z</time>
      </trkpt>
      <trkpt lat="45.83616" lon="4.7153">
        <ele>292.84601</ele>
        <time>2023-11-23T09:22:06.000Z</time>
      </trkpt>
      <trkpt lat="45.83618" lon="4.71535">
        <ele>292.91995</ele>
        <time>2023-11-23T09:22:07.000Z</time>
      </trkpt>
      <trkpt lat="45.83618" lon="4.7154">
        <ele>292.98099</ele>
        <time>2023-11-23T09:22:08.000Z</time>
      </trkpt>
      <trkpt lat="45.83618" lon="4.71545">
        <ele>293.0195</ele>
        <time>2023-11-23T09:22:09.000Z</time>
      </trkpt>
      <trkpt lat="45.83618" lon="4.7155">
        <ele>293.03577</ele>
        <time>2023-11-23T09:22:10.000Z</time>
      </trkpt>
      <trkpt lat="45.83618" lon="4.71556">
        <ele>292.94717</ele>
        <time>2023-11-23T09:22:11.000Z</time>
      </trkpt>
      <trkpt lat="45.83617" lon="4.71561">
        <ele>292.81738</ele>
        <time>2023-11-23T09:22:12.000Z</time>
      </trkpt>
      <trkpt lat="45.83617" lon="4.71566">
        <ele>292.67905</ele>
        <time>2023-11-23T09:22:13.000Z</time>
      </trkpt>
      <trkpt lat="45.83618" lon="4.71571">
        <ele>292.41559</ele>
        <time>2023-11-23T09:22:14.000Z</time>
      </trkpt>
      <trkpt lat="45.83618" lon="4.71576">
        <ele>292.09326</ele>
        <time>2023-11-23T09:22:15.000Z</time>
      </trkpt>
      <trkpt lat="45.83618" lon="4.7158">
        <ele>291.73999</ele>
        <time>2023-11-23T09:22:16.000Z</time>
      </trkpt>
      <trkpt lat="45.83619" lon="4.71583">
        <ele>291.62451</ele>
        <time>2023-11-23T09:22:17.000Z</time>
      </trkpt>
      <trkpt lat="45.83619" lon="4.71586">
        <ele>291.40683</ele>
        <time>2023-11-23T09:22:18.000Z</time>
      </trkpt>
      <trkpt lat="45.8362" lon="4.7159">
        <ele>291.18631</ele>
        <time>2023-11-23T09:22:19.000Z</time>
      </trkpt>
      <trkpt lat="45.83621" lon="4.71595">
        <ele>290.92548</ele>
        <time>2023-11-23T09:22:20.000Z</time>
      </trkpt>
      <trkpt lat="45.83622" lon="4.71601">
        <ele>290.63922</ele>
        <time>2023-11-23T09:22:21.000Z</time>
      </trkpt>
      <trkpt lat="45.83623" lon="4.71607">
        <ele>290.32922</ele>
        <time>2023-11-23T09:22:22.000Z</time>
      </trkpt>
      <trkpt lat="45.83624" lon="4.71613">
        <ele>289.98187</ele>
        <time>2023-11-23T09:22:23.000Z</time>
      </trkpt>
      <trkpt lat="45.83625" lon="4.71619">
        <ele>289.6008</ele>
        <time>2023-11-23T09:22:24.000Z</time>
      </trkpt>
      <trkpt lat="45.83626" lon="4.71625">
        <ele>289.20459</ele>
        <time>2023-11-23T09:22:25.000Z</time>
      </trkpt>
      <trkpt lat="45.83628" lon="4.71631">
        <ele>288.83588</ele>
        <time>2023-11-23T09:22:26.000Z</time>
      </trkpt>
      <trkpt lat="45.83631" lon="4.71636">
        <ele>288.43878</ele>
        <time>2023-11-23T09:22:27.000Z</time>
      </trkpt>
      <trkpt lat="45.83633" lon="4.71641">
        <ele>288.06741</ele>
        <time>2023-11-23T09:22:28.000Z</time>
      </trkpt>
      <trkpt lat="45.83635" lon="4.71644">
        <ele>287.60989</ele>
        <time>2023-11-23T09:22:29.000Z</time>
      </trkpt>
      <trkpt lat="45.83639" lon="4.71647">
        <ele>287.23041</ele>
        <time>2023-11-23T09:22:30.000Z</time>
      </trkpt>
      <trkpt lat="45.83644" lon="4.7165">
        <ele>286.88739</ele>
        <time>2023-11-23T09:22:31.000Z</time>
      </trkpt>
      <trkpt lat="45.83649" lon="4.71651">
        <ele>286.53476</ele>
        <time>2023-11-23T09:22:32.000Z</time>
      </trkpt>
      <trkpt lat="45.83653" lon="4.71651">
        <ele>286.16306</ele>
        <time>2023-11-23T09:22:33.000Z</time>
      </trkpt>
      <trkpt lat="45.83659" lon="4.71652">
        <ele>285.84906</ele>
        <time>2023-11-23T09:22:34.000Z</time>
      </trkpt>
      <trkpt lat="45.83662" lon="4.71653">
        <ele>285.55072</ele>
        <time>2023-11-23T09:22:35.000Z</time>
      </trkpt>
      <trkpt lat="45.83667" lon="4.71652">
        <ele>285.20023</ele>
        <time>2023-11-23T09:22:36.000Z</time>
      </trkpt>
      <trkpt lat="45.8367" lon="4.71651">
        <ele>284.95172</ele>
        <time>2023-11-23T09:22:37.000Z</time>
      </trkpt>
      <trkpt lat="45.83675" lon="4.71649">
        <ele>284.73944</ele>
        <time>2023-11-23T09:22:38.000Z</time>
      </trkpt>
      <trkpt lat="45.8368" lon="4.71645">
        <ele>284.58255</ele>
        <time>2023-11-23T09:22:39.000Z</time>
      </trkpt>
      <trkpt lat="45.83684" lon="4.71646">
        <ele>284.3999</ele>
        <time>2023-11-23T09:22:40.000Z</time>
      </trkpt>
      <trkpt lat="45.83689" lon="4.71645">
        <ele>284.43039</ele>
        <time>2023-11-23T09:22:41.000Z</time>
      </trkpt>
      <trkpt lat="45.83693" lon="4.71647">
        <ele>284.72931</ele>
        <time>2023-11-23T09:22:42.000Z</time>
      </trkpt>
      <trkpt lat="45.83696" lon="4.71651">
        <ele>284.53101</ele>
        <time>2023-11-23T09:22:43.000Z</time>
      </trkpt>
      <trkpt lat="45.83701" lon="4.71656">
        <ele>284.36749</ele>
        <time>2023-11-23T09:22:44.000Z</time>
      </trkpt>
      <trkpt lat="45.83706" lon="4.71662">
        <ele>284.21588</ele>
        <time>2023-11-23T09:22:45.000Z</time>
      </trkpt>
      <trkpt lat="45.8371" lon="4.71668">
        <ele>284.06696</ele>
        <time>2023-11-23T09:22:46.000Z</time>
      </trkpt>
      <trkpt lat="45.83712" lon="4.71671">
        <ele>283.86023</ele>
        <time>2023-11-23T09:22:47.000Z</time>
      </trkpt>
      <trkpt lat="45.83715" lon="4.7168">
        <ele>283.51312</ele>
        <time>2023-11-23T09:22:48.000Z</time>
      </trkpt>
      <trkpt lat="45.83718" lon="4.71687">
        <ele>283.49744</ele>
        <time>2023-11-23T09:22:49.000Z</time>
      </trkpt>
      <trkpt lat="45.83721" lon="4.71691">
        <ele>283.36511</ele>
        <time>2023-11-23T09:22:50.000Z</time>
      </trkpt>
      <trkpt lat="45.83725" lon="4.7169">
        <ele>283.26758</ele>
        <time>2023-11-23T09:22:51.000Z</time>
      </trkpt>
      <trkpt lat="45.83728" lon="4.71691">
        <ele>283.07391</ele>
        <time>2023-11-23T09:22:52.000Z</time>
      </trkpt>
      <trkpt lat="45.83732" lon="4.71691">
        <ele>283.33807</ele>
        <time>2023-11-23T09:22:53.000Z</time>
      </trkpt>
      <trkpt lat="45.83736" lon="4.71691">
        <ele>283.30893</ele>
        <time>2023-11-23T09:22:54.000Z</time>
      </trkpt>
      <trkpt lat="45.83738" lon="4.71691">
        <ele>283.49673</ele>
        <time>2023-11-23T09:22:55.000Z</time>
      </trkpt>
      <trkpt lat="45.83742" lon="4.71692">
        <ele>283.73135</ele>
        <time>2023-11-23T09:22:56.000Z</time>
      </trkpt>
      <trkpt lat="45.83744" lon="4.71693">
        <ele>283.86627</ele>
        <time>2023-11-23T09:22:57.000Z</time>
      </trkpt>
      <trkpt lat="45.83747" lon="4.71693">
        <ele>283.55911</ele>
        <time>2023-11-23T09:22:58.000Z</time>
      </trkpt>
      <trkpt lat="45.8375" lon="4.71692">
        <ele>283.2706</ele>
        <time>2023-11-23T09:22:59.000Z</time>
      </trkpt>
      <trkpt lat="45.83752" lon="4.71691">
        <ele>282.9772</ele>
        <time>2023-11-23T09:23:00.000Z</time>
      </trkpt>
      <trkpt lat="45.83755" lon="4.71691">
        <ele>282.48672</ele>
        <time>2023-11-23T09:23:01.000Z</time>
      </trkpt>
      <trkpt lat="45.83757" lon="4.71691">
        <ele>281.76563</ele>
        <time>2023-11-23T09:23:02.000Z</time>
      </trkpt>
      <trkpt lat="45.83759" lon="4.71691">
        <ele>281.59872</ele>
        <time>2023-11-23T09:23:03.000Z</time>
      </trkpt>
      <trkpt lat="45.83761" lon="4.71692">
        <ele>281.40988</ele>
        <time>2023-11-23T09:23:04.000Z</time>
      </trkpt>
      <trkpt lat="45.83763" lon="4.71693">
        <ele>281.15833</ele>
        <time>2023-11-23T09:23:05.000Z</time>
      </trkpt>
      <trkpt lat="45.83765" lon="4.71694">
        <ele>280.81866</ele>
        <time>2023-11-23T09:23:06.000Z</time>
      </trkpt>
      <trkpt lat="45.83768" lon="4.71695">
        <ele>280.58539</ele>
        <time>2023-11-23T09:23:07.000Z</time>
      </trkpt>
      <trkpt lat="45.8377" lon="4.71696">
        <ele>280.36331</ele>
        <time>2023-11-23T09:23:08.000Z</time>
      </trkpt>
      <trkpt lat="45.83773" lon="4.71697">
        <ele>280.17526</ele>
        <time>2023-11-23T09:23:09.000Z</time>
      </trkpt>
      <trkpt lat="45.83776" lon="4.71697">
        <ele>280.06732</ele>
        <time>2023-11-23T09:23:10.000Z</time>
      </trkpt>
      <trkpt lat="45.83778" lon="4.71698">
        <ele>279.93216</ele>
        <time>2023-11-23T09:23:11.000Z</time>
      </trkpt>
      <trkpt lat="45.83781" lon="4.71699">
        <ele>279.90729</ele>
        <time>2023-11-23T09:23:12.000Z</time>
      </trkpt>
      <trkpt lat="45.83783" lon="4.717">
        <ele>279.51501</ele>
        <time>2023-11-23T09:23:13.000Z</time>
      </trkpt>
      <trkpt lat="45.83786" lon="4.717">
        <ele>279.38965</ele>
        <time>2023-11-23T09:23:14.000Z</time>
      </trkpt>
      <trkpt lat="45.83789" lon="4.71701">
        <ele>279.07932</ele>
        <time>2023-11-23T09:23:15.000Z</time>
      </trkpt>
      <trkpt lat="45.83792" lon="4.71701">
        <ele>278.77771</ele>
        <time>2023-11-23T09:23:16.000Z</time>
      </trkpt>
      <trkpt lat="45.83794" lon="4.71701">
        <ele>278.45148</ele>
        <time>2023-11-23T09:23:17.000Z</time>
      </trkpt>
      <trkpt lat="45.83797" lon="4.71701">
        <ele>278.65802</ele>
        <time>2023-11-23T09:23:18.000Z</time>
      </trkpt>
      <trkpt lat="45.83799" lon="4.71702">
        <ele>278.785</ele>
        <time>2023-11-23T09:23:19.000Z</time>
      </trkpt>
      <trkpt lat="45.83801" lon="4.71703">
        <ele>278.98874</ele>
        <time>2023-11-23T09:23:20.000Z</time>
      </trkpt>
      <trkpt lat="45.83804" lon="4.71704">
        <ele>279.19489</ele>
        <time>2023-11-23T09:23:21.000Z</time>
      </trkpt>
      <trkpt lat="45.83806" lon="4.71705">
        <ele>279.36566</ele>
        <time>2023-11-23T09:23:22.000Z</time>
      </trkpt>
      <trkpt lat="45.83808" lon="4.71706">
        <ele>279.56897</ele>
        <time>2023-11-23T09:23:23.000Z</time>
      </trkpt>
      <trkpt lat="45.8381" lon="4.71706">
        <ele>279.78397</ele>
        <time>2023-11-23T09:23:24.000Z</time>
      </trkpt>
      <trkpt lat="45.83813" lon="4.71707">
        <ele>280.02451</ele>
        <time>2023-11-23T09:23:25.000Z</time>
      </trkpt>
      <trkpt lat="45.83816" lon="4.71708">
        <ele>280.30078</ele>
        <time>2023-11-23T09:23:26.000Z</time>
      </trkpt>
      <trkpt lat="45.83819" lon="4.7171">
        <ele>280.55713</ele>
        <time>2023-11-23T09:23:27.000Z</time>
      </trkpt>
      <trkpt lat="45.83821" lon="4.71711">
        <ele>280.85791</ele>
        <time>2023-11-23T09:23:28.000Z</time>
      </trkpt>
      <trkpt lat="45.83824" lon="4.71712">
        <ele>281.14825</ele>
        <time>2023-11-23T09:23:29.000Z</time>
      </trkpt>
      <trkpt lat="45.83828" lon="4.71713">
        <ele>281.36029</ele>
        <time>2023-11-23T09:23:30.000Z</time>
      </trkpt>
      <trkpt lat="45.83831" lon="4.71714">
        <ele>281.62415</ele>
        <time>2023-11-23T09:23:31.000Z</time>
      </trkpt>
      <trkpt lat="45.83835" lon="4.71715">
        <ele>281.87164</ele>
        <time>2023-11-23T09:23:32.000Z</time>
      </trkpt>
      <trkpt lat="45.83839" lon="4.71716">
        <ele>282.09546</ele>
        <time>2023-11-23T09:23:33.000Z</time>
      </trkpt>
      <trkpt lat="45.83843" lon="4.71716">
        <ele>282.33563</ele>
        <time>2023-11-23T09:23:34.000Z</time>
      </trkpt>
      <trkpt lat="45.83847" lon="4.71718">
        <ele>282.56317</ele>
        <time>2023-11-23T09:23:35.000Z</time>
      </trkpt>
      <trkpt lat="45.8385" lon="4.71719">
        <ele>282.97046</ele>
        <time>2023-11-23T09:23:36.000Z</time>
      </trkpt>
      <trkpt lat="45.83854" lon="4.71721">
        <ele>283.46976</ele>
        <time>2023-11-23T09:23:37.000Z</time>
      </trkpt>
      <trkpt lat="45.83858" lon="4.71723">
        <ele>283.49661</ele>
        <time>2023-11-23T09:23:38.000Z</time>
      </trkpt>
      <trkpt lat="45.83862" lon="4.71724">
        <ele>283.55734</ele>
        <time>2023-11-23T09:23:39.000Z</time>
      </trkpt>
      <trkpt lat="45.83865" lon="4.71725">
        <ele>283.62411</ele>
        <time>2023-11-23T09:23:40.000Z</time>
      </trkpt>
      <trkpt lat="45.83868" lon="4.71726">
        <ele>283.70789</ele>
        <time>2023-11-23T09:23:41.000Z</time>
      </trkpt>
      <trkpt lat="45.83871" lon="4.71727">
        <ele>284.03033</ele>
        <time>2023-11-23T09:23:42.000Z</time>
      </trkpt>
      <trkpt lat="45.83875" lon="4.71728">
        <ele>284.33383</ele>
        <time>2023-11-23T09:23:43.000Z</time>
      </trkpt>
      <trkpt lat="45.83878" lon="4.71729">
        <ele>284.7532</ele>
        <time>2023-11-23T09:23:44.000Z</time>
      </trkpt>
      <trkpt lat="45.83881" lon="4.7173">
        <ele>285.11884</ele>
        <time>2023-11-23T09:23:45.000Z</time>
      </trkpt>
      <trkpt lat="45.83884" lon="4.71731">
        <ele>285.45355</ele>
        <time>2023-11-23T09:23:46.000Z</time>
      </trkpt>
      <trkpt lat="45.83887" lon="4.71733">
        <ele>285.76288</ele>
        <time>2023-11-23T09:23:47.000Z</time>
      </trkpt>
      <trkpt lat="45.8389" lon="4.71734">
        <ele>286.06674</ele>
        <time>2023-11-23T09:23:48.000Z</time>
      </trkpt>
      <trkpt lat="45.83893" lon="4.71736">
        <ele>286.43036</ele>
        <time>2023-11-23T09:23:49.000Z</time>
      </trkpt>
      <trkpt lat="45.83896" lon="4.71737">
        <ele>286.92661</ele>
        <time>2023-11-23T09:23:50.000Z</time>
      </trkpt>
      <trkpt lat="45.839" lon="4.71739">
        <ele>287.08353</ele>
        <time>2023-11-23T09:23:51.000Z</time>
      </trkpt>
      <trkpt lat="45.83904" lon="4.7174">
        <ele>287.27933</ele>
        <time>2023-11-23T09:23:52.000Z</time>
      </trkpt>
      <trkpt lat="45.83908" lon="4.71742">
        <ele>287.3808</ele>
        <time>2023-11-23T09:23:53.000Z</time>
      </trkpt>
      <trkpt lat="45.83912" lon="4.71743">
        <ele>287.49545</ele>
        <time>2023-11-23T09:23:54.000Z</time>
      </trkpt>
      <trkpt lat="45.83916" lon="4.71745">
        <ele>287.58905</ele>
        <time>2023-11-23T09:23:55.000Z</time>
      </trkpt>
      <trkpt lat="45.8392" lon="4.71747">
        <ele>287.42932</ele>
        <time>2023-11-23T09:23:56.000Z</time>
      </trkpt>
      <trkpt lat="45.83924" lon="4.71749">
        <ele>287.207</ele>
        <time>2023-11-23T09:23:57.000Z</time>
      </trkpt>
      <trkpt lat="45.83928" lon="4.71752">
        <ele>287.32831</ele>
        <time>2023-11-23T09:23:58.000Z</time>
      </trkpt>
      <trkpt lat="45.83933" lon="4.71754">
        <ele>287.43884</ele>
        <time>2023-11-23T09:23:59.000Z</time>
      </trkpt>
      <trkpt lat="45.83937" lon="4.71757">
        <ele>287.55841</ele>
        <time>2023-11-23T09:24:00.000Z</time>
      </trkpt>
      <trkpt lat="45.8394" lon="4.7176">
        <ele>287.65326</ele>
        <time>2023-11-23T09:24:01.000Z</time>
      </trkpt>
      <trkpt lat="45.83943" lon="4.71764">
        <ele>287.53107</ele>
        <time>2023-11-23T09:24:02.000Z</time>
      </trkpt>
      <trkpt lat="45.83946" lon="4.71769">
        <ele>287.41714</ele>
        <time>2023-11-23T09:24:03.000Z</time>
      </trkpt>
      <trkpt lat="45.83948" lon="4.71774">
        <ele>287.14456</ele>
        <time>2023-11-23T09:24:04.000Z</time>
      </trkpt>
      <trkpt lat="45.83949" lon="4.7178">
        <ele>286.93805</ele>
        <time>2023-11-23T09:24:05.000Z</time>
      </trkpt>
      <trkpt lat="45.8395" lon="4.71786">
        <ele>286.84753</ele>
        <time>2023-11-23T09:24:06.000Z</time>
      </trkpt>
      <trkpt lat="45.83951" lon="4.71791">
        <ele>286.77069</ele>
        <time>2023-11-23T09:24:07.000Z</time>
      </trkpt>
      <trkpt lat="45.83951" lon="4.71797">
        <ele>286.79941</ele>
        <time>2023-11-23T09:24:08.000Z</time>
      </trkpt>
      <trkpt lat="45.83952" lon="4.71803">
        <ele>286.42609</ele>
        <time>2023-11-23T09:24:09.000Z</time>
      </trkpt>
      <trkpt lat="45.83954" lon="4.71809">
        <ele>285.95129</ele>
        <time>2023-11-23T09:24:10.000Z</time>
      </trkpt>
      <trkpt lat="45.83956" lon="4.71814">
        <ele>285.78235</ele>
        <time>2023-11-23T09:24:11.000Z</time>
      </trkpt>
      <trkpt lat="45.83958" lon="4.71819">
        <ele>285.55829</ele>
        <time>2023-11-23T09:24:12.000Z</time>
      </trkpt>
      <trkpt lat="45.83961" lon="4.71824">
        <ele>285.31812</ele>
        <time>2023-11-23T09:24:13.000Z</time>
      </trkpt>
      <trkpt lat="45.83967" lon="4.71831">
        <ele>285.07245</ele>
        <time>2023-11-23T09:24:14.000Z</time>
      </trkpt>
      <trkpt lat="45.8397" lon="4.71836">
        <ele>284.84317</ele>
        <time>2023-11-23T09:24:15.000Z</time>
      </trkpt>
      <trkpt lat="45.83973" lon="4.71841">
        <ele>284.67773</ele>
        <time>2023-11-23T09:24:16.000Z</time>
      </trkpt>
      <trkpt lat="45.83976" lon="4.71846">
        <ele>284.48944</ele>
        <time>2023-11-23T09:24:17.000Z</time>
      </trkpt>
      <trkpt lat="45.83979" lon="4.71852">
        <ele>284.62836</ele>
        <time>2023-11-23T09:24:18.000Z</time>
      </trkpt>
      <trkpt lat="45.83982" lon="4.71856">
        <ele>284.75854</ele>
        <time>2023-11-23T09:24:19.000Z</time>
      </trkpt>
      <trkpt lat="45.83985" lon="4.7186">
        <ele>284.83304</ele>
        <time>2023-11-23T09:24:20.000Z</time>
      </trkpt>
      <trkpt lat="45.83989" lon="4.71865">
        <ele>284.92865</ele>
        <time>2023-11-23T09:24:21.000Z</time>
      </trkpt>
      <trkpt lat="45.83991" lon="4.71869">
        <ele>285.02975</ele>
        <time>2023-11-23T09:24:22.000Z</time>
      </trkpt>
      <trkpt lat="45.83994" lon="4.71872">
        <ele>285.09698</ele>
        <time>2023-11-23T09:24:23.000Z</time>
      </trkpt>
      <trkpt lat="45.83997" lon="4.71876">
        <ele>285.20978</ele>
        <time>2023-11-23T09:24:24.000Z</time>
      </trkpt>
      <trkpt lat="45.84" lon="4.7188">
        <ele>285.0321</ele>
        <time>2023-11-23T09:24:25.000Z</time>
      </trkpt>
      <trkpt lat="45.84002" lon="4.71884">
        <ele>284.72113</ele>
        <time>2023-11-23T09:24:26.000Z</time>
      </trkpt>
      <trkpt lat="45.84004" lon="4.71889">
        <ele>284.40881</ele>
        <time>2023-11-23T09:24:27.000Z</time>
      </trkpt>
      <trkpt lat="45.84005" lon="4.71894">
        <ele>283.98212</ele>
        <time>2023-11-23T09:24:28.000Z</time>
      </trkpt>
      <trkpt lat="45.84006" lon="4.71901">
        <ele>283.89203</ele>
        <time>2023-11-23T09:24:29.000Z</time>
      </trkpt>
      <trkpt lat="45.84006" lon="4.71907">
        <ele>283.76065</ele>
        <time>2023-11-23T09:24:30.000Z</time>
      </trkpt>
      <trkpt lat="45.84007" lon="4.71913">
        <ele>283.61847</ele>
        <time>2023-11-23T09:24:31.000Z</time>
      </trkpt>
      <trkpt lat="45.84008" lon="4.71919">
        <ele>283.54434</ele>
        <time>2023-11-23T09:24:32.000Z</time>
      </trkpt>
      <trkpt lat="45.84008" lon="4.71927">
        <ele>283.54852</ele>
        <time>2023-11-23T09:24:33.000Z</time>
      </trkpt>
      <trkpt lat="45.84008" lon="4.71935">
        <ele>283.5235</ele>
        <time>2023-11-23T09:24:34.000Z</time>
      </trkpt>
      <trkpt lat="45.84009" lon="4.71943">
        <ele>283.50113</ele>
        <time>2023-11-23T09:24:35.000Z</time>
      </trkpt>
      <trkpt lat="45.84009" lon="4.71953">
        <ele>283.43524</ele>
        <time>2023-11-23T09:24:36.000Z</time>
      </trkpt>
      <trkpt lat="45.84009" lon="4.71963">
        <ele>283.32819</ele>
        <time>2023-11-23T09:24:37.000Z</time>
      </trkpt>
      <trkpt lat="45.8401" lon="4.71972">
        <ele>282.9248</ele>
        <time>2023-11-23T09:24:38.000Z</time>
      </trkpt>
      <trkpt lat="45.8401" lon="4.71982">
        <ele>282.51364</ele>
        <time>2023-11-23T09:24:39.000Z</time>
      </trkpt>
      <trkpt lat="45.84011" lon="4.71992">
        <ele>282.09259</ele>
        <time>2023-11-23T09:24:40.000Z</time>
      </trkpt>
      <trkpt lat="45.84011" lon="4.72002">
        <ele>281.65265</ele>
        <time>2023-11-23T09:24:41.000Z</time>
      </trkpt>
      <trkpt lat="45.84012" lon="4.72012">
        <ele>281.216</ele>
        <time>2023-11-23T09:24:42.000Z</time>
      </trkpt>
      <trkpt lat="45.84012" lon="4.72023">
        <ele>280.77118</ele>
        <time>2023-11-23T09:24:43.000Z</time>
      </trkpt>
      <trkpt lat="45.84013" lon="4.72033">
        <ele>280.30084</ele>
        <time>2023-11-23T09:24:44.000Z</time>
      </trkpt>
      <trkpt lat="45.84013" lon="4.72043">
        <ele>280.12808</ele>
        <time>2023-11-23T09:24:45.000Z</time>
      </trkpt>
      <trkpt lat="45.84015" lon="4.72053">
        <ele>279.95663</ele>
        <time>2023-11-23T09:24:46.000Z</time>
      </trkpt>
      <trkpt lat="45.84016" lon="4.72063">
        <ele>279.7793</ele>
        <time>2023-11-23T09:24:47.000Z</time>
      </trkpt>
      <trkpt lat="45.84016" lon="4.72071">
        <ele>279.60355</ele>
        <time>2023-11-23T09:24:48.000Z</time>
      </trkpt>
      <trkpt lat="45.84017" lon="4.7208">
        <ele>279.42996</ele>
        <time>2023-11-23T09:24:49.000Z</time>
      </trkpt>
      <trkpt lat="45.84017" lon="4.72089">
        <ele>278.59805</ele>
        <time>2023-11-23T09:24:50.000Z</time>
      </trkpt>
      <trkpt lat="45.84018" lon="4.72097">
        <ele>277.76959</ele>
        <time>2023-11-23T09:24:51.000Z</time>
      </trkpt>
      <trkpt lat="45.84018" lon="4.72105">
        <ele>276.93829</ele>
        <time>2023-11-23T09:24:52.000Z</time>
      </trkpt>
      <trkpt lat="45.84019" lon="4.72113">
        <ele>276.12393</ele>
        <time>2023-11-23T09:24:53.000Z</time>
      </trkpt>
      <trkpt lat="45.8402" lon="4.7212">
        <ele>275.30139</ele>
        <time>2023-11-23T09:24:54.000Z</time>
      </trkpt>
      <trkpt lat="45.84021" lon="4.72127">
        <ele>274.46289</ele>
        <time>2023-11-23T09:24:55.000Z</time>
      </trkpt>
      <trkpt lat="45.84021" lon="4.72134">
        <ele>273.65799</ele>
        <time>2023-11-23T09:24:56.000Z</time>
      </trkpt>
      <trkpt lat="45.8402" lon="4.72139">
        <ele>272.87656</ele>
        <time>2023-11-23T09:24:57.000Z</time>
      </trkpt>
      <trkpt lat="45.84021" lon="4.72146">
        <ele>272.08301</ele>
        <time>2023-11-23T09:24:58.000Z</time>
      </trkpt>
      <trkpt lat="45.8402" lon="4.72152">
        <ele>271.32001</ele>
        <time>2023-11-23T09:24:59.000Z</time>
      </trkpt>
      <trkpt lat="45.84018" lon="4.72157">
        <ele>270.55225</ele>
        <time>2023-11-23T09:25:00.000Z</time>
      </trkpt>
      <trkpt lat="45.84016" lon="4.72161">
        <ele>269.79703</ele>
        <time>2023-11-23T09:25:01.000Z</time>
      </trkpt>
      <trkpt lat="45.84011" lon="4.72165">
        <ele>269.03372</ele>
        <time>2023-11-23T09:25:02.000Z</time>
      </trkpt>
      <trkpt lat="45.84007" lon="4.72167">
        <ele>268.27594</ele>
        <time>2023-11-23T09:25:03.000Z</time>
      </trkpt>
      <trkpt lat="45.84004" lon="4.72169">
        <ele>267.52887</ele>
        <time>2023-11-23T09:25:04.000Z</time>
      </trkpt>
      <trkpt lat="45.84001" lon="4.72169">
        <ele>266.79016</ele>
        <time>2023-11-23T09:25:05.000Z</time>
      </trkpt>
      <trkpt lat="45.83999" lon="4.7217">
        <ele>266.05615</ele>
        <time>2023-11-23T09:25:06.000Z</time>
      </trkpt>
      <trkpt lat="45.83997" lon="4.72168">
        <ele>266.17828</ele>
        <time>2023-11-23T09:25:07.000Z</time>
      </trkpt>
      <trkpt lat="45.83994" lon="4.72166">
        <ele>266.26758</ele>
        <time>2023-11-23T09:25:09.000Z</time>
      </trkpt>
      <trkpt lat="45.83991" lon="4.72166">
        <ele>266.34219</ele>
        <time>2023-11-23T09:25:11.000Z</time>
      </trkpt>
      <trkpt lat="45.83988" lon="4.72166">
        <ele>267.08481</ele>
        <time>2023-11-23T09:25:13.000Z</time>
      </trkpt>
      <trkpt lat="45.83986" lon="4.72166">
        <ele>267.81427</ele>
        <time>2023-11-23T09:25:15.000Z</time>
      </trkpt>
      <trkpt lat="45.83983" lon="4.72166">
        <ele>268.48792</ele>
        <time>2023-11-23T09:25:18.000Z</time>
      </trkpt>
      <trkpt lat="45.8398" lon="4.72166">
        <ele>269.155</ele>
        <time>2023-11-23T09:25:19.000Z</time>
      </trkpt>
      <trkpt lat="45.83976" lon="4.72165">
        <ele>269.80682</ele>
        <time>2023-11-23T09:25:20.000Z</time>
      </trkpt>
      <trkpt lat="45.83972" lon="4.72165">
        <ele>270.4577</ele>
        <time>2023-11-23T09:25:21.000Z</time>
      </trkpt>
      <trkpt lat="45.83968" lon="4.72164">
        <ele>271.12439</ele>
        <time>2023-11-23T09:25:22.000Z</time>
      </trkpt>
      <trkpt lat="45.83964" lon="4.72164">
        <ele>271.80673</ele>
        <time>2023-11-23T09:25:23.000Z</time>
      </trkpt>
      <trkpt lat="45.8396" lon="4.72163">
        <ele>272.53134</ele>
        <time>2023-11-23T09:25:24.000Z</time>
      </trkpt>
      <trkpt lat="45.83957" lon="4.72162">
        <ele>273.2265</ele>
        <time>2023-11-23T09:25:25.000Z</time>
      </trkpt>
      <trkpt lat="45.83954" lon="4.72161">
        <ele>273.9368</ele>
        <time>2023-11-23T09:25:26.000Z</time>
      </trkpt>
      <trkpt lat="45.83951" lon="4.7216">
        <ele>274.64691</ele>
        <time>2023-11-23T09:25:27.000Z</time>
      </trkpt>
      <trkpt lat="45.83948" lon="4.7216">
        <ele>275.38959</ele>
        <time>2023-11-23T09:25:28.000Z</time>
      </trkpt>
      <trkpt lat="45.83945" lon="4.7216">
        <ele>276.15143</ele>
        <time>2023-11-23T09:25:29.000Z</time>
      </trkpt>
      <trkpt lat="45.83943" lon="4.72161">
        <ele>276.93927</ele>
        <time>2023-11-23T09:25:30.000Z</time>
      </trkpt>
      <trkpt lat="45.83941" lon="4.72163">
        <ele>277.7431</ele>
        <time>2023-11-23T09:25:31.000Z</time>
      </trkpt>
      <trkpt lat="45.8394" lon="4.72166">
        <ele>278.51248</ele>
        <time>2023-11-23T09:25:32.000Z</time>
      </trkpt>
      <trkpt lat="45.8394" lon="4.72171">
        <ele>278.45978</ele>
        <time>2023-11-23T09:25:33.000Z</time>
      </trkpt>
      <trkpt lat="45.83942" lon="4.72176">
        <ele>278.40491</ele>
        <time>2023-11-23T09:25:34.000Z</time>
      </trkpt>
      <trkpt lat="45.83945" lon="4.7218">
        <ele>278.3732</ele>
        <time>2023-11-23T09:25:35.000Z</time>
      </trkpt>
      <trkpt lat="45.83949" lon="4.72184">
        <ele>278.35471</ele>
        <time>2023-11-23T09:25:36.000Z</time>
      </trkpt>
      <trkpt lat="45.83952" lon="4.72188">
        <ele>278.34079</ele>
        <time>2023-11-23T09:25:37.000Z</time>
      </trkpt>
      <trkpt lat="45.83956" lon="4.72194">
        <ele>278.39053</ele>
        <time>2023-11-23T09:25:38.000Z</time>
      </trkpt>
      <trkpt lat="45.83958" lon="4.72201">
        <ele>278.42001</ele>
        <time>2023-11-23T09:25:39.000Z</time>
      </trkpt>
      <trkpt lat="45.83961" lon="4.72205">
        <ele>278.49026</ele>
        <time>2023-11-23T09:25:40.000Z</time>
      </trkpt>
      <trkpt lat="45.83963" lon="4.72211">
        <ele>278.7811</ele>
        <time>2023-11-23T09:25:41.000Z</time>
      </trkpt>
      <trkpt lat="45.83965" lon="4.72217">
        <ele>279.17285</ele>
        <time>2023-11-23T09:25:42.000Z</time>
      </trkpt>
      <trkpt lat="45.83967" lon="4.72224">
        <ele>279.14813</ele>
        <time>2023-11-23T09:25:43.000Z</time>
      </trkpt>
      <trkpt lat="45.8397" lon="4.7223">
        <ele>279.19815</ele>
        <time>2023-11-23T09:25:44.000Z</time>
      </trkpt>
      <trkpt lat="45.83972" lon="4.72236">
        <ele>279.25244</ele>
        <time>2023-11-23T09:25:45.000Z</time>
      </trkpt>
      <trkpt lat="45.83975" lon="4.72241">
        <ele>279.31274</ele>
        <time>2023-11-23T09:25:46.000Z</time>
      </trkpt>
      <trkpt lat="45.83978" lon="4.72247">
        <ele>279.64221</ele>
        <time>2023-11-23T09:25:47.000Z</time>
      </trkpt>
      <trkpt lat="45.83982" lon="4.72253">
        <ele>279.91711</ele>
        <time>2023-11-23T09:25:48.000Z</time>
      </trkpt>
      <trkpt lat="45.83985" lon="4.72259">
        <ele>280.24796</ele>
        <time>2023-11-23T09:25:49.000Z</time>
      </trkpt>
      <trkpt lat="45.83987" lon="4.72264">
        <ele>280.56171</ele>
        <time>2023-11-23T09:25:50.000Z</time>
      </trkpt>
      <trkpt lat="45.8399" lon="4.72271">
        <ele>280.43658</ele>
        <time>2023-11-23T09:25:51.000Z</time>
      </trkpt>
      <trkpt lat="45.83992" lon="4.72277">
        <ele>280.41449</ele>
        <time>2023-11-23T09:25:52.000Z</time>
      </trkpt>
      <trkpt lat="45.83996" lon="4.72282">
        <ele>280.38046</ele>
        <time>2023-11-23T09:25:53.000Z</time>
      </trkpt>
      <trkpt lat="45.83999" lon="4.72287">
        <ele>280.40305</ele>
        <time>2023-11-23T09:25:54.000Z</time>
      </trkpt>
      <trkpt lat="45.84002" lon="4.72293">
        <ele>280.41013</ele>
        <time>2023-11-23T09:25:55.000Z</time>
      </trkpt>
      <trkpt lat="45.84005" lon="4.72299">
        <ele>280.4245</ele>
        <time>2023-11-23T09:25:56.000Z</time>
      </trkpt>
      <trkpt lat="45.84008" lon="4.72304">
        <ele>280.43521</ele>
        <time>2023-11-23T09:25:57.000Z</time>
      </trkpt>
      <trkpt lat="45.8401" lon="4.7231">
        <ele>280.43036</ele>
        <time>2023-11-23T09:25:58.000Z</time>
      </trkpt>
      <trkpt lat="45.84006" lon="4.72316">
        <ele>280.40799</ele>
        <time>2023-11-23T09:25:59.000Z</time>
      </trkpt>
      <trkpt lat="45.84004" lon="4.72322">
        <ele>280.34616</ele>
        <time>2023-11-23T09:26:00.000Z</time>
      </trkpt>
      <trkpt lat="45.84" lon="4.72326">
        <ele>280.09467</ele>
        <time>2023-11-23T09:26:01.000Z</time>
      </trkpt>
      <trkpt lat="45.83997" lon="4.72332">
        <ele>279.90573</ele>
        <time>2023-11-23T09:26:02.000Z</time>
      </trkpt>
      <trkpt lat="45.83993" lon="4.72336">
        <ele>280.26141</ele>
        <time>2023-11-23T09:26:03.000Z</time>
      </trkpt>
      <trkpt lat="45.83988" lon="4.72341">
        <ele>280.07727</ele>
        <time>2023-11-23T09:26:04.000Z</time>
      </trkpt>
      <trkpt lat="45.83983" lon="4.72346">
        <ele>279.94736</ele>
        <time>2023-11-23T09:26:05.000Z</time>
      </trkpt>
      <trkpt lat="45.83978" lon="4.7235">
        <ele>279.8139</ele>
        <time>2023-11-23T09:26:06.000Z</time>
      </trkpt>
      <trkpt lat="45.83973" lon="4.72354">
        <ele>279.61639</ele>
        <time>2023-11-23T09:26:07.000Z</time>
      </trkpt>
      <trkpt lat="45.83968" lon="4.72358">
        <ele>279.46854</ele>
        <time>2023-11-23T09:26:08.000Z</time>
      </trkpt>
      <trkpt lat="45.83963" lon="4.72363">
        <ele>279.37994</ele>
        <time>2023-11-23T09:26:09.000Z</time>
      </trkpt>
      <trkpt lat="45.83958" lon="4.72369">
        <ele>279.29163</ele>
        <time>2023-11-23T09:26:10.000Z</time>
      </trkpt>
      <trkpt lat="45.83952" lon="4.72373">
        <ele>279.15753</ele>
        <time>2023-11-23T09:26:11.000Z</time>
      </trkpt>
      <trkpt lat="45.83948" lon="4.72377">
        <ele>279.04385</ele>
        <time>2023-11-23T09:26:12.000Z</time>
      </trkpt>
      <trkpt lat="45.83942" lon="4.72379">
        <ele>278.90695</ele>
        <time>2023-11-23T09:26:13.000Z</time>
      </trkpt>
      <trkpt lat="45.83935" lon="4.72384">
        <ele>278.76361</ele>
        <time>2023-11-23T09:26:14.000Z</time>
      </trkpt>
      <trkpt lat="45.8393" lon="4.72388">
        <ele>278.61002</ele>
        <time>2023-11-23T09:26:15.000Z</time>
      </trkpt>
      <trkpt lat="45.83925" lon="4.7239">
        <ele>278.42258</ele>
        <time>2023-11-23T09:26:16.000Z</time>
      </trkpt>
      <trkpt lat="45.8392" lon="4.72391">
        <ele>278.23083</ele>
        <time>2023-11-23T09:26:17.000Z</time>
      </trkpt>
      <trkpt lat="45.83916" lon="4.72393">
        <ele>278.21808</ele>
        <time>2023-11-23T09:26:18.000Z</time>
      </trkpt>
      <trkpt lat="45.83914" lon="4.72394">
        <ele>278.37637</ele>
        <time>2023-11-23T09:26:19.000Z</time>
      </trkpt>
      <trkpt lat="45.8391" lon="4.72396">
        <ele>278.55838</ele>
        <time>2023-11-23T09:26:20.000Z</time>
      </trkpt>
      <trkpt lat="45.83907" lon="4.72397">
        <ele>278.2243</ele>
        <time>2023-11-23T09:26:21.000Z</time>
      </trkpt>
      <trkpt lat="45.83904" lon="4.72399">
        <ele>277.77319</ele>
        <time>2023-11-23T09:26:22.000Z</time>
      </trkpt>
      <trkpt lat="45.83902" lon="4.724">
        <ele>277.17468</ele>
        <time>2023-11-23T09:26:23.000Z</time>
      </trkpt>
      <trkpt lat="45.83898" lon="4.72402">
        <ele>277.0976</ele>
        <time>2023-11-23T09:26:24.000Z</time>
      </trkpt>
      <trkpt lat="45.83895" lon="4.72404">
        <ele>276.90607</ele>
        <time>2023-11-23T09:26:25.000Z</time>
      </trkpt>
      <trkpt lat="45.83892" lon="4.72405">
        <ele>276.75345</ele>
        <time>2023-11-23T09:26:26.000Z</time>
      </trkpt>
      <trkpt lat="45.83889" lon="4.72407">
        <ele>276.52133</ele>
        <time>2023-11-23T09:26:27.000Z</time>
      </trkpt>
      <trkpt lat="45.83885" lon="4.72409">
        <ele>276.32584</ele>
        <time>2023-11-23T09:26:28.000Z</time>
      </trkpt>
      <trkpt lat="45.83881" lon="4.72411">
        <ele>276.15808</ele>
        <time>2023-11-23T09:26:29.000Z</time>
      </trkpt>
      <trkpt lat="45.83877" lon="4.72412">
        <ele>275.92163</ele>
        <time>2023-11-23T09:26:30.000Z</time>
      </trkpt>
      <trkpt lat="45.83873" lon="4.72414">
        <ele>275.5975</ele>
        <time>2023-11-23T09:26:31.000Z</time>
      </trkpt>
      <trkpt lat="45.8387" lon="4.72416">
        <ele>275.2583</ele>
        <time>2023-11-23T09:26:32.000Z</time>
      </trkpt>
      <trkpt lat="45.83866" lon="4.72419">
        <ele>274.94107</ele>
        <time>2023-11-23T09:26:33.000Z</time>
      </trkpt>
      <trkpt lat="45.83862" lon="4.72421">
        <ele>274.65411</ele>
        <time>2023-11-23T09:26:34.000Z</time>
      </trkpt>
      <trkpt lat="45.83859" lon="4.72423">
        <ele>274.44232</ele>
        <time>2023-11-23T09:26:35.000Z</time>
      </trkpt>
      <trkpt lat="45.83856" lon="4.72426">
        <ele>274.17361</ele>
        <time>2023-11-23T09:26:36.000Z</time>
      </trkpt>
      <trkpt lat="45.83854" lon="4.72428">
        <ele>273.9151</ele>
        <time>2023-11-23T09:26:37.000Z</time>
      </trkpt>
      <trkpt lat="45.83851" lon="4.72431">
        <ele>273.44562</ele>
        <time>2023-11-23T09:26:39.000Z</time>
      </trkpt>
      <trkpt lat="45.83849" lon="4.72434">
        <ele>272.79913</ele>
        <time>2023-11-23T09:26:40.000Z</time>
      </trkpt>
      <trkpt lat="45.83847" lon="4.72436">
        <ele>272.13055</ele>
        <time>2023-11-23T09:26:41.000Z</time>
      </trkpt>
      <trkpt lat="45.83845" lon="4.72438">
        <ele>271.96295</ele>
        <time>2023-11-23T09:26:42.000Z</time>
      </trkpt>
      <trkpt lat="45.83843" lon="4.72442">
        <ele>271.78183</ele>
        <time>2023-11-23T09:26:44.000Z</time>
      </trkpt>
      <trkpt lat="45.83842" lon="4.72444">
        <ele>271.65524</ele>
        <time>2023-11-23T09:26:45.000Z</time>
      </trkpt>
      <trkpt lat="45.83841" lon="4.72448">
        <ele>271.38531</ele>
        <time>2023-11-23T09:26:46.000Z</time>
      </trkpt>
      <trkpt lat="45.83839" lon="4.72452">
        <ele>271.19711</ele>
        <time>2023-11-23T09:26:47.000Z</time>
      </trkpt>
      <trkpt lat="45.83838" lon="4.72456">
        <ele>271.0397</ele>
        <time>2023-11-23T09:26:48.000Z</time>
      </trkpt>
      <trkpt lat="45.83837" lon="4.7246">
        <ele>270.7236</ele>
        <time>2023-11-23T09:26:49.000Z</time>
      </trkpt>
      <trkpt lat="45.83837" lon="4.72466">
        <ele>270.37982</ele>
        <time>2023-11-23T09:26:50.000Z</time>
      </trkpt>
      <trkpt lat="45.83837" lon="4.72471">
        <ele>269.96616</ele>
        <time>2023-11-23T09:26:51.000Z</time>
      </trkpt>
      <trkpt lat="45.83838" lon="4.72476">
        <ele>269.69766</ele>
        <time>2023-11-23T09:26:52.000Z</time>
      </trkpt>
      <trkpt lat="45.83839" lon="4.72481">
        <ele>270.0293</ele>
        <time>2023-11-23T09:26:53.000Z</time>
      </trkpt>
      <trkpt lat="45.8384" lon="4.72486">
        <ele>270.3418</ele>
        <time>2023-11-23T09:26:54.000Z</time>
      </trkpt>
      <trkpt lat="45.83841" lon="4.72492">
        <ele>270.88434</ele>
        <time>2023-11-23T09:26:55.000Z</time>
      </trkpt>
      <trkpt lat="45.83842" lon="4.72497">
        <ele>271.38708</ele>
        <time>2023-11-23T09:26:56.000Z</time>
      </trkpt>
      <trkpt lat="45.83842" lon="4.72504">
        <ele>271.9212</ele>
        <time>2023-11-23T09:26:57.000Z</time>
      </trkpt>
      <trkpt lat="45.83842" lon="4.72515">
        <ele>272.49115</ele>
        <time>2023-11-23T09:26:58.000Z</time>
      </trkpt>
      <trkpt lat="45.83841" lon="4.72522">
        <ele>272.42606</ele>
        <time>2023-11-23T09:26:59.000Z</time>
      </trkpt>
      <trkpt lat="45.8384" lon="4.72528">
        <ele>272.4483</ele>
        <time>2023-11-23T09:27:00.000Z</time>
      </trkpt>
      <trkpt lat="45.8384" lon="4.72535">
        <ele>272.47012</ele>
        <time>2023-11-23T09:27:01.000Z</time>
      </trkpt>
      <trkpt lat="45.83838" lon="4.72541">
        <ele>272.47235</ele>
        <time>2023-11-23T09:27:02.000Z</time>
      </trkpt>
      <trkpt lat="45.83837" lon="4.72547">
        <ele>272.60187</ele>
        <time>2023-11-23T09:27:03.000Z</time>
      </trkpt>
      <trkpt lat="45.83836" lon="4.72553">
        <ele>272.81613</ele>
        <time>2023-11-23T09:27:04.000Z</time>
      </trkpt>
      <trkpt lat="45.83835" lon="4.72559">
        <ele>273.04327</ele>
        <time>2023-11-23T09:27:05.000Z</time>
      </trkpt>
      <trkpt lat="45.83832" lon="4.72565">
        <ele>273.47797</ele>
        <time>2023-11-23T09:27:06.000Z</time>
      </trkpt>
      <trkpt lat="45.83832" lon="4.7257">
        <ele>274.09213</ele>
        <time>2023-11-23T09:27:07.000Z</time>
      </trkpt>
      <trkpt lat="45.8383" lon="4.72576">
        <ele>274.62527</ele>
        <time>2023-11-23T09:27:08.000Z</time>
      </trkpt>
      <trkpt lat="45.83829" lon="4.7258">
        <ele>275.38931</ele>
        <time>2023-11-23T09:27:09.000Z</time>
      </trkpt>
      <trkpt lat="45.83827" lon="4.72586">
        <ele>276.12469</ele>
        <time>2023-11-23T09:27:10.000Z</time>
      </trkpt>
      <trkpt lat="45.83826" lon="4.72591">
        <ele>276.23877</ele>
        <time>2023-11-23T09:27:11.000Z</time>
      </trkpt>
      <trkpt lat="45.83824" lon="4.72596">
        <ele>276.35498</ele>
        <time>2023-11-23T09:27:12.000Z</time>
      </trkpt>
      <trkpt lat="45.83822" lon="4.726">
        <ele>276.4303</ele>
        <time>2023-11-23T09:27:13.000Z</time>
      </trkpt>
      <trkpt lat="45.8382" lon="4.72604">
        <ele>276.44772</ele>
        <time>2023-11-23T09:27:14.000Z</time>
      </trkpt>
      <trkpt lat="45.83817" lon="4.72607">
        <ele>276.29874</ele>
        <time>2023-11-23T09:27:15.000Z</time>
      </trkpt>
      <trkpt lat="45.83814" lon="4.72611">
        <ele>276.04636</ele>
        <time>2023-11-23T09:27:16.000Z</time>
      </trkpt>
      <trkpt lat="45.83811" lon="4.72614">
        <ele>275.63037</ele>
        <time>2023-11-23T09:27:17.000Z</time>
      </trkpt>
      <trkpt lat="45.83807" lon="4.72616">
        <ele>275.16125</ele>
        <time>2023-11-23T09:27:18.000Z</time>
      </trkpt>
      <trkpt lat="45.83802" lon="4.72618">
        <ele>275.38385</ele>
        <time>2023-11-23T09:27:19.000Z</time>
      </trkpt>
      <trkpt lat="45.83798" lon="4.72619">
        <ele>275.63272</ele>
        <time>2023-11-23T09:27:20.000Z</time>
      </trkpt>
      <trkpt lat="45.83794" lon="4.72621">
        <ele>275.81412</ele>
        <time>2023-11-23T09:27:21.000Z</time>
      </trkpt>
      <trkpt lat="45.83791" lon="4.72622">
        <ele>276.01163</ele>
        <time>2023-11-23T09:27:22.000Z</time>
      </trkpt>
      <trkpt lat="45.83787" lon="4.72623">
        <ele>276.03738</ele>
        <time>2023-11-23T09:27:23.000Z</time>
      </trkpt>
      <trkpt lat="45.83783" lon="4.72625">
        <ele>275.89435</ele>
        <time>2023-11-23T09:27:24.000Z</time>
      </trkpt>
      <trkpt lat="45.83778" lon="4.72626">
        <ele>275.75873</ele>
        <time>2023-11-23T09:27:25.000Z</time>
      </trkpt>
      <trkpt lat="45.83774" lon="4.72628">
        <ele>275.50909</ele>
        <time>2023-11-23T09:27:26.000Z</time>
      </trkpt>
      <trkpt lat="45.83769" lon="4.72629">
        <ele>275.38586</ele>
        <time>2023-11-23T09:27:27.000Z</time>
      </trkpt>
      <trkpt lat="45.83764" lon="4.72631">
        <ele>275.26114</ele>
        <time>2023-11-23T09:27:28.000Z</time>
      </trkpt>
      <trkpt lat="45.83759" lon="4.72632">
        <ele>275.13956</ele>
        <time>2023-11-23T09:27:29.000Z</time>
      </trkpt>
      <trkpt lat="45.83755" lon="4.72634">
        <ele>275.12848</ele>
        <time>2023-11-23T09:27:30.000Z</time>
      </trkpt>
      <trkpt lat="45.8375" lon="4.72636">
        <ele>275.09485</ele>
        <time>2023-11-23T09:27:31.000Z</time>
      </trkpt>
      <trkpt lat="45.83746" lon="4.72637">
        <ele>274.98291</ele>
        <time>2023-11-23T09:27:32.000Z</time>
      </trkpt>
      <trkpt lat="45.83741" lon="4.72639">
        <ele>274.79462</ele>
        <time>2023-11-23T09:27:33.000Z</time>
      </trkpt>
      <trkpt lat="45.83737" lon="4.7264">
        <ele>274.63138</ele>
        <time>2023-11-23T09:27:34.000Z</time>
      </trkpt>
      <trkpt lat="45.83732" lon="4.72643">
        <ele>274.43521</ele>
        <time>2023-11-23T09:27:35.000Z</time>
      </trkpt>
      <trkpt lat="45.83728" lon="4.72645">
        <ele>274.26932</ele>
        <time>2023-11-23T09:27:36.000Z</time>
      </trkpt>
      <trkpt lat="45.83724" lon="4.72647">
        <ele>274.15643</ele>
        <time>2023-11-23T09:27:37.000Z</time>
      </trkpt>
      <trkpt lat="45.8372" lon="4.72648">
        <ele>274.12433</ele>
        <time>2023-11-23T09:27:38.000Z</time>
      </trkpt>
      <trkpt lat="45.83717" lon="4.7265">
        <ele>274.1496</ele>
        <time>2023-11-23T09:27:39.000Z</time>
      </trkpt>
      <trkpt lat="45.83715" lon="4.72651">
        <ele>274.13754</ele>
        <time>2023-11-23T09:27:40.000Z</time>
      </trkpt>
      <trkpt lat="45.83712" lon="4.72652">
        <ele>274.2262</ele>
        <time>2023-11-23T09:27:41.000Z</time>
      </trkpt>
      <trkpt lat="45.83709" lon="4.72653">
        <ele>274.31879</ele>
        <time>2023-11-23T09:27:42.000Z</time>
      </trkpt>
      <trkpt lat="45.83705" lon="4.72654">
        <ele>274.43573</ele>
        <time>2023-11-23T09:27:43.000Z</time>
      </trkpt>
      <trkpt lat="45.837" lon="4.72655">
        <ele>274.52191</ele>
        <time>2023-11-23T09:27:44.000Z</time>
      </trkpt>
      <trkpt lat="45.83696" lon="4.72657">
        <ele>274.51233</ele>
        <time>2023-11-23T09:27:45.000Z</time>
      </trkpt>
      <trkpt lat="45.83692" lon="4.72658">
        <ele>274.41101</ele>
        <time>2023-11-23T09:27:46.000Z</time>
      </trkpt>
      <trkpt lat="45.83688" lon="4.72658">
        <ele>274.0307</ele>
        <time>2023-11-23T09:27:47.000Z</time>
      </trkpt>
      <trkpt lat="45.83685" lon="4.72659">
        <ele>273.60742</ele>
        <time>2023-11-23T09:27:48.000Z</time>
      </trkpt>
      <trkpt lat="45.83681" lon="4.7266">
        <ele>273.07892</ele>
        <time>2023-11-23T09:27:49.000Z</time>
      </trkpt>
      <trkpt lat="45.83677" lon="4.72662">
        <ele>272.44998</ele>
        <time>2023-11-23T09:27:50.000Z</time>
      </trkpt>
      <trkpt lat="45.83673" lon="4.72663">
        <ele>272.48761</ele>
        <time>2023-11-23T09:27:51.000Z</time>
      </trkpt>
      <trkpt lat="45.8367" lon="4.72664">
        <ele>272.50302</ele>
        <time>2023-11-23T09:27:52.000Z</time>
      </trkpt>
      <trkpt lat="45.83666" lon="4.72666">
        <ele>272.50311</ele>
        <time>2023-11-23T09:27:53.000Z</time>
      </trkpt>
      <trkpt lat="45.83662" lon="4.72668">
        <ele>272.4693</ele>
        <time>2023-11-23T09:27:54.000Z</time>
      </trkpt>
      <trkpt lat="45.83658" lon="4.7267">
        <ele>272.39023</ele>
        <time>2023-11-23T09:27:55.000Z</time>
      </trkpt>
      <trkpt lat="45.83655" lon="4.72671">
        <ele>272.35443</ele>
        <time>2023-11-23T09:27:56.000Z</time>
      </trkpt>
      <trkpt lat="45.83651" lon="4.72673">
        <ele>272.48126</ele>
        <time>2023-11-23T09:27:57.000Z</time>
      </trkpt>
      <trkpt lat="45.83647" lon="4.72674">
        <ele>272.61218</ele>
        <time>2023-11-23T09:27:58.000Z</time>
      </trkpt>
      <trkpt lat="45.83643" lon="4.72676">
        <ele>272.85944</ele>
        <time>2023-11-23T09:27:59.000Z</time>
      </trkpt>
      <trkpt lat="45.83639" lon="4.72679">
        <ele>273.15991</ele>
        <time>2023-11-23T09:28:00.000Z</time>
      </trkpt>
      <trkpt lat="45.83636" lon="4.72681">
        <ele>273.44519</ele>
        <time>2023-11-23T09:28:01.000Z</time>
      </trkpt>
      <trkpt lat="45.83632" lon="4.72684">
        <ele>273.80936</ele>
        <time>2023-11-23T09:28:02.000Z</time>
      </trkpt>
      <trkpt lat="45.83629" lon="4.72687">
        <ele>274.30087</ele>
        <time>2023-11-23T09:28:03.000Z</time>
      </trkpt>
      <trkpt lat="45.83626" lon="4.72691">
        <ele>274.85938</ele>
        <time>2023-11-23T09:28:04.000Z</time>
      </trkpt>
      <trkpt lat="45.83622" lon="4.72694">
        <ele>275.42719</ele>
        <time>2023-11-23T09:28:05.000Z</time>
      </trkpt>
      <trkpt lat="45.83619" lon="4.72698">
        <ele>276.05463</ele>
        <time>2023-11-23T09:28:06.000Z</time>
      </trkpt>
      <trkpt lat="45.83616" lon="4.72701">
        <ele>276.80121</ele>
        <time>2023-11-23T09:28:07.000Z</time>
      </trkpt>
      <trkpt lat="45.83612" lon="4.72705">
        <ele>277.63068</ele>
        <time>2023-11-23T09:28:08.000Z</time>
      </trkpt>
      <trkpt lat="45.83609" lon="4.72708">
        <ele>277.90524</ele>
        <time>2023-11-23T09:28:09.000Z</time>
      </trkpt>
      <trkpt lat="45.83605" lon="4.7271">
        <ele>277.56174</ele>
        <time>2023-11-23T09:28:10.000Z</time>
      </trkpt>
      <trkpt lat="45.83601" lon="4.72712">
        <ele>277.13705</ele>
        <time>2023-11-23T09:28:11.000Z</time>
      </trkpt>
      <trkpt lat="45.83598" lon="4.72713">
        <ele>276.7334</ele>
        <time>2023-11-23T09:28:12.000Z</time>
      </trkpt>
      <trkpt lat="45.83594" lon="4.72715">
        <ele>276.41989</ele>
        <time>2023-11-23T09:28:13.000Z</time>
      </trkpt>
      <trkpt lat="45.83591" lon="4.72719">
        <ele>276.92767</ele>
        <time>2023-11-23T09:28:14.000Z</time>
      </trkpt>
      <trkpt lat="45.83587" lon="4.72722">
        <ele>277.32211</ele>
        <time>2023-11-23T09:28:15.000Z</time>
      </trkpt>
      <trkpt lat="45.83584" lon="4.72724">
        <ele>277.75885</ele>
        <time>2023-11-23T09:28:16.000Z</time>
      </trkpt>
      <trkpt lat="45.8358" lon="4.72727">
        <ele>277.98651</ele>
        <time>2023-11-23T09:28:17.000Z</time>
      </trkpt>
      <trkpt lat="45.83576" lon="4.72729">
        <ele>278.15619</ele>
        <time>2023-11-23T09:28:18.000Z</time>
      </trkpt>
      <trkpt lat="45.83573" lon="4.72732">
        <ele>278.10754</ele>
        <time>2023-11-23T09:28:19.000Z</time>
      </trkpt>
      <trkpt lat="45.83569" lon="4.72734">
        <ele>277.95529</ele>
        <time>2023-11-23T09:28:20.000Z</time>
      </trkpt>
      <trkpt lat="45.83566" lon="4.72736">
        <ele>277.86353</ele>
        <time>2023-11-23T09:28:21.000Z</time>
      </trkpt>
      <trkpt lat="45.83562" lon="4.72738">
        <ele>277.6604</ele>
        <time>2023-11-23T09:28:22.000Z</time>
      </trkpt>
      <trkpt lat="45.83559" lon="4.7274">
        <ele>277.34525</ele>
        <time>2023-11-23T09:28:23.000Z</time>
      </trkpt>
      <trkpt lat="45.83556" lon="4.72741">
        <ele>276.98621</ele>
        <time>2023-11-23T09:28:24.000Z</time>
      </trkpt>
      <trkpt lat="45.83553" lon="4.72743">
        <ele>276.65439</ele>
        <time>2023-11-23T09:28:25.000Z</time>
      </trkpt>
      <trkpt lat="45.8355" lon="4.72744">
        <ele>276.33942</ele>
        <time>2023-11-23T09:28:26.000Z</time>
      </trkpt>
      <trkpt lat="45.83547" lon="4.72746">
        <ele>275.84439</ele>
        <time>2023-11-23T09:28:27.000Z</time>
      </trkpt>
      <trkpt lat="45.83543" lon="4.72747">
        <ele>275.37225</ele>
        <time>2023-11-23T09:28:28.000Z</time>
      </trkpt>
      <trkpt lat="45.83538" lon="4.72748">
        <ele>275.4548</ele>
        <time>2023-11-23T09:28:29.000Z</time>
      </trkpt>
      <trkpt lat="45.83534" lon="4.72749">
        <ele>276.23233</ele>
        <time>2023-11-23T09:28:30.000Z</time>
      </trkpt>
      <trkpt lat="45.83531" lon="4.7275">
        <ele>276.90802</ele>
        <time>2023-11-23T09:28:31.000Z</time>
      </trkpt>
      <trkpt lat="45.83527" lon="4.72751">
        <ele>277.77151</ele>
        <time>2023-11-23T09:28:32.000Z</time>
      </trkpt>
      <trkpt lat="45.83523" lon="4.72753">
        <ele>278.75537</ele>
        <time>2023-11-23T09:28:33.000Z</time>
      </trkpt>
      <trkpt lat="45.83518" lon="4.72754">
        <ele>278.5061</ele>
        <time>2023-11-23T09:28:34.000Z</time>
      </trkpt>
      <trkpt lat="45.83514" lon="4.72755">
        <ele>278.35498</ele>
        <time>2023-11-23T09:28:35.000Z</time>
      </trkpt>
      <trkpt lat="45.8351" lon="4.72756">
        <ele>278.23172</ele>
        <time>2023-11-23T09:28:36.000Z</time>
      </trkpt>
      <trkpt lat="45.83506" lon="4.72757">
        <ele>278.12888</ele>
        <time>2023-11-23T09:28:37.000Z</time>
      </trkpt>
      <trkpt lat="45.83502" lon="4.72758">
        <ele>278.10205</ele>
        <time>2023-11-23T09:28:38.000Z</time>
      </trkpt>
      <trkpt lat="45.83499" lon="4.7276">
        <ele>278.07867</ele>
        <time>2023-11-23T09:28:39.000Z</time>
      </trkpt>
      <trkpt lat="45.83495" lon="4.72762">
        <ele>277.99146</ele>
        <time>2023-11-23T09:28:40.000Z</time>
      </trkpt>
      <trkpt lat="45.83492" lon="4.72763">
        <ele>278.00284</ele>
        <time>2023-11-23T09:28:41.000Z</time>
      </trkpt>
      <trkpt lat="45.83488" lon="4.72765">
        <ele>278.09109</ele>
        <time>2023-11-23T09:28:42.000Z</time>
      </trkpt>
      <trkpt lat="45.83483" lon="4.72766">
        <ele>278.16302</ele>
        <time>2023-11-23T09:28:43.000Z</time>
      </trkpt>
      <trkpt lat="45.83479" lon="4.72768">
        <ele>278.24637</ele>
        <time>2023-11-23T09:28:44.000Z</time>
      </trkpt>
      <trkpt lat="45.83476" lon="4.72769">
        <ele>278.33478</ele>
        <time>2023-11-23T09:28:45.000Z</time>
      </trkpt>
      <trkpt lat="45.83473" lon="4.72769">
        <ele>278.40204</ele>
        <time>2023-11-23T09:28:46.000Z</time>
      </trkpt>
      <trkpt lat="45.83469" lon="4.7277">
        <ele>278.49219</ele>
        <time>2023-11-23T09:28:47.000Z</time>
      </trkpt>
      <trkpt lat="45.83465" lon="4.72771">
        <ele>278.56763</ele>
        <time>2023-11-23T09:28:48.000Z</time>
      </trkpt>
      <trkpt lat="45.8346" lon="4.72772">
        <ele>278.58524</ele>
        <time>2023-11-23T09:28:49.000Z</time>
      </trkpt>
      <trkpt lat="45.83456" lon="4.72774">
        <ele>278.53412</ele>
        <time>2023-11-23T09:28:50.000Z</time>
      </trkpt>
      <trkpt lat="45.83453" lon="4.72775">
        <ele>278.621</ele>
        <time>2023-11-23T09:28:51.000Z</time>
      </trkpt>
      <trkpt lat="45.83449" lon="4.72777">
        <ele>278.50555</ele>
        <time>2023-11-23T09:28:52.000Z</time>
      </trkpt>
      <trkpt lat="45.83445" lon="4.72778">
        <ele>278.5491</ele>
        <time>2023-11-23T09:28:53.000Z</time>
      </trkpt>
      <trkpt lat="45.83441" lon="4.72779">
        <ele>279.1528</ele>
        <time>2023-11-23T09:28:54.000Z</time>
      </trkpt>
      <trkpt lat="45.83437" lon="4.72781">
        <ele>279.33087</ele>
        <time>2023-11-23T09:28:55.000Z</time>
      </trkpt>
      <trkpt lat="45.83434" lon="4.72783">
        <ele>279.53513</ele>
        <time>2023-11-23T09:28:56.000Z</time>
      </trkpt>
      <trkpt lat="45.83432" lon="4.72787">
        <ele>279.80463</ele>
        <time>2023-11-23T09:28:57.000Z</time>
      </trkpt>
      <trkpt lat="45.83431" lon="4.72793">
        <ele>280.11923</ele>
        <time>2023-11-23T09:28:58.000Z</time>
      </trkpt>
      <trkpt lat="45.83431" lon="4.72799">
        <ele>280.51654</ele>
        <time>2023-11-23T09:28:59.000Z</time>
      </trkpt>
      <trkpt lat="45.8343" lon="4.72804">
        <ele>280.98074</ele>
        <time>2023-11-23T09:29:00.000Z</time>
      </trkpt>
      <trkpt lat="45.83431" lon="4.7281">
        <ele>281.31772</ele>
        <time>2023-11-23T09:29:01.000Z</time>
      </trkpt>
      <trkpt lat="45.83431" lon="4.72815">
        <ele>281.62836</ele>
        <time>2023-11-23T09:29:02.000Z</time>
      </trkpt>
      <trkpt lat="45.83432" lon="4.7282">
        <ele>282.04703</ele>
        <time>2023-11-23T09:29:03.000Z</time>
      </trkpt>
      <trkpt lat="45.83433" lon="4.72826">
        <ele>282.4675</ele>
        <time>2023-11-23T09:29:04.000Z</time>
      </trkpt>
      <trkpt lat="45.83433" lon="4.72831">
        <ele>282.98322</ele>
        <time>2023-11-23T09:29:05.000Z</time>
      </trkpt>
      <trkpt lat="45.83433" lon="4.72835">
        <ele>283.56641</ele>
        <time>2023-11-23T09:29:06.000Z</time>
      </trkpt>
      <trkpt lat="45.83433" lon="4.7284">
        <ele>284.18979</ele>
        <time>2023-11-23T09:29:07.000Z</time>
      </trkpt>
      <trkpt lat="45.83434" lon="4.72846">
        <ele>284.80243</ele>
        <time>2023-11-23T09:29:08.000Z</time>
      </trkpt>
      <trkpt lat="45.83435" lon="4.72852">
        <ele>285.35114</ele>
        <time>2023-11-23T09:29:09.000Z</time>
      </trkpt>
      <trkpt lat="45.83436" lon="4.72858">
        <ele>285.82748</ele>
        <time>2023-11-23T09:29:10.000Z</time>
      </trkpt>
      <trkpt lat="45.83438" lon="4.72864">
        <ele>286.24323</ele>
        <time>2023-11-23T09:29:11.000Z</time>
      </trkpt>
      <trkpt lat="45.83439" lon="4.7287">
        <ele>286.65219</ele>
        <time>2023-11-23T09:29:12.000Z</time>
      </trkpt>
      <trkpt lat="45.8344" lon="4.72877">
        <ele>286.8064</ele>
        <time>2023-11-23T09:29:13.000Z</time>
      </trkpt>
      <trkpt lat="45.83442" lon="4.72884">
        <ele>286.81918</ele>
        <time>2023-11-23T09:29:14.000Z</time>
      </trkpt>
      <trkpt lat="45.83443" lon="4.7289">
        <ele>287.47873</ele>
        <time>2023-11-23T09:29:15.000Z</time>
      </trkpt>
      <trkpt lat="45.83444" lon="4.72894">
        <ele>288.18707</ele>
        <time>2023-11-23T09:29:16.000Z</time>
      </trkpt>
      <trkpt lat="45.83445" lon="4.72899">
        <ele>288.85175</ele>
        <time>2023-11-23T09:29:17.000Z</time>
      </trkpt>
      <trkpt lat="45.83446" lon="4.72904">
        <ele>289.44656</ele>
        <time>2023-11-23T09:29:18.000Z</time>
      </trkpt>
      <trkpt lat="45.83447" lon="4.72909">
        <ele>289.53027</ele>
        <time>2023-11-23T09:29:19.000Z</time>
      </trkpt>
      <trkpt lat="45.83448" lon="4.72914">
        <ele>289.67068</ele>
        <time>2023-11-23T09:29:20.000Z</time>
      </trkpt>
      <trkpt lat="45.83449" lon="4.72919">
        <ele>289.76025</ele>
        <time>2023-11-23T09:29:21.000Z</time>
      </trkpt>
      <trkpt lat="45.83451" lon="4.72924">
        <ele>289.88937</ele>
        <time>2023-11-23T09:29:22.000Z</time>
      </trkpt>
      <trkpt lat="45.83453" lon="4.72928">
        <ele>289.8967</ele>
        <time>2023-11-23T09:29:23.000Z</time>
      </trkpt>
      <trkpt lat="45.83454" lon="4.72933">
        <ele>289.88739</ele>
        <time>2023-11-23T09:29:24.000Z</time>
      </trkpt>
      <trkpt lat="45.83456" lon="4.72938">
        <ele>289.70599</ele>
        <time>2023-11-23T09:29:25.000Z</time>
      </trkpt>
      <trkpt lat="45.83458" lon="4.72944">
        <ele>289.59088</ele>
        <time>2023-11-23T09:29:26.000Z</time>
      </trkpt>
      <trkpt lat="45.8346" lon="4.72949">
        <ele>289.5936</ele>
        <time>2023-11-23T09:29:27.000Z</time>
      </trkpt>
      <trkpt lat="45.83462" lon="4.72953">
        <ele>289.51935</ele>
        <time>2023-11-23T09:29:28.000Z</time>
      </trkpt>
      <trkpt lat="45.83464" lon="4.72959">
        <ele>289.48471</ele>
        <time>2023-11-23T09:29:29.000Z</time>
      </trkpt>
      <trkpt lat="45.83466" lon="4.72964">
        <ele>289.62549</ele>
        <time>2023-11-23T09:29:30.000Z</time>
      </trkpt>
      <trkpt lat="45.83468" lon="4.72969">
        <ele>289.37067</ele>
        <time>2023-11-23T09:29:31.000Z</time>
      </trkpt>
      <trkpt lat="45.8347" lon="4.72973">
        <ele>289.21652</ele>
        <time>2023-11-23T09:29:32.000Z</time>
      </trkpt>
      <trkpt lat="45.83471" lon="4.72978">
        <ele>289.08859</ele>
        <time>2023-11-23T09:29:33.000Z</time>
      </trkpt>
      <trkpt lat="45.83473" lon="4.72983">
        <ele>288.98785</ele>
        <time>2023-11-23T09:29:34.000Z</time>
      </trkpt>
      <trkpt lat="45.83474" lon="4.72989">
        <ele>288.633</ele>
        <time>2023-11-23T09:29:35.000Z</time>
      </trkpt>
      <trkpt lat="45.83475" lon="4.72994">
        <ele>288.38309</ele>
        <time>2023-11-23T09:29:36.000Z</time>
      </trkpt>
      <trkpt lat="45.83476" lon="4.72999">
        <ele>288.16586</ele>
        <time>2023-11-23T09:29:37.000Z</time>
      </trkpt>
      <trkpt lat="45.83477" lon="4.73004">
        <ele>287.96222</ele>
        <time>2023-11-23T09:29:38.000Z</time>
      </trkpt>
      <trkpt lat="45.83478" lon="4.73008">
        <ele>288.31662</ele>
        <time>2023-11-23T09:29:39.000Z</time>
      </trkpt>
      <trkpt lat="45.8348" lon="4.73013">
        <ele>288.62131</ele>
        <time>2023-11-23T09:29:40.000Z</time>
      </trkpt>
      <trkpt lat="45.83481" lon="4.73017">
        <ele>288.59268</ele>
        <time>2023-11-23T09:29:41.000Z</time>
      </trkpt>
      <trkpt lat="45.83483" lon="4.73022">
        <ele>288.63617</ele>
        <time>2023-11-23T09:29:42.000Z</time>
      </trkpt>
      <trkpt lat="45.83484" lon="4.73026">
        <ele>288.70535</ele>
        <time>2023-11-23T09:29:43.000Z</time>
      </trkpt>
      <trkpt lat="45.83486" lon="4.7303">
        <ele>288.82175</ele>
        <time>2023-11-23T09:29:44.000Z</time>
      </trkpt>
      <trkpt lat="45.83489" lon="4.73033">
        <ele>288.98688</ele>
        <time>2023-11-23T09:29:45.000Z</time>
      </trkpt>
      <trkpt lat="45.83492" lon="4.73037">
        <ele>289.03815</ele>
        <time>2023-11-23T09:29:46.000Z</time>
      </trkpt>
      <trkpt lat="45.83495" lon="4.7304">
        <ele>288.91223</ele>
        <time>2023-11-23T09:29:47.000Z</time>
      </trkpt>
      <trkpt lat="45.83498" lon="4.73044">
        <ele>288.74649</ele>
        <time>2023-11-23T09:29:48.000Z</time>
      </trkpt>
      <trkpt lat="45.83502" lon="4.73046">
        <ele>288.57672</ele>
        <time>2023-11-23T09:29:49.000Z</time>
      </trkpt>
      <trkpt lat="45.83505" lon="4.7305">
        <ele>288.1199</ele>
        <time>2023-11-23T09:29:50.000Z</time>
      </trkpt>
      <trkpt lat="45.83507" lon="4.73053">
        <ele>288.07843</ele>
        <time>2023-11-23T09:29:51.000Z</time>
      </trkpt>
      <trkpt lat="45.83511" lon="4.73057">
        <ele>287.93143</ele>
        <time>2023-11-23T09:29:52.000Z</time>
      </trkpt>
      <trkpt lat="45.83514" lon="4.7306">
        <ele>287.71851</ele>
        <time>2023-11-23T09:29:53.000Z</time>
      </trkpt>
      <trkpt lat="45.83517" lon="4.73062">
        <ele>287.49658</ele>
        <time>2023-11-23T09:29:54.000Z</time>
      </trkpt>
      <trkpt lat="45.8352" lon="4.73064">
        <ele>287.32681</ele>
        <time>2023-11-23T09:29:55.000Z</time>
      </trkpt>
      <trkpt lat="45.83523" lon="4.73065">
        <ele>287.03809</ele>
        <time>2023-11-23T09:29:56.000Z</time>
      </trkpt>
      <trkpt lat="45.83526" lon="4.73066">
        <ele>286.96927</ele>
        <time>2023-11-23T09:29:57.000Z</time>
      </trkpt>
      <trkpt lat="45.83529" lon="4.73065">
        <ele>286.89856</ele>
        <time>2023-11-23T09:29:58.000Z</time>
      </trkpt>
      <trkpt lat="45.83532" lon="4.73065">
        <ele>286.80902</ele>
        <time>2023-11-23T09:29:59.000Z</time>
      </trkpt>
      <trkpt lat="45.83536" lon="4.73065">
        <ele>286.6759</ele>
        <time>2023-11-23T09:30:00.000Z</time>
      </trkpt>
      <trkpt lat="45.8354" lon="4.73065">
        <ele>286.92133</ele>
        <time>2023-11-23T09:30:01.000Z</time>
      </trkpt>
      <trkpt lat="45.83543" lon="4.73064">
        <ele>287.03131</ele>
        <time>2023-11-23T09:30:02.000Z</time>
      </trkpt>
      <trkpt lat="45.83547" lon="4.73064">
        <ele>287.15921</ele>
        <time>2023-11-23T09:30:03.000Z</time>
      </trkpt>
      <trkpt lat="45.83552" lon="4.73063">
        <ele>287.28693</ele>
        <time>2023-11-23T09:30:04.000Z</time>
      </trkpt>
      <trkpt lat="45.83556" lon="4.73063">
        <ele>287.50531</ele>
        <time>2023-11-23T09:30:05.000Z</time>
      </trkpt>
      <trkpt lat="45.8356" lon="4.73061">
        <ele>287.72501</ele>
        <time>2023-11-23T09:30:06.000Z</time>
      </trkpt>
      <trkpt lat="45.83564" lon="4.7306">
        <ele>287.92499</ele>
        <time>2023-11-23T09:30:07.000Z</time>
      </trkpt>
      <trkpt lat="45.83569" lon="4.73059">
        <ele>288.26315</ele>
        <time>2023-11-23T09:30:08.000Z</time>
      </trkpt>
      <trkpt lat="45.83573" lon="4.73058">
        <ele>288.34259</ele>
        <time>2023-11-23T09:30:09.000Z</time>
      </trkpt>
      <trkpt lat="45.83577" lon="4.73057">
        <ele>288.79169</ele>
        <time>2023-11-23T09:30:10.000Z</time>
      </trkpt>
      <trkpt lat="45.83581" lon="4.73056">
        <ele>289.23862</ele>
        <time>2023-11-23T09:30:11.000Z</time>
      </trkpt>
      <trkpt lat="45.83584" lon="4.73055">
        <ele>289.71585</ele>
        <time>2023-11-23T09:30:12.000Z</time>
      </trkpt>
      <trkpt lat="45.83592" lon="4.73055">
        <ele>289.47464</ele>
        <time>2023-11-23T09:30:13.000Z</time>
      </trkpt>
      <trkpt lat="45.83595" lon="4.73053">
        <ele>289.21954</ele>
        <time>2023-11-23T09:30:14.000Z</time>
      </trkpt>
      <trkpt lat="45.83597" lon="4.7305">
        <ele>289.81415</ele>
        <time>2023-11-23T09:30:15.000Z</time>
      </trkpt>
      <trkpt lat="45.836" lon="4.73049">
        <ele>290.27771</ele>
        <time>2023-11-23T09:30:16.000Z</time>
      </trkpt>
      <trkpt lat="45.83603" lon="4.73048">
        <ele>290.61432</ele>
        <time>2023-11-23T09:30:17.000Z</time>
      </trkpt>
      <trkpt lat="45.83606" lon="4.73047">
        <ele>290.92291</ele>
        <time>2023-11-23T09:30:18.000Z</time>
      </trkpt>
      <trkpt lat="45.8361" lon="4.73046">
        <ele>291.06104</ele>
        <time>2023-11-23T09:30:19.000Z</time>
      </trkpt>
      <trkpt lat="45.83613" lon="4.73044">
        <ele>291.19635</ele>
        <time>2023-11-23T09:30:20.000Z</time>
      </trkpt>
      <trkpt lat="45.83616" lon="4.73041">
        <ele>291.32901</ele>
        <time>2023-11-23T09:30:21.000Z</time>
      </trkpt>
      <trkpt lat="45.83618" lon="4.7304">
        <ele>291.48889</ele>
        <time>2023-11-23T09:30:22.000Z</time>
      </trkpt>
      <trkpt lat="45.8362" lon="4.73037">
        <ele>291.60242</ele>
        <time>2023-11-23T09:30:23.000Z</time>
      </trkpt>
      <trkpt lat="45.83623" lon="4.73035">
        <ele>291.94928</ele>
        <time>2023-11-23T09:30:24.000Z</time>
      </trkpt>
      <trkpt lat="45.83626" lon="4.73034">
        <ele>292.21912</ele>
        <time>2023-11-23T09:30:25.000Z</time>
      </trkpt>
      <trkpt lat="45.83629" lon="4.73033">
        <ele>292.4631</ele>
        <time>2023-11-23T09:30:26.000Z</time>
      </trkpt>
      <trkpt lat="45.83632" lon="4.73031">
        <ele>292.6828</ele>
        <time>2023-11-23T09:30:27.000Z</time>
      </trkpt>
      <trkpt lat="45.83636" lon="4.73029">
        <ele>292.8663</ele>
        <time>2023-11-23T09:30:28.000Z</time>
      </trkpt>
      <trkpt lat="45.83639" lon="4.73027">
        <ele>293.25793</ele>
        <time>2023-11-23T09:30:29.000Z</time>
      </trkpt>
      <trkpt lat="45.83643" lon="4.73026">
        <ele>293.41876</ele>
        <time>2023-11-23T09:30:30.000Z</time>
      </trkpt>
      <trkpt lat="45.83648" lon="4.73025">
        <ele>293.5632</ele>
        <time>2023-11-23T09:30:31.000Z</time>
      </trkpt>
      <trkpt lat="45.83652" lon="4.73024">
        <ele>293.82581</ele>
        <time>2023-11-23T09:30:32.000Z</time>
      </trkpt>
      <trkpt lat="45.83655" lon="4.73024">
        <ele>294.74786</ele>
        <time>2023-11-23T09:30:33.000Z</time>
      </trkpt>
      <trkpt lat="45.83662" lon="4.73022">
        <ele>295.65085</ele>
        <time>2023-11-23T09:30:34.000Z</time>
      </trkpt>
      <trkpt lat="45.83665" lon="4.73021">
        <ele>295.698</ele>
        <time>2023-11-23T09:30:35.000Z</time>
      </trkpt>
      <trkpt lat="45.8367" lon="4.73022">
        <ele>295.77036</ele>
        <time>2023-11-23T09:30:36.000Z</time>
      </trkpt>
      <trkpt lat="45.83676" lon="4.73022">
        <ele>295.75803</ele>
        <time>2023-11-23T09:30:37.000Z</time>
      </trkpt>
      <trkpt lat="45.8368" lon="4.73023">
        <ele>295.74692</ele>
        <time>2023-11-23T09:30:38.000Z</time>
      </trkpt>
      <trkpt lat="45.83684" lon="4.73024">
        <ele>295.88654</ele>
        <time>2023-11-23T09:30:39.000Z</time>
      </trkpt>
      <trkpt lat="45.8369" lon="4.73023">
        <ele>296.01947</ele>
        <time>2023-11-23T09:30:40.000Z</time>
      </trkpt>
      <trkpt lat="45.83695" lon="4.73022">
        <ele>296.23602</ele>
        <time>2023-11-23T09:30:41.000Z</time>
      </trkpt>
      <trkpt lat="45.83701" lon="4.73021">
        <ele>296.4472</ele>
        <time>2023-11-23T09:30:42.000Z</time>
      </trkpt>
      <trkpt lat="45.83706" lon="4.73021">
        <ele>296.72482</ele>
        <time>2023-11-23T09:30:43.000Z</time>
      </trkpt>
      <trkpt lat="45.83711" lon="4.7302">
        <ele>296.76752</ele>
        <time>2023-11-23T09:30:44.000Z</time>
      </trkpt>
      <trkpt lat="45.83715" lon="4.73017">
        <ele>296.77393</ele>
        <time>2023-11-23T09:30:45.000Z</time>
      </trkpt>
      <trkpt lat="45.8372" lon="4.73016">
        <ele>296.96179</ele>
        <time>2023-11-23T09:30:46.000Z</time>
      </trkpt>
      <trkpt lat="45.83725" lon="4.73016">
        <ele>297.24835</ele>
        <time>2023-11-23T09:30:47.000Z</time>
      </trkpt>
      <trkpt lat="45.8373" lon="4.73017">
        <ele>297.46906</ele>
        <time>2023-11-23T09:30:48.000Z</time>
      </trkpt>
      <trkpt lat="45.83733" lon="4.73016">
        <ele>297.31647</ele>
        <time>2023-11-23T09:30:49.000Z</time>
      </trkpt>
      <trkpt lat="45.83737" lon="4.7302">
        <ele>297.22891</ele>
        <time>2023-11-23T09:30:50.000Z</time>
      </trkpt>
      <trkpt lat="45.83741" lon="4.73023">
        <ele>297.16354</ele>
        <time>2023-11-23T09:30:51.000Z</time>
      </trkpt>
      <trkpt lat="45.83743" lon="4.73025">
        <ele>296.92557</ele>
        <time>2023-11-23T09:30:52.000Z</time>
      </trkpt>
      <trkpt lat="45.83745" lon="4.73031">
        <ele>296.698</ele>
        <time>2023-11-23T09:30:53.000Z</time>
      </trkpt>
      <trkpt lat="45.83746" lon="4.73036">
        <ele>296.49918</ele>
        <time>2023-11-23T09:30:54.000Z</time>
      </trkpt>
      <trkpt lat="45.83747" lon="4.73042">
        <ele>296.23053</ele>
        <time>2023-11-23T09:30:55.000Z</time>
      </trkpt>
      <trkpt lat="45.83748" lon="4.73047">
        <ele>295.94492</ele>
        <time>2023-11-23T09:30:56.000Z</time>
      </trkpt>
      <trkpt lat="45.83749" lon="4.73053">
        <ele>295.65781</ele>
        <time>2023-11-23T09:30:57.000Z</time>
      </trkpt>
      <trkpt lat="45.8375" lon="4.73059">
        <ele>295.48117</ele>
        <time>2023-11-23T09:30:58.000Z</time>
      </trkpt>
      <trkpt lat="45.83748" lon="4.73065">
        <ele>295.18378</ele>
        <time>2023-11-23T09:30:59.000Z</time>
      </trkpt>
      <trkpt lat="45.83746" lon="4.73068">
        <ele>295.02789</ele>
        <time>2023-11-23T09:31:00.000Z</time>
      </trkpt>
      <trkpt lat="45.83743" lon="4.73071">
        <ele>294.75702</ele>
        <time>2023-11-23T09:31:01.000Z</time>
      </trkpt>
      <trkpt lat="45.83743" lon="4.73075">
        <ele>294.41843</ele>
        <time>2023-11-23T09:31:02.000Z</time>
      </trkpt>
      <trkpt lat="45.83744" lon="4.73079">
        <ele>293.99905</ele>
        <time>2023-11-23T09:31:03.000Z</time>
      </trkpt>
      <trkpt lat="45.83745" lon="4.73083">
        <ele>293.61017</ele>
        <time>2023-11-23T09:31:04.000Z</time>
      </trkpt>
      <trkpt lat="45.83746" lon="4.73087">
        <ele>293.26093</ele>
        <time>2023-11-23T09:31:05.000Z</time>
      </trkpt>
      <trkpt lat="45.83749" lon="4.73091">
        <ele>292.69571</ele>
        <time>2023-11-23T09:31:06.000Z</time>
      </trkpt>
      <trkpt lat="45.83751" lon="4.73095">
        <ele>292.10822</ele>
        <time>2023-11-23T09:31:07.000Z</time>
      </trkpt>
      <trkpt lat="45.83753" lon="4.73098">
        <ele>291.55121</ele>
        <time>2023-11-23T09:31:08.000Z</time>
      </trkpt>
      <trkpt lat="45.83755" lon="4.731">
        <ele>291.40723</ele>
        <time>2023-11-23T09:31:09.000Z</time>
      </trkpt>
      <trkpt lat="45.83757" lon="4.73104">
        <ele>291.39154</ele>
        <time>2023-11-23T09:31:10.000Z</time>
      </trkpt>
      <trkpt lat="45.83758" lon="4.73106">
        <ele>291.35272</ele>
        <time>2023-11-23T09:31:11.000Z</time>
      </trkpt>
      <trkpt lat="45.83759" lon="4.73108">
        <ele>291.39197</ele>
        <time>2023-11-23T09:31:12.000Z</time>
      </trkpt>
      <trkpt lat="45.8376" lon="4.73111">
        <ele>291.47345</ele>
        <time>2023-11-23T09:31:13.000Z</time>
      </trkpt>
      <trkpt lat="45.83761" lon="4.73115">
        <ele>291.55453</ele>
        <time>2023-11-23T09:31:14.000Z</time>
      </trkpt>
      <trkpt lat="45.83762" lon="4.73119">
        <ele>291.69101</ele>
        <time>2023-11-23T09:31:15.000Z</time>
      </trkpt>
      <trkpt lat="45.83764" lon="4.73123">
        <ele>291.9389</ele>
        <time>2023-11-23T09:31:16.000Z</time>
      </trkpt>
      <trkpt lat="45.83765" lon="4.73126">
        <ele>292.19122</ele>
        <time>2023-11-23T09:31:17.000Z</time>
      </trkpt>
      <trkpt lat="45.83766" lon="4.7313">
        <ele>292.40143</ele>
        <time>2023-11-23T09:31:18.000Z</time>
      </trkpt>
      <trkpt lat="45.83766" lon="4.73133">
        <ele>292.69684</ele>
        <time>2023-11-23T09:31:19.000Z</time>
      </trkpt>
      <trkpt lat="45.83767" lon="4.73136">
        <ele>292.91751</ele>
        <time>2023-11-23T09:31:20.000Z</time>
      </trkpt>
      <trkpt lat="45.83769" lon="4.73139">
        <ele>293.13104</ele>
        <time>2023-11-23T09:31:21.000Z</time>
      </trkpt>
      <trkpt lat="45.8377" lon="4.73142">
        <ele>293.46313</ele>
        <time>2023-11-23T09:31:22.000Z</time>
      </trkpt>
      <trkpt lat="45.83771" lon="4.73146">
        <ele>293.82877</ele>
        <time>2023-11-23T09:31:23.000Z</time>
      </trkpt>
      <trkpt lat="45.83772" lon="4.7315">
        <ele>294.06744</ele>
        <time>2023-11-23T09:31:24.000Z</time>
      </trkpt>
      <trkpt lat="45.83773" lon="4.73153">
        <ele>294.3259</ele>
        <time>2023-11-23T09:31:25.000Z</time>
      </trkpt>
      <trkpt lat="45.83774" lon="4.73157">
        <ele>294.6412</ele>
        <time>2023-11-23T09:31:26.000Z</time>
      </trkpt>
      <trkpt lat="45.83775" lon="4.7316">
        <ele>294.9278</ele>
        <time>2023-11-23T09:31:27.000Z</time>
      </trkpt>
      <trkpt lat="45.83776" lon="4.73163">
        <ele>295.2099</ele>
        <time>2023-11-23T09:31:28.000Z</time>
      </trkpt>
      <trkpt lat="45.83776" lon="4.73166">
        <ele>295.4928</ele>
        <time>2023-11-23T09:31:29.000Z</time>
      </trkpt>
      <trkpt lat="45.83777" lon="4.73169">
        <ele>295.54578</ele>
        <time>2023-11-23T09:31:30.000Z</time>
      </trkpt>
      <trkpt lat="45.83778" lon="4.73171">
        <ele>295.56931</ele>
        <time>2023-11-23T09:31:31.000Z</time>
      </trkpt>
      <trkpt lat="45.83778" lon="4.73174">
        <ele>295.57581</ele>
        <time>2023-11-23T09:31:32.000Z</time>
      </trkpt>
      <trkpt lat="45.83778" lon="4.73178">
        <ele>295.56058</ele>
        <time>2023-11-23T09:31:33.000Z</time>
      </trkpt>
      <trkpt lat="45.83778" lon="4.73181">
        <ele>295.7124</ele>
        <time>2023-11-23T09:31:34.000Z</time>
      </trkpt>
      <trkpt lat="45.83778" lon="4.73183">
        <ele>295.91556</ele>
        <time>2023-11-23T09:31:35.000Z</time>
      </trkpt>
      <trkpt lat="45.83776" lon="4.73186">
        <ele>296.01654</ele>
        <time>2023-11-23T09:31:36.000Z</time>
      </trkpt>
      <trkpt lat="45.83774" lon="4.73188">
        <ele>295.72296</ele>
        <time>2023-11-23T09:31:37.000Z</time>
      </trkpt>
      <trkpt lat="45.83772" lon="4.7319">
        <ele>295.48813</ele>
        <time>2023-11-23T09:31:38.000Z</time>
      </trkpt>
      <trkpt lat="45.83771" lon="4.73193">
        <ele>295.30707</ele>
        <time>2023-11-23T09:31:39.000Z</time>
      </trkpt>
      <trkpt lat="45.83769" lon="4.73195">
        <ele>295.10263</ele>
        <time>2023-11-23T09:31:40.000Z</time>
      </trkpt>
      <trkpt lat="45.83767" lon="4.73197">
        <ele>294.86298</ele>
        <time>2023-11-23T09:31:41.000Z</time>
      </trkpt>
      <trkpt lat="45.83765" lon="4.73199">
        <ele>294.52582</ele>
        <time>2023-11-23T09:31:42.000Z</time>
      </trkpt>
      <trkpt lat="45.83763" lon="4.73201">
        <ele>294.18646</ele>
        <time>2023-11-23T09:31:43.000Z</time>
      </trkpt>
      <trkpt lat="45.8376" lon="4.73203">
        <ele>293.88452</ele>
        <time>2023-11-23T09:31:44.000Z</time>
      </trkpt>
      <trkpt lat="45.83758" lon="4.73206">
        <ele>293.7514</ele>
        <time>2023-11-23T09:31:45.000Z</time>
      </trkpt>
      <trkpt lat="45.83756" lon="4.73209">
        <ele>293.60812</ele>
        <time>2023-11-23T09:31:46.000Z</time>
      </trkpt>
      <trkpt lat="45.83754" lon="4.73211">
        <ele>293.61743</ele>
        <time>2023-11-23T09:31:47.000Z</time>
      </trkpt>
      <trkpt lat="45.83752" lon="4.73213">
        <ele>293.65671</ele>
        <time>2023-11-23T09:31:48.000Z</time>
      </trkpt>
      <trkpt lat="45.83749" lon="4.73216">
        <ele>293.28543</ele>
        <time>2023-11-23T09:31:49.000Z</time>
      </trkpt>
      <trkpt lat="45.83746" lon="4.73219">
        <ele>293.06787</ele>
        <time>2023-11-23T09:31:50.000Z</time>
      </trkpt>
      <trkpt lat="45.83744" lon="4.73221">
        <ele>293.05002</ele>
        <time>2023-11-23T09:31:51.000Z</time>
      </trkpt>
      <trkpt lat="45.83741" lon="4.73224">
        <ele>291.58484</ele>
        <time>2023-11-23T09:31:52.000Z</time>
      </trkpt>
      <trkpt lat="45.83738" lon="4.73226">
        <ele>290.16245</ele>
        <time>2023-11-23T09:31:53.000Z</time>
      </trkpt>
      <trkpt lat="45.83735" lon="4.73229">
        <ele>288.58771</ele>
        <time>2023-11-23T09:31:54.000Z</time>
      </trkpt>
      <trkpt lat="45.83733" lon="4.73232">
        <ele>286.98862</ele>
        <time>2023-11-23T09:31:55.000Z</time>
      </trkpt>
      <trkpt lat="45.8373" lon="4.73235">
        <ele>285.3952</ele>
        <time>2023-11-23T09:31:56.000Z</time>
      </trkpt>
      <trkpt lat="45.83728" lon="4.73238">
        <ele>284.13315</ele>
        <time>2023-11-23T09:31:57.000Z</time>
      </trkpt>
      <trkpt lat="45.83726" lon="4.7324">
        <ele>282.76944</ele>
        <time>2023-11-23T09:31:58.000Z</time>
      </trkpt>
      <trkpt lat="45.83724" lon="4.73242">
        <ele>281.21893</ele>
        <time>2023-11-23T09:31:59.000Z</time>
      </trkpt>
      <trkpt lat="45.83721" lon="4.73246">
        <ele>279.47729</ele>
        <time>2023-11-23T09:32:00.000Z</time>
      </trkpt>
      <trkpt lat="45.83719" lon="4.7325">
        <ele>277.80551</ele>
        <time>2023-11-23T09:32:01.000Z</time>
      </trkpt>
      <trkpt lat="45.83716" lon="4.73254">
        <ele>276.10907</ele>
        <time>2023-11-23T09:32:02.000Z</time>
      </trkpt>
      <trkpt lat="45.83713" lon="4.73257">
        <ele>274.50421</ele>
        <time>2023-11-23T09:32:03.000Z</time>
      </trkpt>
      <trkpt lat="45.83711" lon="4.73261">
        <ele>272.94482</ele>
        <time>2023-11-23T09:32:04.000Z</time>
      </trkpt>
      <trkpt lat="45.83708" lon="4.73264">
        <ele>271.21988</ele>
        <time>2023-11-23T09:32:05.000Z</time>
      </trkpt>
      <trkpt lat="45.83705" lon="4.73268">
        <ele>269.48175</ele>
        <time>2023-11-23T09:32:06.000Z</time>
      </trkpt>
      <trkpt lat="45.83701" lon="4.73272">
        <ele>267.65918</ele>
        <time>2023-11-23T09:32:07.000Z</time>
      </trkpt>
      <trkpt lat="45.83698" lon="4.73276">
        <ele>265.77591</ele>
        <time>2023-11-23T09:32:08.000Z</time>
      </trkpt>
      <trkpt lat="45.83696" lon="4.73279">
        <ele>264.31854</ele>
        <time>2023-11-23T09:32:09.000Z</time>
      </trkpt>
      <trkpt lat="45.83693" lon="4.73282">
        <ele>262.81836</ele>
        <time>2023-11-23T09:32:10.000Z</time>
      </trkpt>
      <trkpt lat="45.8369" lon="4.73286">
        <ele>261.27179</ele>
        <time>2023-11-23T09:32:11.000Z</time>
      </trkpt>
      <trkpt lat="45.83687" lon="4.7329">
        <ele>261.17203</ele>
        <time>2023-11-23T09:32:12.000Z</time>
      </trkpt>
      <trkpt lat="45.83685" lon="4.73294">
        <ele>261.06631</ele>
        <time>2023-11-23T09:32:13.000Z</time>
      </trkpt>
      <trkpt lat="45.83682" lon="4.73297">
        <ele>260.94073</ele>
        <time>2023-11-23T09:32:14.000Z</time>
      </trkpt>
      <trkpt lat="45.83679" lon="4.73301">
        <ele>260.82278</ele>
        <time>2023-11-23T09:32:15.000Z</time>
      </trkpt>
      <trkpt lat="45.83677" lon="4.73306">
        <ele>260.71518</ele>
        <time>2023-11-23T09:32:16.000Z</time>
      </trkpt>
      <trkpt lat="45.83674" lon="4.7331">
        <ele>260.64667</ele>
        <time>2023-11-23T09:32:17.000Z</time>
      </trkpt>
      <trkpt lat="45.83672" lon="4.73315">
        <ele>260.48511</ele>
        <time>2023-11-23T09:32:18.000Z</time>
      </trkpt>
      <trkpt lat="45.8367" lon="4.7332">
        <ele>260.38956</ele>
        <time>2023-11-23T09:32:19.000Z</time>
      </trkpt>
      <trkpt lat="45.83668" lon="4.73324">
        <ele>260.41156</ele>
        <time>2023-11-23T09:32:20.000Z</time>
      </trkpt>
      <trkpt lat="45.83666" lon="4.73329">
        <ele>260.50116</ele>
        <time>2023-11-23T09:32:21.000Z</time>
      </trkpt>
      <trkpt lat="45.83664" lon="4.73334">
        <ele>260.62396</ele>
        <time>2023-11-23T09:32:22.000Z</time>
      </trkpt>
      <trkpt lat="45.83662" lon="4.73338">
        <ele>260.65366</ele>
        <time>2023-11-23T09:32:23.000Z</time>
      </trkpt>
      <trkpt lat="45.83659" lon="4.73343">
        <ele>260.7265</ele>
        <time>2023-11-23T09:32:24.000Z</time>
      </trkpt>
      <trkpt lat="45.83657" lon="4.73348">
        <ele>260.68109</ele>
        <time>2023-11-23T09:32:25.000Z</time>
      </trkpt>
      <trkpt lat="45.83655" lon="4.73353">
        <ele>260.52759</ele>
        <time>2023-11-23T09:32:26.000Z</time>
      </trkpt>
      <trkpt lat="45.83654" lon="4.73359">
        <ele>260.75299</ele>
        <time>2023-11-23T09:32:27.000Z</time>
      </trkpt>
      <trkpt lat="45.83653" lon="4.73364">
        <ele>260.9075</ele>
        <time>2023-11-23T09:32:28.000Z</time>
      </trkpt>
      <trkpt lat="45.83652" lon="4.7337">
        <ele>261.00226</ele>
        <time>2023-11-23T09:32:29.000Z</time>
      </trkpt>
      <trkpt lat="45.83651" lon="4.73375">
        <ele>261.1348</ele>
        <time>2023-11-23T09:32:30.000Z</time>
      </trkpt>
      <trkpt lat="45.8365" lon="4.73381">
        <ele>261.13</ele>
        <time>2023-11-23T09:32:31.000Z</time>
      </trkpt>
      <trkpt lat="45.8365" lon="4.73387">
        <ele>261.13943</ele>
        <time>2023-11-23T09:32:32.000Z</time>
      </trkpt>
      <trkpt lat="45.8365" lon="4.73393">
        <ele>260.99353</ele>
        <time>2023-11-23T09:32:33.000Z</time>
      </trkpt>
      <trkpt lat="45.83651" lon="4.73398">
        <ele>260.72995</ele>
        <time>2023-11-23T09:32:34.000Z</time>
      </trkpt>
      <trkpt lat="45.83652" lon="4.73403">
        <ele>260.6217</ele>
        <time>2023-11-23T09:32:35.000Z</time>
      </trkpt>
      <trkpt lat="45.83653" lon="4.73407">
        <ele>260.50113</ele>
        <time>2023-11-23T09:32:36.000Z</time>
      </trkpt>
      <trkpt lat="45.83654" lon="4.73412">
        <ele>260.38275</ele>
        <time>2023-11-23T09:32:37.000Z</time>
      </trkpt>
      <trkpt lat="45.83656" lon="4.73417">
        <ele>260.34964</ele>
        <time>2023-11-23T09:32:38.000Z</time>
      </trkpt>
      <trkpt lat="45.83657" lon="4.73422">
        <ele>260.32693</ele>
        <time>2023-11-23T09:32:39.000Z</time>
      </trkpt>
      <trkpt lat="45.83658" lon="4.73427">
        <ele>262.15521</ele>
        <time>2023-11-23T09:32:40.000Z</time>
      </trkpt>
      <trkpt lat="45.83659" lon="4.73432">
        <ele>262.23773</ele>
        <time>2023-11-23T09:32:41.000Z</time>
      </trkpt>
      <trkpt lat="45.8366" lon="4.73438">
        <ele>262.35809</ele>
        <time>2023-11-23T09:32:42.000Z</time>
      </trkpt>
      <trkpt lat="45.83661" lon="4.73443">
        <ele>262.50009</ele>
        <time>2023-11-23T09:32:43.000Z</time>
      </trkpt>
      <trkpt lat="45.83662" lon="4.73448">
        <ele>262.61472</ele>
        <time>2023-11-23T09:32:44.000Z</time>
      </trkpt>
      <trkpt lat="45.83663" lon="4.73454">
        <ele>262.84213</ele>
        <time>2023-11-23T09:32:45.000Z</time>
      </trkpt>
      <trkpt lat="45.83664" lon="4.73459">
        <ele>264.8035</ele>
        <time>2023-11-23T09:32:46.000Z</time>
      </trkpt>
      <trkpt lat="45.83666" lon="4.73464">
        <ele>264.82416</ele>
        <time>2023-11-23T09:32:47.000Z</time>
      </trkpt>
      <trkpt lat="45.83667" lon="4.73469">
        <ele>264.97589</ele>
        <time>2023-11-23T09:32:48.000Z</time>
      </trkpt>
      <trkpt lat="45.83669" lon="4.73474">
        <ele>265.18195</ele>
        <time>2023-11-23T09:32:49.000Z</time>
      </trkpt>
      <trkpt lat="45.83671" lon="4.73479">
        <ele>266.66217</ele>
        <time>2023-11-23T09:32:50.000Z</time>
      </trkpt>
      <trkpt lat="45.83673" lon="4.73483">
        <ele>268.19415</ele>
        <time>2023-11-23T09:32:51.000Z</time>
      </trkpt>
      <trkpt lat="45.83675" lon="4.73488">
        <ele>269.70746</ele>
        <time>2023-11-23T09:32:52.000Z</time>
      </trkpt>
      <trkpt lat="45.83677" lon="4.73492">
        <ele>271.3941</ele>
        <time>2023-11-23T09:32:53.000Z</time>
      </trkpt>
      <trkpt lat="45.8368" lon="4.73496">
        <ele>273.20364</ele>
        <time>2023-11-23T09:32:54.000Z</time>
      </trkpt>
      <trkpt lat="45.83682" lon="4.735">
        <ele>274.81387</ele>
        <time>2023-11-23T09:32:55.000Z</time>
      </trkpt>
      <trkpt lat="45.83684" lon="4.73504">
        <ele>276.47357</ele>
        <time>2023-11-23T09:32:56.000Z</time>
      </trkpt>
      <trkpt lat="45.83687" lon="4.73509">
        <ele>276.9975</ele>
        <time>2023-11-23T09:32:57.000Z</time>
      </trkpt>
      <trkpt lat="45.83689" lon="4.73514">
        <ele>277.55197</ele>
        <time>2023-11-23T09:32:58.000Z</time>
      </trkpt>
      <trkpt lat="45.83691" lon="4.73519">
        <ele>278.10114</ele>
        <time>2023-11-23T09:32:59.000Z</time>
      </trkpt>
      <trkpt lat="45.83693" lon="4.73524">
        <ele>276.88202</ele>
        <time>2023-11-23T09:33:00.000Z</time>
      </trkpt>
      <trkpt lat="45.83694" lon="4.73529">
        <ele>277.33978</ele>
        <time>2023-11-23T09:33:01.000Z</time>
      </trkpt>
      <trkpt lat="45.83696" lon="4.73533">
        <ele>277.80038</ele>
        <time>2023-11-23T09:33:02.000Z</time>
      </trkpt>
      <trkpt lat="45.83697" lon="4.73538">
        <ele>278.21957</ele>
        <time>2023-11-23T09:33:03.000Z</time>
      </trkpt>
      <trkpt lat="45.83698" lon="4.73542">
        <ele>278.66849</ele>
        <time>2023-11-23T09:33:04.000Z</time>
      </trkpt>
      <trkpt lat="45.837" lon="4.73547">
        <ele>279.10321</ele>
        <time>2023-11-23T09:33:05.000Z</time>
      </trkpt>
      <trkpt lat="45.83701" lon="4.73552">
        <ele>277.92426</ele>
        <time>2023-11-23T09:33:06.000Z</time>
      </trkpt>
      <trkpt lat="45.83702" lon="4.73556">
        <ele>278.22754</ele>
        <time>2023-11-23T09:33:07.000Z</time>
      </trkpt>
      <trkpt lat="45.83704" lon="4.73561">
        <ele>278.55182</ele>
        <time>2023-11-23T09:33:08.000Z</time>
      </trkpt>
      <trkpt lat="45.83705" lon="4.73567">
        <ele>280.14438</ele>
        <time>2023-11-23T09:33:09.000Z</time>
      </trkpt>
      <trkpt lat="45.83707" lon="4.73571">
        <ele>280.36035</ele>
        <time>2023-11-23T09:33:10.000Z</time>
      </trkpt>
      <trkpt lat="45.83707" lon="4.73577">
        <ele>280.68591</ele>
        <time>2023-11-23T09:33:11.000Z</time>
      </trkpt>
      <trkpt lat="45.83707" lon="4.73582">
        <ele>280.98923</ele>
        <time>2023-11-23T09:33:12.000Z</time>
      </trkpt>
      <trkpt lat="45.83706" lon="4.73587">
        <ele>281.28235</ele>
        <time>2023-11-23T09:33:13.000Z</time>
      </trkpt>
      <trkpt lat="45.83704" lon="4.73591">
        <ele>281.54941</ele>
        <time>2023-11-23T09:33:14.000Z</time>
      </trkpt>
      <trkpt lat="45.83701" lon="4.73594">
        <ele>281.85797</ele>
        <time>2023-11-23T09:33:15.000Z</time>
      </trkpt>
      <trkpt lat="45.83698" lon="4.73597">
        <ele>282.155</ele>
        <time>2023-11-23T09:33:16.000Z</time>
      </trkpt>
      <trkpt lat="45.83695" lon="4.73599">
        <ele>283.58801</ele>
        <time>2023-11-23T09:33:17.000Z</time>
      </trkpt>
      <trkpt lat="45.83692" lon="4.73601">
        <ele>285.00089</ele>
        <time>2023-11-23T09:33:18.000Z</time>
      </trkpt>
      <trkpt lat="45.83689" lon="4.73602">
        <ele>286.43765</ele>
        <time>2023-11-23T09:33:19.000Z</time>
      </trkpt>
      <trkpt lat="45.83685" lon="4.73602">
        <ele>287.8465</ele>
        <time>2023-11-23T09:33:20.000Z</time>
      </trkpt>
      <trkpt lat="45.83682" lon="4.73603">
        <ele>289.34296</ele>
        <time>2023-11-23T09:33:21.000Z</time>
      </trkpt>
      <trkpt lat="45.83678" lon="4.73604">
        <ele>290.84119</ele>
        <time>2023-11-23T09:33:22.000Z</time>
      </trkpt>
      <trkpt lat="45.83675" lon="4.73605">
        <ele>292.44675</ele>
        <time>2023-11-23T09:33:23.000Z</time>
      </trkpt>
      <trkpt lat="45.83672" lon="4.73605">
        <ele>293.73859</ele>
        <time>2023-11-23T09:33:24.000Z</time>
      </trkpt>
      <trkpt lat="45.83669" lon="4.73606">
        <ele>295.16992</ele>
        <time>2023-11-23T09:33:25.000Z</time>
      </trkpt>
      <trkpt lat="45.83666" lon="4.73607">
        <ele>296.57721</ele>
        <time>2023-11-23T09:33:26.000Z</time>
      </trkpt>
      <trkpt lat="45.83662" lon="4.73607">
        <ele>298.12643</ele>
        <time>2023-11-23T09:33:27.000Z</time>
      </trkpt>
      <trkpt lat="45.83659" lon="4.73608">
        <ele>299.65469</ele>
        <time>2023-11-23T09:33:28.000Z</time>
      </trkpt>
      <trkpt lat="45.83655" lon="4.73609">
        <ele>299.69357</ele>
        <time>2023-11-23T09:33:29.000Z</time>
      </trkpt>
      <trkpt lat="45.83652" lon="4.7361">
        <ele>299.83249</ele>
        <time>2023-11-23T09:33:30.000Z</time>
      </trkpt>
      <trkpt lat="45.83648" lon="4.73611">
        <ele>299.73883</ele>
        <time>2023-11-23T09:33:31.000Z</time>
      </trkpt>
      <trkpt lat="45.83645" lon="4.73613">
        <ele>299.65646</ele>
        <time>2023-11-23T09:33:32.000Z</time>
      </trkpt>
      <trkpt lat="45.8364" lon="4.73615">
        <ele>299.57516</ele>
        <time>2023-11-23T09:33:33.000Z</time>
      </trkpt>
      <trkpt lat="45.83636" lon="4.73616">
        <ele>299.5463</ele>
        <time>2023-11-23T09:33:34.000Z</time>
      </trkpt>
      <trkpt lat="45.83632" lon="4.73617">
        <ele>299.49039</ele>
        <time>2023-11-23T09:33:35.000Z</time>
      </trkpt>
      <trkpt lat="45.83628" lon="4.73618">
        <ele>299.42569</ele>
        <time>2023-11-23T09:33:36.000Z</time>
      </trkpt>
      <trkpt lat="45.83624" lon="4.73619">
        <ele>299.35855</ele>
        <time>2023-11-23T09:33:37.000Z</time>
      </trkpt>
      <trkpt lat="45.83619" lon="4.73621">
        <ele>299.27203</ele>
        <time>2023-11-23T09:33:38.000Z</time>
      </trkpt>
      <trkpt lat="45.83616" lon="4.73623">
        <ele>299.2037</ele>
        <time>2023-11-23T09:33:39.000Z</time>
      </trkpt>
      <trkpt lat="45.83612" lon="4.73625">
        <ele>299.17316</ele>
        <time>2023-11-23T09:33:40.000Z</time>
      </trkpt>
      <trkpt lat="45.83609" lon="4.73627">
        <ele>299.08783</ele>
        <time>2023-11-23T09:33:41.000Z</time>
      </trkpt>
      <trkpt lat="45.83605" lon="4.73629">
        <ele>299.01572</ele>
        <time>2023-11-23T09:33:42.000Z</time>
      </trkpt>
      <trkpt lat="45.83602" lon="4.73631">
        <ele>298.83755</ele>
        <time>2023-11-23T09:33:43.000Z</time>
      </trkpt>
      <trkpt lat="45.83599" lon="4.73634">
        <ele>298.92978</ele>
        <time>2023-11-23T09:33:44.000Z</time>
      </trkpt>
      <trkpt lat="45.83595" lon="4.73636">
        <ele>298.89264</ele>
        <time>2023-11-23T09:33:45.000Z</time>
      </trkpt>
      <trkpt lat="45.83592" lon="4.73638">
        <ele>298.90283</ele>
        <time>2023-11-23T09:33:46.000Z</time>
      </trkpt>
      <trkpt lat="45.83588" lon="4.7364">
        <ele>298.81061</ele>
        <time>2023-11-23T09:33:47.000Z</time>
      </trkpt>
      <trkpt lat="45.83585" lon="4.73643">
        <ele>298.72314</ele>
        <time>2023-11-23T09:33:48.000Z</time>
      </trkpt>
      <trkpt lat="45.8358" lon="4.73645">
        <ele>298.81128</ele>
        <time>2023-11-23T09:33:49.000Z</time>
      </trkpt>
      <trkpt lat="45.83576" lon="4.73647">
        <ele>298.95621</ele>
        <time>2023-11-23T09:33:50.000Z</time>
      </trkpt>
      <trkpt lat="45.83573" lon="4.73649">
        <ele>299.21088</ele>
        <time>2023-11-23T09:33:51.000Z</time>
      </trkpt>
      <trkpt lat="45.8357" lon="4.73652">
        <ele>299.45453</ele>
        <time>2023-11-23T09:33:52.000Z</time>
      </trkpt>
      <trkpt lat="45.83566" lon="4.73655">
        <ele>299.68832</ele>
        <time>2023-11-23T09:33:53.000Z</time>
      </trkpt>
      <trkpt lat="45.83563" lon="4.73659">
        <ele>300.01202</ele>
        <time>2023-11-23T09:33:54.000Z</time>
      </trkpt>
      <trkpt lat="45.8356" lon="4.73662">
        <ele>300.35425</ele>
        <time>2023-11-23T09:33:55.000Z</time>
      </trkpt>
      <trkpt lat="45.83557" lon="4.73666">
        <ele>300.64935</ele>
        <time>2023-11-23T09:33:56.000Z</time>
      </trkpt>
      <trkpt lat="45.83554" lon="4.7367">
        <ele>300.94794</ele>
        <time>2023-11-23T09:33:57.000Z</time>
      </trkpt>
      <trkpt lat="45.83552" lon="4.73673">
        <ele>301.36392</ele>
        <time>2023-11-23T09:33:58.000Z</time>
      </trkpt>
      <trkpt lat="45.8355" lon="4.73677">
        <ele>301.72623</ele>
        <time>2023-11-23T09:33:59.000Z</time>
      </trkpt>
      <trkpt lat="45.83548" lon="4.73681">
        <ele>302.15845</ele>
        <time>2023-11-23T09:34:00.000Z</time>
      </trkpt>
      <trkpt lat="45.83546" lon="4.73685">
        <ele>302.31189</ele>
        <time>2023-11-23T09:34:01.000Z</time>
      </trkpt>
      <trkpt lat="45.83544" lon="4.73689">
        <ele>302.47662</ele>
        <time>2023-11-23T09:34:02.000Z</time>
      </trkpt>
      <trkpt lat="45.83541" lon="4.73692">
        <ele>302.67499</ele>
        <time>2023-11-23T09:34:03.000Z</time>
      </trkpt>
      <trkpt lat="45.83539" lon="4.73695">
        <ele>302.7027</ele>
        <time>2023-11-23T09:34:04.000Z</time>
      </trkpt>
      <trkpt lat="45.83536" lon="4.73698">
        <ele>302.72583</ele>
        <time>2023-11-23T09:34:05.000Z</time>
      </trkpt>
      <trkpt lat="45.83534" lon="4.73701">
        <ele>302.74686</ele>
        <time>2023-11-23T09:34:06.000Z</time>
      </trkpt>
      <trkpt lat="45.83532" lon="4.73703">
        <ele>302.76105</ele>
        <time>2023-11-23T09:34:07.000Z</time>
      </trkpt>
      <trkpt lat="45.83529" lon="4.73704">
        <ele>302.76593</ele>
        <time>2023-11-23T09:34:08.000Z</time>
      </trkpt>
      <trkpt lat="45.83526" lon="4.73705">
        <ele>302.80554</ele>
        <time>2023-11-23T09:34:09.000Z</time>
      </trkpt>
      <trkpt lat="45.83523" lon="4.73707">
        <ele>302.73737</ele>
        <time>2023-11-23T09:34:10.000Z</time>
      </trkpt>
      <trkpt lat="45.8352" lon="4.73709">
        <ele>302.66254</ele>
        <time>2023-11-23T09:34:11.000Z</time>
      </trkpt>
      <trkpt lat="45.83516" lon="4.73711">
        <ele>302.57281</ele>
        <time>2023-11-23T09:34:12.000Z</time>
      </trkpt>
      <trkpt lat="45.83514" lon="4.73713">
        <ele>302.57324</ele>
        <time>2023-11-23T09:34:13.000Z</time>
      </trkpt>
      <trkpt lat="45.83511" lon="4.73714">
        <ele>302.46832</ele>
        <time>2023-11-23T09:34:14.000Z</time>
      </trkpt>
      <trkpt lat="45.83508" lon="4.73716">
        <ele>302.21912</ele>
        <time>2023-11-23T09:34:15.000Z</time>
      </trkpt>
      <trkpt lat="45.83505" lon="4.73718">
        <ele>302.01352</ele>
        <time>2023-11-23T09:34:16.000Z</time>
      </trkpt>
      <trkpt lat="45.83502" lon="4.73719">
        <ele>301.81845</ele>
        <time>2023-11-23T09:34:17.000Z</time>
      </trkpt>
      <trkpt lat="45.83499" lon="4.73721">
        <ele>301.48883</ele>
        <time>2023-11-23T09:34:18.000Z</time>
      </trkpt>
      <trkpt lat="45.83496" lon="4.73722">
        <ele>301.16739</ele>
        <time>2023-11-23T09:34:19.000Z</time>
      </trkpt>
      <trkpt lat="45.83494" lon="4.73722">
        <ele>300.80487</ele>
        <time>2023-11-23T09:34:20.000Z</time>
      </trkpt>
      <trkpt lat="45.8349" lon="4.73723">
        <ele>300.72833</ele>
        <time>2023-11-23T09:34:21.000Z</time>
      </trkpt>
      <trkpt lat="45.83487" lon="4.73724">
        <ele>300.64996</ele>
        <time>2023-11-23T09:34:22.000Z</time>
      </trkpt>
      <trkpt lat="45.83484" lon="4.73724">
        <ele>300.59579</ele>
        <time>2023-11-23T09:34:23.000Z</time>
      </trkpt>
      <trkpt lat="45.83481" lon="4.73724">
        <ele>300.74164</ele>
        <time>2023-11-23T09:34:24.000Z</time>
      </trkpt>
      <trkpt lat="45.83478" lon="4.73724">
        <ele>300.72348</ele>
        <time>2023-11-23T09:34:25.000Z</time>
      </trkpt>
      <trkpt lat="45.83475" lon="4.73724">
        <ele>300.89508</ele>
        <time>2023-11-23T09:34:26.000Z</time>
      </trkpt>
      <trkpt lat="45.83472" lon="4.73724">
        <ele>301.07001</ele>
        <time>2023-11-23T09:34:27.000Z</time>
      </trkpt>
      <trkpt lat="45.83469" lon="4.73723">
        <ele>301.26361</ele>
        <time>2023-11-23T09:34:28.000Z</time>
      </trkpt>
      <trkpt lat="45.83466" lon="4.73724">
        <ele>301.44409</ele>
        <time>2023-11-23T09:34:29.000Z</time>
      </trkpt>
      <trkpt lat="45.83463" lon="4.73724">
        <ele>301.62906</ele>
        <time>2023-11-23T09:34:30.000Z</time>
      </trkpt>
      <trkpt lat="45.8346" lon="4.73724">
        <ele>301.78638</ele>
        <time>2023-11-23T09:34:31.000Z</time>
      </trkpt>
      <trkpt lat="45.83457" lon="4.73725">
        <ele>301.97415</ele>
        <time>2023-11-23T09:34:32.000Z</time>
      </trkpt>
      <trkpt lat="45.83454" lon="4.73725">
        <ele>302.21429</ele>
        <time>2023-11-23T09:34:33.000Z</time>
      </trkpt>
      <trkpt lat="45.83451" lon="4.73726">
        <ele>302.444</ele>
        <time>2023-11-23T09:34:34.000Z</time>
      </trkpt>
      <trkpt lat="45.83448" lon="4.73727">
        <ele>302.85165</ele>
        <time>2023-11-23T09:34:35.000Z</time>
      </trkpt>
      <trkpt lat="45.83444" lon="4.73727">
        <ele>303.26819</ele>
        <time>2023-11-23T09:34:36.000Z</time>
      </trkpt>
      <trkpt lat="45.83441" lon="4.73727">
        <ele>303.41864</ele>
        <time>2023-11-23T09:34:37.000Z</time>
      </trkpt>
      <trkpt lat="45.83438" lon="4.73727">
        <ele>303.59589</ele>
        <time>2023-11-23T09:34:38.000Z</time>
      </trkpt>
      <trkpt lat="45.83435" lon="4.73727">
        <ele>303.81177</ele>
        <time>2023-11-23T09:34:39.000Z</time>
      </trkpt>
      <trkpt lat="45.83431" lon="4.73727">
        <ele>303.95355</ele>
        <time>2023-11-23T09:34:40.000Z</time>
      </trkpt>
      <trkpt lat="45.83428" lon="4.73727">
        <ele>304.07721</ele>
        <time>2023-11-23T09:34:41.000Z</time>
      </trkpt>
      <trkpt lat="45.83425" lon="4.73727">
        <ele>304.14307</ele>
        <time>2023-11-23T09:34:42.000Z</time>
      </trkpt>
      <trkpt lat="45.83422" lon="4.73727">
        <ele>304.35785</ele>
        <time>2023-11-23T09:34:43.000Z</time>
      </trkpt>
      <trkpt lat="45.83419" lon="4.73727">
        <ele>304.29761</ele>
        <time>2023-11-23T09:34:44.000Z</time>
      </trkpt>
      <trkpt lat="45.83415" lon="4.73727">
        <ele>304.43698</ele>
        <time>2023-11-23T09:34:45.000Z</time>
      </trkpt>
      <trkpt lat="45.83412" lon="4.73727">
        <ele>304.21011</ele>
        <time>2023-11-23T09:34:46.000Z</time>
      </trkpt>
      <trkpt lat="45.83409" lon="4.73727">
        <ele>303.98926</ele>
        <time>2023-11-23T09:34:47.000Z</time>
      </trkpt>
      <trkpt lat="45.83406" lon="4.73727">
        <ele>303.75128</ele>
        <time>2023-11-23T09:34:48.000Z</time>
      </trkpt>
      <trkpt lat="45.83403" lon="4.73728">
        <ele>303.74335</ele>
        <time>2023-11-23T09:34:49.000Z</time>
      </trkpt>
      <trkpt lat="45.834" lon="4.73728">
        <ele>303.67609</ele>
        <time>2023-11-23T09:34:50.000Z</time>
      </trkpt>
      <trkpt lat="45.83396" lon="4.73729">
        <ele>303.62842</ele>
        <time>2023-11-23T09:34:51.000Z</time>
      </trkpt>
      <trkpt lat="45.83393" lon="4.7373">
        <ele>303.5484</ele>
        <time>2023-11-23T09:34:52.000Z</time>
      </trkpt>
      <trkpt lat="45.8339" lon="4.7373">
        <ele>303.33478</ele>
        <time>2023-11-23T09:34:53.000Z</time>
      </trkpt>
      <trkpt lat="45.83387" lon="4.73731">
        <ele>303.1185</ele>
        <time>2023-11-23T09:34:54.000Z</time>
      </trkpt>
      <trkpt lat="45.83384" lon="4.73732">
        <ele>302.87125</ele>
        <time>2023-11-23T09:34:55.000Z</time>
      </trkpt>
      <trkpt lat="45.83381" lon="4.73732">
        <ele>302.62122</ele>
        <time>2023-11-23T09:34:56.000Z</time>
      </trkpt>
      <trkpt lat="45.83378" lon="4.73732">
        <ele>302.6387</ele>
        <time>2023-11-23T09:34:57.000Z</time>
      </trkpt>
      <trkpt lat="45.83375" lon="4.73733">
        <ele>302.6402</ele>
        <time>2023-11-23T09:34:58.000Z</time>
      </trkpt>
      <trkpt lat="45.83372" lon="4.73733">
        <ele>302.61276</ele>
        <time>2023-11-23T09:34:59.000Z</time>
      </trkpt>
      <trkpt lat="45.83369" lon="4.73733">
        <ele>302.59338</ele>
        <time>2023-11-23T09:35:00.000Z</time>
      </trkpt>
      <trkpt lat="45.83365" lon="4.73733">
        <ele>302.55872</ele>
        <time>2023-11-23T09:35:01.000Z</time>
      </trkpt>
      <trkpt lat="45.83362" lon="4.73733">
        <ele>302.55487</ele>
        <time>2023-11-23T09:35:02.000Z</time>
      </trkpt>
      <trkpt lat="45.83359" lon="4.73733">
        <ele>302.22476</ele>
        <time>2023-11-23T09:35:03.000Z</time>
      </trkpt>
      <trkpt lat="45.83356" lon="4.73733">
        <ele>302.1521</ele>
        <time>2023-11-23T09:35:04.000Z</time>
      </trkpt>
      <trkpt lat="45.83353" lon="4.73732">
        <ele>302.04437</ele>
        <time>2023-11-23T09:35:05.000Z</time>
      </trkpt>
      <trkpt lat="45.8335" lon="4.73732">
        <ele>302.08514</ele>
        <time>2023-11-23T09:35:06.000Z</time>
      </trkpt>
      <trkpt lat="45.83347" lon="4.73733">
        <ele>302.10992</ele>
        <time>2023-11-23T09:35:07.000Z</time>
      </trkpt>
      <trkpt lat="45.83344" lon="4.73733">
        <ele>302.27997</ele>
        <time>2023-11-23T09:35:08.000Z</time>
      </trkpt>
      <trkpt lat="45.83341" lon="4.73733">
        <ele>302.25464</ele>
        <time>2023-11-23T09:35:09.000Z</time>
      </trkpt>
      <trkpt lat="45.83338" lon="4.73734">
        <ele>302.26111</ele>
        <time>2023-11-23T09:35:10.000Z</time>
      </trkpt>
      <trkpt lat="45.83335" lon="4.73735">
        <ele>302.22665</ele>
        <time>2023-11-23T09:35:11.000Z</time>
      </trkpt>
      <trkpt lat="45.83331" lon="4.73736">
        <ele>302.2326</ele>
        <time>2023-11-23T09:35:12.000Z</time>
      </trkpt>
      <trkpt lat="45.83329" lon="4.73737">
        <ele>302.23203</ele>
        <time>2023-11-23T09:35:13.000Z</time>
      </trkpt>
      <trkpt lat="45.83326" lon="4.73737">
        <ele>302.2294</ele>
        <time>2023-11-23T09:35:14.000Z</time>
      </trkpt>
      <trkpt lat="45.83323" lon="4.73738">
        <ele>302.18869</ele>
        <time>2023-11-23T09:35:15.000Z</time>
      </trkpt>
      <trkpt lat="45.8332" lon="4.73739">
        <ele>302.12772</ele>
        <time>2023-11-23T09:35:16.000Z</time>
      </trkpt>
      <trkpt lat="45.83317" lon="4.7374">
        <ele>302.05508</ele>
        <time>2023-11-23T09:35:17.000Z</time>
      </trkpt>
      <trkpt lat="45.83314" lon="4.7374">
        <ele>301.99429</ele>
        <time>2023-11-23T09:35:18.000Z</time>
      </trkpt>
      <trkpt lat="45.83311" lon="4.73741">
        <ele>301.96112</ele>
        <time>2023-11-23T09:35:19.000Z</time>
      </trkpt>
      <trkpt lat="45.83308" lon="4.73741">
        <ele>301.92511</ele>
        <time>2023-11-23T09:35:20.000Z</time>
      </trkpt>
      <trkpt lat="45.83305" lon="4.73741">
        <ele>301.90744</ele>
        <time>2023-11-23T09:35:21.000Z</time>
      </trkpt>
      <trkpt lat="45.83302" lon="4.73742">
        <ele>301.88672</ele>
        <time>2023-11-23T09:35:22.000Z</time>
      </trkpt>
      <trkpt lat="45.83299" lon="4.73742">
        <ele>302.0376</ele>
        <time>2023-11-23T09:35:23.000Z</time>
      </trkpt>
      <trkpt lat="45.83296" lon="4.73743">
        <ele>302.12476</ele>
        <time>2023-11-23T09:35:24.000Z</time>
      </trkpt>
      <trkpt lat="45.83293" lon="4.73742">
        <ele>302.13239</ele>
        <time>2023-11-23T09:35:25.000Z</time>
      </trkpt>
      <trkpt lat="45.83289" lon="4.73742">
        <ele>302.12796</ele>
        <time>2023-11-23T09:35:26.000Z</time>
      </trkpt>
      <trkpt lat="45.83286" lon="4.73742">
        <ele>302.10605</ele>
        <time>2023-11-23T09:35:27.000Z</time>
      </trkpt>
      <trkpt lat="45.83282" lon="4.73741">
        <ele>301.89618</ele>
        <time>2023-11-23T09:35:28.000Z</time>
      </trkpt>
      <trkpt lat="45.83278" lon="4.73741">
        <ele>301.70282</ele>
        <time>2023-11-23T09:35:29.000Z</time>
      </trkpt>
      <trkpt lat="45.83275" lon="4.73742">
        <ele>301.4866</ele>
        <time>2023-11-23T09:35:30.000Z</time>
      </trkpt>
      <trkpt lat="45.83272" lon="4.73742">
        <ele>301.30487</ele>
        <time>2023-11-23T09:35:31.000Z</time>
      </trkpt>
      <trkpt lat="45.8327" lon="4.73742">
        <ele>301.1048</ele>
        <time>2023-11-23T09:35:32.000Z</time>
      </trkpt>
      <trkpt lat="45.83267" lon="4.73742">
        <ele>300.90527</ele>
        <time>2023-11-23T09:35:33.000Z</time>
      </trkpt>
      <trkpt lat="45.83265" lon="4.73742">
        <ele>300.71405</ele>
        <time>2023-11-23T09:35:34.000Z</time>
      </trkpt>
      <trkpt lat="45.83262" lon="4.73742">
        <ele>300.57181</ele>
        <time>2023-11-23T09:35:35.000Z</time>
      </trkpt>
      <trkpt lat="45.83259" lon="4.73742">
        <ele>300.46265</ele>
        <time>2023-11-23T09:35:36.000Z</time>
      </trkpt>
      <trkpt lat="45.83256" lon="4.73742">
        <ele>300.33783</ele>
        <time>2023-11-23T09:35:37.000Z</time>
      </trkpt>
      <trkpt lat="45.83254" lon="4.73742">
        <ele>300.21634</ele>
        <time>2023-11-23T09:35:38.000Z</time>
      </trkpt>
      <trkpt lat="45.83252" lon="4.73742">
        <ele>300.08002</ele>
        <time>2023-11-23T09:35:39.000Z</time>
      </trkpt>
      <trkpt lat="45.83249" lon="4.73742">
        <ele>299.99176</ele>
        <time>2023-11-23T09:35:40.000Z</time>
      </trkpt>
      <trkpt lat="45.83247" lon="4.73741">
        <ele>299.87466</ele>
        <time>2023-11-23T09:35:41.000Z</time>
      </trkpt>
      <trkpt lat="45.83244" lon="4.73741">
        <ele>299.75043</ele>
        <time>2023-11-23T09:35:42.000Z</time>
      </trkpt>
      <trkpt lat="45.83242" lon="4.73742">
        <ele>299.61356</ele>
        <time>2023-11-23T09:35:43.000Z</time>
      </trkpt>
      <trkpt lat="45.83239" lon="4.73741">
        <ele>299.55463</ele>
        <time>2023-11-23T09:35:44.000Z</time>
      </trkpt>
      <trkpt lat="45.83237" lon="4.73741">
        <ele>299.50882</ele>
        <time>2023-11-23T09:35:45.000Z</time>
      </trkpt>
      <trkpt lat="45.83234" lon="4.7374">
        <ele>299.53131</ele>
        <time>2023-11-23T09:35:46.000Z</time>
      </trkpt>
      <trkpt lat="45.83232" lon="4.73739">
        <ele>299.57733</ele>
        <time>2023-11-23T09:35:47.000Z</time>
      </trkpt>
      <trkpt lat="45.83229" lon="4.73739">
        <ele>299.70004</ele>
        <time>2023-11-23T09:35:48.000Z</time>
      </trkpt>
      <trkpt lat="45.83226" lon="4.73738">
        <ele>299.77219</ele>
        <time>2023-11-23T09:35:49.000Z</time>
      </trkpt>
      <trkpt lat="45.83223" lon="4.73739">
        <ele>299.8786</ele>
        <time>2023-11-23T09:35:50.000Z</time>
      </trkpt>
      <trkpt lat="45.8322" lon="4.73739">
        <ele>299.98605</ele>
        <time>2023-11-23T09:35:51.000Z</time>
      </trkpt>
      <trkpt lat="45.83217" lon="4.73739">
        <ele>300.1059</ele>
        <time>2023-11-23T09:35:52.000Z</time>
      </trkpt>
      <trkpt lat="45.83214" lon="4.7374">
        <ele>300.24738</ele>
        <time>2023-11-23T09:35:53.000Z</time>
      </trkpt>
      <trkpt lat="45.83211" lon="4.73741">
        <ele>300.37335</ele>
        <time>2023-11-23T09:35:54.000Z</time>
      </trkpt>
      <trkpt lat="45.83209" lon="4.73741">
        <ele>300.49109</ele>
        <time>2023-11-23T09:35:55.000Z</time>
      </trkpt>
      <trkpt lat="45.83206" lon="4.73742">
        <ele>300.58893</ele>
        <time>2023-11-23T09:35:56.000Z</time>
      </trkpt>
      <trkpt lat="45.83203" lon="4.73742">
        <ele>300.737</ele>
        <time>2023-11-23T09:35:57.000Z</time>
      </trkpt>
      <trkpt lat="45.832" lon="4.73742">
        <ele>300.91016</ele>
        <time>2023-11-23T09:35:58.000Z</time>
      </trkpt>
      <trkpt lat="45.83198" lon="4.73743">
        <ele>301.06839</ele>
        <time>2023-11-23T09:35:59.000Z</time>
      </trkpt>
      <trkpt lat="45.83195" lon="4.73743">
        <ele>301.20212</ele>
        <time>2023-11-23T09:36:00.000Z</time>
      </trkpt>
      <trkpt lat="45.83192" lon="4.73743">
        <ele>301.36041</ele>
        <time>2023-11-23T09:36:01.000Z</time>
      </trkpt>
      <trkpt lat="45.83189" lon="4.73743">
        <ele>301.5238</ele>
        <time>2023-11-23T09:36:02.000Z</time>
      </trkpt>
      <trkpt lat="45.83186" lon="4.73743">
        <ele>301.73489</ele>
        <time>2023-11-23T09:36:03.000Z</time>
      </trkpt>
      <trkpt lat="45.83183" lon="4.73742">
        <ele>301.95721</ele>
        <time>2023-11-23T09:36:04.000Z</time>
      </trkpt>
      <trkpt lat="45.83181" lon="4.73742">
        <ele>302.26715</ele>
        <time>2023-11-23T09:36:05.000Z</time>
      </trkpt>
      <trkpt lat="45.83178" lon="4.73741">
        <ele>302.45316</ele>
        <time>2023-11-23T09:36:06.000Z</time>
      </trkpt>
      <trkpt lat="45.83175" lon="4.73741">
        <ele>302.6676</ele>
        <time>2023-11-23T09:36:07.000Z</time>
      </trkpt>
      <trkpt lat="45.83172" lon="4.7374">
        <ele>302.85141</ele>
        <time>2023-11-23T09:36:08.000Z</time>
      </trkpt>
      <trkpt lat="45.83169" lon="4.7374">
        <ele>303.04984</ele>
        <time>2023-11-23T09:36:09.000Z</time>
      </trkpt>
      <trkpt lat="45.83166" lon="4.7374">
        <ele>303.25299</ele>
        <time>2023-11-23T09:36:10.000Z</time>
      </trkpt>
      <trkpt lat="45.83163" lon="4.7374">
        <ele>303.47906</ele>
        <time>2023-11-23T09:36:11.000Z</time>
      </trkpt>
      <trkpt lat="45.83159" lon="4.7374">
        <ele>303.7196</ele>
        <time>2023-11-23T09:36:12.000Z</time>
      </trkpt>
      <trkpt lat="45.83157" lon="4.7374">
        <ele>303.91699</ele>
        <time>2023-11-23T09:36:13.000Z</time>
      </trkpt>
      <trkpt lat="45.83154" lon="4.73739">
        <ele>304.10883</ele>
        <time>2023-11-23T09:36:14.000Z</time>
      </trkpt>
      <trkpt lat="45.83151" lon="4.73739">
        <ele>304.29019</ele>
        <time>2023-11-23T09:36:15.000Z</time>
      </trkpt>
      <trkpt lat="45.83148" lon="4.73739">
        <ele>304.69928</ele>
        <time>2023-11-23T09:36:16.000Z</time>
      </trkpt>
      <trkpt lat="45.83145" lon="4.73739">
        <ele>305.13681</ele>
        <time>2023-11-23T09:36:17.000Z</time>
      </trkpt>
      <trkpt lat="45.83142" lon="4.73739">
        <ele>305.5611</ele>
        <time>2023-11-23T09:36:18.000Z</time>
      </trkpt>
      <trkpt lat="45.83139" lon="4.73739">
        <ele>305.82434</ele>
        <time>2023-11-23T09:36:19.000Z</time>
      </trkpt>
      <trkpt lat="45.83137" lon="4.73739">
        <ele>306.10806</ele>
        <time>2023-11-23T09:36:20.000Z</time>
      </trkpt>
      <trkpt lat="45.83133" lon="4.73738">
        <ele>306.36075</ele>
        <time>2023-11-23T09:36:21.000Z</time>
      </trkpt>
      <trkpt lat="45.83131" lon="4.73738">
        <ele>306.63458</ele>
        <time>2023-11-23T09:36:22.000Z</time>
      </trkpt>
      <trkpt lat="45.83128" lon="4.73738">
        <ele>306.83859</ele>
        <time>2023-11-23T09:36:23.000Z</time>
      </trkpt>
      <trkpt lat="45.83125" lon="4.73738">
        <ele>307.03476</ele>
        <time>2023-11-23T09:36:24.000Z</time>
      </trkpt>
      <trkpt lat="45.83123" lon="4.73739">
        <ele>307.18948</ele>
        <time>2023-11-23T09:36:25.000Z</time>
      </trkpt>
      <trkpt lat="45.8312" lon="4.73739">
        <ele>307.53699</ele>
        <time>2023-11-23T09:36:26.000Z</time>
      </trkpt>
      <trkpt lat="45.83117" lon="4.73738">
        <ele>307.85947</ele>
        <time>2023-11-23T09:36:27.000Z</time>
      </trkpt>
      <trkpt lat="45.83114" lon="4.73738">
        <ele>308.17825</ele>
        <time>2023-11-23T09:36:28.000Z</time>
      </trkpt>
      <trkpt lat="45.83111" lon="4.73738">
        <ele>308.51349</ele>
        <time>2023-11-23T09:36:29.000Z</time>
      </trkpt>
      <trkpt lat="45.83108" lon="4.73738">
        <ele>308.63815</ele>
        <time>2023-11-23T09:36:30.000Z</time>
      </trkpt>
      <trkpt lat="45.83105" lon="4.73738">
        <ele>308.72321</ele>
        <time>2023-11-23T09:36:31.000Z</time>
      </trkpt>
      <trkpt lat="45.83103" lon="4.73738">
        <ele>308.7894</ele>
        <time>2023-11-23T09:36:32.000Z</time>
      </trkpt>
      <trkpt lat="45.831" lon="4.73738">
        <ele>308.91159</ele>
        <time>2023-11-23T09:36:33.000Z</time>
      </trkpt>
      <trkpt lat="45.83097" lon="4.73738">
        <ele>309.01337</ele>
        <time>2023-11-23T09:36:34.000Z</time>
      </trkpt>
      <trkpt lat="45.83094" lon="4.73738">
        <ele>309.13177</ele>
        <time>2023-11-23T09:36:35.000Z</time>
      </trkpt>
      <trkpt lat="45.83091" lon="4.73738">
        <ele>309.03247</ele>
        <time>2023-11-23T09:36:36.000Z</time>
      </trkpt>
      <trkpt lat="45.83088" lon="4.73738">
        <ele>308.88235</ele>
        <time>2023-11-23T09:36:37.000Z</time>
      </trkpt>
      <trkpt lat="45.83086" lon="4.73738">
        <ele>308.75299</ele>
        <time>2023-11-23T09:36:38.000Z</time>
      </trkpt>
      <trkpt lat="45.83083" lon="4.73737">
        <ele>308.79306</ele>
        <time>2023-11-23T09:36:39.000Z</time>
      </trkpt>
      <trkpt lat="45.83082" lon="4.73737">
        <ele>308.80801</ele>
        <time>2023-11-23T09:36:40.000Z</time>
      </trkpt>
      <trkpt lat="45.83079" lon="4.73737">
        <ele>308.85794</ele>
        <time>2023-11-23T09:36:41.000Z</time>
      </trkpt>
      <trkpt lat="45.83077" lon="4.73737">
        <ele>308.91071</ele>
        <time>2023-11-23T09:36:42.000Z</time>
      </trkpt>
      <trkpt lat="45.83074" lon="4.73737">
        <ele>308.98956</ele>
        <time>2023-11-23T09:36:43.000Z</time>
      </trkpt>
      <trkpt lat="45.83071" lon="4.73737">
        <ele>309.07007</ele>
        <time>2023-11-23T09:36:44.000Z</time>
      </trkpt>
      <trkpt lat="45.83068" lon="4.73737">
        <ele>309.21518</ele>
        <time>2023-11-23T09:36:45.000Z</time>
      </trkpt>
      <trkpt lat="45.83065" lon="4.73737">
        <ele>309.24713</ele>
        <time>2023-11-23T09:36:46.000Z</time>
      </trkpt>
      <trkpt lat="45.83063" lon="4.73737">
        <ele>309.26007</ele>
        <time>2023-11-23T09:36:47.000Z</time>
      </trkpt>
      <trkpt lat="45.8306" lon="4.73737">
        <ele>309.26373</ele>
        <time>2023-11-23T09:36:48.000Z</time>
      </trkpt>
      <trkpt lat="45.83058" lon="4.73737">
        <ele>309.25568</ele>
        <time>2023-11-23T09:36:49.000Z</time>
      </trkpt>
      <trkpt lat="45.83055" lon="4.73737">
        <ele>309.44101</ele>
        <time>2023-11-23T09:36:50.000Z</time>
      </trkpt>
      <trkpt lat="45.83053" lon="4.73737">
        <ele>309.66272</ele>
        <time>2023-11-23T09:36:51.000Z</time>
      </trkpt>
      <trkpt lat="45.8305" lon="4.73737">
        <ele>309.88037</ele>
        <time>2023-11-23T09:36:52.000Z</time>
      </trkpt>
      <trkpt lat="45.83047" lon="4.73737">
        <ele>310.04715</ele>
        <time>2023-11-23T09:36:53.000Z</time>
      </trkpt>
      <trkpt lat="45.83044" lon="4.73737">
        <ele>310.26373</ele>
        <time>2023-11-23T09:36:54.000Z</time>
      </trkpt>
      <trkpt lat="45.83041" lon="4.73736">
        <ele>310.46082</ele>
        <time>2023-11-23T09:36:55.000Z</time>
      </trkpt>
      <trkpt lat="45.83038" lon="4.73736">
        <ele>310.62946</ele>
        <time>2023-11-23T09:36:56.000Z</time>
      </trkpt>
      <trkpt lat="45.83035" lon="4.73736">
        <ele>310.84692</ele>
        <time>2023-11-23T09:36:57.000Z</time>
      </trkpt>
      <trkpt lat="45.83033" lon="4.73736">
        <ele>311.0412</ele>
        <time>2023-11-23T09:36:58.000Z</time>
      </trkpt>
      <trkpt lat="45.8303" lon="4.73737">
        <ele>311.23419</ele>
        <time>2023-11-23T09:36:59.000Z</time>
      </trkpt>
      <trkpt lat="45.83027" lon="4.73736">
        <ele>311.42664</ele>
        <time>2023-11-23T09:37:00.000Z</time>
      </trkpt>
      <trkpt lat="45.83024" lon="4.73736">
        <ele>311.61551</ele>
        <time>2023-11-23T09:37:01.000Z</time>
      </trkpt>
      <trkpt lat="45.83021" lon="4.73735">
        <ele>311.7764</ele>
        <time>2023-11-23T09:37:02.000Z</time>
      </trkpt>
      <trkpt lat="45.83018" lon="4.73735">
        <ele>311.99341</ele>
        <time>2023-11-23T09:37:03.000Z</time>
      </trkpt>
      <trkpt lat="45.83016" lon="4.73734">
        <ele>312.17474</ele>
        <time>2023-11-23T09:37:04.000Z</time>
      </trkpt>
      <trkpt lat="45.83013" lon="4.73734">
        <ele>312.32745</ele>
        <time>2023-11-23T09:37:05.000Z</time>
      </trkpt>
      <trkpt lat="45.8301" lon="4.73735">
        <ele>312.45999</ele>
        <time>2023-11-23T09:37:06.000Z</time>
      </trkpt>
      <trkpt lat="45.83007" lon="4.73735">
        <ele>312.62033</ele>
        <time>2023-11-23T09:37:07.000Z</time>
      </trkpt>
      <trkpt lat="45.83005" lon="4.73735">
        <ele>312.79221</ele>
        <time>2023-11-23T09:37:08.000Z</time>
      </trkpt>
      <trkpt lat="45.83002" lon="4.73735">
        <ele>312.9675</ele>
        <time>2023-11-23T09:37:09.000Z</time>
      </trkpt>
      <trkpt lat="45.82999" lon="4.73735">
        <ele>313.16339</ele>
        <time>2023-11-23T09:37:10.000Z</time>
      </trkpt>
      <trkpt lat="45.82996" lon="4.73734">
        <ele>313.3465</ele>
        <time>2023-11-23T09:37:11.000Z</time>
      </trkpt>
      <trkpt lat="45.82994" lon="4.73734">
        <ele>313.58456</ele>
        <time>2023-11-23T09:37:12.000Z</time>
      </trkpt>
      <trkpt lat="45.82992" lon="4.73733">
        <ele>313.80396</ele>
        <time>2023-11-23T09:37:13.000Z</time>
      </trkpt>
      <trkpt lat="45.82989" lon="4.73733">
        <ele>314.008</ele>
        <time>2023-11-23T09:37:14.000Z</time>
      </trkpt>
      <trkpt lat="45.82986" lon="4.73733">
        <ele>314.27435</ele>
        <time>2023-11-23T09:37:15.000Z</time>
      </trkpt>
      <trkpt lat="45.82983" lon="4.73733">
        <ele>314.54486</ele>
        <time>2023-11-23T09:37:16.000Z</time>
      </trkpt>
      <trkpt lat="45.8298" lon="4.73733">
        <ele>314.78519</ele>
        <time>2023-11-23T09:37:17.000Z</time>
      </trkpt>
      <trkpt lat="45.82977" lon="4.73732">
        <ele>315.02115</ele>
        <time>2023-11-23T09:37:18.000Z</time>
      </trkpt>
      <trkpt lat="45.82974" lon="4.73733">
        <ele>315.26242</ele>
        <time>2023-11-23T09:37:19.000Z</time>
      </trkpt>
      <trkpt lat="45.82971" lon="4.73733">
        <ele>315.492</ele>
        <time>2023-11-23T09:37:20.000Z</time>
      </trkpt>
      <trkpt lat="45.82969" lon="4.73733">
        <ele>315.71652</ele>
        <time>2023-11-23T09:37:21.000Z</time>
      </trkpt>
      <trkpt lat="45.82966" lon="4.73733">
        <ele>315.8985</ele>
        <time>2023-11-23T09:37:22.000Z</time>
      </trkpt>
      <trkpt lat="45.82964" lon="4.73733">
        <ele>316.00778</ele>
        <time>2023-11-23T09:37:23.000Z</time>
      </trkpt>
      <trkpt lat="45.82961" lon="4.73733">
        <ele>316.13077</ele>
        <time>2023-11-23T09:37:24.000Z</time>
      </trkpt>
      <trkpt lat="45.82959" lon="4.73732">
        <ele>316.20862</ele>
        <time>2023-11-23T09:37:25.000Z</time>
      </trkpt>
      <trkpt lat="45.82956" lon="4.73732">
        <ele>316.27783</ele>
        <time>2023-11-23T09:37:26.000Z</time>
      </trkpt>
      <trkpt lat="45.82954" lon="4.73731">
        <ele>316.39621</ele>
        <time>2023-11-23T09:37:27.000Z</time>
      </trkpt>
      <trkpt lat="45.82952" lon="4.73731">
        <ele>316.51923</ele>
        <time>2023-11-23T09:37:28.000Z</time>
      </trkpt>
      <trkpt lat="45.82949" lon="4.73731">
        <ele>316.65005</ele>
        <time>2023-11-23T09:37:29.000Z</time>
      </trkpt>
      <trkpt lat="45.82946" lon="4.73731">
        <ele>316.76776</ele>
        <time>2023-11-23T09:37:30.000Z</time>
      </trkpt>
      <trkpt lat="45.82943" lon="4.73731">
        <ele>316.89374</ele>
        <time>2023-11-23T09:37:31.000Z</time>
      </trkpt>
      <trkpt lat="45.8294" lon="4.73731">
        <ele>316.99506</ele>
        <time>2023-11-23T09:37:32.000Z</time>
      </trkpt>
      <trkpt lat="45.82938" lon="4.7373">
        <ele>317.13031</ele>
        <time>2023-11-23T09:37:33.000Z</time>
      </trkpt>
      <trkpt lat="45.82934" lon="4.7373">
        <ele>317.29568</ele>
        <time>2023-11-23T09:37:34.000Z</time>
      </trkpt>
      <trkpt lat="45.82931" lon="4.7373">
        <ele>317.3887</ele>
        <time>2023-11-23T09:37:35.000Z</time>
      </trkpt>
      <trkpt lat="45.82928" lon="4.7373">
        <ele>317.4678</ele>
        <time>2023-11-23T09:37:36.000Z</time>
      </trkpt>
      <trkpt lat="45.82925" lon="4.73729">
        <ele>317.4776</ele>
        <time>2023-11-23T09:37:37.000Z</time>
      </trkpt>
      <trkpt lat="45.82922" lon="4.73729">
        <ele>317.49362</ele>
        <time>2023-11-23T09:37:38.000Z</time>
      </trkpt>
      <trkpt lat="45.82919" lon="4.73728">
        <ele>317.47867</ele>
        <time>2023-11-23T09:37:39.000Z</time>
      </trkpt>
      <trkpt lat="45.82916" lon="4.73728">
        <ele>317.57684</ele>
        <time>2023-11-23T09:37:40.000Z</time>
      </trkpt>
      <trkpt lat="45.82913" lon="4.73728">
        <ele>317.6506</ele>
        <time>2023-11-23T09:37:41.000Z</time>
      </trkpt>
      <trkpt lat="45.8291" lon="4.73728">
        <ele>317.7619</ele>
        <time>2023-11-23T09:37:42.000Z</time>
      </trkpt>
      <trkpt lat="45.82907" lon="4.73728">
        <ele>317.87823</ele>
        <time>2023-11-23T09:37:43.000Z</time>
      </trkpt>
      <trkpt lat="45.82904" lon="4.73728">
        <ele>318.01605</ele>
        <time>2023-11-23T09:37:44.000Z</time>
      </trkpt>
      <trkpt lat="45.82901" lon="4.73728">
        <ele>318.15765</ele>
        <time>2023-11-23T09:37:45.000Z</time>
      </trkpt>
      <trkpt lat="45.82899" lon="4.73728">
        <ele>318.32471</ele>
        <time>2023-11-23T09:37:46.000Z</time>
      </trkpt>
      <trkpt lat="45.82896" lon="4.73727">
        <ele>318.38849</ele>
        <time>2023-11-23T09:37:47.000Z</time>
      </trkpt>
      <trkpt lat="45.82893" lon="4.73727">
        <ele>318.45361</ele>
        <time>2023-11-23T09:37:48.000Z</time>
      </trkpt>
      <trkpt lat="45.8289" lon="4.73727">
        <ele>318.49173</ele>
        <time>2023-11-23T09:37:49.000Z</time>
      </trkpt>
      <trkpt lat="45.82887" lon="4.73727">
        <ele>318.53424</ele>
        <time>2023-11-23T09:37:50.000Z</time>
      </trkpt>
      <trkpt lat="45.82885" lon="4.73726">
        <ele>318.56836</ele>
        <time>2023-11-23T09:37:51.000Z</time>
      </trkpt>
      <trkpt lat="45.82882" lon="4.73726">
        <ele>318.5773</ele>
        <time>2023-11-23T09:37:52.000Z</time>
      </trkpt>
      <trkpt lat="45.8288" lon="4.73726">
        <ele>318.58493</ele>
        <time>2023-11-23T09:37:53.000Z</time>
      </trkpt>
      <trkpt lat="45.82877" lon="4.73726">
        <ele>318.55048</ele>
        <time>2023-11-23T09:37:54.000Z</time>
      </trkpt>
      <trkpt lat="45.82874" lon="4.73725">
        <ele>318.53775</ele>
        <time>2023-11-23T09:37:55.000Z</time>
      </trkpt>
      <trkpt lat="45.82871" lon="4.73725">
        <ele>318.51968</ele>
        <time>2023-11-23T09:37:56.000Z</time>
      </trkpt>
      <trkpt lat="45.82868" lon="4.73725">
        <ele>318.55252</ele>
        <time>2023-11-23T09:37:57.000Z</time>
      </trkpt>
      <trkpt lat="45.82865" lon="4.73726">
        <ele>318.55945</ele>
        <time>2023-11-23T09:37:58.000Z</time>
      </trkpt>
      <trkpt lat="45.82862" lon="4.73726">
        <ele>318.72003</ele>
        <time>2023-11-23T09:37:59.000Z</time>
      </trkpt>
      <trkpt lat="45.82859" lon="4.73726">
        <ele>318.77737</ele>
        <time>2023-11-23T09:38:00.000Z</time>
      </trkpt>
      <trkpt lat="45.82857" lon="4.73726">
        <ele>318.86264</ele>
        <time>2023-11-23T09:38:01.000Z</time>
      </trkpt>
      <trkpt lat="45.82854" lon="4.73726">
        <ele>318.94644</ele>
        <time>2023-11-23T09:38:02.000Z</time>
      </trkpt>
      <trkpt lat="45.82851" lon="4.73726">
        <ele>319.05109</ele>
        <time>2023-11-23T09:38:03.000Z</time>
      </trkpt>
      <trkpt lat="45.82848" lon="4.73726">
        <ele>319.12726</ele>
        <time>2023-11-23T09:38:04.000Z</time>
      </trkpt>
      <trkpt lat="45.82845" lon="4.73726">
        <ele>319.2518</ele>
        <time>2023-11-23T09:38:05.000Z</time>
      </trkpt>
      <trkpt lat="45.82842" lon="4.73726">
        <ele>319.33566</ele>
        <time>2023-11-23T09:38:06.000Z</time>
      </trkpt>
      <trkpt lat="45.82839" lon="4.73725">
        <ele>319.46323</ele>
        <time>2023-11-23T09:38:07.000Z</time>
      </trkpt>
      <trkpt lat="45.82836" lon="4.73725">
        <ele>319.6012</ele>
        <time>2023-11-23T09:38:08.000Z</time>
      </trkpt>
      <trkpt lat="45.82833" lon="4.73725">
        <ele>319.76474</ele>
        <time>2023-11-23T09:38:09.000Z</time>
      </trkpt>
      <trkpt lat="45.82829" lon="4.73724">
        <ele>319.93402</ele>
        <time>2023-11-23T09:38:10.000Z</time>
      </trkpt>
      <trkpt lat="45.82826" lon="4.73724">
        <ele>320.11664</ele>
        <time>2023-11-23T09:38:11.000Z</time>
      </trkpt>
      <trkpt lat="45.82823" lon="4.73724">
        <ele>320.29666</ele>
        <time>2023-11-23T09:38:12.000Z</time>
      </trkpt>
      <trkpt lat="45.8282" lon="4.73723">
        <ele>320.49045</ele>
        <time>2023-11-23T09:38:13.000Z</time>
      </trkpt>
      <trkpt lat="45.82817" lon="4.73723">
        <ele>320.68582</ele>
        <time>2023-11-23T09:38:14.000Z</time>
      </trkpt>
      <trkpt lat="45.82814" lon="4.73723">
        <ele>320.88248</ele>
        <time>2023-11-23T09:38:15.000Z</time>
      </trkpt>
      <trkpt lat="45.82811" lon="4.73723">
        <ele>321.09698</ele>
        <time>2023-11-23T09:38:16.000Z</time>
      </trkpt>
      <trkpt lat="45.82808" lon="4.73723">
        <ele>321.30823</ele>
        <time>2023-11-23T09:38:17.000Z</time>
      </trkpt>
      <trkpt lat="45.82805" lon="4.73723">
        <ele>321.54523</ele>
        <time>2023-11-23T09:38:18.000Z</time>
      </trkpt>
      <trkpt lat="45.82802" lon="4.73723">
        <ele>321.66864</ele>
        <time>2023-11-23T09:38:19.000Z</time>
      </trkpt>
      <trkpt lat="45.82799" lon="4.73723">
        <ele>321.8067</ele>
        <time>2023-11-23T09:38:20.000Z</time>
      </trkpt>
      <trkpt lat="45.82796" lon="4.73723">
        <ele>321.97861</ele>
        <time>2023-11-23T09:38:21.000Z</time>
      </trkpt>
      <trkpt lat="45.82793" lon="4.73723">
        <ele>322.15619</ele>
        <time>2023-11-23T09:38:22.000Z</time>
      </trkpt>
      <trkpt lat="45.82791" lon="4.73723">
        <ele>322.31586</ele>
        <time>2023-11-23T09:38:23.000Z</time>
      </trkpt>
      <trkpt lat="45.82788" lon="4.73722">
        <ele>322.46384</ele>
        <time>2023-11-23T09:38:24.000Z</time>
      </trkpt>
      <trkpt lat="45.82786" lon="4.73722">
        <ele>322.59845</ele>
        <time>2023-11-23T09:38:25.000Z</time>
      </trkpt>
      <trkpt lat="45.82783" lon="4.73721">
        <ele>322.79556</ele>
        <time>2023-11-23T09:38:26.000Z</time>
      </trkpt>
      <trkpt lat="45.8278" lon="4.73721">
        <ele>322.98346</ele>
        <time>2023-11-23T09:38:27.000Z</time>
      </trkpt>
      <trkpt lat="45.82777" lon="4.73721">
        <ele>323.15576</ele>
        <time>2023-11-23T09:38:28.000Z</time>
      </trkpt>
      <trkpt lat="45.82775" lon="4.73721">
        <ele>323.35199</ele>
        <time>2023-11-23T09:38:29.000Z</time>
      </trkpt>
      <trkpt lat="45.82772" lon="4.73721">
        <ele>323.534</ele>
        <time>2023-11-23T09:38:30.000Z</time>
      </trkpt>
      <trkpt lat="45.82768" lon="4.7372">
        <ele>323.71661</ele>
        <time>2023-11-23T09:38:31.000Z</time>
      </trkpt>
      <trkpt lat="45.82765" lon="4.7372">
        <ele>323.90216</ele>
        <time>2023-11-23T09:38:32.000Z</time>
      </trkpt>
      <trkpt lat="45.82762" lon="4.7372">
        <ele>323.99841</ele>
        <time>2023-11-23T09:38:33.000Z</time>
      </trkpt>
      <trkpt lat="45.82759" lon="4.7372">
        <ele>324.11115</ele>
        <time>2023-11-23T09:38:34.000Z</time>
      </trkpt>
      <trkpt lat="45.82756" lon="4.7372">
        <ele>324.18497</ele>
        <time>2023-11-23T09:38:35.000Z</time>
      </trkpt>
      <trkpt lat="45.82753" lon="4.7372">
        <ele>324.25827</ele>
        <time>2023-11-23T09:38:36.000Z</time>
      </trkpt>
      <trkpt lat="45.8275" lon="4.7372">
        <ele>324.51813</ele>
        <time>2023-11-23T09:38:37.000Z</time>
      </trkpt>
      <trkpt lat="45.82747" lon="4.7372">
        <ele>324.74139</ele>
        <time>2023-11-23T09:38:38.000Z</time>
      </trkpt>
      <trkpt lat="45.82744" lon="4.7372">
        <ele>324.95392</ele>
        <time>2023-11-23T09:38:39.000Z</time>
      </trkpt>
      <trkpt lat="45.82741" lon="4.73721">
        <ele>325.17279</ele>
        <time>2023-11-23T09:38:40.000Z</time>
      </trkpt>
      <trkpt lat="45.82738" lon="4.7372">
        <ele>325.33087</ele>
        <time>2023-11-23T09:38:41.000Z</time>
      </trkpt>
      <trkpt lat="45.82735" lon="4.7372">
        <ele>325.5079</ele>
        <time>2023-11-23T09:38:42.000Z</time>
      </trkpt>
      <trkpt lat="45.82732" lon="4.7372">
        <ele>325.67303</ele>
        <time>2023-11-23T09:38:43.000Z</time>
      </trkpt>
      <trkpt lat="45.82729" lon="4.7372">
        <ele>325.86887</ele>
        <time>2023-11-23T09:38:44.000Z</time>
      </trkpt>
      <trkpt lat="45.82726" lon="4.73721">
        <ele>326.0799</ele>
        <time>2023-11-23T09:38:45.000Z</time>
      </trkpt>
      <trkpt lat="45.82723" lon="4.73721">
        <ele>326.27991</ele>
        <time>2023-11-23T09:38:46.000Z</time>
      </trkpt>
      <trkpt lat="45.8272" lon="4.73721">
        <ele>326.46109</ele>
        <time>2023-11-23T09:38:47.000Z</time>
      </trkpt>
      <trkpt lat="45.82717" lon="4.73721">
        <ele>326.63324</ele>
        <time>2023-11-23T09:38:48.000Z</time>
      </trkpt>
      <trkpt lat="45.82713" lon="4.73721">
        <ele>326.76999</ele>
        <time>2023-11-23T09:38:49.000Z</time>
      </trkpt>
      <trkpt lat="45.8271" lon="4.73721">
        <ele>326.89929</ele>
        <time>2023-11-23T09:38:50.000Z</time>
      </trkpt>
      <trkpt lat="45.82707" lon="4.73721">
        <ele>327.03558</ele>
        <time>2023-11-23T09:38:51.000Z</time>
      </trkpt>
      <trkpt lat="45.82704" lon="4.73721">
        <ele>327.18042</ele>
        <time>2023-11-23T09:38:52.000Z</time>
      </trkpt>
      <trkpt lat="45.82701" lon="4.73721">
        <ele>327.40659</ele>
        <time>2023-11-23T09:38:53.000Z</time>
      </trkpt>
      <trkpt lat="45.82698" lon="4.73721">
        <ele>327.63266</ele>
        <time>2023-11-23T09:38:54.000Z</time>
      </trkpt>
      <trkpt lat="45.82695" lon="4.73721">
        <ele>327.87128</ele>
        <time>2023-11-23T09:38:55.000Z</time>
      </trkpt>
      <trkpt lat="45.82692" lon="4.73721">
        <ele>328.10114</ele>
        <time>2023-11-23T09:38:56.000Z</time>
      </trkpt>
      <trkpt lat="45.82689" lon="4.73722">
        <ele>328.17474</ele>
        <time>2023-11-23T09:38:57.000Z</time>
      </trkpt>
      <trkpt lat="45.82686" lon="4.73722">
        <ele>328.29861</ele>
        <time>2023-11-23T09:38:58.000Z</time>
      </trkpt>
      <trkpt lat="45.82683" lon="4.73722">
        <ele>328.42734</ele>
        <time>2023-11-23T09:38:59.000Z</time>
      </trkpt>
      <trkpt lat="45.82681" lon="4.73722">
        <ele>328.53326</ele>
        <time>2023-11-23T09:39:00.000Z</time>
      </trkpt>
      <trkpt lat="45.82678" lon="4.73722">
        <ele>328.6778</ele>
        <time>2023-11-23T09:39:01.000Z</time>
      </trkpt>
      <trkpt lat="45.82675" lon="4.73722">
        <ele>328.64038</ele>
        <time>2023-11-23T09:39:02.000Z</time>
      </trkpt>
      <trkpt lat="45.82673" lon="4.73721">
        <ele>328.58405</ele>
        <time>2023-11-23T09:39:03.000Z</time>
      </trkpt>
      <trkpt lat="45.8267" lon="4.7372">
        <ele>328.72211</ele>
        <time>2023-11-23T09:39:04.000Z</time>
      </trkpt>
      <trkpt lat="45.82668" lon="4.73719">
        <ele>328.82562</ele>
        <time>2023-11-23T09:39:05.000Z</time>
      </trkpt>
      <trkpt lat="45.82666" lon="4.73719">
        <ele>328.93845</ele>
        <time>2023-11-23T09:39:06.000Z</time>
      </trkpt>
      <trkpt lat="45.82664" lon="4.73719">
        <ele>329.06958</ele>
        <time>2023-11-23T09:39:07.000Z</time>
      </trkpt>
      <trkpt lat="45.82662" lon="4.73719">
        <ele>329.1962</ele>
        <time>2023-11-23T09:39:08.000Z</time>
      </trkpt>
      <trkpt lat="45.82659" lon="4.73719">
        <ele>329.33658</ele>
        <time>2023-11-23T09:39:09.000Z</time>
      </trkpt>
      <trkpt lat="45.82656" lon="4.73718">
        <ele>329.47894</ele>
        <time>2023-11-23T09:39:11.000Z</time>
      </trkpt>
      <trkpt lat="45.82653" lon="4.73716">
        <ele>329.59491</ele>
        <time>2023-11-23T09:39:13.000Z</time>
      </trkpt>
      <trkpt lat="45.8265" lon="4.73718">
        <ele>329.64786</ele>
        <time>2023-11-23T09:39:56.000Z</time>
      </trkpt>
      <trkpt lat="45.82648" lon="4.73718">
        <ele>329.68896</ele>
        <time>2023-11-23T09:39:57.000Z</time>
      </trkpt>
      <trkpt lat="45.82646" lon="4.73718">
        <ele>329.70361</ele>
        <time>2023-11-23T09:39:58.000Z</time>
      </trkpt>
      <trkpt lat="45.82644" lon="4.73719">
        <ele>329.72928</ele>
        <time>2023-11-23T09:39:59.000Z</time>
      </trkpt>
      <trkpt lat="45.82642" lon="4.73719">
        <ele>329.76129</ele>
        <time>2023-11-23T09:40:00.000Z</time>
      </trkpt>
      <trkpt lat="45.8264" lon="4.73718">
        <ele>329.79962</ele>
        <time>2023-11-23T09:40:01.000Z</time>
      </trkpt>
      <trkpt lat="45.82638" lon="4.73718">
        <ele>329.81281</ele>
        <time>2023-11-23T09:40:02.000Z</time>
      </trkpt>
      <trkpt lat="45.82635" lon="4.73718">
        <ele>329.80417</ele>
        <time>2023-11-23T09:40:03.000Z</time>
      </trkpt>
      <trkpt lat="45.82633" lon="4.73717">
        <ele>329.80722</ele>
        <time>2023-11-23T09:40:04.000Z</time>
      </trkpt>
      <trkpt lat="45.8263" lon="4.73717">
        <ele>329.81332</ele>
        <time>2023-11-23T09:40:06.000Z</time>
      </trkpt>
      <trkpt lat="45.82628" lon="4.73717">
        <ele>329.87534</ele>
        <time>2023-11-23T09:40:07.000Z</time>
      </trkpt>
      <trkpt lat="45.82624" lon="4.73717">
        <ele>329.85376</ele>
        <time>2023-11-23T09:40:09.000Z</time>
      </trkpt>
      <trkpt lat="45.82621" lon="4.73717">
        <ele>329.83603</ele>
        <time>2023-11-23T09:40:10.000Z</time>
      </trkpt>
      <trkpt lat="45.82618" lon="4.73717">
        <ele>329.79041</ele>
        <time>2023-11-23T09:40:11.000Z</time>
      </trkpt>
      <trkpt lat="45.82615" lon="4.73717">
        <ele>329.71149</ele>
        <time>2023-11-23T09:40:12.000Z</time>
      </trkpt>
      <trkpt lat="45.82612" lon="4.73716">
        <ele>329.61249</ele>
        <time>2023-11-23T09:40:13.000Z</time>
      </trkpt>
      <trkpt lat="45.82609" lon="4.73715">
        <ele>329.53241</ele>
        <time>2023-11-23T09:40:14.000Z</time>
      </trkpt>
      <trkpt lat="45.82605" lon="4.73715">
        <ele>329.45279</ele>
        <time>2023-11-23T09:40:15.000Z</time>
      </trkpt>
      <trkpt lat="45.82601" lon="4.73716">
        <ele>329.35028</ele>
        <time>2023-11-23T09:40:16.000Z</time>
      </trkpt>
      <trkpt lat="45.82597" lon="4.73718">
        <ele>329.24286</ele>
        <time>2023-11-23T09:40:17.000Z</time>
      </trkpt>
      <trkpt lat="45.82593" lon="4.73721">
        <ele>329.20148</ele>
        <time>2023-11-23T09:40:18.000Z</time>
      </trkpt>
      <trkpt lat="45.82588" lon="4.73723">
        <ele>329.14035</ele>
        <time>2023-11-23T09:40:19.000Z</time>
      </trkpt>
      <trkpt lat="45.82583" lon="4.73727">
        <ele>329.09821</ele>
        <time>2023-11-23T09:40:20.000Z</time>
      </trkpt>
      <trkpt lat="45.8258" lon="4.7373">
        <ele>329.0611</ele>
        <time>2023-11-23T09:40:21.000Z</time>
      </trkpt>
      <trkpt lat="45.82578" lon="4.73736">
        <ele>329.02658</ele>
        <time>2023-11-23T09:40:22.000Z</time>
      </trkpt>
      <trkpt lat="45.82576" lon="4.73742">
        <ele>328.96008</ele>
        <time>2023-11-23T09:40:23.000Z</time>
      </trkpt>
      <trkpt lat="45.82575" lon="4.73748">
        <ele>328.89264</ele>
        <time>2023-11-23T09:40:24.000Z</time>
      </trkpt>
      <trkpt lat="45.82574" lon="4.73754">
        <ele>328.83685</ele>
        <time>2023-11-23T09:40:25.000Z</time>
      </trkpt>
      <trkpt lat="45.82573" lon="4.73759">
        <ele>328.75937</ele>
        <time>2023-11-23T09:40:26.000Z</time>
      </trkpt>
      <trkpt lat="45.82572" lon="4.73764">
        <ele>328.55377</ele>
        <time>2023-11-23T09:40:27.000Z</time>
      </trkpt>
      <trkpt lat="45.82571" lon="4.7377">
        <ele>328.35278</ele>
        <time>2023-11-23T09:40:28.000Z</time>
      </trkpt>
      <trkpt lat="45.82569" lon="4.73776">
        <ele>328.45291</ele>
        <time>2023-11-23T09:40:29.000Z</time>
      </trkpt>
      <trkpt lat="45.82569" lon="4.73779">
        <ele>328.29373</ele>
        <time>2023-11-23T09:40:30.000Z</time>
      </trkpt>
      <trkpt lat="45.82568" lon="4.73783">
        <ele>328.17401</ele>
        <time>2023-11-23T09:40:31.000Z</time>
      </trkpt>
      <trkpt lat="45.82566" lon="4.73789">
        <ele>328.02582</ele>
        <time>2023-11-23T09:40:32.000Z</time>
      </trkpt>
      <trkpt lat="45.82565" lon="4.73797">
        <ele>327.85452</ele>
        <time>2023-11-23T09:40:33.000Z</time>
      </trkpt>
      <trkpt lat="45.82563" lon="4.73801">
        <ele>327.71014</ele>
        <time>2023-11-23T09:40:34.000Z</time>
      </trkpt>
      <trkpt lat="45.82561" lon="4.73806">
        <ele>327.56097</ele>
        <time>2023-11-23T09:40:35.000Z</time>
      </trkpt>
      <trkpt lat="45.82559" lon="4.73811">
        <ele>327.52972</ele>
        <time>2023-11-23T09:40:36.000Z</time>
      </trkpt>
      <trkpt lat="45.82557" lon="4.73816">
        <ele>327.58295</ele>
        <time>2023-11-23T09:40:37.000Z</time>
      </trkpt>
      <trkpt lat="45.82555" lon="4.73821">
        <ele>327.62451</ele>
        <time>2023-11-23T09:40:38.000Z</time>
      </trkpt>
      <trkpt lat="45.82554" lon="4.73826">
        <ele>327.70953</ele>
        <time>2023-11-23T09:40:39.000Z</time>
      </trkpt>
      <trkpt lat="45.82552" lon="4.73831">
        <ele>327.78403</ele>
        <time>2023-11-23T09:40:40.000Z</time>
      </trkpt>
      <trkpt lat="45.82552" lon="4.73836">
        <ele>327.85504</ele>
        <time>2023-11-23T09:40:41.000Z</time>
      </trkpt>
      <trkpt lat="45.82552" lon="4.73841">
        <ele>327.93228</ele>
        <time>2023-11-23T09:40:42.000Z</time>
      </trkpt>
      <trkpt lat="45.82554" lon="4.73846">
        <ele>328.01962</ele>
        <time>2023-11-23T09:40:43.000Z</time>
      </trkpt>
      <trkpt lat="45.82557" lon="4.73849">
        <ele>328.14743</ele>
        <time>2023-11-23T09:40:44.000Z</time>
      </trkpt>
      <trkpt lat="45.8256" lon="4.7385">
        <ele>328.28973</ele>
        <time>2023-11-23T09:40:45.000Z</time>
      </trkpt>
      <trkpt lat="45.82562" lon="4.73852">
        <ele>328.45862</ele>
        <time>2023-11-23T09:40:46.000Z</time>
      </trkpt>
      <trkpt lat="45.82565" lon="4.73853">
        <ele>328.73248</ele>
        <time>2023-11-23T09:40:47.000Z</time>
      </trkpt>
      <trkpt lat="45.82567" lon="4.73856">
        <ele>329.1004</ele>
        <time>2023-11-23T09:40:48.000Z</time>
      </trkpt>
      <trkpt lat="45.82569" lon="4.73859">
        <ele>329.24796</ele>
        <time>2023-11-23T09:40:49.000Z</time>
      </trkpt>
      <trkpt lat="45.82571" lon="4.73863">
        <ele>329.42148</ele>
        <time>2023-11-23T09:40:50.000Z</time>
      </trkpt>
      <trkpt lat="45.82572" lon="4.73866">
        <ele>329.608</ele>
        <time>2023-11-23T09:40:51.000Z</time>
      </trkpt>
      <trkpt lat="45.82573" lon="4.7387">
        <ele>329.84027</ele>
        <time>2023-11-23T09:40:52.000Z</time>
      </trkpt>
      <trkpt lat="45.82574" lon="4.73874">
        <ele>330.09366</ele>
        <time>2023-11-23T09:40:53.000Z</time>
      </trkpt>
      <trkpt lat="45.82575" lon="4.73878">
        <ele>330.14417</ele>
        <time>2023-11-23T09:40:54.000Z</time>
      </trkpt>
      <trkpt lat="45.82576" lon="4.73883">
        <ele>330.18561</ele>
        <time>2023-11-23T09:40:55.000Z</time>
      </trkpt>
      <trkpt lat="45.82576" lon="4.73888">
        <ele>330.10333</ele>
        <time>2023-11-23T09:40:56.000Z</time>
      </trkpt>
      <trkpt lat="45.82577" lon="4.73892">
        <ele>330.18179</ele>
        <time>2023-11-23T09:40:57.000Z</time>
      </trkpt>
      <trkpt lat="45.82578" lon="4.73897">
        <ele>330.21118</ele>
        <time>2023-11-23T09:40:58.000Z</time>
      </trkpt>
      <trkpt lat="45.8258" lon="4.73902">
        <ele>330.22046</ele>
        <time>2023-11-23T09:40:59.000Z</time>
      </trkpt>
      <trkpt lat="45.82581" lon="4.73906">
        <ele>330.06201</ele>
        <time>2023-11-23T09:41:00.000Z</time>
      </trkpt>
      <trkpt lat="45.82582" lon="4.73911">
        <ele>329.90765</ele>
        <time>2023-11-23T09:41:01.000Z</time>
      </trkpt>
      <trkpt lat="45.82583" lon="4.73916">
        <ele>329.71927</ele>
        <time>2023-11-23T09:41:02.000Z</time>
      </trkpt>
      <trkpt lat="45.82584" lon="4.73921">
        <ele>329.73923</ele>
        <time>2023-11-23T09:41:03.000Z</time>
      </trkpt>
      <trkpt lat="45.82585" lon="4.73926">
        <ele>329.69608</ele>
        <time>2023-11-23T09:41:04.000Z</time>
      </trkpt>
      <trkpt lat="45.82586" lon="4.73931">
        <ele>329.64337</ele>
        <time>2023-11-23T09:41:05.000Z</time>
      </trkpt>
      <trkpt lat="45.82587" lon="4.73936">
        <ele>329.57205</ele>
        <time>2023-11-23T09:41:06.000Z</time>
      </trkpt>
      <trkpt lat="45.82588" lon="4.73941">
        <ele>329.51218</ele>
        <time>2023-11-23T09:41:07.000Z</time>
      </trkpt>
      <trkpt lat="45.82589" lon="4.73946">
        <ele>329.44733</ele>
        <time>2023-11-23T09:41:08.000Z</time>
      </trkpt>
      <trkpt lat="45.8259" lon="4.73951">
        <ele>329.42108</ele>
        <time>2023-11-23T09:41:09.000Z</time>
      </trkpt>
      <trkpt lat="45.82591" lon="4.73956">
        <ele>329.43488</ele>
        <time>2023-11-23T09:41:10.000Z</time>
      </trkpt>
      <trkpt lat="45.82593" lon="4.73961">
        <ele>329.44205</ele>
        <time>2023-11-23T09:41:11.000Z</time>
      </trkpt>
      <trkpt lat="45.82594" lon="4.73966">
        <ele>329.29953</ele>
        <time>2023-11-23T09:41:12.000Z</time>
      </trkpt>
      <trkpt lat="45.82595" lon="4.7397">
        <ele>329.15106</ele>
        <time>2023-11-23T09:41:13.000Z</time>
      </trkpt>
      <trkpt lat="45.82596" lon="4.73975">
        <ele>329.17822</ele>
        <time>2023-11-23T09:41:14.000Z</time>
      </trkpt>
      <trkpt lat="45.82598" lon="4.7398">
        <ele>329.4455</ele>
        <time>2023-11-23T09:41:15.000Z</time>
      </trkpt>
      <trkpt lat="45.82599" lon="4.73984">
        <ele>329.73016</ele>
        <time>2023-11-23T09:41:16.000Z</time>
      </trkpt>
      <trkpt lat="45.82601" lon="4.73989">
        <ele>329.78284</ele>
        <time>2023-11-23T09:41:17.000Z</time>
      </trkpt>
      <trkpt lat="45.82602" lon="4.73994">
        <ele>329.88727</ele>
        <time>2023-11-23T09:41:18.000Z</time>
      </trkpt>
      <trkpt lat="45.82603" lon="4.73998">
        <ele>329.99835</ele>
        <time>2023-11-23T09:41:19.000Z</time>
      </trkpt>
      <trkpt lat="45.82604" lon="4.74002">
        <ele>330.31216</ele>
        <time>2023-11-23T09:41:20.000Z</time>
      </trkpt>
      <trkpt lat="45.82606" lon="4.74006">
        <ele>330.63852</ele>
        <time>2023-11-23T09:41:21.000Z</time>
      </trkpt>
      <trkpt lat="45.82607" lon="4.74011">
        <ele>330.98651</ele>
        <time>2023-11-23T09:41:22.000Z</time>
      </trkpt>
      <trkpt lat="45.82608" lon="4.74016">
        <ele>330.98203</ele>
        <time>2023-11-23T09:41:23.000Z</time>
      </trkpt>
      <trkpt lat="45.82608" lon="4.7402">
        <ele>331.02252</ele>
        <time>2023-11-23T09:41:24.000Z</time>
      </trkpt>
      <trkpt lat="45.82609" lon="4.74025">
        <ele>330.93759</ele>
        <time>2023-11-23T09:41:25.000Z</time>
      </trkpt>
      <trkpt lat="45.82609" lon="4.74029">
        <ele>330.87366</ele>
        <time>2023-11-23T09:41:26.000Z</time>
      </trkpt>
      <trkpt lat="45.82609" lon="4.74033">
        <ele>331.0798</ele>
        <time>2023-11-23T09:41:27.000Z</time>
      </trkpt>
      <trkpt lat="45.82609" lon="4.74037">
        <ele>331.271</ele>
        <time>2023-11-23T09:41:28.000Z</time>
      </trkpt>
      <trkpt lat="45.82609" lon="4.74041">
        <ele>331.43137</ele>
        <time>2023-11-23T09:41:29.000Z</time>
      </trkpt>
      <trkpt lat="45.82609" lon="4.74046">
        <ele>331.5834</ele>
        <time>2023-11-23T09:41:30.000Z</time>
      </trkpt>
      <trkpt lat="45.82609" lon="4.7405">
        <ele>331.75058</ele>
        <time>2023-11-23T09:41:31.000Z</time>
      </trkpt>
      <trkpt lat="45.82608" lon="4.74054">
        <ele>331.89197</ele>
        <time>2023-11-23T09:41:32.000Z</time>
      </trkpt>
      <trkpt lat="45.82608" lon="4.74059">
        <ele>332.06155</ele>
        <time>2023-11-23T09:41:33.000Z</time>
      </trkpt>
      <trkpt lat="45.82609" lon="4.74063">
        <ele>332.18994</ele>
        <time>2023-11-23T09:41:34.000Z</time>
      </trkpt>
      <trkpt lat="45.82609" lon="4.74066">
        <ele>332.07269</ele>
        <time>2023-11-23T09:41:35.000Z</time>
      </trkpt>
      <trkpt lat="45.82609" lon="4.7407">
        <ele>332.29727</ele>
        <time>2023-11-23T09:41:36.000Z</time>
      </trkpt>
      <trkpt lat="45.82609" lon="4.74074">
        <ele>332.76117</ele>
        <time>2023-11-23T09:41:37.000Z</time>
      </trkpt>
      <trkpt lat="45.8261" lon="4.74078">
        <ele>333.29462</ele>
        <time>2023-11-23T09:41:38.000Z</time>
      </trkpt>
      <trkpt lat="45.8261" lon="4.74082">
        <ele>333.8364</ele>
        <time>2023-11-23T09:41:39.000Z</time>
      </trkpt>
      <trkpt lat="45.8261" lon="4.74086">
        <ele>334.3775</ele>
        <time>2023-11-23T09:41:40.000Z</time>
      </trkpt>
      <trkpt lat="45.8261" lon="4.7409">
        <ele>334.91367</ele>
        <time>2023-11-23T09:41:41.000Z</time>
      </trkpt>
      <trkpt lat="45.82611" lon="4.74094">
        <ele>335.11563</ele>
        <time>2023-11-23T09:41:42.000Z</time>
      </trkpt>
      <trkpt lat="45.8261" lon="4.74097">
        <ele>335.47205</ele>
        <time>2023-11-23T09:41:43.000Z</time>
      </trkpt>
      <trkpt lat="45.8261" lon="4.74101">
        <ele>335.8028</ele>
        <time>2023-11-23T09:41:44.000Z</time>
      </trkpt>
      <trkpt lat="45.8261" lon="4.74104">
        <ele>336.10883</ele>
        <time>2023-11-23T09:41:45.000Z</time>
      </trkpt>
      <trkpt lat="45.8261" lon="4.74108">
        <ele>336.31747</ele>
        <time>2023-11-23T09:41:46.000Z</time>
      </trkpt>
      <trkpt lat="45.8261" lon="4.74112">
        <ele>336.57544</ele>
        <time>2023-11-23T09:41:47.000Z</time>
      </trkpt>
      <trkpt lat="45.8261" lon="4.74115">
        <ele>337.13858</ele>
        <time>2023-11-23T09:41:48.000Z</time>
      </trkpt>
      <trkpt lat="45.8261" lon="4.74119">
        <ele>337.73209</ele>
        <time>2023-11-23T09:41:49.000Z</time>
      </trkpt>
      <trkpt lat="45.82611" lon="4.74123">
        <ele>338.31378</ele>
        <time>2023-11-23T09:41:50.000Z</time>
      </trkpt>
      <trkpt lat="45.82611" lon="4.74126">
        <ele>338.87839</ele>
        <time>2023-11-23T09:41:51.000Z</time>
      </trkpt>
      <trkpt lat="45.82611" lon="4.7413">
        <ele>339.59705</ele>
        <time>2023-11-23T09:41:52.000Z</time>
      </trkpt>
      <trkpt lat="45.82611" lon="4.74133">
        <ele>339.96515</ele>
        <time>2023-11-23T09:41:53.000Z</time>
      </trkpt>
      <trkpt lat="45.82611" lon="4.74137">
        <ele>340.3736</ele>
        <time>2023-11-23T09:41:54.000Z</time>
      </trkpt>
      <trkpt lat="45.82611" lon="4.74141">
        <ele>340.78839</ele>
        <time>2023-11-23T09:41:55.000Z</time>
      </trkpt>
      <trkpt lat="45.82611" lon="4.74145">
        <ele>340.89035</ele>
        <time>2023-11-23T09:41:56.000Z</time>
      </trkpt>
      <trkpt lat="45.82611" lon="4.74148">
        <ele>340.74109</ele>
        <time>2023-11-23T09:41:57.000Z</time>
      </trkpt>
      <trkpt lat="45.82612" lon="4.74152">
        <ele>340.53552</ele>
        <time>2023-11-23T09:41:58.000Z</time>
      </trkpt>
      <trkpt lat="45.82612" lon="4.74155">
        <ele>340.31891</ele>
        <time>2023-11-23T09:41:59.000Z</time>
      </trkpt>
      <trkpt lat="45.82612" lon="4.74159">
        <ele>340.08353</ele>
        <time>2023-11-23T09:42:00.000Z</time>
      </trkpt>
      <trkpt lat="45.82612" lon="4.74163">
        <ele>339.83673</ele>
        <time>2023-11-23T09:42:01.000Z</time>
      </trkpt>
      <trkpt lat="45.82612" lon="4.74168">
        <ele>339.72244</ele>
        <time>2023-11-23T09:42:02.000Z</time>
      </trkpt>
      <trkpt lat="45.82612" lon="4.74172">
        <ele>339.49796</ele>
        <time>2023-11-23T09:42:03.000Z</time>
      </trkpt>
      <trkpt lat="45.82613" lon="4.74176">
        <ele>339.6246</ele>
        <time>2023-11-23T09:42:04.000Z</time>
      </trkpt>
      <trkpt lat="45.82613" lon="4.7418">
        <ele>339.85693</ele>
        <time>2023-11-23T09:42:05.000Z</time>
      </trkpt>
      <trkpt lat="45.82613" lon="4.74184">
        <ele>340.18536</ele>
        <time>2023-11-23T09:42:06.000Z</time>
      </trkpt>
      <trkpt lat="45.82612" lon="4.74188">
        <ele>340.20346</ele>
        <time>2023-11-23T09:42:07.000Z</time>
      </trkpt>
      <trkpt lat="45.82612" lon="4.74192">
        <ele>339.96716</ele>
        <time>2023-11-23T09:42:08.000Z</time>
      </trkpt>
      <trkpt lat="45.82611" lon="4.74196">
        <ele>339.71832</ele>
        <time>2023-11-23T09:42:09.000Z</time>
      </trkpt>
      <trkpt lat="45.82611" lon="4.74201">
        <ele>339.30493</ele>
        <time>2023-11-23T09:42:10.000Z</time>
      </trkpt>
      <trkpt lat="45.8261" lon="4.74205">
        <ele>338.79108</ele>
        <time>2023-11-23T09:42:11.000Z</time>
      </trkpt>
      <trkpt lat="45.8261" lon="4.74209">
        <ele>338.25742</ele>
        <time>2023-11-23T09:42:12.000Z</time>
      </trkpt>
      <trkpt lat="45.8261" lon="4.74213">
        <ele>338.41235</ele>
        <time>2023-11-23T09:42:13.000Z</time>
      </trkpt>
      <trkpt lat="45.82609" lon="4.74217">
        <ele>338.49747</ele>
        <time>2023-11-23T09:42:14.000Z</time>
      </trkpt>
      <trkpt lat="45.82608" lon="4.74221">
        <ele>338.56149</ele>
        <time>2023-11-23T09:42:15.000Z</time>
      </trkpt>
      <trkpt lat="45.82608" lon="4.74225">
        <ele>338.61703</ele>
        <time>2023-11-23T09:42:16.000Z</time>
      </trkpt>
      <trkpt lat="45.82607" lon="4.74229">
        <ele>338.63873</ele>
        <time>2023-11-23T09:42:17.000Z</time>
      </trkpt>
      <trkpt lat="45.82607" lon="4.74232">
        <ele>338.59326</ele>
        <time>2023-11-23T09:42:18.000Z</time>
      </trkpt>
      <trkpt lat="45.82607" lon="4.74236">
        <ele>338.56506</ele>
        <time>2023-11-23T09:42:19.000Z</time>
      </trkpt>
      <trkpt lat="45.82606" lon="4.7424">
        <ele>338.54816</ele>
        <time>2023-11-23T09:42:20.000Z</time>
      </trkpt>
      <trkpt lat="45.82605" lon="4.74244">
        <ele>338.38861</ele>
        <time>2023-11-23T09:42:21.000Z</time>
      </trkpt>
      <trkpt lat="45.82604" lon="4.74249">
        <ele>338.34351</ele>
        <time>2023-11-23T09:42:22.000Z</time>
      </trkpt>
      <trkpt lat="45.82603" lon="4.74254">
        <ele>338.73135</ele>
        <time>2023-11-23T09:42:23.000Z</time>
      </trkpt>
      <trkpt lat="45.82602" lon="4.74259">
        <ele>338.68872</ele>
        <time>2023-11-23T09:42:24.000Z</time>
      </trkpt>
      <trkpt lat="45.82601" lon="4.74263">
        <ele>338.71176</ele>
        <time>2023-11-23T09:42:25.000Z</time>
      </trkpt>
      <trkpt lat="45.82601" lon="4.74268">
        <ele>338.72101</ele>
        <time>2023-11-23T09:42:26.000Z</time>
      </trkpt>
      <trkpt lat="45.826" lon="4.74273">
        <ele>338.70227</ele>
        <time>2023-11-23T09:42:27.000Z</time>
      </trkpt>
      <trkpt lat="45.82599" lon="4.74278">
        <ele>338.67816</ele>
        <time>2023-11-23T09:42:28.000Z</time>
      </trkpt>
      <trkpt lat="45.82597" lon="4.74283">
        <ele>338.67743</ele>
        <time>2023-11-23T09:42:29.000Z</time>
      </trkpt>
      <trkpt lat="45.82596" lon="4.74287">
        <ele>338.84186</ele>
        <time>2023-11-23T09:42:30.000Z</time>
      </trkpt>
      <trkpt lat="45.82595" lon="4.74292">
        <ele>339.1142</ele>
        <time>2023-11-23T09:42:31.000Z</time>
      </trkpt>
      <trkpt lat="45.82594" lon="4.74297">
        <ele>339.42938</ele>
        <time>2023-11-23T09:42:32.000Z</time>
      </trkpt>
      <trkpt lat="45.82593" lon="4.74302">
        <ele>339.4068</ele>
        <time>2023-11-23T09:42:33.000Z</time>
      </trkpt>
      <trkpt lat="45.82592" lon="4.74307">
        <ele>339.46216</ele>
        <time>2023-11-23T09:42:34.000Z</time>
      </trkpt>
      <trkpt lat="45.82592" lon="4.74312">
        <ele>339.53152</ele>
        <time>2023-11-23T09:42:35.000Z</time>
      </trkpt>
      <trkpt lat="45.82591" lon="4.74316">
        <ele>339.59427</ele>
        <time>2023-11-23T09:42:36.000Z</time>
      </trkpt>
      <trkpt lat="45.8259" lon="4.74321">
        <ele>339.69229</ele>
        <time>2023-11-23T09:42:37.000Z</time>
      </trkpt>
      <trkpt lat="45.8259" lon="4.74326">
        <ele>339.66486</ele>
        <time>2023-11-23T09:42:38.000Z</time>
      </trkpt>
      <trkpt lat="45.8259" lon="4.74331">
        <ele>339.50439</ele>
        <time>2023-11-23T09:42:39.000Z</time>
      </trkpt>
      <trkpt lat="45.8259" lon="4.74336">
        <ele>339.67514</ele>
        <time>2023-11-23T09:42:40.000Z</time>
      </trkpt>
      <trkpt lat="45.8259" lon="4.74341">
        <ele>339.91742</ele>
        <time>2023-11-23T09:42:41.000Z</time>
      </trkpt>
      <trkpt lat="45.8259" lon="4.74346">
        <ele>340.28705</ele>
        <time>2023-11-23T09:42:42.000Z</time>
      </trkpt>
      <trkpt lat="45.8259" lon="4.74351">
        <ele>340.3233</ele>
        <time>2023-11-23T09:42:43.000Z</time>
      </trkpt>
      <trkpt lat="45.82589" lon="4.74356">
        <ele>340.43268</ele>
        <time>2023-11-23T09:42:44.000Z</time>
      </trkpt>
      <trkpt lat="45.82589" lon="4.74361">
        <ele>340.53848</ele>
        <time>2023-11-23T09:42:45.000Z</time>
      </trkpt>
      <trkpt lat="45.82589" lon="4.74366">
        <ele>340.63345</ele>
        <time>2023-11-23T09:42:46.000Z</time>
      </trkpt>
      <trkpt lat="45.82589" lon="4.74372">
        <ele>340.73102</ele>
        <time>2023-11-23T09:42:47.000Z</time>
      </trkpt>
      <trkpt lat="45.8259" lon="4.74377">
        <ele>340.84579</ele>
        <time>2023-11-23T09:42:48.000Z</time>
      </trkpt>
      <trkpt lat="45.82589" lon="4.74382">
        <ele>340.96048</ele>
        <time>2023-11-23T09:42:49.000Z</time>
      </trkpt>
      <trkpt lat="45.82589" lon="4.74388">
        <ele>341.07898</ele>
        <time>2023-11-23T09:42:50.000Z</time>
      </trkpt>
      <trkpt lat="45.82589" lon="4.74393">
        <ele>341.19513</ele>
        <time>2023-11-23T09:42:51.000Z</time>
      </trkpt>
      <trkpt lat="45.82589" lon="4.74399">
        <ele>341.31973</ele>
        <time>2023-11-23T09:42:52.000Z</time>
      </trkpt>
      <trkpt lat="45.82589" lon="4.74405">
        <ele>341.45828</ele>
        <time>2023-11-23T09:42:53.000Z</time>
      </trkpt>
      <trkpt lat="45.82589" lon="4.7441">
        <ele>341.59216</ele>
        <time>2023-11-23T09:42:54.000Z</time>
      </trkpt>
      <trkpt lat="45.82588" lon="4.74415">
        <ele>341.75571</ele>
        <time>2023-11-23T09:42:55.000Z</time>
      </trkpt>
      <trkpt lat="45.82588" lon="4.74421">
        <ele>341.91327</ele>
        <time>2023-11-23T09:42:56.000Z</time>
      </trkpt>
      <trkpt lat="45.82587" lon="4.74426">
        <ele>342.06497</ele>
        <time>2023-11-23T09:42:57.000Z</time>
      </trkpt>
      <trkpt lat="45.82587" lon="4.74431">
        <ele>342.40247</ele>
        <time>2023-11-23T09:42:58.000Z</time>
      </trkpt>
      <trkpt lat="45.82586" lon="4.74435">
        <ele>342.88184</ele>
        <time>2023-11-23T09:42:59.000Z</time>
      </trkpt>
      <trkpt lat="45.82586" lon="4.7444">
        <ele>343.00626</ele>
        <time>2023-11-23T09:43:00.000Z</time>
      </trkpt>
      <trkpt lat="45.82585" lon="4.74445">
        <ele>343.19769</ele>
        <time>2023-11-23T09:43:01.000Z</time>
      </trkpt>
      <trkpt lat="45.82584" lon="4.74451">
        <ele>343.37897</ele>
        <time>2023-11-23T09:43:02.000Z</time>
      </trkpt>
      <trkpt lat="45.82584" lon="4.74455">
        <ele>343.55225</ele>
        <time>2023-11-23T09:43:03.000Z</time>
      </trkpt>
      <trkpt lat="45.82583" lon="4.7446">
        <ele>343.76163</ele>
        <time>2023-11-23T09:43:04.000Z</time>
      </trkpt>
      <trkpt lat="45.82581" lon="4.74465">
        <ele>343.8548</ele>
        <time>2023-11-23T09:43:05.000Z</time>
      </trkpt>
      <trkpt lat="45.8258" lon="4.74469">
        <ele>343.60468</ele>
        <time>2023-11-23T09:43:06.000Z</time>
      </trkpt>
      <trkpt lat="45.82579" lon="4.74473">
        <ele>343.92542</ele>
        <time>2023-11-23T09:43:07.000Z</time>
      </trkpt>
      <trkpt lat="45.82578" lon="4.74476">
        <ele>344.07324</ele>
        <time>2023-11-23T09:43:08.000Z</time>
      </trkpt>
      <trkpt lat="45.82576" lon="4.7448">
        <ele>344.23676</ele>
        <time>2023-11-23T09:43:09.000Z</time>
      </trkpt>
      <trkpt lat="45.82576" lon="4.74483">
        <ele>344.42233</ele>
        <time>2023-11-23T09:43:10.000Z</time>
      </trkpt>
      <trkpt lat="45.82575" lon="4.74486">
        <ele>344.62534</ele>
        <time>2023-11-23T09:43:11.000Z</time>
      </trkpt>
      <trkpt lat="45.82575" lon="4.74491">
        <ele>344.84967</ele>
        <time>2023-11-23T09:43:12.000Z</time>
      </trkpt>
      <trkpt lat="45.82575" lon="4.74495">
        <ele>345.08942</ele>
        <time>2023-11-23T09:43:13.000Z</time>
      </trkpt>
      <trkpt lat="45.82576" lon="4.74498">
        <ele>345.27411</ele>
        <time>2023-11-23T09:43:14.000Z</time>
      </trkpt>
      <trkpt lat="45.82576" lon="4.74502">
        <ele>345.38751</ele>
        <time>2023-11-23T09:43:15.000Z</time>
      </trkpt>
      <trkpt lat="45.82577" lon="4.74505">
        <ele>345.43176</ele>
        <time>2023-11-23T09:43:16.000Z</time>
      </trkpt>
      <trkpt lat="45.82579" lon="4.7451">
        <ele>345.71423</ele>
        <time>2023-11-23T09:43:18.000Z</time>
      </trkpt>
      <trkpt lat="45.8258" lon="4.74515">
        <ele>346.09198</ele>
        <time>2023-11-23T09:43:20.000Z</time>
      </trkpt>
      <trkpt lat="45.82582" lon="4.7452">
        <ele>346.31833</ele>
        <time>2023-11-23T09:43:21.000Z</time>
      </trkpt>
      <trkpt lat="45.82583" lon="4.74524">
        <ele>346.68112</ele>
        <time>2023-11-23T09:43:23.000Z</time>
      </trkpt>
      <trkpt lat="45.82583" lon="4.74527">
        <ele>347.05606</ele>
        <time>2023-11-23T09:43:24.000Z</time>
      </trkpt>
      <trkpt lat="45.82584" lon="4.74532">
        <ele>347.49506</ele>
        <time>2023-11-23T09:43:26.000Z</time>
      </trkpt>
      <trkpt lat="45.82585" lon="4.74537">
        <ele>347.88254</ele>
        <time>2023-11-23T09:43:27.000Z</time>
      </trkpt>
      <trkpt lat="45.82586" lon="4.74541">
        <ele>348.10382</ele>
        <time>2023-11-23T09:43:29.000Z</time>
      </trkpt>
      <trkpt lat="45.82587" lon="4.74544">
        <ele>348.49652</ele>
        <time>2023-11-23T09:43:30.000Z</time>
      </trkpt>
      <trkpt lat="45.82588" lon="4.74547">
        <ele>349.14905</ele>
        <time>2023-11-23T09:43:31.000Z</time>
      </trkpt>
      <trkpt lat="45.82589" lon="4.7455">
        <ele>349.17938</ele>
        <time>2023-11-23T09:43:32.000Z</time>
      </trkpt>
      <trkpt lat="45.8259" lon="4.74553">
        <ele>349.83026</ele>
        <time>2023-11-23T09:43:33.000Z</time>
      </trkpt>
      <trkpt lat="45.82591" lon="4.74556">
        <ele>350.41086</ele>
        <time>2023-11-23T09:43:34.000Z</time>
      </trkpt>
      <trkpt lat="45.82592" lon="4.74559">
        <ele>350.78253</ele>
        <time>2023-11-23T09:43:35.000Z</time>
      </trkpt>
      <trkpt lat="45.82594" lon="4.74561">
        <ele>351.17792</ele>
        <time>2023-11-23T09:43:36.000Z</time>
      </trkpt>
      <trkpt lat="45.82595" lon="4.74564">
        <ele>351.59137</ele>
        <time>2023-11-23T09:43:37.000Z</time>
      </trkpt>
      <trkpt lat="45.82597" lon="4.74567">
        <ele>352.0152</ele>
        <time>2023-11-23T09:43:38.000Z</time>
      </trkpt>
      <trkpt lat="45.82598" lon="4.74569">
        <ele>352.35605</ele>
        <time>2023-11-23T09:43:39.000Z</time>
      </trkpt>
      <trkpt lat="45.826" lon="4.74573">
        <ele>352.83234</ele>
        <time>2023-11-23T09:43:40.000Z</time>
      </trkpt>
      <trkpt lat="45.82601" lon="4.74575">
        <ele>353.46292</ele>
        <time>2023-11-23T09:43:41.000Z</time>
      </trkpt>
      <trkpt lat="45.82603" lon="4.74578">
        <ele>353.88956</ele>
        <time>2023-11-23T09:43:42.000Z</time>
      </trkpt>
      <trkpt lat="45.82605" lon="4.7458">
        <ele>354.24246</ele>
        <time>2023-11-23T09:43:43.000Z</time>
      </trkpt>
      <trkpt lat="45.82607" lon="4.74582">
        <ele>354.72003</ele>
        <time>2023-11-23T09:43:44.000Z</time>
      </trkpt>
      <trkpt lat="45.8261" lon="4.74585">
        <ele>355.04901</ele>
        <time>2023-11-23T09:43:45.000Z</time>
      </trkpt>
      <trkpt lat="45.82612" lon="4.74587">
        <ele>355.10669</ele>
        <time>2023-11-23T09:43:46.000Z</time>
      </trkpt>
      <trkpt lat="45.82614" lon="4.7459">
        <ele>354.88263</ele>
        <time>2023-11-23T09:43:47.000Z</time>
      </trkpt>
      <trkpt lat="45.82616" lon="4.74593">
        <ele>354.55536</ele>
        <time>2023-11-23T09:43:48.000Z</time>
      </trkpt>
      <trkpt lat="45.82617" lon="4.74597">
        <ele>354.33881</ele>
        <time>2023-11-23T09:43:49.000Z</time>
      </trkpt>
      <trkpt lat="45.82619" lon="4.746">
        <ele>353.91196</ele>
        <time>2023-11-23T09:43:50.000Z</time>
      </trkpt>
      <trkpt lat="45.82621" lon="4.74603">
        <ele>353.53345</ele>
        <time>2023-11-23T09:43:51.000Z</time>
      </trkpt>
      <trkpt lat="45.82623" lon="4.74606">
        <ele>353.71371</ele>
        <time>2023-11-23T09:43:52.000Z</time>
      </trkpt>
      <trkpt lat="45.82625" lon="4.74609">
        <ele>353.36957</ele>
        <time>2023-11-23T09:43:53.000Z</time>
      </trkpt>
      <trkpt lat="45.82627" lon="4.74613">
        <ele>353.14813</ele>
        <time>2023-11-23T09:43:54.000Z</time>
      </trkpt>
      <trkpt lat="45.82629" lon="4.74617">
        <ele>353.1088</ele>
        <time>2023-11-23T09:43:55.000Z</time>
      </trkpt>
      <trkpt lat="45.82631" lon="4.7462">
        <ele>353.01581</ele>
        <time>2023-11-23T09:43:56.000Z</time>
      </trkpt>
      <trkpt lat="45.82633" lon="4.74623">
        <ele>352.8616</ele>
        <time>2023-11-23T09:43:57.000Z</time>
      </trkpt>
      <trkpt lat="45.82636" lon="4.74626">
        <ele>352.65192</ele>
        <time>2023-11-23T09:43:58.000Z</time>
      </trkpt>
      <trkpt lat="45.82639" lon="4.74627">
        <ele>352.49872</ele>
        <time>2023-11-23T09:43:59.000Z</time>
      </trkpt>
      <trkpt lat="45.82642" lon="4.74628">
        <ele>352.23944</ele>
        <time>2023-11-23T09:44:00.000Z</time>
      </trkpt>
      <trkpt lat="45.82646" lon="4.74629">
        <ele>351.91748</ele>
        <time>2023-11-23T09:44:01.000Z</time>
      </trkpt>
      <trkpt lat="45.8265" lon="4.74631">
        <ele>351.61823</ele>
        <time>2023-11-23T09:44:02.000Z</time>
      </trkpt>
      <trkpt lat="45.82654" lon="4.74634">
        <ele>351.26251</ele>
        <time>2023-11-23T09:44:03.000Z</time>
      </trkpt>
      <trkpt lat="45.82656" lon="4.7464">
        <ele>350.93655</ele>
        <time>2023-11-23T09:44:04.000Z</time>
      </trkpt>
      <trkpt lat="45.82656" lon="4.74645">
        <ele>350.67572</ele>
        <time>2023-11-23T09:44:05.000Z</time>
      </trkpt>
      <trkpt lat="45.82657" lon="4.7465">
        <ele>350.51166</ele>
        <time>2023-11-23T09:44:06.000Z</time>
      </trkpt>
      <trkpt lat="45.82657" lon="4.74654">
        <ele>350.56784</ele>
        <time>2023-11-23T09:44:07.000Z</time>
      </trkpt>
      <trkpt lat="45.82657" lon="4.74658">
        <ele>350.78549</ele>
        <time>2023-11-23T09:44:08.000Z</time>
      </trkpt>
      <trkpt lat="45.82657" lon="4.74663">
        <ele>351.02878</ele>
        <time>2023-11-23T09:44:09.000Z</time>
      </trkpt>
      <trkpt lat="45.82657" lon="4.74667">
        <ele>351.14008</ele>
        <time>2023-11-23T09:44:10.000Z</time>
      </trkpt>
      <trkpt lat="45.82657" lon="4.74672">
        <ele>351.31573</ele>
        <time>2023-11-23T09:44:11.000Z</time>
      </trkpt>
      <trkpt lat="45.82657" lon="4.74677">
        <ele>351.42181</ele>
        <time>2023-11-23T09:44:12.000Z</time>
      </trkpt>
      <trkpt lat="45.82658" lon="4.74684">
        <ele>351.34293</ele>
        <time>2023-11-23T09:44:13.000Z</time>
      </trkpt>
      <trkpt lat="45.82658" lon="4.7469">
        <ele>351.23907</ele>
        <time>2023-11-23T09:44:14.000Z</time>
      </trkpt>
      <trkpt lat="45.82659" lon="4.74697">
        <ele>350.71243</ele>
        <time>2023-11-23T09:44:15.000Z</time>
      </trkpt>
      <trkpt lat="45.82662" lon="4.74707">
        <ele>350.79205</ele>
        <time>2023-11-23T09:44:16.000Z</time>
      </trkpt>
      <trkpt lat="45.82662" lon="4.74715">
        <ele>351.75186</ele>
        <time>2023-11-23T09:44:17.000Z</time>
      </trkpt>
      <trkpt lat="45.82662" lon="4.74722">
        <ele>352.7034</ele>
        <time>2023-11-23T09:44:18.000Z</time>
      </trkpt>
      <trkpt lat="45.82663" lon="4.74728">
        <ele>353.72467</ele>
        <time>2023-11-23T09:44:19.000Z</time>
      </trkpt>
      <trkpt lat="45.82664" lon="4.74734">
        <ele>354.7605</ele>
        <time>2023-11-23T09:44:20.000Z</time>
      </trkpt>
      <trkpt lat="45.82664" lon="4.74741">
        <ele>355.79535</ele>
        <time>2023-11-23T09:44:21.000Z</time>
      </trkpt>
      <trkpt lat="45.82664" lon="4.74748">
        <ele>356.79785</ele>
        <time>2023-11-23T09:44:22.000Z</time>
      </trkpt>
      <trkpt lat="45.82664" lon="4.74755">
        <ele>357.79117</ele>
        <time>2023-11-23T09:44:23.000Z</time>
      </trkpt>
      <trkpt lat="45.82662" lon="4.74761">
        <ele>358.77502</ele>
        <time>2023-11-23T09:44:24.000Z</time>
      </trkpt>
      <trkpt lat="45.82658" lon="4.74766">
        <ele>359.72891</ele>
        <time>2023-11-23T09:44:25.000Z</time>
      </trkpt>
      <trkpt lat="45.82654" lon="4.7477">
        <ele>360.83298</ele>
        <time>2023-11-23T09:44:26.000Z</time>
      </trkpt>
      <trkpt lat="45.82651" lon="4.74773">
        <ele>361.91083</ele>
        <time>2023-11-23T09:44:27.000Z</time>
      </trkpt>
      <trkpt lat="45.82648" lon="4.74776">
        <ele>362.96814</ele>
        <time>2023-11-23T09:44:28.000Z</time>
      </trkpt>
      <trkpt lat="45.82645" lon="4.7478">
        <ele>364.02032</ele>
        <time>2023-11-23T09:44:29.000Z</time>
      </trkpt>
      <trkpt lat="45.82642" lon="4.74781">
        <ele>365.35373</ele>
        <time>2023-11-23T09:44:30.000Z</time>
      </trkpt>
      <trkpt lat="45.8264" lon="4.74783">
        <ele>366.63287</ele>
        <time>2023-11-23T09:44:31.000Z</time>
      </trkpt>
      <trkpt lat="45.82637" lon="4.74785">
        <ele>367.48077</ele>
        <time>2023-11-23T09:44:32.000Z</time>
      </trkpt>
      <trkpt lat="45.82633" lon="4.74789">
        <ele>368.56598</ele>
        <time>2023-11-23T09:44:33.000Z</time>
      </trkpt>
      <trkpt lat="45.8263" lon="4.74791">
        <ele>369.651</ele>
        <time>2023-11-23T09:44:34.000Z</time>
      </trkpt>
      <trkpt lat="45.82625" lon="4.74793">
        <ele>371.13031</ele>
        <time>2023-11-23T09:44:35.000Z</time>
      </trkpt>
      <trkpt lat="45.82621" lon="4.74794">
        <ele>371.98944</ele>
        <time>2023-11-23T09:44:36.000Z</time>
      </trkpt>
      <trkpt lat="45.82619" lon="4.74794">
        <ele>371.95847</ele>
        <time>2023-11-23T09:44:37.000Z</time>
      </trkpt>
      <trkpt lat="45.82617" lon="4.74794">
        <ele>371.88858</ele>
        <time>2023-11-23T09:44:38.000Z</time>
      </trkpt>
      <trkpt lat="45.82612" lon="4.74794">
        <ele>371.79355</ele>
        <time>2023-11-23T09:44:39.000Z</time>
      </trkpt>
      <trkpt lat="45.82609" lon="4.74794">
        <ele>371.71396</ele>
        <time>2023-11-23T09:44:40.000Z</time>
      </trkpt>
      <trkpt lat="45.82605" lon="4.74795">
        <ele>371.68042</ele>
        <time>2023-11-23T09:44:41.000Z</time>
      </trkpt>
      <trkpt lat="45.82602" lon="4.74796">
        <ele>371.61139</ele>
        <time>2023-11-23T09:44:42.000Z</time>
      </trkpt>
      <trkpt lat="45.82598" lon="4.74797">
        <ele>371.58057</ele>
        <time>2023-11-23T09:44:43.000Z</time>
      </trkpt>
      <trkpt lat="45.82595" lon="4.74799">
        <ele>371.49396</ele>
        <time>2023-11-23T09:44:44.000Z</time>
      </trkpt>
      <trkpt lat="45.82592" lon="4.74801">
        <ele>371.42236</ele>
        <time>2023-11-23T09:44:45.000Z</time>
      </trkpt>
      <trkpt lat="45.82587" lon="4.74803">
        <ele>371.39264</ele>
        <time>2023-11-23T09:44:46.000Z</time>
      </trkpt>
      <trkpt lat="45.82584" lon="4.74805">
        <ele>371.396</ele>
        <time>2023-11-23T09:44:47.000Z</time>
      </trkpt>
      <trkpt lat="45.82581" lon="4.74806">
        <ele>371.42685</ele>
        <time>2023-11-23T09:44:48.000Z</time>
      </trkpt>
      <trkpt lat="45.82578" lon="4.74808">
        <ele>371.4534</ele>
        <time>2023-11-23T09:44:49.000Z</time>
      </trkpt>
      <trkpt lat="45.82576" lon="4.74809">
        <ele>371.4715</ele>
        <time>2023-11-23T09:44:50.000Z</time>
      </trkpt>
      <trkpt lat="45.82573" lon="4.74811">
        <ele>371.51758</ele>
        <time>2023-11-23T09:44:51.000Z</time>
      </trkpt>
      <trkpt lat="45.82571" lon="4.74811">
        <ele>371.55591</ele>
        <time>2023-11-23T09:44:52.000Z</time>
      </trkpt>
      <trkpt lat="45.82568" lon="4.74809">
        <ele>371.60138</ele>
        <time>2023-11-23T09:44:53.000Z</time>
      </trkpt>
      <trkpt lat="45.82566" lon="4.74807">
        <ele>371.6037</ele>
        <time>2023-11-23T09:44:54.000Z</time>
      </trkpt>
      <trkpt lat="45.82563" lon="4.74805">
        <ele>371.66547</ele>
        <time>2023-11-23T09:44:55.000Z</time>
      </trkpt>
      <trkpt lat="45.82561" lon="4.74803">
        <ele>371.7529</ele>
        <time>2023-11-23T09:44:56.000Z</time>
      </trkpt>
      <trkpt lat="45.82558" lon="4.74801">
        <ele>371.87289</ele>
        <time>2023-11-23T09:44:57.000Z</time>
      </trkpt>
      <trkpt lat="45.82556" lon="4.748">
        <ele>372.08881</ele>
        <time>2023-11-23T09:44:58.000Z</time>
      </trkpt>
      <trkpt lat="45.82553" lon="4.74797">
        <ele>372.4173</ele>
        <time>2023-11-23T09:45:00.000Z</time>
      </trkpt>
      <trkpt lat="45.82551" lon="4.74796">
        <ele>372.70303</ele>
        <time>2023-11-23T09:45:01.000Z</time>
      </trkpt>
      <trkpt lat="45.8255" lon="4.74795">
        <ele>372.9053</ele>
        <time>2023-11-23T09:45:02.000Z</time>
      </trkpt>
      <trkpt lat="45.82547" lon="4.74791">
        <ele>373.13297</ele>
        <time>2023-11-23T09:45:04.000Z</time>
      </trkpt>
      <trkpt lat="45.82545" lon="4.74788">
        <ele>373.32785</ele>
        <time>2023-11-23T09:45:06.000Z</time>
      </trkpt>
      <trkpt lat="45.82543" lon="4.74785">
        <ele>373.57751</ele>
        <time>2023-11-23T09:45:08.000Z</time>
      </trkpt>
      <trkpt lat="45.82541" lon="4.74783">
        <ele>373.75336</ele>
        <time>2023-11-23T09:45:09.000Z</time>
      </trkpt>
      <trkpt lat="45.82539" lon="4.74781">
        <ele>373.89102</ele>
        <time>2023-11-23T09:45:10.000Z</time>
      </trkpt>
      <trkpt lat="45.82537" lon="4.74779">
        <ele>374.02158</ele>
        <time>2023-11-23T09:45:11.000Z</time>
      </trkpt>
      <trkpt lat="45.82534" lon="4.74777">
        <ele>374.14374</ele>
        <time>2023-11-23T09:45:12.000Z</time>
      </trkpt>
      <trkpt lat="45.82532" lon="4.74775">
        <ele>374.2951</ele>
        <time>2023-11-23T09:45:13.000Z</time>
      </trkpt>
      <trkpt lat="45.82529" lon="4.74773">
        <ele>374.41541</ele>
        <time>2023-11-23T09:45:14.000Z</time>
      </trkpt>
      <trkpt lat="45.82528" lon="4.74771">
        <ele>374.56961</ele>
        <time>2023-11-23T09:45:15.000Z</time>
      </trkpt>
      <trkpt lat="45.82525" lon="4.74768">
        <ele>374.69867</ele>
        <time>2023-11-23T09:45:16.000Z</time>
      </trkpt>
      <trkpt lat="45.82523" lon="4.74765">
        <ele>374.82001</ele>
        <time>2023-11-23T09:45:17.000Z</time>
      </trkpt>
      <trkpt lat="45.82522" lon="4.74762">
        <ele>374.95053</ele>
        <time>2023-11-23T09:45:18.000Z</time>
      </trkpt>
      <trkpt lat="45.82521" lon="4.7476">
        <ele>375.10846</ele>
        <time>2023-11-23T09:45:19.000Z</time>
      </trkpt>
      <trkpt lat="45.82519" lon="4.74757">
        <ele>375.28162</ele>
        <time>2023-11-23T09:45:20.000Z</time>
      </trkpt>
      <trkpt lat="45.82518" lon="4.74755">
        <ele>375.48334</ele>
        <time>2023-11-23T09:45:21.000Z</time>
      </trkpt>
      <trkpt lat="45.82516" lon="4.74752">
        <ele>375.60541</ele>
        <time>2023-11-23T09:45:23.000Z</time>
      </trkpt>
      <trkpt lat="45.82515" lon="4.74748">
        <ele>375.62103</ele>
        <time>2023-11-23T09:45:25.000Z</time>
      </trkpt>
      <trkpt lat="45.82514" lon="4.74745">
        <ele>375.66776</ele>
        <time>2023-11-23T09:45:26.000Z</time>
      </trkpt>
      <trkpt lat="45.82512" lon="4.74743">
        <ele>375.72684</ele>
        <time>2023-11-23T09:45:27.000Z</time>
      </trkpt>
      <trkpt lat="45.82509" lon="4.74743">
        <ele>375.74918</ele>
        <time>2023-11-23T09:45:28.000Z</time>
      </trkpt>
      <trkpt lat="45.82506" lon="4.74743">
        <ele>375.82843</ele>
        <time>2023-11-23T09:45:29.000Z</time>
      </trkpt>
      <trkpt lat="45.82503" lon="4.74743">
        <ele>375.92313</ele>
        <time>2023-11-23T09:45:30.000Z</time>
      </trkpt>
      <trkpt lat="45.825" lon="4.74743">
        <ele>376.05988</ele>
        <time>2023-11-23T09:45:31.000Z</time>
      </trkpt>
      <trkpt lat="45.82497" lon="4.74744">
        <ele>376.20612</ele>
        <time>2023-11-23T09:45:32.000Z</time>
      </trkpt>
      <trkpt lat="45.82494" lon="4.74744">
        <ele>376.25577</ele>
        <time>2023-11-23T09:45:33.000Z</time>
      </trkpt>
      <trkpt lat="45.82492" lon="4.74744">
        <ele>376.30908</ele>
        <time>2023-11-23T09:45:34.000Z</time>
      </trkpt>
      <trkpt lat="45.82489" lon="4.74744">
        <ele>376.40961</ele>
        <time>2023-11-23T09:45:35.000Z</time>
      </trkpt>
      <trkpt lat="45.82486" lon="4.74744">
        <ele>376.55118</ele>
        <time>2023-11-23T09:45:36.000Z</time>
      </trkpt>
      <trkpt lat="45.82484" lon="4.74743">
        <ele>376.68658</ele>
        <time>2023-11-23T09:45:37.000Z</time>
      </trkpt>
      <trkpt lat="45.82481" lon="4.74743">
        <ele>376.82208</ele>
        <time>2023-11-23T09:45:38.000Z</time>
      </trkpt>
      <trkpt lat="45.82478" lon="4.74743">
        <ele>376.91647</ele>
        <time>2023-11-23T09:45:39.000Z</time>
      </trkpt>
      <trkpt lat="45.82476" lon="4.74744">
        <ele>376.99829</ele>
        <time>2023-11-23T09:45:40.000Z</time>
      </trkpt>
      <trkpt lat="45.82473" lon="4.74744">
        <ele>377.01752</ele>
        <time>2023-11-23T09:45:41.000Z</time>
      </trkpt>
      <trkpt lat="45.8247" lon="4.74745">
        <ele>377.01407</ele>
        <time>2023-11-23T09:45:42.000Z</time>
      </trkpt>
      <trkpt lat="45.82467" lon="4.74745">
        <ele>376.97043</ele>
        <time>2023-11-23T09:45:43.000Z</time>
      </trkpt>
      <trkpt lat="45.82464" lon="4.74746">
        <ele>377.01852</ele>
        <time>2023-11-23T09:45:44.000Z</time>
      </trkpt>
      <trkpt lat="45.82461" lon="4.74746">
        <ele>377.08881</ele>
        <time>2023-11-23T09:45:45.000Z</time>
      </trkpt>
      <trkpt lat="45.82458" lon="4.74747">
        <ele>377.16617</ele>
        <time>2023-11-23T09:45:46.000Z</time>
      </trkpt>
      <trkpt lat="45.82456" lon="4.74748">
        <ele>377.25397</ele>
        <time>2023-11-23T09:45:47.000Z</time>
      </trkpt>
      <trkpt lat="45.82454" lon="4.74749">
        <ele>377.36612</ele>
        <time>2023-11-23T09:45:48.000Z</time>
      </trkpt>
      <trkpt lat="45.82451" lon="4.7475">
        <ele>377.47488</ele>
        <time>2023-11-23T09:45:49.000Z</time>
      </trkpt>
      <trkpt lat="45.82448" lon="4.74751">
        <ele>377.50439</ele>
        <time>2023-11-23T09:45:50.000Z</time>
      </trkpt>
      <trkpt lat="45.82444" lon="4.74752">
        <ele>377.58932</ele>
        <time>2023-11-23T09:45:51.000Z</time>
      </trkpt>
      <trkpt lat="45.8244" lon="4.74752">
        <ele>377.6297</ele>
        <time>2023-11-23T09:45:52.000Z</time>
      </trkpt>
      <trkpt lat="45.82437" lon="4.74751">
        <ele>377.74658</ele>
        <time>2023-11-23T09:45:53.000Z</time>
      </trkpt>
      <trkpt lat="45.82433" lon="4.74751">
        <ele>377.85495</ele>
        <time>2023-11-23T09:45:54.000Z</time>
      </trkpt>
      <trkpt lat="45.8243" lon="4.7475">
        <ele>377.91257</ele>
        <time>2023-11-23T09:45:55.000Z</time>
      </trkpt>
      <trkpt lat="45.82426" lon="4.74749">
        <ele>377.93222</ele>
        <time>2023-11-23T09:45:56.000Z</time>
      </trkpt>
      <trkpt lat="45.82423" lon="4.74749">
        <ele>377.95728</ele>
        <time>2023-11-23T09:45:57.000Z</time>
      </trkpt>
      <trkpt lat="45.82421" lon="4.74748">
        <ele>378.03424</ele>
        <time>2023-11-23T09:45:58.000Z</time>
      </trkpt>
      <trkpt lat="45.82419" lon="4.74746">
        <ele>378.13699</ele>
        <time>2023-11-23T09:45:59.000Z</time>
      </trkpt>
      <trkpt lat="45.82417" lon="4.74743">
        <ele>378.24066</ele>
        <time>2023-11-23T09:46:00.000Z</time>
      </trkpt>
      <trkpt lat="45.82416" lon="4.74739">
        <ele>378.35138</ele>
        <time>2023-11-23T09:46:02.000Z</time>
      </trkpt>
      <trkpt lat="45.82415" lon="4.74736">
        <ele>378.45825</ele>
        <time>2023-11-23T09:46:03.000Z</time>
      </trkpt>
      <trkpt lat="45.82414" lon="4.74732">
        <ele>378.57184</ele>
        <time>2023-11-23T09:46:04.000Z</time>
      </trkpt>
      <trkpt lat="45.82413" lon="4.74729">
        <ele>378.61639</ele>
        <time>2023-11-23T09:46:05.000Z</time>
      </trkpt>
      <trkpt lat="45.82413" lon="4.74725">
        <ele>378.68698</ele>
        <time>2023-11-23T09:46:06.000Z</time>
      </trkpt>
      <trkpt lat="45.82413" lon="4.74721">
        <ele>378.75775</ele>
        <time>2023-11-23T09:46:07.000Z</time>
      </trkpt>
      <trkpt lat="45.82413" lon="4.74717">
        <ele>378.81979</ele>
        <time>2023-11-23T09:46:08.000Z</time>
      </trkpt>
      <trkpt lat="45.82414" lon="4.74712">
        <ele>378.88629</ele>
        <time>2023-11-23T09:46:09.000Z</time>
      </trkpt>
      <trkpt lat="45.82415" lon="4.74708">
        <ele>378.29749</ele>
        <time>2023-11-23T09:46:10.000Z</time>
      </trkpt>
      <trkpt lat="45.82416" lon="4.74704">
        <ele>377.73123</ele>
        <time>2023-11-23T09:46:11.000Z</time>
      </trkpt>
      <trkpt lat="45.82417" lon="4.74699">
        <ele>377.10367</ele>
        <time>2023-11-23T09:46:12.000Z</time>
      </trkpt>
      <trkpt lat="45.82417" lon="4.74695">
        <ele>376.51614</ele>
        <time>2023-11-23T09:46:13.000Z</time>
      </trkpt>
      <trkpt lat="45.82419" lon="4.7469">
        <ele>375.89886</ele>
        <time>2023-11-23T09:46:14.000Z</time>
      </trkpt>
      <trkpt lat="45.8242" lon="4.74683">
        <ele>375.2547</ele>
        <time>2023-11-23T09:46:15.000Z</time>
      </trkpt>
      <trkpt lat="45.82422" lon="4.74676">
        <ele>374.57663</ele>
        <time>2023-11-23T09:46:16.000Z</time>
      </trkpt>
      <trkpt lat="45.82424" lon="4.7467">
        <ele>373.89029</ele>
        <time>2023-11-23T09:46:17.000Z</time>
      </trkpt>
      <trkpt lat="45.82427" lon="4.74663">
        <ele>373.16949</ele>
        <time>2023-11-23T09:46:18.000Z</time>
      </trkpt>
      <trkpt lat="45.82429" lon="4.74656">
        <ele>372.40494</ele>
        <time>2023-11-23T09:46:19.000Z</time>
      </trkpt>
      <trkpt lat="45.82431" lon="4.74647">
        <ele>371.93494</ele>
        <time>2023-11-23T09:46:20.000Z</time>
      </trkpt>
      <trkpt lat="45.82432" lon="4.7464">
        <ele>371.31442</ele>
        <time>2023-11-23T09:46:21.000Z</time>
      </trkpt>
      <trkpt lat="45.82435" lon="4.74633">
        <ele>370.65494</ele>
        <time>2023-11-23T09:46:22.000Z</time>
      </trkpt>
      <trkpt lat="45.82436" lon="4.74625">
        <ele>369.84091</ele>
        <time>2023-11-23T09:46:23.000Z</time>
      </trkpt>
      <trkpt lat="45.82436" lon="4.74616">
        <ele>368.91275</ele>
        <time>2023-11-23T09:46:24.000Z</time>
      </trkpt>
      <trkpt lat="45.82434" lon="4.74607">
        <ele>367.95911</ele>
        <time>2023-11-23T09:46:25.000Z</time>
      </trkpt>
      <trkpt lat="45.82434" lon="4.74597">
        <ele>367.28717</ele>
        <time>2023-11-23T09:46:26.000Z</time>
      </trkpt>
      <trkpt lat="45.82433" lon="4.74587">
        <ele>366.51385</ele>
        <time>2023-11-23T09:46:27.000Z</time>
      </trkpt>
      <trkpt lat="45.82435" lon="4.74579">
        <ele>365.76874</ele>
        <time>2023-11-23T09:46:28.000Z</time>
      </trkpt>
      <trkpt lat="45.82437" lon="4.74571">
        <ele>365.01581</ele>
        <time>2023-11-23T09:46:29.000Z</time>
      </trkpt>
      <trkpt lat="45.82441" lon="4.74566">
        <ele>364.90607</ele>
        <time>2023-11-23T09:46:30.000Z</time>
      </trkpt>
      <trkpt lat="45.82444" lon="4.74562">
        <ele>364.81451</ele>
        <time>2023-11-23T09:46:31.000Z</time>
      </trkpt>
      <trkpt lat="45.8245" lon="4.7456">
        <ele>364.71817</ele>
        <time>2023-11-23T09:46:32.000Z</time>
      </trkpt>
      <trkpt lat="45.82454" lon="4.74558">
        <ele>364.61853</ele>
        <time>2023-11-23T09:46:33.000Z</time>
      </trkpt>
      <trkpt lat="45.82459" lon="4.74557">
        <ele>364.54297</ele>
        <time>2023-11-23T09:46:34.000Z</time>
      </trkpt>
      <trkpt lat="45.82463" lon="4.74555">
        <ele>364.45038</ele>
        <time>2023-11-23T09:46:35.000Z</time>
      </trkpt>
      <trkpt lat="45.82467" lon="4.74553">
        <ele>364.36005</ele>
        <time>2023-11-23T09:46:36.000Z</time>
      </trkpt>
      <trkpt lat="45.82471" lon="4.74552">
        <ele>364.31561</ele>
        <time>2023-11-23T09:46:37.000Z</time>
      </trkpt>
      <trkpt lat="45.82476" lon="4.74551">
        <ele>364.26315</ele>
        <time>2023-11-23T09:46:38.000Z</time>
      </trkpt>
      <trkpt lat="45.8248" lon="4.7455">
        <ele>364.24768</ele>
        <time>2023-11-23T09:46:39.000Z</time>
      </trkpt>
      <trkpt lat="45.82484" lon="4.74548">
        <ele>363.95453</ele>
        <time>2023-11-23T09:46:40.000Z</time>
      </trkpt>
      <trkpt lat="45.82488" lon="4.74548">
        <ele>363.80072</ele>
        <time>2023-11-23T09:46:41.000Z</time>
      </trkpt>
      <trkpt lat="45.82491" lon="4.74547">
        <ele>363.69244</ele>
        <time>2023-11-23T09:46:42.000Z</time>
      </trkpt>
      <trkpt lat="45.82494" lon="4.74545">
        <ele>363.56622</ele>
        <time>2023-11-23T09:46:43.000Z</time>
      </trkpt>
      <trkpt lat="45.82498" lon="4.74543">
        <ele>363.43115</ele>
        <time>2023-11-23T09:46:44.000Z</time>
      </trkpt>
      <trkpt lat="45.82501" lon="4.74542">
        <ele>363.31216</ele>
        <time>2023-11-23T09:46:45.000Z</time>
      </trkpt>
      <trkpt lat="45.82504" lon="4.7454">
        <ele>363.16034</ele>
        <time>2023-11-23T09:46:46.000Z</time>
      </trkpt>
      <trkpt lat="45.82507" lon="4.74538">
        <ele>363.06598</ele>
        <time>2023-11-23T09:46:47.000Z</time>
      </trkpt>
      <trkpt lat="45.8251" lon="4.74535">
        <ele>362.95923</ele>
        <time>2023-11-23T09:46:48.000Z</time>
      </trkpt>
      <trkpt lat="45.82514" lon="4.74531">
        <ele>362.86322</ele>
        <time>2023-11-23T09:46:49.000Z</time>
      </trkpt>
      <trkpt lat="45.82519" lon="4.74527">
        <ele>362.75836</ele>
        <time>2023-11-23T09:46:50.000Z</time>
      </trkpt>
      <trkpt lat="45.82522" lon="4.74523">
        <ele>362.67603</ele>
        <time>2023-11-23T09:46:51.000Z</time>
      </trkpt>
      <trkpt lat="45.82526" lon="4.7452">
        <ele>362.62439</ele>
        <time>2023-11-23T09:46:52.000Z</time>
      </trkpt>
      <trkpt lat="45.82531" lon="4.74517">
        <ele>362.5737</ele>
        <time>2023-11-23T09:46:53.000Z</time>
      </trkpt>
      <trkpt lat="45.82534" lon="4.74515">
        <ele>362.51434</ele>
        <time>2023-11-23T09:46:54.000Z</time>
      </trkpt>
      <trkpt lat="45.82538" lon="4.74512">
        <ele>362.46637</ele>
        <time>2023-11-23T09:46:55.000Z</time>
      </trkpt>
      <trkpt lat="45.82541" lon="4.74509">
        <ele>362.42514</ele>
        <time>2023-11-23T09:46:56.000Z</time>
      </trkpt>
      <trkpt lat="45.82544" lon="4.74507">
        <ele>362.37836</ele>
        <time>2023-11-23T09:46:57.000Z</time>
      </trkpt>
      <trkpt lat="45.82547" lon="4.74505">
        <ele>362.36566</ele>
        <time>2023-11-23T09:46:58.000Z</time>
      </trkpt>
      <trkpt lat="45.82549" lon="4.74502">
        <ele>362.31168</ele>
        <time>2023-11-23T09:46:59.000Z</time>
      </trkpt>
      <trkpt lat="45.82553" lon="4.745">
        <ele>362.26071</ele>
        <time>2023-11-23T09:47:00.000Z</time>
      </trkpt>
      <trkpt lat="45.82558" lon="4.74497">
        <ele>362.19183</ele>
        <time>2023-11-23T09:47:01.000Z</time>
      </trkpt>
      <trkpt lat="45.82561" lon="4.74494">
        <ele>361.72845</ele>
        <time>2023-11-23T09:47:02.000Z</time>
      </trkpt>
      <trkpt lat="45.82564" lon="4.74491">
        <ele>361.64905</ele>
        <time>2023-11-23T09:47:03.000Z</time>
      </trkpt>
      <trkpt lat="45.82567" lon="4.74488">
        <ele>361.66376</ele>
        <time>2023-11-23T09:47:04.000Z</time>
      </trkpt>
      <trkpt lat="45.82571" lon="4.74484">
        <ele>361.64005</ele>
        <time>2023-11-23T09:47:05.000Z</time>
      </trkpt>
      <trkpt lat="45.82574" lon="4.7448">
        <ele>361.39401</ele>
        <time>2023-11-23T09:47:06.000Z</time>
      </trkpt>
      <trkpt lat="45.82576" lon="4.74477">
        <ele>360.78522</ele>
        <time>2023-11-23T09:47:07.000Z</time>
      </trkpt>
      <trkpt lat="45.82578" lon="4.74473">
        <ele>360.29114</ele>
        <time>2023-11-23T09:47:08.000Z</time>
      </trkpt>
      <trkpt lat="45.8258" lon="4.7447">
        <ele>359.72766</ele>
        <time>2023-11-23T09:47:10.000Z</time>
      </trkpt>
      <trkpt lat="45.82581" lon="4.74466">
        <ele>359.0289</ele>
        <time>2023-11-23T09:47:11.000Z</time>
      </trkpt>
      <trkpt lat="45.82582" lon="4.74461">
        <ele>358.23535</ele>
        <time>2023-11-23T09:47:12.000Z</time>
      </trkpt>
      <trkpt lat="45.82583" lon="4.74452">
        <ele>357.71051</ele>
        <time>2023-11-23T09:47:13.000Z</time>
      </trkpt>
      <trkpt lat="45.82584" lon="4.74444">
        <ele>357.19577</ele>
        <time>2023-11-23T09:47:14.000Z</time>
      </trkpt>
      <trkpt lat="45.82583" lon="4.74434">
        <ele>356.68787</ele>
        <time>2023-11-23T09:47:15.000Z</time>
      </trkpt>
      <trkpt lat="45.82584" lon="4.74423">
        <ele>356.15567</ele>
        <time>2023-11-23T09:47:16.000Z</time>
      </trkpt>
      <trkpt lat="45.82585" lon="4.74413">
        <ele>355.65976</ele>
        <time>2023-11-23T09:47:17.000Z</time>
      </trkpt>
      <trkpt lat="45.82585" lon="4.74402">
        <ele>355.16522</ele>
        <time>2023-11-23T09:47:18.000Z</time>
      </trkpt>
      <trkpt lat="45.82587" lon="4.7439">
        <ele>354.56653</ele>
        <time>2023-11-23T09:47:19.000Z</time>
      </trkpt>
      <trkpt lat="45.82587" lon="4.74378">
        <ele>353.42773</ele>
        <time>2023-11-23T09:47:20.000Z</time>
      </trkpt>
      <trkpt lat="45.82587" lon="4.74366">
        <ele>352.67841</ele>
        <time>2023-11-23T09:47:21.000Z</time>
      </trkpt>
      <trkpt lat="45.82587" lon="4.74354">
        <ele>351.83878</ele>
        <time>2023-11-23T09:47:22.000Z</time>
      </trkpt>
      <trkpt lat="45.82587" lon="4.74342">
        <ele>351.40024</ele>
        <time>2023-11-23T09:47:23.000Z</time>
      </trkpt>
      <trkpt lat="45.82587" lon="4.74332">
        <ele>350.71213</ele>
        <time>2023-11-23T09:47:24.000Z</time>
      </trkpt>
      <trkpt lat="45.82589" lon="4.7432">
        <ele>350.0368</ele>
        <time>2023-11-23T09:47:25.000Z</time>
      </trkpt>
      <trkpt lat="45.8259" lon="4.7431">
        <ele>349.41168</ele>
        <time>2023-11-23T09:47:26.000Z</time>
      </trkpt>
      <trkpt lat="45.82592" lon="4.743">
        <ele>348.71872</ele>
        <time>2023-11-23T09:47:27.000Z</time>
      </trkpt>
      <trkpt lat="45.82593" lon="4.74292">
        <ele>348.43582</ele>
        <time>2023-11-23T09:47:28.000Z</time>
      </trkpt>
      <trkpt lat="45.82595" lon="4.74284">
        <ele>348.02509</ele>
        <time>2023-11-23T09:47:29.000Z</time>
      </trkpt>
      <trkpt lat="45.82596" lon="4.74277">
        <ele>347.65643</ele>
        <time>2023-11-23T09:47:30.000Z</time>
      </trkpt>
      <trkpt lat="45.82598" lon="4.7427">
        <ele>347.4043</ele>
        <time>2023-11-23T09:47:31.000Z</time>
      </trkpt>
      <trkpt lat="45.826" lon="4.74264">
        <ele>347.18195</ele>
        <time>2023-11-23T09:47:32.000Z</time>
      </trkpt>
      <trkpt lat="45.82601" lon="4.74257">
        <ele>346.66833</ele>
        <time>2023-11-23T09:47:33.000Z</time>
      </trkpt>
      <trkpt lat="45.82602" lon="4.7425">
        <ele>346.14429</ele>
        <time>2023-11-23T09:47:34.000Z</time>
      </trkpt>
      <trkpt lat="45.82603" lon="4.74245">
        <ele>345.59094</ele>
        <time>2023-11-23T09:47:35.000Z</time>
      </trkpt>
      <trkpt lat="45.82604" lon="4.7424">
        <ele>345.05518</ele>
        <time>2023-11-23T09:47:36.000Z</time>
      </trkpt>
      <trkpt lat="45.82606" lon="4.74234">
        <ele>344.49438</ele>
        <time>2023-11-23T09:47:37.000Z</time>
      </trkpt>
      <trkpt lat="45.82607" lon="4.74229">
        <ele>343.78586</ele>
        <time>2023-11-23T09:47:38.000Z</time>
      </trkpt>
      <trkpt lat="45.82608" lon="4.74224">
        <ele>343.08392</ele>
        <time>2023-11-23T09:47:39.000Z</time>
      </trkpt>
      <trkpt lat="45.82608" lon="4.74218">
        <ele>342.92688</ele>
        <time>2023-11-23T09:47:40.000Z</time>
      </trkpt>
      <trkpt lat="45.82609" lon="4.74213">
        <ele>342.35626</ele>
        <time>2023-11-23T09:47:41.000Z</time>
      </trkpt>
      <trkpt lat="45.82609" lon="4.74209">
        <ele>342.28262</ele>
        <time>2023-11-23T09:47:42.000Z</time>
      </trkpt>
      <trkpt lat="45.82609" lon="4.74205">
        <ele>342.12396</ele>
        <time>2023-11-23T09:47:43.000Z</time>
      </trkpt>
      <trkpt lat="45.82609" lon="4.74201">
        <ele>341.99884</ele>
        <time>2023-11-23T09:47:44.000Z</time>
      </trkpt>
      <trkpt lat="45.82609" lon="4.74198">
        <ele>341.86111</ele>
        <time>2023-11-23T09:47:45.000Z</time>
      </trkpt>
      <trkpt lat="45.82611" lon="4.74194">
        <ele>341.63727</ele>
        <time>2023-11-23T09:47:56.000Z</time>
      </trkpt>
      <trkpt lat="45.82611" lon="4.7419">
        <ele>341.43677</ele>
        <time>2023-11-23T09:47:58.000Z</time>
      </trkpt>
      <trkpt lat="45.82613" lon="4.74186">
        <ele>341.25049</ele>
        <time>2023-11-23T09:48:00.000Z</time>
      </trkpt>
      <trkpt lat="45.82613" lon="4.74183">
        <ele>341.03778</ele>
        <time>2023-11-23T09:48:01.000Z</time>
      </trkpt>
      <trkpt lat="45.82614" lon="4.7418">
        <ele>340.85165</ele>
        <time>2023-11-23T09:48:02.000Z</time>
      </trkpt>
      <trkpt lat="45.82614" lon="4.74176">
        <ele>340.66342</ele>
        <time>2023-11-23T09:48:03.000Z</time>
      </trkpt>
      <trkpt lat="45.82614" lon="4.74172">
        <ele>340.51984</ele>
        <time>2023-11-23T09:48:04.000Z</time>
      </trkpt>
      <trkpt lat="45.82614" lon="4.74169">
        <ele>340.40225</ele>
        <time>2023-11-23T09:48:05.000Z</time>
      </trkpt>
      <trkpt lat="45.82614" lon="4.74165">
        <ele>340.30035</ele>
        <time>2023-11-23T09:48:06.000Z</time>
      </trkpt>
      <trkpt lat="45.82614" lon="4.74161">
        <ele>340.19641</ele>
        <time>2023-11-23T09:48:07.000Z</time>
      </trkpt>
      <trkpt lat="45.82614" lon="4.74157">
        <ele>340.13</ele>
        <time>2023-11-23T09:48:08.000Z</time>
      </trkpt>
      <trkpt lat="45.82614" lon="4.74152">
        <ele>340.07333</ele>
        <time>2023-11-23T09:48:09.000Z</time>
      </trkpt>
      <trkpt lat="45.82614" lon="4.74147">
        <ele>340.16043</ele>
        <time>2023-11-23T09:48:10.000Z</time>
      </trkpt>
      <trkpt lat="45.82614" lon="4.74142">
        <ele>340.32657</ele>
        <time>2023-11-23T09:48:11.000Z</time>
      </trkpt>
      <trkpt lat="45.82613" lon="4.74136">
        <ele>340.50629</ele>
        <time>2023-11-23T09:48:12.000Z</time>
      </trkpt>
      <trkpt lat="45.82613" lon="4.7413">
        <ele>341.00351</ele>
        <time>2023-11-23T09:48:13.000Z</time>
      </trkpt>
      <trkpt lat="45.82613" lon="4.74124">
        <ele>341.10309</ele>
        <time>2023-11-23T09:48:14.000Z</time>
      </trkpt>
      <trkpt lat="45.82612" lon="4.74119">
        <ele>341.24622</ele>
        <time>2023-11-23T09:48:15.000Z</time>
      </trkpt>
      <trkpt lat="45.82611" lon="4.74114">
        <ele>341.37689</ele>
        <time>2023-11-23T09:48:16.000Z</time>
      </trkpt>
      <trkpt lat="45.82611" lon="4.74109">
        <ele>341.49747</ele>
        <time>2023-11-23T09:48:17.000Z</time>
      </trkpt>
      <trkpt lat="45.82611" lon="4.74103">
        <ele>341.70877</ele>
        <time>2023-11-23T09:48:18.000Z</time>
      </trkpt>
      <trkpt lat="45.82611" lon="4.74096">
        <ele>341.91132</ele>
        <time>2023-11-23T09:48:19.000Z</time>
      </trkpt>
      <trkpt lat="45.82611" lon="4.74089">
        <ele>342.08173</ele>
        <time>2023-11-23T09:48:20.000Z</time>
      </trkpt>
      <trkpt lat="45.8261" lon="4.74081">
        <ele>342.23242</ele>
        <time>2023-11-23T09:48:21.000Z</time>
      </trkpt>
      <trkpt lat="45.82609" lon="4.74074">
        <ele>342.3429</ele>
        <time>2023-11-23T09:48:22.000Z</time>
      </trkpt>
      <trkpt lat="45.82609" lon="4.74064">
        <ele>342.44659</ele>
        <time>2023-11-23T09:48:23.000Z</time>
      </trkpt>
      <trkpt lat="45.82609" lon="4.74055">
        <ele>342.61499</ele>
        <time>2023-11-23T09:48:24.000Z</time>
      </trkpt>
      <trkpt lat="45.82609" lon="4.74046">
        <ele>342.72525</ele>
        <time>2023-11-23T09:48:25.000Z</time>
      </trkpt>
      <trkpt lat="45.8261" lon="4.74036">
        <ele>342.81549</ele>
        <time>2023-11-23T09:48:26.000Z</time>
      </trkpt>
      <trkpt lat="45.8261" lon="4.74025">
        <ele>342.89859</ele>
        <time>2023-11-23T09:48:27.000Z</time>
      </trkpt>
      <trkpt lat="45.82608" lon="4.74015">
        <ele>342.61691</ele>
        <time>2023-11-23T09:48:28.000Z</time>
      </trkpt>
      <trkpt lat="45.82605" lon="4.74005">
        <ele>342.33624</ele>
        <time>2023-11-23T09:48:29.000Z</time>
      </trkpt>
      <trkpt lat="45.82603" lon="4.73996">
        <ele>341.99393</ele>
        <time>2023-11-23T09:48:30.000Z</time>
      </trkpt>
      <trkpt lat="45.826" lon="4.73986">
        <ele>341.64056</ele>
        <time>2023-11-23T09:48:31.000Z</time>
      </trkpt>
      <trkpt lat="45.82597" lon="4.73976">
        <ele>341.26227</ele>
        <time>2023-11-23T09:48:32.000Z</time>
      </trkpt>
      <trkpt lat="45.82595" lon="4.73966">
        <ele>340.53146</ele>
        <time>2023-11-23T09:48:33.000Z</time>
      </trkpt>
      <trkpt lat="45.82593" lon="4.73956">
        <ele>339.73572</ele>
        <time>2023-11-23T09:48:34.000Z</time>
      </trkpt>
      <trkpt lat="45.8259" lon="4.73947">
        <ele>338.9314</ele>
        <time>2023-11-23T09:48:35.000Z</time>
      </trkpt>
      <trkpt lat="45.82588" lon="4.73937">
        <ele>338.1474</ele>
        <time>2023-11-23T09:48:36.000Z</time>
      </trkpt>
      <trkpt lat="45.82586" lon="4.73928">
        <ele>337.40298</ele>
        <time>2023-11-23T09:48:37.000Z</time>
      </trkpt>
      <trkpt lat="45.82586" lon="4.73919">
        <ele>336.58578</ele>
        <time>2023-11-23T09:48:38.000Z</time>
      </trkpt>
      <trkpt lat="45.82584" lon="4.73911">
        <ele>335.77594</ele>
        <time>2023-11-23T09:48:39.000Z</time>
      </trkpt>
      <trkpt lat="45.82583" lon="4.73903">
        <ele>334.96579</ele>
        <time>2023-11-23T09:48:40.000Z</time>
      </trkpt>
      <trkpt lat="45.82581" lon="4.73895">
        <ele>334.20584</ele>
        <time>2023-11-23T09:48:41.000Z</time>
      </trkpt>
      <trkpt lat="45.8258" lon="4.73888">
        <ele>333.3873</ele>
        <time>2023-11-23T09:48:42.000Z</time>
      </trkpt>
      <trkpt lat="45.82579" lon="4.73881">
        <ele>332.56396</ele>
        <time>2023-11-23T09:48:43.000Z</time>
      </trkpt>
      <trkpt lat="45.82577" lon="4.73874">
        <ele>331.68427</ele>
        <time>2023-11-23T09:48:44.000Z</time>
      </trkpt>
      <trkpt lat="45.82576" lon="4.73868">
        <ele>330.80426</ele>
        <time>2023-11-23T09:48:45.000Z</time>
      </trkpt>
      <trkpt lat="45.82575" lon="4.73861">
        <ele>329.95462</ele>
        <time>2023-11-23T09:48:46.000Z</time>
      </trkpt>
      <trkpt lat="45.82573" lon="4.73856">
        <ele>329.10431</ele>
        <time>2023-11-23T09:48:47.000Z</time>
      </trkpt>
      <trkpt lat="45.8257" lon="4.73851">
        <ele>328.81195</ele>
        <time>2023-11-23T09:48:48.000Z</time>
      </trkpt>
      <trkpt lat="45.82566" lon="4.73848">
        <ele>328.495</ele>
        <time>2023-11-23T09:48:49.000Z</time>
      </trkpt>
      <trkpt lat="45.82563" lon="4.73845">
        <ele>328.20673</ele>
        <time>2023-11-23T09:48:50.000Z</time>
      </trkpt>
      <trkpt lat="45.82559" lon="4.73842">
        <ele>327.93219</ele>
        <time>2023-11-23T09:48:51.000Z</time>
      </trkpt>
      <trkpt lat="45.82557" lon="4.73837">
        <ele>327.65979</ele>
        <time>2023-11-23T09:48:52.000Z</time>
      </trkpt>
      <trkpt lat="45.82557" lon="4.7383">
        <ele>327.44464</ele>
        <time>2023-11-23T09:48:53.000Z</time>
      </trkpt>
      <trkpt lat="45.82557" lon="4.73823">
        <ele>327.30063</ele>
        <time>2023-11-23T09:48:54.000Z</time>
      </trkpt>
      <trkpt lat="45.82559" lon="4.73818">
        <ele>327.20636</ele>
        <time>2023-11-23T09:48:55.000Z</time>
      </trkpt>
      <trkpt lat="45.8256" lon="4.73812">
        <ele>327.10052</ele>
        <time>2023-11-23T09:48:56.000Z</time>
      </trkpt>
      <trkpt lat="45.82562" lon="4.73809">
        <ele>326.98746</ele>
        <time>2023-11-23T09:48:57.000Z</time>
      </trkpt>
      <trkpt lat="45.82563" lon="4.73804">
        <ele>326.98404</ele>
        <time>2023-11-23T09:48:58.000Z</time>
      </trkpt>
      <trkpt lat="45.82565" lon="4.738">
        <ele>326.96234</ele>
        <time>2023-11-23T09:48:59.000Z</time>
      </trkpt>
      <trkpt lat="45.82566" lon="4.73795">
        <ele>326.94305</ele>
        <time>2023-11-23T09:49:00.000Z</time>
      </trkpt>
      <trkpt lat="45.82568" lon="4.73791">
        <ele>326.92438</ele>
        <time>2023-11-23T09:49:01.000Z</time>
      </trkpt>
      <trkpt lat="45.8257" lon="4.73787">
        <ele>326.98859</ele>
        <time>2023-11-23T09:49:02.000Z</time>
      </trkpt>
      <trkpt lat="45.82571" lon="4.73782">
        <ele>327.06592</ele>
        <time>2023-11-23T09:49:03.000Z</time>
      </trkpt>
      <trkpt lat="45.82571" lon="4.73777">
        <ele>327.01385</ele>
        <time>2023-11-23T09:49:04.000Z</time>
      </trkpt>
      <trkpt lat="45.82573" lon="4.73772">
        <ele>326.91574</ele>
        <time>2023-11-23T09:49:05.000Z</time>
      </trkpt>
      <trkpt lat="45.82573" lon="4.73766">
        <ele>326.78085</ele>
        <time>2023-11-23T09:49:06.000Z</time>
      </trkpt>
      <trkpt lat="45.82575" lon="4.73761">
        <ele>326.64633</ele>
        <time>2023-11-23T09:49:07.000Z</time>
      </trkpt>
      <trkpt lat="45.82577" lon="4.73756">
        <ele>326.6546</ele>
        <time>2023-11-23T09:49:08.000Z</time>
      </trkpt>
      <trkpt lat="45.8258" lon="4.73752">
        <ele>326.68256</ele>
        <time>2023-11-23T09:49:09.000Z</time>
      </trkpt>
      <trkpt lat="45.82583" lon="4.73748">
        <ele>326.73965</ele>
        <time>2023-11-23T09:49:10.000Z</time>
      </trkpt>
      <trkpt lat="45.82585" lon="4.73744">
        <ele>326.8067</ele>
        <time>2023-11-23T09:49:11.000Z</time>
      </trkpt>
      <trkpt lat="45.82587" lon="4.73741">
        <ele>326.89301</ele>
        <time>2023-11-23T09:49:12.000Z</time>
      </trkpt>
      <trkpt lat="45.8259" lon="4.73737">
        <ele>326.86652</ele>
        <time>2023-11-23T09:49:13.000Z</time>
      </trkpt>
      <trkpt lat="45.82593" lon="4.73734">
        <ele>326.87781</ele>
        <time>2023-11-23T09:49:14.000Z</time>
      </trkpt>
      <trkpt lat="45.82595" lon="4.73731">
        <ele>326.91888</ele>
        <time>2023-11-23T09:49:15.000Z</time>
      </trkpt>
      <trkpt lat="45.82598" lon="4.73729">
        <ele>326.95773</ele>
        <time>2023-11-23T09:49:16.000Z</time>
      </trkpt>
      <trkpt lat="45.82601" lon="4.73727">
        <ele>327.02139</ele>
        <time>2023-11-23T09:49:17.000Z</time>
      </trkpt>
      <trkpt lat="45.82604" lon="4.73725">
        <ele>327.05362</ele>
        <time>2023-11-23T09:49:18.000Z</time>
      </trkpt>
      <trkpt lat="45.82607" lon="4.73722">
        <ele>327.12543</ele>
        <time>2023-11-23T09:49:19.000Z</time>
      </trkpt>
      <trkpt lat="45.8261" lon="4.7372">
        <ele>327.2131</ele>
        <time>2023-11-23T09:49:20.000Z</time>
      </trkpt>
      <trkpt lat="45.82612" lon="4.73719">
        <ele>327.159</ele>
        <time>2023-11-23T09:49:21.000Z</time>
      </trkpt>
      <trkpt lat="45.82615" lon="4.73719">
        <ele>327.14441</ele>
        <time>2023-11-23T09:49:22.000Z</time>
      </trkpt>
      <trkpt lat="45.82618" lon="4.73721">
        <ele>327.10849</ele>
        <time>2023-11-23T09:49:23.000Z</time>
      </trkpt>
      <trkpt lat="45.82621" lon="4.73723">
        <ele>327.4332</ele>
        <time>2023-11-23T09:49:24.000Z</time>
      </trkpt>
      <trkpt lat="45.82623" lon="4.73723">
        <ele>327.80304</ele>
        <time>2023-11-23T09:49:25.000Z</time>
      </trkpt>
      <trkpt lat="45.82625" lon="4.73722">
        <ele>328.19708</ele>
        <time>2023-11-23T09:49:26.000Z</time>
      </trkpt>
      <trkpt lat="45.82628" lon="4.73721">
        <ele>328.60074</ele>
        <time>2023-11-23T09:49:27.000Z</time>
      </trkpt>
      <trkpt lat="45.8263" lon="4.7372">
        <ele>328.68188</ele>
        <time>2023-11-23T09:49:28.000Z</time>
      </trkpt>
      <trkpt lat="45.82632" lon="4.73719">
        <ele>328.76907</ele>
        <time>2023-11-23T09:49:29.000Z</time>
      </trkpt>
      <trkpt lat="45.82635" lon="4.7372">
        <ele>328.86432</ele>
        <time>2023-11-23T09:49:30.000Z</time>
      </trkpt>
      <trkpt lat="45.82638" lon="4.7372">
        <ele>328.94626</ele>
        <time>2023-11-23T09:49:31.000Z</time>
      </trkpt>
      <trkpt lat="45.8264" lon="4.73721">
        <ele>329.01483</ele>
        <time>2023-11-23T09:49:32.000Z</time>
      </trkpt>
      <trkpt lat="45.82643" lon="4.73721">
        <ele>329.18933</ele>
        <time>2023-11-23T09:49:33.000Z</time>
      </trkpt>
      <trkpt lat="45.82646" lon="4.73722">
        <ele>329.32513</ele>
        <time>2023-11-23T09:49:34.000Z</time>
      </trkpt>
      <trkpt lat="45.82649" lon="4.73722">
        <ele>329.43195</ele>
        <time>2023-11-23T09:49:35.000Z</time>
      </trkpt>
      <trkpt lat="45.82652" lon="4.73722">
        <ele>329.54865</ele>
        <time>2023-11-23T09:49:36.000Z</time>
      </trkpt>
      <trkpt lat="45.82655" lon="4.73721">
        <ele>329.62598</ele>
        <time>2023-11-23T09:49:37.000Z</time>
      </trkpt>
      <trkpt lat="45.82658" lon="4.7372">
        <ele>329.73059</ele>
        <time>2023-11-23T09:49:38.000Z</time>
      </trkpt>
      <trkpt lat="45.8266" lon="4.73719">
        <ele>329.78815</ele>
        <time>2023-11-23T09:49:39.000Z</time>
      </trkpt>
      <trkpt lat="45.82663" lon="4.73717">
        <ele>329.84344</ele>
        <time>2023-11-23T09:49:40.000Z</time>
      </trkpt>
      <trkpt lat="45.82666" lon="4.73715">
        <ele>330.05035</ele>
        <time>2023-11-23T09:49:41.000Z</time>
      </trkpt>
      <trkpt lat="45.82668" lon="4.73713">
        <ele>330.27554</ele>
        <time>2023-11-23T09:49:42.000Z</time>
      </trkpt>
      <trkpt lat="45.82671" lon="4.73711">
        <ele>330.54733</ele>
        <time>2023-11-23T09:49:43.000Z</time>
      </trkpt>
      <trkpt lat="45.82673" lon="4.73709">
        <ele>330.60651</ele>
        <time>2023-11-23T09:49:44.000Z</time>
      </trkpt>
      <trkpt lat="45.82676" lon="4.73707">
        <ele>330.70804</ele>
        <time>2023-11-23T09:49:45.000Z</time>
      </trkpt>
      <trkpt lat="45.82678" lon="4.73705">
        <ele>330.7951</ele>
        <time>2023-11-23T09:49:46.000Z</time>
      </trkpt>
      <trkpt lat="45.82681" lon="4.73702">
        <ele>330.89172</ele>
        <time>2023-11-23T09:49:47.000Z</time>
      </trkpt>
      <trkpt lat="45.82683" lon="4.737">
        <ele>330.79874</ele>
        <time>2023-11-23T09:49:48.000Z</time>
      </trkpt>
      <trkpt lat="45.82686" lon="4.73698">
        <ele>330.64166</ele>
        <time>2023-11-23T09:49:49.000Z</time>
      </trkpt>
      <trkpt lat="45.82688" lon="4.73696">
        <ele>330.71841</ele>
        <time>2023-11-23T09:49:50.000Z</time>
      </trkpt>
      <trkpt lat="45.82691" lon="4.73694">
        <ele>330.7569</ele>
        <time>2023-11-23T09:49:51.000Z</time>
      </trkpt>
      <trkpt lat="45.82693" lon="4.73692">
        <ele>330.8255</ele>
        <time>2023-11-23T09:49:52.000Z</time>
      </trkpt>
      <trkpt lat="45.82695" lon="4.7369">
        <ele>330.91351</ele>
        <time>2023-11-23T09:49:53.000Z</time>
      </trkpt>
      <trkpt lat="45.82698" lon="4.73689">
        <ele>331.03265</ele>
        <time>2023-11-23T09:49:54.000Z</time>
      </trkpt>
      <trkpt lat="45.827" lon="4.73686">
        <ele>331.1503</ele>
        <time>2023-11-23T09:49:55.000Z</time>
      </trkpt>
      <trkpt lat="45.82703" lon="4.73684">
        <ele>331.28326</ele>
        <time>2023-11-23T09:49:56.000Z</time>
      </trkpt>
      <trkpt lat="45.82705" lon="4.73682">
        <ele>331.42618</ele>
        <time>2023-11-23T09:49:57.000Z</time>
      </trkpt>
      <trkpt lat="45.82708" lon="4.7368">
        <ele>331.57123</ele>
        <time>2023-11-23T09:49:58.000Z</time>
      </trkpt>
      <trkpt lat="45.82711" lon="4.73677">
        <ele>331.73059</ele>
        <time>2023-11-23T09:49:59.000Z</time>
      </trkpt>
      <trkpt lat="45.82714" lon="4.73675">
        <ele>331.86105</ele>
        <time>2023-11-23T09:50:00.000Z</time>
      </trkpt>
      <trkpt lat="45.82716" lon="4.73672">
        <ele>331.97949</ele>
        <time>2023-11-23T09:50:01.000Z</time>
      </trkpt>
      <trkpt lat="45.82719" lon="4.73669">
        <ele>332.03705</ele>
        <time>2023-11-23T09:50:02.000Z</time>
      </trkpt>
      <trkpt lat="45.82722" lon="4.73666">
        <ele>332.07339</ele>
        <time>2023-11-23T09:50:03.000Z</time>
      </trkpt>
      <trkpt lat="45.82725" lon="4.73663">
        <ele>332.05292</ele>
        <time>2023-11-23T09:50:04.000Z</time>
      </trkpt>
      <trkpt lat="45.82729" lon="4.7366">
        <ele>332.0246</ele>
        <time>2023-11-23T09:50:05.000Z</time>
      </trkpt>
      <trkpt lat="45.82732" lon="4.73656">
        <ele>331.85156</ele>
        <time>2023-11-23T09:50:06.000Z</time>
      </trkpt>
      <trkpt lat="45.82735" lon="4.73653">
        <ele>331.68649</ele>
        <time>2023-11-23T09:50:07.000Z</time>
      </trkpt>
      <trkpt lat="45.82739" lon="4.73649">
        <ele>331.69577</ele>
        <time>2023-11-23T09:50:08.000Z</time>
      </trkpt>
      <trkpt lat="45.82742" lon="4.73646">
        <ele>331.77496</ele>
        <time>2023-11-23T09:50:09.000Z</time>
      </trkpt>
      <trkpt lat="45.82745" lon="4.73643">
        <ele>331.6062</ele>
        <time>2023-11-23T09:50:10.000Z</time>
      </trkpt>
      <trkpt lat="45.82748" lon="4.73639">
        <ele>331.47513</ele>
        <time>2023-11-23T09:50:11.000Z</time>
      </trkpt>
      <trkpt lat="45.82751" lon="4.73636">
        <ele>331.32709</ele>
        <time>2023-11-23T09:50:12.000Z</time>
      </trkpt>
      <trkpt lat="45.82754" lon="4.73633">
        <ele>331.13327</ele>
        <time>2023-11-23T09:50:13.000Z</time>
      </trkpt>
      <trkpt lat="45.82757" lon="4.7363">
        <ele>331.13843</ele>
        <time>2023-11-23T09:50:14.000Z</time>
      </trkpt>
      <trkpt lat="45.82761" lon="4.73626">
        <ele>331.07208</ele>
        <time>2023-11-23T09:50:15.000Z</time>
      </trkpt>
      <trkpt lat="45.82765" lon="4.73621">
        <ele>330.98245</ele>
        <time>2023-11-23T09:50:16.000Z</time>
      </trkpt>
      <trkpt lat="45.82769" lon="4.73617">
        <ele>330.90714</ele>
        <time>2023-11-23T09:50:17.000Z</time>
      </trkpt>
      <trkpt lat="45.82772" lon="4.73612">
        <ele>330.75787</ele>
        <time>2023-11-23T09:50:18.000Z</time>
      </trkpt>
      <trkpt lat="45.82776" lon="4.73607">
        <ele>330.59622</ele>
        <time>2023-11-23T09:50:19.000Z</time>
      </trkpt>
      <trkpt lat="45.8278" lon="4.73602">
        <ele>330.43756</ele>
        <time>2023-11-23T09:50:20.000Z</time>
      </trkpt>
      <trkpt lat="45.82786" lon="4.73596">
        <ele>330.26471</ele>
        <time>2023-11-23T09:50:21.000Z</time>
      </trkpt>
      <trkpt lat="45.82791" lon="4.73592">
        <ele>329.99762</ele>
        <time>2023-11-23T09:50:22.000Z</time>
      </trkpt>
      <trkpt lat="45.82795" lon="4.73587">
        <ele>329.94061</ele>
        <time>2023-11-23T09:50:23.000Z</time>
      </trkpt>
      <trkpt lat="45.82799" lon="4.73581">
        <ele>329.86929</ele>
        <time>2023-11-23T09:50:24.000Z</time>
      </trkpt>
      <trkpt lat="45.82805" lon="4.73575">
        <ele>329.75528</ele>
        <time>2023-11-23T09:50:25.000Z</time>
      </trkpt>
      <trkpt lat="45.82809" lon="4.73571">
        <ele>329.96448</ele>
        <time>2023-11-23T09:50:26.000Z</time>
      </trkpt>
      <trkpt lat="45.82814" lon="4.73564">
        <ele>330.16943</ele>
        <time>2023-11-23T09:50:27.000Z</time>
      </trkpt>
      <trkpt lat="45.8282" lon="4.73559">
        <ele>330.06357</ele>
        <time>2023-11-23T09:50:28.000Z</time>
      </trkpt>
      <trkpt lat="45.82826" lon="4.73552">
        <ele>330.06976</ele>
        <time>2023-11-23T09:50:29.000Z</time>
      </trkpt>
      <trkpt lat="45.82831" lon="4.73545">
        <ele>330.02655</ele>
        <time>2023-11-23T09:50:30.000Z</time>
      </trkpt>
      <trkpt lat="45.82835" lon="4.73538">
        <ele>329.95132</ele>
        <time>2023-11-23T09:50:31.000Z</time>
      </trkpt>
      <trkpt lat="45.8284" lon="4.73532">
        <ele>329.8765</ele>
        <time>2023-11-23T09:50:32.000Z</time>
      </trkpt>
      <trkpt lat="45.82845" lon="4.73527">
        <ele>329.78519</ele>
        <time>2023-11-23T09:50:33.000Z</time>
      </trkpt>
      <trkpt lat="45.82851" lon="4.73522">
        <ele>329.43933</ele>
        <time>2023-11-23T09:50:34.000Z</time>
      </trkpt>
      <trkpt lat="45.82856" lon="4.73516">
        <ele>329.13507</ele>
        <time>2023-11-23T09:50:35.000Z</time>
      </trkpt>
      <trkpt lat="45.8286" lon="4.7351">
        <ele>328.82452</ele>
        <time>2023-11-23T09:50:36.000Z</time>
      </trkpt>
      <trkpt lat="45.82864" lon="4.73504">
        <ele>328.48004</ele>
        <time>2023-11-23T09:50:37.000Z</time>
      </trkpt>
      <trkpt lat="45.82868" lon="4.73499">
        <ele>328.19156</ele>
        <time>2023-11-23T09:50:38.000Z</time>
      </trkpt>
      <trkpt lat="45.82874" lon="4.73493">
        <ele>327.92297</ele>
        <time>2023-11-23T09:50:39.000Z</time>
      </trkpt>
      <trkpt lat="45.82879" lon="4.73488">
        <ele>327.59113</ele>
        <time>2023-11-23T09:50:40.000Z</time>
      </trkpt>
      <trkpt lat="45.82885" lon="4.73483">
        <ele>327.30197</ele>
        <time>2023-11-23T09:50:41.000Z</time>
      </trkpt>
      <trkpt lat="45.82889" lon="4.7348">
        <ele>327.03448</ele>
        <time>2023-11-23T09:50:42.000Z</time>
      </trkpt>
      <trkpt lat="45.82893" lon="4.73476">
        <ele>326.59894</ele>
        <time>2023-11-23T09:50:43.000Z</time>
      </trkpt>
      <trkpt lat="45.82896" lon="4.73471">
        <ele>326.13434</ele>
        <time>2023-11-23T09:50:44.000Z</time>
      </trkpt>
      <trkpt lat="45.82901" lon="4.73467">
        <ele>325.66058</ele>
        <time>2023-11-23T09:50:45.000Z</time>
      </trkpt>
      <trkpt lat="45.82907" lon="4.7346">
        <ele>325.11078</ele>
        <time>2023-11-23T09:50:46.000Z</time>
      </trkpt>
      <trkpt lat="45.82912" lon="4.73456">
        <ele>324.41144</ele>
        <time>2023-11-23T09:50:47.000Z</time>
      </trkpt>
      <trkpt lat="45.82918" lon="4.73451">
        <ele>324.29019</ele>
        <time>2023-11-23T09:50:48.000Z</time>
      </trkpt>
      <trkpt lat="45.82923" lon="4.73446">
        <ele>324.01044</ele>
        <time>2023-11-23T09:50:49.000Z</time>
      </trkpt>
      <trkpt lat="45.82928" lon="4.7344">
        <ele>323.75616</ele>
        <time>2023-11-23T09:50:50.000Z</time>
      </trkpt>
      <trkpt lat="45.82934" lon="4.73434">
        <ele>323.51453</ele>
        <time>2023-11-23T09:50:51.000Z</time>
      </trkpt>
      <trkpt lat="45.82939" lon="4.7343">
        <ele>323.25861</ele>
        <time>2023-11-23T09:50:52.000Z</time>
      </trkpt>
      <trkpt lat="45.82944" lon="4.73425">
        <ele>322.87503</ele>
        <time>2023-11-23T09:50:53.000Z</time>
      </trkpt>
      <trkpt lat="45.82948" lon="4.7342">
        <ele>322.51007</ele>
        <time>2023-11-23T09:50:54.000Z</time>
      </trkpt>
      <trkpt lat="45.82953" lon="4.73415">
        <ele>322.14737</ele>
        <time>2023-11-23T09:50:55.000Z</time>
      </trkpt>
      <trkpt lat="45.82957" lon="4.73411">
        <ele>321.79871</ele>
        <time>2023-11-23T09:50:56.000Z</time>
      </trkpt>
      <trkpt lat="45.82963" lon="4.73408">
        <ele>321.48926</ele>
        <time>2023-11-23T09:50:57.000Z</time>
      </trkpt>
      <trkpt lat="45.82967" lon="4.73404">
        <ele>321.15475</ele>
        <time>2023-11-23T09:50:58.000Z</time>
      </trkpt>
      <trkpt lat="45.82976" lon="4.73401">
        <ele>320.75214</ele>
        <time>2023-11-23T09:50:59.000Z</time>
      </trkpt>
      <trkpt lat="45.82981" lon="4.73396">
        <ele>320.42126</ele>
        <time>2023-11-23T09:51:00.000Z</time>
      </trkpt>
      <trkpt lat="45.82984" lon="4.73392">
        <ele>320.00571</ele>
        <time>2023-11-23T09:51:01.000Z</time>
      </trkpt>
      <trkpt lat="45.8299" lon="4.73388">
        <ele>319.61621</ele>
        <time>2023-11-23T09:51:02.000Z</time>
      </trkpt>
      <trkpt lat="45.82994" lon="4.73384">
        <ele>319.1619</ele>
        <time>2023-11-23T09:51:03.000Z</time>
      </trkpt>
      <trkpt lat="45.82999" lon="4.73381">
        <ele>318.77545</ele>
        <time>2023-11-23T09:51:04.000Z</time>
      </trkpt>
      <trkpt lat="45.83003" lon="4.73377">
        <ele>318.42346</ele>
        <time>2023-11-23T09:51:05.000Z</time>
      </trkpt>
      <trkpt lat="45.83008" lon="4.73373">
        <ele>317.92645</ele>
        <time>2023-11-23T09:51:06.000Z</time>
      </trkpt>
      <trkpt lat="45.83013" lon="4.73368">
        <ele>317.58389</ele>
        <time>2023-11-23T09:51:07.000Z</time>
      </trkpt>
      <trkpt lat="45.83018" lon="4.73364">
        <ele>316.95566</ele>
        <time>2023-11-23T09:51:08.000Z</time>
      </trkpt>
      <trkpt lat="45.83023" lon="4.73359">
        <ele>316.35199</ele>
        <time>2023-11-23T09:51:09.000Z</time>
      </trkpt>
      <trkpt lat="45.83028" lon="4.73353">
        <ele>315.76422</ele>
        <time>2023-11-23T09:51:10.000Z</time>
      </trkpt>
      <trkpt lat="45.83035" lon="4.73348">
        <ele>315.11969</ele>
        <time>2023-11-23T09:51:11.000Z</time>
      </trkpt>
      <trkpt lat="45.8304" lon="4.73344">
        <ele>314.51169</ele>
        <time>2023-11-23T09:51:12.000Z</time>
      </trkpt>
      <trkpt lat="45.83045" lon="4.73339">
        <ele>314.07388</ele>
        <time>2023-11-23T09:51:13.000Z</time>
      </trkpt>
      <trkpt lat="45.83051" lon="4.73335">
        <ele>313.63861</ele>
        <time>2023-11-23T09:51:14.000Z</time>
      </trkpt>
      <trkpt lat="45.83056" lon="4.7333">
        <ele>313.21503</ele>
        <time>2023-11-23T09:51:15.000Z</time>
      </trkpt>
      <trkpt lat="45.83061" lon="4.73324">
        <ele>312.77402</ele>
        <time>2023-11-23T09:51:16.000Z</time>
      </trkpt>
      <trkpt lat="45.83066" lon="4.73318">
        <ele>312.2605</ele>
        <time>2023-11-23T09:51:17.000Z</time>
      </trkpt>
      <trkpt lat="45.8307" lon="4.73313">
        <ele>311.78375</ele>
        <time>2023-11-23T09:51:18.000Z</time>
      </trkpt>
      <trkpt lat="45.83076" lon="4.73308">
        <ele>311.336</ele>
        <time>2023-11-23T09:51:19.000Z</time>
      </trkpt>
      <trkpt lat="45.83082" lon="4.73302">
        <ele>310.88651</ele>
        <time>2023-11-23T09:51:20.000Z</time>
      </trkpt>
      <trkpt lat="45.83087" lon="4.73297">
        <ele>310.46494</ele>
        <time>2023-11-23T09:51:21.000Z</time>
      </trkpt>
      <trkpt lat="45.83092" lon="4.73292">
        <ele>310.08118</ele>
        <time>2023-11-23T09:51:22.000Z</time>
      </trkpt>
      <trkpt lat="45.83098" lon="4.73286">
        <ele>309.69489</ele>
        <time>2023-11-23T09:51:23.000Z</time>
      </trkpt>
      <trkpt lat="45.83103" lon="4.7328">
        <ele>309.29282</ele>
        <time>2023-11-23T09:51:24.000Z</time>
      </trkpt>
      <trkpt lat="45.83107" lon="4.73275">
        <ele>308.88715</ele>
        <time>2023-11-23T09:51:25.000Z</time>
      </trkpt>
      <trkpt lat="45.83111" lon="4.73271">
        <ele>308.53241</ele>
        <time>2023-11-23T09:51:26.000Z</time>
      </trkpt>
      <trkpt lat="45.83116" lon="4.73266">
        <ele>308.17563</ele>
        <time>2023-11-23T09:51:27.000Z</time>
      </trkpt>
      <trkpt lat="45.83119" lon="4.7326">
        <ele>307.8103</ele>
        <time>2023-11-23T09:51:28.000Z</time>
      </trkpt>
      <trkpt lat="45.83122" lon="4.73257">
        <ele>307.46304</ele>
        <time>2023-11-23T09:51:29.000Z</time>
      </trkpt>
      <trkpt lat="45.83127" lon="4.73251">
        <ele>307.13443</ele>
        <time>2023-11-23T09:51:30.000Z</time>
      </trkpt>
      <trkpt lat="45.83132" lon="4.73246">
        <ele>306.89801</ele>
        <time>2023-11-23T09:51:31.000Z</time>
      </trkpt>
      <trkpt lat="45.83136" lon="4.7324">
        <ele>306.68338</ele>
        <time>2023-11-23T09:51:32.000Z</time>
      </trkpt>
      <trkpt lat="45.83141" lon="4.73236">
        <ele>306.44702</ele>
        <time>2023-11-23T09:51:33.000Z</time>
      </trkpt>
      <trkpt lat="45.83144" lon="4.73234">
        <ele>306.2626</ele>
        <time>2023-11-23T09:51:34.000Z</time>
      </trkpt>
      <trkpt lat="45.83149" lon="4.73229">
        <ele>306.01584</ele>
        <time>2023-11-23T09:51:35.000Z</time>
      </trkpt>
      <trkpt lat="45.83154" lon="4.73226">
        <ele>305.67328</ele>
        <time>2023-11-23T09:51:36.000Z</time>
      </trkpt>
      <trkpt lat="45.83158" lon="4.73223">
        <ele>305.36874</ele>
        <time>2023-11-23T09:51:37.000Z</time>
      </trkpt>
      <trkpt lat="45.83161" lon="4.73219">
        <ele>305.04321</ele>
        <time>2023-11-23T09:51:38.000Z</time>
      </trkpt>
      <trkpt lat="45.83166" lon="4.73214">
        <ele>304.75394</ele>
        <time>2023-11-23T09:51:39.000Z</time>
      </trkpt>
      <trkpt lat="45.83169" lon="4.7321">
        <ele>304.46384</ele>
        <time>2023-11-23T09:51:40.000Z</time>
      </trkpt>
      <trkpt lat="45.83174" lon="4.73206">
        <ele>304.1955</ele>
        <time>2023-11-23T09:51:41.000Z</time>
      </trkpt>
      <trkpt lat="45.83179" lon="4.73202">
        <ele>303.94815</ele>
        <time>2023-11-23T09:51:42.000Z</time>
      </trkpt>
      <trkpt lat="45.83183" lon="4.73198">
        <ele>303.73935</ele>
        <time>2023-11-23T09:51:43.000Z</time>
      </trkpt>
      <trkpt lat="45.83187" lon="4.73193">
        <ele>303.56784</ele>
        <time>2023-11-23T09:51:44.000Z</time>
      </trkpt>
      <trkpt lat="45.8319" lon="4.73189">
        <ele>303.4743</ele>
        <time>2023-11-23T09:51:45.000Z</time>
      </trkpt>
      <trkpt lat="45.83193" lon="4.73186">
        <ele>303.38712</ele>
        <time>2023-11-23T09:51:46.000Z</time>
      </trkpt>
      <trkpt lat="45.83196" lon="4.7318">
        <ele>303.2822</ele>
        <time>2023-11-23T09:51:47.000Z</time>
      </trkpt>
      <trkpt lat="45.83197" lon="4.73174">
        <ele>303.20947</ele>
        <time>2023-11-23T09:51:48.000Z</time>
      </trkpt>
      <trkpt lat="45.83199" lon="4.73168">
        <ele>303.1275</ele>
        <time>2023-11-23T09:51:49.000Z</time>
      </trkpt>
      <trkpt lat="45.83201" lon="4.73162">
        <ele>303.01959</ele>
        <time>2023-11-23T09:51:50.000Z</time>
      </trkpt>
      <trkpt lat="45.83203" lon="4.73156">
        <ele>302.94949</ele>
        <time>2023-11-23T09:51:51.000Z</time>
      </trkpt>
      <trkpt lat="45.83205" lon="4.73151">
        <ele>302.69843</ele>
        <time>2023-11-23T09:51:52.000Z</time>
      </trkpt>
      <trkpt lat="45.83206" lon="4.73145">
        <ele>302.50226</ele>
        <time>2023-11-23T09:51:53.000Z</time>
      </trkpt>
      <trkpt lat="45.83206" lon="4.73139">
        <ele>302.25165</ele>
        <time>2023-11-23T09:51:54.000Z</time>
      </trkpt>
      <trkpt lat="45.83206" lon="4.73132">
        <ele>302.08636</ele>
        <time>2023-11-23T09:51:55.000Z</time>
      </trkpt>
      <trkpt lat="45.83205" lon="4.73125">
        <ele>302.03516</ele>
        <time>2023-11-23T09:51:56.000Z</time>
      </trkpt>
      <trkpt lat="45.83207" lon="4.73119">
        <ele>301.96756</ele>
        <time>2023-11-23T09:51:57.000Z</time>
      </trkpt>
      <trkpt lat="45.83208" lon="4.73113">
        <ele>301.88522</ele>
        <time>2023-11-23T09:51:58.000Z</time>
      </trkpt>
      <trkpt lat="45.83209" lon="4.73106">
        <ele>301.87213</ele>
        <time>2023-11-23T09:51:59.000Z</time>
      </trkpt>
      <trkpt lat="45.8321" lon="4.73101">
        <ele>301.88785</ele>
        <time>2023-11-23T09:52:00.000Z</time>
      </trkpt>
      <trkpt lat="45.83211" lon="4.73097">
        <ele>301.90814</ele>
        <time>2023-11-23T09:52:01.000Z</time>
      </trkpt>
      <trkpt lat="45.83213" lon="4.73093">
        <ele>301.92557</ele>
        <time>2023-11-23T09:52:02.000Z</time>
      </trkpt>
      <trkpt lat="45.83214" lon="4.7309">
        <ele>301.98416</ele>
        <time>2023-11-23T09:52:03.000Z</time>
      </trkpt>
      <trkpt lat="45.83215" lon="4.73087">
        <ele>301.87759</ele>
        <time>2023-11-23T09:52:04.000Z</time>
      </trkpt>
      <trkpt lat="45.83216" lon="4.73084">
        <ele>301.6987</ele>
        <time>2023-11-23T09:52:05.000Z</time>
      </trkpt>
      <trkpt lat="45.83217" lon="4.73081">
        <ele>301.53616</ele>
        <time>2023-11-23T09:52:06.000Z</time>
      </trkpt>
      <trkpt lat="45.83219" lon="4.73078">
        <ele>301.36639</ele>
        <time>2023-11-23T09:52:07.000Z</time>
      </trkpt>
      <trkpt lat="45.83221" lon="4.73075">
        <ele>301.16177</ele>
        <time>2023-11-23T09:52:08.000Z</time>
      </trkpt>
      <trkpt lat="45.83223" lon="4.73071">
        <ele>300.96988</ele>
        <time>2023-11-23T09:52:09.000Z</time>
      </trkpt>
      <trkpt lat="45.83226" lon="4.73066">
        <ele>300.80194</ele>
        <time>2023-11-23T09:52:10.000Z</time>
      </trkpt>
      <trkpt lat="45.83229" lon="4.73061">
        <ele>300.6076</ele>
        <time>2023-11-23T09:52:11.000Z</time>
      </trkpt>
      <trkpt lat="45.83231" lon="4.73057">
        <ele>300.50159</ele>
        <time>2023-11-23T09:52:12.000Z</time>
      </trkpt>
      <trkpt lat="45.83234" lon="4.73052">
        <ele>300.38007</ele>
        <time>2023-11-23T09:52:13.000Z</time>
      </trkpt>
      <trkpt lat="45.83236" lon="4.73047">
        <ele>300.29291</ele>
        <time>2023-11-23T09:52:14.000Z</time>
      </trkpt>
      <trkpt lat="45.83239" lon="4.73042">
        <ele>300.1575</ele>
        <time>2023-11-23T09:52:15.000Z</time>
      </trkpt>
      <trkpt lat="45.83241" lon="4.73037">
        <ele>300.02631</ele>
        <time>2023-11-23T09:52:16.000Z</time>
      </trkpt>
      <trkpt lat="45.83243" lon="4.73032">
        <ele>299.76291</ele>
        <time>2023-11-23T09:52:17.000Z</time>
      </trkpt>
      <trkpt lat="45.83244" lon="4.73027">
        <ele>299.50818</ele>
        <time>2023-11-23T09:52:18.000Z</time>
      </trkpt>
      <trkpt lat="45.83247" lon="4.73022">
        <ele>299.18109</ele>
        <time>2023-11-23T09:52:19.000Z</time>
      </trkpt>
      <trkpt lat="45.83249" lon="4.73016">
        <ele>298.89169</ele>
        <time>2023-11-23T09:52:20.000Z</time>
      </trkpt>
      <trkpt lat="45.83252" lon="4.7301">
        <ele>298.71143</ele>
        <time>2023-11-23T09:52:21.000Z</time>
      </trkpt>
      <trkpt lat="45.83255" lon="4.73004">
        <ele>298.64975</ele>
        <time>2023-11-23T09:52:22.000Z</time>
      </trkpt>
      <trkpt lat="45.83257" lon="4.72998">
        <ele>298.55298</ele>
        <time>2023-11-23T09:52:23.000Z</time>
      </trkpt>
      <trkpt lat="45.8326" lon="4.72992">
        <ele>298.46841</ele>
        <time>2023-11-23T09:52:24.000Z</time>
      </trkpt>
      <trkpt lat="45.83261" lon="4.72986">
        <ele>298.42719</ele>
        <time>2023-11-23T09:52:25.000Z</time>
      </trkpt>
      <trkpt lat="45.83263" lon="4.7298">
        <ele>298.40222</ele>
        <time>2023-11-23T09:52:26.000Z</time>
      </trkpt>
      <trkpt lat="45.83265" lon="4.72975">
        <ele>298.40262</ele>
        <time>2023-11-23T09:52:27.000Z</time>
      </trkpt>
      <trkpt lat="45.83267" lon="4.72969">
        <ele>298.41821</ele>
        <time>2023-11-23T09:52:28.000Z</time>
      </trkpt>
      <trkpt lat="45.8327" lon="4.72963">
        <ele>298.40445</ele>
        <time>2023-11-23T09:52:29.000Z</time>
      </trkpt>
      <trkpt lat="45.83272" lon="4.72959">
        <ele>298.32855</ele>
        <time>2023-11-23T09:52:30.000Z</time>
      </trkpt>
      <trkpt lat="45.83274" lon="4.72953">
        <ele>298.08722</ele>
        <time>2023-11-23T09:52:31.000Z</time>
      </trkpt>
      <trkpt lat="45.83277" lon="4.72947">
        <ele>298.1463</ele>
        <time>2023-11-23T09:52:32.000Z</time>
      </trkpt>
      <trkpt lat="45.83278" lon="4.72941">
        <ele>298.19385</ele>
        <time>2023-11-23T09:52:33.000Z</time>
      </trkpt>
      <trkpt lat="45.8328" lon="4.72935">
        <ele>298.17938</ele>
        <time>2023-11-23T09:52:34.000Z</time>
      </trkpt>
      <trkpt lat="45.83282" lon="4.72931">
        <ele>298.35074</ele>
        <time>2023-11-23T09:52:35.000Z</time>
      </trkpt>
      <trkpt lat="45.83285" lon="4.72924">
        <ele>298.51239</ele>
        <time>2023-11-23T09:52:36.000Z</time>
      </trkpt>
      <trkpt lat="45.83288" lon="4.72916">
        <ele>298.69501</ele>
        <time>2023-11-23T09:52:37.000Z</time>
      </trkpt>
      <trkpt lat="45.83291" lon="4.72909">
        <ele>298.85214</ele>
        <time>2023-11-23T09:52:38.000Z</time>
      </trkpt>
      <trkpt lat="45.83293" lon="4.72903">
        <ele>299.00256</ele>
        <time>2023-11-23T09:52:39.000Z</time>
      </trkpt>
      <trkpt lat="45.83294" lon="4.72899">
        <ele>299.08408</ele>
        <time>2023-11-23T09:52:40.000Z</time>
      </trkpt>
      <trkpt lat="45.83297" lon="4.72898">
        <ele>298.83432</ele>
        <time>2023-11-23T09:52:41.000Z</time>
      </trkpt>
      <trkpt lat="45.83298" lon="4.72894">
        <ele>298.50653</ele>
        <time>2023-11-23T09:52:42.000Z</time>
      </trkpt>
      <trkpt lat="45.83298" lon="4.72891">
        <ele>298.24313</ele>
        <time>2023-11-23T09:52:48.000Z</time>
      </trkpt>
      <trkpt lat="45.83297" lon="4.72889">
        <ele>298.04572</ele>
        <time>2023-11-23T09:52:57.000Z</time>
      </trkpt>
      <trkpt lat="45.83296" lon="4.72885">
        <ele>297.77631</ele>
        <time>2023-11-23T09:52:59.000Z</time>
      </trkpt>
      <trkpt lat="45.83294" lon="4.72881">
        <ele>297.44217</ele>
        <time>2023-11-23T09:53:00.000Z</time>
      </trkpt>
      <trkpt lat="45.83292" lon="4.72876">
        <ele>297.08093</ele>
        <time>2023-11-23T09:53:01.000Z</time>
      </trkpt>
      <trkpt lat="45.8329" lon="4.72871">
        <ele>296.73022</ele>
        <time>2023-11-23T09:53:02.000Z</time>
      </trkpt>
      <trkpt lat="45.83288" lon="4.72867">
        <ele>296.41644</ele>
        <time>2023-11-23T09:53:03.000Z</time>
      </trkpt>
      <trkpt lat="45.83286" lon="4.72863">
        <ele>296.12256</ele>
        <time>2023-11-23T09:53:04.000Z</time>
      </trkpt>
      <trkpt lat="45.83284" lon="4.72859">
        <ele>295.95349</ele>
        <time>2023-11-23T09:53:05.000Z</time>
      </trkpt>
      <trkpt lat="45.83282" lon="4.72854">
        <ele>295.54706</ele>
        <time>2023-11-23T09:53:06.000Z</time>
      </trkpt>
      <trkpt lat="45.83279" lon="4.7285">
        <ele>295.22696</ele>
        <time>2023-11-23T09:53:07.000Z</time>
      </trkpt>
      <trkpt lat="45.83276" lon="4.72847">
        <ele>294.92429</ele>
        <time>2023-11-23T09:53:08.000Z</time>
      </trkpt>
      <trkpt lat="45.83272" lon="4.72844">
        <ele>294.41473</ele>
        <time>2023-11-23T09:53:09.000Z</time>
      </trkpt>
      <trkpt lat="45.83268" lon="4.72843">
        <ele>293.87695</ele>
        <time>2023-11-23T09:53:10.000Z</time>
      </trkpt>
      <trkpt lat="45.83264" lon="4.72842">
        <ele>293.45709</ele>
        <time>2023-11-23T09:53:11.000Z</time>
      </trkpt>
      <trkpt lat="45.8326" lon="4.72841">
        <ele>293.07434</ele>
        <time>2023-11-23T09:53:12.000Z</time>
      </trkpt>
      <trkpt lat="45.83256" lon="4.72839">
        <ele>292.69089</ele>
        <time>2023-11-23T09:53:13.000Z</time>
      </trkpt>
      <trkpt lat="45.83251" lon="4.72837">
        <ele>292.29303</ele>
        <time>2023-11-23T09:53:14.000Z</time>
      </trkpt>
      <trkpt lat="45.83247" lon="4.72835">
        <ele>292.09094</ele>
        <time>2023-11-23T09:53:15.000Z</time>
      </trkpt>
      <trkpt lat="45.83242" lon="4.72831">
        <ele>291.86823</ele>
        <time>2023-11-23T09:53:16.000Z</time>
      </trkpt>
      <trkpt lat="45.83238" lon="4.72831">
        <ele>291.63379</ele>
        <time>2023-11-23T09:53:17.000Z</time>
      </trkpt>
      <trkpt lat="45.83232" lon="4.7283">
        <ele>291.27774</ele>
        <time>2023-11-23T09:53:18.000Z</time>
      </trkpt>
      <trkpt lat="45.83226" lon="4.72827">
        <ele>290.95062</ele>
        <time>2023-11-23T09:53:19.000Z</time>
      </trkpt>
      <trkpt lat="45.83222" lon="4.72824">
        <ele>290.64249</ele>
        <time>2023-11-23T09:53:20.000Z</time>
      </trkpt>
      <trkpt lat="45.83218" lon="4.7282">
        <ele>290.37448</ele>
        <time>2023-11-23T09:53:21.000Z</time>
      </trkpt>
      <trkpt lat="45.83215" lon="4.72815">
        <ele>290.10626</ele>
        <time>2023-11-23T09:53:22.000Z</time>
      </trkpt>
      <trkpt lat="45.83214" lon="4.72809">
        <ele>289.83066</ele>
        <time>2023-11-23T09:53:23.000Z</time>
      </trkpt>
      <trkpt lat="45.83214" lon="4.72803">
        <ele>289.65802</ele>
        <time>2023-11-23T09:53:24.000Z</time>
      </trkpt>
      <trkpt lat="45.83215" lon="4.72797">
        <ele>289.51294</ele>
        <time>2023-11-23T09:53:25.000Z</time>
      </trkpt>
      <trkpt lat="45.83215" lon="4.72793">
        <ele>289.09708</ele>
        <time>2023-11-23T09:53:26.000Z</time>
      </trkpt>
      <trkpt lat="45.83216" lon="4.72788">
        <ele>288.63229</ele>
        <time>2023-11-23T09:53:27.000Z</time>
      </trkpt>
      <trkpt lat="45.83217" lon="4.72783">
        <ele>288.1452</ele>
        <time>2023-11-23T09:53:28.000Z</time>
      </trkpt>
      <trkpt lat="45.83218" lon="4.72778">
        <ele>287.70599</ele>
        <time>2023-11-23T09:53:29.000Z</time>
      </trkpt>
      <trkpt lat="45.83219" lon="4.72773">
        <ele>287.31445</ele>
        <time>2023-11-23T09:53:30.000Z</time>
      </trkpt>
      <trkpt lat="45.83221" lon="4.72769">
        <ele>286.96478</ele>
        <time>2023-11-23T09:53:31.000Z</time>
      </trkpt>
      <trkpt lat="45.83224" lon="4.72763">
        <ele>286.61322</ele>
        <time>2023-11-23T09:53:33.000Z</time>
      </trkpt>
      <trkpt lat="45.83227" lon="4.72759">
        <ele>286.26926</ele>
        <time>2023-11-23T09:53:34.000Z</time>
      </trkpt>
      <trkpt lat="45.83229" lon="4.72755">
        <ele>285.99466</ele>
        <time>2023-11-23T09:53:35.000Z</time>
      </trkpt>
      <trkpt lat="45.83232" lon="4.72751">
        <ele>285.76733</ele>
        <time>2023-11-23T09:53:36.000Z</time>
      </trkpt>
      <trkpt lat="45.83235" lon="4.72748">
        <ele>285.5502</ele>
        <time>2023-11-23T09:53:37.000Z</time>
      </trkpt>
      <trkpt lat="45.83238" lon="4.72745">
        <ele>285.26239</ele>
        <time>2023-11-23T09:53:38.000Z</time>
      </trkpt>
      <trkpt lat="45.83242" lon="4.72742">
        <ele>285.2135</ele>
        <time>2023-11-23T09:53:39.000Z</time>
      </trkpt>
      <trkpt lat="45.83245" lon="4.7274">
        <ele>285.17889</ele>
        <time>2023-11-23T09:53:40.000Z</time>
      </trkpt>
      <trkpt lat="45.83249" lon="4.72739">
        <ele>285.18292</ele>
        <time>2023-11-23T09:53:41.000Z</time>
      </trkpt>
      <trkpt lat="45.83252" lon="4.72738">
        <ele>285.19464</ele>
        <time>2023-11-23T09:53:42.000Z</time>
      </trkpt>
      <trkpt lat="45.83254" lon="4.72738">
        <ele>285.20667</ele>
        <time>2023-11-23T09:53:43.000Z</time>
      </trkpt>
      <trkpt lat="45.83257" lon="4.72737">
        <ele>285.22324</ele>
        <time>2023-11-23T09:53:44.000Z</time>
      </trkpt>
      <trkpt lat="45.83259" lon="4.72736">
        <ele>285.28864</ele>
        <time>2023-11-23T09:53:45.000Z</time>
      </trkpt>
      <trkpt lat="45.83261" lon="4.72736">
        <ele>285.40451</ele>
        <time>2023-11-23T09:53:46.000Z</time>
      </trkpt>
      <trkpt lat="45.83264" lon="4.72736">
        <ele>285.80533</ele>
        <time>2023-11-23T09:53:47.000Z</time>
      </trkpt>
      <trkpt lat="45.83267" lon="4.72737">
        <ele>286.16913</ele>
        <time>2023-11-23T09:53:48.000Z</time>
      </trkpt>
      <trkpt lat="45.8327" lon="4.72737">
        <ele>286.31366</ele>
        <time>2023-11-23T09:53:49.000Z</time>
      </trkpt>
      <trkpt lat="45.83273" lon="4.72738">
        <ele>286.48465</ele>
        <time>2023-11-23T09:53:50.000Z</time>
      </trkpt>
      <trkpt lat="45.83277" lon="4.72739">
        <ele>286.64676</ele>
        <time>2023-11-23T09:53:51.000Z</time>
      </trkpt>
      <trkpt lat="45.83281" lon="4.72739">
        <ele>286.78455</ele>
        <time>2023-11-23T09:53:52.000Z</time>
      </trkpt>
      <trkpt lat="45.83285" lon="4.72738">
        <ele>286.92297</ele>
        <time>2023-11-23T09:53:53.000Z</time>
      </trkpt>
      <trkpt lat="45.83289" lon="4.72737">
        <ele>287.06427</ele>
        <time>2023-11-23T09:53:54.000Z</time>
      </trkpt>
      <trkpt lat="45.83294" lon="4.72736">
        <ele>287.17902</ele>
        <time>2023-11-23T09:53:55.000Z</time>
      </trkpt>
      <trkpt lat="45.83297" lon="4.72735">
        <ele>287.29495</ele>
        <time>2023-11-23T09:53:56.000Z</time>
      </trkpt>
      <trkpt lat="45.833" lon="4.72734">
        <ele>287.39053</ele>
        <time>2023-11-23T09:53:57.000Z</time>
      </trkpt>
      <trkpt lat="45.83302" lon="4.72733">
        <ele>287.46588</ele>
        <time>2023-11-23T09:53:59.000Z</time>
      </trkpt>
      <trkpt lat="45.83301" lon="4.72736">
        <ele>287.49783</ele>
        <time>2023-11-23T09:54:10.000Z</time>
      </trkpt>
      <trkpt lat="45.83304" lon="4.72737">
        <ele>287.61627</ele>
        <time>2023-11-23T09:54:14.000Z</time>
      </trkpt>
      <trkpt lat="45.83307" lon="4.72739">
        <ele>287.69843</ele>
        <time>2023-11-23T09:54:15.000Z</time>
      </trkpt>
      <trkpt lat="45.8331" lon="4.72741">
        <ele>287.75067</ele>
        <time>2023-11-23T09:54:16.000Z</time>
      </trkpt>
      <trkpt lat="45.83314" lon="4.72743">
        <ele>287.75464</ele>
        <time>2023-11-23T09:54:17.000Z</time>
      </trkpt>
      <trkpt lat="45.83319" lon="4.72745">
        <ele>287.77264</ele>
        <time>2023-11-23T09:54:18.000Z</time>
      </trkpt>
      <trkpt lat="45.83326" lon="4.72747">
        <ele>287.59631</ele>
        <time>2023-11-23T09:54:19.000Z</time>
      </trkpt>
      <trkpt lat="45.8333" lon="4.7275">
        <ele>287.30621</ele>
        <time>2023-11-23T09:54:20.000Z</time>
      </trkpt>
      <trkpt lat="45.83334" lon="4.72751">
        <ele>286.93243</ele>
        <time>2023-11-23T09:54:21.000Z</time>
      </trkpt>
      <trkpt lat="45.83339" lon="4.72753">
        <ele>286.57617</ele>
        <time>2023-11-23T09:54:22.000Z</time>
      </trkpt>
      <trkpt lat="45.83346" lon="4.72754">
        <ele>286.58548</ele>
        <time>2023-11-23T09:54:23.000Z</time>
      </trkpt>
      <trkpt lat="45.83352" lon="4.72756">
        <ele>286.68567</ele>
        <time>2023-11-23T09:54:24.000Z</time>
      </trkpt>
      <trkpt lat="45.83358" lon="4.72758">
        <ele>286.71973</ele>
        <time>2023-11-23T09:54:25.000Z</time>
      </trkpt>
      <trkpt lat="45.83364" lon="4.72762">
        <ele>286.43176</ele>
        <time>2023-11-23T09:54:26.000Z</time>
      </trkpt>
      <trkpt lat="45.8337" lon="4.72764">
        <ele>286.21738</ele>
        <time>2023-11-23T09:54:27.000Z</time>
      </trkpt>
      <trkpt lat="45.83374" lon="4.72764">
        <ele>285.99295</ele>
        <time>2023-11-23T09:54:28.000Z</time>
      </trkpt>
      <trkpt lat="45.83379" lon="4.72764">
        <ele>285.69806</ele>
        <time>2023-11-23T09:54:29.000Z</time>
      </trkpt>
      <trkpt lat="45.83384" lon="4.72769">
        <ele>285.38754</ele>
        <time>2023-11-23T09:54:30.000Z</time>
      </trkpt>
      <trkpt lat="45.83389" lon="4.72771">
        <ele>284.19971</ele>
        <time>2023-11-23T09:54:31.000Z</time>
      </trkpt>
      <trkpt lat="45.83396" lon="4.72774">
        <ele>283.06155</ele>
        <time>2023-11-23T09:54:32.000Z</time>
      </trkpt>
      <trkpt lat="45.834" lon="4.72775">
        <ele>281.91547</ele>
        <time>2023-11-23T09:54:33.000Z</time>
      </trkpt>
      <trkpt lat="45.83404" lon="4.72776">
        <ele>280.66287</ele>
        <time>2023-11-23T09:54:34.000Z</time>
      </trkpt>
      <trkpt lat="45.83408" lon="4.72778">
        <ele>279.38849</ele>
        <time>2023-11-23T09:54:35.000Z</time>
      </trkpt>
      <trkpt lat="45.83412" lon="4.72779">
        <ele>279.02289</ele>
        <time>2023-11-23T09:54:36.000Z</time>
      </trkpt>
      <trkpt lat="45.83415" lon="4.72781">
        <ele>278.72357</ele>
        <time>2023-11-23T09:54:37.000Z</time>
      </trkpt>
      <trkpt lat="45.83419" lon="4.72782">
        <ele>278.30408</ele>
        <time>2023-11-23T09:54:38.000Z</time>
      </trkpt>
      <trkpt lat="45.83424" lon="4.72782">
        <ele>277.9472</ele>
        <time>2023-11-23T09:54:39.000Z</time>
      </trkpt>
      <trkpt lat="45.83427" lon="4.72781">
        <ele>277.67731</ele>
        <time>2023-11-23T09:54:40.000Z</time>
      </trkpt>
      <trkpt lat="45.83431" lon="4.7278">
        <ele>277.43311</ele>
        <time>2023-11-23T09:54:41.000Z</time>
      </trkpt>
      <trkpt lat="45.83436" lon="4.72778">
        <ele>277.14337</ele>
        <time>2023-11-23T09:54:42.000Z</time>
      </trkpt>
      <trkpt lat="45.83441" lon="4.72776">
        <ele>276.73224</ele>
        <time>2023-11-23T09:54:43.000Z</time>
      </trkpt>
      <trkpt lat="45.83446" lon="4.72774">
        <ele>276.20398</ele>
        <time>2023-11-23T09:54:44.000Z</time>
      </trkpt>
      <trkpt lat="45.83451" lon="4.72773">
        <ele>275.75629</ele>
        <time>2023-11-23T09:54:45.000Z</time>
      </trkpt>
      <trkpt lat="45.83455" lon="4.72772">
        <ele>275.75946</ele>
        <time>2023-11-23T09:54:46.000Z</time>
      </trkpt>
      <trkpt lat="45.83459" lon="4.72771">
        <ele>275.7179</ele>
        <time>2023-11-23T09:54:47.000Z</time>
      </trkpt>
      <trkpt lat="45.83463" lon="4.7277">
        <ele>275.6828</ele>
        <time>2023-11-23T09:54:48.000Z</time>
      </trkpt>
      <trkpt lat="45.83468" lon="4.72769">
        <ele>275.82391</ele>
        <time>2023-11-23T09:54:49.000Z</time>
      </trkpt>
      <trkpt lat="45.83472" lon="4.72768">
        <ele>275.98071</ele>
        <time>2023-11-23T09:54:50.000Z</time>
      </trkpt>
      <trkpt lat="45.83476" lon="4.72767">
        <ele>276.71872</ele>
        <time>2023-11-23T09:54:51.000Z</time>
      </trkpt>
      <trkpt lat="45.83478" lon="4.72766">
        <ele>277.49625</ele>
        <time>2023-11-23T09:54:52.000Z</time>
      </trkpt>
      <trkpt lat="45.83482" lon="4.72765">
        <ele>278.27682</ele>
        <time>2023-11-23T09:54:53.000Z</time>
      </trkpt>
      <trkpt lat="45.83486" lon="4.72763">
        <ele>279.08594</ele>
        <time>2023-11-23T09:54:54.000Z</time>
      </trkpt>
      <trkpt lat="45.8349" lon="4.72762">
        <ele>279.93713</ele>
        <time>2023-11-23T09:54:55.000Z</time>
      </trkpt>
      <trkpt lat="45.83494" lon="4.7276">
        <ele>279.92233</ele>
        <time>2023-11-23T09:54:56.000Z</time>
      </trkpt>
      <trkpt lat="45.83497" lon="4.72759">
        <ele>279.89319</ele>
        <time>2023-11-23T09:54:57.000Z</time>
      </trkpt>
      <trkpt lat="45.83501" lon="4.72757">
        <ele>279.94727</ele>
        <time>2023-11-23T09:54:58.000Z</time>
      </trkpt>
      <trkpt lat="45.83505" lon="4.72755">
        <ele>280.02194</ele>
        <time>2023-11-23T09:54:59.000Z</time>
      </trkpt>
      <trkpt lat="45.83509" lon="4.72754">
        <ele>280.06854</ele>
        <time>2023-11-23T09:55:00.000Z</time>
      </trkpt>
      <trkpt lat="45.83513" lon="4.72753">
        <ele>280.16306</ele>
        <time>2023-11-23T09:55:01.000Z</time>
      </trkpt>
      <trkpt lat="45.83517" lon="4.72752">
        <ele>280.24261</ele>
        <time>2023-11-23T09:55:02.000Z</time>
      </trkpt>
      <trkpt lat="45.83522" lon="4.72751">
        <ele>280.51962</ele>
        <time>2023-11-23T09:55:03.000Z</time>
      </trkpt>
      <trkpt lat="45.83526" lon="4.7275">
        <ele>280.7814</ele>
        <time>2023-11-23T09:55:04.000Z</time>
      </trkpt>
      <trkpt lat="45.8353" lon="4.72749">
        <ele>281.03003</ele>
        <time>2023-11-23T09:55:05.000Z</time>
      </trkpt>
      <trkpt lat="45.83535" lon="4.72748">
        <ele>281.28131</ele>
        <time>2023-11-23T09:55:06.000Z</time>
      </trkpt>
      <trkpt lat="45.8354" lon="4.72747">
        <ele>281.16473</ele>
        <time>2023-11-23T09:55:07.000Z</time>
      </trkpt>
      <trkpt lat="45.83547" lon="4.72745">
        <ele>281.10596</ele>
        <time>2023-11-23T09:55:08.000Z</time>
      </trkpt>
      <trkpt lat="45.83551" lon="4.72743">
        <ele>280.91632</ele>
        <time>2023-11-23T09:55:09.000Z</time>
      </trkpt>
      <trkpt lat="45.83555" lon="4.72741">
        <ele>280.68756</ele>
        <time>2023-11-23T09:55:10.000Z</time>
      </trkpt>
      <trkpt lat="45.83559" lon="4.72739">
        <ele>280.72647</ele>
        <time>2023-11-23T09:55:11.000Z</time>
      </trkpt>
      <trkpt lat="45.83564" lon="4.72736">
        <ele>280.67548</ele>
        <time>2023-11-23T09:55:12.000Z</time>
      </trkpt>
      <trkpt lat="45.83568" lon="4.72734">
        <ele>280.59781</ele>
        <time>2023-11-23T09:55:13.000Z</time>
      </trkpt>
      <trkpt lat="45.83572" lon="4.72732">
        <ele>280.50101</ele>
        <time>2023-11-23T09:55:14.000Z</time>
      </trkpt>
      <trkpt lat="45.83575" lon="4.72729">
        <ele>280.42615</ele>
        <time>2023-11-23T09:55:15.000Z</time>
      </trkpt>
      <trkpt lat="45.83581" lon="4.72728">
        <ele>280.32605</ele>
        <time>2023-11-23T09:55:16.000Z</time>
      </trkpt>
      <trkpt lat="45.83585" lon="4.72724">
        <ele>280.24835</ele>
        <time>2023-11-23T09:55:17.000Z</time>
      </trkpt>
      <trkpt lat="45.8359" lon="4.7272">
        <ele>280.21249</ele>
        <time>2023-11-23T09:55:18.000Z</time>
      </trkpt>
      <trkpt lat="45.83594" lon="4.72718">
        <ele>280.12756</ele>
        <time>2023-11-23T09:55:19.000Z</time>
      </trkpt>
      <trkpt lat="45.83597" lon="4.72715">
        <ele>280.07013</ele>
        <time>2023-11-23T09:55:20.000Z</time>
      </trkpt>
      <trkpt lat="45.83601" lon="4.72714">
        <ele>280.008</ele>
        <time>2023-11-23T09:55:21.000Z</time>
      </trkpt>
      <trkpt lat="45.83606" lon="4.7271">
        <ele>279.95621</ele>
        <time>2023-11-23T09:55:22.000Z</time>
      </trkpt>
      <trkpt lat="45.8361" lon="4.72707">
        <ele>279.72794</ele>
        <time>2023-11-23T09:55:23.000Z</time>
      </trkpt>
      <trkpt lat="45.83615" lon="4.72703">
        <ele>278.36441</ele>
        <time>2023-11-23T09:55:24.000Z</time>
      </trkpt>
      <trkpt lat="45.83622" lon="4.72697">
        <ele>276.84686</ele>
        <time>2023-11-23T09:55:25.000Z</time>
      </trkpt>
      <trkpt lat="45.83626" lon="4.72691">
        <ele>275.23245</ele>
        <time>2023-11-23T09:55:26.000Z</time>
      </trkpt>
      <trkpt lat="45.83632" lon="4.72687">
        <ele>273.95209</ele>
        <time>2023-11-23T09:55:27.000Z</time>
      </trkpt>
      <trkpt lat="45.83637" lon="4.72682">
        <ele>272.58969</ele>
        <time>2023-11-23T09:55:28.000Z</time>
      </trkpt>
      <trkpt lat="45.83644" lon="4.72679">
        <ele>271.21292</ele>
        <time>2023-11-23T09:55:29.000Z</time>
      </trkpt>
      <trkpt lat="45.8365" lon="4.72676">
        <ele>269.83368</ele>
        <time>2023-11-23T09:55:30.000Z</time>
      </trkpt>
      <trkpt lat="45.83655" lon="4.72674">
        <ele>268.43002</ele>
        <time>2023-11-23T09:55:31.000Z</time>
      </trkpt>
      <trkpt lat="45.83662" lon="4.72672">
        <ele>267.03583</ele>
        <time>2023-11-23T09:55:32.000Z</time>
      </trkpt>
      <trkpt lat="45.83667" lon="4.7267">
        <ele>265.61871</ele>
        <time>2023-11-23T09:55:33.000Z</time>
      </trkpt>
      <trkpt lat="45.83673" lon="4.72668">
        <ele>264.1843</ele>
        <time>2023-11-23T09:55:34.000Z</time>
      </trkpt>
      <trkpt lat="45.83679" lon="4.72666">
        <ele>263.50537</ele>
        <time>2023-11-23T09:55:35.000Z</time>
      </trkpt>
      <trkpt lat="45.83684" lon="4.72662">
        <ele>262.82538</ele>
        <time>2023-11-23T09:55:36.000Z</time>
      </trkpt>
      <trkpt lat="45.83691" lon="4.72659">
        <ele>262.0878</ele>
        <time>2023-11-23T09:55:37.000Z</time>
      </trkpt>
      <trkpt lat="45.83695" lon="4.72657">
        <ele>261.29767</ele>
        <time>2023-11-23T09:55:38.000Z</time>
      </trkpt>
      <trkpt lat="45.837" lon="4.72655">
        <ele>260.54865</ele>
        <time>2023-11-23T09:55:39.000Z</time>
      </trkpt>
      <trkpt lat="45.83706" lon="4.72652">
        <ele>259.76553</ele>
        <time>2023-11-23T09:55:40.000Z</time>
      </trkpt>
      <trkpt lat="45.83712" lon="4.72649">
        <ele>258.96179</ele>
        <time>2023-11-23T09:55:41.000Z</time>
      </trkpt>
      <trkpt lat="45.83719" lon="4.72646">
        <ele>258.23953</ele>
        <time>2023-11-23T09:55:42.000Z</time>
      </trkpt>
      <trkpt lat="45.83725" lon="4.72642">
        <ele>257.30307</ele>
        <time>2023-11-23T09:55:43.000Z</time>
      </trkpt>
      <trkpt lat="45.83731" lon="4.7264">
        <ele>257.52844</ele>
        <time>2023-11-23T09:55:44.000Z</time>
      </trkpt>
      <trkpt lat="45.83737" lon="4.72638">
        <ele>257.89297</ele>
        <time>2023-11-23T09:55:45.000Z</time>
      </trkpt>
      <trkpt lat="45.83742" lon="4.72638">
        <ele>258.36435</ele>
        <time>2023-11-23T09:55:46.000Z</time>
      </trkpt>
      <trkpt lat="45.83747" lon="4.72637">
        <ele>259.52826</ele>
        <time>2023-11-23T09:55:47.000Z</time>
      </trkpt>
      <trkpt lat="45.83753" lon="4.72635">
        <ele>260.73038</ele>
        <time>2023-11-23T09:55:48.000Z</time>
      </trkpt>
      <trkpt lat="45.83757" lon="4.72633">
        <ele>261.53125</ele>
        <time>2023-11-23T09:55:49.000Z</time>
      </trkpt>
      <trkpt lat="45.83763" lon="4.72632">
        <ele>262.45233</ele>
        <time>2023-11-23T09:55:50.000Z</time>
      </trkpt>
      <trkpt lat="45.83767" lon="4.72631">
        <ele>263.36807</ele>
        <time>2023-11-23T09:55:51.000Z</time>
      </trkpt>
      <trkpt lat="45.83773" lon="4.7263">
        <ele>264.32379</ele>
        <time>2023-11-23T09:55:52.000Z</time>
      </trkpt>
      <trkpt lat="45.83778" lon="4.72628">
        <ele>265.36487</ele>
        <time>2023-11-23T09:55:53.000Z</time>
      </trkpt>
      <trkpt lat="45.83783" lon="4.72625">
        <ele>266.45367</ele>
        <time>2023-11-23T09:55:54.000Z</time>
      </trkpt>
      <trkpt lat="45.83789" lon="4.72623">
        <ele>266.70743</ele>
        <time>2023-11-23T09:55:55.000Z</time>
      </trkpt>
      <trkpt lat="45.83795" lon="4.72621">
        <ele>266.94052</ele>
        <time>2023-11-23T09:55:56.000Z</time>
      </trkpt>
      <trkpt lat="45.83799" lon="4.72621">
        <ele>267.26123</ele>
        <time>2023-11-23T09:55:57.000Z</time>
      </trkpt>
      <trkpt lat="45.83804" lon="4.72618">
        <ele>267.66299</ele>
        <time>2023-11-23T09:55:58.000Z</time>
      </trkpt>
      <trkpt lat="45.83808" lon="4.72615">
        <ele>268.14642</ele>
        <time>2023-11-23T09:55:59.000Z</time>
      </trkpt>
      <trkpt lat="45.83812" lon="4.72611">
        <ele>268.62982</ele>
        <time>2023-11-23T09:56:00.000Z</time>
      </trkpt>
      <trkpt lat="45.83815" lon="4.72605">
        <ele>269.16327</ele>
        <time>2023-11-23T09:56:01.000Z</time>
      </trkpt>
      <trkpt lat="45.83819" lon="4.72601">
        <ele>269.8754</ele>
        <time>2023-11-23T09:56:02.000Z</time>
      </trkpt>
      <trkpt lat="45.83822" lon="4.72593">
        <ele>270.94162</ele>
        <time>2023-11-23T09:56:03.000Z</time>
      </trkpt>
      <trkpt lat="45.83825" lon="4.72585">
        <ele>271.50403</ele>
        <time>2023-11-23T09:56:04.000Z</time>
      </trkpt>
      <trkpt lat="45.83827" lon="4.72579">
        <ele>272.21442</ele>
        <time>2023-11-23T09:56:05.000Z</time>
      </trkpt>
      <trkpt lat="45.83829" lon="4.72572">
        <ele>272.82074</ele>
        <time>2023-11-23T09:56:06.000Z</time>
      </trkpt>
      <trkpt lat="45.8383" lon="4.72566">
        <ele>272.70163</ele>
        <time>2023-11-23T09:56:07.000Z</time>
      </trkpt>
      <trkpt lat="45.83833" lon="4.72561">
        <ele>272.5639</ele>
        <time>2023-11-23T09:56:08.000Z</time>
      </trkpt>
      <trkpt lat="45.83835" lon="4.72556">
        <ele>272.78168</ele>
        <time>2023-11-23T09:56:09.000Z</time>
      </trkpt>
      <trkpt lat="45.83835" lon="4.72547">
        <ele>272.88116</ele>
        <time>2023-11-23T09:56:10.000Z</time>
      </trkpt>
      <trkpt lat="45.83837" lon="4.72538">
        <ele>272.9043</ele>
        <time>2023-11-23T09:56:11.000Z</time>
      </trkpt>
      <trkpt lat="45.83838" lon="4.72531">
        <ele>272.95831</ele>
        <time>2023-11-23T09:56:12.000Z</time>
      </trkpt>
      <trkpt lat="45.83838" lon="4.72524">
        <ele>272.97104</ele>
        <time>2023-11-23T09:56:13.000Z</time>
      </trkpt>
      <trkpt lat="45.83838" lon="4.72516">
        <ele>273.0535</ele>
        <time>2023-11-23T09:56:14.000Z</time>
      </trkpt>
      <trkpt lat="45.83838" lon="4.7251">
        <ele>273.15619</ele>
        <time>2023-11-23T09:56:15.000Z</time>
      </trkpt>
      <trkpt lat="45.83837" lon="4.72503">
        <ele>273.25247</ele>
        <time>2023-11-23T09:56:16.000Z</time>
      </trkpt>
      <trkpt lat="45.83837" lon="4.72495">
        <ele>273.30032</ele>
        <time>2023-11-23T09:56:17.000Z</time>
      </trkpt>
      <trkpt lat="45.83836" lon="4.72488">
        <ele>273.34955</ele>
        <time>2023-11-23T09:56:18.000Z</time>
      </trkpt>
      <trkpt lat="45.83837" lon="4.72481">
        <ele>273.29575</ele>
        <time>2023-11-23T09:56:19.000Z</time>
      </trkpt>
      <trkpt lat="45.83836" lon="4.72476">
        <ele>273.45074</ele>
        <time>2023-11-23T09:56:20.000Z</time>
      </trkpt>
      <trkpt lat="45.83837" lon="4.72469">
        <ele>273.71011</ele>
        <time>2023-11-23T09:56:21.000Z</time>
      </trkpt>
      <trkpt lat="45.83836" lon="4.72461">
        <ele>273.24832</ele>
        <time>2023-11-23T09:56:22.000Z</time>
      </trkpt>
      <trkpt lat="45.83837" lon="4.72455">
        <ele>272.75671</ele>
        <time>2023-11-23T09:56:23.000Z</time>
      </trkpt>
      <trkpt lat="45.83839" lon="4.72449">
        <ele>272.67899</ele>
        <time>2023-11-23T09:56:24.000Z</time>
      </trkpt>
      <trkpt lat="45.83842" lon="4.72442">
        <ele>272.47012</ele>
        <time>2023-11-23T09:56:25.000Z</time>
      </trkpt>
      <trkpt lat="45.83844" lon="4.72437">
        <ele>272.2529</ele>
        <time>2023-11-23T09:56:26.000Z</time>
      </trkpt>
      <trkpt lat="45.83848" lon="4.72433">
        <ele>272.0921</ele>
        <time>2023-11-23T09:56:27.000Z</time>
      </trkpt>
      <trkpt lat="45.83851" lon="4.72429">
        <ele>271.91269</ele>
        <time>2023-11-23T09:56:28.000Z</time>
      </trkpt>
      <trkpt lat="45.83855" lon="4.72426">
        <ele>271.83539</ele>
        <time>2023-11-23T09:56:29.000Z</time>
      </trkpt>
      <trkpt lat="45.83859" lon="4.72423">
        <ele>271.77118</ele>
        <time>2023-11-23T09:56:30.000Z</time>
      </trkpt>
      <trkpt lat="45.83863" lon="4.72422">
        <ele>271.8396</ele>
        <time>2023-11-23T09:56:31.000Z</time>
      </trkpt>
      <trkpt lat="45.83869" lon="4.7242">
        <ele>271.87277</ele>
        <time>2023-11-23T09:56:32.000Z</time>
      </trkpt>
      <trkpt lat="45.83873" lon="4.72419">
        <ele>271.92926</ele>
        <time>2023-11-23T09:56:33.000Z</time>
      </trkpt>
      <trkpt lat="45.83876" lon="4.72416">
        <ele>271.93661</ele>
        <time>2023-11-23T09:56:34.000Z</time>
      </trkpt>
      <trkpt lat="45.8388" lon="4.72415">
        <ele>271.97675</ele>
        <time>2023-11-23T09:56:35.000Z</time>
      </trkpt>
      <trkpt lat="45.83884" lon="4.72412">
        <ele>272.07309</ele>
        <time>2023-11-23T09:56:36.000Z</time>
      </trkpt>
      <trkpt lat="45.83889" lon="4.7241">
        <ele>272.17719</ele>
        <time>2023-11-23T09:56:37.000Z</time>
      </trkpt>
      <trkpt lat="45.83894" lon="4.72408">
        <ele>272.20758</ele>
        <time>2023-11-23T09:56:38.000Z</time>
      </trkpt>
      <trkpt lat="45.83898" lon="4.72407">
        <ele>272.2933</ele>
        <time>2023-11-23T09:56:39.000Z</time>
      </trkpt>
      <trkpt lat="45.83902" lon="4.72405">
        <ele>272.15854</ele>
        <time>2023-11-23T09:56:40.000Z</time>
      </trkpt>
      <trkpt lat="45.83906" lon="4.72402">
        <ele>271.85236</ele>
        <time>2023-11-23T09:56:41.000Z</time>
      </trkpt>
      <trkpt lat="45.8391" lon="4.724">
        <ele>272.06204</ele>
        <time>2023-11-23T09:56:42.000Z</time>
      </trkpt>
      <trkpt lat="45.83915" lon="4.72398">
        <ele>272.37936</ele>
        <time>2023-11-23T09:56:43.000Z</time>
      </trkpt>
      <trkpt lat="45.83918" lon="4.72396">
        <ele>272.92554</ele>
        <time>2023-11-23T09:56:44.000Z</time>
      </trkpt>
      <trkpt lat="45.83923" lon="4.72393">
        <ele>273.49219</ele>
        <time>2023-11-23T09:56:45.000Z</time>
      </trkpt>
      <trkpt lat="45.83927" lon="4.72391">
        <ele>273.64182</ele>
        <time>2023-11-23T09:56:46.000Z</time>
      </trkpt>
      <trkpt lat="45.83931" lon="4.72389">
        <ele>273.84116</ele>
        <time>2023-11-23T09:56:47.000Z</time>
      </trkpt>
      <trkpt lat="45.83936" lon="4.72386">
        <ele>274.08154</ele>
        <time>2023-11-23T09:56:48.000Z</time>
      </trkpt>
      <trkpt lat="45.8394" lon="4.72384">
        <ele>274.31061</ele>
        <time>2023-11-23T09:56:49.000Z</time>
      </trkpt>
      <trkpt lat="45.83943" lon="4.72382">
        <ele>274.54959</ele>
        <time>2023-11-23T09:56:50.000Z</time>
      </trkpt>
      <trkpt lat="45.83947" lon="4.72379">
        <ele>274.77319</ele>
        <time>2023-11-23T09:56:51.000Z</time>
      </trkpt>
      <trkpt lat="45.8395" lon="4.72376">
        <ele>274.97626</ele>
        <time>2023-11-23T09:56:52.000Z</time>
      </trkpt>
      <trkpt lat="45.83953" lon="4.72373">
        <ele>275.18091</ele>
        <time>2023-11-23T09:56:53.000Z</time>
      </trkpt>
      <trkpt lat="45.83958" lon="4.72369">
        <ele>275.38956</ele>
        <time>2023-11-23T09:56:54.000Z</time>
      </trkpt>
      <trkpt lat="45.83961" lon="4.72365">
        <ele>275.58478</ele>
        <time>2023-11-23T09:56:55.000Z</time>
      </trkpt>
      <trkpt lat="45.83965" lon="4.72361">
        <ele>275.76401</ele>
        <time>2023-11-23T09:56:56.000Z</time>
      </trkpt>
      <trkpt lat="45.83969" lon="4.72359">
        <ele>275.93649</ele>
        <time>2023-11-23T09:56:57.000Z</time>
      </trkpt>
      <trkpt lat="45.83973" lon="4.72356">
        <ele>276.13843</ele>
        <time>2023-11-23T09:56:58.000Z</time>
      </trkpt>
      <trkpt lat="45.83976" lon="4.72353">
        <ele>276.30865</ele>
        <time>2023-11-23T09:56:59.000Z</time>
      </trkpt>
      <trkpt lat="45.8398" lon="4.7235">
        <ele>276.5065</ele>
        <time>2023-11-23T09:57:00.000Z</time>
      </trkpt>
      <trkpt lat="45.83984" lon="4.72345">
        <ele>276.93423</ele>
        <time>2023-11-23T09:57:01.000Z</time>
      </trkpt>
      <trkpt lat="45.83988" lon="4.72342">
        <ele>277.47821</ele>
        <time>2023-11-23T09:57:02.000Z</time>
      </trkpt>
      <trkpt lat="45.8399" lon="4.72339">
        <ele>277.80087</ele>
        <time>2023-11-23T09:57:03.000Z</time>
      </trkpt>
      <trkpt lat="45.83994" lon="4.72335">
        <ele>277.59711</ele>
        <time>2023-11-23T09:57:04.000Z</time>
      </trkpt>
      <trkpt lat="45.83996" lon="4.72332">
        <ele>277.44724</ele>
        <time>2023-11-23T09:57:05.000Z</time>
      </trkpt>
      <trkpt lat="45.83999" lon="4.72328">
        <ele>277.72549</ele>
        <time>2023-11-23T09:57:06.000Z</time>
      </trkpt>
      <trkpt lat="45.84003" lon="4.72325">
        <ele>277.95309</ele>
        <time>2023-11-23T09:57:07.000Z</time>
      </trkpt>
      <trkpt lat="45.84006" lon="4.72321">
        <ele>278.3541</ele>
        <time>2023-11-23T09:57:08.000Z</time>
      </trkpt>
      <trkpt lat="45.84009" lon="4.72317">
        <ele>278.7475</ele>
        <time>2023-11-23T09:57:09.000Z</time>
      </trkpt>
      <trkpt lat="45.8401" lon="4.72314">
        <ele>279.14362</ele>
        <time>2023-11-23T09:57:10.000Z</time>
      </trkpt>
      <trkpt lat="45.84009" lon="4.72312">
        <ele>279.58221</ele>
        <time>2023-11-23T09:57:11.000Z</time>
      </trkpt>
      <trkpt lat="45.84008" lon="4.72308">
        <ele>280.03946</ele>
        <time>2023-11-23T09:57:12.000Z</time>
      </trkpt>
      <trkpt lat="45.84007" lon="4.72303">
        <ele>280.61386</ele>
        <time>2023-11-23T09:57:13.000Z</time>
      </trkpt>
      <trkpt lat="45.84006" lon="4.72298">
        <ele>280.7941</ele>
        <time>2023-11-23T09:57:14.000Z</time>
      </trkpt>
      <trkpt lat="45.84005" lon="4.72293">
        <ele>281.02866</ele>
        <time>2023-11-23T09:57:15.000Z</time>
      </trkpt>
      <trkpt lat="45.84003" lon="4.72288">
        <ele>281.26355</ele>
        <time>2023-11-23T09:57:16.000Z</time>
      </trkpt>
      <trkpt lat="45.84001" lon="4.72284">
        <ele>281.48444</ele>
        <time>2023-11-23T09:57:17.000Z</time>
      </trkpt>
      <trkpt lat="45.83999" lon="4.72279">
        <ele>281.67978</ele>
        <time>2023-11-23T09:57:18.000Z</time>
      </trkpt>
      <trkpt lat="45.83996" lon="4.72274">
        <ele>281.87085</ele>
        <time>2023-11-23T09:57:19.000Z</time>
      </trkpt>
      <trkpt lat="45.83994" lon="4.7227">
        <ele>282.07135</ele>
        <time>2023-11-23T09:57:20.000Z</time>
      </trkpt>
      <trkpt lat="45.83991" lon="4.72266">
        <ele>282.07104</ele>
        <time>2023-11-23T09:57:21.000Z</time>
      </trkpt>
      <trkpt lat="45.83988" lon="4.72261">
        <ele>281.92279</ele>
        <time>2023-11-23T09:57:22.000Z</time>
      </trkpt>
      <trkpt lat="45.83985" lon="4.72256">
        <ele>281.93271</ele>
        <time>2023-11-23T09:57:23.000Z</time>
      </trkpt>
      <trkpt lat="45.83983" lon="4.72252">
        <ele>282.30264</ele>
        <time>2023-11-23T09:57:24.000Z</time>
      </trkpt>
      <trkpt lat="45.8398" lon="4.72247">
        <ele>282.57904</ele>
        <time>2023-11-23T09:57:25.000Z</time>
      </trkpt>
      <trkpt lat="45.83978" lon="4.72242">
        <ele>282.83145</ele>
        <time>2023-11-23T09:57:26.000Z</time>
      </trkpt>
      <trkpt lat="45.83975" lon="4.72237">
        <ele>283.08871</ele>
        <time>2023-11-23T09:57:27.000Z</time>
      </trkpt>
      <trkpt lat="45.83972" lon="4.72232">
        <ele>283.24982</ele>
        <time>2023-11-23T09:57:28.000Z</time>
      </trkpt>
      <trkpt lat="45.83969" lon="4.72226">
        <ele>283.03192</ele>
        <time>2023-11-23T09:57:29.000Z</time>
      </trkpt>
      <trkpt lat="45.83968" lon="4.7222">
        <ele>282.88818</ele>
        <time>2023-11-23T09:57:30.000Z</time>
      </trkpt>
      <trkpt lat="45.83965" lon="4.72215">
        <ele>282.72598</ele>
        <time>2023-11-23T09:57:31.000Z</time>
      </trkpt>
      <trkpt lat="45.83962" lon="4.72209">
        <ele>282.53226</ele>
        <time>2023-11-23T09:57:32.000Z</time>
      </trkpt>
      <trkpt lat="45.8396" lon="4.72204">
        <ele>282.21552</ele>
        <time>2023-11-23T09:57:33.000Z</time>
      </trkpt>
      <trkpt lat="45.83957" lon="4.72198">
        <ele>282.26511</ele>
        <time>2023-11-23T09:57:34.000Z</time>
      </trkpt>
      <trkpt lat="45.83954" lon="4.72193">
        <ele>282.27353</ele>
        <time>2023-11-23T09:57:35.000Z</time>
      </trkpt>
      <trkpt lat="45.83951" lon="4.72188">
        <ele>282.2594</ele>
        <time>2023-11-23T09:57:36.000Z</time>
      </trkpt>
      <trkpt lat="45.83949" lon="4.72182">
        <ele>282.23853</ele>
        <time>2023-11-23T09:57:37.000Z</time>
      </trkpt>
      <trkpt lat="45.83947" lon="4.72178">
        <ele>282.20499</ele>
        <time>2023-11-23T09:57:38.000Z</time>
      </trkpt>
      <trkpt lat="45.83944" lon="4.72175">
        <ele>282.17126</ele>
        <time>2023-11-23T09:57:39.000Z</time>
      </trkpt>
      <trkpt lat="45.83943" lon="4.72171">
        <ele>282.13336</ele>
        <time>2023-11-23T09:57:40.000Z</time>
      </trkpt>
      <trkpt lat="45.83942" lon="4.72166">
        <ele>282.12128</ele>
        <time>2023-11-23T09:57:41.000Z</time>
      </trkpt>
      <trkpt lat="45.83944" lon="4.72162">
        <ele>282.12607</ele>
        <time>2023-11-23T09:57:42.000Z</time>
      </trkpt>
      <trkpt lat="45.83947" lon="4.72162">
        <ele>281.94293</ele>
        <time>2023-11-23T09:57:43.000Z</time>
      </trkpt>
      <trkpt lat="45.83951" lon="4.72162">
        <ele>281.76413</ele>
        <time>2023-11-23T09:57:44.000Z</time>
      </trkpt>
      <trkpt lat="45.83955" lon="4.72163">
        <ele>281.78134</ele>
        <time>2023-11-23T09:57:45.000Z</time>
      </trkpt>
      <trkpt lat="45.8396" lon="4.72164">
        <ele>281.79886</ele>
        <time>2023-11-23T09:57:46.000Z</time>
      </trkpt>
      <trkpt lat="45.83964" lon="4.72165">
        <ele>281.90427</ele>
        <time>2023-11-23T09:57:47.000Z</time>
      </trkpt>
      <trkpt lat="45.83968" lon="4.72166">
        <ele>281.93311</ele>
        <time>2023-11-23T09:57:48.000Z</time>
      </trkpt>
      <trkpt lat="45.83972" lon="4.72168">
        <ele>281.94916</ele>
        <time>2023-11-23T09:57:49.000Z</time>
      </trkpt>
      <trkpt lat="45.83976" lon="4.72169">
        <ele>281.93173</ele>
        <time>2023-11-23T09:57:50.000Z</time>
      </trkpt>
      <trkpt lat="45.8398" lon="4.7217">
        <ele>281.89886</ele>
        <time>2023-11-23T09:57:51.000Z</time>
      </trkpt>
      <trkpt lat="45.83986" lon="4.72171">
        <ele>281.86969</ele>
        <time>2023-11-23T09:57:52.000Z</time>
      </trkpt>
      <trkpt lat="45.83991" lon="4.72171">
        <ele>281.82196</ele>
        <time>2023-11-23T09:57:53.000Z</time>
      </trkpt>
      <trkpt lat="45.83995" lon="4.72172">
        <ele>281.7392</ele>
        <time>2023-11-23T09:57:54.000Z</time>
      </trkpt>
      <trkpt lat="45.83999" lon="4.72171">
        <ele>281.67966</ele>
        <time>2023-11-23T09:57:55.000Z</time>
      </trkpt>
      <trkpt lat="45.84003" lon="4.7217">
        <ele>281.63147</ele>
        <time>2023-11-23T09:57:56.000Z</time>
      </trkpt>
      <trkpt lat="45.84007" lon="4.72169">
        <ele>280.77518</ele>
        <time>2023-11-23T09:57:57.000Z</time>
      </trkpt>
      <trkpt lat="45.84012" lon="4.72167">
        <ele>279.9371</ele>
        <time>2023-11-23T09:57:58.000Z</time>
      </trkpt>
      <trkpt lat="45.84015" lon="4.72163">
        <ele>279.10037</ele>
        <time>2023-11-23T09:57:59.000Z</time>
      </trkpt>
      <trkpt lat="45.84018" lon="4.72159">
        <ele>278.24527</ele>
        <time>2023-11-23T09:58:00.000Z</time>
      </trkpt>
      <trkpt lat="45.8402" lon="4.72152">
        <ele>277.34402</ele>
        <time>2023-11-23T09:58:01.000Z</time>
      </trkpt>
      <trkpt lat="45.8402" lon="4.72145">
        <ele>276.36588</ele>
        <time>2023-11-23T09:58:02.000Z</time>
      </trkpt>
      <trkpt lat="45.84021" lon="4.72138">
        <ele>275.41605</ele>
        <time>2023-11-23T09:58:03.000Z</time>
      </trkpt>
      <trkpt lat="45.84021" lon="4.72131">
        <ele>274.45261</ele>
        <time>2023-11-23T09:58:04.000Z</time>
      </trkpt>
      <trkpt lat="45.8402" lon="4.72123">
        <ele>273.31549</ele>
        <time>2023-11-23T09:58:05.000Z</time>
      </trkpt>
      <trkpt lat="45.8402" lon="4.72116">
        <ele>272.15897</ele>
        <time>2023-11-23T09:58:06.000Z</time>
      </trkpt>
      <trkpt lat="45.84019" lon="4.72107">
        <ele>270.88348</ele>
        <time>2023-11-23T09:58:07.000Z</time>
      </trkpt>
      <trkpt lat="45.84019" lon="4.72099">
        <ele>269.58228</ele>
        <time>2023-11-23T09:58:08.000Z</time>
      </trkpt>
      <trkpt lat="45.84019" lon="4.7209">
        <ele>268.64572</ele>
        <time>2023-11-23T09:58:09.000Z</time>
      </trkpt>
      <trkpt lat="45.84018" lon="4.72082">
        <ele>267.63544</ele>
        <time>2023-11-23T09:58:10.000Z</time>
      </trkpt>
      <trkpt lat="45.84017" lon="4.72074">
        <ele>266.7619</ele>
        <time>2023-11-23T09:58:11.000Z</time>
      </trkpt>
      <trkpt lat="45.84016" lon="4.72065">
        <ele>265.85938</ele>
        <time>2023-11-23T09:58:12.000Z</time>
      </trkpt>
      <trkpt lat="45.84015" lon="4.72057">
        <ele>264.9726</ele>
        <time>2023-11-23T09:58:13.000Z</time>
      </trkpt>
      <trkpt lat="45.84014" lon="4.72049">
        <ele>264.92953</ele>
        <time>2023-11-23T09:58:14.000Z</time>
      </trkpt>
      <trkpt lat="45.84014" lon="4.72041">
        <ele>264.86066</ele>
        <time>2023-11-23T09:58:15.000Z</time>
      </trkpt>
      <trkpt lat="45.84014" lon="4.72033">
        <ele>264.80148</ele>
        <time>2023-11-23T09:58:16.000Z</time>
      </trkpt>
      <trkpt lat="45.84013" lon="4.72025">
        <ele>265.57281</ele>
        <time>2023-11-23T09:58:17.000Z</time>
      </trkpt>
      <trkpt lat="45.84013" lon="4.72017">
        <ele>266.36801</ele>
        <time>2023-11-23T09:58:18.000Z</time>
      </trkpt>
      <trkpt lat="45.84013" lon="4.7201">
        <ele>267.16995</ele>
        <time>2023-11-23T09:58:19.000Z</time>
      </trkpt>
      <trkpt lat="45.84012" lon="4.72002">
        <ele>267.99423</ele>
        <time>2023-11-23T09:58:20.000Z</time>
      </trkpt>
      <trkpt lat="45.84012" lon="4.71995">
        <ele>268.8692</ele>
        <time>2023-11-23T09:58:21.000Z</time>
      </trkpt>
      <trkpt lat="45.84011" lon="4.71987">
        <ele>269.8324</ele>
        <time>2023-11-23T09:58:22.000Z</time>
      </trkpt>
      <trkpt lat="45.8401" lon="4.71979">
        <ele>270.80829</ele>
        <time>2023-11-23T09:58:23.000Z</time>
      </trkpt>
      <trkpt lat="45.8401" lon="4.71971">
        <ele>271.8143</ele>
        <time>2023-11-23T09:58:24.000Z</time>
      </trkpt>
      <trkpt lat="45.8401" lon="4.71964">
        <ele>272.98807</ele>
        <time>2023-11-23T09:58:25.000Z</time>
      </trkpt>
      <trkpt lat="45.8401" lon="4.71957">
        <ele>274.28436</ele>
        <time>2023-11-23T09:58:26.000Z</time>
      </trkpt>
      <trkpt lat="45.84009" lon="4.7195">
        <ele>275.25403</ele>
        <time>2023-11-23T09:58:27.000Z</time>
      </trkpt>
      <trkpt lat="45.84009" lon="4.71944">
        <ele>276.306</ele>
        <time>2023-11-23T09:58:28.000Z</time>
      </trkpt>
      <trkpt lat="45.84009" lon="4.71937">
        <ele>277.37762</ele>
        <time>2023-11-23T09:58:29.000Z</time>
      </trkpt>
      <trkpt lat="45.84008" lon="4.71931">
        <ele>278.49564</ele>
        <time>2023-11-23T09:58:30.000Z</time>
      </trkpt>
      <trkpt lat="45.84008" lon="4.71924">
        <ele>279.39581</ele>
        <time>2023-11-23T09:58:31.000Z</time>
      </trkpt>
      <trkpt lat="45.84008" lon="4.71918">
        <ele>280.33783</ele>
        <time>2023-11-23T09:58:32.000Z</time>
      </trkpt>
      <trkpt lat="45.84007" lon="4.71912">
        <ele>281.31039</ele>
        <time>2023-11-23T09:58:33.000Z</time>
      </trkpt>
      <trkpt lat="45.84007" lon="4.71906">
        <ele>281.48547</ele>
        <time>2023-11-23T09:58:34.000Z</time>
      </trkpt>
      <trkpt lat="45.84006" lon="4.719">
        <ele>281.66962</ele>
        <time>2023-11-23T09:58:35.000Z</time>
      </trkpt>
      <trkpt lat="45.84005" lon="4.71894">
        <ele>281.85635</ele>
        <time>2023-11-23T09:58:36.000Z</time>
      </trkpt>
      <trkpt lat="45.84004" lon="4.71889">
        <ele>282.02252</ele>
        <time>2023-11-23T09:58:37.000Z</time>
      </trkpt>
      <trkpt lat="45.84002" lon="4.71883">
        <ele>282.17206</ele>
        <time>2023-11-23T09:58:38.000Z</time>
      </trkpt>
      <trkpt lat="45.83998" lon="4.71878">
        <ele>282.32037</ele>
        <time>2023-11-23T09:58:39.000Z</time>
      </trkpt>
      <trkpt lat="45.83995" lon="4.71874">
        <ele>282.45001</ele>
        <time>2023-11-23T09:58:40.000Z</time>
      </trkpt>
      <trkpt lat="45.83991" lon="4.7187">
        <ele>282.55795</ele>
        <time>2023-11-23T09:58:41.000Z</time>
      </trkpt>
      <trkpt lat="45.83988" lon="4.71865">
        <ele>282.63809</ele>
        <time>2023-11-23T09:58:42.000Z</time>
      </trkpt>
      <trkpt lat="45.83985" lon="4.7186">
        <ele>282.66342</ele>
        <time>2023-11-23T09:58:43.000Z</time>
      </trkpt>
      <trkpt lat="45.83982" lon="4.71855">
        <ele>282.6778</ele>
        <time>2023-11-23T09:58:44.000Z</time>
      </trkpt>
      <trkpt lat="45.83978" lon="4.71849">
        <ele>282.49115</ele>
        <time>2023-11-23T09:58:45.000Z</time>
      </trkpt>
      <trkpt lat="45.83974" lon="4.71844">
        <ele>282.19952</ele>
        <time>2023-11-23T09:58:46.000Z</time>
      </trkpt>
      <trkpt lat="45.83971" lon="4.71838">
        <ele>282.24408</ele>
        <time>2023-11-23T09:58:47.000Z</time>
      </trkpt>
      <trkpt lat="45.83967" lon="4.71832">
        <ele>282.22906</ele>
        <time>2023-11-23T09:58:48.000Z</time>
      </trkpt>
      <trkpt lat="45.83963" lon="4.71826">
        <ele>282.39694</ele>
        <time>2023-11-23T09:58:49.000Z</time>
      </trkpt>
      <trkpt lat="45.8396" lon="4.71821">
        <ele>282.61737</ele>
        <time>2023-11-23T09:58:50.000Z</time>
      </trkpt>
      <trkpt lat="45.83956" lon="4.71815">
        <ele>282.92496</ele>
        <time>2023-11-23T09:58:51.000Z</time>
      </trkpt>
      <trkpt lat="45.83953" lon="4.71808">
        <ele>283.21457</ele>
        <time>2023-11-23T09:58:52.000Z</time>
      </trkpt>
      <trkpt lat="45.83951" lon="4.71803">
        <ele>283.4924</ele>
        <time>2023-11-23T09:58:53.000Z</time>
      </trkpt>
      <trkpt lat="45.83949" lon="4.71795">
        <ele>283.74536</ele>
        <time>2023-11-23T09:58:54.000Z</time>
      </trkpt>
      <trkpt lat="45.83948" lon="4.71787">
        <ele>284.0835</ele>
        <time>2023-11-23T09:58:55.000Z</time>
      </trkpt>
      <trkpt lat="45.83946" lon="4.71779">
        <ele>284.41461</ele>
        <time>2023-11-23T09:58:56.000Z</time>
      </trkpt>
      <trkpt lat="45.83943" lon="4.71773">
        <ele>284.40344</ele>
        <time>2023-11-23T09:58:57.000Z</time>
      </trkpt>
      <trkpt lat="45.8394" lon="4.71766">
        <ele>284.43079</ele>
        <time>2023-11-23T09:58:58.000Z</time>
      </trkpt>
      <trkpt lat="45.83936" lon="4.71761">
        <ele>284.44687</ele>
        <time>2023-11-23T09:58:59.000Z</time>
      </trkpt>
      <trkpt lat="45.8393" lon="4.71757">
        <ele>284.44611</ele>
        <time>2023-11-23T09:59:00.000Z</time>
      </trkpt>
      <trkpt lat="45.83925" lon="4.71755">
        <ele>284.42294</ele>
        <time>2023-11-23T09:59:01.000Z</time>
      </trkpt>
      <trkpt lat="45.83921" lon="4.71753">
        <ele>284.38806</ele>
        <time>2023-11-23T09:59:02.000Z</time>
      </trkpt>
      <trkpt lat="45.83915" lon="4.71751">
        <ele>284.40009</ele>
        <time>2023-11-23T09:59:03.000Z</time>
      </trkpt>
      <trkpt lat="45.8391" lon="4.7175">
        <ele>284.43143</ele>
        <time>2023-11-23T09:59:04.000Z</time>
      </trkpt>
      <trkpt lat="45.83905" lon="4.71748">
        <ele>284.50284</ele>
        <time>2023-11-23T09:59:05.000Z</time>
      </trkpt>
      <trkpt lat="45.839" lon="4.71745">
        <ele>284.78879</ele>
        <time>2023-11-23T09:59:06.000Z</time>
      </trkpt>
      <trkpt lat="45.83894" lon="4.71742">
        <ele>285.09119</ele>
        <time>2023-11-23T09:59:07.000Z</time>
      </trkpt>
      <trkpt lat="45.83889" lon="4.71739">
        <ele>285.41867</ele>
        <time>2023-11-23T09:59:08.000Z</time>
      </trkpt>
      <trkpt lat="45.83882" lon="4.71735">
        <ele>285.21368</ele>
        <time>2023-11-23T09:59:09.000Z</time>
      </trkpt>
      <trkpt lat="45.83875" lon="4.71732">
        <ele>285.00714</ele>
        <time>2023-11-23T09:59:10.000Z</time>
      </trkpt>
      <trkpt lat="45.83868" lon="4.7173">
        <ele>284.75851</ele>
        <time>2023-11-23T09:59:11.000Z</time>
      </trkpt>
      <trkpt lat="45.83862" lon="4.71728">
        <ele>284.63538</ele>
        <time>2023-11-23T09:59:12.000Z</time>
      </trkpt>
      <trkpt lat="45.83858" lon="4.71727">
        <ele>284.452</ele>
        <time>2023-11-23T09:59:13.000Z</time>
      </trkpt>
      <trkpt lat="45.83853" lon="4.71723">
        <ele>284.40341</ele>
        <time>2023-11-23T09:59:14.000Z</time>
      </trkpt>
      <trkpt lat="45.83847" lon="4.71722">
        <ele>283.8501</ele>
        <time>2023-11-23T09:59:15.000Z</time>
      </trkpt>
      <trkpt lat="45.83844" lon="4.71719">
        <ele>283.36957</ele>
        <time>2023-11-23T09:59:16.000Z</time>
      </trkpt>
      <trkpt lat="45.83837" lon="4.71718">
        <ele>283.2121</ele>
        <time>2023-11-23T09:59:17.000Z</time>
      </trkpt>
      <trkpt lat="45.83831" lon="4.71715">
        <ele>283.0441</ele>
        <time>2023-11-23T09:59:18.000Z</time>
      </trkpt>
      <trkpt lat="45.83824" lon="4.71715">
        <ele>282.86542</ele>
        <time>2023-11-23T09:59:19.000Z</time>
      </trkpt>
      <trkpt lat="45.8382" lon="4.71712">
        <ele>282.71228</ele>
        <time>2023-11-23T09:59:20.000Z</time>
      </trkpt>
      <trkpt lat="45.83815" lon="4.71711">
        <ele>282.57965</ele>
        <time>2023-11-23T09:59:21.000Z</time>
      </trkpt>
      <trkpt lat="45.83811" lon="4.71708">
        <ele>282.50278</ele>
        <time>2023-11-23T09:59:22.000Z</time>
      </trkpt>
      <trkpt lat="45.83805" lon="4.71709">
        <ele>282.4549</ele>
        <time>2023-11-23T09:59:23.000Z</time>
      </trkpt>
      <trkpt lat="45.838" lon="4.71708">
        <ele>282.36359</ele>
        <time>2023-11-23T09:59:24.000Z</time>
      </trkpt>
      <trkpt lat="45.83795" lon="4.71706">
        <ele>282.26062</ele>
        <time>2023-11-23T09:59:25.000Z</time>
      </trkpt>
      <trkpt lat="45.83786" lon="4.71706">
        <ele>281.8175</ele>
        <time>2023-11-23T09:59:26.000Z</time>
      </trkpt>
      <trkpt lat="45.8378" lon="4.71705">
        <ele>281.32733</ele>
        <time>2023-11-23T09:59:27.000Z</time>
      </trkpt>
      <trkpt lat="45.83775" lon="4.71703">
        <ele>280.78763</ele>
        <time>2023-11-23T09:59:28.000Z</time>
      </trkpt>
      <trkpt lat="45.83771" lon="4.71702">
        <ele>280.76392</ele>
        <time>2023-11-23T09:59:29.000Z</time>
      </trkpt>
      <trkpt lat="45.83765" lon="4.71701">
        <ele>280.80475</ele>
        <time>2023-11-23T09:59:30.000Z</time>
      </trkpt>
      <trkpt lat="45.8376" lon="4.717">
        <ele>280.88931</ele>
        <time>2023-11-23T09:59:31.000Z</time>
      </trkpt>
      <trkpt lat="45.83756" lon="4.71699">
        <ele>280.47946</ele>
        <time>2023-11-23T09:59:32.000Z</time>
      </trkpt>
      <trkpt lat="45.83751" lon="4.71699">
        <ele>280.14276</ele>
        <time>2023-11-23T09:59:33.000Z</time>
      </trkpt>
      <trkpt lat="45.83746" lon="4.71697">
        <ele>279.68097</ele>
        <time>2023-11-23T09:59:34.000Z</time>
      </trkpt>
      <trkpt lat="45.8374" lon="4.71697">
        <ele>279.69049</ele>
        <time>2023-11-23T09:59:35.000Z</time>
      </trkpt>
      <trkpt lat="45.83735" lon="4.71696">
        <ele>279.68237</ele>
        <time>2023-11-23T09:59:36.000Z</time>
      </trkpt>
      <trkpt lat="45.8373" lon="4.71694">
        <ele>279.63647</ele>
        <time>2023-11-23T09:59:37.000Z</time>
      </trkpt>
      <trkpt lat="45.83726" lon="4.7169">
        <ele>279.4603</ele>
        <time>2023-11-23T09:59:38.000Z</time>
      </trkpt>
      <trkpt lat="45.83722" lon="4.71687">
        <ele>279.27463</ele>
        <time>2023-11-23T09:59:39.000Z</time>
      </trkpt>
      <trkpt lat="45.83719" lon="4.71681">
        <ele>279.05933</ele>
        <time>2023-11-23T09:59:40.000Z</time>
      </trkpt>
      <trkpt lat="45.83717" lon="4.71675">
        <ele>279.0611</ele>
        <time>2023-11-23T09:59:41.000Z</time>
      </trkpt>
      <trkpt lat="45.83714" lon="4.71671">
        <ele>278.95084</ele>
        <time>2023-11-23T09:59:42.000Z</time>
      </trkpt>
      <trkpt lat="45.83712" lon="4.71667">
        <ele>278.71683</ele>
        <time>2023-11-23T09:59:43.000Z</time>
      </trkpt>
      <trkpt lat="45.8371" lon="4.71663">
        <ele>278.45944</ele>
        <time>2023-11-23T09:59:44.000Z</time>
      </trkpt>
      <trkpt lat="45.83707" lon="4.71659">
        <ele>278.46124</ele>
        <time>2023-11-23T09:59:45.000Z</time>
      </trkpt>
      <trkpt lat="45.83705" lon="4.71655">
        <ele>278.59048</ele>
        <time>2023-11-23T09:59:46.000Z</time>
      </trkpt>
      <trkpt lat="45.83703" lon="4.71653">
        <ele>278.72934</ele>
        <time>2023-11-23T09:59:47.000Z</time>
      </trkpt>
      <trkpt lat="45.837" lon="4.71651">
        <ele>278.80307</ele>
        <time>2023-11-23T09:59:48.000Z</time>
      </trkpt>
      <trkpt lat="45.83697" lon="4.71652">
        <ele>278.76141</ele>
        <time>2023-11-23T09:59:49.000Z</time>
      </trkpt>
      <trkpt lat="45.83695" lon="4.71653">
        <ele>278.69815</ele>
        <time>2023-11-23T09:59:50.000Z</time>
      </trkpt>
      <trkpt lat="45.83693" lon="4.71654">
        <ele>278.77374</ele>
        <time>2023-11-23T09:59:51.000Z</time>
      </trkpt>
      <trkpt lat="45.83691" lon="4.71656">
        <ele>279.30569</ele>
        <time>2023-11-23T09:59:52.000Z</time>
      </trkpt>
      <trkpt lat="45.83688" lon="4.71657">
        <ele>279.78247</ele>
        <time>2023-11-23T09:59:53.000Z</time>
      </trkpt>
      <trkpt lat="45.83686" lon="4.71659">
        <ele>280.18729</ele>
        <time>2023-11-23T09:59:54.000Z</time>
      </trkpt>
      <trkpt lat="45.83683" lon="4.71659">
        <ele>280.47418</ele>
        <time>2023-11-23T09:59:55.000Z</time>
      </trkpt>
      <trkpt lat="45.83681" lon="4.7166">
        <ele>280.62091</ele>
        <time>2023-11-23T09:59:56.000Z</time>
      </trkpt>
      <trkpt lat="45.83677" lon="4.71661">
        <ele>280.8082</ele>
        <time>2023-11-23T09:59:57.000Z</time>
      </trkpt>
      <trkpt lat="45.83674" lon="4.71661">
        <ele>281.07147</ele>
        <time>2023-11-23T09:59:58.000Z</time>
      </trkpt>
      <trkpt lat="45.83671" lon="4.71661">
        <ele>281.4747</ele>
        <time>2023-11-23T09:59:59.000Z</time>
      </trkpt>
      <trkpt lat="45.83668" lon="4.71661">
        <ele>281.89267</ele>
        <time>2023-11-23T10:00:00.000Z</time>
      </trkpt>
      <trkpt lat="45.83664" lon="4.7166">
        <ele>282.10123</ele>
        <time>2023-11-23T10:00:01.000Z</time>
      </trkpt>
      <trkpt lat="45.83661" lon="4.71659">
        <ele>282.36511</ele>
        <time>2023-11-23T10:00:02.000Z</time>
      </trkpt>
      <trkpt lat="45.83658" lon="4.71658">
        <ele>282.73349</ele>
        <time>2023-11-23T10:00:03.000Z</time>
      </trkpt>
      <trkpt lat="45.83654" lon="4.71656">
        <ele>283.04968</ele>
        <time>2023-11-23T10:00:04.000Z</time>
      </trkpt>
      <trkpt lat="45.83651" lon="4.71655">
        <ele>283.11813</ele>
        <time>2023-11-23T10:00:05.000Z</time>
      </trkpt>
      <trkpt lat="45.83648" lon="4.71652">
        <ele>283.34537</ele>
        <time>2023-11-23T10:00:06.000Z</time>
      </trkpt>
      <trkpt lat="45.83645" lon="4.7165">
        <ele>283.21994</ele>
        <time>2023-11-23T10:00:07.000Z</time>
      </trkpt>
      <trkpt lat="45.83642" lon="4.71648">
        <ele>283.25385</ele>
        <time>2023-11-23T10:00:08.000Z</time>
      </trkpt>
      <trkpt lat="45.8364" lon="4.71645">
        <ele>283.25482</ele>
        <time>2023-11-23T10:00:09.000Z</time>
      </trkpt>
      <trkpt lat="45.83637" lon="4.71643">
        <ele>283.1922</ele>
        <time>2023-11-23T10:00:10.000Z</time>
      </trkpt>
      <trkpt lat="45.83635" lon="4.7164">
        <ele>283.01031</ele>
        <time>2023-11-23T10:00:11.000Z</time>
      </trkpt>
      <trkpt lat="45.83634" lon="4.71637">
        <ele>282.76129</ele>
        <time>2023-11-23T10:00:12.000Z</time>
      </trkpt>
      <trkpt lat="45.83632" lon="4.71633">
        <ele>282.56003</ele>
        <time>2023-11-23T10:00:13.000Z</time>
      </trkpt>
      <trkpt lat="45.8363" lon="4.7163">
        <ele>282.40869</ele>
        <time>2023-11-23T10:00:14.000Z</time>
      </trkpt>
      <trkpt lat="45.83629" lon="4.71626">
        <ele>282.34393</ele>
        <time>2023-11-23T10:00:15.000Z</time>
      </trkpt>
      <trkpt lat="45.83628" lon="4.71623">
        <ele>282.51526</ele>
        <time>2023-11-23T10:00:16.000Z</time>
      </trkpt>
      <trkpt lat="45.83628" lon="4.71618">
        <ele>282.73901</ele>
        <time>2023-11-23T10:00:17.000Z</time>
      </trkpt>
      <trkpt lat="45.83627" lon="4.71613">
        <ele>283.12476</ele>
        <time>2023-11-23T10:00:18.000Z</time>
      </trkpt>
      <trkpt lat="45.83626" lon="4.71608">
        <ele>283.06494</ele>
        <time>2023-11-23T10:00:19.000Z</time>
      </trkpt>
      <trkpt lat="45.83625" lon="4.71604">
        <ele>283.10989</ele>
        <time>2023-11-23T10:00:20.000Z</time>
      </trkpt>
      <trkpt lat="45.83624" lon="4.71599">
        <ele>283.18274</ele>
        <time>2023-11-23T10:00:21.000Z</time>
      </trkpt>
      <trkpt lat="45.83624" lon="4.71595">
        <ele>283.25314</ele>
        <time>2023-11-23T10:00:22.000Z</time>
      </trkpt>
      <trkpt lat="45.83623" lon="4.71592">
        <ele>283.39209</ele>
        <time>2023-11-23T10:00:23.000Z</time>
      </trkpt>
      <trkpt lat="45.83622" lon="4.71589">
        <ele>283.62805</ele>
        <time>2023-11-23T10:00:24.000Z</time>
      </trkpt>
      <trkpt lat="45.83621" lon="4.71586">
        <ele>283.85794</ele>
        <time>2023-11-23T10:00:25.000Z</time>
      </trkpt>
      <trkpt lat="45.8362" lon="4.71583">
        <ele>283.90485</ele>
        <time>2023-11-23T10:00:26.000Z</time>
      </trkpt>
      <trkpt lat="45.8362" lon="4.7158">
        <ele>284.33408</ele>
        <time>2023-11-23T10:00:27.000Z</time>
      </trkpt>
      <trkpt lat="45.8362" lon="4.71577">
        <ele>284.70963</ele>
        <time>2023-11-23T10:00:28.000Z</time>
      </trkpt>
      <trkpt lat="45.8362" lon="4.71573">
        <ele>285.19659</ele>
        <time>2023-11-23T10:00:29.000Z</time>
      </trkpt>
      <trkpt lat="45.83621" lon="4.71571">
        <ele>285.65552</ele>
        <time>2023-11-23T10:00:30.000Z</time>
      </trkpt>
      <trkpt lat="45.83621" lon="4.71567">
        <ele>286.08441</ele>
        <time>2023-11-23T10:00:31.000Z</time>
      </trkpt>
      <trkpt lat="45.83621" lon="4.71564">
        <ele>286.51285</ele>
        <time>2023-11-23T10:00:32.000Z</time>
      </trkpt>
      <trkpt lat="45.83621" lon="4.71562">
        <ele>286.95279</ele>
        <time>2023-11-23T10:00:33.000Z</time>
      </trkpt>
      <trkpt lat="45.83621" lon="4.71559">
        <ele>287.51385</ele>
        <time>2023-11-23T10:00:34.000Z</time>
      </trkpt>
      <trkpt lat="45.83621" lon="4.71556">
        <ele>287.83234</ele>
        <time>2023-11-23T10:00:35.000Z</time>
      </trkpt>
      <trkpt lat="45.83622" lon="4.71553">
        <ele>288.06433</ele>
        <time>2023-11-23T10:00:36.000Z</time>
      </trkpt>
      <trkpt lat="45.83623" lon="4.71548">
        <ele>288.29541</ele>
        <time>2023-11-23T10:00:38.000Z</time>
      </trkpt>
      <trkpt lat="45.83623" lon="4.71543">
        <ele>288.43909</ele>
        <time>2023-11-23T10:00:40.000Z</time>
      </trkpt>
      <trkpt lat="45.83623" lon="4.7154">
        <ele>288.89932</ele>
        <time>2023-11-23T10:00:41.000Z</time>
      </trkpt>
      <trkpt lat="45.83622" lon="4.71538">
        <ele>289.26129</ele>
        <time>2023-11-23T10:00:42.000Z</time>
      </trkpt>
      <trkpt lat="45.8362" lon="4.71535">
        <ele>289.58139</ele>
        <time>2023-11-23T10:00:43.000Z</time>
      </trkpt>
      <trkpt lat="45.83619" lon="4.71532">
        <ele>289.9122</ele>
        <time>2023-11-23T10:00:44.000Z</time>
      </trkpt>
      <trkpt lat="45.83618" lon="4.71529">
        <ele>290.17514</ele>
        <time>2023-11-23T10:00:45.000Z</time>
      </trkpt>
      <trkpt lat="45.83616" lon="4.71526">
        <ele>290.45343</ele>
        <time>2023-11-23T10:00:46.000Z</time>
      </trkpt>
      <trkpt lat="45.83615" lon="4.71524">
        <ele>290.72284</ele>
        <time>2023-11-23T10:00:47.000Z</time>
      </trkpt>
      <trkpt lat="45.83614" lon="4.71521">
        <ele>291.00299</ele>
        <time>2023-11-23T10:00:48.000Z</time>
      </trkpt>
      <trkpt lat="45.83612" lon="4.71518">
        <ele>291.27313</ele>
        <time>2023-11-23T10:00:49.000Z</time>
      </trkpt>
      <trkpt lat="45.83611" lon="4.71515">
        <ele>291.52261</ele>
        <time>2023-11-23T10:00:50.000Z</time>
      </trkpt>
      <trkpt lat="45.8361" lon="4.71512">
        <ele>291.65228</ele>
        <time>2023-11-23T10:00:51.000Z</time>
      </trkpt>
      <trkpt lat="45.83609" lon="4.71509">
        <ele>291.76529</ele>
        <time>2023-11-23T10:00:52.000Z</time>
      </trkpt>
      <trkpt lat="45.83607" lon="4.71505">
        <ele>291.83896</ele>
        <time>2023-11-23T10:00:54.000Z</time>
      </trkpt>
      <trkpt lat="45.83605" lon="4.71502">
        <ele>291.91891</ele>
        <time>2023-11-23T10:00:56.000Z</time>
      </trkpt>
      <trkpt lat="45.83601" lon="4.71502">
        <ele>291.98581</ele>
        <time>2023-11-23T10:00:58.000Z</time>
      </trkpt>
      <trkpt lat="45.83599" lon="4.71503">
        <ele>291.95135</ele>
        <time>2023-11-23T10:00:59.000Z</time>
      </trkpt>
      <trkpt lat="45.83597" lon="4.71505">
        <ele>292.12527</ele>
        <time>2023-11-23T10:01:00.000Z</time>
      </trkpt>
      <trkpt lat="45.83593" lon="4.71504">
        <ele>292.23615</ele>
        <time>2023-11-23T10:01:02.000Z</time>
      </trkpt>
      <trkpt lat="45.83591" lon="4.71503">
        <ele>292.32242</ele>
        <time>2023-11-23T10:01:03.000Z</time>
      </trkpt>
      <trkpt lat="45.83588" lon="4.71501">
        <ele>292.36606</ele>
        <time>2023-11-23T10:01:04.000Z</time>
      </trkpt>
      <trkpt lat="45.83586" lon="4.71501">
        <ele>292.44821</ele>
        <time>2023-11-23T10:01:05.000Z</time>
      </trkpt>
      <trkpt lat="45.83583" lon="4.71501">
        <ele>292.5484</ele>
        <time>2023-11-23T10:01:06.000Z</time>
      </trkpt>
      <trkpt lat="45.8358" lon="4.71501">
        <ele>292.64218</ele>
        <time>2023-11-23T10:01:07.000Z</time>
      </trkpt>
      <trkpt lat="45.83577" lon="4.71502">
        <ele>292.75363</ele>
        <time>2023-11-23T10:01:08.000Z</time>
      </trkpt>
      <trkpt lat="45.83575" lon="4.71502">
        <ele>292.82925</ele>
        <time>2023-11-23T10:01:09.000Z</time>
      </trkpt>
      <trkpt lat="45.83572" lon="4.71503">
        <ele>292.90997</ele>
        <time>2023-11-23T10:01:10.000Z</time>
      </trkpt>
      <trkpt lat="45.83568" lon="4.71504">
        <ele>293.02615</ele>
        <time>2023-11-23T10:01:11.000Z</time>
      </trkpt>
      <trkpt lat="45.83565" lon="4.71505">
        <ele>293.3107</ele>
        <time>2023-11-23T10:01:12.000Z</time>
      </trkpt>
      <trkpt lat="45.83562" lon="4.71506">
        <ele>293.59125</ele>
        <time>2023-11-23T10:01:13.000Z</time>
      </trkpt>
      <trkpt lat="45.83559" lon="4.71506">
        <ele>293.66653</ele>
        <time>2023-11-23T10:01:14.000Z</time>
      </trkpt>
      <trkpt lat="45.83556" lon="4.71506">
        <ele>293.84671</ele>
        <time>2023-11-23T10:01:15.000Z</time>
      </trkpt>
      <trkpt lat="45.83553" lon="4.71507">
        <ele>294.11871</ele>
        <time>2023-11-23T10:01:16.000Z</time>
      </trkpt>
      <trkpt lat="45.83549" lon="4.71507">
        <ele>294.25629</ele>
        <time>2023-11-23T10:01:17.000Z</time>
      </trkpt>
      <trkpt lat="45.83546" lon="4.71508">
        <ele>294.70972</ele>
        <time>2023-11-23T10:01:18.000Z</time>
      </trkpt>
      <trkpt lat="45.83543" lon="4.71508">
        <ele>294.98199</ele>
        <time>2023-11-23T10:01:19.000Z</time>
      </trkpt>
      <trkpt lat="45.8354" lon="4.71509">
        <ele>295.20551</ele>
        <time>2023-11-23T10:01:20.000Z</time>
      </trkpt>
      <trkpt lat="45.83537" lon="4.7151">
        <ele>295.59576</ele>
        <time>2023-11-23T10:01:21.000Z</time>
      </trkpt>
      <trkpt lat="45.83534" lon="4.71511">
        <ele>295.83591</ele>
        <time>2023-11-23T10:01:22.000Z</time>
      </trkpt>
      <trkpt lat="45.83531" lon="4.71512">
        <ele>296.08173</ele>
        <time>2023-11-23T10:01:23.000Z</time>
      </trkpt>
      <trkpt lat="45.83528" lon="4.71512">
        <ele>296.32404</ele>
        <time>2023-11-23T10:01:24.000Z</time>
      </trkpt>
      <trkpt lat="45.83526" lon="4.71512">
        <ele>296.54684</ele>
        <time>2023-11-23T10:01:25.000Z</time>
      </trkpt>
      <trkpt lat="45.83523" lon="4.71511">
        <ele>296.75055</ele>
        <time>2023-11-23T10:01:26.000Z</time>
      </trkpt>
      <trkpt lat="45.8352" lon="4.7151">
        <ele>296.97534</ele>
        <time>2023-11-23T10:01:27.000Z</time>
      </trkpt>
      <trkpt lat="45.83517" lon="4.71509">
        <ele>297.18707</ele>
        <time>2023-11-23T10:01:28.000Z</time>
      </trkpt>
      <trkpt lat="45.83513" lon="4.71508">
        <ele>297.39719</ele>
        <time>2023-11-23T10:01:29.000Z</time>
      </trkpt>
      <trkpt lat="45.83509" lon="4.71507">
        <ele>297.61642</ele>
        <time>2023-11-23T10:01:30.000Z</time>
      </trkpt>
      <trkpt lat="45.83506" lon="4.71507">
        <ele>297.80731</ele>
        <time>2023-11-23T10:01:31.000Z</time>
      </trkpt>
      <trkpt lat="45.83502" lon="4.71506">
        <ele>297.84103</ele>
        <time>2023-11-23T10:01:32.000Z</time>
      </trkpt>
      <trkpt lat="45.83499" lon="4.71506">
        <ele>297.88779</ele>
        <time>2023-11-23T10:01:33.000Z</time>
      </trkpt>
      <trkpt lat="45.83496" lon="4.71506">
        <ele>298.1225</ele>
        <time>2023-11-23T10:01:34.000Z</time>
      </trkpt>
      <trkpt lat="45.83493" lon="4.71505">
        <ele>298.23288</ele>
        <time>2023-11-23T10:01:35.000Z</time>
      </trkpt>
      <trkpt lat="45.8349" lon="4.71504">
        <ele>298.28107</ele>
        <time>2023-11-23T10:01:36.000Z</time>
      </trkpt>
      <trkpt lat="45.83487" lon="4.71503">
        <ele>298.508</ele>
        <time>2023-11-23T10:01:37.000Z</time>
      </trkpt>
      <trkpt lat="45.83484" lon="4.71502">
        <ele>298.43622</ele>
        <time>2023-11-23T10:01:38.000Z</time>
      </trkpt>
      <trkpt lat="45.83482" lon="4.71501">
        <ele>298.50824</ele>
        <time>2023-11-23T10:01:39.000Z</time>
      </trkpt>
      <trkpt lat="45.83479" lon="4.715">
        <ele>298.66614</ele>
        <time>2023-11-23T10:01:40.000Z</time>
      </trkpt>
      <trkpt lat="45.83476" lon="4.71499">
        <ele>298.66046</ele>
        <time>2023-11-23T10:01:41.000Z</time>
      </trkpt>
      <trkpt lat="45.83473" lon="4.71498">
        <ele>298.66641</ele>
        <time>2023-11-23T10:01:42.000Z</time>
      </trkpt>
      <trkpt lat="45.8347" lon="4.71496">
        <ele>298.69434</ele>
        <time>2023-11-23T10:01:43.000Z</time>
      </trkpt>
      <trkpt lat="45.83467" lon="4.71494">
        <ele>298.68536</ele>
        <time>2023-11-23T10:01:44.000Z</time>
      </trkpt>
      <trkpt lat="45.83465" lon="4.71493">
        <ele>298.6734</ele>
        <time>2023-11-23T10:01:45.000Z</time>
      </trkpt>
      <trkpt lat="45.83462" lon="4.71492">
        <ele>298.6987</ele>
        <time>2023-11-23T10:01:46.000Z</time>
      </trkpt>
      <trkpt lat="45.83459" lon="4.71492">
        <ele>298.71759</ele>
        <time>2023-11-23T10:01:47.000Z</time>
      </trkpt>
      <trkpt lat="45.83457" lon="4.71493">
        <ele>298.7543</ele>
        <time>2023-11-23T10:01:48.000Z</time>
      </trkpt>
      <trkpt lat="45.83455" lon="4.71495">
        <ele>298.80573</ele>
        <time>2023-11-23T10:01:49.000Z</time>
      </trkpt>
      <trkpt lat="45.83454" lon="4.71499">
        <ele>298.84457</ele>
        <time>2023-11-23T10:01:50.000Z</time>
      </trkpt>
      <trkpt lat="45.83454" lon="4.71502">
        <ele>298.87125</ele>
        <time>2023-11-23T10:01:51.000Z</time>
      </trkpt>
      <trkpt lat="45.83453" lon="4.71505">
        <ele>298.86475</ele>
        <time>2023-11-23T10:01:52.000Z</time>
      </trkpt>
      <trkpt lat="45.83453" lon="4.71509">
        <ele>298.86313</ele>
        <time>2023-11-23T10:01:53.000Z</time>
      </trkpt>
      <trkpt lat="45.83453" lon="4.71513">
        <ele>298.85291</ele>
        <time>2023-11-23T10:01:54.000Z</time>
      </trkpt>
      <trkpt lat="45.83453" lon="4.71516">
        <ele>298.83115</ele>
        <time>2023-11-23T10:01:55.000Z</time>
      </trkpt>
      <trkpt lat="45.83455" lon="4.71518">
        <ele>298.76822</ele>
        <time>2023-11-23T10:01:57.000Z</time>
      </trkpt>
      <trkpt lat="45.83457" lon="4.71519">
        <ele>298.74707</ele>
        <time>2023-11-23T10:01:58.000Z</time>
      </trkpt>
      <trkpt lat="45.83459" lon="4.71519">
        <ele>298.72034</ele>
        <time>2023-11-23T10:01:59.000Z</time>
      </trkpt>
      <trkpt lat="45.83462" lon="4.71518">
        <ele>298.71658</ele>
        <time>2023-11-23T10:02:01.000Z</time>
      </trkpt>
      <trkpt lat="45.83465" lon="4.71517">
        <ele>298.73236</ele>
        <time>2023-11-23T10:02:03.000Z</time>
      </trkpt>
      <trkpt lat="45.83467" lon="4.71515">
        <ele>298.73898</ele>
        <time>2023-11-23T10:02:05.000Z</time>
      </trkpt>
      <trkpt lat="45.83469" lon="4.71513">
        <ele>298.90591</ele>
        <time>2023-11-23T10:02:07.000Z</time>
      </trkpt>
    </trkseg>
  </trk>
</gpx>